<?xml version="1.0" encoding="UTF-8" standalone="no" ?>
<gpx xmlns="http://www.topografix.com/GPX/1/1" xmlns:xsi="http://www.w3.org/2001/XMLSchema-instance" xsi:schemaLocation="http://www.topografix.com/GPX/1/1 http://www.topografix.com/GPX/1/1/gpx.xsd" version="1.1" creator="VisuGPX - https://www.visugpx.com">
  <metadata>
    <name>Vosges-Juin2021</name>
  </metadata>
  <trk>
    <name><![CDATA[2021-06-15_09-33_Tue]]></name>
    <extensions>
      <line xmlns="http://www.topografix.com/GPX/gpx_style/0/2">
        <color>00FF00</color>
        <width>4</width>
      </line>
    </extensions>
    <trkseg>
      <trkpt lat="48.0864" lon="6.92556">
        <ele>758.32</ele>
        <time>2021-06-23T10:04:33Z</time>
      </trkpt>
      <trkpt lat="48.0864" lon="6.92556">
        <ele>758.32</ele>
        <time>2021-06-23T10:04:33Z</time>
      </trkpt>
      <trkpt lat="48.08627" lon="6.92547">
        <ele>756.28</ele>
        <time>2021-06-23T10:04:37Z</time>
      </trkpt>
      <trkpt lat="48.08609" lon="6.92541">
        <ele>752.4</ele>
        <time>2021-06-23T10:04:41Z</time>
      </trkpt>
      <trkpt lat="48.08589" lon="6.92528">
        <ele>747.19</ele>
        <time>2021-06-23T10:04:44Z</time>
      </trkpt>
      <trkpt lat="48.08555" lon="6.92534">
        <ele>743.43</ele>
        <time>2021-06-23T10:04:48Z</time>
      </trkpt>
      <trkpt lat="48.08482" lon="6.92561">
        <ele>739.02</ele>
        <time>2021-06-23T10:04:51Z</time>
      </trkpt>
      <trkpt lat="48.08473" lon="6.92568">
        <ele>738.06</ele>
        <time>2021-06-23T10:04:55Z</time>
      </trkpt>
      <trkpt lat="48.08462" lon="6.92582">
        <ele>736.5</ele>
        <time>2021-06-23T10:04:59Z</time>
      </trkpt>
      <trkpt lat="48.08458" lon="6.9259">
        <ele>735.16</ele>
        <time>2021-06-23T10:05:02Z</time>
      </trkpt>
      <trkpt lat="48.08457" lon="6.92599">
        <ele>733.86</ele>
        <time>2021-06-23T10:05:06Z</time>
      </trkpt>
      <trkpt lat="48.08459" lon="6.9261">
        <ele>732.73</ele>
        <time>2021-06-23T10:05:10Z</time>
      </trkpt>
      <trkpt lat="48.08476" lon="6.9263">
        <ele>732.3</ele>
        <time>2021-06-23T10:05:13Z</time>
      </trkpt>
      <trkpt lat="48.08479" lon="6.92636">
        <ele>731.81</ele>
        <time>2021-06-23T10:05:17Z</time>
      </trkpt>
      <trkpt lat="48.0848" lon="6.92644">
        <ele>731.57</ele>
        <time>2021-06-23T10:05:20Z</time>
      </trkpt>
      <trkpt lat="48.08478" lon="6.92652">
        <ele>731.41</ele>
        <time>2021-06-23T10:05:24Z</time>
      </trkpt>
      <trkpt lat="48.08474" lon="6.92658">
        <ele>731.13</ele>
        <time>2021-06-23T10:05:28Z</time>
      </trkpt>
      <trkpt lat="48.08468" lon="6.92661">
        <ele>730.8</ele>
        <time>2021-06-23T10:05:31Z</time>
      </trkpt>
      <trkpt lat="48.08433" lon="6.92655">
        <ele>728.55</ele>
        <time>2021-06-23T10:05:35Z</time>
      </trkpt>
      <trkpt lat="48.08377" lon="6.92651">
        <ele>721.84</ele>
        <time>2021-06-23T10:05:38Z</time>
      </trkpt>
      <trkpt lat="48.08365" lon="6.92602">
        <ele>720.9</ele>
        <time>2021-06-23T10:05:43Z</time>
      </trkpt>
      <trkpt lat="48.08322" lon="6.92488">
        <ele>716.48</ele>
        <time>2021-06-23T10:05:48Z</time>
      </trkpt>
      <trkpt lat="48.08312" lon="6.92452">
        <ele>715.09</ele>
        <time>2021-06-23T10:05:53Z</time>
      </trkpt>
      <trkpt lat="48.08305" lon="6.92417">
        <ele>714.97</ele>
        <time>2021-06-23T10:05:58Z</time>
      </trkpt>
      <trkpt lat="48.08303" lon="6.92397">
        <ele>714.92</ele>
        <time>2021-06-23T10:06:03Z</time>
      </trkpt>
      <trkpt lat="48.08304" lon="6.92343">
        <ele>713.32</ele>
        <time>2021-06-23T10:06:08Z</time>
      </trkpt>
      <trkpt lat="48.08312" lon="6.92284">
        <ele>711.41</ele>
        <time>2021-06-23T10:06:13Z</time>
      </trkpt>
      <trkpt lat="48.08332" lon="6.9217">
        <ele>715.84</ele>
        <time>2021-06-23T10:06:18Z</time>
      </trkpt>
      <trkpt lat="48.08337" lon="6.92132">
        <ele>716.33</ele>
        <time>2021-06-23T10:06:23Z</time>
      </trkpt>
      <trkpt lat="48.08351" lon="6.91858">
        <ele>709.28</ele>
        <time>2021-06-23T10:06:28Z</time>
      </trkpt>
      <trkpt lat="48.08356" lon="6.91795">
        <ele>712.71</ele>
        <time>2021-06-23T10:06:33Z</time>
      </trkpt>
      <trkpt lat="48.08362" lon="6.9175">
        <ele>715.12</ele>
        <time>2021-06-23T10:06:38Z</time>
      </trkpt>
      <trkpt lat="48.08369" lon="6.91717">
        <ele>714.53</ele>
        <time>2021-06-23T10:06:43Z</time>
      </trkpt>
      <trkpt lat="48.08389" lon="6.91645">
        <ele>709.99</ele>
        <time>2021-06-23T10:06:48Z</time>
      </trkpt>
      <trkpt lat="48.08401" lon="6.91553">
        <ele>710.58</ele>
        <time>2021-06-23T10:06:53Z</time>
      </trkpt>
      <trkpt lat="48.08411" lon="6.91448">
        <ele>706.06</ele>
        <time>2021-06-23T10:06:58Z</time>
      </trkpt>
      <trkpt lat="48.08419" lon="6.91389">
        <ele>705.56</ele>
        <time>2021-06-23T10:07:03Z</time>
      </trkpt>
      <trkpt lat="48.08451" lon="6.91251">
        <ele>705.41</ele>
        <time>2021-06-23T10:07:08Z</time>
      </trkpt>
      <trkpt lat="48.08479" lon="6.91158">
        <ele>706.53</ele>
        <time>2021-06-23T10:07:13Z</time>
      </trkpt>
      <trkpt lat="48.08484" lon="6.91126">
        <ele>705.27</ele>
        <time>2021-06-23T10:07:18Z</time>
      </trkpt>
      <trkpt lat="48.08486" lon="6.91077">
        <ele>703.46</ele>
        <time>2021-06-23T10:07:22Z</time>
      </trkpt>
      <trkpt lat="48.08495" lon="6.9102">
        <ele>699.06</ele>
        <time>2021-06-23T10:07:27Z</time>
      </trkpt>
      <trkpt lat="48.085" lon="6.91016">
        <ele>700.08</ele>
        <time>2021-06-23T10:07:30Z</time>
      </trkpt>
      <trkpt lat="48.08503" lon="6.9101">
        <ele>700.72</ele>
        <time>2021-06-23T10:07:33Z</time>
      </trkpt>
      <trkpt lat="48.08505" lon="6.91001">
        <ele>700.77</ele>
        <time>2021-06-23T10:07:36Z</time>
      </trkpt>
      <trkpt lat="48.08505" lon="6.90994">
        <ele>700.59</ele>
        <time>2021-06-23T10:07:39Z</time>
      </trkpt>
      <trkpt lat="48.085" lon="6.90981">
        <ele>698.88</ele>
        <time>2021-06-23T10:07:42Z</time>
      </trkpt>
      <trkpt lat="48.08499" lon="6.90965">
        <ele>698.98</ele>
        <time>2021-06-23T10:07:45Z</time>
      </trkpt>
      <trkpt lat="48.08503" lon="6.90933">
        <ele>702.59</ele>
        <time>2021-06-23T10:07:48Z</time>
      </trkpt>
      <trkpt lat="48.08515" lon="6.90871">
        <ele>711.41</ele>
        <time>2021-06-23T10:07:51Z</time>
      </trkpt>
      <trkpt lat="48.08522" lon="6.90841">
        <ele>713.04</ele>
        <time>2021-06-23T10:07:53Z</time>
      </trkpt>
      <trkpt lat="48.08535" lon="6.90811">
        <ele>715.63</ele>
        <time>2021-06-23T10:07:56Z</time>
      </trkpt>
      <trkpt lat="48.08552" lon="6.90781">
        <ele>717.84</ele>
        <time>2021-06-23T10:07:59Z</time>
      </trkpt>
      <trkpt lat="48.08589" lon="6.90726">
        <ele>718.23</ele>
        <time>2021-06-23T10:08:02Z</time>
      </trkpt>
      <trkpt lat="48.08651" lon="6.90597">
        <ele>724.13</ele>
        <time>2021-06-23T10:08:05Z</time>
      </trkpt>
      <trkpt lat="48.08673" lon="6.90562">
        <ele>724.44</ele>
        <time>2021-06-23T10:08:08Z</time>
      </trkpt>
      <trkpt lat="48.08716" lon="6.90518">
        <ele>732.53</ele>
        <time>2021-06-23T10:08:11Z</time>
      </trkpt>
      <trkpt lat="48.08735" lon="6.90495">
        <ele>734.23</ele>
        <time>2021-06-23T10:08:14Z</time>
      </trkpt>
      <trkpt lat="48.08751" lon="6.9047">
        <ele>734.93</ele>
        <time>2021-06-23T10:08:16Z</time>
      </trkpt>
      <trkpt lat="48.08784" lon="6.90407">
        <ele>733.2</ele>
        <time>2021-06-23T10:08:19Z</time>
      </trkpt>
      <trkpt lat="48.08807" lon="6.90373">
        <ele>738.89</ele>
        <time>2021-06-23T10:08:22Z</time>
      </trkpt>
      <trkpt lat="48.08871" lon="6.90298">
        <ele>743.55</ele>
        <time>2021-06-23T10:08:25Z</time>
      </trkpt>
      <trkpt lat="48.08905" lon="6.90262">
        <ele>751.33</ele>
        <time>2021-06-23T10:08:28Z</time>
      </trkpt>
      <trkpt lat="48.08948" lon="6.90227">
        <ele>754.55</ele>
        <time>2021-06-23T10:08:31Z</time>
      </trkpt>
      <trkpt lat="48.08978" lon="6.90209">
        <ele>755.91</ele>
        <time>2021-06-23T10:08:34Z</time>
      </trkpt>
      <trkpt lat="48.09009" lon="6.90199">
        <ele>757.72</ele>
        <time>2021-06-23T10:08:37Z</time>
      </trkpt>
      <trkpt lat="48.09135" lon="6.90166">
        <ele>762.49</ele>
        <time>2021-06-23T10:08:40Z</time>
      </trkpt>
      <trkpt lat="48.09334" lon="6.90141">
        <ele>774.1</ele>
        <time>2021-06-23T10:08:42Z</time>
      </trkpt>
      <trkpt lat="48.09334" lon="6.90141">
        <ele>774.1</ele>
        <time>2021-06-23T10:08:42Z</time>
      </trkpt>
      <trkpt lat="48.09358" lon="6.90143">
        <ele>773.09</ele>
        <time>2021-06-23T10:08:47Z</time>
      </trkpt>
      <trkpt lat="48.09386" lon="6.90152">
        <ele>773.06</ele>
        <time>2021-06-23T10:08:51Z</time>
      </trkpt>
      <trkpt lat="48.09412" lon="6.90165">
        <ele>773.98</ele>
        <time>2021-06-23T10:08:55Z</time>
      </trkpt>
      <trkpt lat="48.09485" lon="6.90212">
        <ele>782.65</ele>
        <time>2021-06-23T10:09:00Z</time>
      </trkpt>
      <trkpt lat="48.09536" lon="6.90241">
        <ele>788.96</ele>
        <time>2021-06-23T10:09:04Z</time>
      </trkpt>
      <trkpt lat="48.09645" lon="6.90291">
        <ele>796.65</ele>
        <time>2021-06-23T10:09:08Z</time>
      </trkpt>
      <trkpt lat="48.09671" lon="6.90307">
        <ele>798.59</ele>
        <time>2021-06-23T10:09:13Z</time>
      </trkpt>
      <trkpt lat="48.09696" lon="6.90325">
        <ele>802.53</ele>
        <time>2021-06-23T10:09:17Z</time>
      </trkpt>
      <trkpt lat="48.09726" lon="6.90361">
        <ele>806.18</ele>
        <time>2021-06-23T10:09:21Z</time>
      </trkpt>
      <trkpt lat="48.09785" lon="6.90442">
        <ele>805.13</ele>
        <time>2021-06-23T10:09:26Z</time>
      </trkpt>
      <trkpt lat="48.09826" lon="6.9049">
        <ele>799.55</ele>
        <time>2021-06-23T10:09:30Z</time>
      </trkpt>
      <trkpt lat="48.09849" lon="6.90508">
        <ele>798.71</ele>
        <time>2021-06-23T10:09:34Z</time>
      </trkpt>
      <trkpt lat="48.09868" lon="6.90517">
        <ele>797.75</ele>
        <time>2021-06-23T10:09:39Z</time>
      </trkpt>
      <trkpt lat="48.09895" lon="6.90522">
        <ele>797.2</ele>
        <time>2021-06-23T10:09:43Z</time>
      </trkpt>
      <trkpt lat="48.10015" lon="6.90525">
        <ele>802.12</ele>
        <time>2021-06-23T10:09:47Z</time>
      </trkpt>
      <trkpt lat="48.10155" lon="6.90545">
        <ele>809.28</ele>
        <time>2021-06-23T10:09:52Z</time>
      </trkpt>
      <trkpt lat="48.10245" lon="6.90543">
        <ele>809.89</ele>
        <time>2021-06-23T10:09:56Z</time>
      </trkpt>
      <trkpt lat="48.10282" lon="6.90546">
        <ele>808.45</ele>
        <time>2021-06-23T10:10:00Z</time>
      </trkpt>
      <trkpt lat="48.1031" lon="6.90552">
        <ele>808.38</ele>
        <time>2021-06-23T10:10:05Z</time>
      </trkpt>
      <trkpt lat="48.10338" lon="6.90567">
        <ele>807.59</ele>
        <time>2021-06-23T10:10:09Z</time>
      </trkpt>
      <trkpt lat="48.10361" lon="6.90586">
        <ele>806.87</ele>
        <time>2021-06-23T10:10:13Z</time>
      </trkpt>
      <trkpt lat="48.10432" lon="6.90664">
        <ele>811.53</ele>
        <time>2021-06-23T10:10:18Z</time>
      </trkpt>
      <trkpt lat="48.10468" lon="6.907">
        <ele>808.47</ele>
        <time>2021-06-23T10:10:22Z</time>
      </trkpt>
      <trkpt lat="48.10484" lon="6.90713">
        <ele>808.39</ele>
        <time>2021-06-23T10:10:26Z</time>
      </trkpt>
      <trkpt lat="48.10508" lon="6.90725">
        <ele>809.22</ele>
        <time>2021-06-23T10:10:31Z</time>
      </trkpt>
      <trkpt lat="48.10658" lon="6.90762">
        <ele>806.21</ele>
        <time>2021-06-23T10:10:35Z</time>
      </trkpt>
      <trkpt lat="48.10688" lon="6.90773">
        <ele>804.71</ele>
        <time>2021-06-23T10:10:39Z</time>
      </trkpt>
      <trkpt lat="48.10765" lon="6.90817">
        <ele>801.81</ele>
        <time>2021-06-23T10:10:44Z</time>
      </trkpt>
      <trkpt lat="48.1079" lon="6.90824">
        <ele>803.97</ele>
        <time>2021-06-23T10:10:48Z</time>
      </trkpt>
      <trkpt lat="48.10845" lon="6.90825">
        <ele>802.91</ele>
        <time>2021-06-23T10:10:52Z</time>
      </trkpt>
      <trkpt lat="48.10875" lon="6.90831">
        <ele>802.95</ele>
        <time>2021-06-23T10:10:57Z</time>
      </trkpt>
      <trkpt lat="48.10965" lon="6.90859">
        <ele>799.32</ele>
        <time>2021-06-23T10:11:01Z</time>
      </trkpt>
      <trkpt lat="48.11039" lon="6.90894">
        <ele>796.71</ele>
        <time>2021-06-23T10:11:05Z</time>
      </trkpt>
      <trkpt lat="48.11075" lon="6.90915">
        <ele>789.61</ele>
        <time>2021-06-23T10:11:10Z</time>
      </trkpt>
      <trkpt lat="48.11094" lon="6.90932">
        <ele>790.29</ele>
        <time>2021-06-23T10:11:14Z</time>
      </trkpt>
      <trkpt lat="48.1113" lon="6.90976">
        <ele>791.53</ele>
        <time>2021-06-23T10:11:18Z</time>
      </trkpt>
      <trkpt lat="48.11144" lon="6.90997">
        <ele>793.52</ele>
        <time>2021-06-23T10:11:23Z</time>
      </trkpt>
      <trkpt lat="48.1117" lon="6.91016">
        <ele>793.52</ele>
        <time>2021-06-23T10:11:27Z</time>
      </trkpt>
      <trkpt lat="48.11195" lon="6.9103">
        <ele>791.23</ele>
        <time>2021-06-23T10:11:32Z</time>
      </trkpt>
      <trkpt lat="48.11264" lon="6.91078">
        <ele>782.43</ele>
        <time>2021-06-23T10:11:36Z</time>
      </trkpt>
      <trkpt lat="48.11278" lon="6.91086">
        <ele>781.76</ele>
        <time>2021-06-23T10:11:40Z</time>
      </trkpt>
      <trkpt lat="48.11294" lon="6.91091">
        <ele>784.01</ele>
        <time>2021-06-23T10:11:45Z</time>
      </trkpt>
      <trkpt lat="48.11321" lon="6.91093">
        <ele>786.1</ele>
        <time>2021-06-23T10:11:49Z</time>
      </trkpt>
      <trkpt lat="48.11347" lon="6.91087">
        <ele>785.25</ele>
        <time>2021-06-23T10:11:53Z</time>
      </trkpt>
      <trkpt lat="48.11386" lon="6.91072">
        <ele>777.74</ele>
        <time>2021-06-23T10:11:58Z</time>
      </trkpt>
      <trkpt lat="48.1145" lon="6.91054">
        <ele>772.38</ele>
        <time>2021-06-23T10:12:02Z</time>
      </trkpt>
      <trkpt lat="48.11538" lon="6.91034">
        <ele>775.13</ele>
        <time>2021-06-23T10:12:06Z</time>
      </trkpt>
      <trkpt lat="48.11579" lon="6.91035">
        <ele>775.42</ele>
        <time>2021-06-23T10:12:11Z</time>
      </trkpt>
      <trkpt lat="48.11881" lon="6.91089">
        <ele>767.27</ele>
        <time>2021-06-23T10:12:15Z</time>
      </trkpt>
      <trkpt lat="48.12286" lon="6.91273">
        <ele>757.23</ele>
        <time>2021-06-23T10:12:19Z</time>
      </trkpt>
      <trkpt lat="48.12328" lon="6.91294">
        <ele>754.37</ele>
        <time>2021-06-23T10:12:24Z</time>
      </trkpt>
      <trkpt lat="48.1247" lon="6.91398">
        <ele>753.63</ele>
        <time>2021-06-23T10:12:28Z</time>
      </trkpt>
      <trkpt lat="48.12593" lon="6.91477">
        <ele>741.99</ele>
        <time>2021-06-23T10:12:32Z</time>
      </trkpt>
      <trkpt lat="48.12615" lon="6.91484">
        <ele>738.91</ele>
        <time>2021-06-23T10:12:37Z</time>
      </trkpt>
      <trkpt lat="48.12678" lon="6.91493">
        <ele>734.24</ele>
        <time>2021-06-23T10:12:41Z</time>
      </trkpt>
      <trkpt lat="48.12714" lon="6.915">
        <ele>729.78</ele>
        <time>2021-06-23T10:12:45Z</time>
      </trkpt>
      <trkpt lat="48.1274" lon="6.91509">
        <ele>727.57</ele>
        <time>2021-06-23T10:12:50Z</time>
      </trkpt>
      <trkpt lat="48.12767" lon="6.91521">
        <ele>726.46</ele>
        <time>2021-06-23T10:12:54Z</time>
      </trkpt>
      <trkpt lat="48.12857" lon="6.91581">
        <ele>723.38</ele>
        <time>2021-06-23T10:12:58Z</time>
      </trkpt>
      <trkpt lat="48.12971" lon="6.91641">
        <ele>720.71</ele>
        <time>2021-06-23T10:13:03Z</time>
      </trkpt>
      <trkpt lat="48.12993" lon="6.9165">
        <ele>722</ele>
        <time>2021-06-23T10:13:07Z</time>
      </trkpt>
      <trkpt lat="48.13017" lon="6.91656">
        <ele>724.46</ele>
        <time>2021-06-23T10:13:11Z</time>
      </trkpt>
      <trkpt lat="48.13052" lon="6.91655">
        <ele>724.75</ele>
        <time>2021-06-23T10:13:16Z</time>
      </trkpt>
      <trkpt lat="48.13077" lon="6.91649">
        <ele>722.82</ele>
        <time>2021-06-23T10:13:20Z</time>
      </trkpt>
      <trkpt lat="48.13234" lon="6.91588">
        <ele>712.62</ele>
        <time>2021-06-23T10:13:24Z</time>
      </trkpt>
      <trkpt lat="48.13253" lon="6.91584">
        <ele>710.92</ele>
        <time>2021-06-23T10:13:29Z</time>
      </trkpt>
      <trkpt lat="48.13275" lon="6.91583">
        <ele>709.23</ele>
        <time>2021-06-23T10:13:33Z</time>
      </trkpt>
      <trkpt lat="48.13299" lon="6.91586">
        <ele>709.51</ele>
        <time>2021-06-23T10:13:37Z</time>
      </trkpt>
      <trkpt lat="48.13432" lon="6.91632">
        <ele>705.86</ele>
        <time>2021-06-23T10:13:42Z</time>
      </trkpt>
      <trkpt lat="48.13461" lon="6.91639">
        <ele>705.1</ele>
        <time>2021-06-23T10:13:46Z</time>
      </trkpt>
      <trkpt lat="48.13496" lon="6.91642">
        <ele>703</ele>
        <time>2021-06-23T10:13:50Z</time>
      </trkpt>
      <trkpt lat="48.13623" lon="6.91647">
        <ele>701.18</ele>
        <time>2021-06-23T10:13:55Z</time>
      </trkpt>
      <trkpt lat="48.13663" lon="6.91651">
        <ele>699.46</ele>
        <time>2021-06-23T10:13:59Z</time>
      </trkpt>
      <trkpt lat="48.137" lon="6.91659">
        <ele>698.03</ele>
        <time>2021-06-23T10:14:03Z</time>
      </trkpt>
      <trkpt lat="48.13732" lon="6.9167">
        <ele>695.48</ele>
        <time>2021-06-23T10:14:08Z</time>
      </trkpt>
      <trkpt lat="48.13765" lon="6.91683">
        <ele>691.88</ele>
        <time>2021-06-23T10:14:12Z</time>
      </trkpt>
      <trkpt lat="48.13797" lon="6.91692">
        <ele>688.76</ele>
        <time>2021-06-23T10:14:16Z</time>
      </trkpt>
      <trkpt lat="48.1383" lon="6.91695">
        <ele>688.12</ele>
        <time>2021-06-23T10:14:21Z</time>
      </trkpt>
      <trkpt lat="48.13859" lon="6.91689">
        <ele>686.86</ele>
        <time>2021-06-23T10:14:25Z</time>
      </trkpt>
      <trkpt lat="48.13945" lon="6.91662">
        <ele>687.23</ele>
        <time>2021-06-23T10:14:29Z</time>
      </trkpt>
      <trkpt lat="48.13971" lon="6.91657">
        <ele>689.69</ele>
        <time>2021-06-23T10:14:34Z</time>
      </trkpt>
      <trkpt lat="48.14035" lon="6.91653">
        <ele>686.47</ele>
        <time>2021-06-23T10:14:38Z</time>
      </trkpt>
      <trkpt lat="48.14072" lon="6.91657">
        <ele>684.03</ele>
        <time>2021-06-23T10:14:42Z</time>
      </trkpt>
      <trkpt lat="48.14117" lon="6.91667">
        <ele>678.97</ele>
        <time>2021-06-23T10:14:47Z</time>
      </trkpt>
      <trkpt lat="48.14256" lon="6.91706">
        <ele>667.94</ele>
        <time>2021-06-23T10:14:51Z</time>
      </trkpt>
      <trkpt lat="48.14274" lon="6.91715">
        <ele>667.77</ele>
        <time>2021-06-23T10:14:55Z</time>
      </trkpt>
      <trkpt lat="48.14475" lon="6.91847">
        <ele>651.62</ele>
        <time>2021-06-23T10:15:00Z</time>
      </trkpt>
      <trkpt lat="48.14517" lon="6.91877">
        <ele>646.85</ele>
        <time>2021-06-23T10:15:04Z</time>
      </trkpt>
      <trkpt lat="48.14548" lon="6.91894">
        <ele>643.71</ele>
        <time>2021-06-23T10:15:08Z</time>
      </trkpt>
      <trkpt lat="48.14566" lon="6.91901">
        <ele>643.54</ele>
        <time>2021-06-23T10:15:13Z</time>
      </trkpt>
      <trkpt lat="48.14664" lon="6.9193">
        <ele>637.4</ele>
        <time>2021-06-23T10:15:17Z</time>
      </trkpt>
      <trkpt lat="48.14744" lon="6.91964">
        <ele>635.1</ele>
        <time>2021-06-23T10:15:21Z</time>
      </trkpt>
      <trkpt lat="48.14812" lon="6.92004">
        <ele>633.78</ele>
        <time>2021-06-23T10:15:26Z</time>
      </trkpt>
      <trkpt lat="48.14827" lon="6.92016">
        <ele>633.22</ele>
        <time>2021-06-23T10:15:30Z</time>
      </trkpt>
      <trkpt lat="48.14865" lon="6.92045">
        <ele>632.72</ele>
        <time>2021-06-23T10:15:34Z</time>
      </trkpt>
      <trkpt lat="48.14932" lon="6.9211">
        <ele>630.28</ele>
        <time>2021-06-23T10:15:39Z</time>
      </trkpt>
      <trkpt lat="48.14955" lon="6.92124">
        <ele>629.82</ele>
        <time>2021-06-23T10:15:43Z</time>
      </trkpt>
      <trkpt lat="48.14967" lon="6.92127">
        <ele>630.36</ele>
        <time>2021-06-23T10:15:47Z</time>
      </trkpt>
      <trkpt lat="48.15169" lon="6.92133">
        <ele>619.8</ele>
        <time>2021-06-23T10:15:52Z</time>
      </trkpt>
      <trkpt lat="48.15178" lon="6.92138">
        <ele>619.95</ele>
        <time>2021-06-23T10:15:56Z</time>
      </trkpt>
      <trkpt lat="48.15221" lon="6.9214">
        <ele>621.02</ele>
        <time>2021-06-23T10:16:00Z</time>
      </trkpt>
      <trkpt lat="48.15372" lon="6.92143">
        <ele>623.51</ele>
        <time>2021-06-23T10:16:05Z</time>
      </trkpt>
      <trkpt lat="48.15392" lon="6.9214">
        <ele>623.1</ele>
        <time>2021-06-23T10:16:09Z</time>
      </trkpt>
      <trkpt lat="48.15614" lon="6.92147">
        <ele>636.49</ele>
        <time>2021-06-23T10:16:13Z</time>
      </trkpt>
      <trkpt lat="48.15774" lon="6.92157">
        <ele>643.75</ele>
        <time>2021-06-23T10:16:18Z</time>
      </trkpt>
      <trkpt lat="48.15802" lon="6.92156">
        <ele>643.95</ele>
        <time>2021-06-23T10:16:22Z</time>
      </trkpt>
      <trkpt lat="48.15843" lon="6.92141">
        <ele>644.73</ele>
        <time>2021-06-23T10:16:26Z</time>
      </trkpt>
      <trkpt lat="48.15866" lon="6.92129">
        <ele>645.73</ele>
        <time>2021-06-23T10:16:31Z</time>
      </trkpt>
      <trkpt lat="48.15885" lon="6.92114">
        <ele>645.2</ele>
        <time>2021-06-23T10:16:35Z</time>
      </trkpt>
      <trkpt lat="48.15906" lon="6.92091">
        <ele>644.09</ele>
        <time>2021-06-23T10:16:39Z</time>
      </trkpt>
      <trkpt lat="48.15927" lon="6.92061">
        <ele>642.59</ele>
        <time>2021-06-23T10:16:44Z</time>
      </trkpt>
      <trkpt lat="48.15941" lon="6.92036">
        <ele>640.86</ele>
        <time>2021-06-23T10:16:48Z</time>
      </trkpt>
      <trkpt lat="48.1595" lon="6.92015">
        <ele>638.36</ele>
        <time>2021-06-23T10:16:52Z</time>
      </trkpt>
      <trkpt lat="48.16006" lon="6.91865">
        <ele>635.25</ele>
        <time>2021-06-23T10:16:57Z</time>
      </trkpt>
      <trkpt lat="48.1602" lon="6.91834">
        <ele>635.87</ele>
        <time>2021-06-23T10:17:01Z</time>
      </trkpt>
      <trkpt lat="48.1604" lon="6.91798">
        <ele>636.55</ele>
        <time>2021-06-23T10:17:05Z</time>
      </trkpt>
      <trkpt lat="48.16065" lon="6.91768">
        <ele>635.66</ele>
        <time>2021-06-23T10:17:10Z</time>
      </trkpt>
      <trkpt lat="48.16083" lon="6.91754">
        <ele>635.13</ele>
        <time>2021-06-23T10:17:14Z</time>
      </trkpt>
      <trkpt lat="48.16106" lon="6.91738">
        <ele>634.58</ele>
        <time>2021-06-23T10:17:18Z</time>
      </trkpt>
      <trkpt lat="48.16128" lon="6.9173">
        <ele>632.59</ele>
        <time>2021-06-23T10:17:23Z</time>
      </trkpt>
      <trkpt lat="48.16151" lon="6.91727">
        <ele>630.5</ele>
        <time>2021-06-23T10:17:27Z</time>
      </trkpt>
      <trkpt lat="48.16244" lon="6.91727">
        <ele>623.79</ele>
        <time>2021-06-23T10:17:31Z</time>
      </trkpt>
      <trkpt lat="48.16269" lon="6.9173">
        <ele>623.53</ele>
        <time>2021-06-23T10:17:36Z</time>
      </trkpt>
      <trkpt lat="48.16297" lon="6.91737">
        <ele>624.75</ele>
        <time>2021-06-23T10:17:40Z</time>
      </trkpt>
      <trkpt lat="48.16337" lon="6.91754">
        <ele>625.37</ele>
        <time>2021-06-23T10:17:44Z</time>
      </trkpt>
      <trkpt lat="48.16526" lon="6.91862">
        <ele>619.19</ele>
        <time>2021-06-23T10:17:49Z</time>
      </trkpt>
      <trkpt lat="48.16622" lon="6.91913">
        <ele>614.6</ele>
        <time>2021-06-23T10:17:53Z</time>
      </trkpt>
      <trkpt lat="48.16688" lon="6.91919">
        <ele>613.51</ele>
        <time>2021-06-23T10:17:57Z</time>
      </trkpt>
      <trkpt lat="48.16731" lon="6.91916">
        <ele>611.28</ele>
        <time>2021-06-23T10:18:02Z</time>
      </trkpt>
      <trkpt lat="48.16777" lon="6.9192">
        <ele>605.72</ele>
        <time>2021-06-23T10:18:06Z</time>
      </trkpt>
      <trkpt lat="48.16786" lon="6.91925">
        <ele>605.26</ele>
        <time>2021-06-23T10:18:10Z</time>
      </trkpt>
      <trkpt lat="48.16786" lon="6.91925">
        <ele>605.26</ele>
        <time>2021-06-23T10:18:10Z</time>
      </trkpt>
      <trkpt lat="48.1683" lon="6.91947">
        <ele>604.13</ele>
        <time>2021-06-23T10:18:16Z</time>
      </trkpt>
      <trkpt lat="48.1686" lon="6.91973">
        <ele>602.09</ele>
        <time>2021-06-23T10:18:21Z</time>
      </trkpt>
      <trkpt lat="48.16882" lon="6.91996">
        <ele>601.49</ele>
        <time>2021-06-23T10:18:26Z</time>
      </trkpt>
      <trkpt lat="48.16909" lon="6.92033">
        <ele>599.86</ele>
        <time>2021-06-23T10:18:31Z</time>
      </trkpt>
      <trkpt lat="48.16954" lon="6.921">
        <ele>590.64</ele>
        <time>2021-06-23T10:18:37Z</time>
      </trkpt>
      <trkpt lat="48.16975" lon="6.92137">
        <ele>590.14</ele>
        <time>2021-06-23T10:18:42Z</time>
      </trkpt>
      <trkpt lat="48.16985" lon="6.92164">
        <ele>592.26</ele>
        <time>2021-06-23T10:18:47Z</time>
      </trkpt>
      <trkpt lat="48.16993" lon="6.92191">
        <ele>593.03</ele>
        <time>2021-06-23T10:18:52Z</time>
      </trkpt>
      <trkpt lat="48.17045" lon="6.92502">
        <ele>575.14</ele>
        <time>2021-06-23T10:18:57Z</time>
      </trkpt>
      <trkpt lat="48.17062" lon="6.92577">
        <ele>562.92</ele>
        <time>2021-06-23T10:19:03Z</time>
      </trkpt>
      <trkpt lat="48.17077" lon="6.9262">
        <ele>561.62</ele>
        <time>2021-06-23T10:19:08Z</time>
      </trkpt>
      <trkpt lat="48.1709" lon="6.92646">
        <ele>562.97</ele>
        <time>2021-06-23T10:19:13Z</time>
      </trkpt>
      <trkpt lat="48.1711" lon="6.92672">
        <ele>562.31</ele>
        <time>2021-06-23T10:19:18Z</time>
      </trkpt>
      <trkpt lat="48.17141" lon="6.92703">
        <ele>560.18</ele>
        <time>2021-06-23T10:19:23Z</time>
      </trkpt>
      <trkpt lat="48.17167" lon="6.92721">
        <ele>558.95</ele>
        <time>2021-06-23T10:19:29Z</time>
      </trkpt>
      <trkpt lat="48.17244" lon="6.92757">
        <ele>553.22</ele>
        <time>2021-06-23T10:19:34Z</time>
      </trkpt>
      <trkpt lat="48.17378" lon="6.92819">
        <ele>546.67</ele>
        <time>2021-06-23T10:19:39Z</time>
      </trkpt>
      <trkpt lat="48.17482" lon="6.92863">
        <ele>531.46</ele>
        <time>2021-06-23T10:19:44Z</time>
      </trkpt>
      <trkpt lat="48.17514" lon="6.92868">
        <ele>530.37</ele>
        <time>2021-06-23T10:19:50Z</time>
      </trkpt>
      <trkpt lat="48.17619" lon="6.92872">
        <ele>524.23</ele>
        <time>2021-06-23T10:19:55Z</time>
      </trkpt>
      <trkpt lat="48.17641" lon="6.92874">
        <ele>521.36</ele>
        <time>2021-06-23T10:20:00Z</time>
      </trkpt>
      <trkpt lat="48.17662" lon="6.92881">
        <ele>521.96</ele>
        <time>2021-06-23T10:20:05Z</time>
      </trkpt>
      <trkpt lat="48.17681" lon="6.9289">
        <ele>521.5</ele>
        <time>2021-06-23T10:20:10Z</time>
      </trkpt>
      <trkpt lat="48.17712" lon="6.92912">
        <ele>519.42</ele>
        <time>2021-06-23T10:20:16Z</time>
      </trkpt>
      <trkpt lat="48.17743" lon="6.92947">
        <ele>516.06</ele>
        <time>2021-06-23T10:20:21Z</time>
      </trkpt>
      <trkpt lat="48.1776" lon="6.92974">
        <ele>514.29</ele>
        <time>2021-06-23T10:20:26Z</time>
      </trkpt>
      <trkpt lat="48.17825" lon="6.93107">
        <ele>511.07</ele>
        <time>2021-06-23T10:20:31Z</time>
      </trkpt>
      <trkpt lat="48.17838" lon="6.93139">
        <ele>511.65</ele>
        <time>2021-06-23T10:20:36Z</time>
      </trkpt>
      <trkpt lat="48.17844" lon="6.93162">
        <ele>511.15</ele>
        <time>2021-06-23T10:20:42Z</time>
      </trkpt>
      <trkpt lat="48.17852" lon="6.93222">
        <ele>506.99</ele>
        <time>2021-06-23T10:20:47Z</time>
      </trkpt>
      <trkpt lat="48.17859" lon="6.93455">
        <ele>495.18</ele>
        <time>2021-06-23T10:20:52Z</time>
      </trkpt>
      <trkpt lat="48.17864" lon="6.935">
        <ele>491.43</ele>
        <time>2021-06-23T10:20:57Z</time>
      </trkpt>
      <trkpt lat="48.17868" lon="6.93524">
        <ele>491.46</ele>
        <time>2021-06-23T10:21:03Z</time>
      </trkpt>
      <trkpt lat="48.17876" lon="6.93557">
        <ele>493.02</ele>
        <time>2021-06-23T10:21:08Z</time>
      </trkpt>
      <trkpt lat="48.17886" lon="6.93584">
        <ele>493.08</ele>
        <time>2021-06-23T10:21:13Z</time>
      </trkpt>
      <trkpt lat="48.17899" lon="6.93613">
        <ele>492.62</ele>
        <time>2021-06-23T10:21:18Z</time>
      </trkpt>
      <trkpt lat="48.17916" lon="6.93641">
        <ele>489.23</ele>
        <time>2021-06-23T10:21:23Z</time>
      </trkpt>
      <trkpt lat="48.17937" lon="6.93668">
        <ele>486.41</ele>
        <time>2021-06-23T10:21:29Z</time>
      </trkpt>
      <trkpt lat="48.17958" lon="6.93686">
        <ele>483.22</ele>
        <time>2021-06-23T10:21:34Z</time>
      </trkpt>
      <trkpt lat="48.17995" lon="6.93708">
        <ele>480.2</ele>
        <time>2021-06-23T10:21:39Z</time>
      </trkpt>
      <trkpt lat="48.18076" lon="6.93718">
        <ele>478.22</ele>
        <time>2021-06-23T10:21:44Z</time>
      </trkpt>
      <trkpt lat="48.18104" lon="6.93724">
        <ele>477.51</ele>
        <time>2021-06-23T10:21:49Z</time>
      </trkpt>
      <trkpt lat="48.18124" lon="6.93731">
        <ele>476.39</ele>
        <time>2021-06-23T10:21:55Z</time>
      </trkpt>
      <trkpt lat="48.1815" lon="6.93746">
        <ele>474.9</ele>
        <time>2021-06-23T10:22:00Z</time>
      </trkpt>
      <trkpt lat="48.18206" lon="6.93787">
        <ele>475.19</ele>
        <time>2021-06-23T10:22:05Z</time>
      </trkpt>
      <trkpt lat="48.18232" lon="6.9381">
        <ele>474.26</ele>
        <time>2021-06-23T10:22:10Z</time>
      </trkpt>
      <trkpt lat="48.18251" lon="6.93835">
        <ele>469.79</ele>
        <time>2021-06-23T10:22:15Z</time>
      </trkpt>
      <trkpt lat="48.18269" lon="6.93868">
        <ele>467.58</ele>
        <time>2021-06-23T10:22:21Z</time>
      </trkpt>
      <trkpt lat="48.18331" lon="6.94029">
        <ele>465.27</ele>
        <time>2021-06-23T10:22:26Z</time>
      </trkpt>
      <trkpt lat="48.18489" lon="6.94457">
        <ele>456.18</ele>
        <time>2021-06-23T10:22:31Z</time>
      </trkpt>
      <trkpt lat="48.18507" lon="6.94502">
        <ele>455.8</ele>
        <time>2021-06-23T10:22:36Z</time>
      </trkpt>
      <trkpt lat="48.18518" lon="6.94528">
        <ele>455.71</ele>
        <time>2021-06-23T10:22:42Z</time>
      </trkpt>
      <trkpt lat="48.18574" lon="6.94636">
        <ele>454.24</ele>
        <time>2021-06-23T10:22:47Z</time>
      </trkpt>
      <trkpt lat="48.18589" lon="6.94669">
        <ele>453.8</ele>
        <time>2021-06-23T10:22:52Z</time>
      </trkpt>
      <trkpt lat="48.18611" lon="6.94725">
        <ele>452</ele>
        <time>2021-06-23T10:22:57Z</time>
      </trkpt>
      <trkpt lat="48.18806" lon="6.95276">
        <ele>451</ele>
        <time>2021-06-23T10:23:02Z</time>
      </trkpt>
      <trkpt lat="48.18817" lon="6.95315">
        <ele>451.21</ele>
        <time>2021-06-23T10:23:08Z</time>
      </trkpt>
      <trkpt lat="48.18816" lon="6.95322">
        <ele>451.38</ele>
        <time>2021-06-23T10:23:08Z</time>
      </trkpt>
      <trkpt lat="48.18816" lon="6.95329">
        <ele>451.53</ele>
        <time>2021-06-23T10:23:09Z</time>
      </trkpt>
      <trkpt lat="48.1882" lon="6.95338">
        <ele>451.39</ele>
        <time>2021-06-23T10:23:09Z</time>
      </trkpt>
      <trkpt lat="48.18827" lon="6.95342">
        <ele>451.16</ele>
        <time>2021-06-23T10:23:10Z</time>
      </trkpt>
      <trkpt lat="48.18831" lon="6.9534">
        <ele>451.06</ele>
        <time>2021-06-23T10:23:11Z</time>
      </trkpt>
      <trkpt lat="48.18831" lon="6.9534">
        <ele>451.06</ele>
        <time>2021-06-23T10:23:11Z</time>
      </trkpt>
      <trkpt lat="48.18837" lon="6.95335">
        <ele>450.86</ele>
        <time>2021-06-23T10:23:21Z</time>
      </trkpt>
      <trkpt lat="48.1884" lon="6.95324">
        <ele>450.76</ele>
        <time>2021-06-23T10:23:32Z</time>
      </trkpt>
      <trkpt lat="48.18861" lon="6.95302">
        <ele>449.99</ele>
        <time>2021-06-23T10:23:43Z</time>
      </trkpt>
      <trkpt lat="48.18886" lon="6.95289">
        <ele>449.09</ele>
        <time>2021-06-23T10:23:54Z</time>
      </trkpt>
      <trkpt lat="48.18945" lon="6.95253">
        <ele>447.98</ele>
        <time>2021-06-23T10:24:05Z</time>
      </trkpt>
      <trkpt lat="48.19351" lon="6.94993">
        <ele>443.64</ele>
        <time>2021-06-23T10:24:16Z</time>
      </trkpt>
      <trkpt lat="48.19366" lon="6.94996">
        <ele>443.86</ele>
        <time>2021-06-23T10:24:27Z</time>
      </trkpt>
      <trkpt lat="48.19374" lon="6.95001">
        <ele>443.55</ele>
        <time>2021-06-23T10:24:28Z</time>
      </trkpt>
      <trkpt lat="48.19383" lon="6.94996">
        <ele>443.34</ele>
        <time>2021-06-23T10:24:29Z</time>
      </trkpt>
      <trkpt lat="48.19385" lon="6.9499">
        <ele>443.44</ele>
        <time>2021-06-23T10:24:30Z</time>
      </trkpt>
      <trkpt lat="48.19386" lon="6.94983">
        <ele>443.64</ele>
        <time>2021-06-23T10:24:31Z</time>
      </trkpt>
      <trkpt lat="48.19391" lon="6.94967">
        <ele>443.77</ele>
        <time>2021-06-23T10:24:32Z</time>
      </trkpt>
      <trkpt lat="48.19641" lon="6.94805">
        <ele>442</ele>
        <time>2021-06-23T10:24:52Z</time>
      </trkpt>
      <trkpt lat="48.19981" lon="6.9459">
        <ele>437</ele>
        <time>2021-06-23T10:25:13Z</time>
      </trkpt>
      <trkpt lat="48.20023" lon="6.94565">
        <ele>436.16</ele>
        <time>2021-06-23T10:25:33Z</time>
      </trkpt>
      <trkpt lat="48.20073" lon="6.94545">
        <ele>436</ele>
        <time>2021-06-23T10:25:54Z</time>
      </trkpt>
      <trkpt lat="48.2017" lon="6.94514">
        <ele>432.94</ele>
        <time>2021-06-23T10:26:14Z</time>
      </trkpt>
      <trkpt lat="48.20271" lon="6.94488">
        <ele>432</ele>
        <time>2021-06-23T10:26:35Z</time>
      </trkpt>
      <trkpt lat="48.20649" lon="6.94389">
        <ele>426.65</ele>
        <time>2021-06-23T10:26:55Z</time>
      </trkpt>
      <trkpt lat="48.20662" lon="6.94394">
        <ele>426.13</ele>
        <time>2021-06-23T10:27:16Z</time>
      </trkpt>
      <trkpt lat="48.20665" lon="6.94398">
        <ele>426.04</ele>
        <time>2021-06-23T10:27:23Z</time>
      </trkpt>
      <trkpt lat="48.2067" lon="6.94401">
        <ele>426</ele>
        <time>2021-06-23T10:27:29Z</time>
      </trkpt>
      <trkpt lat="48.20675" lon="6.944">
        <ele>426</ele>
        <time>2021-06-23T10:27:36Z</time>
      </trkpt>
      <trkpt lat="48.20678" lon="6.94397">
        <ele>426</ele>
        <time>2021-06-23T10:27:42Z</time>
      </trkpt>
      <trkpt lat="48.20682" lon="6.94389">
        <ele>426</ele>
        <time>2021-06-23T10:27:49Z</time>
      </trkpt>
      <trkpt lat="48.20695" lon="6.94376">
        <ele>426.01</ele>
        <time>2021-06-23T10:27:56Z</time>
      </trkpt>
      <trkpt lat="48.20847" lon="6.94338">
        <ele>425.34</ele>
        <time>2021-06-23T10:28:02Z</time>
      </trkpt>
      <trkpt lat="48.21042" lon="6.94283">
        <ele>423.89</ele>
        <time>2021-06-23T10:28:09Z</time>
      </trkpt>
      <trkpt lat="48.2121" lon="6.94239">
        <ele>421</ele>
        <time>2021-06-23T10:28:16Z</time>
      </trkpt>
      <trkpt lat="48.21345" lon="6.94205">
        <ele>419.22</ele>
        <time>2021-06-23T10:28:22Z</time>
      </trkpt>
      <trkpt lat="48.21374" lon="6.94207">
        <ele>418.52</ele>
        <time>2021-06-23T10:28:29Z</time>
      </trkpt>
      <trkpt lat="48.21408" lon="6.94214">
        <ele>417.79</ele>
        <time>2021-06-23T10:28:35Z</time>
      </trkpt>
      <trkpt lat="48.21423" lon="6.94219">
        <ele>417.87</ele>
        <time>2021-06-23T10:28:42Z</time>
      </trkpt>
      <trkpt lat="48.21423" lon="6.94219">
        <ele>417.87</ele>
        <time>2021-06-23T10:28:42Z</time>
      </trkpt>
      <trkpt lat="48.2157" lon="6.94277">
        <ele>417.95</ele>
        <time>2021-06-23T10:28:54Z</time>
      </trkpt>
      <trkpt lat="48.21591" lon="6.94294">
        <ele>417.15</ele>
        <time>2021-06-23T10:29:05Z</time>
      </trkpt>
      <trkpt lat="48.21592" lon="6.94299">
        <ele>417.21</ele>
        <time>2021-06-23T10:29:19Z</time>
      </trkpt>
      <trkpt lat="48.21597" lon="6.94306">
        <ele>417.01</ele>
        <time>2021-06-23T10:29:33Z</time>
      </trkpt>
      <trkpt lat="48.21603" lon="6.94307">
        <ele>416.58</ele>
        <time>2021-06-23T10:29:48Z</time>
      </trkpt>
      <trkpt lat="48.21608" lon="6.94303">
        <ele>416.22</ele>
        <time>2021-06-23T10:30:02Z</time>
      </trkpt>
      <trkpt lat="48.21623" lon="6.94307">
        <ele>415.98</ele>
        <time>2021-06-23T10:30:16Z</time>
      </trkpt>
      <trkpt lat="48.21694" lon="6.94336">
        <ele>413</ele>
        <time>2021-06-23T10:30:30Z</time>
      </trkpt>
      <trkpt lat="48.21729" lon="6.94346">
        <ele>414.48</ele>
        <time>2021-06-23T10:30:44Z</time>
      </trkpt>
      <trkpt lat="48.22095" lon="6.94498">
        <ele>408.03</ele>
        <time>2021-06-23T10:30:58Z</time>
      </trkpt>
      <trkpt lat="48.22112" lon="6.94509">
        <ele>408.3</ele>
        <time>2021-06-23T10:31:13Z</time>
      </trkpt>
      <trkpt lat="48.22133" lon="6.94517">
        <ele>408.13</ele>
        <time>2021-06-23T10:31:27Z</time>
      </trkpt>
      <trkpt lat="48.22787" lon="6.94789">
        <ele>400.79</ele>
        <time>2021-06-23T10:31:41Z</time>
      </trkpt>
      <trkpt lat="48.22894" lon="6.94835">
        <ele>399.82</ele>
        <time>2021-06-23T10:31:55Z</time>
      </trkpt>
      <trkpt lat="48.22919" lon="6.94844">
        <ele>399.25</ele>
        <time>2021-06-23T10:32:09Z</time>
      </trkpt>
      <trkpt lat="48.23376" lon="6.95037">
        <ele>392.67</ele>
        <time>2021-06-23T10:32:23Z</time>
      </trkpt>
      <trkpt lat="48.23656" lon="6.95155">
        <ele>391.39</ele>
        <time>2021-06-23T10:32:38Z</time>
      </trkpt>
      <trkpt lat="48.23674" lon="6.95168">
        <ele>390.74</ele>
        <time>2021-06-23T10:32:52Z</time>
      </trkpt>
      <trkpt lat="48.23717" lon="6.95188">
        <ele>390.61</ele>
        <time>2021-06-23T10:33:06Z</time>
      </trkpt>
      <trkpt lat="48.23734" lon="6.95197">
        <ele>391</ele>
        <time>2021-06-23T10:33:20Z</time>
      </trkpt>
      <trkpt lat="48.23736" lon="6.95204">
        <ele>391</ele>
        <time>2021-06-23T10:33:25Z</time>
      </trkpt>
      <trkpt lat="48.23742" lon="6.95209">
        <ele>391</ele>
        <time>2021-06-23T10:33:29Z</time>
      </trkpt>
      <trkpt lat="48.23745" lon="6.95209">
        <ele>391</ele>
        <time>2021-06-23T10:33:34Z</time>
      </trkpt>
      <trkpt lat="48.23751" lon="6.95205">
        <ele>390.97</ele>
        <time>2021-06-23T10:33:38Z</time>
      </trkpt>
      <trkpt lat="48.2376" lon="6.95206">
        <ele>390.63</ele>
        <time>2021-06-23T10:33:43Z</time>
      </trkpt>
      <trkpt lat="48.23826" lon="6.95233">
        <ele>390.72</ele>
        <time>2021-06-23T10:33:47Z</time>
      </trkpt>
      <trkpt lat="48.23872" lon="6.95249">
        <ele>391.6</ele>
        <time>2021-06-23T10:33:52Z</time>
      </trkpt>
      <trkpt lat="48.24128" lon="6.95363">
        <ele>387.31</ele>
        <time>2021-06-23T10:33:56Z</time>
      </trkpt>
      <trkpt lat="48.24227" lon="6.95404">
        <ele>386.83</ele>
        <time>2021-06-23T10:34:01Z</time>
      </trkpt>
      <trkpt lat="48.24263" lon="6.95415">
        <ele>385.12</ele>
        <time>2021-06-23T10:34:05Z</time>
      </trkpt>
      <trkpt lat="48.24354" lon="6.95425">
        <ele>385</ele>
        <time>2021-06-23T10:34:10Z</time>
      </trkpt>
      <trkpt lat="48.24418" lon="6.95429">
        <ele>383.55</ele>
        <time>2021-06-23T10:34:14Z</time>
      </trkpt>
      <trkpt lat="48.24579" lon="6.95436">
        <ele>384.84</ele>
        <time>2021-06-23T10:34:19Z</time>
      </trkpt>
      <trkpt lat="48.2461" lon="6.95442">
        <ele>384.05</ele>
        <time>2021-06-23T10:34:23Z</time>
      </trkpt>
      <trkpt lat="48.2466" lon="6.95443">
        <ele>383.99</ele>
        <time>2021-06-23T10:34:28Z</time>
      </trkpt>
      <trkpt lat="48.247" lon="6.95449">
        <ele>384.17</ele>
        <time>2021-06-23T10:34:32Z</time>
      </trkpt>
      <trkpt lat="48.24734" lon="6.95461">
        <ele>384.39</ele>
        <time>2021-06-23T10:34:37Z</time>
      </trkpt>
      <trkpt lat="48.2478" lon="6.95488">
        <ele>383.49</ele>
        <time>2021-06-23T10:34:41Z</time>
      </trkpt>
      <trkpt lat="48.24823" lon="6.95509">
        <ele>383.88</ele>
        <time>2021-06-23T10:34:46Z</time>
      </trkpt>
      <trkpt lat="48.24931" lon="6.95527">
        <ele>383</ele>
        <time>2021-06-23T10:34:50Z</time>
      </trkpt>
      <trkpt lat="48.24967" lon="6.95537">
        <ele>382.67</ele>
        <time>2021-06-23T10:34:55Z</time>
      </trkpt>
      <trkpt lat="48.24995" lon="6.95552">
        <ele>381.3</ele>
        <time>2021-06-23T10:34:59Z</time>
      </trkpt>
      <trkpt lat="48.2503" lon="6.95578">
        <ele>381.44</ele>
        <time>2021-06-23T10:35:04Z</time>
      </trkpt>
      <trkpt lat="48.25064" lon="6.95614">
        <ele>381.43</ele>
        <time>2021-06-23T10:35:08Z</time>
      </trkpt>
      <trkpt lat="48.25148" lon="6.95733">
        <ele>381.89</ele>
        <time>2021-06-23T10:35:13Z</time>
      </trkpt>
      <trkpt lat="48.25199" lon="6.95787">
        <ele>380.49</ele>
        <time>2021-06-23T10:35:17Z</time>
      </trkpt>
      <trkpt lat="48.25236" lon="6.95819">
        <ele>381.27</ele>
        <time>2021-06-23T10:35:22Z</time>
      </trkpt>
      <trkpt lat="48.25275" lon="6.95841">
        <ele>383.93</ele>
        <time>2021-06-23T10:35:26Z</time>
      </trkpt>
      <trkpt lat="48.25312" lon="6.95857">
        <ele>383.98</ele>
        <time>2021-06-23T10:35:31Z</time>
      </trkpt>
      <trkpt lat="48.25468" lon="6.95886">
        <ele>373.25</ele>
        <time>2021-06-23T10:35:35Z</time>
      </trkpt>
      <trkpt lat="48.25512" lon="6.95908">
        <ele>373.86</ele>
        <time>2021-06-23T10:35:40Z</time>
      </trkpt>
      <trkpt lat="48.25545" lon="6.95928">
        <ele>373.77</ele>
        <time>2021-06-23T10:35:44Z</time>
      </trkpt>
      <trkpt lat="48.25581" lon="6.95959">
        <ele>375.18</ele>
        <time>2021-06-23T10:35:49Z</time>
      </trkpt>
      <trkpt lat="48.25697" lon="6.96079">
        <ele>373.73</ele>
        <time>2021-06-23T10:35:53Z</time>
      </trkpt>
      <trkpt lat="48.2577" lon="6.96149">
        <ele>372.39</ele>
        <time>2021-06-23T10:35:58Z</time>
      </trkpt>
      <trkpt lat="48.25805" lon="6.96178">
        <ele>370.59</ele>
        <time>2021-06-23T10:36:02Z</time>
      </trkpt>
      <trkpt lat="48.25935" lon="6.96284">
        <ele>367</ele>
        <time>2021-06-23T10:36:07Z</time>
      </trkpt>
      <trkpt lat="48.25985" lon="6.9631">
        <ele>367.84</ele>
        <time>2021-06-23T10:36:11Z</time>
      </trkpt>
      <trkpt lat="48.26018" lon="6.9632">
        <ele>367.49</ele>
        <time>2021-06-23T10:36:16Z</time>
      </trkpt>
      <trkpt lat="48.26053" lon="6.96323">
        <ele>367.36</ele>
        <time>2021-06-23T10:36:20Z</time>
      </trkpt>
      <trkpt lat="48.26187" lon="6.96323">
        <ele>368.11</ele>
        <time>2021-06-23T10:36:25Z</time>
      </trkpt>
      <trkpt lat="48.26245" lon="6.96313">
        <ele>368</ele>
        <time>2021-06-23T10:36:30Z</time>
      </trkpt>
      <trkpt lat="48.26245" lon="6.96313">
        <ele>368</ele>
        <time>2021-06-23T10:36:30Z</time>
      </trkpt>
      <trkpt lat="48.26276" lon="6.96305">
        <ele>368.95</ele>
        <time>2021-06-23T10:36:37Z</time>
      </trkpt>
      <trkpt lat="48.26309" lon="6.96292">
        <ele>367.32</ele>
        <time>2021-06-23T10:36:44Z</time>
      </trkpt>
      <trkpt lat="48.26332" lon="6.96278">
        <ele>367.03</ele>
        <time>2021-06-23T10:36:51Z</time>
      </trkpt>
      <trkpt lat="48.26364" lon="6.96252">
        <ele>365.83</ele>
        <time>2021-06-23T10:36:58Z</time>
      </trkpt>
      <trkpt lat="48.26386" lon="6.96229">
        <ele>365.89</ele>
        <time>2021-06-23T10:37:05Z</time>
      </trkpt>
      <trkpt lat="48.26414" lon="6.96204">
        <ele>366.96</ele>
        <time>2021-06-23T10:37:12Z</time>
      </trkpt>
      <trkpt lat="48.26506" lon="6.96121">
        <ele>367</ele>
        <time>2021-06-23T10:37:19Z</time>
      </trkpt>
      <trkpt lat="48.2653" lon="6.96106">
        <ele>367.29</ele>
        <time>2021-06-23T10:37:26Z</time>
      </trkpt>
      <trkpt lat="48.2656" lon="6.961">
        <ele>369.19</ele>
        <time>2021-06-23T10:37:33Z</time>
      </trkpt>
      <trkpt lat="48.26607" lon="6.96107">
        <ele>372.14</ele>
        <time>2021-06-23T10:37:40Z</time>
      </trkpt>
      <trkpt lat="48.26708" lon="6.96134">
        <ele>374.29</ele>
        <time>2021-06-23T10:37:48Z</time>
      </trkpt>
      <trkpt lat="48.26736" lon="6.96138">
        <ele>370.6</ele>
        <time>2021-06-23T10:37:55Z</time>
      </trkpt>
      <trkpt lat="48.26831" lon="6.96142">
        <ele>364.88</ele>
        <time>2021-06-23T10:38:02Z</time>
      </trkpt>
      <trkpt lat="48.27018" lon="6.96144">
        <ele>363.73</ele>
        <time>2021-06-23T10:38:09Z</time>
      </trkpt>
      <trkpt lat="48.2734" lon="6.9617">
        <ele>357.22</ele>
        <time>2021-06-23T10:38:16Z</time>
      </trkpt>
      <trkpt lat="48.27348" lon="6.9617">
        <ele>357.47</ele>
        <time>2021-06-23T10:38:23Z</time>
      </trkpt>
      <trkpt lat="48.27367" lon="6.96165">
        <ele>357.8</ele>
        <time>2021-06-23T10:38:30Z</time>
      </trkpt>
      <trkpt lat="48.27507" lon="6.96088">
        <ele>356.52</ele>
        <time>2021-06-23T10:38:37Z</time>
      </trkpt>
      <trkpt lat="48.27567" lon="6.96058">
        <ele>353</ele>
        <time>2021-06-23T10:38:44Z</time>
      </trkpt>
      <trkpt lat="48.27583" lon="6.9606">
        <ele>353</ele>
        <time>2021-06-23T10:38:51Z</time>
      </trkpt>
      <trkpt lat="48.27627" lon="6.96077">
        <ele>352.87</ele>
        <time>2021-06-23T10:38:58Z</time>
      </trkpt>
      <trkpt lat="48.27654" lon="6.96081">
        <ele>351.92</ele>
        <time>2021-06-23T10:39:06Z</time>
      </trkpt>
      <trkpt lat="48.27681" lon="6.96071">
        <ele>351.72</ele>
        <time>2021-06-23T10:39:13Z</time>
      </trkpt>
      <trkpt lat="48.27712" lon="6.96042">
        <ele>351.36</ele>
        <time>2021-06-23T10:39:20Z</time>
      </trkpt>
      <trkpt lat="48.27736" lon="6.96016">
        <ele>350</ele>
        <time>2021-06-23T10:39:27Z</time>
      </trkpt>
      <trkpt lat="48.27755" lon="6.96006">
        <ele>349</ele>
        <time>2021-06-23T10:39:34Z</time>
      </trkpt>
      <trkpt lat="48.27762" lon="6.96011">
        <ele>349</ele>
        <time>2021-06-23T10:39:35Z</time>
      </trkpt>
      <trkpt lat="48.27793" lon="6.95954">
        <ele>348.65</ele>
        <time>2021-06-23T10:39:41Z</time>
      </trkpt>
      <trkpt lat="48.27769" lon="6.9598">
        <ele>348.87</ele>
        <time>2021-06-23T10:39:45Z</time>
      </trkpt>
      <trkpt lat="48.27769" lon="6.9598">
        <ele>348.87</ele>
        <time>2021-06-23T10:39:45Z</time>
      </trkpt>
      <trkpt lat="48.27749" lon="6.96001">
        <ele>349.08</ele>
        <time>2021-06-23T10:39:48Z</time>
      </trkpt>
      <trkpt lat="48.27736" lon="6.96016">
        <ele>350</ele>
        <time>2021-06-23T10:39:50Z</time>
      </trkpt>
      <trkpt lat="48.27755" lon="6.96006">
        <ele>349</ele>
        <time>2021-06-23T10:39:53Z</time>
      </trkpt>
      <trkpt lat="48.27762" lon="6.96011">
        <ele>349</ele>
        <time>2021-06-23T10:39:54Z</time>
      </trkpt>
      <trkpt lat="48.27793" lon="6.95954">
        <ele>348.65</ele>
        <time>2021-06-23T10:40:03Z</time>
      </trkpt>
      <trkpt lat="48.2788" lon="6.95783">
        <ele>349</ele>
        <time>2021-06-23T10:40:12Z</time>
      </trkpt>
      <trkpt lat="48.27894" lon="6.9577">
        <ele>348.58</ele>
        <time>2021-06-23T10:40:21Z</time>
      </trkpt>
      <trkpt lat="48.27898" lon="6.95774">
        <ele>348.57</ele>
        <time>2021-06-23T10:40:26Z</time>
      </trkpt>
      <trkpt lat="48.27902" lon="6.95774">
        <ele>348.46</ele>
        <time>2021-06-23T10:40:31Z</time>
      </trkpt>
      <trkpt lat="48.27908" lon="6.95768">
        <ele>348.2</ele>
        <time>2021-06-23T10:40:36Z</time>
      </trkpt>
      <trkpt lat="48.27909" lon="6.95758">
        <ele>348.08</ele>
        <time>2021-06-23T10:40:40Z</time>
      </trkpt>
      <trkpt lat="48.27905" lon="6.9575">
        <ele>347.99</ele>
        <time>2021-06-23T10:40:45Z</time>
      </trkpt>
      <trkpt lat="48.27909" lon="6.95728">
        <ele>347.21</ele>
        <time>2021-06-23T10:40:50Z</time>
      </trkpt>
      <trkpt lat="48.27917" lon="6.95711">
        <ele>347</ele>
        <time>2021-06-23T10:40:55Z</time>
      </trkpt>
      <trkpt lat="48.2807" lon="6.9545">
        <ele>346</ele>
        <time>2021-06-23T10:40:59Z</time>
      </trkpt>
      <trkpt lat="48.28079" lon="6.9546">
        <ele>346</ele>
        <time>2021-06-23T10:41:11Z</time>
      </trkpt>
      <trkpt lat="48.28191" lon="6.9552">
        <ele>342.76</ele>
        <time>2021-06-23T10:41:22Z</time>
      </trkpt>
      <trkpt lat="48.28253" lon="6.95558">
        <ele>343.77</ele>
        <time>2021-06-23T10:41:34Z</time>
      </trkpt>
      <trkpt lat="48.28335" lon="6.95602">
        <ele>340.95</ele>
        <time>2021-06-23T10:41:45Z</time>
      </trkpt>
      <trkpt lat="48.28545" lon="6.95634">
        <ele>341.73</ele>
        <time>2021-06-23T10:41:56Z</time>
      </trkpt>
      <trkpt lat="48.28725" lon="6.95664">
        <ele>343.27</ele>
        <time>2021-06-23T10:42:08Z</time>
      </trkpt>
      <trkpt lat="48.28732" lon="6.95667">
        <ele>344.09</ele>
        <time>2021-06-23T10:42:19Z</time>
      </trkpt>
      <trkpt lat="48.28742" lon="6.95666">
        <ele>345.14</ele>
        <time>2021-06-23T10:42:31Z</time>
      </trkpt>
      <trkpt lat="48.28741" lon="6.95632">
        <ele>344.21</ele>
        <time>2021-06-23T10:42:34Z</time>
      </trkpt>
      <trkpt lat="48.28747" lon="6.95591">
        <ele>344.07</ele>
        <time>2021-06-23T10:42:37Z</time>
      </trkpt>
      <trkpt lat="48.28747" lon="6.95591">
        <ele>344.07</ele>
        <time>2021-06-23T10:42:37Z</time>
      </trkpt>
      <trkpt lat="48.28753" lon="6.9556">
        <ele>343.34</ele>
        <time>2021-06-23T10:42:39Z</time>
      </trkpt>
      <trkpt lat="48.28758" lon="6.95548">
        <ele>343.33</ele>
        <time>2021-06-23T10:42:41Z</time>
      </trkpt>
      <trkpt lat="48.28762" lon="6.95545">
        <ele>343.53</ele>
        <time>2021-06-23T10:42:42Z</time>
      </trkpt>
      <trkpt lat="48.28765" lon="6.95549">
        <ele>343.8</ele>
        <time>2021-06-23T10:42:47Z</time>
      </trkpt>
      <trkpt lat="48.2877" lon="6.95551">
        <ele>344.3</ele>
        <time>2021-06-23T10:42:53Z</time>
      </trkpt>
      <trkpt lat="48.28773" lon="6.95549">
        <ele>344.46</ele>
        <time>2021-06-23T10:42:58Z</time>
      </trkpt>
      <trkpt lat="48.28777" lon="6.95542">
        <ele>344.48</ele>
        <time>2021-06-23T10:43:03Z</time>
      </trkpt>
      <trkpt lat="48.28777" lon="6.95534">
        <ele>344.15</ele>
        <time>2021-06-23T10:43:08Z</time>
      </trkpt>
      <trkpt lat="48.28775" lon="6.9553">
        <ele>343.9</ele>
        <time>2021-06-23T10:43:14Z</time>
      </trkpt>
      <trkpt lat="48.28775" lon="6.95504">
        <ele>343.77</ele>
        <time>2021-06-23T10:43:19Z</time>
      </trkpt>
      <trkpt lat="48.2879" lon="6.95389">
        <ele>345.88</ele>
        <time>2021-06-23T10:43:24Z</time>
      </trkpt>
      <trkpt lat="48.28831" lon="6.95099">
        <ele>340.9</ele>
        <time>2021-06-23T10:43:29Z</time>
      </trkpt>
      <trkpt lat="48.28837" lon="6.95073">
        <ele>341.29</ele>
        <time>2021-06-23T10:43:35Z</time>
      </trkpt>
      <trkpt lat="48.28847" lon="6.95041">
        <ele>342.01</ele>
        <time>2021-06-23T10:43:40Z</time>
      </trkpt>
      <trkpt lat="48.28854" lon="6.95014">
        <ele>342.1</ele>
        <time>2021-06-23T10:43:45Z</time>
      </trkpt>
      <trkpt lat="48.28858" lon="6.94969">
        <ele>340</ele>
        <time>2021-06-23T10:43:51Z</time>
      </trkpt>
      <trkpt lat="48.28866" lon="6.94961">
        <ele>340.11</ele>
        <time>2021-06-23T10:43:56Z</time>
      </trkpt>
      <trkpt lat="48.28879" lon="6.94954">
        <ele>340.22</ele>
        <time>2021-06-23T10:44:01Z</time>
      </trkpt>
      <trkpt lat="48.28958" lon="6.94971">
        <ele>339</ele>
        <time>2021-06-23T10:44:06Z</time>
      </trkpt>
      <trkpt lat="48.28965" lon="6.9496">
        <ele>339</ele>
        <time>2021-06-23T10:44:09Z</time>
      </trkpt>
      <trkpt lat="48.28971" lon="6.94964">
        <ele>339</ele>
        <time>2021-06-23T10:44:14Z</time>
      </trkpt>
      <trkpt lat="48.28974" lon="6.94963">
        <ele>339</ele>
        <time>2021-06-23T10:44:20Z</time>
      </trkpt>
      <trkpt lat="48.2898" lon="6.94968">
        <ele>339</ele>
        <time>2021-06-23T10:44:25Z</time>
      </trkpt>
      <trkpt lat="48.28992" lon="6.94973">
        <ele>339.02</ele>
        <time>2021-06-23T10:44:31Z</time>
      </trkpt>
      <trkpt lat="48.29055" lon="6.95079">
        <ele>344</ele>
        <time>2021-06-23T10:44:37Z</time>
      </trkpt>
      <trkpt lat="48.29079" lon="6.95112">
        <ele>344.2</ele>
        <time>2021-06-23T10:44:42Z</time>
      </trkpt>
      <trkpt lat="48.29175" lon="6.95117">
        <ele>345.24</ele>
        <time>2021-06-23T10:44:48Z</time>
      </trkpt>
      <trkpt lat="48.29291" lon="6.95119">
        <ele>346.19</ele>
        <time>2021-06-23T10:44:54Z</time>
      </trkpt>
      <trkpt lat="48.2941" lon="6.95126">
        <ele>345.92</ele>
        <time>2021-06-23T10:44:59Z</time>
      </trkpt>
      <trkpt lat="48.29497" lon="6.95126">
        <ele>351.35</ele>
        <time>2021-06-23T10:45:05Z</time>
      </trkpt>
      <trkpt lat="48.29513" lon="6.95122">
        <ele>351.11</ele>
        <time>2021-06-23T10:45:10Z</time>
      </trkpt>
      <trkpt lat="48.29531" lon="6.95112">
        <ele>350.96</ele>
        <time>2021-06-23T10:45:16Z</time>
      </trkpt>
      <trkpt lat="48.29559" lon="6.95089">
        <ele>353.34</ele>
        <time>2021-06-23T10:45:22Z</time>
      </trkpt>
      <trkpt lat="48.29631" lon="6.95024">
        <ele>359.61</ele>
        <time>2021-06-23T10:45:27Z</time>
      </trkpt>
      <trkpt lat="48.29642" lon="6.95019">
        <ele>359.99</ele>
        <time>2021-06-23T10:45:33Z</time>
      </trkpt>
      <trkpt lat="48.29654" lon="6.95017">
        <ele>360.51</ele>
        <time>2021-06-23T10:45:38Z</time>
      </trkpt>
      <trkpt lat="48.29749" lon="6.95034">
        <ele>356.52</ele>
        <time>2021-06-23T10:45:44Z</time>
      </trkpt>
      <trkpt lat="48.29763" lon="6.95032">
        <ele>357.15</ele>
        <time>2021-06-23T10:45:50Z</time>
      </trkpt>
      <trkpt lat="48.29791" lon="6.95018">
        <ele>361.75</ele>
        <time>2021-06-23T10:45:55Z</time>
      </trkpt>
      <trkpt lat="48.29824" lon="6.95016">
        <ele>363.54</ele>
        <time>2021-06-23T10:46:01Z</time>
      </trkpt>
      <trkpt lat="48.29855" lon="6.95023">
        <ele>362.44</ele>
        <time>2021-06-23T10:46:07Z</time>
      </trkpt>
      <trkpt lat="48.29896" lon="6.9504">
        <ele>361.72</ele>
        <time>2021-06-23T10:46:12Z</time>
      </trkpt>
      <trkpt lat="48.29963" lon="6.95088">
        <ele>363.95</ele>
        <time>2021-06-23T10:46:18Z</time>
      </trkpt>
      <trkpt lat="48.30002" lon="6.95111">
        <ele>363.05</ele>
        <time>2021-06-23T10:46:23Z</time>
      </trkpt>
      <trkpt lat="48.30051" lon="6.95136">
        <ele>362.12</ele>
        <time>2021-06-23T10:46:29Z</time>
      </trkpt>
      <trkpt lat="48.30092" lon="6.95152">
        <ele>361.02</ele>
        <time>2021-06-23T10:46:35Z</time>
      </trkpt>
      <trkpt lat="48.30112" lon="6.95165">
        <ele>361</ele>
        <time>2021-06-23T10:46:40Z</time>
      </trkpt>
      <trkpt lat="48.30131" lon="6.95175">
        <ele>360.91</ele>
        <time>2021-06-23T10:46:46Z</time>
      </trkpt>
      <trkpt lat="48.30163" lon="6.95191">
        <ele>361</ele>
        <time>2021-06-23T10:46:51Z</time>
      </trkpt>
      <trkpt lat="48.30209" lon="6.95191">
        <ele>361.65</ele>
        <time>2021-06-23T10:46:57Z</time>
      </trkpt>
      <trkpt lat="48.30275" lon="6.95181">
        <ele>364.77</ele>
        <time>2021-06-23T10:47:03Z</time>
      </trkpt>
      <trkpt lat="48.30326" lon="6.9516">
        <ele>365.99</ele>
        <time>2021-06-23T10:47:08Z</time>
      </trkpt>
      <trkpt lat="48.30341" lon="6.95162">
        <ele>365.64</ele>
        <time>2021-06-23T10:47:14Z</time>
      </trkpt>
      <trkpt lat="48.30352" lon="6.95168">
        <ele>365.63</ele>
        <time>2021-06-23T10:47:20Z</time>
      </trkpt>
      <trkpt lat="48.30378" lon="6.95201">
        <ele>365.64</ele>
        <time>2021-06-23T10:47:25Z</time>
      </trkpt>
      <trkpt lat="48.30393" lon="6.95237">
        <ele>367.16</ele>
        <time>2021-06-23T10:47:31Z</time>
      </trkpt>
      <trkpt lat="48.30409" lon="6.95268">
        <ele>366.42</ele>
        <time>2021-06-23T10:47:36Z</time>
      </trkpt>
      <trkpt lat="48.30458" lon="6.95343">
        <ele>365.26</ele>
        <time>2021-06-23T10:47:42Z</time>
      </trkpt>
      <trkpt lat="48.3047" lon="6.95367">
        <ele>364.39</ele>
        <time>2021-06-23T10:47:48Z</time>
      </trkpt>
      <trkpt lat="48.30476" lon="6.95391">
        <ele>363.43</ele>
        <time>2021-06-23T10:47:53Z</time>
      </trkpt>
      <trkpt lat="48.30498" lon="6.95506">
        <ele>364.58</ele>
        <time>2021-06-23T10:47:59Z</time>
      </trkpt>
      <trkpt lat="48.30505" lon="6.95521">
        <ele>364.23</ele>
        <time>2021-06-23T10:48:04Z</time>
      </trkpt>
      <trkpt lat="48.30514" lon="6.9553">
        <ele>364.09</ele>
        <time>2021-06-23T10:48:10Z</time>
      </trkpt>
      <trkpt lat="48.30569" lon="6.95568">
        <ele>367.43</ele>
        <time>2021-06-23T10:48:16Z</time>
      </trkpt>
      <trkpt lat="48.30606" lon="6.95597">
        <ele>369.24</ele>
        <time>2021-06-23T10:48:21Z</time>
      </trkpt>
      <trkpt lat="48.30717" lon="6.95689">
        <ele>372.8</ele>
        <time>2021-06-23T10:48:27Z</time>
      </trkpt>
      <trkpt lat="48.30886" lon="6.95822">
        <ele>379.13</ele>
        <time>2021-06-23T10:48:33Z</time>
      </trkpt>
      <trkpt lat="48.3091" lon="6.95836">
        <ele>379.63</ele>
        <time>2021-06-23T10:48:38Z</time>
      </trkpt>
      <trkpt lat="48.31009" lon="6.95876">
        <ele>383.52</ele>
        <time>2021-06-23T10:48:44Z</time>
      </trkpt>
      <trkpt lat="48.31048" lon="6.959">
        <ele>384.8</ele>
        <time>2021-06-23T10:48:49Z</time>
      </trkpt>
      <trkpt lat="48.31069" lon="6.95918">
        <ele>384.45</ele>
        <time>2021-06-23T10:48:55Z</time>
      </trkpt>
      <trkpt lat="48.31115" lon="6.95969">
        <ele>383.47</ele>
        <time>2021-06-23T10:49:01Z</time>
      </trkpt>
      <trkpt lat="48.31136" lon="6.95996">
        <ele>382.17</ele>
        <time>2021-06-23T10:49:06Z</time>
      </trkpt>
      <trkpt lat="48.31175" lon="6.96059">
        <ele>381.68</ele>
        <time>2021-06-23T10:49:12Z</time>
      </trkpt>
      <trkpt lat="48.31197" lon="6.96089">
        <ele>383.72</ele>
        <time>2021-06-23T10:49:17Z</time>
      </trkpt>
      <trkpt lat="48.31224" lon="6.96118">
        <ele>387.66</ele>
        <time>2021-06-23T10:49:23Z</time>
      </trkpt>
      <trkpt lat="48.31261" lon="6.9614">
        <ele>392.57</ele>
        <time>2021-06-23T10:49:29Z</time>
      </trkpt>
      <trkpt lat="48.31277" lon="6.96146">
        <ele>394.3</ele>
        <time>2021-06-23T10:49:34Z</time>
      </trkpt>
      <trkpt lat="48.31327" lon="6.96147">
        <ele>398.72</ele>
        <time>2021-06-23T10:49:40Z</time>
      </trkpt>
      <trkpt lat="48.31364" lon="6.96162">
        <ele>403.31</ele>
        <time>2021-06-23T10:49:45Z</time>
      </trkpt>
      <trkpt lat="48.31403" lon="6.96181">
        <ele>406.53</ele>
        <time>2021-06-23T10:49:51Z</time>
      </trkpt>
      <trkpt lat="48.31545" lon="6.96236">
        <ele>412.11</ele>
        <time>2021-06-23T10:49:57Z</time>
      </trkpt>
      <trkpt lat="48.31576" lon="6.96252">
        <ele>416.79</ele>
        <time>2021-06-23T10:50:02Z</time>
      </trkpt>
      <trkpt lat="48.31592" lon="6.96263">
        <ele>420.46</ele>
        <time>2021-06-23T10:50:08Z</time>
      </trkpt>
      <trkpt lat="48.31601" lon="6.96278">
        <ele>423.94</ele>
        <time>2021-06-23T10:50:14Z</time>
      </trkpt>
      <trkpt lat="48.31602" lon="6.96288">
        <ele>425.28</ele>
        <time>2021-06-23T10:50:19Z</time>
      </trkpt>
      <trkpt lat="48.316" lon="6.96297">
        <ele>425.8</ele>
        <time>2021-06-23T10:50:25Z</time>
      </trkpt>
      <trkpt lat="48.316" lon="6.96297">
        <ele>425.8</ele>
        <time>2021-06-23T10:50:25Z</time>
      </trkpt>
      <trkpt lat="48.31596" lon="6.96306">
        <ele>426.95</ele>
        <time>2021-06-23T10:50:27Z</time>
      </trkpt>
      <trkpt lat="48.3159" lon="6.96308">
        <ele>426.79</ele>
        <time>2021-06-23T10:50:29Z</time>
      </trkpt>
      <trkpt lat="48.31584" lon="6.96307">
        <ele>426.27</ele>
        <time>2021-06-23T10:50:32Z</time>
      </trkpt>
      <trkpt lat="48.31551" lon="6.96273">
        <ele>420.03</ele>
        <time>2021-06-23T10:50:34Z</time>
      </trkpt>
      <trkpt lat="48.31538" lon="6.96267">
        <ele>418.91</ele>
        <time>2021-06-23T10:50:36Z</time>
      </trkpt>
      <trkpt lat="48.31522" lon="6.96266">
        <ele>419.14</ele>
        <time>2021-06-23T10:50:39Z</time>
      </trkpt>
      <trkpt lat="48.3143" lon="6.96276">
        <ele>427.5</ele>
        <time>2021-06-23T10:50:41Z</time>
      </trkpt>
      <trkpt lat="48.31387" lon="6.96275">
        <ele>429.38</ele>
        <time>2021-06-23T10:50:43Z</time>
      </trkpt>
      <trkpt lat="48.31377" lon="6.96278">
        <ele>429.14</ele>
        <time>2021-06-23T10:50:46Z</time>
      </trkpt>
      <trkpt lat="48.31373" lon="6.96282">
        <ele>429</ele>
        <time>2021-06-23T10:50:48Z</time>
      </trkpt>
      <trkpt lat="48.3137" lon="6.9629">
        <ele>429.1</ele>
        <time>2021-06-23T10:50:50Z</time>
      </trkpt>
      <trkpt lat="48.31371" lon="6.96303">
        <ele>429.58</ele>
        <time>2021-06-23T10:50:53Z</time>
      </trkpt>
      <trkpt lat="48.31383" lon="6.96325">
        <ele>433.02</ele>
        <time>2021-06-23T10:50:55Z</time>
      </trkpt>
      <trkpt lat="48.3141" lon="6.96363">
        <ele>437.94</ele>
        <time>2021-06-23T10:50:57Z</time>
      </trkpt>
      <trkpt lat="48.31448" lon="6.96424">
        <ele>443.15</ele>
        <time>2021-06-23T10:50:59Z</time>
      </trkpt>
      <trkpt lat="48.31499" lon="6.96514">
        <ele>452.3</ele>
        <time>2021-06-23T10:51:02Z</time>
      </trkpt>
      <trkpt lat="48.31521" lon="6.96561">
        <ele>456.45</ele>
        <time>2021-06-23T10:51:04Z</time>
      </trkpt>
      <trkpt lat="48.31538" lon="6.96608">
        <ele>458.38</ele>
        <time>2021-06-23T10:51:06Z</time>
      </trkpt>
      <trkpt lat="48.31554" lon="6.96641">
        <ele>459.31</ele>
        <time>2021-06-23T10:51:09Z</time>
      </trkpt>
      <trkpt lat="48.31565" lon="6.96656">
        <ele>459.24</ele>
        <time>2021-06-23T10:51:11Z</time>
      </trkpt>
      <trkpt lat="48.31577" lon="6.96665">
        <ele>460.82</ele>
        <time>2021-06-23T10:51:13Z</time>
      </trkpt>
      <trkpt lat="48.31592" lon="6.96671">
        <ele>462</ele>
        <time>2021-06-23T10:51:16Z</time>
      </trkpt>
      <trkpt lat="48.31608" lon="6.96672">
        <ele>463.11</ele>
        <time>2021-06-23T10:51:18Z</time>
      </trkpt>
      <trkpt lat="48.31642" lon="6.96668">
        <ele>464.07</ele>
        <time>2021-06-23T10:51:20Z</time>
      </trkpt>
      <trkpt lat="48.31658" lon="6.96671">
        <ele>464.53</ele>
        <time>2021-06-23T10:51:23Z</time>
      </trkpt>
      <trkpt lat="48.31695" lon="6.9669">
        <ele>466.92</ele>
        <time>2021-06-23T10:51:25Z</time>
      </trkpt>
      <trkpt lat="48.31716" lon="6.96704">
        <ele>469.19</ele>
        <time>2021-06-23T10:51:27Z</time>
      </trkpt>
      <trkpt lat="48.31729" lon="6.96718">
        <ele>470.72</ele>
        <time>2021-06-23T10:51:30Z</time>
      </trkpt>
      <trkpt lat="48.3174" lon="6.96733">
        <ele>471.73</ele>
        <time>2021-06-23T10:51:32Z</time>
      </trkpt>
      <trkpt lat="48.31765" lon="6.968">
        <ele>474.89</ele>
        <time>2021-06-23T10:51:34Z</time>
      </trkpt>
      <trkpt lat="48.31783" lon="6.96831">
        <ele>478.06</ele>
        <time>2021-06-23T10:51:36Z</time>
      </trkpt>
      <trkpt lat="48.31834" lon="6.96901">
        <ele>486.15</ele>
        <time>2021-06-23T10:51:39Z</time>
      </trkpt>
      <trkpt lat="48.31837" lon="6.96913">
        <ele>486.91</ele>
        <time>2021-06-23T10:51:41Z</time>
      </trkpt>
      <trkpt lat="48.31837" lon="6.96926">
        <ele>487.28</ele>
        <time>2021-06-23T10:51:43Z</time>
      </trkpt>
      <trkpt lat="48.31829" lon="6.96947">
        <ele>486.8</ele>
        <time>2021-06-23T10:51:46Z</time>
      </trkpt>
      <trkpt lat="48.31801" lon="6.96976">
        <ele>486.73</ele>
        <time>2021-06-23T10:51:48Z</time>
      </trkpt>
      <trkpt lat="48.31776" lon="6.96997">
        <ele>484.49</ele>
        <time>2021-06-23T10:51:50Z</time>
      </trkpt>
      <trkpt lat="48.3176" lon="6.97014">
        <ele>484.66</ele>
        <time>2021-06-23T10:51:53Z</time>
      </trkpt>
      <trkpt lat="48.31751" lon="6.9703">
        <ele>485.31</ele>
        <time>2021-06-23T10:51:55Z</time>
      </trkpt>
      <trkpt lat="48.31744" lon="6.97048">
        <ele>485.83</ele>
        <time>2021-06-23T10:51:57Z</time>
      </trkpt>
      <trkpt lat="48.31738" lon="6.97079">
        <ele>486.67</ele>
        <time>2021-06-23T10:52:00Z</time>
      </trkpt>
      <trkpt lat="48.31737" lon="6.97101">
        <ele>487.4</ele>
        <time>2021-06-23T10:52:02Z</time>
      </trkpt>
      <trkpt lat="48.31741" lon="6.97149">
        <ele>487.9</ele>
        <time>2021-06-23T10:52:04Z</time>
      </trkpt>
      <trkpt lat="48.31747" lon="6.9718">
        <ele>488.53</ele>
        <time>2021-06-23T10:52:06Z</time>
      </trkpt>
      <trkpt lat="48.31756" lon="6.97207">
        <ele>490</ele>
        <time>2021-06-23T10:52:09Z</time>
      </trkpt>
      <trkpt lat="48.31765" lon="6.97229">
        <ele>491.65</ele>
        <time>2021-06-23T10:52:11Z</time>
      </trkpt>
      <trkpt lat="48.31781" lon="6.97257">
        <ele>494.39</ele>
        <time>2021-06-23T10:52:13Z</time>
      </trkpt>
      <trkpt lat="48.31829" lon="6.97308">
        <ele>499.04</ele>
        <time>2021-06-23T10:52:16Z</time>
      </trkpt>
      <trkpt lat="48.31839" lon="6.97323">
        <ele>499.81</ele>
        <time>2021-06-23T10:52:18Z</time>
      </trkpt>
      <trkpt lat="48.3191" lon="6.97484">
        <ele>511.43</ele>
        <time>2021-06-23T10:52:20Z</time>
      </trkpt>
      <trkpt lat="48.31972" lon="6.97629">
        <ele>516</ele>
        <time>2021-06-23T10:52:23Z</time>
      </trkpt>
      <trkpt lat="48.31994" lon="6.97672">
        <ele>518.35</ele>
        <time>2021-06-23T10:52:25Z</time>
      </trkpt>
      <trkpt lat="48.32002" lon="6.97684">
        <ele>518.94</ele>
        <time>2021-06-23T10:52:27Z</time>
      </trkpt>
      <trkpt lat="48.32017" lon="6.977">
        <ele>520.46</ele>
        <time>2021-06-23T10:52:30Z</time>
      </trkpt>
      <trkpt lat="48.32053" lon="6.97717">
        <ele>526.1</ele>
        <time>2021-06-23T10:52:32Z</time>
      </trkpt>
      <trkpt lat="48.32068" lon="6.9773">
        <ele>527.99</ele>
        <time>2021-06-23T10:52:34Z</time>
      </trkpt>
      <trkpt lat="48.32077" lon="6.97746">
        <ele>527.59</ele>
        <time>2021-06-23T10:52:37Z</time>
      </trkpt>
      <trkpt lat="48.32085" lon="6.97774">
        <ele>526.96</ele>
        <time>2021-06-23T10:52:39Z</time>
      </trkpt>
      <trkpt lat="48.32091" lon="6.97803">
        <ele>528.59</ele>
        <time>2021-06-23T10:52:41Z</time>
      </trkpt>
      <trkpt lat="48.32117" lon="6.9797">
        <ele>528.94</ele>
        <time>2021-06-23T10:52:43Z</time>
      </trkpt>
      <trkpt lat="48.32126" lon="6.98006">
        <ele>527.84</ele>
        <time>2021-06-23T10:52:46Z</time>
      </trkpt>
      <trkpt lat="48.32138" lon="6.98042">
        <ele>527.77</ele>
        <time>2021-06-23T10:52:48Z</time>
      </trkpt>
      <trkpt lat="48.32147" lon="6.98064">
        <ele>528.3</ele>
        <time>2021-06-23T10:52:50Z</time>
      </trkpt>
      <trkpt lat="48.32165" lon="6.98092">
        <ele>527.3</ele>
        <time>2021-06-23T10:52:53Z</time>
      </trkpt>
      <trkpt lat="48.32196" lon="6.98113">
        <ele>526.68</ele>
        <time>2021-06-23T10:52:55Z</time>
      </trkpt>
      <trkpt lat="48.32227" lon="6.98122">
        <ele>523.89</ele>
        <time>2021-06-23T10:52:57Z</time>
      </trkpt>
      <trkpt lat="48.32246" lon="6.98122">
        <ele>521.27</ele>
        <time>2021-06-23T10:53:00Z</time>
      </trkpt>
      <trkpt lat="48.32261" lon="6.98118">
        <ele>518.33</ele>
        <time>2021-06-23T10:53:02Z</time>
      </trkpt>
      <trkpt lat="48.32289" lon="6.98098">
        <ele>514.37</ele>
        <time>2021-06-23T10:53:04Z</time>
      </trkpt>
      <trkpt lat="48.32303" lon="6.98078">
        <ele>512.84</ele>
        <time>2021-06-23T10:53:07Z</time>
      </trkpt>
      <trkpt lat="48.32375" lon="6.97922">
        <ele>503.41</ele>
        <time>2021-06-23T10:53:09Z</time>
      </trkpt>
      <trkpt lat="48.32386" lon="6.97885">
        <ele>502.54</ele>
        <time>2021-06-23T10:53:11Z</time>
      </trkpt>
      <trkpt lat="48.32398" lon="6.97844">
        <ele>498.82</ele>
        <time>2021-06-23T10:53:14Z</time>
      </trkpt>
      <trkpt lat="48.3241" lon="6.97759">
        <ele>497.49</ele>
        <time>2021-06-23T10:53:16Z</time>
      </trkpt>
      <trkpt lat="48.32415" lon="6.97749">
        <ele>497.09</ele>
        <time>2021-06-23T10:53:18Z</time>
      </trkpt>
      <trkpt lat="48.32427" lon="6.97742">
        <ele>496.33</ele>
        <time>2021-06-23T10:53:20Z</time>
      </trkpt>
      <trkpt lat="48.32434" lon="6.97742">
        <ele>496.07</ele>
        <time>2021-06-23T10:53:23Z</time>
      </trkpt>
      <trkpt lat="48.32441" lon="6.97746">
        <ele>495.97</ele>
        <time>2021-06-23T10:53:25Z</time>
      </trkpt>
      <trkpt lat="48.32447" lon="6.97756">
        <ele>495.38</ele>
        <time>2021-06-23T10:53:27Z</time>
      </trkpt>
      <trkpt lat="48.32451" lon="6.97771">
        <ele>494.28</ele>
        <time>2021-06-23T10:53:30Z</time>
      </trkpt>
      <trkpt lat="48.32458" lon="6.97821">
        <ele>492.44</ele>
        <time>2021-06-23T10:53:32Z</time>
      </trkpt>
      <trkpt lat="48.32488" lon="6.9793">
        <ele>488.45</ele>
        <time>2021-06-23T10:53:34Z</time>
      </trkpt>
      <trkpt lat="48.32513" lon="6.98009">
        <ele>484.72</ele>
        <time>2021-06-23T10:53:37Z</time>
      </trkpt>
      <trkpt lat="48.32527" lon="6.98057">
        <ele>482.99</ele>
        <time>2021-06-23T10:53:39Z</time>
      </trkpt>
      <trkpt lat="48.32527" lon="6.98076">
        <ele>482.28</ele>
        <time>2021-06-23T10:53:41Z</time>
      </trkpt>
      <trkpt lat="48.32524" lon="6.98097">
        <ele>480.67</ele>
        <time>2021-06-23T10:53:44Z</time>
      </trkpt>
      <trkpt lat="48.32504" lon="6.98147">
        <ele>479.71</ele>
        <time>2021-06-23T10:53:46Z</time>
      </trkpt>
      <trkpt lat="48.32502" lon="6.98165">
        <ele>479.88</ele>
        <time>2021-06-23T10:53:48Z</time>
      </trkpt>
      <trkpt lat="48.32503" lon="6.98187">
        <ele>479.74</ele>
        <time>2021-06-23T10:53:50Z</time>
      </trkpt>
      <trkpt lat="48.32507" lon="6.98203">
        <ele>479.02</ele>
        <time>2021-06-23T10:53:53Z</time>
      </trkpt>
      <trkpt lat="48.32516" lon="6.98223">
        <ele>477.82</ele>
        <time>2021-06-23T10:53:55Z</time>
      </trkpt>
      <trkpt lat="48.32542" lon="6.98256">
        <ele>474.6</ele>
        <time>2021-06-23T10:53:57Z</time>
      </trkpt>
      <trkpt lat="48.32573" lon="6.98291">
        <ele>473.02</ele>
        <time>2021-06-23T10:54:00Z</time>
      </trkpt>
      <trkpt lat="48.32615" lon="6.98313">
        <ele>474.95</ele>
        <time>2021-06-23T10:54:02Z</time>
      </trkpt>
      <trkpt lat="48.32706" lon="6.98385">
        <ele>475.98</ele>
        <time>2021-06-23T10:54:04Z</time>
      </trkpt>
      <trkpt lat="48.32769" lon="6.9839">
        <ele>468.48</ele>
        <time>2021-06-23T10:54:07Z</time>
      </trkpt>
      <trkpt lat="48.3283" lon="6.98384">
        <ele>457.13</ele>
        <time>2021-06-23T10:54:09Z</time>
      </trkpt>
      <trkpt lat="48.32882" lon="6.98362">
        <ele>448.89</ele>
        <time>2021-06-23T10:54:11Z</time>
      </trkpt>
      <trkpt lat="48.32929" lon="6.98361">
        <ele>444.02</ele>
        <time>2021-06-23T10:54:14Z</time>
      </trkpt>
      <trkpt lat="48.32958" lon="6.98346">
        <ele>444.06</ele>
        <time>2021-06-23T10:54:16Z</time>
      </trkpt>
      <trkpt lat="48.32987" lon="6.98345">
        <ele>445.89</ele>
        <time>2021-06-23T10:54:18Z</time>
      </trkpt>
      <trkpt lat="48.33041" lon="6.9837">
        <ele>446.55</ele>
        <time>2021-06-23T10:54:21Z</time>
      </trkpt>
      <trkpt lat="48.33065" lon="6.9839">
        <ele>440.91</ele>
        <time>2021-06-23T10:54:23Z</time>
      </trkpt>
      <trkpt lat="48.33116" lon="6.98458">
        <ele>432.99</ele>
        <time>2021-06-23T10:54:25Z</time>
      </trkpt>
      <trkpt lat="48.3318" lon="6.98556">
        <ele>420.13</ele>
        <time>2021-06-23T10:54:27Z</time>
      </trkpt>
      <trkpt lat="48.33189" lon="6.98576">
        <ele>419.65</ele>
        <time>2021-06-23T10:54:30Z</time>
      </trkpt>
      <trkpt lat="48.33195" lon="6.98596">
        <ele>419.88</ele>
        <time>2021-06-23T10:54:32Z</time>
      </trkpt>
      <trkpt lat="48.33215" lon="6.98693">
        <ele>415.99</ele>
        <time>2021-06-23T10:54:34Z</time>
      </trkpt>
      <trkpt lat="48.33225" lon="6.98718">
        <ele>414.28</ele>
        <time>2021-06-23T10:54:37Z</time>
      </trkpt>
      <trkpt lat="48.33243" lon="6.98743">
        <ele>413.75</ele>
        <time>2021-06-23T10:54:39Z</time>
      </trkpt>
      <trkpt lat="48.33269" lon="6.98763">
        <ele>411.94</ele>
        <time>2021-06-23T10:54:41Z</time>
      </trkpt>
      <trkpt lat="48.33289" lon="6.98796">
        <ele>410.81</ele>
        <time>2021-06-23T10:54:44Z</time>
      </trkpt>
      <trkpt lat="48.33293" lon="6.98809">
        <ele>410.27</ele>
        <time>2021-06-23T10:54:46Z</time>
      </trkpt>
      <trkpt lat="48.33285" lon="6.9883">
        <ele>411.02</ele>
        <time>2021-06-23T10:54:49Z</time>
      </trkpt>
      <trkpt lat="48.33248" lon="6.98961">
        <ele>410.69</ele>
        <time>2021-06-23T10:54:51Z</time>
      </trkpt>
      <trkpt lat="48.33247" lon="6.98992">
        <ele>408.75</ele>
        <time>2021-06-23T10:54:54Z</time>
      </trkpt>
      <trkpt lat="48.33254" lon="6.99025">
        <ele>405.04</ele>
        <time>2021-06-23T10:54:57Z</time>
      </trkpt>
      <trkpt lat="48.33306" lon="6.99167">
        <ele>406</ele>
        <time>2021-06-23T10:54:59Z</time>
      </trkpt>
      <trkpt lat="48.33356" lon="6.99279">
        <ele>411.87</ele>
        <time>2021-06-23T10:55:02Z</time>
      </trkpt>
      <trkpt lat="48.33442" lon="6.99449">
        <ele>419.25</ele>
        <time>2021-06-23T10:55:05Z</time>
      </trkpt>
      <trkpt lat="48.33502" lon="6.99546">
        <ele>435.52</ele>
        <time>2021-06-23T10:55:07Z</time>
      </trkpt>
      <trkpt lat="48.33521" lon="6.99555">
        <ele>434.85</ele>
        <time>2021-06-23T10:55:10Z</time>
      </trkpt>
      <trkpt lat="48.33538" lon="6.99557">
        <ele>434.64</ele>
        <time>2021-06-23T10:55:12Z</time>
      </trkpt>
      <trkpt lat="48.33547" lon="6.99554">
        <ele>434.65</ele>
        <time>2021-06-23T10:55:15Z</time>
      </trkpt>
      <trkpt lat="48.33565" lon="6.99536">
        <ele>437.17</ele>
        <time>2021-06-23T10:55:18Z</time>
      </trkpt>
      <trkpt lat="48.33579" lon="6.99492">
        <ele>438.3</ele>
        <time>2021-06-23T10:55:20Z</time>
      </trkpt>
      <trkpt lat="48.336" lon="6.9945">
        <ele>440.04</ele>
        <time>2021-06-23T10:55:23Z</time>
      </trkpt>
      <trkpt lat="48.336" lon="6.99386">
        <ele>437.87</ele>
        <time>2021-06-23T10:55:26Z</time>
      </trkpt>
      <trkpt lat="48.33607" lon="6.9935">
        <ele>439.21</ele>
        <time>2021-06-23T10:55:28Z</time>
      </trkpt>
      <trkpt lat="48.33699" lon="6.99195">
        <ele>439.9</ele>
        <time>2021-06-23T10:55:31Z</time>
      </trkpt>
      <trkpt lat="48.33711" lon="6.99188">
        <ele>441.52</ele>
        <time>2021-06-23T10:55:34Z</time>
      </trkpt>
      <trkpt lat="48.33721" lon="6.99197">
        <ele>444.08</ele>
        <time>2021-06-23T10:55:36Z</time>
      </trkpt>
      <trkpt lat="48.33722" lon="6.99214">
        <ele>446.02</ele>
        <time>2021-06-23T10:55:39Z</time>
      </trkpt>
      <trkpt lat="48.33703" lon="6.99282">
        <ele>451.1</ele>
        <time>2021-06-23T10:55:42Z</time>
      </trkpt>
      <trkpt lat="48.33693" lon="6.99356">
        <ele>457.29</ele>
        <time>2021-06-23T10:55:44Z</time>
      </trkpt>
      <trkpt lat="48.3366" lon="6.99519">
        <ele>460.11</ele>
        <time>2021-06-23T10:55:47Z</time>
      </trkpt>
      <trkpt lat="48.33657" lon="6.99538">
        <ele>460.03</ele>
        <time>2021-06-23T10:55:50Z</time>
      </trkpt>
      <trkpt lat="48.33657" lon="6.99564">
        <ele>460.8</ele>
        <time>2021-06-23T10:55:52Z</time>
      </trkpt>
      <trkpt lat="48.33663" lon="6.99711">
        <ele>473.23</ele>
        <time>2021-06-23T10:55:55Z</time>
      </trkpt>
      <trkpt lat="48.33677" lon="6.99802">
        <ele>476.01</ele>
        <time>2021-06-23T10:55:57Z</time>
      </trkpt>
      <trkpt lat="48.33684" lon="6.99823">
        <ele>476.25</ele>
        <time>2021-06-23T10:56:00Z</time>
      </trkpt>
      <trkpt lat="48.33692" lon="6.99833">
        <ele>478.08</ele>
        <time>2021-06-23T10:56:03Z</time>
      </trkpt>
      <trkpt lat="48.33724" lon="6.99852">
        <ele>483.65</ele>
        <time>2021-06-23T10:56:05Z</time>
      </trkpt>
      <trkpt lat="48.33745" lon="6.99868">
        <ele>486.67</ele>
        <time>2021-06-23T10:56:08Z</time>
      </trkpt>
      <trkpt lat="48.33753" lon="6.99887">
        <ele>486.87</ele>
        <time>2021-06-23T10:56:11Z</time>
      </trkpt>
      <trkpt lat="48.33754" lon="6.99899">
        <ele>487.51</ele>
        <time>2021-06-23T10:56:13Z</time>
      </trkpt>
      <trkpt lat="48.33753" lon="6.99911">
        <ele>487.77</ele>
        <time>2021-06-23T10:56:16Z</time>
      </trkpt>
      <trkpt lat="48.33736" lon="6.99973">
        <ele>487.98</ele>
        <time>2021-06-23T10:56:19Z</time>
      </trkpt>
      <trkpt lat="48.33731" lon="7.00058">
        <ele>491.36</ele>
        <time>2021-06-23T10:56:21Z</time>
      </trkpt>
      <trkpt lat="48.33748" lon="7.00184">
        <ele>500.71</ele>
        <time>2021-06-23T10:56:24Z</time>
      </trkpt>
      <trkpt lat="48.33772" lon="7.00327">
        <ele>506.98</ele>
        <time>2021-06-23T10:56:27Z</time>
      </trkpt>
      <trkpt lat="48.33774" lon="7.00348">
        <ele>507.9</ele>
        <time>2021-06-23T10:56:29Z</time>
      </trkpt>
      <trkpt lat="48.33773" lon="7.00401">
        <ele>506.01</ele>
        <time>2021-06-23T10:56:32Z</time>
      </trkpt>
      <trkpt lat="48.33746" lon="7.00631">
        <ele>505.44</ele>
        <time>2021-06-23T10:56:34Z</time>
      </trkpt>
      <trkpt lat="48.33745" lon="7.00667">
        <ele>505.46</ele>
        <time>2021-06-23T10:56:37Z</time>
      </trkpt>
      <trkpt lat="48.33748" lon="7.00687">
        <ele>506.48</ele>
        <time>2021-06-23T10:56:40Z</time>
      </trkpt>
      <trkpt lat="48.33754" lon="7.00703">
        <ele>507.47</ele>
        <time>2021-06-23T10:56:42Z</time>
      </trkpt>
      <trkpt lat="48.3376" lon="7.00715">
        <ele>508.5</ele>
        <time>2021-06-23T10:56:45Z</time>
      </trkpt>
      <trkpt lat="48.33773" lon="7.00736">
        <ele>511.52</ele>
        <time>2021-06-23T10:56:48Z</time>
      </trkpt>
      <trkpt lat="48.33817" lon="7.00793">
        <ele>515.36</ele>
        <time>2021-06-23T10:56:50Z</time>
      </trkpt>
      <trkpt lat="48.33854" lon="7.00849">
        <ele>519.3</ele>
        <time>2021-06-23T10:56:53Z</time>
      </trkpt>
      <trkpt lat="48.33882" lon="7.00907">
        <ele>520.93</ele>
        <time>2021-06-23T10:56:56Z</time>
      </trkpt>
      <trkpt lat="48.33898" lon="7.00927">
        <ele>522.27</ele>
        <time>2021-06-23T10:56:58Z</time>
      </trkpt>
      <trkpt lat="48.33912" lon="7.00943">
        <ele>523.52</ele>
        <time>2021-06-23T10:57:01Z</time>
      </trkpt>
      <trkpt lat="48.33955" lon="7.00961">
        <ele>525.77</ele>
        <time>2021-06-23T10:57:04Z</time>
      </trkpt>
      <trkpt lat="48.34033" lon="7.00963">
        <ele>527.83</ele>
        <time>2021-06-23T10:57:06Z</time>
      </trkpt>
      <trkpt lat="48.34077" lon="7.00956">
        <ele>531.15</ele>
        <time>2021-06-23T10:57:09Z</time>
      </trkpt>
      <trkpt lat="48.3409" lon="7.00961">
        <ele>531.59</ele>
        <time>2021-06-23T10:57:11Z</time>
      </trkpt>
      <trkpt lat="48.34102" lon="7.00969">
        <ele>531.61</ele>
        <time>2021-06-23T10:57:14Z</time>
      </trkpt>
      <trkpt lat="48.34114" lon="7.00981">
        <ele>531.72</ele>
        <time>2021-06-23T10:57:17Z</time>
      </trkpt>
      <trkpt lat="48.3413" lon="7.01011">
        <ele>532.39</ele>
        <time>2021-06-23T10:57:19Z</time>
      </trkpt>
      <trkpt lat="48.34226" lon="7.01273">
        <ele>543.63</ele>
        <time>2021-06-23T10:57:22Z</time>
      </trkpt>
      <trkpt lat="48.34241" lon="7.0131">
        <ele>545.39</ele>
        <time>2021-06-23T10:57:25Z</time>
      </trkpt>
      <trkpt lat="48.34268" lon="7.01359">
        <ele>548.32</ele>
        <time>2021-06-23T10:57:27Z</time>
      </trkpt>
      <trkpt lat="48.34286" lon="7.01387">
        <ele>548.92</ele>
        <time>2021-06-23T10:57:30Z</time>
      </trkpt>
      <trkpt lat="48.34323" lon="7.01429">
        <ele>550.38</ele>
        <time>2021-06-23T10:57:33Z</time>
      </trkpt>
      <trkpt lat="48.34362" lon="7.01456">
        <ele>551.61</ele>
        <time>2021-06-23T10:57:35Z</time>
      </trkpt>
      <trkpt lat="48.34383" lon="7.01477">
        <ele>553.16</ele>
        <time>2021-06-23T10:57:38Z</time>
      </trkpt>
      <trkpt lat="48.34401" lon="7.01501">
        <ele>553.85</ele>
        <time>2021-06-23T10:57:41Z</time>
      </trkpt>
      <trkpt lat="48.34416" lon="7.01526">
        <ele>554</ele>
        <time>2021-06-23T10:57:43Z</time>
      </trkpt>
      <trkpt lat="48.34453" lon="7.01619">
        <ele>556</ele>
        <time>2021-06-23T10:57:46Z</time>
      </trkpt>
      <trkpt lat="48.34453" lon="7.01619">
        <ele>556</ele>
        <time>2021-06-23T10:57:46Z</time>
      </trkpt>
      <trkpt lat="48.3446" lon="7.01641">
        <ele>559.21</ele>
        <time>2021-06-23T10:57:48Z</time>
      </trkpt>
      <trkpt lat="48.34463" lon="7.0166">
        <ele>560.61</ele>
        <time>2021-06-23T10:57:50Z</time>
      </trkpt>
      <trkpt lat="48.34463" lon="7.01676">
        <ele>561.62</ele>
        <time>2021-06-23T10:57:52Z</time>
      </trkpt>
      <trkpt lat="48.3446" lon="7.01696">
        <ele>562.22</ele>
        <time>2021-06-23T10:57:54Z</time>
      </trkpt>
      <trkpt lat="48.3441" lon="7.01866">
        <ele>562.56</ele>
        <time>2021-06-23T10:57:57Z</time>
      </trkpt>
      <trkpt lat="48.34403" lon="7.01903">
        <ele>562.75</ele>
        <time>2021-06-23T10:57:59Z</time>
      </trkpt>
      <trkpt lat="48.344" lon="7.01935">
        <ele>564.15</ele>
        <time>2021-06-23T10:58:01Z</time>
      </trkpt>
      <trkpt lat="48.34402" lon="7.01967">
        <ele>566.1</ele>
        <time>2021-06-23T10:58:03Z</time>
      </trkpt>
      <trkpt lat="48.34406" lon="7.01985">
        <ele>566.64</ele>
        <time>2021-06-23T10:58:05Z</time>
      </trkpt>
      <trkpt lat="48.34417" lon="7.02003">
        <ele>567.64</ele>
        <time>2021-06-23T10:58:07Z</time>
      </trkpt>
      <trkpt lat="48.34454" lon="7.02035">
        <ele>572.46</ele>
        <time>2021-06-23T10:58:09Z</time>
      </trkpt>
      <trkpt lat="48.34463" lon="7.02052">
        <ele>573.54</ele>
        <time>2021-06-23T10:58:11Z</time>
      </trkpt>
      <trkpt lat="48.34467" lon="7.02079">
        <ele>573.32</ele>
        <time>2021-06-23T10:58:13Z</time>
      </trkpt>
      <trkpt lat="48.34465" lon="7.02095">
        <ele>572.81</ele>
        <time>2021-06-23T10:58:16Z</time>
      </trkpt>
      <trkpt lat="48.34462" lon="7.0211">
        <ele>572.25</ele>
        <time>2021-06-23T10:58:18Z</time>
      </trkpt>
      <trkpt lat="48.34442" lon="7.02146">
        <ele>571.71</ele>
        <time>2021-06-23T10:58:20Z</time>
      </trkpt>
      <trkpt lat="48.34439" lon="7.02159">
        <ele>571.49</ele>
        <time>2021-06-23T10:58:22Z</time>
      </trkpt>
      <trkpt lat="48.34439" lon="7.02178">
        <ele>571.92</ele>
        <time>2021-06-23T10:58:24Z</time>
      </trkpt>
      <trkpt lat="48.34465" lon="7.02394">
        <ele>584.63</ele>
        <time>2021-06-23T10:58:26Z</time>
      </trkpt>
      <trkpt lat="48.34466" lon="7.02416">
        <ele>585.52</ele>
        <time>2021-06-23T10:58:28Z</time>
      </trkpt>
      <trkpt lat="48.34461" lon="7.02447">
        <ele>585.64</ele>
        <time>2021-06-23T10:58:30Z</time>
      </trkpt>
      <trkpt lat="48.34453" lon="7.02463">
        <ele>585.49</ele>
        <time>2021-06-23T10:58:33Z</time>
      </trkpt>
      <trkpt lat="48.34441" lon="7.02474">
        <ele>585.05</ele>
        <time>2021-06-23T10:58:35Z</time>
      </trkpt>
      <trkpt lat="48.34391" lon="7.02466">
        <ele>585.69</ele>
        <time>2021-06-23T10:58:37Z</time>
      </trkpt>
      <trkpt lat="48.34354" lon="7.02456">
        <ele>587.66</ele>
        <time>2021-06-23T10:58:39Z</time>
      </trkpt>
      <trkpt lat="48.34343" lon="7.02444">
        <ele>587.92</ele>
        <time>2021-06-23T10:58:41Z</time>
      </trkpt>
      <trkpt lat="48.34334" lon="7.02422">
        <ele>586.5</ele>
        <time>2021-06-23T10:58:43Z</time>
      </trkpt>
      <trkpt lat="48.34319" lon="7.024">
        <ele>587.08</ele>
        <time>2021-06-23T10:58:45Z</time>
      </trkpt>
      <trkpt lat="48.34287" lon="7.02372">
        <ele>588.78</ele>
        <time>2021-06-23T10:58:47Z</time>
      </trkpt>
      <trkpt lat="48.3425" lon="7.02348">
        <ele>597.56</ele>
        <time>2021-06-23T10:58:49Z</time>
      </trkpt>
      <trkpt lat="48.34222" lon="7.02347">
        <ele>598.45</ele>
        <time>2021-06-23T10:58:52Z</time>
      </trkpt>
      <trkpt lat="48.34196" lon="7.02356">
        <ele>597.58</ele>
        <time>2021-06-23T10:58:54Z</time>
      </trkpt>
      <trkpt lat="48.34132" lon="7.02384">
        <ele>598.88</ele>
        <time>2021-06-23T10:58:56Z</time>
      </trkpt>
      <trkpt lat="48.34027" lon="7.02435">
        <ele>612.04</ele>
        <time>2021-06-23T10:58:58Z</time>
      </trkpt>
      <trkpt lat="48.34014" lon="7.02449">
        <ele>612.49</ele>
        <time>2021-06-23T10:59:00Z</time>
      </trkpt>
      <trkpt lat="48.34005" lon="7.02466">
        <ele>612.32</ele>
        <time>2021-06-23T10:59:02Z</time>
      </trkpt>
      <trkpt lat="48.33999" lon="7.02487">
        <ele>611.94</ele>
        <time>2021-06-23T10:59:04Z</time>
      </trkpt>
      <trkpt lat="48.33996" lon="7.02513">
        <ele>611.51</ele>
        <time>2021-06-23T10:59:06Z</time>
      </trkpt>
      <trkpt lat="48.33994" lon="7.02546">
        <ele>611.3</ele>
        <time>2021-06-23T10:59:09Z</time>
      </trkpt>
      <trkpt lat="48.33987" lon="7.02843">
        <ele>625.26</ele>
        <time>2021-06-23T10:59:11Z</time>
      </trkpt>
      <trkpt lat="48.33985" lon="7.02909">
        <ele>626.41</ele>
        <time>2021-06-23T10:59:13Z</time>
      </trkpt>
      <trkpt lat="48.33979" lon="7.02981">
        <ele>628.86</ele>
        <time>2021-06-23T10:59:15Z</time>
      </trkpt>
      <trkpt lat="48.33952" lon="7.03159">
        <ele>633.49</ele>
        <time>2021-06-23T10:59:17Z</time>
      </trkpt>
      <trkpt lat="48.33953" lon="7.03192">
        <ele>633.78</ele>
        <time>2021-06-23T10:59:19Z</time>
      </trkpt>
      <trkpt lat="48.33957" lon="7.03219">
        <ele>633.98</ele>
        <time>2021-06-23T10:59:21Z</time>
      </trkpt>
      <trkpt lat="48.34033" lon="7.03575">
        <ele>651.02</ele>
        <time>2021-06-23T10:59:23Z</time>
      </trkpt>
      <trkpt lat="48.34034" lon="7.03597">
        <ele>648.95</ele>
        <time>2021-06-23T10:59:25Z</time>
      </trkpt>
      <trkpt lat="48.34024" lon="7.03683">
        <ele>644.08</ele>
        <time>2021-06-23T10:59:28Z</time>
      </trkpt>
      <trkpt lat="48.34018" lon="7.03817">
        <ele>650.51</ele>
        <time>2021-06-23T10:59:30Z</time>
      </trkpt>
      <trkpt lat="48.34019" lon="7.03842">
        <ele>650.54</ele>
        <time>2021-06-23T10:59:32Z</time>
      </trkpt>
      <trkpt lat="48.34044" lon="7.03918">
        <ele>650.91</ele>
        <time>2021-06-23T10:59:34Z</time>
      </trkpt>
      <trkpt lat="48.34054" lon="7.03938">
        <ele>651.19</ele>
        <time>2021-06-23T10:59:36Z</time>
      </trkpt>
      <trkpt lat="48.3407" lon="7.03958">
        <ele>654.09</ele>
        <time>2021-06-23T10:59:38Z</time>
      </trkpt>
      <trkpt lat="48.34094" lon="7.03977">
        <ele>657.95</ele>
        <time>2021-06-23T10:59:40Z</time>
      </trkpt>
      <trkpt lat="48.34132" lon="7.03991">
        <ele>667.26</ele>
        <time>2021-06-23T10:59:42Z</time>
      </trkpt>
      <trkpt lat="48.34163" lon="7.03997">
        <ele>674.31</ele>
        <time>2021-06-23T10:59:45Z</time>
      </trkpt>
      <trkpt lat="48.34189" lon="7.0402">
        <ele>677.94</ele>
        <time>2021-06-23T10:59:47Z</time>
      </trkpt>
      <trkpt lat="48.34199" lon="7.04055">
        <ele>677.39</ele>
        <time>2021-06-23T10:59:49Z</time>
      </trkpt>
      <trkpt lat="48.342" lon="7.04092">
        <ele>676.76</ele>
        <time>2021-06-23T10:59:51Z</time>
      </trkpt>
      <trkpt lat="48.34194" lon="7.04121">
        <ele>677.36</ele>
        <time>2021-06-23T10:59:53Z</time>
      </trkpt>
      <trkpt lat="48.34177" lon="7.04163">
        <ele>675.36</ele>
        <time>2021-06-23T10:59:55Z</time>
      </trkpt>
      <trkpt lat="48.34146" lon="7.04214">
        <ele>670.93</ele>
        <time>2021-06-23T10:59:57Z</time>
      </trkpt>
      <trkpt lat="48.34118" lon="7.04268">
        <ele>670.26</ele>
        <time>2021-06-23T10:59:59Z</time>
      </trkpt>
      <trkpt lat="48.341" lon="7.04312">
        <ele>671.45</ele>
        <time>2021-06-23T11:00:02Z</time>
      </trkpt>
      <trkpt lat="48.34098" lon="7.04342">
        <ele>673.64</ele>
        <time>2021-06-23T11:00:04Z</time>
      </trkpt>
      <trkpt lat="48.34104" lon="7.04373">
        <ele>676.88</ele>
        <time>2021-06-23T11:00:06Z</time>
      </trkpt>
      <trkpt lat="48.34106" lon="7.0441">
        <ele>680.1</ele>
        <time>2021-06-23T11:00:08Z</time>
      </trkpt>
      <trkpt lat="48.34103" lon="7.04448">
        <ele>682.9</ele>
        <time>2021-06-23T11:00:10Z</time>
      </trkpt>
      <trkpt lat="48.34095" lon="7.04475">
        <ele>684.05</ele>
        <time>2021-06-23T11:00:12Z</time>
      </trkpt>
      <trkpt lat="48.34084" lon="7.0449">
        <ele>684.91</ele>
        <time>2021-06-23T11:00:14Z</time>
      </trkpt>
      <trkpt lat="48.34064" lon="7.04499">
        <ele>687.99</ele>
        <time>2021-06-23T11:00:16Z</time>
      </trkpt>
      <trkpt lat="48.34016" lon="7.04514">
        <ele>689.64</ele>
        <time>2021-06-23T11:00:18Z</time>
      </trkpt>
      <trkpt lat="48.33959" lon="7.04526">
        <ele>690.83</ele>
        <time>2021-06-23T11:00:21Z</time>
      </trkpt>
      <trkpt lat="48.33923" lon="7.04543">
        <ele>695.02</ele>
        <time>2021-06-23T11:00:23Z</time>
      </trkpt>
      <trkpt lat="48.33906" lon="7.04575">
        <ele>697.54</ele>
        <time>2021-06-23T11:00:25Z</time>
      </trkpt>
      <trkpt lat="48.33888" lon="7.04652">
        <ele>701.86</ele>
        <time>2021-06-23T11:00:27Z</time>
      </trkpt>
      <trkpt lat="48.33865" lon="7.04826">
        <ele>704.43</ele>
        <time>2021-06-23T11:00:29Z</time>
      </trkpt>
      <trkpt lat="48.33821" lon="7.04991">
        <ele>706.25</ele>
        <time>2021-06-23T11:00:31Z</time>
      </trkpt>
      <trkpt lat="48.33761" lon="7.05161">
        <ele>712.61</ele>
        <time>2021-06-23T11:00:33Z</time>
      </trkpt>
      <trkpt lat="48.3373" lon="7.05243">
        <ele>710.8</ele>
        <time>2021-06-23T11:00:35Z</time>
      </trkpt>
      <trkpt lat="48.33727" lon="7.05265">
        <ele>710.29</ele>
        <time>2021-06-23T11:00:38Z</time>
      </trkpt>
      <trkpt lat="48.33726" lon="7.05297">
        <ele>709.1</ele>
        <time>2021-06-23T11:00:40Z</time>
      </trkpt>
      <trkpt lat="48.3373" lon="7.05336">
        <ele>708.89</ele>
        <time>2021-06-23T11:00:42Z</time>
      </trkpt>
      <trkpt lat="48.33739" lon="7.05383">
        <ele>707.41</ele>
        <time>2021-06-23T11:00:44Z</time>
      </trkpt>
      <trkpt lat="48.33745" lon="7.05399">
        <ele>705.96</ele>
        <time>2021-06-23T11:00:46Z</time>
      </trkpt>
      <trkpt lat="48.33774" lon="7.05446">
        <ele>702.42</ele>
        <time>2021-06-23T11:00:48Z</time>
      </trkpt>
      <trkpt lat="48.33801" lon="7.05479">
        <ele>698.38</ele>
        <time>2021-06-23T11:00:50Z</time>
      </trkpt>
      <trkpt lat="48.33817" lon="7.05495">
        <ele>696.87</ele>
        <time>2021-06-23T11:00:52Z</time>
      </trkpt>
      <trkpt lat="48.33831" lon="7.05503">
        <ele>695.36</ele>
        <time>2021-06-23T11:00:54Z</time>
      </trkpt>
      <trkpt lat="48.33847" lon="7.05504">
        <ele>693.14</ele>
        <time>2021-06-23T11:00:57Z</time>
      </trkpt>
      <trkpt lat="48.33868" lon="7.05513">
        <ele>691.1</ele>
        <time>2021-06-23T11:00:59Z</time>
      </trkpt>
      <trkpt lat="48.33881" lon="7.05529">
        <ele>690.58</ele>
        <time>2021-06-23T11:01:01Z</time>
      </trkpt>
      <trkpt lat="48.3391" lon="7.05614">
        <ele>691.66</ele>
        <time>2021-06-23T11:01:03Z</time>
      </trkpt>
      <trkpt lat="48.33927" lon="7.05642">
        <ele>689.78</ele>
        <time>2021-06-23T11:01:05Z</time>
      </trkpt>
      <trkpt lat="48.33947" lon="7.05655">
        <ele>685.8</ele>
        <time>2021-06-23T11:01:07Z</time>
      </trkpt>
      <trkpt lat="48.33984" lon="7.05661">
        <ele>682.35</ele>
        <time>2021-06-23T11:01:09Z</time>
      </trkpt>
      <trkpt lat="48.34025" lon="7.05659">
        <ele>684.96</ele>
        <time>2021-06-23T11:01:11Z</time>
      </trkpt>
      <trkpt lat="48.34039" lon="7.05664">
        <ele>686.36</ele>
        <time>2021-06-23T11:01:14Z</time>
      </trkpt>
      <trkpt lat="48.34042" lon="7.05679">
        <ele>686.43</ele>
        <time>2021-06-23T11:01:16Z</time>
      </trkpt>
      <trkpt lat="48.34042" lon="7.05693">
        <ele>685.98</ele>
        <time>2021-06-23T11:01:18Z</time>
      </trkpt>
      <trkpt lat="48.3403" lon="7.05721">
        <ele>682.73</ele>
        <time>2021-06-23T11:01:20Z</time>
      </trkpt>
      <trkpt lat="48.34009" lon="7.05757">
        <ele>675.72</ele>
        <time>2021-06-23T11:01:22Z</time>
      </trkpt>
      <trkpt lat="48.33989" lon="7.05801">
        <ele>673.37</ele>
        <time>2021-06-23T11:01:24Z</time>
      </trkpt>
      <trkpt lat="48.33979" lon="7.05832">
        <ele>673.52</ele>
        <time>2021-06-23T11:01:26Z</time>
      </trkpt>
      <trkpt lat="48.33967" lon="7.05896">
        <ele>676.66</ele>
        <time>2021-06-23T11:01:28Z</time>
      </trkpt>
      <trkpt lat="48.3394" lon="7.06105">
        <ele>669.2</ele>
        <time>2021-06-23T11:01:31Z</time>
      </trkpt>
      <trkpt lat="48.33928" lon="7.06162">
        <ele>665.78</ele>
        <time>2021-06-23T11:01:33Z</time>
      </trkpt>
      <trkpt lat="48.33924" lon="7.0622">
        <ele>661.89</ele>
        <time>2021-06-23T11:01:35Z</time>
      </trkpt>
      <trkpt lat="48.33928" lon="7.06237">
        <ele>660.93</ele>
        <time>2021-06-23T11:01:37Z</time>
      </trkpt>
      <trkpt lat="48.33939" lon="7.0626">
        <ele>659.63</ele>
        <time>2021-06-23T11:01:39Z</time>
      </trkpt>
      <trkpt lat="48.33954" lon="7.0628">
        <ele>657.14</ele>
        <time>2021-06-23T11:01:41Z</time>
      </trkpt>
      <trkpt lat="48.33968" lon="7.06288">
        <ele>654.96</ele>
        <time>2021-06-23T11:01:43Z</time>
      </trkpt>
      <trkpt lat="48.3398" lon="7.06288">
        <ele>653.1</ele>
        <time>2021-06-23T11:01:45Z</time>
      </trkpt>
      <trkpt lat="48.34013" lon="7.06268">
        <ele>652.6</ele>
        <time>2021-06-23T11:01:47Z</time>
      </trkpt>
      <trkpt lat="48.34021" lon="7.06267">
        <ele>652.51</ele>
        <time>2021-06-23T11:01:50Z</time>
      </trkpt>
      <trkpt lat="48.3403" lon="7.06271">
        <ele>652.16</ele>
        <time>2021-06-23T11:01:52Z</time>
      </trkpt>
      <trkpt lat="48.34036" lon="7.06281">
        <ele>652.05</ele>
        <time>2021-06-23T11:01:54Z</time>
      </trkpt>
      <trkpt lat="48.34041" lon="7.06297">
        <ele>651.46</ele>
        <time>2021-06-23T11:01:56Z</time>
      </trkpt>
      <trkpt lat="48.34044" lon="7.06353">
        <ele>646.79</ele>
        <time>2021-06-23T11:01:58Z</time>
      </trkpt>
      <trkpt lat="48.34048" lon="7.06383">
        <ele>643.68</ele>
        <time>2021-06-23T11:02:00Z</time>
      </trkpt>
      <trkpt lat="48.34053" lon="7.06405">
        <ele>641.93</ele>
        <time>2021-06-23T11:02:02Z</time>
      </trkpt>
      <trkpt lat="48.3406" lon="7.06427">
        <ele>641.11</ele>
        <time>2021-06-23T11:02:04Z</time>
      </trkpt>
      <trkpt lat="48.34073" lon="7.06459">
        <ele>640.46</ele>
        <time>2021-06-23T11:02:07Z</time>
      </trkpt>
      <trkpt lat="48.34113" lon="7.06542">
        <ele>638.05</ele>
        <time>2021-06-23T11:02:09Z</time>
      </trkpt>
      <trkpt lat="48.34118" lon="7.06556">
        <ele>637.83</ele>
        <time>2021-06-23T11:02:11Z</time>
      </trkpt>
      <trkpt lat="48.34118" lon="7.06577">
        <ele>637.78</ele>
        <time>2021-06-23T11:02:13Z</time>
      </trkpt>
      <trkpt lat="48.34115" lon="7.0659">
        <ele>637.77</ele>
        <time>2021-06-23T11:02:15Z</time>
      </trkpt>
      <trkpt lat="48.34109" lon="7.06601">
        <ele>637.39</ele>
        <time>2021-06-23T11:02:17Z</time>
      </trkpt>
      <trkpt lat="48.34002" lon="7.06722">
        <ele>624.4</ele>
        <time>2021-06-23T11:02:19Z</time>
      </trkpt>
      <trkpt lat="48.33959" lon="7.06775">
        <ele>619.94</ele>
        <time>2021-06-23T11:02:21Z</time>
      </trkpt>
      <trkpt lat="48.33907" lon="7.06826">
        <ele>616.75</ele>
        <time>2021-06-23T11:02:23Z</time>
      </trkpt>
      <trkpt lat="48.33899" lon="7.06838">
        <ele>617.13</ele>
        <time>2021-06-23T11:02:26Z</time>
      </trkpt>
      <trkpt lat="48.33895" lon="7.06851">
        <ele>617.81</ele>
        <time>2021-06-23T11:02:28Z</time>
      </trkpt>
      <trkpt lat="48.33892" lon="7.06867">
        <ele>618.38</ele>
        <time>2021-06-23T11:02:30Z</time>
      </trkpt>
      <trkpt lat="48.33894" lon="7.0689">
        <ele>618.53</ele>
        <time>2021-06-23T11:02:32Z</time>
      </trkpt>
      <trkpt lat="48.33911" lon="7.06965">
        <ele>620.16</ele>
        <time>2021-06-23T11:02:34Z</time>
      </trkpt>
      <trkpt lat="48.33926" lon="7.07004">
        <ele>619.63</ele>
        <time>2021-06-23T11:02:36Z</time>
      </trkpt>
      <trkpt lat="48.3395" lon="7.07049">
        <ele>617.95</ele>
        <time>2021-06-23T11:02:38Z</time>
      </trkpt>
      <trkpt lat="48.3397" lon="7.07081">
        <ele>616.24</ele>
        <time>2021-06-23T11:02:40Z</time>
      </trkpt>
      <trkpt lat="48.33981" lon="7.07093">
        <ele>615.34</ele>
        <time>2021-06-23T11:02:43Z</time>
      </trkpt>
      <trkpt lat="48.34094" lon="7.07139">
        <ele>611.79</ele>
        <time>2021-06-23T11:02:45Z</time>
      </trkpt>
      <trkpt lat="48.34207" lon="7.07204">
        <ele>616.5</ele>
        <time>2021-06-23T11:02:47Z</time>
      </trkpt>
      <trkpt lat="48.34217" lon="7.0722">
        <ele>614.81</ele>
        <time>2021-06-23T11:02:49Z</time>
      </trkpt>
      <trkpt lat="48.34222" lon="7.07232">
        <ele>614.23</ele>
        <time>2021-06-23T11:02:51Z</time>
      </trkpt>
      <trkpt lat="48.34222" lon="7.07259">
        <ele>613</ele>
        <time>2021-06-23T11:02:53Z</time>
      </trkpt>
      <trkpt lat="48.34217" lon="7.07293">
        <ele>613.29</ele>
        <time>2021-06-23T11:02:55Z</time>
      </trkpt>
      <trkpt lat="48.342" lon="7.07383">
        <ele>619.71</ele>
        <time>2021-06-23T11:02:57Z</time>
      </trkpt>
      <trkpt lat="48.34197" lon="7.07414">
        <ele>620.31</ele>
        <time>2021-06-23T11:03:00Z</time>
      </trkpt>
      <trkpt lat="48.34198" lon="7.07474">
        <ele>618.78</ele>
        <time>2021-06-23T11:03:02Z</time>
      </trkpt>
      <trkpt lat="48.34194" lon="7.07515">
        <ele>617.88</ele>
        <time>2021-06-23T11:03:04Z</time>
      </trkpt>
      <trkpt lat="48.34184" lon="7.07575">
        <ele>619.2</ele>
        <time>2021-06-23T11:03:06Z</time>
      </trkpt>
      <trkpt lat="48.34181" lon="7.07616">
        <ele>620.13</ele>
        <time>2021-06-23T11:03:08Z</time>
      </trkpt>
      <trkpt lat="48.34182" lon="7.07648">
        <ele>620.8</ele>
        <time>2021-06-23T11:03:10Z</time>
      </trkpt>
      <trkpt lat="48.342" lon="7.07777">
        <ele>624.53</ele>
        <time>2021-06-23T11:03:12Z</time>
      </trkpt>
      <trkpt lat="48.34207" lon="7.07805">
        <ele>625.87</ele>
        <time>2021-06-23T11:03:14Z</time>
      </trkpt>
      <trkpt lat="48.34216" lon="7.07825">
        <ele>627.27</ele>
        <time>2021-06-23T11:03:16Z</time>
      </trkpt>
      <trkpt lat="48.34229" lon="7.07843">
        <ele>628.63</ele>
        <time>2021-06-23T11:03:19Z</time>
      </trkpt>
      <trkpt lat="48.34279" lon="7.07905">
        <ele>633.03</ele>
        <time>2021-06-23T11:03:21Z</time>
      </trkpt>
      <trkpt lat="48.343" lon="7.07928">
        <ele>633</ele>
        <time>2021-06-23T11:03:23Z</time>
      </trkpt>
      <trkpt lat="48.34313" lon="7.07934">
        <ele>632.91</ele>
        <time>2021-06-23T11:03:25Z</time>
      </trkpt>
      <trkpt lat="48.3433" lon="7.07939">
        <ele>633.1</ele>
        <time>2021-06-23T11:03:27Z</time>
      </trkpt>
      <trkpt lat="48.34366" lon="7.07942">
        <ele>632.57</ele>
        <time>2021-06-23T11:03:29Z</time>
      </trkpt>
      <trkpt lat="48.34378" lon="7.07947">
        <ele>633.07</ele>
        <time>2021-06-23T11:03:31Z</time>
      </trkpt>
      <trkpt lat="48.34384" lon="7.07957">
        <ele>633.15</ele>
        <time>2021-06-23T11:03:33Z</time>
      </trkpt>
      <trkpt lat="48.34388" lon="7.07971">
        <ele>632.93</ele>
        <time>2021-06-23T11:03:36Z</time>
      </trkpt>
      <trkpt lat="48.34389" lon="7.07987">
        <ele>632.99</ele>
        <time>2021-06-23T11:03:38Z</time>
      </trkpt>
      <trkpt lat="48.34385" lon="7.08008">
        <ele>633.42</ele>
        <time>2021-06-23T11:03:40Z</time>
      </trkpt>
      <trkpt lat="48.34376" lon="7.08024">
        <ele>633.36</ele>
        <time>2021-06-23T11:03:42Z</time>
      </trkpt>
      <trkpt lat="48.34361" lon="7.08041">
        <ele>631.43</ele>
        <time>2021-06-23T11:03:44Z</time>
      </trkpt>
      <trkpt lat="48.34353" lon="7.08055">
        <ele>631.51</ele>
        <time>2021-06-23T11:03:46Z</time>
      </trkpt>
      <trkpt lat="48.34342" lon="7.08085">
        <ele>632.3</ele>
        <time>2021-06-23T11:03:48Z</time>
      </trkpt>
      <trkpt lat="48.34331" lon="7.0812">
        <ele>633.97</ele>
        <time>2021-06-23T11:03:50Z</time>
      </trkpt>
      <trkpt lat="48.34318" lon="7.08148">
        <ele>635.5</ele>
        <time>2021-06-23T11:03:52Z</time>
      </trkpt>
      <trkpt lat="48.34287" lon="7.08202">
        <ele>631.88</ele>
        <time>2021-06-23T11:03:55Z</time>
      </trkpt>
      <trkpt lat="48.34235" lon="7.08283">
        <ele>629.61</ele>
        <time>2021-06-23T11:03:57Z</time>
      </trkpt>
      <trkpt lat="48.34188" lon="7.08366">
        <ele>624.11</ele>
        <time>2021-06-23T11:03:59Z</time>
      </trkpt>
      <trkpt lat="48.34173" lon="7.08405">
        <ele>625.12</ele>
        <time>2021-06-23T11:04:01Z</time>
      </trkpt>
      <trkpt lat="48.34169" lon="7.08422">
        <ele>626.06</ele>
        <time>2021-06-23T11:04:03Z</time>
      </trkpt>
      <trkpt lat="48.34168" lon="7.08439">
        <ele>626.83</ele>
        <time>2021-06-23T11:04:05Z</time>
      </trkpt>
      <trkpt lat="48.34169" lon="7.08474">
        <ele>626.23</ele>
        <time>2021-06-23T11:04:07Z</time>
      </trkpt>
      <trkpt lat="48.34171" lon="7.08507">
        <ele>622.23</ele>
        <time>2021-06-23T11:04:09Z</time>
      </trkpt>
      <trkpt lat="48.34185" lon="7.08591">
        <ele>614.22</ele>
        <time>2021-06-23T11:04:12Z</time>
      </trkpt>
      <trkpt lat="48.34199" lon="7.08638">
        <ele>610.17</ele>
        <time>2021-06-23T11:04:14Z</time>
      </trkpt>
      <trkpt lat="48.34219" lon="7.08683">
        <ele>608.17</ele>
        <time>2021-06-23T11:04:16Z</time>
      </trkpt>
      <trkpt lat="48.34245" lon="7.08733">
        <ele>607.52</ele>
        <time>2021-06-23T11:04:18Z</time>
      </trkpt>
      <trkpt lat="48.3428" lon="7.08796">
        <ele>609.24</ele>
        <time>2021-06-23T11:04:20Z</time>
      </trkpt>
      <trkpt lat="48.34302" lon="7.08859">
        <ele>611.96</ele>
        <time>2021-06-23T11:04:22Z</time>
      </trkpt>
      <trkpt lat="48.34369" lon="7.09026">
        <ele>609.1</ele>
        <time>2021-06-23T11:04:24Z</time>
      </trkpt>
      <trkpt lat="48.34373" lon="7.09043">
        <ele>609.29</ele>
        <time>2021-06-23T11:04:26Z</time>
      </trkpt>
      <trkpt lat="48.34381" lon="7.09129">
        <ele>605.58</ele>
        <time>2021-06-23T11:04:29Z</time>
      </trkpt>
      <trkpt lat="48.34386" lon="7.09152">
        <ele>605.27</ele>
        <time>2021-06-23T11:04:31Z</time>
      </trkpt>
      <trkpt lat="48.34404" lon="7.09196">
        <ele>604.48</ele>
        <time>2021-06-23T11:04:33Z</time>
      </trkpt>
      <trkpt lat="48.34422" lon="7.09231">
        <ele>601.7</ele>
        <time>2021-06-23T11:04:35Z</time>
      </trkpt>
      <trkpt lat="48.34444" lon="7.09267">
        <ele>600.91</ele>
        <time>2021-06-23T11:04:37Z</time>
      </trkpt>
      <trkpt lat="48.34576" lon="7.09429">
        <ele>592.3</ele>
        <time>2021-06-23T11:04:39Z</time>
      </trkpt>
      <trkpt lat="48.34598" lon="7.09473">
        <ele>589.45</ele>
        <time>2021-06-23T11:04:41Z</time>
      </trkpt>
      <trkpt lat="48.34654" lon="7.09598">
        <ele>587.78</ele>
        <time>2021-06-23T11:04:43Z</time>
      </trkpt>
      <trkpt lat="48.34674" lon="7.09651">
        <ele>585.36</ele>
        <time>2021-06-23T11:04:45Z</time>
      </trkpt>
      <trkpt lat="48.34687" lon="7.09697">
        <ele>583.66</ele>
        <time>2021-06-23T11:04:48Z</time>
      </trkpt>
      <trkpt lat="48.34712" lon="7.09823">
        <ele>581.89</ele>
        <time>2021-06-23T11:04:50Z</time>
      </trkpt>
      <trkpt lat="48.34723" lon="7.09859">
        <ele>582</ele>
        <time>2021-06-23T11:04:52Z</time>
      </trkpt>
      <trkpt lat="48.34747" lon="7.10131">
        <ele>573.14</ele>
        <time>2021-06-23T11:04:54Z</time>
      </trkpt>
      <trkpt lat="48.34759" lon="7.10231">
        <ele>567.57</ele>
        <time>2021-06-23T11:04:56Z</time>
      </trkpt>
      <trkpt lat="48.34773" lon="7.1032">
        <ele>566.52</ele>
        <time>2021-06-23T11:04:58Z</time>
      </trkpt>
      <trkpt lat="48.34813" lon="7.10501">
        <ele>560.72</ele>
        <time>2021-06-23T11:05:00Z</time>
      </trkpt>
      <trkpt lat="48.34812" lon="7.10551">
        <ele>560.32</ele>
        <time>2021-06-23T11:05:02Z</time>
      </trkpt>
      <trkpt lat="48.34817" lon="7.10569">
        <ele>560.39</ele>
        <time>2021-06-23T11:05:05Z</time>
      </trkpt>
      <trkpt lat="48.34834" lon="7.10609">
        <ele>560.09</ele>
        <time>2021-06-23T11:05:07Z</time>
      </trkpt>
      <trkpt lat="48.34843" lon="7.10638">
        <ele>559.37</ele>
        <time>2021-06-23T11:05:09Z</time>
      </trkpt>
      <trkpt lat="48.34848" lon="7.10679">
        <ele>557.78</ele>
        <time>2021-06-23T11:05:11Z</time>
      </trkpt>
      <trkpt lat="48.34842" lon="7.10699">
        <ele>557.26</ele>
        <time>2021-06-23T11:05:13Z</time>
      </trkpt>
      <trkpt lat="48.34845" lon="7.10706">
        <ele>557.24</ele>
        <time>2021-06-23T11:05:17Z</time>
      </trkpt>
      <trkpt lat="48.34847" lon="7.10723">
        <ele>557</ele>
        <time>2021-06-23T11:05:20Z</time>
      </trkpt>
      <trkpt lat="48.34849" lon="7.10797">
        <ele>556</ele>
        <time>2021-06-23T11:05:24Z</time>
      </trkpt>
      <trkpt lat="48.34861" lon="7.10916">
        <ele>554.1</ele>
        <time>2021-06-23T11:05:28Z</time>
      </trkpt>
      <trkpt lat="48.34874" lon="7.10999">
        <ele>551.46</ele>
        <time>2021-06-23T11:05:31Z</time>
      </trkpt>
      <trkpt lat="48.34877" lon="7.11035">
        <ele>550.74</ele>
        <time>2021-06-23T11:05:35Z</time>
      </trkpt>
      <trkpt lat="48.34882" lon="7.11057">
        <ele>549.94</ele>
        <time>2021-06-23T11:05:38Z</time>
      </trkpt>
      <trkpt lat="48.34895" lon="7.1109">
        <ele>548.01</ele>
        <time>2021-06-23T11:05:42Z</time>
      </trkpt>
      <trkpt lat="48.34925" lon="7.11202">
        <ele>548.91</ele>
        <time>2021-06-23T11:05:46Z</time>
      </trkpt>
      <trkpt lat="48.34955" lon="7.11321">
        <ele>545.86</ele>
        <time>2021-06-23T11:05:49Z</time>
      </trkpt>
      <trkpt lat="48.34961" lon="7.11355">
        <ele>545.2</ele>
        <time>2021-06-23T11:05:53Z</time>
      </trkpt>
      <trkpt lat="48.34988" lon="7.11579">
        <ele>539.69</ele>
        <time>2021-06-23T11:05:57Z</time>
      </trkpt>
      <trkpt lat="48.34993" lon="7.11607">
        <ele>538.79</ele>
        <time>2021-06-23T11:06:00Z</time>
      </trkpt>
      <trkpt lat="48.35005" lon="7.11649">
        <ele>538.25</ele>
        <time>2021-06-23T11:06:04Z</time>
      </trkpt>
      <trkpt lat="48.35016" lon="7.11678">
        <ele>537.61</ele>
        <time>2021-06-23T11:06:07Z</time>
      </trkpt>
      <trkpt lat="48.35057" lon="7.11747">
        <ele>535.89</ele>
        <time>2021-06-23T11:06:11Z</time>
      </trkpt>
      <trkpt lat="48.35115" lon="7.11835">
        <ele>532.51</ele>
        <time>2021-06-23T11:06:15Z</time>
      </trkpt>
      <trkpt lat="48.35128" lon="7.11861">
        <ele>531.61</ele>
        <time>2021-06-23T11:06:18Z</time>
      </trkpt>
      <trkpt lat="48.35141" lon="7.11903">
        <ele>531.08</ele>
        <time>2021-06-23T11:06:22Z</time>
      </trkpt>
      <trkpt lat="48.35168" lon="7.12015">
        <ele>529.85</ele>
        <time>2021-06-23T11:06:25Z</time>
      </trkpt>
      <trkpt lat="48.35197" lon="7.1218">
        <ele>529.37</ele>
        <time>2021-06-23T11:06:29Z</time>
      </trkpt>
      <trkpt lat="48.35199" lon="7.122">
        <ele>529.63</ele>
        <time>2021-06-23T11:06:33Z</time>
      </trkpt>
      <trkpt lat="48.35208" lon="7.12335">
        <ele>522.79</ele>
        <time>2021-06-23T11:06:36Z</time>
      </trkpt>
      <trkpt lat="48.35215" lon="7.12367">
        <ele>522.68</ele>
        <time>2021-06-23T11:06:40Z</time>
      </trkpt>
      <trkpt lat="48.3523" lon="7.12412">
        <ele>521.49</ele>
        <time>2021-06-23T11:06:44Z</time>
      </trkpt>
      <trkpt lat="48.35235" lon="7.12439">
        <ele>521.06</ele>
        <time>2021-06-23T11:06:47Z</time>
      </trkpt>
      <trkpt lat="48.35236" lon="7.12459">
        <ele>520.99</ele>
        <time>2021-06-23T11:06:51Z</time>
      </trkpt>
      <trkpt lat="48.35234" lon="7.12481">
        <ele>520.81</ele>
        <time>2021-06-23T11:06:54Z</time>
      </trkpt>
      <trkpt lat="48.35231" lon="7.12498">
        <ele>520.58</ele>
        <time>2021-06-23T11:06:58Z</time>
      </trkpt>
      <trkpt lat="48.3522" lon="7.12533">
        <ele>521.08</ele>
        <time>2021-06-23T11:07:02Z</time>
      </trkpt>
      <trkpt lat="48.35205" lon="7.12569">
        <ele>521.22</ele>
        <time>2021-06-23T11:07:05Z</time>
      </trkpt>
      <trkpt lat="48.35197" lon="7.12582">
        <ele>521.23</ele>
        <time>2021-06-23T11:07:09Z</time>
      </trkpt>
      <trkpt lat="48.35159" lon="7.12635">
        <ele>521.84</ele>
        <time>2021-06-23T11:07:12Z</time>
      </trkpt>
      <trkpt lat="48.35153" lon="7.12646">
        <ele>521.63</ele>
        <time>2021-06-23T11:07:16Z</time>
      </trkpt>
      <trkpt lat="48.35143" lon="7.12675">
        <ele>521.76</ele>
        <time>2021-06-23T11:07:20Z</time>
      </trkpt>
      <trkpt lat="48.35138" lon="7.12706">
        <ele>521.23</ele>
        <time>2021-06-23T11:07:23Z</time>
      </trkpt>
      <trkpt lat="48.35126" lon="7.12828">
        <ele>523.18</ele>
        <time>2021-06-23T11:07:27Z</time>
      </trkpt>
      <trkpt lat="48.35125" lon="7.12881">
        <ele>523.67</ele>
        <time>2021-06-23T11:07:31Z</time>
      </trkpt>
      <trkpt lat="48.35129" lon="7.12924">
        <ele>522.55</ele>
        <time>2021-06-23T11:07:34Z</time>
      </trkpt>
      <trkpt lat="48.35138" lon="7.1298">
        <ele>521.18</ele>
        <time>2021-06-23T11:07:38Z</time>
      </trkpt>
      <trkpt lat="48.35152" lon="7.13033">
        <ele>519.7</ele>
        <time>2021-06-23T11:07:41Z</time>
      </trkpt>
      <trkpt lat="48.35162" lon="7.13063">
        <ele>518.39</ele>
        <time>2021-06-23T11:07:45Z</time>
      </trkpt>
      <trkpt lat="48.35184" lon="7.13105">
        <ele>516.67</ele>
        <time>2021-06-23T11:07:49Z</time>
      </trkpt>
      <trkpt lat="48.35203" lon="7.13127">
        <ele>515.07</ele>
        <time>2021-06-23T11:07:52Z</time>
      </trkpt>
      <trkpt lat="48.35218" lon="7.1314">
        <ele>514.47</ele>
        <time>2021-06-23T11:07:56Z</time>
      </trkpt>
      <trkpt lat="48.35245" lon="7.13152">
        <ele>515.52</ele>
        <time>2021-06-23T11:07:59Z</time>
      </trkpt>
      <trkpt lat="48.35272" lon="7.13157">
        <ele>514.95</ele>
        <time>2021-06-23T11:08:03Z</time>
      </trkpt>
      <trkpt lat="48.35341" lon="7.13148">
        <ele>514.91</ele>
        <time>2021-06-23T11:08:07Z</time>
      </trkpt>
      <trkpt lat="48.35387" lon="7.13153">
        <ele>517.74</ele>
        <time>2021-06-23T11:08:10Z</time>
      </trkpt>
      <trkpt lat="48.35402" lon="7.13157">
        <ele>519</ele>
        <time>2021-06-23T11:08:14Z</time>
      </trkpt>
      <trkpt lat="48.35441" lon="7.13175">
        <ele>519.53</ele>
        <time>2021-06-23T11:08:18Z</time>
      </trkpt>
      <trkpt lat="48.35464" lon="7.13191">
        <ele>517.99</ele>
        <time>2021-06-23T11:08:21Z</time>
      </trkpt>
      <trkpt lat="48.35488" lon="7.13211">
        <ele>518.52</ele>
        <time>2021-06-23T11:08:25Z</time>
      </trkpt>
      <trkpt lat="48.3553" lon="7.13265">
        <ele>514.44</ele>
        <time>2021-06-23T11:08:28Z</time>
      </trkpt>
      <trkpt lat="48.35555" lon="7.1329">
        <ele>509.3</ele>
        <time>2021-06-23T11:08:32Z</time>
      </trkpt>
      <trkpt lat="48.35592" lon="7.13316">
        <ele>507.76</ele>
        <time>2021-06-23T11:08:36Z</time>
      </trkpt>
      <trkpt lat="48.35638" lon="7.13355">
        <ele>508.69</ele>
        <time>2021-06-23T11:08:39Z</time>
      </trkpt>
      <trkpt lat="48.35707" lon="7.13416">
        <ele>502.04</ele>
        <time>2021-06-23T11:08:43Z</time>
      </trkpt>
      <trkpt lat="48.35736" lon="7.13433">
        <ele>500.63</ele>
        <time>2021-06-23T11:08:46Z</time>
      </trkpt>
      <trkpt lat="48.35759" lon="7.13441">
        <ele>499.41</ele>
        <time>2021-06-23T11:08:50Z</time>
      </trkpt>
      <trkpt lat="48.35781" lon="7.13445">
        <ele>497.83</ele>
        <time>2021-06-23T11:08:54Z</time>
      </trkpt>
      <trkpt lat="48.35807" lon="7.13453">
        <ele>496.65</ele>
        <time>2021-06-23T11:08:57Z</time>
      </trkpt>
      <trkpt lat="48.35836" lon="7.1347">
        <ele>497.91</ele>
        <time>2021-06-23T11:09:01Z</time>
      </trkpt>
      <trkpt lat="48.35889" lon="7.13499">
        <ele>496.03</ele>
        <time>2021-06-23T11:09:05Z</time>
      </trkpt>
      <trkpt lat="48.35887" lon="7.13503">
        <ele>496.07</ele>
        <time>2021-06-23T11:09:11Z</time>
      </trkpt>
      <trkpt lat="48.35859" lon="7.13612">
        <ele>501.21</ele>
        <time>2021-06-23T11:09:16Z</time>
      </trkpt>
      <trkpt lat="48.35853" lon="7.13629">
        <ele>502.49</ele>
        <time>2021-06-23T11:09:22Z</time>
      </trkpt>
      <trkpt lat="48.35827" lon="7.13695">
        <ele>507.16</ele>
        <time>2021-06-23T11:09:28Z</time>
      </trkpt>
      <trkpt lat="48.35824" lon="7.13705">
        <ele>507.35</ele>
        <time>2021-06-23T11:09:34Z</time>
      </trkpt>
      <trkpt lat="48.35817" lon="7.13754">
        <ele>507.18</ele>
        <time>2021-06-23T11:09:40Z</time>
      </trkpt>
      <trkpt lat="48.35807" lon="7.13951">
        <ele>504.63</ele>
        <time>2021-06-23T11:09:46Z</time>
      </trkpt>
      <trkpt lat="48.35801" lon="7.13996">
        <ele>507.21</ele>
        <time>2021-06-23T11:09:52Z</time>
      </trkpt>
      <trkpt lat="48.35786" lon="7.14048">
        <ele>511.06</ele>
        <time>2021-06-23T11:09:58Z</time>
      </trkpt>
      <trkpt lat="48.35751" lon="7.14147">
        <ele>510.16</ele>
        <time>2021-06-23T11:10:04Z</time>
      </trkpt>
      <trkpt lat="48.35722" lon="7.14238">
        <ele>511.06</ele>
        <time>2021-06-23T11:10:10Z</time>
      </trkpt>
      <trkpt lat="48.35709" lon="7.14291">
        <ele>513.49</ele>
        <time>2021-06-23T11:10:16Z</time>
      </trkpt>
      <trkpt lat="48.35682" lon="7.14413">
        <ele>523.36</ele>
        <time>2021-06-23T11:10:22Z</time>
      </trkpt>
      <trkpt lat="48.35678" lon="7.1445">
        <ele>523.88</ele>
        <time>2021-06-23T11:10:28Z</time>
      </trkpt>
      <trkpt lat="48.35677" lon="7.14502">
        <ele>526.05</ele>
        <time>2021-06-23T11:10:34Z</time>
      </trkpt>
      <trkpt lat="48.35683" lon="7.1456">
        <ele>526.95</ele>
        <time>2021-06-23T11:10:40Z</time>
      </trkpt>
      <trkpt lat="48.35685" lon="7.1461">
        <ele>525.11</ele>
        <time>2021-06-23T11:10:46Z</time>
      </trkpt>
      <trkpt lat="48.35683" lon="7.14698">
        <ele>523.46</ele>
        <time>2021-06-23T11:10:52Z</time>
      </trkpt>
      <trkpt lat="48.35673" lon="7.14791">
        <ele>524.04</ele>
        <time>2021-06-23T11:10:58Z</time>
      </trkpt>
      <trkpt lat="48.35663" lon="7.14857">
        <ele>525.88</ele>
        <time>2021-06-23T11:11:04Z</time>
      </trkpt>
      <trkpt lat="48.35627" lon="7.15052">
        <ele>527.64</ele>
        <time>2021-06-23T11:11:10Z</time>
      </trkpt>
      <trkpt lat="48.35626" lon="7.15082">
        <ele>529.62</ele>
        <time>2021-06-23T11:11:16Z</time>
      </trkpt>
      <trkpt lat="48.35631" lon="7.15146">
        <ele>532.99</ele>
        <time>2021-06-23T11:11:22Z</time>
      </trkpt>
      <trkpt lat="48.35649" lon="7.15235">
        <ele>530.91</ele>
        <time>2021-06-23T11:11:28Z</time>
      </trkpt>
      <trkpt lat="48.35663" lon="7.15273">
        <ele>531.24</ele>
        <time>2021-06-23T11:11:34Z</time>
      </trkpt>
      <trkpt lat="48.35717" lon="7.15401">
        <ele>532.29</ele>
        <time>2021-06-23T11:11:40Z</time>
      </trkpt>
      <trkpt lat="48.35846" lon="7.16012">
        <ele>547.62</ele>
        <time>2021-06-23T11:11:46Z</time>
      </trkpt>
      <trkpt lat="48.35878" lon="7.16103">
        <ele>547.61</ele>
        <time>2021-06-23T11:11:51Z</time>
      </trkpt>
      <trkpt lat="48.35898" lon="7.16169">
        <ele>552.63</ele>
        <time>2021-06-23T11:11:57Z</time>
      </trkpt>
      <trkpt lat="48.35925" lon="7.16363">
        <ele>559.39</ele>
        <time>2021-06-23T11:12:03Z</time>
      </trkpt>
      <trkpt lat="48.35925" lon="7.16363">
        <ele>559.39</ele>
        <time>2021-06-23T11:12:03Z</time>
      </trkpt>
      <trkpt lat="48.35898" lon="7.16169">
        <ele>552.63</ele>
        <time>2021-06-23T11:12:10Z</time>
      </trkpt>
      <trkpt lat="48.35878" lon="7.16103">
        <ele>547.61</ele>
        <time>2021-06-23T11:12:16Z</time>
      </trkpt>
      <trkpt lat="48.35846" lon="7.16012">
        <ele>547.62</ele>
        <time>2021-06-23T11:12:22Z</time>
      </trkpt>
      <trkpt lat="48.35717" lon="7.15401">
        <ele>532.29</ele>
        <time>2021-06-23T11:12:28Z</time>
      </trkpt>
      <trkpt lat="48.35663" lon="7.15273">
        <ele>531.24</ele>
        <time>2021-06-23T11:12:34Z</time>
      </trkpt>
      <trkpt lat="48.35649" lon="7.15235">
        <ele>530.91</ele>
        <time>2021-06-23T11:12:40Z</time>
      </trkpt>
      <trkpt lat="48.35631" lon="7.15146">
        <ele>532.99</ele>
        <time>2021-06-23T11:12:46Z</time>
      </trkpt>
      <trkpt lat="48.35626" lon="7.15082">
        <ele>529.62</ele>
        <time>2021-06-23T11:12:53Z</time>
      </trkpt>
      <trkpt lat="48.35627" lon="7.15052">
        <ele>527.64</ele>
        <time>2021-06-23T11:12:59Z</time>
      </trkpt>
      <trkpt lat="48.35663" lon="7.14857">
        <ele>525.88</ele>
        <time>2021-06-23T11:13:05Z</time>
      </trkpt>
      <trkpt lat="48.35673" lon="7.14791">
        <ele>524.04</ele>
        <time>2021-06-23T11:13:11Z</time>
      </trkpt>
      <trkpt lat="48.35683" lon="7.14698">
        <ele>523.46</ele>
        <time>2021-06-23T11:13:17Z</time>
      </trkpt>
      <trkpt lat="48.35685" lon="7.1461">
        <ele>525.11</ele>
        <time>2021-06-23T11:13:23Z</time>
      </trkpt>
      <trkpt lat="48.35683" lon="7.1456">
        <ele>526.95</ele>
        <time>2021-06-23T11:13:29Z</time>
      </trkpt>
      <trkpt lat="48.35677" lon="7.14502">
        <ele>526.05</ele>
        <time>2021-06-23T11:13:36Z</time>
      </trkpt>
      <trkpt lat="48.35678" lon="7.1445">
        <ele>523.88</ele>
        <time>2021-06-23T11:13:42Z</time>
      </trkpt>
      <trkpt lat="48.35682" lon="7.14413">
        <ele>523.36</ele>
        <time>2021-06-23T11:13:48Z</time>
      </trkpt>
      <trkpt lat="48.35709" lon="7.14291">
        <ele>513.49</ele>
        <time>2021-06-23T11:13:54Z</time>
      </trkpt>
      <trkpt lat="48.35722" lon="7.14238">
        <ele>511.06</ele>
        <time>2021-06-23T11:14:00Z</time>
      </trkpt>
      <trkpt lat="48.35751" lon="7.14147">
        <ele>510.16</ele>
        <time>2021-06-23T11:14:06Z</time>
      </trkpt>
      <trkpt lat="48.35786" lon="7.14048">
        <ele>511.06</ele>
        <time>2021-06-23T11:14:12Z</time>
      </trkpt>
      <trkpt lat="48.35801" lon="7.13996">
        <ele>507.21</ele>
        <time>2021-06-23T11:14:19Z</time>
      </trkpt>
      <trkpt lat="48.35807" lon="7.13951">
        <ele>504.63</ele>
        <time>2021-06-23T11:14:25Z</time>
      </trkpt>
      <trkpt lat="48.35817" lon="7.13754">
        <ele>507.18</ele>
        <time>2021-06-23T11:14:31Z</time>
      </trkpt>
      <trkpt lat="48.35824" lon="7.13705">
        <ele>507.35</ele>
        <time>2021-06-23T11:14:37Z</time>
      </trkpt>
      <trkpt lat="48.35827" lon="7.13695">
        <ele>507.16</ele>
        <time>2021-06-23T11:14:43Z</time>
      </trkpt>
      <trkpt lat="48.35853" lon="7.13629">
        <ele>502.49</ele>
        <time>2021-06-23T11:14:49Z</time>
      </trkpt>
      <trkpt lat="48.35859" lon="7.13612">
        <ele>501.21</ele>
        <time>2021-06-23T11:14:55Z</time>
      </trkpt>
      <trkpt lat="48.35887" lon="7.13502">
        <ele>496.05</ele>
        <time>2021-06-23T11:15:02Z</time>
      </trkpt>
      <trkpt lat="48.35887" lon="7.13502">
        <ele>496.05</ele>
        <time>2021-06-23T11:15:02Z</time>
      </trkpt>
      <trkpt lat="48.35889" lon="7.13499">
        <ele>496.03</ele>
        <time>2021-06-23T11:15:02Z</time>
      </trkpt>
      <trkpt lat="48.36091" lon="7.13609">
        <ele>494.73</ele>
        <time>2021-06-23T11:15:05Z</time>
      </trkpt>
      <trkpt lat="48.36096" lon="7.13616">
        <ele>494.46</ele>
        <time>2021-06-23T11:15:08Z</time>
      </trkpt>
      <trkpt lat="48.36107" lon="7.13626">
        <ele>493.71</ele>
        <time>2021-06-23T11:15:11Z</time>
      </trkpt>
      <trkpt lat="48.36126" lon="7.13633">
        <ele>493.1</ele>
        <time>2021-06-23T11:15:13Z</time>
      </trkpt>
      <trkpt lat="48.36135" lon="7.13633">
        <ele>493.03</ele>
        <time>2021-06-23T11:15:16Z</time>
      </trkpt>
      <trkpt lat="48.36146" lon="7.13637">
        <ele>493</ele>
        <time>2021-06-23T11:15:19Z</time>
      </trkpt>
      <trkpt lat="48.36247" lon="7.13691">
        <ele>491.87</ele>
        <time>2021-06-23T11:15:22Z</time>
      </trkpt>
      <trkpt lat="48.36273" lon="7.137">
        <ele>492.91</ele>
        <time>2021-06-23T11:15:25Z</time>
      </trkpt>
      <trkpt lat="48.3629" lon="7.13702">
        <ele>494.26</ele>
        <time>2021-06-23T11:15:27Z</time>
      </trkpt>
      <trkpt lat="48.36319" lon="7.13701">
        <ele>495.05</ele>
        <time>2021-06-23T11:15:30Z</time>
      </trkpt>
      <trkpt lat="48.36352" lon="7.13693">
        <ele>493.21</ele>
        <time>2021-06-23T11:15:33Z</time>
      </trkpt>
      <trkpt lat="48.36401" lon="7.13676">
        <ele>489.58</ele>
        <time>2021-06-23T11:15:36Z</time>
      </trkpt>
      <trkpt lat="48.36423" lon="7.13671">
        <ele>489.68</ele>
        <time>2021-06-23T11:15:38Z</time>
      </trkpt>
      <trkpt lat="48.36445" lon="7.13672">
        <ele>490.79</ele>
        <time>2021-06-23T11:15:41Z</time>
      </trkpt>
      <trkpt lat="48.36475" lon="7.13683">
        <ele>495.27</ele>
        <time>2021-06-23T11:15:44Z</time>
      </trkpt>
      <trkpt lat="48.36497" lon="7.13698">
        <ele>496.54</ele>
        <time>2021-06-23T11:15:47Z</time>
      </trkpt>
      <trkpt lat="48.36607" lon="7.13782">
        <ele>491.14</ele>
        <time>2021-06-23T11:15:50Z</time>
      </trkpt>
      <trkpt lat="48.36641" lon="7.13805">
        <ele>490.5</ele>
        <time>2021-06-23T11:15:52Z</time>
      </trkpt>
      <trkpt lat="48.36684" lon="7.13825">
        <ele>487.79</ele>
        <time>2021-06-23T11:15:55Z</time>
      </trkpt>
      <trkpt lat="48.3673" lon="7.1384">
        <ele>490.08</ele>
        <time>2021-06-23T11:15:58Z</time>
      </trkpt>
      <trkpt lat="48.36976" lon="7.13906">
        <ele>487.92</ele>
        <time>2021-06-23T11:16:01Z</time>
      </trkpt>
      <trkpt lat="48.3703" lon="7.13916">
        <ele>486.63</ele>
        <time>2021-06-23T11:16:04Z</time>
      </trkpt>
      <trkpt lat="48.37059" lon="7.13916">
        <ele>483.79</ele>
        <time>2021-06-23T11:16:06Z</time>
      </trkpt>
      <trkpt lat="48.37084" lon="7.13911">
        <ele>482.42</ele>
        <time>2021-06-23T11:16:09Z</time>
      </trkpt>
      <trkpt lat="48.37114" lon="7.13899">
        <ele>483.12</ele>
        <time>2021-06-23T11:16:12Z</time>
      </trkpt>
      <trkpt lat="48.37154" lon="7.13879">
        <ele>483.94</ele>
        <time>2021-06-23T11:16:15Z</time>
      </trkpt>
      <trkpt lat="48.37173" lon="7.13873">
        <ele>484.41</ele>
        <time>2021-06-23T11:16:18Z</time>
      </trkpt>
      <trkpt lat="48.37193" lon="7.13871">
        <ele>485.27</ele>
        <time>2021-06-23T11:16:20Z</time>
      </trkpt>
      <trkpt lat="48.37217" lon="7.13873">
        <ele>485.32</ele>
        <time>2021-06-23T11:16:23Z</time>
      </trkpt>
      <trkpt lat="48.37259" lon="7.13885">
        <ele>486.14</ele>
        <time>2021-06-23T11:16:26Z</time>
      </trkpt>
      <trkpt lat="48.37283" lon="7.13897">
        <ele>487.66</ele>
        <time>2021-06-23T11:16:29Z</time>
      </trkpt>
      <trkpt lat="48.37311" lon="7.13918">
        <ele>487.66</ele>
        <time>2021-06-23T11:16:31Z</time>
      </trkpt>
      <trkpt lat="48.37345" lon="7.13951">
        <ele>483.8</ele>
        <time>2021-06-23T11:16:34Z</time>
      </trkpt>
      <trkpt lat="48.3739" lon="7.14017">
        <ele>481.61</ele>
        <time>2021-06-23T11:16:37Z</time>
      </trkpt>
      <trkpt lat="48.37444" lon="7.14127">
        <ele>481.57</ele>
        <time>2021-06-23T11:16:40Z</time>
      </trkpt>
      <trkpt lat="48.37459" lon="7.14151">
        <ele>482.1</ele>
        <time>2021-06-23T11:16:43Z</time>
      </trkpt>
      <trkpt lat="48.37473" lon="7.14169">
        <ele>482.6</ele>
        <time>2021-06-23T11:16:45Z</time>
      </trkpt>
      <trkpt lat="48.37492" lon="7.14189">
        <ele>488.38</ele>
        <time>2021-06-23T11:16:48Z</time>
      </trkpt>
      <trkpt lat="48.37505" lon="7.14198">
        <ele>490.88</ele>
        <time>2021-06-23T11:16:51Z</time>
      </trkpt>
      <trkpt lat="48.37528" lon="7.1421">
        <ele>493.52</ele>
        <time>2021-06-23T11:16:54Z</time>
      </trkpt>
      <trkpt lat="48.37706" lon="7.14286">
        <ele>492.05</ele>
        <time>2021-06-23T11:16:57Z</time>
      </trkpt>
      <trkpt lat="48.37734" lon="7.14292">
        <ele>493.58</ele>
        <time>2021-06-23T11:16:59Z</time>
      </trkpt>
      <trkpt lat="48.37751" lon="7.14293">
        <ele>493.07</ele>
        <time>2021-06-23T11:17:02Z</time>
      </trkpt>
      <trkpt lat="48.37768" lon="7.1429">
        <ele>494.82</ele>
        <time>2021-06-23T11:17:05Z</time>
      </trkpt>
      <trkpt lat="48.37796" lon="7.14279">
        <ele>491.97</ele>
        <time>2021-06-23T11:17:08Z</time>
      </trkpt>
      <trkpt lat="48.37822" lon="7.14264">
        <ele>491.6</ele>
        <time>2021-06-23T11:17:10Z</time>
      </trkpt>
      <trkpt lat="48.37836" lon="7.14252">
        <ele>490.45</ele>
        <time>2021-06-23T11:17:13Z</time>
      </trkpt>
      <trkpt lat="48.37856" lon="7.1423">
        <ele>489.89</ele>
        <time>2021-06-23T11:17:16Z</time>
      </trkpt>
      <trkpt lat="48.37877" lon="7.14194">
        <ele>488.45</ele>
        <time>2021-06-23T11:17:19Z</time>
      </trkpt>
      <trkpt lat="48.37907" lon="7.14133">
        <ele>485.48</ele>
        <time>2021-06-23T11:17:22Z</time>
      </trkpt>
      <trkpt lat="48.37927" lon="7.14103">
        <ele>484.91</ele>
        <time>2021-06-23T11:17:24Z</time>
      </trkpt>
      <trkpt lat="48.37946" lon="7.14086">
        <ele>484.5</ele>
        <time>2021-06-23T11:17:27Z</time>
      </trkpt>
      <trkpt lat="48.37968" lon="7.14072">
        <ele>484.24</ele>
        <time>2021-06-23T11:17:30Z</time>
      </trkpt>
      <trkpt lat="48.37991" lon="7.14066">
        <ele>484.73</ele>
        <time>2021-06-23T11:17:33Z</time>
      </trkpt>
      <trkpt lat="48.38007" lon="7.14065">
        <ele>485.18</ele>
        <time>2021-06-23T11:17:36Z</time>
      </trkpt>
      <trkpt lat="48.38087" lon="7.14075">
        <ele>484.47</ele>
        <time>2021-06-23T11:17:38Z</time>
      </trkpt>
      <trkpt lat="48.38119" lon="7.14084">
        <ele>482.88</ele>
        <time>2021-06-23T11:17:41Z</time>
      </trkpt>
      <trkpt lat="48.38153" lon="7.14101">
        <ele>481.21</ele>
        <time>2021-06-23T11:17:44Z</time>
      </trkpt>
      <trkpt lat="48.38168" lon="7.14113">
        <ele>480.31</ele>
        <time>2021-06-23T11:17:47Z</time>
      </trkpt>
      <trkpt lat="48.38209" lon="7.14152">
        <ele>480.9</ele>
        <time>2021-06-23T11:17:50Z</time>
      </trkpt>
      <trkpt lat="48.38338" lon="7.14308">
        <ele>477.38</ele>
        <time>2021-06-23T11:17:52Z</time>
      </trkpt>
      <trkpt lat="48.38401" lon="7.14377">
        <ele>478.11</ele>
        <time>2021-06-23T11:17:55Z</time>
      </trkpt>
      <trkpt lat="48.38416" lon="7.14392">
        <ele>479.82</ele>
        <time>2021-06-23T11:17:58Z</time>
      </trkpt>
      <trkpt lat="48.38442" lon="7.14411">
        <ele>481.03</ele>
        <time>2021-06-23T11:18:01Z</time>
      </trkpt>
      <trkpt lat="48.38468" lon="7.14424">
        <ele>480.98</ele>
        <time>2021-06-23T11:18:03Z</time>
      </trkpt>
      <trkpt lat="48.38505" lon="7.14437">
        <ele>480.67</ele>
        <time>2021-06-23T11:18:06Z</time>
      </trkpt>
      <trkpt lat="48.38533" lon="7.14439">
        <ele>477.17</ele>
        <time>2021-06-23T11:18:09Z</time>
      </trkpt>
      <trkpt lat="48.3857" lon="7.14437">
        <ele>474.98</ele>
        <time>2021-06-23T11:18:12Z</time>
      </trkpt>
      <trkpt lat="48.38602" lon="7.1443">
        <ele>474.2</ele>
        <time>2021-06-23T11:18:15Z</time>
      </trkpt>
      <trkpt lat="48.38732" lon="7.1439">
        <ele>461.2</ele>
        <time>2021-06-23T11:18:17Z</time>
      </trkpt>
      <trkpt lat="48.38761" lon="7.14384">
        <ele>459.54</ele>
        <time>2021-06-23T11:18:20Z</time>
      </trkpt>
      <trkpt lat="48.38786" lon="7.14386">
        <ele>457.33</ele>
        <time>2021-06-23T11:18:23Z</time>
      </trkpt>
      <trkpt lat="48.38818" lon="7.144">
        <ele>455.42</ele>
        <time>2021-06-23T11:18:26Z</time>
      </trkpt>
      <trkpt lat="48.38844" lon="7.14419">
        <ele>452.28</ele>
        <time>2021-06-23T11:18:29Z</time>
      </trkpt>
      <trkpt lat="48.38862" lon="7.1444">
        <ele>449.8</ele>
        <time>2021-06-23T11:18:31Z</time>
      </trkpt>
      <trkpt lat="48.38871" lon="7.14455">
        <ele>449.55</ele>
        <time>2021-06-23T11:18:34Z</time>
      </trkpt>
      <trkpt lat="48.38942" lon="7.14601">
        <ele>452.08</ele>
        <time>2021-06-23T11:18:37Z</time>
      </trkpt>
      <trkpt lat="48.38999" lon="7.14739">
        <ele>455.01</ele>
        <time>2021-06-23T11:18:40Z</time>
      </trkpt>
      <trkpt lat="48.39054" lon="7.14858">
        <ele>460.9</ele>
        <time>2021-06-23T11:18:42Z</time>
      </trkpt>
      <trkpt lat="48.39155" lon="7.15085">
        <ele>455.01</ele>
        <time>2021-06-23T11:18:45Z</time>
      </trkpt>
      <trkpt lat="48.3917" lon="7.15112">
        <ele>455.69</ele>
        <time>2021-06-23T11:18:48Z</time>
      </trkpt>
      <trkpt lat="48.39187" lon="7.15138">
        <ele>456.93</ele>
        <time>2021-06-23T11:18:51Z</time>
      </trkpt>
      <trkpt lat="48.39243" lon="7.15199">
        <ele>458</ele>
        <time>2021-06-23T11:18:54Z</time>
      </trkpt>
      <trkpt lat="48.39287" lon="7.15262">
        <ele>454.04</ele>
        <time>2021-06-23T11:18:56Z</time>
      </trkpt>
      <trkpt lat="48.39316" lon="7.15289">
        <ele>454.13</ele>
        <time>2021-06-23T11:18:59Z</time>
      </trkpt>
      <trkpt lat="48.39336" lon="7.15302">
        <ele>453.75</ele>
        <time>2021-06-23T11:19:02Z</time>
      </trkpt>
      <trkpt lat="48.39359" lon="7.15312">
        <ele>451.3</ele>
        <time>2021-06-23T11:19:05Z</time>
      </trkpt>
      <trkpt lat="48.39382" lon="7.15318">
        <ele>449.86</ele>
        <time>2021-06-23T11:19:08Z</time>
      </trkpt>
      <trkpt lat="48.39402" lon="7.15319">
        <ele>449.11</ele>
        <time>2021-06-23T11:19:10Z</time>
      </trkpt>
      <trkpt lat="48.39429" lon="7.15313">
        <ele>447.49</ele>
        <time>2021-06-23T11:19:13Z</time>
      </trkpt>
      <trkpt lat="48.39476" lon="7.15293">
        <ele>446.37</ele>
        <time>2021-06-23T11:19:16Z</time>
      </trkpt>
      <trkpt lat="48.39535" lon="7.15258">
        <ele>447.02</ele>
        <time>2021-06-23T11:19:19Z</time>
      </trkpt>
      <trkpt lat="48.39561" lon="7.15249">
        <ele>444.39</ele>
        <time>2021-06-23T11:19:22Z</time>
      </trkpt>
      <trkpt lat="48.39589" lon="7.15247">
        <ele>442.73</ele>
        <time>2021-06-23T11:19:24Z</time>
      </trkpt>
      <trkpt lat="48.39628" lon="7.15256">
        <ele>442.86</ele>
        <time>2021-06-23T11:19:27Z</time>
      </trkpt>
      <trkpt lat="48.3966" lon="7.15271">
        <ele>443.45</ele>
        <time>2021-06-23T11:19:30Z</time>
      </trkpt>
      <trkpt lat="48.39687" lon="7.1529">
        <ele>444.39</ele>
        <time>2021-06-23T11:19:33Z</time>
      </trkpt>
      <trkpt lat="48.39712" lon="7.15314">
        <ele>441.37</ele>
        <time>2021-06-23T11:19:35Z</time>
      </trkpt>
      <trkpt lat="48.39747" lon="7.15358">
        <ele>439.14</ele>
        <time>2021-06-23T11:19:38Z</time>
      </trkpt>
      <trkpt lat="48.39765" lon="7.15376">
        <ele>441.18</ele>
        <time>2021-06-23T11:19:41Z</time>
      </trkpt>
      <trkpt lat="48.39868" lon="7.15458">
        <ele>438.26</ele>
        <time>2021-06-23T11:19:44Z</time>
      </trkpt>
      <trkpt lat="48.39904" lon="7.1548">
        <ele>434.65</ele>
        <time>2021-06-23T11:19:47Z</time>
      </trkpt>
      <trkpt lat="48.3993" lon="7.15492">
        <ele>435.48</ele>
        <time>2021-06-23T11:19:49Z</time>
      </trkpt>
      <trkpt lat="48.39975" lon="7.15506">
        <ele>434.59</ele>
        <time>2021-06-23T11:19:52Z</time>
      </trkpt>
      <trkpt lat="48.40306" lon="7.15548">
        <ele>428.43</ele>
        <time>2021-06-23T11:19:55Z</time>
      </trkpt>
      <trkpt lat="48.40334" lon="7.15554">
        <ele>426.9</ele>
        <time>2021-06-23T11:19:58Z</time>
      </trkpt>
      <trkpt lat="48.40363" lon="7.15568">
        <ele>427.8</ele>
        <time>2021-06-23T11:20:01Z</time>
      </trkpt>
      <trkpt lat="48.40382" lon="7.15583">
        <ele>429.91</ele>
        <time>2021-06-23T11:20:03Z</time>
      </trkpt>
      <trkpt lat="48.40405" lon="7.15608">
        <ele>430.83</ele>
        <time>2021-06-23T11:20:06Z</time>
      </trkpt>
      <trkpt lat="48.40421" lon="7.15631">
        <ele>430.8</ele>
        <time>2021-06-23T11:20:09Z</time>
      </trkpt>
      <trkpt lat="48.40438" lon="7.1567">
        <ele>428.9</ele>
        <time>2021-06-23T11:20:12Z</time>
      </trkpt>
      <trkpt lat="48.40441" lon="7.15682">
        <ele>428.38</ele>
        <time>2021-06-23T11:20:15Z</time>
      </trkpt>
      <trkpt lat="48.40441" lon="7.15682">
        <ele>428.38</ele>
        <time>2021-06-23T11:20:15Z</time>
      </trkpt>
      <trkpt lat="48.40447" lon="7.15704">
        <ele>427.85</ele>
        <time>2021-06-23T11:20:18Z</time>
      </trkpt>
      <trkpt lat="48.40449" lon="7.15737">
        <ele>427.48</ele>
        <time>2021-06-23T11:20:21Z</time>
      </trkpt>
      <trkpt lat="48.40446" lon="7.15775">
        <ele>426.07</ele>
        <time>2021-06-23T11:20:24Z</time>
      </trkpt>
      <trkpt lat="48.4044" lon="7.15804">
        <ele>425.88</ele>
        <time>2021-06-23T11:20:27Z</time>
      </trkpt>
      <trkpt lat="48.4039" lon="7.15966">
        <ele>427.24</ele>
        <time>2021-06-23T11:20:30Z</time>
      </trkpt>
      <trkpt lat="48.40354" lon="7.16028">
        <ele>426.54</ele>
        <time>2021-06-23T11:20:33Z</time>
      </trkpt>
      <trkpt lat="48.4035" lon="7.16053">
        <ele>425.89</ele>
        <time>2021-06-23T11:20:36Z</time>
      </trkpt>
      <trkpt lat="48.40352" lon="7.16069">
        <ele>425.48</ele>
        <time>2021-06-23T11:20:39Z</time>
      </trkpt>
      <trkpt lat="48.40361" lon="7.16088">
        <ele>425.01</ele>
        <time>2021-06-23T11:20:42Z</time>
      </trkpt>
      <trkpt lat="48.40407" lon="7.16146">
        <ele>424</ele>
        <time>2021-06-23T11:20:45Z</time>
      </trkpt>
      <trkpt lat="48.40375" lon="7.1617">
        <ele>424.55</ele>
        <time>2021-06-23T11:20:49Z</time>
      </trkpt>
      <trkpt lat="48.40356" lon="7.16189">
        <ele>425</ele>
        <time>2021-06-23T11:20:53Z</time>
      </trkpt>
      <trkpt lat="48.40334" lon="7.1623">
        <ele>426.23</ele>
        <time>2021-06-23T11:20:57Z</time>
      </trkpt>
      <trkpt lat="48.40327" lon="7.16241">
        <ele>427.06</ele>
        <time>2021-06-23T11:21:01Z</time>
      </trkpt>
      <trkpt lat="48.40312" lon="7.16254">
        <ele>428.96</ele>
        <time>2021-06-23T11:21:05Z</time>
      </trkpt>
      <trkpt lat="48.40284" lon="7.16271">
        <ele>430.66</ele>
        <time>2021-06-23T11:21:08Z</time>
      </trkpt>
      <trkpt lat="48.40274" lon="7.1628">
        <ele>431.05</ele>
        <time>2021-06-23T11:21:12Z</time>
      </trkpt>
      <trkpt lat="48.40219" lon="7.16358">
        <ele>434.36</ele>
        <time>2021-06-23T11:21:16Z</time>
      </trkpt>
      <trkpt lat="48.40198" lon="7.16382">
        <ele>435.59</ele>
        <time>2021-06-23T11:21:20Z</time>
      </trkpt>
      <trkpt lat="48.40172" lon="7.16401">
        <ele>438.49</ele>
        <time>2021-06-23T11:21:24Z</time>
      </trkpt>
      <trkpt lat="48.40144" lon="7.16414">
        <ele>439.08</ele>
        <time>2021-06-23T11:21:28Z</time>
      </trkpt>
      <trkpt lat="48.40052" lon="7.1645">
        <ele>443.71</ele>
        <time>2021-06-23T11:21:32Z</time>
      </trkpt>
      <trkpt lat="48.40028" lon="7.16455">
        <ele>442.14</ele>
        <time>2021-06-23T11:21:36Z</time>
      </trkpt>
      <trkpt lat="48.3998" lon="7.16458">
        <ele>442.79</ele>
        <time>2021-06-23T11:21:40Z</time>
      </trkpt>
      <trkpt lat="48.39955" lon="7.16464">
        <ele>444.71</ele>
        <time>2021-06-23T11:21:44Z</time>
      </trkpt>
      <trkpt lat="48.39811" lon="7.1656">
        <ele>450.34</ele>
        <time>2021-06-23T11:21:48Z</time>
      </trkpt>
      <trkpt lat="48.39645" lon="7.1666">
        <ele>454.77</ele>
        <time>2021-06-23T11:21:51Z</time>
      </trkpt>
      <trkpt lat="48.39592" lon="7.16703">
        <ele>456.17</ele>
        <time>2021-06-23T11:21:55Z</time>
      </trkpt>
      <trkpt lat="48.39545" lon="7.16759">
        <ele>458.25</ele>
        <time>2021-06-23T11:21:59Z</time>
      </trkpt>
      <trkpt lat="48.39504" lon="7.16822">
        <ele>457.28</ele>
        <time>2021-06-23T11:22:03Z</time>
      </trkpt>
      <trkpt lat="48.39321" lon="7.17207">
        <ele>463.97</ele>
        <time>2021-06-23T11:22:07Z</time>
      </trkpt>
      <trkpt lat="48.39281" lon="7.17262">
        <ele>462.92</ele>
        <time>2021-06-23T11:22:11Z</time>
      </trkpt>
      <trkpt lat="48.39256" lon="7.17312">
        <ele>461.95</ele>
        <time>2021-06-23T11:22:15Z</time>
      </trkpt>
      <trkpt lat="48.39239" lon="7.17359">
        <ele>461.88</ele>
        <time>2021-06-23T11:22:19Z</time>
      </trkpt>
      <trkpt lat="48.39209" lon="7.17466">
        <ele>463.5</ele>
        <time>2021-06-23T11:22:23Z</time>
      </trkpt>
      <trkpt lat="48.39109" lon="7.17732">
        <ele>458.83</ele>
        <time>2021-06-23T11:22:27Z</time>
      </trkpt>
      <trkpt lat="48.39102" lon="7.17747">
        <ele>459.39</ele>
        <time>2021-06-23T11:22:31Z</time>
      </trkpt>
      <trkpt lat="48.39095" lon="7.17775">
        <ele>459.9</ele>
        <time>2021-06-23T11:22:34Z</time>
      </trkpt>
      <trkpt lat="48.39079" lon="7.17803">
        <ele>458.62</ele>
        <time>2021-06-23T11:22:38Z</time>
      </trkpt>
      <trkpt lat="48.39071" lon="7.17826">
        <ele>459.19</ele>
        <time>2021-06-23T11:22:42Z</time>
      </trkpt>
      <trkpt lat="48.39025" lon="7.17929">
        <ele>461.33</ele>
        <time>2021-06-23T11:22:46Z</time>
      </trkpt>
      <trkpt lat="48.38965" lon="7.18077">
        <ele>462.49</ele>
        <time>2021-06-23T11:22:50Z</time>
      </trkpt>
      <trkpt lat="48.38828" lon="7.18197">
        <ele>463.65</ele>
        <time>2021-06-23T11:22:54Z</time>
      </trkpt>
      <trkpt lat="48.38736" lon="7.18276">
        <ele>466.83</ele>
        <time>2021-06-23T11:22:58Z</time>
      </trkpt>
      <trkpt lat="48.38684" lon="7.183">
        <ele>468.29</ele>
        <time>2021-06-23T11:23:02Z</time>
      </trkpt>
      <trkpt lat="48.38635" lon="7.18344">
        <ele>470.9</ele>
        <time>2021-06-23T11:23:06Z</time>
      </trkpt>
      <trkpt lat="48.38618" lon="7.18366">
        <ele>470.17</ele>
        <time>2021-06-23T11:23:10Z</time>
      </trkpt>
      <trkpt lat="48.38598" lon="7.18407">
        <ele>472.25</ele>
        <time>2021-06-23T11:23:14Z</time>
      </trkpt>
      <trkpt lat="48.38594" lon="7.18421">
        <ele>473.52</ele>
        <time>2021-06-23T11:23:17Z</time>
      </trkpt>
      <trkpt lat="48.38587" lon="7.18462">
        <ele>479.19</ele>
        <time>2021-06-23T11:23:21Z</time>
      </trkpt>
      <trkpt lat="48.38569" lon="7.18505">
        <ele>482.55</ele>
        <time>2021-06-23T11:23:25Z</time>
      </trkpt>
      <trkpt lat="48.38546" lon="7.18555">
        <ele>483.41</ele>
        <time>2021-06-23T11:23:29Z</time>
      </trkpt>
      <trkpt lat="48.38493" lon="7.18629">
        <ele>483.9</ele>
        <time>2021-06-23T11:23:33Z</time>
      </trkpt>
      <trkpt lat="48.38465" lon="7.18671">
        <ele>481.82</ele>
        <time>2021-06-23T11:23:37Z</time>
      </trkpt>
      <trkpt lat="48.38445" lon="7.18716">
        <ele>481.45</ele>
        <time>2021-06-23T11:23:41Z</time>
      </trkpt>
      <trkpt lat="48.384" lon="7.18833">
        <ele>487.09</ele>
        <time>2021-06-23T11:23:45Z</time>
      </trkpt>
      <trkpt lat="48.38384" lon="7.18863">
        <ele>488.11</ele>
        <time>2021-06-23T11:23:49Z</time>
      </trkpt>
      <trkpt lat="48.38369" lon="7.18884">
        <ele>488.19</ele>
        <time>2021-06-23T11:23:53Z</time>
      </trkpt>
      <trkpt lat="48.38306" lon="7.18951">
        <ele>490.41</ele>
        <time>2021-06-23T11:23:56Z</time>
      </trkpt>
      <trkpt lat="48.38253" lon="7.19001">
        <ele>501.04</ele>
        <time>2021-06-23T11:24:00Z</time>
      </trkpt>
      <trkpt lat="48.38198" lon="7.19045">
        <ele>497.67</ele>
        <time>2021-06-23T11:24:04Z</time>
      </trkpt>
      <trkpt lat="48.38177" lon="7.19058">
        <ele>498.14</ele>
        <time>2021-06-23T11:24:08Z</time>
      </trkpt>
      <trkpt lat="48.38146" lon="7.19084">
        <ele>497.67</ele>
        <time>2021-06-23T11:24:12Z</time>
      </trkpt>
      <trkpt lat="48.38119" lon="7.19125">
        <ele>501.03</ele>
        <time>2021-06-23T11:24:16Z</time>
      </trkpt>
      <trkpt lat="48.38093" lon="7.19157">
        <ele>502.42</ele>
        <time>2021-06-23T11:24:20Z</time>
      </trkpt>
      <trkpt lat="48.38059" lon="7.19181">
        <ele>500.26</ele>
        <time>2021-06-23T11:24:24Z</time>
      </trkpt>
      <trkpt lat="48.38016" lon="7.19205">
        <ele>495.98</ele>
        <time>2021-06-23T11:24:28Z</time>
      </trkpt>
      <trkpt lat="48.38" lon="7.19222">
        <ele>494.99</ele>
        <time>2021-06-23T11:24:32Z</time>
      </trkpt>
      <trkpt lat="48.37943" lon="7.19312">
        <ele>498.14</ele>
        <time>2021-06-23T11:24:36Z</time>
      </trkpt>
      <trkpt lat="48.37848" lon="7.19429">
        <ele>503.7</ele>
        <time>2021-06-23T11:24:39Z</time>
      </trkpt>
      <trkpt lat="48.37811" lon="7.19481">
        <ele>504.92</ele>
        <time>2021-06-23T11:24:43Z</time>
      </trkpt>
      <trkpt lat="48.37745" lon="7.19601">
        <ele>504.08</ele>
        <time>2021-06-23T11:24:47Z</time>
      </trkpt>
      <trkpt lat="48.37706" lon="7.19651">
        <ele>506.02</ele>
        <time>2021-06-23T11:24:51Z</time>
      </trkpt>
      <trkpt lat="48.37681" lon="7.1967">
        <ele>506.33</ele>
        <time>2021-06-23T11:24:55Z</time>
      </trkpt>
      <trkpt lat="48.37667" lon="7.19676">
        <ele>506.95</ele>
        <time>2021-06-23T11:24:59Z</time>
      </trkpt>
      <trkpt lat="48.37567" lon="7.19698">
        <ele>507.61</ele>
        <time>2021-06-23T11:25:03Z</time>
      </trkpt>
      <trkpt lat="48.37519" lon="7.19719">
        <ele>507.62</ele>
        <time>2021-06-23T11:25:07Z</time>
      </trkpt>
      <trkpt lat="48.37497" lon="7.19733">
        <ele>507.1</ele>
        <time>2021-06-23T11:25:11Z</time>
      </trkpt>
      <trkpt lat="48.37456" lon="7.19775">
        <ele>508</ele>
        <time>2021-06-23T11:25:15Z</time>
      </trkpt>
      <trkpt lat="48.37415" lon="7.1981">
        <ele>510.23</ele>
        <time>2021-06-23T11:25:19Z</time>
      </trkpt>
      <trkpt lat="48.37392" lon="7.19826">
        <ele>510.97</ele>
        <time>2021-06-23T11:25:22Z</time>
      </trkpt>
      <trkpt lat="48.37374" lon="7.19831">
        <ele>511.04</ele>
        <time>2021-06-23T11:25:26Z</time>
      </trkpt>
      <trkpt lat="48.37353" lon="7.19822">
        <ele>511.42</ele>
        <time>2021-06-23T11:25:30Z</time>
      </trkpt>
      <trkpt lat="48.37322" lon="7.19791">
        <ele>512.21</ele>
        <time>2021-06-23T11:25:34Z</time>
      </trkpt>
      <trkpt lat="48.37313" lon="7.19786">
        <ele>512.5</ele>
        <time>2021-06-23T11:25:38Z</time>
      </trkpt>
      <trkpt lat="48.37301" lon="7.19785">
        <ele>513.31</ele>
        <time>2021-06-23T11:25:42Z</time>
      </trkpt>
      <trkpt lat="48.37291" lon="7.19788">
        <ele>514.4</ele>
        <time>2021-06-23T11:25:46Z</time>
      </trkpt>
      <trkpt lat="48.37278" lon="7.19799">
        <ele>515.94</ele>
        <time>2021-06-23T11:25:50Z</time>
      </trkpt>
      <trkpt lat="48.37255" lon="7.19856">
        <ele>515.66</ele>
        <time>2021-06-23T11:25:54Z</time>
      </trkpt>
      <trkpt lat="48.37235" lon="7.19886">
        <ele>516.28</ele>
        <time>2021-06-23T11:25:58Z</time>
      </trkpt>
      <trkpt lat="48.37217" lon="7.19906">
        <ele>517.22</ele>
        <time>2021-06-23T11:26:02Z</time>
      </trkpt>
      <trkpt lat="48.37173" lon="7.19936">
        <ele>519.38</ele>
        <time>2021-06-23T11:26:05Z</time>
      </trkpt>
      <trkpt lat="48.37149" lon="7.19959">
        <ele>519.58</ele>
        <time>2021-06-23T11:26:09Z</time>
      </trkpt>
      <trkpt lat="48.3712" lon="7.19982">
        <ele>519.88</ele>
        <time>2021-06-23T11:26:13Z</time>
      </trkpt>
      <trkpt lat="48.37097" lon="7.1999">
        <ele>521.95</ele>
        <time>2021-06-23T11:26:17Z</time>
      </trkpt>
      <trkpt lat="48.37062" lon="7.19984">
        <ele>526.62</ele>
        <time>2021-06-23T11:26:21Z</time>
      </trkpt>
      <trkpt lat="48.37048" lon="7.19977">
        <ele>528.76</ele>
        <time>2021-06-23T11:26:25Z</time>
      </trkpt>
      <trkpt lat="48.37038" lon="7.19969">
        <ele>529.91</ele>
        <time>2021-06-23T11:26:29Z</time>
      </trkpt>
      <trkpt lat="48.37032" lon="7.19961">
        <ele>530.69</ele>
        <time>2021-06-23T11:26:33Z</time>
      </trkpt>
      <trkpt lat="48.37011" lon="7.1993">
        <ele>530.77</ele>
        <time>2021-06-23T11:26:37Z</time>
      </trkpt>
      <trkpt lat="48.36975" lon="7.19865">
        <ele>530.26</ele>
        <time>2021-06-23T11:26:41Z</time>
      </trkpt>
      <trkpt lat="48.36943" lon="7.19815">
        <ele>529.94</ele>
        <time>2021-06-23T11:26:44Z</time>
      </trkpt>
      <trkpt lat="48.36896" lon="7.19761">
        <ele>530.45</ele>
        <time>2021-06-23T11:26:48Z</time>
      </trkpt>
      <trkpt lat="48.36854" lon="7.19722">
        <ele>532.83</ele>
        <time>2021-06-23T11:26:52Z</time>
      </trkpt>
      <trkpt lat="48.36841" lon="7.19712">
        <ele>535.73</ele>
        <time>2021-06-23T11:26:56Z</time>
      </trkpt>
      <trkpt lat="48.36801" lon="7.19697">
        <ele>541.49</ele>
        <time>2021-06-23T11:27:00Z</time>
      </trkpt>
      <trkpt lat="48.3673" lon="7.19673">
        <ele>541.15</ele>
        <time>2021-06-23T11:27:04Z</time>
      </trkpt>
      <trkpt lat="48.36693" lon="7.19668">
        <ele>542.37</ele>
        <time>2021-06-23T11:27:08Z</time>
      </trkpt>
      <trkpt lat="48.36652" lon="7.1968">
        <ele>544.33</ele>
        <time>2021-06-23T11:27:12Z</time>
      </trkpt>
      <trkpt lat="48.36632" lon="7.19693">
        <ele>544.46</ele>
        <time>2021-06-23T11:27:16Z</time>
      </trkpt>
      <trkpt lat="48.36589" lon="7.19733">
        <ele>544.34</ele>
        <time>2021-06-23T11:27:20Z</time>
      </trkpt>
      <trkpt lat="48.36569" lon="7.19758">
        <ele>544.96</ele>
        <time>2021-06-23T11:27:24Z</time>
      </trkpt>
      <trkpt lat="48.36539" lon="7.19809">
        <ele>545.05</ele>
        <time>2021-06-23T11:27:27Z</time>
      </trkpt>
      <trkpt lat="48.36478" lon="7.19932">
        <ele>536.31</ele>
        <time>2021-06-23T11:27:31Z</time>
      </trkpt>
      <trkpt lat="48.36471" lon="7.19943">
        <ele>535.84</ele>
        <time>2021-06-23T11:27:35Z</time>
      </trkpt>
      <trkpt lat="48.36463" lon="7.19948">
        <ele>535.06</ele>
        <time>2021-06-23T11:27:39Z</time>
      </trkpt>
      <trkpt lat="48.36463" lon="7.19948">
        <ele>535.06</ele>
        <time>2021-06-23T11:27:39Z</time>
      </trkpt>
      <trkpt lat="48.36453" lon="7.19954">
        <ele>534.29</ele>
        <time>2021-06-23T11:27:40Z</time>
      </trkpt>
      <trkpt lat="48.36446" lon="7.19955">
        <ele>533.51</ele>
        <time>2021-06-23T11:27:42Z</time>
      </trkpt>
      <trkpt lat="48.36441" lon="7.19962">
        <ele>533.71</ele>
        <time>2021-06-23T11:27:44Z</time>
      </trkpt>
      <trkpt lat="48.36439" lon="7.19975">
        <ele>534.33</ele>
        <time>2021-06-23T11:27:46Z</time>
      </trkpt>
      <trkpt lat="48.36443" lon="7.19984">
        <ele>534.85</ele>
        <time>2021-06-23T11:27:48Z</time>
      </trkpt>
      <trkpt lat="48.36451" lon="7.20008">
        <ele>537.48</ele>
        <time>2021-06-23T11:27:50Z</time>
      </trkpt>
      <trkpt lat="48.36455" lon="7.20028">
        <ele>539.76</ele>
        <time>2021-06-23T11:27:52Z</time>
      </trkpt>
      <trkpt lat="48.36458" lon="7.20036">
        <ele>540.61</ele>
        <time>2021-06-23T11:27:54Z</time>
      </trkpt>
      <trkpt lat="48.36467" lon="7.20045">
        <ele>541.8</ele>
        <time>2021-06-23T11:27:56Z</time>
      </trkpt>
      <trkpt lat="48.36477" lon="7.20043">
        <ele>543.09</ele>
        <time>2021-06-23T11:27:57Z</time>
      </trkpt>
      <trkpt lat="48.36484" lon="7.20036">
        <ele>544.25</ele>
        <time>2021-06-23T11:27:59Z</time>
      </trkpt>
      <trkpt lat="48.36493" lon="7.20023">
        <ele>545.1</ele>
        <time>2021-06-23T11:28:01Z</time>
      </trkpt>
      <trkpt lat="48.36499" lon="7.20008">
        <ele>544.72</ele>
        <time>2021-06-23T11:28:03Z</time>
      </trkpt>
      <trkpt lat="48.36507" lon="7.19962">
        <ele>541.58</ele>
        <time>2021-06-23T11:28:05Z</time>
      </trkpt>
      <trkpt lat="48.36514" lon="7.19954">
        <ele>542.75</ele>
        <time>2021-06-23T11:28:07Z</time>
      </trkpt>
      <trkpt lat="48.36523" lon="7.19951">
        <ele>544.71</ele>
        <time>2021-06-23T11:28:09Z</time>
      </trkpt>
      <trkpt lat="48.36531" lon="7.19956">
        <ele>547.41</ele>
        <time>2021-06-23T11:28:11Z</time>
      </trkpt>
      <trkpt lat="48.36538" lon="7.19967">
        <ele>550.57</ele>
        <time>2021-06-23T11:28:13Z</time>
      </trkpt>
      <trkpt lat="48.3654" lon="7.19979">
        <ele>552.17</ele>
        <time>2021-06-23T11:28:15Z</time>
      </trkpt>
      <trkpt lat="48.36536" lon="7.19993">
        <ele>552.07</ele>
        <time>2021-06-23T11:28:17Z</time>
      </trkpt>
      <trkpt lat="48.36511" lon="7.20046">
        <ele>551.1</ele>
        <time>2021-06-23T11:28:19Z</time>
      </trkpt>
      <trkpt lat="48.36504" lon="7.20077">
        <ele>551.5</ele>
        <time>2021-06-23T11:28:21Z</time>
      </trkpt>
      <trkpt lat="48.36499" lon="7.20163">
        <ele>555.42</ele>
        <time>2021-06-23T11:28:23Z</time>
      </trkpt>
      <trkpt lat="48.36493" lon="7.20191">
        <ele>556.44</ele>
        <time>2021-06-23T11:28:25Z</time>
      </trkpt>
      <trkpt lat="48.36477" lon="7.20235">
        <ele>558.73</ele>
        <time>2021-06-23T11:28:27Z</time>
      </trkpt>
      <trkpt lat="48.36477" lon="7.20255">
        <ele>561.78</ele>
        <time>2021-06-23T11:28:29Z</time>
      </trkpt>
      <trkpt lat="48.3648" lon="7.20268">
        <ele>563.4</ele>
        <time>2021-06-23T11:28:31Z</time>
      </trkpt>
      <trkpt lat="48.36496" lon="7.20278">
        <ele>565.74</ele>
        <time>2021-06-23T11:28:33Z</time>
      </trkpt>
      <trkpt lat="48.36507" lon="7.20277">
        <ele>566.64</ele>
        <time>2021-06-23T11:28:34Z</time>
      </trkpt>
      <trkpt lat="48.36531" lon="7.20267">
        <ele>568.45</ele>
        <time>2021-06-23T11:28:36Z</time>
      </trkpt>
      <trkpt lat="48.36545" lon="7.20266">
        <ele>569.32</ele>
        <time>2021-06-23T11:28:38Z</time>
      </trkpt>
      <trkpt lat="48.36676" lon="7.20314">
        <ele>574.84</ele>
        <time>2021-06-23T11:28:40Z</time>
      </trkpt>
      <trkpt lat="48.36731" lon="7.20338">
        <ele>576.78</ele>
        <time>2021-06-23T11:28:42Z</time>
      </trkpt>
      <trkpt lat="48.36753" lon="7.20361">
        <ele>576.69</ele>
        <time>2021-06-23T11:28:44Z</time>
      </trkpt>
      <trkpt lat="48.36768" lon="7.20397">
        <ele>578.25</ele>
        <time>2021-06-23T11:28:46Z</time>
      </trkpt>
      <trkpt lat="48.36774" lon="7.2043">
        <ele>579.12</ele>
        <time>2021-06-23T11:28:48Z</time>
      </trkpt>
      <trkpt lat="48.36765" lon="7.20607">
        <ele>591.48</ele>
        <time>2021-06-23T11:28:50Z</time>
      </trkpt>
      <trkpt lat="48.36741" lon="7.20714">
        <ele>586.28</ele>
        <time>2021-06-23T11:28:52Z</time>
      </trkpt>
      <trkpt lat="48.36744" lon="7.20738">
        <ele>587.8</ele>
        <time>2021-06-23T11:28:54Z</time>
      </trkpt>
      <trkpt lat="48.36752" lon="7.20752">
        <ele>589.38</ele>
        <time>2021-06-23T11:28:56Z</time>
      </trkpt>
      <trkpt lat="48.36758" lon="7.20757">
        <ele>590.59</ele>
        <time>2021-06-23T11:28:58Z</time>
      </trkpt>
      <trkpt lat="48.36771" lon="7.20763">
        <ele>593.36</ele>
        <time>2021-06-23T11:29:00Z</time>
      </trkpt>
      <trkpt lat="48.36779" lon="7.20765">
        <ele>594.93</ele>
        <time>2021-06-23T11:29:02Z</time>
      </trkpt>
      <trkpt lat="48.36794" lon="7.20763">
        <ele>597.32</ele>
        <time>2021-06-23T11:29:04Z</time>
      </trkpt>
      <trkpt lat="48.3682" lon="7.2075">
        <ele>599.69</ele>
        <time>2021-06-23T11:29:06Z</time>
      </trkpt>
      <trkpt lat="48.36839" lon="7.2073">
        <ele>598.46</ele>
        <time>2021-06-23T11:29:08Z</time>
      </trkpt>
      <trkpt lat="48.36868" lon="7.20687">
        <ele>595.58</ele>
        <time>2021-06-23T11:29:10Z</time>
      </trkpt>
      <trkpt lat="48.36894" lon="7.20659">
        <ele>598.53</ele>
        <time>2021-06-23T11:29:11Z</time>
      </trkpt>
      <trkpt lat="48.36927" lon="7.20636">
        <ele>603.18</ele>
        <time>2021-06-23T11:29:13Z</time>
      </trkpt>
      <trkpt lat="48.36946" lon="7.20619">
        <ele>605.5</ele>
        <time>2021-06-23T11:29:15Z</time>
      </trkpt>
      <trkpt lat="48.37057" lon="7.20499">
        <ele>611.2</ele>
        <time>2021-06-23T11:29:17Z</time>
      </trkpt>
      <trkpt lat="48.37065" lon="7.20492">
        <ele>612.41</ele>
        <time>2021-06-23T11:29:19Z</time>
      </trkpt>
      <trkpt lat="48.37087" lon="7.20481">
        <ele>615.46</ele>
        <time>2021-06-23T11:29:21Z</time>
      </trkpt>
      <trkpt lat="48.371" lon="7.20479">
        <ele>617.17</ele>
        <time>2021-06-23T11:29:23Z</time>
      </trkpt>
      <trkpt lat="48.37116" lon="7.20481">
        <ele>619.34</ele>
        <time>2021-06-23T11:29:25Z</time>
      </trkpt>
      <trkpt lat="48.37132" lon="7.20486">
        <ele>621.32</ele>
        <time>2021-06-23T11:29:27Z</time>
      </trkpt>
      <trkpt lat="48.37152" lon="7.20499">
        <ele>623.9</ele>
        <time>2021-06-23T11:29:29Z</time>
      </trkpt>
      <trkpt lat="48.37172" lon="7.20516">
        <ele>626.8</ele>
        <time>2021-06-23T11:29:31Z</time>
      </trkpt>
      <trkpt lat="48.37189" lon="7.20534">
        <ele>628.73</ele>
        <time>2021-06-23T11:29:33Z</time>
      </trkpt>
      <trkpt lat="48.37204" lon="7.20555">
        <ele>629.33</ele>
        <time>2021-06-23T11:29:35Z</time>
      </trkpt>
      <trkpt lat="48.3722" lon="7.20578">
        <ele>628.97</ele>
        <time>2021-06-23T11:29:37Z</time>
      </trkpt>
      <trkpt lat="48.37231" lon="7.20605">
        <ele>630.22</ele>
        <time>2021-06-23T11:29:39Z</time>
      </trkpt>
      <trkpt lat="48.3724" lon="7.20632">
        <ele>630.72</ele>
        <time>2021-06-23T11:29:41Z</time>
      </trkpt>
      <trkpt lat="48.3727" lon="7.20754">
        <ele>640.28</ele>
        <time>2021-06-23T11:29:43Z</time>
      </trkpt>
      <trkpt lat="48.37277" lon="7.20774">
        <ele>640.41</ele>
        <time>2021-06-23T11:29:45Z</time>
      </trkpt>
      <trkpt lat="48.37288" lon="7.20788">
        <ele>640.54</ele>
        <time>2021-06-23T11:29:47Z</time>
      </trkpt>
      <trkpt lat="48.37313" lon="7.2081">
        <ele>640.3</ele>
        <time>2021-06-23T11:29:48Z</time>
      </trkpt>
      <trkpt lat="48.37333" lon="7.20818">
        <ele>642.27</ele>
        <time>2021-06-23T11:29:50Z</time>
      </trkpt>
      <trkpt lat="48.37348" lon="7.20828">
        <ele>644.03</ele>
        <time>2021-06-23T11:29:52Z</time>
      </trkpt>
      <trkpt lat="48.37354" lon="7.20836">
        <ele>645.3</ele>
        <time>2021-06-23T11:29:54Z</time>
      </trkpt>
      <trkpt lat="48.3736" lon="7.20847">
        <ele>646.52</ele>
        <time>2021-06-23T11:29:56Z</time>
      </trkpt>
      <trkpt lat="48.37363" lon="7.20862">
        <ele>647.67</ele>
        <time>2021-06-23T11:29:58Z</time>
      </trkpt>
      <trkpt lat="48.37363" lon="7.20884">
        <ele>647.75</ele>
        <time>2021-06-23T11:30:00Z</time>
      </trkpt>
      <trkpt lat="48.37357" lon="7.20904">
        <ele>648.94</ele>
        <time>2021-06-23T11:30:02Z</time>
      </trkpt>
      <trkpt lat="48.37342" lon="7.20946">
        <ele>653.33</ele>
        <time>2021-06-23T11:30:04Z</time>
      </trkpt>
      <trkpt lat="48.37333" lon="7.20975">
        <ele>656.33</ele>
        <time>2021-06-23T11:30:06Z</time>
      </trkpt>
      <trkpt lat="48.37329" lon="7.20991">
        <ele>658.71</ele>
        <time>2021-06-23T11:30:08Z</time>
      </trkpt>
      <trkpt lat="48.37326" lon="7.21016">
        <ele>660</ele>
        <time>2021-06-23T11:30:10Z</time>
      </trkpt>
      <trkpt lat="48.37326" lon="7.21056">
        <ele>661.34</ele>
        <time>2021-06-23T11:30:12Z</time>
      </trkpt>
      <trkpt lat="48.37339" lon="7.21236">
        <ele>668.44</ele>
        <time>2021-06-23T11:30:14Z</time>
      </trkpt>
      <trkpt lat="48.37335" lon="7.21285">
        <ele>672.91</ele>
        <time>2021-06-23T11:30:16Z</time>
      </trkpt>
      <trkpt lat="48.37329" lon="7.21324">
        <ele>672.88</ele>
        <time>2021-06-23T11:30:18Z</time>
      </trkpt>
      <trkpt lat="48.37301" lon="7.21459">
        <ele>682.04</ele>
        <time>2021-06-23T11:30:20Z</time>
      </trkpt>
      <trkpt lat="48.37286" lon="7.2151">
        <ele>684.84</ele>
        <time>2021-06-23T11:30:22Z</time>
      </trkpt>
      <trkpt lat="48.37256" lon="7.21582">
        <ele>693.47</ele>
        <time>2021-06-23T11:30:24Z</time>
      </trkpt>
      <trkpt lat="48.37248" lon="7.21607">
        <ele>694.52</ele>
        <time>2021-06-23T11:30:26Z</time>
      </trkpt>
      <trkpt lat="48.37236" lon="7.21646">
        <ele>694.33</ele>
        <time>2021-06-23T11:30:27Z</time>
      </trkpt>
      <trkpt lat="48.37226" lon="7.2169">
        <ele>694.81</ele>
        <time>2021-06-23T11:30:29Z</time>
      </trkpt>
      <trkpt lat="48.3722" lon="7.21725">
        <ele>693.9</ele>
        <time>2021-06-23T11:30:31Z</time>
      </trkpt>
      <trkpt lat="48.37215" lon="7.21771">
        <ele>694.24</ele>
        <time>2021-06-23T11:30:33Z</time>
      </trkpt>
      <trkpt lat="48.37212" lon="7.21837">
        <ele>703.23</ele>
        <time>2021-06-23T11:30:35Z</time>
      </trkpt>
      <trkpt lat="48.37212" lon="7.21885">
        <ele>705.12</ele>
        <time>2021-06-23T11:30:37Z</time>
      </trkpt>
      <trkpt lat="48.37216" lon="7.21928">
        <ele>702.3</ele>
        <time>2021-06-23T11:30:39Z</time>
      </trkpt>
      <trkpt lat="48.3722" lon="7.2196">
        <ele>702.05</ele>
        <time>2021-06-23T11:30:41Z</time>
      </trkpt>
      <trkpt lat="48.37256" lon="7.2211">
        <ele>710.84</ele>
        <time>2021-06-23T11:30:43Z</time>
      </trkpt>
      <trkpt lat="48.37265" lon="7.22179">
        <ele>715.83</ele>
        <time>2021-06-23T11:30:45Z</time>
      </trkpt>
      <trkpt lat="48.3727" lon="7.22266">
        <ele>726.41</ele>
        <time>2021-06-23T11:30:47Z</time>
      </trkpt>
      <trkpt lat="48.37272" lon="7.22334">
        <ele>733.55</ele>
        <time>2021-06-23T11:30:49Z</time>
      </trkpt>
      <trkpt lat="48.37271" lon="7.22363">
        <ele>736.2</ele>
        <time>2021-06-23T11:30:51Z</time>
      </trkpt>
      <trkpt lat="48.3726" lon="7.2244">
        <ele>737.04</ele>
        <time>2021-06-23T11:30:53Z</time>
      </trkpt>
      <trkpt lat="48.37259" lon="7.22478">
        <ele>738.59</ele>
        <time>2021-06-23T11:30:55Z</time>
      </trkpt>
      <trkpt lat="48.37269" lon="7.2259">
        <ele>741.24</ele>
        <time>2021-06-23T11:30:57Z</time>
      </trkpt>
      <trkpt lat="48.37284" lon="7.22733">
        <ele>742.53</ele>
        <time>2021-06-23T11:30:59Z</time>
      </trkpt>
      <trkpt lat="48.37292" lon="7.22758">
        <ele>741.89</ele>
        <time>2021-06-23T11:31:01Z</time>
      </trkpt>
      <trkpt lat="48.37298" lon="7.2277">
        <ele>742</ele>
        <time>2021-06-23T11:31:03Z</time>
      </trkpt>
      <trkpt lat="48.37306" lon="7.22781">
        <ele>742.77</ele>
        <time>2021-06-23T11:31:04Z</time>
      </trkpt>
      <trkpt lat="48.37356" lon="7.22825">
        <ele>740.75</ele>
        <time>2021-06-23T11:31:06Z</time>
      </trkpt>
      <trkpt lat="48.3737" lon="7.22842">
        <ele>740.61</ele>
        <time>2021-06-23T11:31:08Z</time>
      </trkpt>
      <trkpt lat="48.37378" lon="7.22857">
        <ele>741.04</ele>
        <time>2021-06-23T11:31:10Z</time>
      </trkpt>
      <trkpt lat="48.37386" lon="7.22876">
        <ele>742.41</ele>
        <time>2021-06-23T11:31:12Z</time>
      </trkpt>
      <trkpt lat="48.37394" lon="7.22897">
        <ele>744.57</ele>
        <time>2021-06-23T11:31:14Z</time>
      </trkpt>
      <trkpt lat="48.37408" lon="7.2297">
        <ele>750.72</ele>
        <time>2021-06-23T11:31:16Z</time>
      </trkpt>
      <trkpt lat="48.37424" lon="7.23077">
        <ele>752</ele>
        <time>2021-06-23T11:31:18Z</time>
      </trkpt>
      <trkpt lat="48.37427" lon="7.23107">
        <ele>752.22</ele>
        <time>2021-06-23T11:31:20Z</time>
      </trkpt>
      <trkpt lat="48.37427" lon="7.23155">
        <ele>750.44</ele>
        <time>2021-06-23T11:31:22Z</time>
      </trkpt>
      <trkpt lat="48.37413" lon="7.23303">
        <ele>756.74</ele>
        <time>2021-06-23T11:31:24Z</time>
      </trkpt>
      <trkpt lat="48.37413" lon="7.23322">
        <ele>757.72</ele>
        <time>2021-06-23T11:31:26Z</time>
      </trkpt>
      <trkpt lat="48.37414" lon="7.23343">
        <ele>758.84</ele>
        <time>2021-06-23T11:31:28Z</time>
      </trkpt>
      <trkpt lat="48.37417" lon="7.23359">
        <ele>759.85</ele>
        <time>2021-06-23T11:31:30Z</time>
      </trkpt>
      <trkpt lat="48.37427" lon="7.23393">
        <ele>765.25</ele>
        <time>2021-06-23T11:31:32Z</time>
      </trkpt>
      <trkpt lat="48.3744" lon="7.23414">
        <ele>770.95</ele>
        <time>2021-06-23T11:31:34Z</time>
      </trkpt>
      <trkpt lat="48.3745" lon="7.23425">
        <ele>772.55</ele>
        <time>2021-06-23T11:31:36Z</time>
      </trkpt>
      <trkpt lat="48.3745" lon="7.23425">
        <ele>772.55</ele>
        <time>2021-06-23T11:31:36Z</time>
      </trkpt>
      <trkpt lat="48.37459" lon="7.23435">
        <ele>774.16</ele>
        <time>2021-06-23T11:31:38Z</time>
      </trkpt>
      <trkpt lat="48.37643" lon="7.23562">
        <ele>792.68</ele>
        <time>2021-06-23T11:31:40Z</time>
      </trkpt>
      <trkpt lat="48.37659" lon="7.23566">
        <ele>794.42</ele>
        <time>2021-06-23T11:31:43Z</time>
      </trkpt>
      <trkpt lat="48.37681" lon="7.23563">
        <ele>796.93</ele>
        <time>2021-06-23T11:31:45Z</time>
      </trkpt>
      <trkpt lat="48.37701" lon="7.23555">
        <ele>799</ele>
        <time>2021-06-23T11:31:47Z</time>
      </trkpt>
      <trkpt lat="48.3772" lon="7.2354">
        <ele>798.15</ele>
        <time>2021-06-23T11:31:50Z</time>
      </trkpt>
      <trkpt lat="48.3775" lon="7.23512">
        <ele>796.99</ele>
        <time>2021-06-23T11:31:52Z</time>
      </trkpt>
      <trkpt lat="48.37824" lon="7.23458">
        <ele>802.32</ele>
        <time>2021-06-23T11:31:54Z</time>
      </trkpt>
      <trkpt lat="48.37844" lon="7.2345">
        <ele>802.67</ele>
        <time>2021-06-23T11:31:57Z</time>
      </trkpt>
      <trkpt lat="48.37868" lon="7.23447">
        <ele>805.33</ele>
        <time>2021-06-23T11:31:59Z</time>
      </trkpt>
      <trkpt lat="48.37885" lon="7.23448">
        <ele>806.85</ele>
        <time>2021-06-23T11:32:01Z</time>
      </trkpt>
      <trkpt lat="48.37904" lon="7.23456">
        <ele>808.61</ele>
        <time>2021-06-23T11:32:04Z</time>
      </trkpt>
      <trkpt lat="48.37934" lon="7.23478">
        <ele>812.24</ele>
        <time>2021-06-23T11:32:06Z</time>
      </trkpt>
      <trkpt lat="48.37993" lon="7.23527">
        <ele>829.34</ele>
        <time>2021-06-23T11:32:08Z</time>
      </trkpt>
      <trkpt lat="48.38009" lon="7.2353">
        <ele>833.18</ele>
        <time>2021-06-23T11:32:11Z</time>
      </trkpt>
      <trkpt lat="48.3802" lon="7.23527">
        <ele>834.21</ele>
        <time>2021-06-23T11:32:13Z</time>
      </trkpt>
      <trkpt lat="48.38031" lon="7.23517">
        <ele>834.28</ele>
        <time>2021-06-23T11:32:15Z</time>
      </trkpt>
      <trkpt lat="48.38044" lon="7.235">
        <ele>833.05</ele>
        <time>2021-06-23T11:32:18Z</time>
      </trkpt>
      <trkpt lat="48.38083" lon="7.23396">
        <ele>831.68</ele>
        <time>2021-06-23T11:32:20Z</time>
      </trkpt>
      <trkpt lat="48.38103" lon="7.23353">
        <ele>830.58</ele>
        <time>2021-06-23T11:32:22Z</time>
      </trkpt>
      <trkpt lat="48.38125" lon="7.23327">
        <ele>832.88</ele>
        <time>2021-06-23T11:32:24Z</time>
      </trkpt>
      <trkpt lat="48.3815" lon="7.23308">
        <ele>839.17</ele>
        <time>2021-06-23T11:32:27Z</time>
      </trkpt>
      <trkpt lat="48.38179" lon="7.23299">
        <ele>846.6</ele>
        <time>2021-06-23T11:32:29Z</time>
      </trkpt>
      <trkpt lat="48.38214" lon="7.23299">
        <ele>851.35</ele>
        <time>2021-06-23T11:32:31Z</time>
      </trkpt>
      <trkpt lat="48.38308" lon="7.23319">
        <ele>860.94</ele>
        <time>2021-06-23T11:32:34Z</time>
      </trkpt>
      <trkpt lat="48.38516" lon="7.23295">
        <ele>881.81</ele>
        <time>2021-06-23T11:32:36Z</time>
      </trkpt>
      <trkpt lat="48.38534" lon="7.23286">
        <ele>881.93</ele>
        <time>2021-06-23T11:32:38Z</time>
      </trkpt>
      <trkpt lat="48.38545" lon="7.23275">
        <ele>880.33</ele>
        <time>2021-06-23T11:32:41Z</time>
      </trkpt>
      <trkpt lat="48.38553" lon="7.2326">
        <ele>880.1</ele>
        <time>2021-06-23T11:32:43Z</time>
      </trkpt>
      <trkpt lat="48.38557" lon="7.23241">
        <ele>879.76</ele>
        <time>2021-06-23T11:32:45Z</time>
      </trkpt>
      <trkpt lat="48.38558" lon="7.23221">
        <ele>878.54</ele>
        <time>2021-06-23T11:32:48Z</time>
      </trkpt>
      <trkpt lat="48.38554" lon="7.23164">
        <ele>874.3</ele>
        <time>2021-06-23T11:32:50Z</time>
      </trkpt>
      <trkpt lat="48.38555" lon="7.23146">
        <ele>875.41</ele>
        <time>2021-06-23T11:32:52Z</time>
      </trkpt>
      <trkpt lat="48.38559" lon="7.2312">
        <ele>876.25</ele>
        <time>2021-06-23T11:32:55Z</time>
      </trkpt>
      <trkpt lat="48.38565" lon="7.23098">
        <ele>877.08</ele>
        <time>2021-06-23T11:32:57Z</time>
      </trkpt>
      <trkpt lat="48.38577" lon="7.23075">
        <ele>878.67</ele>
        <time>2021-06-23T11:32:59Z</time>
      </trkpt>
      <trkpt lat="48.38591" lon="7.23056">
        <ele>879.83</ele>
        <time>2021-06-23T11:33:02Z</time>
      </trkpt>
      <trkpt lat="48.38608" lon="7.2304">
        <ele>881.42</ele>
        <time>2021-06-23T11:33:04Z</time>
      </trkpt>
      <trkpt lat="48.38628" lon="7.23029">
        <ele>883.25</ele>
        <time>2021-06-23T11:33:06Z</time>
      </trkpt>
      <trkpt lat="48.38752" lon="7.22992">
        <ele>898.36</ele>
        <time>2021-06-23T11:33:09Z</time>
      </trkpt>
      <trkpt lat="48.38775" lon="7.22976">
        <ele>901.6</ele>
        <time>2021-06-23T11:33:11Z</time>
      </trkpt>
      <trkpt lat="48.38818" lon="7.22923">
        <ele>906.28</ele>
        <time>2021-06-23T11:33:13Z</time>
      </trkpt>
      <trkpt lat="48.38836" lon="7.22906">
        <ele>908.09</ele>
        <time>2021-06-23T11:33:16Z</time>
      </trkpt>
      <trkpt lat="48.3885" lon="7.22897">
        <ele>908.59</ele>
        <time>2021-06-23T11:33:18Z</time>
      </trkpt>
      <trkpt lat="48.38859" lon="7.22894">
        <ele>908.94</ele>
        <time>2021-06-23T11:33:20Z</time>
      </trkpt>
      <trkpt lat="48.3888" lon="7.22894">
        <ele>911.03</ele>
        <time>2021-06-23T11:33:22Z</time>
      </trkpt>
      <trkpt lat="48.38895" lon="7.22901">
        <ele>913.16</ele>
        <time>2021-06-23T11:33:25Z</time>
      </trkpt>
      <trkpt lat="48.38905" lon="7.22911">
        <ele>915.08</ele>
        <time>2021-06-23T11:33:27Z</time>
      </trkpt>
      <trkpt lat="48.38919" lon="7.22929">
        <ele>917.44</ele>
        <time>2021-06-23T11:33:29Z</time>
      </trkpt>
      <trkpt lat="48.38926" lon="7.22942">
        <ele>919.03</ele>
        <time>2021-06-23T11:33:32Z</time>
      </trkpt>
      <trkpt lat="48.38931" lon="7.22929">
        <ele>919.77</ele>
        <time>2021-06-23T11:33:35Z</time>
      </trkpt>
      <trkpt lat="48.38931" lon="7.22929">
        <ele>919.77</ele>
        <time>2021-06-23T11:33:35Z</time>
      </trkpt>
      <trkpt lat="48.38926" lon="7.22942">
        <ele>919.03</ele>
        <time>2021-06-23T11:33:38Z</time>
      </trkpt>
      <trkpt lat="48.38931" lon="7.2297">
        <ele>920.55</ele>
        <time>2021-06-23T11:33:41Z</time>
      </trkpt>
      <trkpt lat="48.38933" lon="7.23002">
        <ele>921.81</ele>
        <time>2021-06-23T11:33:45Z</time>
      </trkpt>
      <trkpt lat="48.38932" lon="7.23028">
        <ele>923.07</ele>
        <time>2021-06-23T11:33:48Z</time>
      </trkpt>
      <trkpt lat="48.38922" lon="7.23121">
        <ele>926.6</ele>
        <time>2021-06-23T11:33:51Z</time>
      </trkpt>
      <trkpt lat="48.38914" lon="7.23161">
        <ele>927.02</ele>
        <time>2021-06-23T11:33:55Z</time>
      </trkpt>
      <trkpt lat="48.38894" lon="7.23225">
        <ele>927.96</ele>
        <time>2021-06-23T11:33:58Z</time>
      </trkpt>
      <trkpt lat="48.38882" lon="7.23253">
        <ele>927.79</ele>
        <time>2021-06-23T11:34:01Z</time>
      </trkpt>
      <trkpt lat="48.3884" lon="7.23336">
        <ele>934.68</ele>
        <time>2021-06-23T11:34:05Z</time>
      </trkpt>
      <trkpt lat="48.38774" lon="7.23455">
        <ele>939.66</ele>
        <time>2021-06-23T11:34:08Z</time>
      </trkpt>
      <trkpt lat="48.38757" lon="7.23476">
        <ele>940.17</ele>
        <time>2021-06-23T11:34:11Z</time>
      </trkpt>
      <trkpt lat="48.3873" lon="7.23495">
        <ele>940.13</ele>
        <time>2021-06-23T11:34:15Z</time>
      </trkpt>
      <trkpt lat="48.38634" lon="7.2353">
        <ele>939.58</ele>
        <time>2021-06-23T11:34:18Z</time>
      </trkpt>
      <trkpt lat="48.38463" lon="7.23585">
        <ele>949.83</ele>
        <time>2021-06-23T11:34:21Z</time>
      </trkpt>
      <trkpt lat="48.38446" lon="7.23596">
        <ele>951.29</ele>
        <time>2021-06-23T11:34:24Z</time>
      </trkpt>
      <trkpt lat="48.38423" lon="7.23619">
        <ele>953.58</ele>
        <time>2021-06-23T11:34:28Z</time>
      </trkpt>
      <trkpt lat="48.38382" lon="7.2367">
        <ele>955.39</ele>
        <time>2021-06-23T11:34:31Z</time>
      </trkpt>
      <trkpt lat="48.38325" lon="7.23747">
        <ele>957.84</ele>
        <time>2021-06-23T11:34:34Z</time>
      </trkpt>
      <trkpt lat="48.3831" lon="7.23782">
        <ele>959.56</ele>
        <time>2021-06-23T11:34:38Z</time>
      </trkpt>
      <trkpt lat="48.38298" lon="7.23818">
        <ele>963.13</ele>
        <time>2021-06-23T11:34:41Z</time>
      </trkpt>
      <trkpt lat="48.38292" lon="7.23861">
        <ele>966.96</ele>
        <time>2021-06-23T11:34:44Z</time>
      </trkpt>
      <trkpt lat="48.38285" lon="7.23959">
        <ele>974.18</ele>
        <time>2021-06-23T11:34:48Z</time>
      </trkpt>
      <trkpt lat="48.38281" lon="7.23977">
        <ele>974.44</ele>
        <time>2021-06-23T11:34:51Z</time>
      </trkpt>
      <trkpt lat="48.38275" lon="7.23998">
        <ele>975.37</ele>
        <time>2021-06-23T11:34:54Z</time>
      </trkpt>
      <trkpt lat="48.38263" lon="7.24022">
        <ele>975.49</ele>
        <time>2021-06-23T11:34:58Z</time>
      </trkpt>
      <trkpt lat="48.38247" lon="7.24043">
        <ele>976.37</ele>
        <time>2021-06-23T11:35:01Z</time>
      </trkpt>
      <trkpt lat="48.38231" lon="7.24061">
        <ele>979.84</ele>
        <time>2021-06-23T11:35:04Z</time>
      </trkpt>
      <trkpt lat="48.38126" lon="7.24134">
        <ele>998.08</ele>
        <time>2021-06-23T11:35:08Z</time>
      </trkpt>
      <trkpt lat="48.38106" lon="7.2416">
        <ele>996.61</ele>
        <time>2021-06-23T11:35:11Z</time>
      </trkpt>
      <trkpt lat="48.38099" lon="7.24175">
        <ele>996.24</ele>
        <time>2021-06-23T11:35:14Z</time>
      </trkpt>
      <trkpt lat="48.38092" lon="7.24199">
        <ele>996.61</ele>
        <time>2021-06-23T11:35:18Z</time>
      </trkpt>
      <trkpt lat="48.38088" lon="7.24221">
        <ele>998.07</ele>
        <time>2021-06-23T11:35:21Z</time>
      </trkpt>
      <trkpt lat="48.38087" lon="7.24248">
        <ele>1000.16</ele>
        <time>2021-06-23T11:35:24Z</time>
      </trkpt>
      <trkpt lat="48.38089" lon="7.24281">
        <ele>1001.45</ele>
        <time>2021-06-23T11:35:28Z</time>
      </trkpt>
      <trkpt lat="48.38101" lon="7.24344">
        <ele>1001.35</ele>
        <time>2021-06-23T11:35:31Z</time>
      </trkpt>
      <trkpt lat="48.38137" lon="7.24465">
        <ele>1008.21</ele>
        <time>2021-06-23T11:35:34Z</time>
      </trkpt>
      <trkpt lat="48.38144" lon="7.24494">
        <ele>1008.33</ele>
        <time>2021-06-23T11:35:38Z</time>
      </trkpt>
      <trkpt lat="48.38155" lon="7.24561">
        <ele>1007.23</ele>
        <time>2021-06-23T11:35:41Z</time>
      </trkpt>
      <trkpt lat="48.38157" lon="7.24593">
        <ele>1007.37</ele>
        <time>2021-06-23T11:35:44Z</time>
      </trkpt>
      <trkpt lat="48.38156" lon="7.24612">
        <ele>1007.86</ele>
        <time>2021-06-23T11:35:48Z</time>
      </trkpt>
      <trkpt lat="48.38151" lon="7.24633">
        <ele>1008.69</ele>
        <time>2021-06-23T11:35:51Z</time>
      </trkpt>
      <trkpt lat="48.38141" lon="7.24656">
        <ele>1008.48</ele>
        <time>2021-06-23T11:35:54Z</time>
      </trkpt>
      <trkpt lat="48.38121" lon="7.24684">
        <ele>1007.41</ele>
        <time>2021-06-23T11:35:57Z</time>
      </trkpt>
      <trkpt lat="48.3801" lon="7.24807">
        <ele>1003.4</ele>
        <time>2021-06-23T11:36:01Z</time>
      </trkpt>
      <trkpt lat="48.37982" lon="7.24846">
        <ele>1002.06</ele>
        <time>2021-06-23T11:36:04Z</time>
      </trkpt>
      <trkpt lat="48.37968" lon="7.24876">
        <ele>1000.47</ele>
        <time>2021-06-23T11:36:07Z</time>
      </trkpt>
      <trkpt lat="48.37963" lon="7.24893">
        <ele>998.99</ele>
        <time>2021-06-23T11:36:11Z</time>
      </trkpt>
      <trkpt lat="48.37958" lon="7.24925">
        <ele>996.74</ele>
        <time>2021-06-23T11:36:14Z</time>
      </trkpt>
      <trkpt lat="48.37958" lon="7.24938">
        <ele>995.59</ele>
        <time>2021-06-23T11:36:17Z</time>
      </trkpt>
      <trkpt lat="48.37963" lon="7.24985">
        <ele>991.69</ele>
        <time>2021-06-23T11:36:21Z</time>
      </trkpt>
      <trkpt lat="48.37971" lon="7.25029">
        <ele>988.63</ele>
        <time>2021-06-23T11:36:24Z</time>
      </trkpt>
      <trkpt lat="48.37996" lon="7.25087">
        <ele>984.85</ele>
        <time>2021-06-23T11:36:27Z</time>
      </trkpt>
      <trkpt lat="48.3802" lon="7.25128">
        <ele>983.33</ele>
        <time>2021-06-23T11:36:31Z</time>
      </trkpt>
      <trkpt lat="48.38125" lon="7.25245">
        <ele>977.59</ele>
        <time>2021-06-23T11:36:34Z</time>
      </trkpt>
      <trkpt lat="48.38142" lon="7.25268">
        <ele>978.67</ele>
        <time>2021-06-23T11:36:37Z</time>
      </trkpt>
      <trkpt lat="48.38152" lon="7.25288">
        <ele>979.2</ele>
        <time>2021-06-23T11:36:41Z</time>
      </trkpt>
      <trkpt lat="48.38205" lon="7.25459">
        <ele>981.33</ele>
        <time>2021-06-23T11:36:44Z</time>
      </trkpt>
      <trkpt lat="48.38301" lon="7.25659">
        <ele>971.18</ele>
        <time>2021-06-23T11:36:47Z</time>
      </trkpt>
      <trkpt lat="48.38362" lon="7.25769">
        <ele>963.39</ele>
        <time>2021-06-23T11:36:51Z</time>
      </trkpt>
      <trkpt lat="48.38371" lon="7.25781">
        <ele>964.4</ele>
        <time>2021-06-23T11:36:54Z</time>
      </trkpt>
      <trkpt lat="48.38391" lon="7.25776">
        <ele>967.13</ele>
        <time>2021-06-23T11:36:57Z</time>
      </trkpt>
      <trkpt lat="48.38435" lon="7.2577">
        <ele>971.54</ele>
        <time>2021-06-23T11:37:01Z</time>
      </trkpt>
      <trkpt lat="48.38478" lon="7.2577">
        <ele>976.08</ele>
        <time>2021-06-23T11:37:04Z</time>
      </trkpt>
      <trkpt lat="48.38516" lon="7.25778">
        <ele>981.13</ele>
        <time>2021-06-23T11:37:07Z</time>
      </trkpt>
      <trkpt lat="48.38568" lon="7.25794">
        <ele>985.31</ele>
        <time>2021-06-23T11:37:11Z</time>
      </trkpt>
      <trkpt lat="48.38598" lon="7.25813">
        <ele>986.3</ele>
        <time>2021-06-23T11:37:14Z</time>
      </trkpt>
      <trkpt lat="48.38762" lon="7.26011">
        <ele>1002.01</ele>
        <time>2021-06-23T11:37:17Z</time>
      </trkpt>
      <trkpt lat="48.38783" lon="7.26066">
        <ele>1005.17</ele>
        <time>2021-06-23T11:37:21Z</time>
      </trkpt>
      <trkpt lat="48.38808" lon="7.26216">
        <ele>1022.13</ele>
        <time>2021-06-23T11:37:24Z</time>
      </trkpt>
      <trkpt lat="48.38811" lon="7.26312">
        <ele>1024.07</ele>
        <time>2021-06-23T11:37:27Z</time>
      </trkpt>
      <trkpt lat="48.38802" lon="7.26446">
        <ele>1033.7</ele>
        <time>2021-06-23T11:37:31Z</time>
      </trkpt>
      <trkpt lat="48.38776" lon="7.26678">
        <ele>1045.49</ele>
        <time>2021-06-23T11:37:34Z</time>
      </trkpt>
      <trkpt lat="48.38752" lon="7.26817">
        <ele>1051.95</ele>
        <time>2021-06-23T11:37:37Z</time>
      </trkpt>
      <trkpt lat="48.38743" lon="7.26936">
        <ele>1056.13</ele>
        <time>2021-06-23T11:37:40Z</time>
      </trkpt>
      <trkpt lat="48.38753" lon="7.26968">
        <ele>1061.52</ele>
        <time>2021-06-23T11:37:44Z</time>
      </trkpt>
      <trkpt lat="48.38753" lon="7.26968">
        <ele>1061.52</ele>
        <time>2021-06-23T11:37:44Z</time>
      </trkpt>
      <trkpt lat="48.38764" lon="7.26984">
        <ele>1063.23</ele>
        <time>2021-06-23T11:37:53Z</time>
      </trkpt>
      <trkpt lat="48.38785" lon="7.27">
        <ele>1066.77</ele>
        <time>2021-06-23T11:38:02Z</time>
      </trkpt>
      <trkpt lat="48.38817" lon="7.27002">
        <ele>1068.52</ele>
        <time>2021-06-23T11:38:10Z</time>
      </trkpt>
      <trkpt lat="48.39025" lon="7.26976">
        <ele>1071.73</ele>
        <time>2021-06-23T11:38:19Z</time>
      </trkpt>
      <trkpt lat="48.39413" lon="7.26913">
        <ele>1098.2</ele>
        <time>2021-06-23T11:38:28Z</time>
      </trkpt>
      <trkpt lat="48.39415" lon="7.26925">
        <ele>1099.01</ele>
        <time>2021-06-23T11:38:31Z</time>
      </trkpt>
      <trkpt lat="48.39418" lon="7.26935">
        <ele>1099.78</ele>
        <time>2021-06-23T11:38:33Z</time>
      </trkpt>
      <trkpt lat="48.39424" lon="7.26943">
        <ele>1100.48</ele>
        <time>2021-06-23T11:38:36Z</time>
      </trkpt>
      <trkpt lat="48.39431" lon="7.26949">
        <ele>1101.18</ele>
        <time>2021-06-23T11:38:39Z</time>
      </trkpt>
      <trkpt lat="48.39438" lon="7.26952">
        <ele>1101.68</ele>
        <time>2021-06-23T11:38:42Z</time>
      </trkpt>
      <trkpt lat="48.39446" lon="7.26951">
        <ele>1102.06</ele>
        <time>2021-06-23T11:38:44Z</time>
      </trkpt>
      <trkpt lat="48.39454" lon="7.26948">
        <ele>1102.33</ele>
        <time>2021-06-23T11:38:47Z</time>
      </trkpt>
      <trkpt lat="48.3946" lon="7.26941">
        <ele>1102.46</ele>
        <time>2021-06-23T11:38:50Z</time>
      </trkpt>
      <trkpt lat="48.39465" lon="7.26933">
        <ele>1102.32</ele>
        <time>2021-06-23T11:38:52Z</time>
      </trkpt>
      <trkpt lat="48.39469" lon="7.26922">
        <ele>1102.07</ele>
        <time>2021-06-23T11:38:55Z</time>
      </trkpt>
      <trkpt lat="48.3947" lon="7.2691">
        <ele>1101.68</ele>
        <time>2021-06-23T11:38:58Z</time>
      </trkpt>
      <trkpt lat="48.39469" lon="7.26899">
        <ele>1101.19</ele>
        <time>2021-06-23T11:39:00Z</time>
      </trkpt>
      <trkpt lat="48.39467" lon="7.26888">
        <ele>1100.49</ele>
        <time>2021-06-23T11:39:03Z</time>
      </trkpt>
      <trkpt lat="48.39702" lon="7.26689">
        <ele>1084.09</ele>
        <time>2021-06-23T11:39:06Z</time>
      </trkpt>
      <trkpt lat="48.39728" lon="7.26674">
        <ele>1084.61</ele>
        <time>2021-06-23T11:39:09Z</time>
      </trkpt>
      <trkpt lat="48.3976" lon="7.26661">
        <ele>1085.53</ele>
        <time>2021-06-23T11:39:11Z</time>
      </trkpt>
      <trkpt lat="48.39789" lon="7.26657">
        <ele>1084.05</ele>
        <time>2021-06-23T11:39:14Z</time>
      </trkpt>
      <trkpt lat="48.39819" lon="7.2666">
        <ele>1081.41</ele>
        <time>2021-06-23T11:39:17Z</time>
      </trkpt>
      <trkpt lat="48.39847" lon="7.26666">
        <ele>1079.02</ele>
        <time>2021-06-23T11:39:19Z</time>
      </trkpt>
      <trkpt lat="48.39879" lon="7.26681">
        <ele>1077.24</ele>
        <time>2021-06-23T11:39:22Z</time>
      </trkpt>
      <trkpt lat="48.39923" lon="7.26716">
        <ele>1074.6</ele>
        <time>2021-06-23T11:39:25Z</time>
      </trkpt>
      <trkpt lat="48.40145" lon="7.26918">
        <ele>1073.15</ele>
        <time>2021-06-23T11:39:27Z</time>
      </trkpt>
      <trkpt lat="48.4017" lon="7.26937">
        <ele>1074.25</ele>
        <time>2021-06-23T11:39:30Z</time>
      </trkpt>
      <trkpt lat="48.40219" lon="7.26967">
        <ele>1075.42</ele>
        <time>2021-06-23T11:39:33Z</time>
      </trkpt>
      <trkpt lat="48.40257" lon="7.2698">
        <ele>1078.53</ele>
        <time>2021-06-23T11:39:36Z</time>
      </trkpt>
      <trkpt lat="48.40287" lon="7.26985">
        <ele>1078.27</ele>
        <time>2021-06-23T11:39:38Z</time>
      </trkpt>
      <trkpt lat="48.40327" lon="7.26988">
        <ele>1076.77</ele>
        <time>2021-06-23T11:39:41Z</time>
      </trkpt>
      <trkpt lat="48.40432" lon="7.26986">
        <ele>1079.5</ele>
        <time>2021-06-23T11:39:44Z</time>
      </trkpt>
      <trkpt lat="48.40479" lon="7.26991">
        <ele>1079.21</ele>
        <time>2021-06-23T11:39:46Z</time>
      </trkpt>
      <trkpt lat="48.40523" lon="7.27007">
        <ele>1077.36</ele>
        <time>2021-06-23T11:39:49Z</time>
      </trkpt>
      <trkpt lat="48.40606" lon="7.27053">
        <ele>1069.37</ele>
        <time>2021-06-23T11:39:52Z</time>
      </trkpt>
      <trkpt lat="48.40638" lon="7.27073">
        <ele>1068.39</ele>
        <time>2021-06-23T11:39:54Z</time>
      </trkpt>
      <trkpt lat="48.40648" lon="7.27082">
        <ele>1065.27</ele>
        <time>2021-06-23T11:39:57Z</time>
      </trkpt>
      <trkpt lat="48.40648" lon="7.27082">
        <ele>1065.27</ele>
        <time>2021-06-23T11:39:57Z</time>
      </trkpt>
      <trkpt lat="48.40673" lon="7.27103">
        <ele>1062.16</ele>
        <time>2021-06-23T11:40:02Z</time>
      </trkpt>
      <trkpt lat="48.40704" lon="7.27139">
        <ele>1060</ele>
        <time>2021-06-23T11:40:07Z</time>
      </trkpt>
      <trkpt lat="48.40726" lon="7.27168">
        <ele>1062.85</ele>
        <time>2021-06-23T11:40:11Z</time>
      </trkpt>
      <trkpt lat="48.40741" lon="7.27195">
        <ele>1063.67</ele>
        <time>2021-06-23T11:40:16Z</time>
      </trkpt>
      <trkpt lat="48.40764" lon="7.27246">
        <ele>1061.89</ele>
        <time>2021-06-23T11:40:21Z</time>
      </trkpt>
      <trkpt lat="48.40781" lon="7.27288">
        <ele>1059.23</ele>
        <time>2021-06-23T11:40:26Z</time>
      </trkpt>
      <trkpt lat="48.40791" lon="7.27322">
        <ele>1058.34</ele>
        <time>2021-06-23T11:40:30Z</time>
      </trkpt>
      <trkpt lat="48.40827" lon="7.27523">
        <ele>1062.23</ele>
        <time>2021-06-23T11:40:35Z</time>
      </trkpt>
      <trkpt lat="48.40836" lon="7.27587">
        <ele>1063.52</ele>
        <time>2021-06-23T11:40:40Z</time>
      </trkpt>
      <trkpt lat="48.40842" lon="7.27649">
        <ele>1065.44</ele>
        <time>2021-06-23T11:40:44Z</time>
      </trkpt>
      <trkpt lat="48.40848" lon="7.27839">
        <ele>1062.39</ele>
        <time>2021-06-23T11:40:49Z</time>
      </trkpt>
      <trkpt lat="48.40854" lon="7.27903">
        <ele>1060.43</ele>
        <time>2021-06-23T11:40:54Z</time>
      </trkpt>
      <trkpt lat="48.40859" lon="7.27943">
        <ele>1061.56</ele>
        <time>2021-06-23T11:40:59Z</time>
      </trkpt>
      <trkpt lat="48.40867" lon="7.2798">
        <ele>1061.16</ele>
        <time>2021-06-23T11:41:03Z</time>
      </trkpt>
      <trkpt lat="48.40877" lon="7.28011">
        <ele>1059.87</ele>
        <time>2021-06-23T11:41:08Z</time>
      </trkpt>
      <trkpt lat="48.40909" lon="7.28076">
        <ele>1056.61</ele>
        <time>2021-06-23T11:41:13Z</time>
      </trkpt>
      <trkpt lat="48.40935" lon="7.28133">
        <ele>1053.27</ele>
        <time>2021-06-23T11:41:17Z</time>
      </trkpt>
      <trkpt lat="48.40974" lon="7.28254">
        <ele>1050.8</ele>
        <time>2021-06-23T11:41:22Z</time>
      </trkpt>
      <trkpt lat="48.40996" lon="7.28312">
        <ele>1049.27</ele>
        <time>2021-06-23T11:41:27Z</time>
      </trkpt>
      <trkpt lat="48.4104" lon="7.28401">
        <ele>1045.08</ele>
        <time>2021-06-23T11:41:32Z</time>
      </trkpt>
      <trkpt lat="48.41116" lon="7.28543">
        <ele>1036.6</ele>
        <time>2021-06-23T11:41:36Z</time>
      </trkpt>
      <trkpt lat="48.4114" lon="7.28584">
        <ele>1037.07</ele>
        <time>2021-06-23T11:41:41Z</time>
      </trkpt>
      <trkpt lat="48.41165" lon="7.28617">
        <ele>1037.46</ele>
        <time>2021-06-23T11:41:46Z</time>
      </trkpt>
      <trkpt lat="48.41208" lon="7.28668">
        <ele>1038.46</ele>
        <time>2021-06-23T11:41:51Z</time>
      </trkpt>
      <trkpt lat="48.41617" lon="7.29107">
        <ele>1018.63</ele>
        <time>2021-06-23T11:41:55Z</time>
      </trkpt>
      <trkpt lat="48.41682" lon="7.29183">
        <ele>1016.4</ele>
        <time>2021-06-23T11:42:00Z</time>
      </trkpt>
      <trkpt lat="48.41822" lon="7.29362">
        <ele>1018.14</ele>
        <time>2021-06-23T11:42:05Z</time>
      </trkpt>
      <trkpt lat="48.419" lon="7.29436">
        <ele>1020.79</ele>
        <time>2021-06-23T11:42:09Z</time>
      </trkpt>
      <trkpt lat="48.421" lon="7.29686">
        <ele>1028.32</ele>
        <time>2021-06-23T11:42:14Z</time>
      </trkpt>
      <trkpt lat="48.42168" lon="7.29776">
        <ele>1029.11</ele>
        <time>2021-06-23T11:42:19Z</time>
      </trkpt>
      <trkpt lat="48.42182" lon="7.29798">
        <ele>1029.2</ele>
        <time>2021-06-23T11:42:24Z</time>
      </trkpt>
      <trkpt lat="48.42207" lon="7.29845">
        <ele>1029.27</ele>
        <time>2021-06-23T11:42:28Z</time>
      </trkpt>
      <trkpt lat="48.42243" lon="7.29919">
        <ele>1032.12</ele>
        <time>2021-06-23T11:42:33Z</time>
      </trkpt>
      <trkpt lat="48.42259" lon="7.29946">
        <ele>1032.65</ele>
        <time>2021-06-23T11:42:38Z</time>
      </trkpt>
      <trkpt lat="48.42329" lon="7.30032">
        <ele>1034.15</ele>
        <time>2021-06-23T11:42:43Z</time>
      </trkpt>
      <trkpt lat="48.42399" lon="7.30111">
        <ele>1030.74</ele>
        <time>2021-06-23T11:42:47Z</time>
      </trkpt>
      <trkpt lat="48.42497" lon="7.3023">
        <ele>1030.07</ele>
        <time>2021-06-23T11:42:52Z</time>
      </trkpt>
      <trkpt lat="48.42569" lon="7.30351">
        <ele>1025.41</ele>
        <time>2021-06-23T11:42:57Z</time>
      </trkpt>
      <trkpt lat="48.42583" lon="7.30377">
        <ele>1023.82</ele>
        <time>2021-06-23T11:43:01Z</time>
      </trkpt>
      <trkpt lat="48.42596" lon="7.30405">
        <ele>1022.72</ele>
        <time>2021-06-23T11:43:06Z</time>
      </trkpt>
      <trkpt lat="48.42614" lon="7.30449">
        <ele>1021.49</ele>
        <time>2021-06-23T11:43:11Z</time>
      </trkpt>
      <trkpt lat="48.42651" lon="7.30553">
        <ele>1016.45</ele>
        <time>2021-06-23T11:43:16Z</time>
      </trkpt>
      <trkpt lat="48.42706" lon="7.30698">
        <ele>1004.86</ele>
        <time>2021-06-23T11:43:20Z</time>
      </trkpt>
      <trkpt lat="48.42718" lon="7.30742">
        <ele>1001.97</ele>
        <time>2021-06-23T11:43:25Z</time>
      </trkpt>
      <trkpt lat="48.42738" lon="7.30835">
        <ele>997.22</ele>
        <time>2021-06-23T11:43:30Z</time>
      </trkpt>
      <trkpt lat="48.42745" lon="7.30889">
        <ele>992.52</ele>
        <time>2021-06-23T11:43:34Z</time>
      </trkpt>
      <trkpt lat="48.42749" lon="7.30926">
        <ele>989.19</ele>
        <time>2021-06-23T11:43:39Z</time>
      </trkpt>
      <trkpt lat="48.42755" lon="7.31052">
        <ele>981.41</ele>
        <time>2021-06-23T11:43:44Z</time>
      </trkpt>
      <trkpt lat="48.4277" lon="7.31164">
        <ele>973.86</ele>
        <time>2021-06-23T11:43:49Z</time>
      </trkpt>
      <trkpt lat="48.42785" lon="7.31333">
        <ele>959.27</ele>
        <time>2021-06-23T11:43:53Z</time>
      </trkpt>
      <trkpt lat="48.42793" lon="7.31412">
        <ele>955.26</ele>
        <time>2021-06-23T11:43:58Z</time>
      </trkpt>
      <trkpt lat="48.42801" lon="7.31445">
        <ele>953.83</ele>
        <time>2021-06-23T11:44:03Z</time>
      </trkpt>
      <trkpt lat="48.42811" lon="7.31471">
        <ele>954.18</ele>
        <time>2021-06-23T11:44:08Z</time>
      </trkpt>
      <trkpt lat="48.42811" lon="7.31497">
        <ele>954.19</ele>
        <time>2021-06-23T11:44:10Z</time>
      </trkpt>
      <trkpt lat="48.42835" lon="7.31631">
        <ele>959.17</ele>
        <time>2021-06-23T11:44:11Z</time>
      </trkpt>
      <trkpt lat="48.42834" lon="7.3165">
        <ele>960.41</ele>
        <time>2021-06-23T11:44:13Z</time>
      </trkpt>
      <trkpt lat="48.42842" lon="7.31655">
        <ele>960.58</ele>
        <time>2021-06-23T11:44:30Z</time>
      </trkpt>
      <trkpt lat="48.42875" lon="7.31755">
        <ele>960.16</ele>
        <time>2021-06-23T11:44:47Z</time>
      </trkpt>
      <trkpt lat="48.42881" lon="7.31779">
        <ele>958.21</ele>
        <time>2021-06-23T11:45:04Z</time>
      </trkpt>
      <trkpt lat="48.42899" lon="7.31867">
        <ele>954.34</ele>
        <time>2021-06-23T11:45:21Z</time>
      </trkpt>
      <trkpt lat="48.42902" lon="7.319">
        <ele>953.56</ele>
        <time>2021-06-23T11:45:38Z</time>
      </trkpt>
      <trkpt lat="48.42902" lon="7.319">
        <ele>953.56</ele>
        <time>2021-06-23T11:45:38Z</time>
      </trkpt>
      <trkpt lat="48.42899" lon="7.31867">
        <ele>954.34</ele>
        <time>2021-06-23T11:45:55Z</time>
      </trkpt>
      <trkpt lat="48.42881" lon="7.31779">
        <ele>958.21</ele>
        <time>2021-06-23T11:46:12Z</time>
      </trkpt>
      <trkpt lat="48.42875" lon="7.31755">
        <ele>960.16</ele>
        <time>2021-06-23T11:46:28Z</time>
      </trkpt>
      <trkpt lat="48.42842" lon="7.31655">
        <ele>960.58</ele>
        <time>2021-06-23T11:46:45Z</time>
      </trkpt>
      <trkpt lat="48.42834" lon="7.3165">
        <ele>960.41</ele>
        <time>2021-06-23T11:47:02Z</time>
      </trkpt>
      <trkpt lat="48.42835" lon="7.31631">
        <ele>959.17</ele>
        <time>2021-06-23T11:47:03Z</time>
      </trkpt>
      <trkpt lat="48.42839" lon="7.3163">
        <ele>959.12</ele>
        <time>2021-06-23T11:47:04Z</time>
      </trkpt>
      <trkpt lat="48.42853" lon="7.31615">
        <ele>957.98</ele>
        <time>2021-06-23T11:47:05Z</time>
      </trkpt>
      <trkpt lat="48.42872" lon="7.31602">
        <ele>956.08</ele>
        <time>2021-06-23T11:47:06Z</time>
      </trkpt>
      <trkpt lat="48.42807" lon="7.31462">
        <ele>954.03</ele>
        <time>2021-06-23T11:47:10Z</time>
      </trkpt>
      <trkpt lat="48.42801" lon="7.31445">
        <ele>953.83</ele>
        <time>2021-06-23T11:47:14Z</time>
      </trkpt>
      <trkpt lat="48.42793" lon="7.31412">
        <ele>955.26</ele>
        <time>2021-06-23T11:47:18Z</time>
      </trkpt>
      <trkpt lat="48.42785" lon="7.31333">
        <ele>959.27</ele>
        <time>2021-06-23T11:47:22Z</time>
      </trkpt>
      <trkpt lat="48.4277" lon="7.31164">
        <ele>973.86</ele>
        <time>2021-06-23T11:47:26Z</time>
      </trkpt>
      <trkpt lat="48.42755" lon="7.31052">
        <ele>981.41</ele>
        <time>2021-06-23T11:47:30Z</time>
      </trkpt>
      <trkpt lat="48.42749" lon="7.30926">
        <ele>989.19</ele>
        <time>2021-06-23T11:47:34Z</time>
      </trkpt>
      <trkpt lat="48.42745" lon="7.30889">
        <ele>992.52</ele>
        <time>2021-06-23T11:47:39Z</time>
      </trkpt>
      <trkpt lat="48.42738" lon="7.30835">
        <ele>997.22</ele>
        <time>2021-06-23T11:47:43Z</time>
      </trkpt>
      <trkpt lat="48.42718" lon="7.30742">
        <ele>1001.97</ele>
        <time>2021-06-23T11:47:47Z</time>
      </trkpt>
      <trkpt lat="48.42706" lon="7.30698">
        <ele>1004.86</ele>
        <time>2021-06-23T11:47:51Z</time>
      </trkpt>
      <trkpt lat="48.42651" lon="7.30553">
        <ele>1016.45</ele>
        <time>2021-06-23T11:47:55Z</time>
      </trkpt>
      <trkpt lat="48.42754" lon="7.30441">
        <ele>1014.11</ele>
        <time>2021-06-23T11:47:58Z</time>
      </trkpt>
      <trkpt lat="48.42801" lon="7.30379">
        <ele>1017.8</ele>
        <time>2021-06-23T11:48:02Z</time>
      </trkpt>
      <trkpt lat="48.42936" lon="7.30153">
        <ele>1018.22</ele>
        <time>2021-06-23T11:48:05Z</time>
      </trkpt>
      <trkpt lat="48.43003" lon="7.30064">
        <ele>1016.77</ele>
        <time>2021-06-23T11:48:08Z</time>
      </trkpt>
      <trkpt lat="48.43079" lon="7.29974">
        <ele>1013.94</ele>
        <time>2021-06-23T11:48:12Z</time>
      </trkpt>
      <trkpt lat="48.43125" lon="7.29925">
        <ele>1013.31</ele>
        <time>2021-06-23T11:48:15Z</time>
      </trkpt>
      <trkpt lat="48.43183" lon="7.29868">
        <ele>1012.6</ele>
        <time>2021-06-23T11:48:19Z</time>
      </trkpt>
      <trkpt lat="48.43283" lon="7.29778">
        <ele>1014.41</ele>
        <time>2021-06-23T11:48:22Z</time>
      </trkpt>
      <trkpt lat="48.43336" lon="7.29737">
        <ele>1015.23</ele>
        <time>2021-06-23T11:48:25Z</time>
      </trkpt>
      <trkpt lat="48.43409" lon="7.29686">
        <ele>1011.42</ele>
        <time>2021-06-23T11:48:29Z</time>
      </trkpt>
      <trkpt lat="48.43442" lon="7.29667">
        <ele>1008.2</ele>
        <time>2021-06-23T11:48:32Z</time>
      </trkpt>
      <trkpt lat="48.43601" lon="7.29584">
        <ele>998.76</ele>
        <time>2021-06-23T11:48:36Z</time>
      </trkpt>
      <trkpt lat="48.4388" lon="7.29474">
        <ele>1012.26</ele>
        <time>2021-06-23T11:48:39Z</time>
      </trkpt>
      <trkpt lat="48.43934" lon="7.29443">
        <ele>1016.37</ele>
        <time>2021-06-23T11:48:42Z</time>
      </trkpt>
      <trkpt lat="48.43984" lon="7.29407">
        <ele>1019</ele>
        <time>2021-06-23T11:48:46Z</time>
      </trkpt>
      <trkpt lat="48.44025" lon="7.29364">
        <ele>1019.89</ele>
        <time>2021-06-23T11:48:49Z</time>
      </trkpt>
      <trkpt lat="48.4406" lon="7.29313">
        <ele>1020.96</ele>
        <time>2021-06-23T11:48:53Z</time>
      </trkpt>
      <trkpt lat="48.44073" lon="7.29289">
        <ele>1020.28</ele>
        <time>2021-06-23T11:48:56Z</time>
      </trkpt>
      <trkpt lat="48.44239" lon="7.28918">
        <ele>1021.97</ele>
        <time>2021-06-23T11:48:59Z</time>
      </trkpt>
      <trkpt lat="48.44262" lon="7.28862">
        <ele>1024.86</ele>
        <time>2021-06-23T11:49:03Z</time>
      </trkpt>
      <trkpt lat="48.44281" lon="7.2881">
        <ele>1026.59</ele>
        <time>2021-06-23T11:49:06Z</time>
      </trkpt>
      <trkpt lat="48.44298" lon="7.28761">
        <ele>1027.61</ele>
        <time>2021-06-23T11:49:10Z</time>
      </trkpt>
      <trkpt lat="48.4432" lon="7.28687">
        <ele>1027.27</ele>
        <time>2021-06-23T11:49:13Z</time>
      </trkpt>
      <trkpt lat="48.44338" lon="7.28637">
        <ele>1026.17</ele>
        <time>2021-06-23T11:49:16Z</time>
      </trkpt>
      <trkpt lat="48.44353" lon="7.28603">
        <ele>1023.91</ele>
        <time>2021-06-23T11:49:20Z</time>
      </trkpt>
      <trkpt lat="48.4437" lon="7.28579">
        <ele>1023.57</ele>
        <time>2021-06-23T11:49:23Z</time>
      </trkpt>
      <trkpt lat="48.44386" lon="7.28565">
        <ele>1023.75</ele>
        <time>2021-06-23T11:49:27Z</time>
      </trkpt>
      <trkpt lat="48.44398" lon="7.28558">
        <ele>1023.54</ele>
        <time>2021-06-23T11:49:30Z</time>
      </trkpt>
      <trkpt lat="48.44422" lon="7.2855">
        <ele>1023.15</ele>
        <time>2021-06-23T11:49:33Z</time>
      </trkpt>
      <trkpt lat="48.44463" lon="7.28543">
        <ele>1020</ele>
        <time>2021-06-23T11:49:37Z</time>
      </trkpt>
      <trkpt lat="48.44518" lon="7.2853">
        <ele>1017.58</ele>
        <time>2021-06-23T11:49:40Z</time>
      </trkpt>
      <trkpt lat="48.44537" lon="7.28521">
        <ele>1015.56</ele>
        <time>2021-06-23T11:49:44Z</time>
      </trkpt>
      <trkpt lat="48.44559" lon="7.28504">
        <ele>1012.65</ele>
        <time>2021-06-23T11:49:47Z</time>
      </trkpt>
      <trkpt lat="48.44601" lon="7.28452">
        <ele>1007.88</ele>
        <time>2021-06-23T11:49:50Z</time>
      </trkpt>
      <trkpt lat="48.44619" lon="7.28421">
        <ele>1006.67</ele>
        <time>2021-06-23T11:49:54Z</time>
      </trkpt>
      <trkpt lat="48.44679" lon="7.28284">
        <ele>992.31</ele>
        <time>2021-06-23T11:49:57Z</time>
      </trkpt>
      <trkpt lat="48.44694" lon="7.28237">
        <ele>987.13</ele>
        <time>2021-06-23T11:50:01Z</time>
      </trkpt>
      <trkpt lat="48.44709" lon="7.28176">
        <ele>985.37</ele>
        <time>2021-06-23T11:50:04Z</time>
      </trkpt>
      <trkpt lat="48.44715" lon="7.28125">
        <ele>985.23</ele>
        <time>2021-06-23T11:50:07Z</time>
      </trkpt>
      <trkpt lat="48.44715" lon="7.28095">
        <ele>984.51</ele>
        <time>2021-06-23T11:50:11Z</time>
      </trkpt>
      <trkpt lat="48.44712" lon="7.28065">
        <ele>982.77</ele>
        <time>2021-06-23T11:50:14Z</time>
      </trkpt>
      <trkpt lat="48.44703" lon="7.2802">
        <ele>981.75</ele>
        <time>2021-06-23T11:50:17Z</time>
      </trkpt>
      <trkpt lat="48.44636" lon="7.27797">
        <ele>988</ele>
        <time>2021-06-23T11:50:21Z</time>
      </trkpt>
      <trkpt lat="48.44582" lon="7.27661">
        <ele>979.38</ele>
        <time>2021-06-23T11:50:24Z</time>
      </trkpt>
      <trkpt lat="48.4455" lon="7.27589">
        <ele>981.05</ele>
        <time>2021-06-23T11:50:28Z</time>
      </trkpt>
      <trkpt lat="48.44475" lon="7.27466">
        <ele>973.01</ele>
        <time>2021-06-23T11:50:31Z</time>
      </trkpt>
      <trkpt lat="48.44345" lon="7.27283">
        <ele>954.43</ele>
        <time>2021-06-23T11:50:34Z</time>
      </trkpt>
      <trkpt lat="48.44328" lon="7.27228">
        <ele>952.07</ele>
        <time>2021-06-23T11:50:38Z</time>
      </trkpt>
      <trkpt lat="48.44315" lon="7.27167">
        <ele>943.72</ele>
        <time>2021-06-23T11:50:41Z</time>
      </trkpt>
      <trkpt lat="48.44321" lon="7.27114">
        <ele>941.13</ele>
        <time>2021-06-23T11:50:45Z</time>
      </trkpt>
      <trkpt lat="48.44333" lon="7.27062">
        <ele>937.94</ele>
        <time>2021-06-23T11:50:48Z</time>
      </trkpt>
      <trkpt lat="48.44354" lon="7.26957">
        <ele>932.76</ele>
        <time>2021-06-23T11:50:51Z</time>
      </trkpt>
      <trkpt lat="48.44377" lon="7.26727">
        <ele>916.31</ele>
        <time>2021-06-23T11:50:55Z</time>
      </trkpt>
      <trkpt lat="48.4439" lon="7.26672">
        <ele>912.39</ele>
        <time>2021-06-23T11:50:58Z</time>
      </trkpt>
      <trkpt lat="48.44422" lon="7.26628">
        <ele>911.86</ele>
        <time>2021-06-23T11:51:02Z</time>
      </trkpt>
      <trkpt lat="48.44449" lon="7.26617">
        <ele>911.25</ele>
        <time>2021-06-23T11:51:05Z</time>
      </trkpt>
      <trkpt lat="48.4454" lon="7.26605">
        <ele>907.95</ele>
        <time>2021-06-23T11:51:08Z</time>
      </trkpt>
      <trkpt lat="48.4458" lon="7.26583">
        <ele>906.55</ele>
        <time>2021-06-23T11:51:12Z</time>
      </trkpt>
      <trkpt lat="48.44614" lon="7.26533">
        <ele>901.44</ele>
        <time>2021-06-23T11:51:15Z</time>
      </trkpt>
      <trkpt lat="48.44645" lon="7.26465">
        <ele>898.41</ele>
        <time>2021-06-23T11:51:19Z</time>
      </trkpt>
      <trkpt lat="48.44666" lon="7.26398">
        <ele>894.05</ele>
        <time>2021-06-23T11:51:22Z</time>
      </trkpt>
      <trkpt lat="48.44678" lon="7.26333">
        <ele>890.67</ele>
        <time>2021-06-23T11:51:25Z</time>
      </trkpt>
      <trkpt lat="48.44682" lon="7.26266">
        <ele>888.02</ele>
        <time>2021-06-23T11:51:29Z</time>
      </trkpt>
      <trkpt lat="48.44673" lon="7.2615">
        <ele>879.16</ele>
        <time>2021-06-23T11:51:32Z</time>
      </trkpt>
      <trkpt lat="48.44675" lon="7.2605">
        <ele>878.64</ele>
        <time>2021-06-23T11:51:36Z</time>
      </trkpt>
      <trkpt lat="48.44663" lon="7.25989">
        <ele>869.54</ele>
        <time>2021-06-23T11:51:39Z</time>
      </trkpt>
      <trkpt lat="48.44641" lon="7.2593">
        <ele>858.57</ele>
        <time>2021-06-23T11:51:42Z</time>
      </trkpt>
      <trkpt lat="48.44637" lon="7.25902">
        <ele>856.99</ele>
        <time>2021-06-23T11:51:46Z</time>
      </trkpt>
      <trkpt lat="48.44641" lon="7.25867">
        <ele>857.24</ele>
        <time>2021-06-23T11:51:49Z</time>
      </trkpt>
      <trkpt lat="48.44661" lon="7.25844">
        <ele>860.35</ele>
        <time>2021-06-23T11:51:53Z</time>
      </trkpt>
      <trkpt lat="48.44686" lon="7.25822">
        <ele>858.38</ele>
        <time>2021-06-23T11:51:56Z</time>
      </trkpt>
      <trkpt lat="48.44701" lon="7.25802">
        <ele>854.98</ele>
        <time>2021-06-23T11:51:59Z</time>
      </trkpt>
      <trkpt lat="48.44755" lon="7.25704">
        <ele>843.88</ele>
        <time>2021-06-23T11:52:03Z</time>
      </trkpt>
      <trkpt lat="48.4479" lon="7.25654">
        <ele>840.96</ele>
        <time>2021-06-23T11:52:06Z</time>
      </trkpt>
      <trkpt lat="48.44834" lon="7.25615">
        <ele>839.4</ele>
        <time>2021-06-23T11:52:10Z</time>
      </trkpt>
      <trkpt lat="48.4486" lon="7.25599">
        <ele>837.54</ele>
        <time>2021-06-23T11:52:13Z</time>
      </trkpt>
      <trkpt lat="48.44885" lon="7.25587">
        <ele>837.23</ele>
        <time>2021-06-23T11:52:16Z</time>
      </trkpt>
      <trkpt lat="48.4492" lon="7.25578">
        <ele>837.73</ele>
        <time>2021-06-23T11:52:20Z</time>
      </trkpt>
      <trkpt lat="48.44972" lon="7.25578">
        <ele>837.21</ele>
        <time>2021-06-23T11:52:23Z</time>
      </trkpt>
      <trkpt lat="48.45012" lon="7.25572">
        <ele>835.15</ele>
        <time>2021-06-23T11:52:26Z</time>
      </trkpt>
      <trkpt lat="48.45125" lon="7.25515">
        <ele>828.37</ele>
        <time>2021-06-23T11:52:30Z</time>
      </trkpt>
      <trkpt lat="48.45144" lon="7.25507">
        <ele>826.36</ele>
        <time>2021-06-23T11:52:33Z</time>
      </trkpt>
      <trkpt lat="48.45261" lon="7.25505">
        <ele>820.54</ele>
        <time>2021-06-23T11:52:37Z</time>
      </trkpt>
      <trkpt lat="48.45307" lon="7.25502">
        <ele>814.54</ele>
        <time>2021-06-23T11:52:40Z</time>
      </trkpt>
      <trkpt lat="48.45322" lon="7.25499">
        <ele>812.84</ele>
        <time>2021-06-23T11:52:43Z</time>
      </trkpt>
      <trkpt lat="48.45348" lon="7.25486">
        <ele>807.82</ele>
        <time>2021-06-23T11:52:47Z</time>
      </trkpt>
      <trkpt lat="48.45364" lon="7.25471">
        <ele>804.36</ele>
        <time>2021-06-23T11:52:50Z</time>
      </trkpt>
      <trkpt lat="48.45385" lon="7.25443">
        <ele>803.4</ele>
        <time>2021-06-23T11:52:54Z</time>
      </trkpt>
      <trkpt lat="48.45396" lon="7.25416">
        <ele>804.16</ele>
        <time>2021-06-23T11:52:57Z</time>
      </trkpt>
      <trkpt lat="48.45401" lon="7.25386">
        <ele>804.58</ele>
        <time>2021-06-23T11:53:00Z</time>
      </trkpt>
      <trkpt lat="48.45404" lon="7.25366">
        <ele>805.05</ele>
        <time>2021-06-23T11:53:04Z</time>
      </trkpt>
      <trkpt lat="48.45404" lon="7.25317">
        <ele>804.09</ele>
        <time>2021-06-23T11:53:07Z</time>
      </trkpt>
      <trkpt lat="48.45403" lon="7.25289">
        <ele>803.24</ele>
        <time>2021-06-23T11:53:11Z</time>
      </trkpt>
      <trkpt lat="48.45365" lon="7.24936">
        <ele>791.02</ele>
        <time>2021-06-23T11:53:14Z</time>
      </trkpt>
      <trkpt lat="48.45355" lon="7.24857">
        <ele>788.77</ele>
        <time>2021-06-23T11:53:17Z</time>
      </trkpt>
      <trkpt lat="48.45349" lon="7.24842">
        <ele>788.79</ele>
        <time>2021-06-23T11:53:21Z</time>
      </trkpt>
      <trkpt lat="48.45331" lon="7.24807">
        <ele>789.14</ele>
        <time>2021-06-23T11:53:24Z</time>
      </trkpt>
      <trkpt lat="48.45285" lon="7.24739">
        <ele>784.98</ele>
        <time>2021-06-23T11:53:28Z</time>
      </trkpt>
      <trkpt lat="48.45204" lon="7.24674">
        <ele>785.9</ele>
        <time>2021-06-23T11:53:31Z</time>
      </trkpt>
      <trkpt lat="48.45187" lon="7.24664">
        <ele>786.46</ele>
        <time>2021-06-23T11:53:34Z</time>
      </trkpt>
      <trkpt lat="48.45168" lon="7.24664">
        <ele>788.49</ele>
        <time>2021-06-23T11:53:38Z</time>
      </trkpt>
      <trkpt lat="48.45151" lon="7.24676">
        <ele>787.77</ele>
        <time>2021-06-23T11:53:41Z</time>
      </trkpt>
      <trkpt lat="48.45082" lon="7.24762">
        <ele>785.35</ele>
        <time>2021-06-23T11:53:45Z</time>
      </trkpt>
      <trkpt lat="48.45072" lon="7.24767">
        <ele>783.93</ele>
        <time>2021-06-23T11:53:48Z</time>
      </trkpt>
      <trkpt lat="48.45064" lon="7.24766">
        <ele>781.84</ele>
        <time>2021-06-23T11:53:51Z</time>
      </trkpt>
      <trkpt lat="48.45061" lon="7.24756">
        <ele>779.31</ele>
        <time>2021-06-23T11:53:55Z</time>
      </trkpt>
      <trkpt lat="48.45061" lon="7.24746">
        <ele>778.02</ele>
        <time>2021-06-23T11:53:58Z</time>
      </trkpt>
      <trkpt lat="48.45088" lon="7.24682">
        <ele>775.49</ele>
        <time>2021-06-23T11:54:02Z</time>
      </trkpt>
      <trkpt lat="48.4511" lon="7.24619">
        <ele>769.38</ele>
        <time>2021-06-23T11:54:05Z</time>
      </trkpt>
      <trkpt lat="48.45137" lon="7.24585">
        <ele>768.95</ele>
        <time>2021-06-23T11:54:08Z</time>
      </trkpt>
      <trkpt lat="48.4515" lon="7.24578">
        <ele>769.03</ele>
        <time>2021-06-23T11:54:12Z</time>
      </trkpt>
      <trkpt lat="48.45183" lon="7.24576">
        <ele>769.38</ele>
        <time>2021-06-23T11:54:15Z</time>
      </trkpt>
      <trkpt lat="48.45407" lon="7.24592">
        <ele>748.73</ele>
        <time>2021-06-23T11:54:19Z</time>
      </trkpt>
      <trkpt lat="48.45432" lon="7.24603">
        <ele>745.97</ele>
        <time>2021-06-23T11:54:22Z</time>
      </trkpt>
      <trkpt lat="48.4546" lon="7.24625">
        <ele>744.62</ele>
        <time>2021-06-23T11:54:25Z</time>
      </trkpt>
      <trkpt lat="48.45492" lon="7.24662">
        <ele>742.59</ele>
        <time>2021-06-23T11:54:29Z</time>
      </trkpt>
      <trkpt lat="48.45516" lon="7.24698">
        <ele>742.08</ele>
        <time>2021-06-23T11:54:32Z</time>
      </trkpt>
      <trkpt lat="48.45524" lon="7.24701">
        <ele>741.18</ele>
        <time>2021-06-23T11:54:35Z</time>
      </trkpt>
      <trkpt lat="48.45531" lon="7.247">
        <ele>740.16</ele>
        <time>2021-06-23T11:54:39Z</time>
      </trkpt>
      <trkpt lat="48.45541" lon="7.24692">
        <ele>737.8</ele>
        <time>2021-06-23T11:54:42Z</time>
      </trkpt>
      <trkpt lat="48.45545" lon="7.2468">
        <ele>735.94</ele>
        <time>2021-06-23T11:54:46Z</time>
      </trkpt>
      <trkpt lat="48.45547" lon="7.24656">
        <ele>733.04</ele>
        <time>2021-06-23T11:54:49Z</time>
      </trkpt>
      <trkpt lat="48.4554" lon="7.24617">
        <ele>729.54</ele>
        <time>2021-06-23T11:54:52Z</time>
      </trkpt>
      <trkpt lat="48.4553" lon="7.24588">
        <ele>726.57</ele>
        <time>2021-06-23T11:54:56Z</time>
      </trkpt>
      <trkpt lat="48.45502" lon="7.24525">
        <ele>722.39</ele>
        <time>2021-06-23T11:54:59Z</time>
      </trkpt>
      <trkpt lat="48.45462" lon="7.2446">
        <ele>718.17</ele>
        <time>2021-06-23T11:55:03Z</time>
      </trkpt>
      <trkpt lat="48.45425" lon="7.24418">
        <ele>715.57</ele>
        <time>2021-06-23T11:55:06Z</time>
      </trkpt>
      <trkpt lat="48.4523" lon="7.24214">
        <ele>698.22</ele>
        <time>2021-06-23T11:55:09Z</time>
      </trkpt>
      <trkpt lat="48.45212" lon="7.24186">
        <ele>693.62</ele>
        <time>2021-06-23T11:55:13Z</time>
      </trkpt>
      <trkpt lat="48.45187" lon="7.24136">
        <ele>689.71</ele>
        <time>2021-06-23T11:55:16Z</time>
      </trkpt>
      <trkpt lat="48.45175" lon="7.24119">
        <ele>690.09</ele>
        <time>2021-06-23T11:55:20Z</time>
      </trkpt>
      <trkpt lat="48.45163" lon="7.24114">
        <ele>690.59</ele>
        <time>2021-06-23T11:55:23Z</time>
      </trkpt>
      <trkpt lat="48.45151" lon="7.2412">
        <ele>689.49</ele>
        <time>2021-06-23T11:55:26Z</time>
      </trkpt>
      <trkpt lat="48.45143" lon="7.24128">
        <ele>687.85</ele>
        <time>2021-06-23T11:55:30Z</time>
      </trkpt>
      <trkpt lat="48.45113" lon="7.24171">
        <ele>682.99</ele>
        <time>2021-06-23T11:55:33Z</time>
      </trkpt>
      <trkpt lat="48.45084" lon="7.24215">
        <ele>683.17</ele>
        <time>2021-06-23T11:55:37Z</time>
      </trkpt>
      <trkpt lat="48.45061" lon="7.24245">
        <ele>680.14</ele>
        <time>2021-06-23T11:55:40Z</time>
      </trkpt>
      <trkpt lat="48.45016" lon="7.24319">
        <ele>675.05</ele>
        <time>2021-06-23T11:55:43Z</time>
      </trkpt>
      <trkpt lat="48.44988" lon="7.24381">
        <ele>675.32</ele>
        <time>2021-06-23T11:55:47Z</time>
      </trkpt>
      <trkpt lat="48.44965" lon="7.24411">
        <ele>673.11</ele>
        <time>2021-06-23T11:55:50Z</time>
      </trkpt>
      <trkpt lat="48.44946" lon="7.24431">
        <ele>671.07</ele>
        <time>2021-06-23T11:55:54Z</time>
      </trkpt>
      <trkpt lat="48.44928" lon="7.24445">
        <ele>671.07</ele>
        <time>2021-06-23T11:55:57Z</time>
      </trkpt>
      <trkpt lat="48.44915" lon="7.24447">
        <ele>668.66</ele>
        <time>2021-06-23T11:56:00Z</time>
      </trkpt>
      <trkpt lat="48.44851" lon="7.24426">
        <ele>655.9</ele>
        <time>2021-06-23T11:56:04Z</time>
      </trkpt>
      <trkpt lat="48.44727" lon="7.24402">
        <ele>654.06</ele>
        <time>2021-06-23T11:56:07Z</time>
      </trkpt>
      <trkpt lat="48.44694" lon="7.24405">
        <ele>649.27</ele>
        <time>2021-06-23T11:56:11Z</time>
      </trkpt>
      <trkpt lat="48.4467" lon="7.24418">
        <ele>647.66</ele>
        <time>2021-06-23T11:56:14Z</time>
      </trkpt>
      <trkpt lat="48.44655" lon="7.24432">
        <ele>646.41</ele>
        <time>2021-06-23T11:56:17Z</time>
      </trkpt>
      <trkpt lat="48.44645" lon="7.24454">
        <ele>645.64</ele>
        <time>2021-06-23T11:56:21Z</time>
      </trkpt>
      <trkpt lat="48.44609" lon="7.24569">
        <ele>645.64</ele>
        <time>2021-06-23T11:56:24Z</time>
      </trkpt>
      <trkpt lat="48.44597" lon="7.24636">
        <ele>640.91</ele>
        <time>2021-06-23T11:56:28Z</time>
      </trkpt>
      <trkpt lat="48.44593" lon="7.24697">
        <ele>637.91</ele>
        <time>2021-06-23T11:56:31Z</time>
      </trkpt>
      <trkpt lat="48.44598" lon="7.24723">
        <ele>639.72</ele>
        <time>2021-06-23T11:56:34Z</time>
      </trkpt>
      <trkpt lat="48.44618" lon="7.24778">
        <ele>645.75</ele>
        <time>2021-06-23T11:56:38Z</time>
      </trkpt>
      <trkpt lat="48.44628" lon="7.24831">
        <ele>645.42</ele>
        <time>2021-06-23T11:56:41Z</time>
      </trkpt>
      <trkpt lat="48.44628" lon="7.24859">
        <ele>643</ele>
        <time>2021-06-23T11:56:45Z</time>
      </trkpt>
      <trkpt lat="48.44623" lon="7.24885">
        <ele>640.06</ele>
        <time>2021-06-23T11:56:48Z</time>
      </trkpt>
      <trkpt lat="48.44584" lon="7.24991">
        <ele>639.2</ele>
        <time>2021-06-23T11:56:51Z</time>
      </trkpt>
      <trkpt lat="48.44573" lon="7.25016">
        <ele>644.06</ele>
        <time>2021-06-23T11:56:55Z</time>
      </trkpt>
      <trkpt lat="48.4456" lon="7.25025">
        <ele>644.15</ele>
        <time>2021-06-23T11:56:58Z</time>
      </trkpt>
      <trkpt lat="48.44549" lon="7.25018">
        <ele>637.28</ele>
        <time>2021-06-23T11:57:01Z</time>
      </trkpt>
      <trkpt lat="48.44546" lon="7.25003">
        <ele>630.88</ele>
        <time>2021-06-23T11:57:05Z</time>
      </trkpt>
      <trkpt lat="48.44497" lon="7.24989">
        <ele>617.5</ele>
        <time>2021-06-23T11:57:07Z</time>
      </trkpt>
      <trkpt lat="48.44484" lon="7.24988">
        <ele>614.42</ele>
        <time>2021-06-23T11:57:08Z</time>
      </trkpt>
      <trkpt lat="48.44474" lon="7.24992">
        <ele>612.58</ele>
        <time>2021-06-23T11:57:10Z</time>
      </trkpt>
      <trkpt lat="48.44468" lon="7.25003">
        <ele>612.57</ele>
        <time>2021-06-23T11:57:11Z</time>
      </trkpt>
      <trkpt lat="48.44459" lon="7.25052">
        <ele>618.49</ele>
        <time>2021-06-23T11:57:13Z</time>
      </trkpt>
      <trkpt lat="48.44455" lon="7.25066">
        <ele>619.96</ele>
        <time>2021-06-23T11:57:14Z</time>
      </trkpt>
      <trkpt lat="48.44449" lon="7.25075">
        <ele>620.4</ele>
        <time>2021-06-23T11:57:16Z</time>
      </trkpt>
      <trkpt lat="48.44442" lon="7.25077">
        <ele>619.3</ele>
        <time>2021-06-23T11:57:17Z</time>
      </trkpt>
      <trkpt lat="48.44432" lon="7.25075">
        <ele>617.39</ele>
        <time>2021-06-23T11:57:19Z</time>
      </trkpt>
      <trkpt lat="48.44409" lon="7.2506">
        <ele>611.17</ele>
        <time>2021-06-23T11:57:21Z</time>
      </trkpt>
      <trkpt lat="48.44395" lon="7.25057">
        <ele>609.05</ele>
        <time>2021-06-23T11:57:22Z</time>
      </trkpt>
      <trkpt lat="48.4437" lon="7.25056">
        <ele>604.93</ele>
        <time>2021-06-23T11:57:24Z</time>
      </trkpt>
      <trkpt lat="48.44352" lon="7.25061">
        <ele>602.77</ele>
        <time>2021-06-23T11:57:25Z</time>
      </trkpt>
      <trkpt lat="48.44333" lon="7.25069">
        <ele>602.49</ele>
        <time>2021-06-23T11:57:27Z</time>
      </trkpt>
      <trkpt lat="48.44291" lon="7.251">
        <ele>599.09</ele>
        <time>2021-06-23T11:57:28Z</time>
      </trkpt>
      <trkpt lat="48.44274" lon="7.25119">
        <ele>597.52</ele>
        <time>2021-06-23T11:57:30Z</time>
      </trkpt>
      <trkpt lat="48.44261" lon="7.25143">
        <ele>597.87</ele>
        <time>2021-06-23T11:57:32Z</time>
      </trkpt>
      <trkpt lat="48.44261" lon="7.25143">
        <ele>597.87</ele>
        <time>2021-06-23T11:57:32Z</time>
      </trkpt>
      <trkpt lat="48.44243" lon="7.25167">
        <ele>597.05</ele>
        <time>2021-06-23T11:57:34Z</time>
      </trkpt>
      <trkpt lat="48.442" lon="7.25192">
        <ele>594.7</ele>
        <time>2021-06-23T11:57:36Z</time>
      </trkpt>
      <trkpt lat="48.44186" lon="7.25196">
        <ele>594.79</ele>
        <time>2021-06-23T11:57:39Z</time>
      </trkpt>
      <trkpt lat="48.44174" lon="7.25195">
        <ele>593.58</ele>
        <time>2021-06-23T11:57:41Z</time>
      </trkpt>
      <trkpt lat="48.44158" lon="7.25186">
        <ele>590.96</ele>
        <time>2021-06-23T11:57:43Z</time>
      </trkpt>
      <trkpt lat="48.44139" lon="7.25168">
        <ele>587.23</ele>
        <time>2021-06-23T11:57:46Z</time>
      </trkpt>
      <trkpt lat="48.44105" lon="7.25116">
        <ele>583.55</ele>
        <time>2021-06-23T11:57:48Z</time>
      </trkpt>
      <trkpt lat="48.44092" lon="7.25105">
        <ele>582.11</ele>
        <time>2021-06-23T11:57:51Z</time>
      </trkpt>
      <trkpt lat="48.44078" lon="7.25099">
        <ele>579.9</ele>
        <time>2021-06-23T11:57:53Z</time>
      </trkpt>
      <trkpt lat="48.44061" lon="7.25102">
        <ele>577.62</ele>
        <time>2021-06-23T11:57:55Z</time>
      </trkpt>
      <trkpt lat="48.44007" lon="7.25127">
        <ele>574.2</ele>
        <time>2021-06-23T11:57:58Z</time>
      </trkpt>
      <trkpt lat="48.43996" lon="7.25136">
        <ele>574.29</ele>
        <time>2021-06-23T11:58:00Z</time>
      </trkpt>
      <trkpt lat="48.43983" lon="7.25155">
        <ele>574.5</ele>
        <time>2021-06-23T11:58:02Z</time>
      </trkpt>
      <trkpt lat="48.43976" lon="7.25169">
        <ele>575.66</ele>
        <time>2021-06-23T11:58:05Z</time>
      </trkpt>
      <trkpt lat="48.43955" lon="7.2522">
        <ele>571.4</ele>
        <time>2021-06-23T11:58:07Z</time>
      </trkpt>
      <trkpt lat="48.43948" lon="7.25264">
        <ele>570.33</ele>
        <time>2021-06-23T11:58:09Z</time>
      </trkpt>
      <trkpt lat="48.43949" lon="7.25276">
        <ele>570.34</ele>
        <time>2021-06-23T11:58:12Z</time>
      </trkpt>
      <trkpt lat="48.43955" lon="7.2529">
        <ele>570.01</ele>
        <time>2021-06-23T11:58:14Z</time>
      </trkpt>
      <trkpt lat="48.43981" lon="7.25309">
        <ele>571.52</ele>
        <time>2021-06-23T11:58:17Z</time>
      </trkpt>
      <trkpt lat="48.43991" lon="7.25322">
        <ele>571.74</ele>
        <time>2021-06-23T11:58:19Z</time>
      </trkpt>
      <trkpt lat="48.44001" lon="7.25346">
        <ele>572.24</ele>
        <time>2021-06-23T11:58:21Z</time>
      </trkpt>
      <trkpt lat="48.44009" lon="7.25372">
        <ele>573.68</ele>
        <time>2021-06-23T11:58:24Z</time>
      </trkpt>
      <trkpt lat="48.44009" lon="7.25391">
        <ele>573.53</ele>
        <time>2021-06-23T11:58:26Z</time>
      </trkpt>
      <trkpt lat="48.44005" lon="7.25401">
        <ele>572.96</ele>
        <time>2021-06-23T11:58:28Z</time>
      </trkpt>
      <trkpt lat="48.44001" lon="7.25408">
        <ele>572.09</ele>
        <time>2021-06-23T11:58:31Z</time>
      </trkpt>
      <trkpt lat="48.43975" lon="7.25425">
        <ele>568.26</ele>
        <time>2021-06-23T11:58:33Z</time>
      </trkpt>
      <trkpt lat="48.43956" lon="7.25446">
        <ele>567.33</ele>
        <time>2021-06-23T11:58:35Z</time>
      </trkpt>
      <trkpt lat="48.43914" lon="7.25481">
        <ele>566.45</ele>
        <time>2021-06-23T11:58:38Z</time>
      </trkpt>
      <trkpt lat="48.43896" lon="7.25501">
        <ele>566.04</ele>
        <time>2021-06-23T11:58:40Z</time>
      </trkpt>
      <trkpt lat="48.43882" lon="7.2552">
        <ele>565.63</ele>
        <time>2021-06-23T11:58:43Z</time>
      </trkpt>
      <trkpt lat="48.43858" lon="7.25572">
        <ele>564.16</ele>
        <time>2021-06-23T11:58:45Z</time>
      </trkpt>
      <trkpt lat="48.43849" lon="7.25597">
        <ele>563.35</ele>
        <time>2021-06-23T11:58:47Z</time>
      </trkpt>
      <trkpt lat="48.4384" lon="7.25637">
        <ele>562.56</ele>
        <time>2021-06-23T11:58:50Z</time>
      </trkpt>
      <trkpt lat="48.43835" lon="7.25671">
        <ele>561.53</ele>
        <time>2021-06-23T11:58:52Z</time>
      </trkpt>
      <trkpt lat="48.43833" lon="7.25709">
        <ele>562.38</ele>
        <time>2021-06-23T11:58:54Z</time>
      </trkpt>
      <trkpt lat="48.43829" lon="7.25724">
        <ele>561.74</ele>
        <time>2021-06-23T11:58:57Z</time>
      </trkpt>
      <trkpt lat="48.43822" lon="7.25738">
        <ele>560.16</ele>
        <time>2021-06-23T11:58:59Z</time>
      </trkpt>
      <trkpt lat="48.4377" lon="7.25809">
        <ele>553.42</ele>
        <time>2021-06-23T11:59:02Z</time>
      </trkpt>
      <trkpt lat="48.43741" lon="7.25854">
        <ele>552.96</ele>
        <time>2021-06-23T11:59:04Z</time>
      </trkpt>
      <trkpt lat="48.43691" lon="7.25947">
        <ele>555.79</ele>
        <time>2021-06-23T11:59:06Z</time>
      </trkpt>
      <trkpt lat="48.43667" lon="7.25979">
        <ele>554.27</ele>
        <time>2021-06-23T11:59:09Z</time>
      </trkpt>
      <trkpt lat="48.43651" lon="7.25987">
        <ele>553.96</ele>
        <time>2021-06-23T11:59:11Z</time>
      </trkpt>
      <trkpt lat="48.43634" lon="7.26008">
        <ele>554.33</ele>
        <time>2021-06-23T11:59:13Z</time>
      </trkpt>
      <trkpt lat="48.43616" lon="7.26023">
        <ele>554.1</ele>
        <time>2021-06-23T11:59:16Z</time>
      </trkpt>
      <trkpt lat="48.436" lon="7.26038">
        <ele>553.66</ele>
        <time>2021-06-23T11:59:18Z</time>
      </trkpt>
      <trkpt lat="48.43591" lon="7.26042">
        <ele>552.85</ele>
        <time>2021-06-23T11:59:20Z</time>
      </trkpt>
      <trkpt lat="48.43586" lon="7.26041">
        <ele>552.27</ele>
        <time>2021-06-23T11:59:23Z</time>
      </trkpt>
      <trkpt lat="48.43577" lon="7.26031">
        <ele>551.56</ele>
        <time>2021-06-23T11:59:25Z</time>
      </trkpt>
      <trkpt lat="48.43575" lon="7.2602">
        <ele>550.82</ele>
        <time>2021-06-23T11:59:28Z</time>
      </trkpt>
      <trkpt lat="48.43577" lon="7.26009">
        <ele>550.13</ele>
        <time>2021-06-23T11:59:30Z</time>
      </trkpt>
      <trkpt lat="48.43596" lon="7.25964">
        <ele>548.46</ele>
        <time>2021-06-23T11:59:32Z</time>
      </trkpt>
      <trkpt lat="48.43612" lon="7.25936">
        <ele>547.95</ele>
        <time>2021-06-23T11:59:35Z</time>
      </trkpt>
      <trkpt lat="48.43612" lon="7.25936">
        <ele>547.95</ele>
        <time>2021-06-23T11:59:35Z</time>
      </trkpt>
      <trkpt lat="48.43625" lon="7.25912">
        <ele>547.33</ele>
        <time>2021-06-23T11:59:37Z</time>
      </trkpt>
      <trkpt lat="48.43634" lon="7.25887">
        <ele>545.21</ele>
        <time>2021-06-23T11:59:40Z</time>
      </trkpt>
      <trkpt lat="48.43662" lon="7.25741">
        <ele>535.39</ele>
        <time>2021-06-23T11:59:43Z</time>
      </trkpt>
      <trkpt lat="48.4367" lon="7.25707">
        <ele>533.52</ele>
        <time>2021-06-23T11:59:46Z</time>
      </trkpt>
      <trkpt lat="48.43681" lon="7.25683">
        <ele>532.14</ele>
        <time>2021-06-23T11:59:48Z</time>
      </trkpt>
      <trkpt lat="48.437" lon="7.25651">
        <ele>530.7</ele>
        <time>2021-06-23T11:59:51Z</time>
      </trkpt>
      <trkpt lat="48.43705" lon="7.25638">
        <ele>530.34</ele>
        <time>2021-06-23T11:59:54Z</time>
      </trkpt>
      <trkpt lat="48.43707" lon="7.25622">
        <ele>529.26</ele>
        <time>2021-06-23T11:59:56Z</time>
      </trkpt>
      <trkpt lat="48.43706" lon="7.25597">
        <ele>527.89</ele>
        <time>2021-06-23T11:59:59Z</time>
      </trkpt>
      <trkpt lat="48.43708" lon="7.25578">
        <ele>527.38</ele>
        <time>2021-06-23T12:00:02Z</time>
      </trkpt>
      <trkpt lat="48.43713" lon="7.25556">
        <ele>527.02</ele>
        <time>2021-06-23T12:00:05Z</time>
      </trkpt>
      <trkpt lat="48.43737" lon="7.25495">
        <ele>525.35</ele>
        <time>2021-06-23T12:00:07Z</time>
      </trkpt>
      <trkpt lat="48.43742" lon="7.25477">
        <ele>524.87</ele>
        <time>2021-06-23T12:00:10Z</time>
      </trkpt>
      <trkpt lat="48.43729" lon="7.2543">
        <ele>521.97</ele>
        <time>2021-06-23T12:00:13Z</time>
      </trkpt>
      <trkpt lat="48.4373" lon="7.25409">
        <ele>520.73</ele>
        <time>2021-06-23T12:00:15Z</time>
      </trkpt>
      <trkpt lat="48.43739" lon="7.25383">
        <ele>519.92</ele>
        <time>2021-06-23T12:00:18Z</time>
      </trkpt>
      <trkpt lat="48.4375" lon="7.25359">
        <ele>520.12</ele>
        <time>2021-06-23T12:00:21Z</time>
      </trkpt>
      <trkpt lat="48.43757" lon="7.25335">
        <ele>522.14</ele>
        <time>2021-06-23T12:00:24Z</time>
      </trkpt>
      <trkpt lat="48.43762" lon="7.25303">
        <ele>523.71</ele>
        <time>2021-06-23T12:00:26Z</time>
      </trkpt>
      <trkpt lat="48.43767" lon="7.25217">
        <ele>518.05</ele>
        <time>2021-06-23T12:00:29Z</time>
      </trkpt>
      <trkpt lat="48.43772" lon="7.25191">
        <ele>515.9</ele>
        <time>2021-06-23T12:00:32Z</time>
      </trkpt>
      <trkpt lat="48.43773" lon="7.25169">
        <ele>514.44</ele>
        <time>2021-06-23T12:00:34Z</time>
      </trkpt>
      <trkpt lat="48.43769" lon="7.25128">
        <ele>514.19</ele>
        <time>2021-06-23T12:00:37Z</time>
      </trkpt>
      <trkpt lat="48.43769" lon="7.25114">
        <ele>514.67</ele>
        <time>2021-06-23T12:00:40Z</time>
      </trkpt>
      <trkpt lat="48.43772" lon="7.25102">
        <ele>515.03</ele>
        <time>2021-06-23T12:00:43Z</time>
      </trkpt>
      <trkpt lat="48.43778" lon="7.25092">
        <ele>515.34</ele>
        <time>2021-06-23T12:00:45Z</time>
      </trkpt>
      <trkpt lat="48.43804" lon="7.25063">
        <ele>515.45</ele>
        <time>2021-06-23T12:00:48Z</time>
      </trkpt>
      <trkpt lat="48.43933" lon="7.24933">
        <ele>507.91</ele>
        <time>2021-06-23T12:00:51Z</time>
      </trkpt>
      <trkpt lat="48.43953" lon="7.24906">
        <ele>508.01</ele>
        <time>2021-06-23T12:00:53Z</time>
      </trkpt>
      <trkpt lat="48.43965" lon="7.24881">
        <ele>508.53</ele>
        <time>2021-06-23T12:00:56Z</time>
      </trkpt>
      <trkpt lat="48.43979" lon="7.24821">
        <ele>503.55</ele>
        <time>2021-06-23T12:00:59Z</time>
      </trkpt>
      <trkpt lat="48.43987" lon="7.248">
        <ele>501.67</ele>
        <time>2021-06-23T12:01:01Z</time>
      </trkpt>
      <trkpt lat="48.44009" lon="7.24755">
        <ele>498.04</ele>
        <time>2021-06-23T12:01:04Z</time>
      </trkpt>
      <trkpt lat="48.44123" lon="7.24599">
        <ele>485.13</ele>
        <time>2021-06-23T12:01:07Z</time>
      </trkpt>
      <trkpt lat="48.44133" lon="7.2458">
        <ele>483.8</ele>
        <time>2021-06-23T12:01:10Z</time>
      </trkpt>
      <trkpt lat="48.44139" lon="7.24557">
        <ele>482.18</ele>
        <time>2021-06-23T12:01:12Z</time>
      </trkpt>
      <trkpt lat="48.44149" lon="7.24489">
        <ele>479.95</ele>
        <time>2021-06-23T12:01:15Z</time>
      </trkpt>
      <trkpt lat="48.44155" lon="7.24463">
        <ele>479.28</ele>
        <time>2021-06-23T12:01:18Z</time>
      </trkpt>
      <trkpt lat="48.44168" lon="7.24424">
        <ele>481.26</ele>
        <time>2021-06-23T12:01:20Z</time>
      </trkpt>
      <trkpt lat="48.44178" lon="7.24378">
        <ele>483.64</ele>
        <time>2021-06-23T12:01:23Z</time>
      </trkpt>
      <trkpt lat="48.44178" lon="7.24378">
        <ele>483.64</ele>
        <time>2021-06-23T12:01:23Z</time>
      </trkpt>
      <trkpt lat="48.44183" lon="7.24343">
        <ele>483.49</ele>
        <time>2021-06-23T12:01:26Z</time>
      </trkpt>
      <trkpt lat="48.44187" lon="7.24276">
        <ele>480.78</ele>
        <time>2021-06-23T12:01:29Z</time>
      </trkpt>
      <trkpt lat="48.44187" lon="7.2422">
        <ele>478.15</ele>
        <time>2021-06-23T12:01:31Z</time>
      </trkpt>
      <trkpt lat="48.44184" lon="7.24164">
        <ele>476.2</ele>
        <time>2021-06-23T12:01:34Z</time>
      </trkpt>
      <trkpt lat="48.44187" lon="7.24137">
        <ele>474.52</ele>
        <time>2021-06-23T12:01:37Z</time>
      </trkpt>
      <trkpt lat="48.44195" lon="7.24114">
        <ele>474.34</ele>
        <time>2021-06-23T12:01:39Z</time>
      </trkpt>
      <trkpt lat="48.4426" lon="7.23977">
        <ele>474.4</ele>
        <time>2021-06-23T12:01:42Z</time>
      </trkpt>
      <trkpt lat="48.44289" lon="7.23925">
        <ele>470.52</ele>
        <time>2021-06-23T12:01:45Z</time>
      </trkpt>
      <trkpt lat="48.44309" lon="7.23899">
        <ele>468.39</ele>
        <time>2021-06-23T12:01:47Z</time>
      </trkpt>
      <trkpt lat="48.44335" lon="7.23874">
        <ele>473.69</ele>
        <time>2021-06-23T12:01:50Z</time>
      </trkpt>
      <trkpt lat="48.44357" lon="7.23847">
        <ele>475.59</ele>
        <time>2021-06-23T12:01:53Z</time>
      </trkpt>
      <trkpt lat="48.44407" lon="7.23766">
        <ele>469.57</ele>
        <time>2021-06-23T12:01:55Z</time>
      </trkpt>
      <trkpt lat="48.44426" lon="7.23723">
        <ele>463.04</ele>
        <time>2021-06-23T12:01:58Z</time>
      </trkpt>
      <trkpt lat="48.4445" lon="7.23681">
        <ele>457.73</ele>
        <time>2021-06-23T12:02:01Z</time>
      </trkpt>
      <trkpt lat="48.4445" lon="7.23681">
        <ele>457.73</ele>
        <time>2021-06-23T12:02:01Z</time>
      </trkpt>
      <trkpt lat="48.44468" lon="7.23643">
        <ele>450.59</ele>
        <time>2021-06-23T12:02:03Z</time>
      </trkpt>
      <trkpt lat="48.44481" lon="7.23664">
        <ele>456.5</ele>
        <time>2021-06-23T12:02:05Z</time>
      </trkpt>
      <trkpt lat="48.4449" lon="7.2367">
        <ele>458.86</ele>
        <time>2021-06-23T12:02:07Z</time>
      </trkpt>
      <trkpt lat="48.44501" lon="7.23673">
        <ele>461.12</ele>
        <time>2021-06-23T12:02:09Z</time>
      </trkpt>
      <trkpt lat="48.44511" lon="7.23669">
        <ele>463.92</ele>
        <time>2021-06-23T12:02:12Z</time>
      </trkpt>
      <trkpt lat="48.4452" lon="7.23659">
        <ele>465.36</ele>
        <time>2021-06-23T12:02:14Z</time>
      </trkpt>
      <trkpt lat="48.44547" lon="7.23618">
        <ele>466.14</ele>
        <time>2021-06-23T12:02:16Z</time>
      </trkpt>
      <trkpt lat="48.44588" lon="7.23568">
        <ele>471.48</ele>
        <time>2021-06-23T12:02:18Z</time>
      </trkpt>
      <trkpt lat="48.44624" lon="7.23541">
        <ele>478.56</ele>
        <time>2021-06-23T12:02:21Z</time>
      </trkpt>
      <trkpt lat="48.44746" lon="7.23507">
        <ele>500.16</ele>
        <time>2021-06-23T12:02:23Z</time>
      </trkpt>
      <trkpt lat="48.44761" lon="7.23496">
        <ele>501.36</ele>
        <time>2021-06-23T12:02:25Z</time>
      </trkpt>
      <trkpt lat="48.44769" lon="7.23488">
        <ele>501.2</ele>
        <time>2021-06-23T12:02:27Z</time>
      </trkpt>
      <trkpt lat="48.44791" lon="7.23449">
        <ele>499.95</ele>
        <time>2021-06-23T12:02:30Z</time>
      </trkpt>
      <trkpt lat="48.44805" lon="7.23428">
        <ele>501.08</ele>
        <time>2021-06-23T12:02:32Z</time>
      </trkpt>
      <trkpt lat="48.44815" lon="7.23417">
        <ele>502.05</ele>
        <time>2021-06-23T12:02:34Z</time>
      </trkpt>
      <trkpt lat="48.44851" lon="7.23392">
        <ele>508.12</ele>
        <time>2021-06-23T12:02:36Z</time>
      </trkpt>
      <trkpt lat="48.44887" lon="7.23347">
        <ele>508.38</ele>
        <time>2021-06-23T12:02:38Z</time>
      </trkpt>
      <trkpt lat="48.44898" lon="7.23338">
        <ele>507.35</ele>
        <time>2021-06-23T12:02:41Z</time>
      </trkpt>
      <trkpt lat="48.44905" lon="7.23339">
        <ele>507.79</ele>
        <time>2021-06-23T12:02:43Z</time>
      </trkpt>
      <trkpt lat="48.4491" lon="7.23343">
        <ele>508.84</ele>
        <time>2021-06-23T12:02:45Z</time>
      </trkpt>
      <trkpt lat="48.44912" lon="7.23352">
        <ele>510.91</ele>
        <time>2021-06-23T12:02:47Z</time>
      </trkpt>
      <trkpt lat="48.44912" lon="7.23364">
        <ele>513.63</ele>
        <time>2021-06-23T12:02:50Z</time>
      </trkpt>
      <trkpt lat="48.44906" lon="7.23376">
        <ele>516.49</ele>
        <time>2021-06-23T12:02:52Z</time>
      </trkpt>
      <trkpt lat="48.44875" lon="7.23407">
        <ele>516.65</ele>
        <time>2021-06-23T12:02:54Z</time>
      </trkpt>
      <trkpt lat="48.44845" lon="7.23446">
        <ele>512.82</ele>
        <time>2021-06-23T12:02:56Z</time>
      </trkpt>
      <trkpt lat="48.44833" lon="7.23469">
        <ele>513.24</ele>
        <time>2021-06-23T12:02:59Z</time>
      </trkpt>
      <trkpt lat="48.44815" lon="7.23513">
        <ele>519.11</ele>
        <time>2021-06-23T12:03:01Z</time>
      </trkpt>
      <trkpt lat="48.44791" lon="7.23579">
        <ele>529.87</ele>
        <time>2021-06-23T12:03:03Z</time>
      </trkpt>
      <trkpt lat="48.44779" lon="7.23603">
        <ele>532.19</ele>
        <time>2021-06-23T12:03:05Z</time>
      </trkpt>
      <trkpt lat="48.44719" lon="7.23692">
        <ele>531.72</ele>
        <time>2021-06-23T12:03:08Z</time>
      </trkpt>
      <trkpt lat="48.4471" lon="7.23709">
        <ele>531.42</ele>
        <time>2021-06-23T12:03:10Z</time>
      </trkpt>
      <trkpt lat="48.44703" lon="7.23731">
        <ele>530.88</ele>
        <time>2021-06-23T12:03:12Z</time>
      </trkpt>
      <trkpt lat="48.44702" lon="7.23751">
        <ele>530.99</ele>
        <time>2021-06-23T12:03:14Z</time>
      </trkpt>
      <trkpt lat="48.44707" lon="7.23773">
        <ele>532.02</ele>
        <time>2021-06-23T12:03:16Z</time>
      </trkpt>
      <trkpt lat="48.448" lon="7.23981">
        <ele>553.55</ele>
        <time>2021-06-23T12:03:19Z</time>
      </trkpt>
      <trkpt lat="48.44807" lon="7.24021">
        <ele>557.55</ele>
        <time>2021-06-23T12:03:21Z</time>
      </trkpt>
      <trkpt lat="48.44802" lon="7.24047">
        <ele>561.83</ele>
        <time>2021-06-23T12:03:23Z</time>
      </trkpt>
      <trkpt lat="48.44788" lon="7.24067">
        <ele>564.2</ele>
        <time>2021-06-23T12:03:25Z</time>
      </trkpt>
      <trkpt lat="48.44772" lon="7.24075">
        <ele>564.02</ele>
        <time>2021-06-23T12:03:28Z</time>
      </trkpt>
      <trkpt lat="48.44618" lon="7.24068">
        <ele>563.93</ele>
        <time>2021-06-23T12:03:30Z</time>
      </trkpt>
      <trkpt lat="48.44581" lon="7.24064">
        <ele>564.77</ele>
        <time>2021-06-23T12:03:32Z</time>
      </trkpt>
      <trkpt lat="48.44565" lon="7.24068">
        <ele>566.34</ele>
        <time>2021-06-23T12:03:34Z</time>
      </trkpt>
      <trkpt lat="48.44553" lon="7.24077">
        <ele>567.86</ele>
        <time>2021-06-23T12:03:37Z</time>
      </trkpt>
      <trkpt lat="48.44545" lon="7.24089">
        <ele>568.73</ele>
        <time>2021-06-23T12:03:39Z</time>
      </trkpt>
      <trkpt lat="48.44537" lon="7.24106">
        <ele>570.8</ele>
        <time>2021-06-23T12:03:41Z</time>
      </trkpt>
      <trkpt lat="48.44521" lon="7.24175">
        <ele>578.03</ele>
        <time>2021-06-23T12:03:43Z</time>
      </trkpt>
      <trkpt lat="48.44484" lon="7.24389">
        <ele>583.35</ele>
        <time>2021-06-23T12:03:46Z</time>
      </trkpt>
      <trkpt lat="48.4448" lon="7.24435">
        <ele>587.82</ele>
        <time>2021-06-23T12:03:48Z</time>
      </trkpt>
      <trkpt lat="48.4448" lon="7.24478">
        <ele>591.4</ele>
        <time>2021-06-23T12:03:50Z</time>
      </trkpt>
      <trkpt lat="48.44485" lon="7.24543">
        <ele>594.51</ele>
        <time>2021-06-23T12:03:52Z</time>
      </trkpt>
      <trkpt lat="48.445" lon="7.24616">
        <ele>596.77</ele>
        <time>2021-06-23T12:03:54Z</time>
      </trkpt>
      <trkpt lat="48.44523" lon="7.24688">
        <ele>602.97</ele>
        <time>2021-06-23T12:03:57Z</time>
      </trkpt>
      <trkpt lat="48.44547" lon="7.24751">
        <ele>614.03</ele>
        <time>2021-06-23T12:03:59Z</time>
      </trkpt>
      <trkpt lat="48.44584" lon="7.24828">
        <ele>625.99</ele>
        <time>2021-06-23T12:04:01Z</time>
      </trkpt>
      <trkpt lat="48.44591" lon="7.24845">
        <ele>627.53</ele>
        <time>2021-06-23T12:04:03Z</time>
      </trkpt>
      <trkpt lat="48.44593" lon="7.24867">
        <ele>627.36</ele>
        <time>2021-06-23T12:04:06Z</time>
      </trkpt>
      <trkpt lat="48.44591" lon="7.24894">
        <ele>626.68</ele>
        <time>2021-06-23T12:04:08Z</time>
      </trkpt>
      <trkpt lat="48.44586" lon="7.24919">
        <ele>627.24</ele>
        <time>2021-06-23T12:04:10Z</time>
      </trkpt>
      <trkpt lat="48.44567" lon="7.24961">
        <ele>627.41</ele>
        <time>2021-06-23T12:04:12Z</time>
      </trkpt>
      <trkpt lat="48.44553" lon="7.24986">
        <ele>627.99</ele>
        <time>2021-06-23T12:04:15Z</time>
      </trkpt>
      <trkpt lat="48.44546" lon="7.25003">
        <ele>630.88</ele>
        <time>2021-06-23T12:04:17Z</time>
      </trkpt>
      <trkpt lat="48.44549" lon="7.25018">
        <ele>637.28</ele>
        <time>2021-06-23T12:04:20Z</time>
      </trkpt>
      <trkpt lat="48.4456" lon="7.25025">
        <ele>644.15</ele>
        <time>2021-06-23T12:04:23Z</time>
      </trkpt>
      <trkpt lat="48.44573" lon="7.25016">
        <ele>644.06</ele>
        <time>2021-06-23T12:04:26Z</time>
      </trkpt>
      <trkpt lat="48.44584" lon="7.24991">
        <ele>639.2</ele>
        <time>2021-06-23T12:04:29Z</time>
      </trkpt>
      <trkpt lat="48.44623" lon="7.24885">
        <ele>640.06</ele>
        <time>2021-06-23T12:04:32Z</time>
      </trkpt>
      <trkpt lat="48.44628" lon="7.24859">
        <ele>643</ele>
        <time>2021-06-23T12:04:35Z</time>
      </trkpt>
      <trkpt lat="48.44628" lon="7.24831">
        <ele>645.42</ele>
        <time>2021-06-23T12:04:38Z</time>
      </trkpt>
      <trkpt lat="48.44618" lon="7.24778">
        <ele>645.75</ele>
        <time>2021-06-23T12:04:41Z</time>
      </trkpt>
      <trkpt lat="48.44598" lon="7.24723">
        <ele>639.72</ele>
        <time>2021-06-23T12:04:44Z</time>
      </trkpt>
      <trkpt lat="48.44593" lon="7.24697">
        <ele>637.91</ele>
        <time>2021-06-23T12:04:47Z</time>
      </trkpt>
      <trkpt lat="48.44597" lon="7.24636">
        <ele>640.91</ele>
        <time>2021-06-23T12:04:50Z</time>
      </trkpt>
      <trkpt lat="48.44609" lon="7.24569">
        <ele>645.64</ele>
        <time>2021-06-23T12:04:53Z</time>
      </trkpt>
      <trkpt lat="48.44645" lon="7.24454">
        <ele>645.64</ele>
        <time>2021-06-23T12:04:56Z</time>
      </trkpt>
      <trkpt lat="48.44655" lon="7.24432">
        <ele>646.41</ele>
        <time>2021-06-23T12:04:59Z</time>
      </trkpt>
      <trkpt lat="48.4467" lon="7.24418">
        <ele>647.66</ele>
        <time>2021-06-23T12:05:02Z</time>
      </trkpt>
      <trkpt lat="48.44694" lon="7.24405">
        <ele>649.27</ele>
        <time>2021-06-23T12:05:05Z</time>
      </trkpt>
      <trkpt lat="48.44727" lon="7.24402">
        <ele>654.06</ele>
        <time>2021-06-23T12:05:08Z</time>
      </trkpt>
      <trkpt lat="48.44851" lon="7.24426">
        <ele>655.9</ele>
        <time>2021-06-23T12:05:11Z</time>
      </trkpt>
      <trkpt lat="48.44915" lon="7.24447">
        <ele>668.66</ele>
        <time>2021-06-23T12:05:14Z</time>
      </trkpt>
      <trkpt lat="48.44928" lon="7.24445">
        <ele>671.07</ele>
        <time>2021-06-23T12:05:17Z</time>
      </trkpt>
      <trkpt lat="48.44946" lon="7.24431">
        <ele>671.07</ele>
        <time>2021-06-23T12:05:20Z</time>
      </trkpt>
      <trkpt lat="48.44965" lon="7.24411">
        <ele>673.11</ele>
        <time>2021-06-23T12:05:23Z</time>
      </trkpt>
      <trkpt lat="48.44988" lon="7.24381">
        <ele>675.32</ele>
        <time>2021-06-23T12:05:26Z</time>
      </trkpt>
      <trkpt lat="48.45016" lon="7.24319">
        <ele>675.05</ele>
        <time>2021-06-23T12:05:29Z</time>
      </trkpt>
      <trkpt lat="48.45061" lon="7.24245">
        <ele>680.14</ele>
        <time>2021-06-23T12:05:32Z</time>
      </trkpt>
      <trkpt lat="48.45084" lon="7.24215">
        <ele>683.17</ele>
        <time>2021-06-23T12:05:35Z</time>
      </trkpt>
      <trkpt lat="48.45113" lon="7.24171">
        <ele>682.99</ele>
        <time>2021-06-23T12:05:38Z</time>
      </trkpt>
      <trkpt lat="48.45143" lon="7.24128">
        <ele>687.85</ele>
        <time>2021-06-23T12:05:41Z</time>
      </trkpt>
      <trkpt lat="48.45151" lon="7.2412">
        <ele>689.49</ele>
        <time>2021-06-23T12:05:44Z</time>
      </trkpt>
      <trkpt lat="48.45163" lon="7.24114">
        <ele>690.59</ele>
        <time>2021-06-23T12:05:47Z</time>
      </trkpt>
      <trkpt lat="48.45175" lon="7.24119">
        <ele>690.09</ele>
        <time>2021-06-23T12:05:50Z</time>
      </trkpt>
      <trkpt lat="48.45187" lon="7.24136">
        <ele>689.71</ele>
        <time>2021-06-23T12:05:53Z</time>
      </trkpt>
      <trkpt lat="48.45212" lon="7.24186">
        <ele>693.62</ele>
        <time>2021-06-23T12:05:56Z</time>
      </trkpt>
      <trkpt lat="48.4523" lon="7.24214">
        <ele>698.22</ele>
        <time>2021-06-23T12:05:59Z</time>
      </trkpt>
      <trkpt lat="48.45425" lon="7.24418">
        <ele>715.57</ele>
        <time>2021-06-23T12:06:02Z</time>
      </trkpt>
      <trkpt lat="48.45462" lon="7.2446">
        <ele>718.17</ele>
        <time>2021-06-23T12:06:05Z</time>
      </trkpt>
      <trkpt lat="48.45502" lon="7.24525">
        <ele>722.39</ele>
        <time>2021-06-23T12:06:08Z</time>
      </trkpt>
      <trkpt lat="48.4553" lon="7.24588">
        <ele>726.57</ele>
        <time>2021-06-23T12:06:11Z</time>
      </trkpt>
      <trkpt lat="48.4554" lon="7.24617">
        <ele>729.54</ele>
        <time>2021-06-23T12:06:14Z</time>
      </trkpt>
      <trkpt lat="48.45547" lon="7.24656">
        <ele>733.04</ele>
        <time>2021-06-23T12:06:17Z</time>
      </trkpt>
      <trkpt lat="48.45545" lon="7.2468">
        <ele>735.94</ele>
        <time>2021-06-23T12:06:20Z</time>
      </trkpt>
      <trkpt lat="48.45541" lon="7.24692">
        <ele>737.8</ele>
        <time>2021-06-23T12:06:23Z</time>
      </trkpt>
      <trkpt lat="48.45531" lon="7.247">
        <ele>740.16</ele>
        <time>2021-06-23T12:06:26Z</time>
      </trkpt>
      <trkpt lat="48.45524" lon="7.24701">
        <ele>741.18</ele>
        <time>2021-06-23T12:06:29Z</time>
      </trkpt>
      <trkpt lat="48.45516" lon="7.24698">
        <ele>742.08</ele>
        <time>2021-06-23T12:06:32Z</time>
      </trkpt>
      <trkpt lat="48.45492" lon="7.24662">
        <ele>742.59</ele>
        <time>2021-06-23T12:06:35Z</time>
      </trkpt>
      <trkpt lat="48.4546" lon="7.24625">
        <ele>744.62</ele>
        <time>2021-06-23T12:06:38Z</time>
      </trkpt>
      <trkpt lat="48.45432" lon="7.24603">
        <ele>745.97</ele>
        <time>2021-06-23T12:06:41Z</time>
      </trkpt>
      <trkpt lat="48.45407" lon="7.24592">
        <ele>748.73</ele>
        <time>2021-06-23T12:06:44Z</time>
      </trkpt>
      <trkpt lat="48.45183" lon="7.24576">
        <ele>769.38</ele>
        <time>2021-06-23T12:06:47Z</time>
      </trkpt>
      <trkpt lat="48.4515" lon="7.24578">
        <ele>769.03</ele>
        <time>2021-06-23T12:06:50Z</time>
      </trkpt>
      <trkpt lat="48.45137" lon="7.24585">
        <ele>768.95</ele>
        <time>2021-06-23T12:06:53Z</time>
      </trkpt>
      <trkpt lat="48.4511" lon="7.24619">
        <ele>769.38</ele>
        <time>2021-06-23T12:06:56Z</time>
      </trkpt>
      <trkpt lat="48.45088" lon="7.24682">
        <ele>775.49</ele>
        <time>2021-06-23T12:06:59Z</time>
      </trkpt>
      <trkpt lat="48.45061" lon="7.24746">
        <ele>778.02</ele>
        <time>2021-06-23T12:07:02Z</time>
      </trkpt>
      <trkpt lat="48.45061" lon="7.24756">
        <ele>779.31</ele>
        <time>2021-06-23T12:07:05Z</time>
      </trkpt>
      <trkpt lat="48.45064" lon="7.24766">
        <ele>781.84</ele>
        <time>2021-06-23T12:07:08Z</time>
      </trkpt>
      <trkpt lat="48.45072" lon="7.24767">
        <ele>783.93</ele>
        <time>2021-06-23T12:07:11Z</time>
      </trkpt>
      <trkpt lat="48.45082" lon="7.24762">
        <ele>785.35</ele>
        <time>2021-06-23T12:07:14Z</time>
      </trkpt>
      <trkpt lat="48.45151" lon="7.24676">
        <ele>787.77</ele>
        <time>2021-06-23T12:07:17Z</time>
      </trkpt>
      <trkpt lat="48.45168" lon="7.24664">
        <ele>788.49</ele>
        <time>2021-06-23T12:07:20Z</time>
      </trkpt>
      <trkpt lat="48.45187" lon="7.24664">
        <ele>786.46</ele>
        <time>2021-06-23T12:07:23Z</time>
      </trkpt>
      <trkpt lat="48.45204" lon="7.24674">
        <ele>785.9</ele>
        <time>2021-06-23T12:07:26Z</time>
      </trkpt>
      <trkpt lat="48.45285" lon="7.24739">
        <ele>784.98</ele>
        <time>2021-06-23T12:07:29Z</time>
      </trkpt>
      <trkpt lat="48.45331" lon="7.24807">
        <ele>789.14</ele>
        <time>2021-06-23T12:07:32Z</time>
      </trkpt>
      <trkpt lat="48.45349" lon="7.24842">
        <ele>788.79</ele>
        <time>2021-06-23T12:07:35Z</time>
      </trkpt>
      <trkpt lat="48.45355" lon="7.24857">
        <ele>788.77</ele>
        <time>2021-06-23T12:07:38Z</time>
      </trkpt>
      <trkpt lat="48.45365" lon="7.24936">
        <ele>791.02</ele>
        <time>2021-06-23T12:07:41Z</time>
      </trkpt>
      <trkpt lat="48.45403" lon="7.25289">
        <ele>803.24</ele>
        <time>2021-06-23T12:07:44Z</time>
      </trkpt>
      <trkpt lat="48.45404" lon="7.25317">
        <ele>804.09</ele>
        <time>2021-06-23T12:07:47Z</time>
      </trkpt>
      <trkpt lat="48.45404" lon="7.25366">
        <ele>805.05</ele>
        <time>2021-06-23T12:07:50Z</time>
      </trkpt>
      <trkpt lat="48.45401" lon="7.25386">
        <ele>804.58</ele>
        <time>2021-06-23T12:07:53Z</time>
      </trkpt>
      <trkpt lat="48.45396" lon="7.25416">
        <ele>804.16</ele>
        <time>2021-06-23T12:07:56Z</time>
      </trkpt>
      <trkpt lat="48.45385" lon="7.25443">
        <ele>803.4</ele>
        <time>2021-06-23T12:07:59Z</time>
      </trkpt>
      <trkpt lat="48.45364" lon="7.25471">
        <ele>804.36</ele>
        <time>2021-06-23T12:08:02Z</time>
      </trkpt>
      <trkpt lat="48.45348" lon="7.25486">
        <ele>807.82</ele>
        <time>2021-06-23T12:08:05Z</time>
      </trkpt>
      <trkpt lat="48.45322" lon="7.25499">
        <ele>812.84</ele>
        <time>2021-06-23T12:08:08Z</time>
      </trkpt>
      <trkpt lat="48.45307" lon="7.25502">
        <ele>814.54</ele>
        <time>2021-06-23T12:08:11Z</time>
      </trkpt>
      <trkpt lat="48.45261" lon="7.25505">
        <ele>820.54</ele>
        <time>2021-06-23T12:08:14Z</time>
      </trkpt>
      <trkpt lat="48.45144" lon="7.25507">
        <ele>826.36</ele>
        <time>2021-06-23T12:08:17Z</time>
      </trkpt>
      <trkpt lat="48.45125" lon="7.25515">
        <ele>828.37</ele>
        <time>2021-06-23T12:08:20Z</time>
      </trkpt>
      <trkpt lat="48.45012" lon="7.25572">
        <ele>835.15</ele>
        <time>2021-06-23T12:08:23Z</time>
      </trkpt>
      <trkpt lat="48.44972" lon="7.25578">
        <ele>837.21</ele>
        <time>2021-06-23T12:08:26Z</time>
      </trkpt>
      <trkpt lat="48.4492" lon="7.25578">
        <ele>837.73</ele>
        <time>2021-06-23T12:08:29Z</time>
      </trkpt>
      <trkpt lat="48.44885" lon="7.25587">
        <ele>837.23</ele>
        <time>2021-06-23T12:08:32Z</time>
      </trkpt>
      <trkpt lat="48.4486" lon="7.25599">
        <ele>837.54</ele>
        <time>2021-06-23T12:08:35Z</time>
      </trkpt>
      <trkpt lat="48.44834" lon="7.25615">
        <ele>839.4</ele>
        <time>2021-06-23T12:08:38Z</time>
      </trkpt>
      <trkpt lat="48.4479" lon="7.25654">
        <ele>840.96</ele>
        <time>2021-06-23T12:08:41Z</time>
      </trkpt>
      <trkpt lat="48.44755" lon="7.25704">
        <ele>843.88</ele>
        <time>2021-06-23T12:08:44Z</time>
      </trkpt>
      <trkpt lat="48.44701" lon="7.25802">
        <ele>854.98</ele>
        <time>2021-06-23T12:08:47Z</time>
      </trkpt>
      <trkpt lat="48.44686" lon="7.25822">
        <ele>858.38</ele>
        <time>2021-06-23T12:08:50Z</time>
      </trkpt>
      <trkpt lat="48.44661" lon="7.25844">
        <ele>860.35</ele>
        <time>2021-06-23T12:08:53Z</time>
      </trkpt>
      <trkpt lat="48.44641" lon="7.25867">
        <ele>857.24</ele>
        <time>2021-06-23T12:08:56Z</time>
      </trkpt>
      <trkpt lat="48.44637" lon="7.25902">
        <ele>856.99</ele>
        <time>2021-06-23T12:08:59Z</time>
      </trkpt>
      <trkpt lat="48.44641" lon="7.2593">
        <ele>858.57</ele>
        <time>2021-06-23T12:09:02Z</time>
      </trkpt>
      <trkpt lat="48.44663" lon="7.25989">
        <ele>869.54</ele>
        <time>2021-06-23T12:09:05Z</time>
      </trkpt>
      <trkpt lat="48.44675" lon="7.2605">
        <ele>878.64</ele>
        <time>2021-06-23T12:09:08Z</time>
      </trkpt>
      <trkpt lat="48.44673" lon="7.2615">
        <ele>879.16</ele>
        <time>2021-06-23T12:09:11Z</time>
      </trkpt>
      <trkpt lat="48.44682" lon="7.26266">
        <ele>888.02</ele>
        <time>2021-06-23T12:09:14Z</time>
      </trkpt>
      <trkpt lat="48.44678" lon="7.26333">
        <ele>890.67</ele>
        <time>2021-06-23T12:09:17Z</time>
      </trkpt>
      <trkpt lat="48.44666" lon="7.26398">
        <ele>894.05</ele>
        <time>2021-06-23T12:09:20Z</time>
      </trkpt>
      <trkpt lat="48.44645" lon="7.26465">
        <ele>898.41</ele>
        <time>2021-06-23T12:09:23Z</time>
      </trkpt>
      <trkpt lat="48.44614" lon="7.26533">
        <ele>901.44</ele>
        <time>2021-06-23T12:09:26Z</time>
      </trkpt>
      <trkpt lat="48.4458" lon="7.26583">
        <ele>906.55</ele>
        <time>2021-06-23T12:09:29Z</time>
      </trkpt>
      <trkpt lat="48.4454" lon="7.26605">
        <ele>907.95</ele>
        <time>2021-06-23T12:09:32Z</time>
      </trkpt>
      <trkpt lat="48.44449" lon="7.26617">
        <ele>911.25</ele>
        <time>2021-06-23T12:09:35Z</time>
      </trkpt>
      <trkpt lat="48.44422" lon="7.26628">
        <ele>911.86</ele>
        <time>2021-06-23T12:09:38Z</time>
      </trkpt>
      <trkpt lat="48.4439" lon="7.26672">
        <ele>912.39</ele>
        <time>2021-06-23T12:09:41Z</time>
      </trkpt>
      <trkpt lat="48.44377" lon="7.26727">
        <ele>916.31</ele>
        <time>2021-06-23T12:09:44Z</time>
      </trkpt>
      <trkpt lat="48.44354" lon="7.26957">
        <ele>932.76</ele>
        <time>2021-06-23T12:09:47Z</time>
      </trkpt>
      <trkpt lat="48.44333" lon="7.27062">
        <ele>937.94</ele>
        <time>2021-06-23T12:09:50Z</time>
      </trkpt>
      <trkpt lat="48.44321" lon="7.27114">
        <ele>941.13</ele>
        <time>2021-06-23T12:09:53Z</time>
      </trkpt>
      <trkpt lat="48.44315" lon="7.27167">
        <ele>943.72</ele>
        <time>2021-06-23T12:09:56Z</time>
      </trkpt>
      <trkpt lat="48.44328" lon="7.27228">
        <ele>952.07</ele>
        <time>2021-06-23T12:09:59Z</time>
      </trkpt>
      <trkpt lat="48.44345" lon="7.27283">
        <ele>954.43</ele>
        <time>2021-06-23T12:10:02Z</time>
      </trkpt>
      <trkpt lat="48.44475" lon="7.27466">
        <ele>973.01</ele>
        <time>2021-06-23T12:10:04Z</time>
      </trkpt>
      <trkpt lat="48.4455" lon="7.27589">
        <ele>981.05</ele>
        <time>2021-06-23T12:10:07Z</time>
      </trkpt>
      <trkpt lat="48.44582" lon="7.27661">
        <ele>979.38</ele>
        <time>2021-06-23T12:10:10Z</time>
      </trkpt>
      <trkpt lat="48.44636" lon="7.27797">
        <ele>988</ele>
        <time>2021-06-23T12:10:13Z</time>
      </trkpt>
      <trkpt lat="48.44703" lon="7.2802">
        <ele>981.75</ele>
        <time>2021-06-23T12:10:16Z</time>
      </trkpt>
      <trkpt lat="48.44712" lon="7.28065">
        <ele>982.77</ele>
        <time>2021-06-23T12:10:19Z</time>
      </trkpt>
      <trkpt lat="48.44715" lon="7.28095">
        <ele>984.51</ele>
        <time>2021-06-23T12:10:22Z</time>
      </trkpt>
      <trkpt lat="48.44715" lon="7.28125">
        <ele>985.23</ele>
        <time>2021-06-23T12:10:25Z</time>
      </trkpt>
      <trkpt lat="48.44709" lon="7.28176">
        <ele>985.37</ele>
        <time>2021-06-23T12:10:28Z</time>
      </trkpt>
      <trkpt lat="48.44696" lon="7.28231">
        <ele>985.98</ele>
        <time>2021-06-23T12:10:32Z</time>
      </trkpt>
      <trkpt lat="48.44696" lon="7.28231">
        <ele>985.98</ele>
        <time>2021-06-23T12:10:32Z</time>
      </trkpt>
      <trkpt lat="48.44679" lon="7.28284">
        <ele>992.31</ele>
        <time>2021-06-23T12:10:36Z</time>
      </trkpt>
      <trkpt lat="48.44619" lon="7.28421">
        <ele>1006.67</ele>
        <time>2021-06-23T12:10:41Z</time>
      </trkpt>
      <trkpt lat="48.44601" lon="7.28452">
        <ele>1007.88</ele>
        <time>2021-06-23T12:10:46Z</time>
      </trkpt>
      <trkpt lat="48.44559" lon="7.28504">
        <ele>1012.65</ele>
        <time>2021-06-23T12:10:50Z</time>
      </trkpt>
      <trkpt lat="48.44537" lon="7.28521">
        <ele>1015.56</ele>
        <time>2021-06-23T12:10:55Z</time>
      </trkpt>
      <trkpt lat="48.44518" lon="7.2853">
        <ele>1017.58</ele>
        <time>2021-06-23T12:11:00Z</time>
      </trkpt>
      <trkpt lat="48.44463" lon="7.28543">
        <ele>1020</ele>
        <time>2021-06-23T12:11:05Z</time>
      </trkpt>
      <trkpt lat="48.44422" lon="7.2855">
        <ele>1023.15</ele>
        <time>2021-06-23T12:11:09Z</time>
      </trkpt>
      <trkpt lat="48.44398" lon="7.28558">
        <ele>1023.54</ele>
        <time>2021-06-23T12:11:14Z</time>
      </trkpt>
      <trkpt lat="48.44386" lon="7.28565">
        <ele>1023.75</ele>
        <time>2021-06-23T12:11:19Z</time>
      </trkpt>
      <trkpt lat="48.4437" lon="7.28579">
        <ele>1023.57</ele>
        <time>2021-06-23T12:11:24Z</time>
      </trkpt>
      <trkpt lat="48.44353" lon="7.28603">
        <ele>1023.91</ele>
        <time>2021-06-23T12:11:28Z</time>
      </trkpt>
      <trkpt lat="48.44338" lon="7.28637">
        <ele>1026.17</ele>
        <time>2021-06-23T12:11:33Z</time>
      </trkpt>
      <trkpt lat="48.4432" lon="7.28687">
        <ele>1027.27</ele>
        <time>2021-06-23T12:11:38Z</time>
      </trkpt>
      <trkpt lat="48.44298" lon="7.28761">
        <ele>1027.61</ele>
        <time>2021-06-23T12:11:43Z</time>
      </trkpt>
      <trkpt lat="48.44281" lon="7.2881">
        <ele>1026.59</ele>
        <time>2021-06-23T12:11:47Z</time>
      </trkpt>
      <trkpt lat="48.44262" lon="7.28862">
        <ele>1024.86</ele>
        <time>2021-06-23T12:11:52Z</time>
      </trkpt>
      <trkpt lat="48.44239" lon="7.28918">
        <ele>1021.97</ele>
        <time>2021-06-23T12:11:57Z</time>
      </trkpt>
      <trkpt lat="48.44073" lon="7.29289">
        <ele>1020.28</ele>
        <time>2021-06-23T12:12:02Z</time>
      </trkpt>
      <trkpt lat="48.4406" lon="7.29313">
        <ele>1020.96</ele>
        <time>2021-06-23T12:12:06Z</time>
      </trkpt>
      <trkpt lat="48.44025" lon="7.29364">
        <ele>1019.89</ele>
        <time>2021-06-23T12:12:11Z</time>
      </trkpt>
      <trkpt lat="48.43984" lon="7.29407">
        <ele>1019</ele>
        <time>2021-06-23T12:12:16Z</time>
      </trkpt>
      <trkpt lat="48.43934" lon="7.29443">
        <ele>1016.37</ele>
        <time>2021-06-23T12:12:21Z</time>
      </trkpt>
      <trkpt lat="48.4388" lon="7.29474">
        <ele>1012.26</ele>
        <time>2021-06-23T12:12:25Z</time>
      </trkpt>
      <trkpt lat="48.43601" lon="7.29584">
        <ele>998.76</ele>
        <time>2021-06-23T12:12:30Z</time>
      </trkpt>
      <trkpt lat="48.43442" lon="7.29667">
        <ele>1008.2</ele>
        <time>2021-06-23T12:12:35Z</time>
      </trkpt>
      <trkpt lat="48.43409" lon="7.29686">
        <ele>1011.42</ele>
        <time>2021-06-23T12:12:40Z</time>
      </trkpt>
      <trkpt lat="48.43336" lon="7.29737">
        <ele>1015.23</ele>
        <time>2021-06-23T12:12:44Z</time>
      </trkpt>
      <trkpt lat="48.43283" lon="7.29778">
        <ele>1014.41</ele>
        <time>2021-06-23T12:12:49Z</time>
      </trkpt>
      <trkpt lat="48.43183" lon="7.29868">
        <ele>1012.6</ele>
        <time>2021-06-23T12:12:54Z</time>
      </trkpt>
      <trkpt lat="48.43125" lon="7.29925">
        <ele>1013.31</ele>
        <time>2021-06-23T12:12:58Z</time>
      </trkpt>
      <trkpt lat="48.43079" lon="7.29974">
        <ele>1013.94</ele>
        <time>2021-06-23T12:13:03Z</time>
      </trkpt>
      <trkpt lat="48.43003" lon="7.30064">
        <ele>1016.77</ele>
        <time>2021-06-23T12:13:08Z</time>
      </trkpt>
      <trkpt lat="48.42936" lon="7.30153">
        <ele>1018.22</ele>
        <time>2021-06-23T12:13:13Z</time>
      </trkpt>
      <trkpt lat="48.42801" lon="7.30379">
        <ele>1017.8</ele>
        <time>2021-06-23T12:13:17Z</time>
      </trkpt>
      <trkpt lat="48.42754" lon="7.30441">
        <ele>1014.11</ele>
        <time>2021-06-23T12:13:22Z</time>
      </trkpt>
      <trkpt lat="48.42651" lon="7.30553">
        <ele>1016.45</ele>
        <time>2021-06-23T12:13:27Z</time>
      </trkpt>
      <trkpt lat="48.42659" lon="7.30573">
        <ele>1010.65</ele>
        <time>2021-06-23T12:13:28Z</time>
      </trkpt>
      <trkpt lat="48.42659" lon="7.30573">
        <ele>1010.65</ele>
        <time>2021-06-23T12:13:28Z</time>
      </trkpt>
      <trkpt lat="48.42706" lon="7.30698">
        <ele>1004.86</ele>
        <time>2021-06-23T12:13:32Z</time>
      </trkpt>
      <trkpt lat="48.42718" lon="7.30742">
        <ele>1001.97</ele>
        <time>2021-06-23T12:13:35Z</time>
      </trkpt>
      <trkpt lat="48.42738" lon="7.30835">
        <ele>997.22</ele>
        <time>2021-06-23T12:13:39Z</time>
      </trkpt>
      <trkpt lat="48.42745" lon="7.30889">
        <ele>992.52</ele>
        <time>2021-06-23T12:13:43Z</time>
      </trkpt>
      <trkpt lat="48.42749" lon="7.30926">
        <ele>989.19</ele>
        <time>2021-06-23T12:13:47Z</time>
      </trkpt>
      <trkpt lat="48.42755" lon="7.31052">
        <ele>981.41</ele>
        <time>2021-06-23T12:13:50Z</time>
      </trkpt>
      <trkpt lat="48.4277" lon="7.31164">
        <ele>973.86</ele>
        <time>2021-06-23T12:13:54Z</time>
      </trkpt>
      <trkpt lat="48.42785" lon="7.31333">
        <ele>959.27</ele>
        <time>2021-06-23T12:13:58Z</time>
      </trkpt>
      <trkpt lat="48.42793" lon="7.31412">
        <ele>955.26</ele>
        <time>2021-06-23T12:14:02Z</time>
      </trkpt>
      <trkpt lat="48.42801" lon="7.31445">
        <ele>953.83</ele>
        <time>2021-06-23T12:14:05Z</time>
      </trkpt>
      <trkpt lat="48.42811" lon="7.31471">
        <ele>954.18</ele>
        <time>2021-06-23T12:14:09Z</time>
      </trkpt>
      <trkpt lat="48.42872" lon="7.31602">
        <ele>956.08</ele>
        <time>2021-06-23T12:14:11Z</time>
      </trkpt>
      <trkpt lat="48.42909" lon="7.31655">
        <ele>953.55</ele>
        <time>2021-06-23T12:14:14Z</time>
      </trkpt>
      <trkpt lat="48.42955" lon="7.31709">
        <ele>954.49</ele>
        <time>2021-06-23T12:14:16Z</time>
      </trkpt>
      <trkpt lat="48.43001" lon="7.31755">
        <ele>945.34</ele>
        <time>2021-06-23T12:14:19Z</time>
      </trkpt>
      <trkpt lat="48.43056" lon="7.31793">
        <ele>938.14</ele>
        <time>2021-06-23T12:14:21Z</time>
      </trkpt>
      <trkpt lat="48.43084" lon="7.31809">
        <ele>934.32</ele>
        <time>2021-06-23T12:14:23Z</time>
      </trkpt>
      <trkpt lat="48.43107" lon="7.31818">
        <ele>934.02</ele>
        <time>2021-06-23T12:14:26Z</time>
      </trkpt>
      <trkpt lat="48.43182" lon="7.31827">
        <ele>931.81</ele>
        <time>2021-06-23T12:14:28Z</time>
      </trkpt>
      <trkpt lat="48.43226" lon="7.31842">
        <ele>929.36</ele>
        <time>2021-06-23T12:14:30Z</time>
      </trkpt>
      <trkpt lat="48.43241" lon="7.31852">
        <ele>927.76</ele>
        <time>2021-06-23T12:14:33Z</time>
      </trkpt>
      <trkpt lat="48.43256" lon="7.31865">
        <ele>926.9</ele>
        <time>2021-06-23T12:14:35Z</time>
      </trkpt>
      <trkpt lat="48.43292" lon="7.3192">
        <ele>927.26</ele>
        <time>2021-06-23T12:14:37Z</time>
      </trkpt>
      <trkpt lat="48.43377" lon="7.3202">
        <ele>922.63</ele>
        <time>2021-06-23T12:14:40Z</time>
      </trkpt>
      <trkpt lat="48.43416" lon="7.32057">
        <ele>926.2</ele>
        <time>2021-06-23T12:14:42Z</time>
      </trkpt>
      <trkpt lat="48.43428" lon="7.32066">
        <ele>925.68</ele>
        <time>2021-06-23T12:14:44Z</time>
      </trkpt>
      <trkpt lat="48.43481" lon="7.32073">
        <ele>921.37</ele>
        <time>2021-06-23T12:14:47Z</time>
      </trkpt>
      <trkpt lat="48.43523" lon="7.32073">
        <ele>919.99</ele>
        <time>2021-06-23T12:14:49Z</time>
      </trkpt>
      <trkpt lat="48.43538" lon="7.32078">
        <ele>919.07</ele>
        <time>2021-06-23T12:14:52Z</time>
      </trkpt>
      <trkpt lat="48.43555" lon="7.3209">
        <ele>918.3</ele>
        <time>2021-06-23T12:14:54Z</time>
      </trkpt>
      <trkpt lat="48.43572" lon="7.32118">
        <ele>916.67</ele>
        <time>2021-06-23T12:14:56Z</time>
      </trkpt>
      <trkpt lat="48.43579" lon="7.32136">
        <ele>915.85</ele>
        <time>2021-06-23T12:14:59Z</time>
      </trkpt>
      <trkpt lat="48.43584" lon="7.32177">
        <ele>913.18</ele>
        <time>2021-06-23T12:15:01Z</time>
      </trkpt>
      <trkpt lat="48.43587" lon="7.32229">
        <ele>909.81</ele>
        <time>2021-06-23T12:15:03Z</time>
      </trkpt>
      <trkpt lat="48.43587" lon="7.32253">
        <ele>909.57</ele>
        <time>2021-06-23T12:15:06Z</time>
      </trkpt>
      <trkpt lat="48.43582" lon="7.32279">
        <ele>909.21</ele>
        <time>2021-06-23T12:15:08Z</time>
      </trkpt>
      <trkpt lat="48.43565" lon="7.32336">
        <ele>912.09</ele>
        <time>2021-06-23T12:15:10Z</time>
      </trkpt>
      <trkpt lat="48.43559" lon="7.32361">
        <ele>910.95</ele>
        <time>2021-06-23T12:15:13Z</time>
      </trkpt>
      <trkpt lat="48.4356" lon="7.32383">
        <ele>907.4</ele>
        <time>2021-06-23T12:15:15Z</time>
      </trkpt>
      <trkpt lat="48.43565" lon="7.324">
        <ele>903.89</ele>
        <time>2021-06-23T12:15:18Z</time>
      </trkpt>
      <trkpt lat="48.4358" lon="7.32418">
        <ele>899.01</ele>
        <time>2021-06-23T12:15:20Z</time>
      </trkpt>
      <trkpt lat="48.43639" lon="7.32469">
        <ele>893.03</ele>
        <time>2021-06-23T12:15:22Z</time>
      </trkpt>
      <trkpt lat="48.43774" lon="7.32598">
        <ele>881.3</ele>
        <time>2021-06-23T12:15:25Z</time>
      </trkpt>
      <trkpt lat="48.43804" lon="7.32614">
        <ele>881.43</ele>
        <time>2021-06-23T12:15:27Z</time>
      </trkpt>
      <trkpt lat="48.43919" lon="7.32642">
        <ele>871.21</ele>
        <time>2021-06-23T12:15:29Z</time>
      </trkpt>
      <trkpt lat="48.43982" lon="7.32647">
        <ele>865.76</ele>
        <time>2021-06-23T12:15:32Z</time>
      </trkpt>
      <trkpt lat="48.44102" lon="7.3263">
        <ele>858.57</ele>
        <time>2021-06-23T12:15:34Z</time>
      </trkpt>
      <trkpt lat="48.44151" lon="7.3263">
        <ele>853.38</ele>
        <time>2021-06-23T12:15:36Z</time>
      </trkpt>
      <trkpt lat="48.44181" lon="7.32632">
        <ele>848.82</ele>
        <time>2021-06-23T12:15:39Z</time>
      </trkpt>
      <trkpt lat="48.44197" lon="7.32637">
        <ele>847.07</ele>
        <time>2021-06-23T12:15:41Z</time>
      </trkpt>
      <trkpt lat="48.44266" lon="7.32673">
        <ele>848.69</ele>
        <time>2021-06-23T12:15:43Z</time>
      </trkpt>
      <trkpt lat="48.4431" lon="7.32708">
        <ele>846.06</ele>
        <time>2021-06-23T12:15:46Z</time>
      </trkpt>
      <trkpt lat="48.44332" lon="7.32735">
        <ele>839.81</ele>
        <time>2021-06-23T12:15:48Z</time>
      </trkpt>
      <trkpt lat="48.44358" lon="7.32756">
        <ele>835.67</ele>
        <time>2021-06-23T12:15:51Z</time>
      </trkpt>
      <trkpt lat="48.44396" lon="7.32771">
        <ele>834.25</ele>
        <time>2021-06-23T12:15:53Z</time>
      </trkpt>
      <trkpt lat="48.44408" lon="7.3278">
        <ele>834.11</ele>
        <time>2021-06-23T12:15:55Z</time>
      </trkpt>
      <trkpt lat="48.44414" lon="7.3279">
        <ele>833.03</ele>
        <time>2021-06-23T12:15:58Z</time>
      </trkpt>
      <trkpt lat="48.44417" lon="7.32804">
        <ele>831.29</ele>
        <time>2021-06-23T12:16:00Z</time>
      </trkpt>
      <trkpt lat="48.44416" lon="7.32819">
        <ele>828.51</ele>
        <time>2021-06-23T12:16:02Z</time>
      </trkpt>
      <trkpt lat="48.4441" lon="7.32834">
        <ele>825.63</ele>
        <time>2021-06-23T12:16:05Z</time>
      </trkpt>
      <trkpt lat="48.44404" lon="7.3284">
        <ele>824.47</ele>
        <time>2021-06-23T12:16:07Z</time>
      </trkpt>
      <trkpt lat="48.44396" lon="7.32843">
        <ele>823.55</ele>
        <time>2021-06-23T12:16:09Z</time>
      </trkpt>
      <trkpt lat="48.4436" lon="7.32851">
        <ele>823.94</ele>
        <time>2021-06-23T12:16:12Z</time>
      </trkpt>
      <trkpt lat="48.44338" lon="7.32866">
        <ele>824.84</ele>
        <time>2021-06-23T12:16:14Z</time>
      </trkpt>
      <trkpt lat="48.44315" lon="7.32885">
        <ele>826.87</ele>
        <time>2021-06-23T12:16:17Z</time>
      </trkpt>
      <trkpt lat="48.44289" lon="7.32922">
        <ele>824.05</ele>
        <time>2021-06-23T12:16:19Z</time>
      </trkpt>
      <trkpt lat="48.44243" lon="7.33015">
        <ele>820.66</ele>
        <time>2021-06-23T12:16:21Z</time>
      </trkpt>
      <trkpt lat="48.44232" lon="7.33044">
        <ele>819.74</ele>
        <time>2021-06-23T12:16:24Z</time>
      </trkpt>
      <trkpt lat="48.44211" lon="7.33126">
        <ele>814.69</ele>
        <time>2021-06-23T12:16:26Z</time>
      </trkpt>
      <trkpt lat="48.44201" lon="7.33152">
        <ele>811.63</ele>
        <time>2021-06-23T12:16:28Z</time>
      </trkpt>
      <trkpt lat="48.44187" lon="7.33174">
        <ele>809.16</ele>
        <time>2021-06-23T12:16:31Z</time>
      </trkpt>
      <trkpt lat="48.44144" lon="7.3321">
        <ele>810.75</ele>
        <time>2021-06-23T12:16:33Z</time>
      </trkpt>
      <trkpt lat="48.44127" lon="7.33228">
        <ele>809.33</ele>
        <time>2021-06-23T12:16:35Z</time>
      </trkpt>
      <trkpt lat="48.44089" lon="7.33291">
        <ele>802.07</ele>
        <time>2021-06-23T12:16:38Z</time>
      </trkpt>
      <trkpt lat="48.44038" lon="7.33354">
        <ele>799.45</ele>
        <time>2021-06-23T12:16:40Z</time>
      </trkpt>
      <trkpt lat="48.43931" lon="7.3351">
        <ele>785.73</ele>
        <time>2021-06-23T12:16:42Z</time>
      </trkpt>
      <trkpt lat="48.43925" lon="7.33527">
        <ele>785.53</ele>
        <time>2021-06-23T12:16:45Z</time>
      </trkpt>
      <trkpt lat="48.43917" lon="7.33571">
        <ele>781.73</ele>
        <time>2021-06-23T12:16:47Z</time>
      </trkpt>
      <trkpt lat="48.4391" lon="7.33599">
        <ele>781.81</ele>
        <time>2021-06-23T12:16:50Z</time>
      </trkpt>
      <trkpt lat="48.43848" lon="7.33783">
        <ele>772.34</ele>
        <time>2021-06-23T12:16:52Z</time>
      </trkpt>
      <trkpt lat="48.4383" lon="7.33828">
        <ele>768.68</ele>
        <time>2021-06-23T12:16:54Z</time>
      </trkpt>
      <trkpt lat="48.43819" lon="7.33846">
        <ele>768.08</ele>
        <time>2021-06-23T12:16:57Z</time>
      </trkpt>
      <trkpt lat="48.43776" lon="7.33904">
        <ele>766.93</ele>
        <time>2021-06-23T12:16:59Z</time>
      </trkpt>
      <trkpt lat="48.43735" lon="7.33965">
        <ele>757.76</ele>
        <time>2021-06-23T12:17:01Z</time>
      </trkpt>
      <trkpt lat="48.43722" lon="7.33977">
        <ele>756.44</ele>
        <time>2021-06-23T12:17:04Z</time>
      </trkpt>
      <trkpt lat="48.43705" lon="7.33986">
        <ele>755.55</ele>
        <time>2021-06-23T12:17:06Z</time>
      </trkpt>
      <trkpt lat="48.43657" lon="7.34001">
        <ele>753.94</ele>
        <time>2021-06-23T12:17:08Z</time>
      </trkpt>
      <trkpt lat="48.4364" lon="7.34011">
        <ele>753.65</ele>
        <time>2021-06-23T12:17:11Z</time>
      </trkpt>
      <trkpt lat="48.43631" lon="7.34024">
        <ele>751.12</ele>
        <time>2021-06-23T12:17:13Z</time>
      </trkpt>
      <trkpt lat="48.43631" lon="7.34033">
        <ele>749.2</ele>
        <time>2021-06-23T12:17:16Z</time>
      </trkpt>
      <trkpt lat="48.43632" lon="7.34046">
        <ele>746.54</ele>
        <time>2021-06-23T12:17:18Z</time>
      </trkpt>
      <trkpt lat="48.43637" lon="7.34055">
        <ele>744.21</ele>
        <time>2021-06-23T12:17:20Z</time>
      </trkpt>
      <trkpt lat="48.43647" lon="7.34062">
        <ele>743.73</ele>
        <time>2021-06-23T12:17:23Z</time>
      </trkpt>
      <trkpt lat="48.43664" lon="7.34066">
        <ele>743.85</ele>
        <time>2021-06-23T12:17:25Z</time>
      </trkpt>
      <trkpt lat="48.43701" lon="7.34068">
        <ele>743.47</ele>
        <time>2021-06-23T12:17:27Z</time>
      </trkpt>
      <trkpt lat="48.43771" lon="7.34064">
        <ele>738.44</ele>
        <time>2021-06-23T12:17:30Z</time>
      </trkpt>
      <trkpt lat="48.43819" lon="7.34056">
        <ele>732.44</ele>
        <time>2021-06-23T12:17:32Z</time>
      </trkpt>
      <trkpt lat="48.43841" lon="7.34046">
        <ele>731.15</ele>
        <time>2021-06-23T12:17:34Z</time>
      </trkpt>
      <trkpt lat="48.43858" lon="7.34033">
        <ele>730.78</ele>
        <time>2021-06-23T12:17:37Z</time>
      </trkpt>
      <trkpt lat="48.43874" lon="7.34018">
        <ele>729.41</ele>
        <time>2021-06-23T12:17:39Z</time>
      </trkpt>
      <trkpt lat="48.4392" lon="7.33952">
        <ele>725.92</ele>
        <time>2021-06-23T12:17:41Z</time>
      </trkpt>
      <trkpt lat="48.43932" lon="7.33941">
        <ele>725.49</ele>
        <time>2021-06-23T12:17:44Z</time>
      </trkpt>
      <trkpt lat="48.4399" lon="7.33912">
        <ele>720.52</ele>
        <time>2021-06-23T12:17:46Z</time>
      </trkpt>
      <trkpt lat="48.44019" lon="7.33893">
        <ele>716.79</ele>
        <time>2021-06-23T12:17:49Z</time>
      </trkpt>
      <trkpt lat="48.44037" lon="7.33876">
        <ele>714.34</ele>
        <time>2021-06-23T12:17:51Z</time>
      </trkpt>
      <trkpt lat="48.44045" lon="7.33866">
        <ele>713.25</ele>
        <time>2021-06-23T12:17:53Z</time>
      </trkpt>
      <trkpt lat="48.44072" lon="7.33817">
        <ele>712.43</ele>
        <time>2021-06-23T12:17:56Z</time>
      </trkpt>
      <trkpt lat="48.44086" lon="7.33802">
        <ele>711.29</ele>
        <time>2021-06-23T12:17:58Z</time>
      </trkpt>
      <trkpt lat="48.44106" lon="7.33792">
        <ele>710.07</ele>
        <time>2021-06-23T12:18:00Z</time>
      </trkpt>
      <trkpt lat="48.44132" lon="7.33785">
        <ele>708.66</ele>
        <time>2021-06-23T12:18:03Z</time>
      </trkpt>
      <trkpt lat="48.44143" lon="7.33777">
        <ele>708.56</ele>
        <time>2021-06-23T12:18:05Z</time>
      </trkpt>
      <trkpt lat="48.44169" lon="7.33747">
        <ele>709.16</ele>
        <time>2021-06-23T12:18:07Z</time>
      </trkpt>
      <trkpt lat="48.4418" lon="7.33738">
        <ele>709.08</ele>
        <time>2021-06-23T12:18:10Z</time>
      </trkpt>
      <trkpt lat="48.44191" lon="7.33735">
        <ele>708.48</ele>
        <time>2021-06-23T12:18:12Z</time>
      </trkpt>
      <trkpt lat="48.44213" lon="7.33735">
        <ele>705.77</ele>
        <time>2021-06-23T12:18:15Z</time>
      </trkpt>
      <trkpt lat="48.44257" lon="7.33741">
        <ele>699.26</ele>
        <time>2021-06-23T12:18:17Z</time>
      </trkpt>
      <trkpt lat="48.44288" lon="7.33758">
        <ele>694.08</ele>
        <time>2021-06-23T12:18:19Z</time>
      </trkpt>
      <trkpt lat="48.44299" lon="7.33759">
        <ele>692.72</ele>
        <time>2021-06-23T12:18:22Z</time>
      </trkpt>
      <trkpt lat="48.44317" lon="7.33754">
        <ele>692.63</ele>
        <time>2021-06-23T12:18:24Z</time>
      </trkpt>
      <trkpt lat="48.44331" lon="7.33756">
        <ele>692.57</ele>
        <time>2021-06-23T12:18:26Z</time>
      </trkpt>
      <trkpt lat="48.4434" lon="7.33762">
        <ele>693.12</ele>
        <time>2021-06-23T12:18:29Z</time>
      </trkpt>
      <trkpt lat="48.44347" lon="7.33774">
        <ele>693.26</ele>
        <time>2021-06-23T12:18:31Z</time>
      </trkpt>
      <trkpt lat="48.4435" lon="7.3379">
        <ele>691.79</ele>
        <time>2021-06-23T12:18:33Z</time>
      </trkpt>
      <trkpt lat="48.44351" lon="7.3383">
        <ele>685.34</ele>
        <time>2021-06-23T12:18:36Z</time>
      </trkpt>
      <trkpt lat="48.44353" lon="7.33852">
        <ele>681.16</ele>
        <time>2021-06-23T12:18:38Z</time>
      </trkpt>
      <trkpt lat="48.44356" lon="7.33869">
        <ele>678.32</ele>
        <time>2021-06-23T12:18:40Z</time>
      </trkpt>
      <trkpt lat="48.44363" lon="7.3389">
        <ele>675.97</ele>
        <time>2021-06-23T12:18:43Z</time>
      </trkpt>
      <trkpt lat="48.444" lon="7.3397">
        <ele>671.97</ele>
        <time>2021-06-23T12:18:45Z</time>
      </trkpt>
      <trkpt lat="48.44434" lon="7.34037">
        <ele>667.79</ele>
        <time>2021-06-23T12:18:48Z</time>
      </trkpt>
      <trkpt lat="48.44513" lon="7.3416">
        <ele>656.17</ele>
        <time>2021-06-23T12:18:50Z</time>
      </trkpt>
      <trkpt lat="48.44609" lon="7.34322">
        <ele>644.03</ele>
        <time>2021-06-23T12:18:52Z</time>
      </trkpt>
      <trkpt lat="48.44632" lon="7.34382">
        <ele>643.28</ele>
        <time>2021-06-23T12:18:55Z</time>
      </trkpt>
      <trkpt lat="48.44664" lon="7.34495">
        <ele>634.46</ele>
        <time>2021-06-23T12:18:57Z</time>
      </trkpt>
      <trkpt lat="48.44674" lon="7.34525">
        <ele>632.78</ele>
        <time>2021-06-23T12:18:59Z</time>
      </trkpt>
      <trkpt lat="48.44685" lon="7.34546">
        <ele>631.1</ele>
        <time>2021-06-23T12:19:02Z</time>
      </trkpt>
      <trkpt lat="48.44778" lon="7.34683">
        <ele>626.19</ele>
        <time>2021-06-23T12:19:04Z</time>
      </trkpt>
      <trkpt lat="48.44791" lon="7.34696">
        <ele>625.31</ele>
        <time>2021-06-23T12:19:06Z</time>
      </trkpt>
      <trkpt lat="48.44806" lon="7.34704">
        <ele>624.57</ele>
        <time>2021-06-23T12:19:09Z</time>
      </trkpt>
      <trkpt lat="48.44819" lon="7.34704">
        <ele>624.35</ele>
        <time>2021-06-23T12:19:11Z</time>
      </trkpt>
      <trkpt lat="48.44836" lon="7.34697">
        <ele>625.16</ele>
        <time>2021-06-23T12:19:14Z</time>
      </trkpt>
      <trkpt lat="48.44857" lon="7.34685">
        <ele>625.12</ele>
        <time>2021-06-23T12:19:16Z</time>
      </trkpt>
      <trkpt lat="48.4488" lon="7.34666">
        <ele>624.6</ele>
        <time>2021-06-23T12:19:18Z</time>
      </trkpt>
      <trkpt lat="48.44907" lon="7.34635">
        <ele>623.68</ele>
        <time>2021-06-23T12:19:21Z</time>
      </trkpt>
      <trkpt lat="48.44921" lon="7.34614">
        <ele>623.61</ele>
        <time>2021-06-23T12:19:23Z</time>
      </trkpt>
      <trkpt lat="48.44935" lon="7.34579">
        <ele>622.21</ele>
        <time>2021-06-23T12:19:25Z</time>
      </trkpt>
      <trkpt lat="48.44957" lon="7.3451">
        <ele>620.49</ele>
        <time>2021-06-23T12:19:28Z</time>
      </trkpt>
      <trkpt lat="48.44966" lon="7.34489">
        <ele>621.25</ele>
        <time>2021-06-23T12:19:30Z</time>
      </trkpt>
      <trkpt lat="48.44975" lon="7.34478">
        <ele>621.26</ele>
        <time>2021-06-23T12:19:32Z</time>
      </trkpt>
      <trkpt lat="48.44989" lon="7.34468">
        <ele>619.57</ele>
        <time>2021-06-23T12:19:35Z</time>
      </trkpt>
      <trkpt lat="48.45002" lon="7.34464">
        <ele>617.42</ele>
        <time>2021-06-23T12:19:37Z</time>
      </trkpt>
      <trkpt lat="48.45014" lon="7.34464">
        <ele>617.02</ele>
        <time>2021-06-23T12:19:39Z</time>
      </trkpt>
      <trkpt lat="48.45046" lon="7.34479">
        <ele>614.51</ele>
        <time>2021-06-23T12:19:42Z</time>
      </trkpt>
      <trkpt lat="48.45059" lon="7.3449">
        <ele>612.83</ele>
        <time>2021-06-23T12:19:44Z</time>
      </trkpt>
      <trkpt lat="48.45066" lon="7.34504">
        <ele>610.62</ele>
        <time>2021-06-23T12:19:47Z</time>
      </trkpt>
      <trkpt lat="48.45074" lon="7.34544">
        <ele>603.74</ele>
        <time>2021-06-23T12:19:49Z</time>
      </trkpt>
      <trkpt lat="48.45091" lon="7.34615">
        <ele>600.78</ele>
        <time>2021-06-23T12:19:51Z</time>
      </trkpt>
      <trkpt lat="48.45115" lon="7.34693">
        <ele>591.45</ele>
        <time>2021-06-23T12:19:54Z</time>
      </trkpt>
      <trkpt lat="48.45118" lon="7.34719">
        <ele>588.43</ele>
        <time>2021-06-23T12:19:56Z</time>
      </trkpt>
      <trkpt lat="48.45117" lon="7.34765">
        <ele>584.18</ele>
        <time>2021-06-23T12:19:58Z</time>
      </trkpt>
      <trkpt lat="48.45122" lon="7.34805">
        <ele>583.06</ele>
        <time>2021-06-23T12:20:01Z</time>
      </trkpt>
      <trkpt lat="48.45128" lon="7.34822">
        <ele>582.45</ele>
        <time>2021-06-23T12:20:03Z</time>
      </trkpt>
      <trkpt lat="48.45145" lon="7.3486">
        <ele>582.35</ele>
        <time>2021-06-23T12:20:05Z</time>
      </trkpt>
      <trkpt lat="48.45157" lon="7.34878">
        <ele>582.59</ele>
        <time>2021-06-23T12:20:08Z</time>
      </trkpt>
      <trkpt lat="48.45163" lon="7.34898">
        <ele>580.72</ele>
        <time>2021-06-23T12:20:10Z</time>
      </trkpt>
      <trkpt lat="48.45173" lon="7.34985">
        <ele>569.44</ele>
        <time>2021-06-23T12:20:13Z</time>
      </trkpt>
      <trkpt lat="48.45186" lon="7.35057">
        <ele>560.23</ele>
        <time>2021-06-23T12:20:15Z</time>
      </trkpt>
      <trkpt lat="48.45204" lon="7.35098">
        <ele>557.05</ele>
        <time>2021-06-23T12:20:17Z</time>
      </trkpt>
      <trkpt lat="48.45209" lon="7.35115">
        <ele>555.57</ele>
        <time>2021-06-23T12:20:20Z</time>
      </trkpt>
      <trkpt lat="48.45218" lon="7.35171">
        <ele>554.22</ele>
        <time>2021-06-23T12:20:22Z</time>
      </trkpt>
      <trkpt lat="48.45234" lon="7.35207">
        <ele>555.68</ele>
        <time>2021-06-23T12:20:24Z</time>
      </trkpt>
      <trkpt lat="48.45235" lon="7.35221">
        <ele>554.16</ele>
        <time>2021-06-23T12:20:27Z</time>
      </trkpt>
      <trkpt lat="48.45231" lon="7.35235">
        <ele>551.5</ele>
        <time>2021-06-23T12:20:29Z</time>
      </trkpt>
      <trkpt lat="48.45228" lon="7.3524">
        <ele>550.02</ele>
        <time>2021-06-23T12:20:31Z</time>
      </trkpt>
      <trkpt lat="48.45221" lon="7.35244">
        <ele>547.12</ele>
        <time>2021-06-23T12:20:34Z</time>
      </trkpt>
      <trkpt lat="48.45212" lon="7.35243">
        <ele>544.73</ele>
        <time>2021-06-23T12:20:36Z</time>
      </trkpt>
      <trkpt lat="48.45203" lon="7.35237">
        <ele>542.8</ele>
        <time>2021-06-23T12:20:38Z</time>
      </trkpt>
      <trkpt lat="48.45196" lon="7.35226">
        <ele>542.15</ele>
        <time>2021-06-23T12:20:41Z</time>
      </trkpt>
      <trkpt lat="48.45185" lon="7.3519">
        <ele>543.24</ele>
        <time>2021-06-23T12:20:43Z</time>
      </trkpt>
      <trkpt lat="48.45174" lon="7.35168">
        <ele>542.48</ele>
        <time>2021-06-23T12:20:46Z</time>
      </trkpt>
      <trkpt lat="48.4516" lon="7.35157">
        <ele>539.02</ele>
        <time>2021-06-23T12:20:48Z</time>
      </trkpt>
      <trkpt lat="48.45098" lon="7.35132">
        <ele>526.8</ele>
        <time>2021-06-23T12:20:50Z</time>
      </trkpt>
      <trkpt lat="48.45086" lon="7.35122">
        <ele>525.95</ele>
        <time>2021-06-23T12:20:53Z</time>
      </trkpt>
      <trkpt lat="48.45077" lon="7.35108">
        <ele>528.97</ele>
        <time>2021-06-23T12:20:55Z</time>
      </trkpt>
      <trkpt lat="48.45067" lon="7.35083">
        <ele>535.37</ele>
        <time>2021-06-23T12:20:57Z</time>
      </trkpt>
      <trkpt lat="48.45056" lon="7.35071">
        <ele>539.23</ele>
        <time>2021-06-23T12:21:00Z</time>
      </trkpt>
      <trkpt lat="48.45048" lon="7.35071">
        <ele>540.83</ele>
        <time>2021-06-23T12:21:02Z</time>
      </trkpt>
      <trkpt lat="48.4504" lon="7.35075">
        <ele>541.88</ele>
        <time>2021-06-23T12:21:04Z</time>
      </trkpt>
      <trkpt lat="48.45034" lon="7.35088">
        <ele>542.04</ele>
        <time>2021-06-23T12:21:07Z</time>
      </trkpt>
      <trkpt lat="48.45033" lon="7.35102">
        <ele>541.1</ele>
        <time>2021-06-23T12:21:09Z</time>
      </trkpt>
      <trkpt lat="48.45051" lon="7.35167">
        <ele>527.17</ele>
        <time>2021-06-23T12:21:12Z</time>
      </trkpt>
      <trkpt lat="48.45066" lon="7.35239">
        <ele>526.58</ele>
        <time>2021-06-23T12:21:14Z</time>
      </trkpt>
      <trkpt lat="48.45075" lon="7.35304">
        <ele>524.11</ele>
        <time>2021-06-23T12:21:16Z</time>
      </trkpt>
      <trkpt lat="48.4508" lon="7.35366">
        <ele>520.63</ele>
        <time>2021-06-23T12:21:19Z</time>
      </trkpt>
      <trkpt lat="48.45092" lon="7.35413">
        <ele>515.46</ele>
        <time>2021-06-23T12:21:21Z</time>
      </trkpt>
      <trkpt lat="48.45104" lon="7.35439">
        <ele>512.01</ele>
        <time>2021-06-23T12:21:23Z</time>
      </trkpt>
      <trkpt lat="48.45157" lon="7.35498">
        <ele>504.61</ele>
        <time>2021-06-23T12:21:26Z</time>
      </trkpt>
      <trkpt lat="48.45171" lon="7.35518">
        <ele>502.81</ele>
        <time>2021-06-23T12:21:28Z</time>
      </trkpt>
      <trkpt lat="48.45177" lon="7.35532">
        <ele>502.59</ele>
        <time>2021-06-23T12:21:30Z</time>
      </trkpt>
      <trkpt lat="48.45182" lon="7.35556">
        <ele>502.24</ele>
        <time>2021-06-23T12:21:33Z</time>
      </trkpt>
      <trkpt lat="48.45183" lon="7.3569">
        <ele>487.95</ele>
        <time>2021-06-23T12:21:35Z</time>
      </trkpt>
      <trkpt lat="48.45186" lon="7.35712">
        <ele>485.69</ele>
        <time>2021-06-23T12:21:37Z</time>
      </trkpt>
      <trkpt lat="48.45201" lon="7.35778">
        <ele>484.12</ele>
        <time>2021-06-23T12:21:40Z</time>
      </trkpt>
      <trkpt lat="48.45205" lon="7.35812">
        <ele>483.79</ele>
        <time>2021-06-23T12:21:42Z</time>
      </trkpt>
      <trkpt lat="48.45209" lon="7.35948">
        <ele>470.83</ele>
        <time>2021-06-23T12:21:45Z</time>
      </trkpt>
      <trkpt lat="48.45215" lon="7.36005">
        <ele>465.44</ele>
        <time>2021-06-23T12:21:47Z</time>
      </trkpt>
      <trkpt lat="48.45221" lon="7.36045">
        <ele>463.36</ele>
        <time>2021-06-23T12:21:49Z</time>
      </trkpt>
      <trkpt lat="48.45228" lon="7.36068">
        <ele>463.55</ele>
        <time>2021-06-23T12:21:52Z</time>
      </trkpt>
      <trkpt lat="48.45266" lon="7.36144">
        <ele>459.24</ele>
        <time>2021-06-23T12:21:54Z</time>
      </trkpt>
      <trkpt lat="48.45272" lon="7.3617">
        <ele>456.2</ele>
        <time>2021-06-23T12:21:56Z</time>
      </trkpt>
      <trkpt lat="48.45276" lon="7.36233">
        <ele>448.16</ele>
        <time>2021-06-23T12:21:59Z</time>
      </trkpt>
      <trkpt lat="48.45279" lon="7.36263">
        <ele>447.81</ele>
        <time>2021-06-23T12:22:01Z</time>
      </trkpt>
      <trkpt lat="48.45283" lon="7.36284">
        <ele>448.57</ele>
        <time>2021-06-23T12:22:03Z</time>
      </trkpt>
      <trkpt lat="48.45342" lon="7.36503">
        <ele>433.93</ele>
        <time>2021-06-23T12:22:06Z</time>
      </trkpt>
      <trkpt lat="48.45368" lon="7.36619">
        <ele>432.42</ele>
        <time>2021-06-23T12:22:08Z</time>
      </trkpt>
      <trkpt lat="48.45446" lon="7.36809">
        <ele>419.75</ele>
        <time>2021-06-23T12:22:11Z</time>
      </trkpt>
      <trkpt lat="48.45459" lon="7.36832">
        <ele>417.61</ele>
        <time>2021-06-23T12:22:13Z</time>
      </trkpt>
      <trkpt lat="48.45522" lon="7.36894">
        <ele>406.64</ele>
        <time>2021-06-23T12:22:15Z</time>
      </trkpt>
      <trkpt lat="48.45534" lon="7.36911">
        <ele>406.14</ele>
        <time>2021-06-23T12:22:18Z</time>
      </trkpt>
      <trkpt lat="48.45543" lon="7.36929">
        <ele>406.81</ele>
        <time>2021-06-23T12:22:20Z</time>
      </trkpt>
      <trkpt lat="48.45604" lon="7.37166">
        <ele>395.44</ele>
        <time>2021-06-23T12:22:22Z</time>
      </trkpt>
      <trkpt lat="48.45608" lon="7.37198">
        <ele>393.07</ele>
        <time>2021-06-23T12:22:25Z</time>
      </trkpt>
      <trkpt lat="48.45612" lon="7.37252">
        <ele>394.17</ele>
        <time>2021-06-23T12:22:27Z</time>
      </trkpt>
      <trkpt lat="48.45615" lon="7.37279">
        <ele>395.37</ele>
        <time>2021-06-23T12:22:29Z</time>
      </trkpt>
      <trkpt lat="48.45621" lon="7.37296">
        <ele>393.98</ele>
        <time>2021-06-23T12:22:32Z</time>
      </trkpt>
      <trkpt lat="48.45661" lon="7.37366">
        <ele>395.9</ele>
        <time>2021-06-23T12:22:34Z</time>
      </trkpt>
      <trkpt lat="48.45695" lon="7.37437">
        <ele>395.05</ele>
        <time>2021-06-23T12:22:36Z</time>
      </trkpt>
      <trkpt lat="48.45711" lon="7.37489">
        <ele>389.89</ele>
        <time>2021-06-23T12:22:39Z</time>
      </trkpt>
      <trkpt lat="48.45736" lon="7.37595">
        <ele>386.42</ele>
        <time>2021-06-23T12:22:41Z</time>
      </trkpt>
      <trkpt lat="48.45744" lon="7.37633">
        <ele>385.55</ele>
        <time>2021-06-23T12:22:44Z</time>
      </trkpt>
      <trkpt lat="48.45756" lon="7.37719">
        <ele>386.34</ele>
        <time>2021-06-23T12:22:46Z</time>
      </trkpt>
      <trkpt lat="48.45761" lon="7.37739">
        <ele>385.84</ele>
        <time>2021-06-23T12:22:48Z</time>
      </trkpt>
      <trkpt lat="48.45768" lon="7.37757">
        <ele>385.52</ele>
        <time>2021-06-23T12:22:51Z</time>
      </trkpt>
      <trkpt lat="48.45781" lon="7.37778">
        <ele>384.98</ele>
        <time>2021-06-23T12:22:53Z</time>
      </trkpt>
      <trkpt lat="48.45854" lon="7.37867">
        <ele>382.12</ele>
        <time>2021-06-23T12:22:55Z</time>
      </trkpt>
      <trkpt lat="48.4587" lon="7.3789">
        <ele>380.2</ele>
        <time>2021-06-23T12:22:58Z</time>
      </trkpt>
      <trkpt lat="48.45883" lon="7.37915">
        <ele>378.2</ele>
        <time>2021-06-23T12:23:00Z</time>
      </trkpt>
      <trkpt lat="48.45891" lon="7.3794">
        <ele>375.98</ele>
        <time>2021-06-23T12:23:02Z</time>
      </trkpt>
      <trkpt lat="48.45899" lon="7.37976">
        <ele>374.98</ele>
        <time>2021-06-23T12:23:05Z</time>
      </trkpt>
      <trkpt lat="48.45916" lon="7.38094">
        <ele>376.36</ele>
        <time>2021-06-23T12:23:07Z</time>
      </trkpt>
      <trkpt lat="48.45921" lon="7.38164">
        <ele>370.31</ele>
        <time>2021-06-23T12:23:10Z</time>
      </trkpt>
      <trkpt lat="48.45921" lon="7.38194">
        <ele>369.02</ele>
        <time>2021-06-23T12:23:12Z</time>
      </trkpt>
      <trkpt lat="48.4591" lon="7.38243">
        <ele>367.57</ele>
        <time>2021-06-23T12:23:14Z</time>
      </trkpt>
      <trkpt lat="48.45905" lon="7.38317">
        <ele>366.93</ele>
        <time>2021-06-23T12:23:17Z</time>
      </trkpt>
      <trkpt lat="48.45911" lon="7.38406">
        <ele>366.59</ele>
        <time>2021-06-23T12:23:19Z</time>
      </trkpt>
      <trkpt lat="48.45921" lon="7.38525">
        <ele>361.39</ele>
        <time>2021-06-23T12:23:21Z</time>
      </trkpt>
      <trkpt lat="48.45928" lon="7.38561">
        <ele>359.35</ele>
        <time>2021-06-23T12:23:24Z</time>
      </trkpt>
      <trkpt lat="48.4598" lon="7.38732">
        <ele>343.7</ele>
        <time>2021-06-23T12:23:26Z</time>
      </trkpt>
      <trkpt lat="48.45982" lon="7.38747">
        <ele>343.48</ele>
        <time>2021-06-23T12:23:28Z</time>
      </trkpt>
      <trkpt lat="48.45973" lon="7.38776">
        <ele>341.16</ele>
        <time>2021-06-23T12:23:31Z</time>
      </trkpt>
      <trkpt lat="48.45946" lon="7.38837">
        <ele>349.08</ele>
        <time>2021-06-23T12:23:33Z</time>
      </trkpt>
      <trkpt lat="48.45995" lon="7.38909">
        <ele>346.55</ele>
        <time>2021-06-23T12:23:36Z</time>
      </trkpt>
      <trkpt lat="48.46029" lon="7.38952">
        <ele>348.27</ele>
        <time>2021-06-23T12:23:39Z</time>
      </trkpt>
      <trkpt lat="48.46137" lon="7.39066">
        <ele>339.63</ele>
        <time>2021-06-23T12:23:41Z</time>
      </trkpt>
      <trkpt lat="48.46213" lon="7.39154">
        <ele>335.19</ele>
        <time>2021-06-23T12:23:44Z</time>
      </trkpt>
      <trkpt lat="48.4623" lon="7.39175">
        <ele>333.85</ele>
        <time>2021-06-23T12:23:46Z</time>
      </trkpt>
      <trkpt lat="48.46243" lon="7.39197">
        <ele>332.27</ele>
        <time>2021-06-23T12:23:49Z</time>
      </trkpt>
      <trkpt lat="48.46263" lon="7.39239">
        <ele>331.81</ele>
        <time>2021-06-23T12:23:52Z</time>
      </trkpt>
      <trkpt lat="48.46273" lon="7.39253">
        <ele>332.52</ele>
        <time>2021-06-23T12:23:54Z</time>
      </trkpt>
      <trkpt lat="48.46291" lon="7.39267">
        <ele>334.56</ele>
        <time>2021-06-23T12:23:57Z</time>
      </trkpt>
      <trkpt lat="48.46415" lon="7.39339">
        <ele>331.99</ele>
        <time>2021-06-23T12:23:59Z</time>
      </trkpt>
      <trkpt lat="48.4644" lon="7.39362">
        <ele>330.17</ele>
        <time>2021-06-23T12:24:02Z</time>
      </trkpt>
      <trkpt lat="48.46499" lon="7.39464">
        <ele>336.04</ele>
        <time>2021-06-23T12:24:05Z</time>
      </trkpt>
      <trkpt lat="48.46518" lon="7.39505">
        <ele>337.43</ele>
        <time>2021-06-23T12:24:07Z</time>
      </trkpt>
      <trkpt lat="48.46518" lon="7.39505">
        <ele>337.43</ele>
        <time>2021-06-23T12:24:07Z</time>
      </trkpt>
      <trkpt lat="48.46528" lon="7.39528">
        <ele>338.81</ele>
        <time>2021-06-23T12:24:10Z</time>
      </trkpt>
      <trkpt lat="48.46541" lon="7.39572">
        <ele>336.29</ele>
        <time>2021-06-23T12:24:14Z</time>
      </trkpt>
      <trkpt lat="48.46562" lon="7.39698">
        <ele>336</ele>
        <time>2021-06-23T12:24:17Z</time>
      </trkpt>
      <trkpt lat="48.4659" lon="7.39896">
        <ele>334.81</ele>
        <time>2021-06-23T12:24:20Z</time>
      </trkpt>
      <trkpt lat="48.46604" lon="7.39978">
        <ele>330.77</ele>
        <time>2021-06-23T12:24:23Z</time>
      </trkpt>
      <trkpt lat="48.46632" lon="7.40051">
        <ele>326.28</ele>
        <time>2021-06-23T12:24:27Z</time>
      </trkpt>
      <trkpt lat="48.46641" lon="7.40087">
        <ele>323.5</ele>
        <time>2021-06-23T12:24:30Z</time>
      </trkpt>
      <trkpt lat="48.46669" lon="7.40213">
        <ele>322.18</ele>
        <time>2021-06-23T12:24:33Z</time>
      </trkpt>
      <trkpt lat="48.46684" lon="7.40305">
        <ele>313.8</ele>
        <time>2021-06-23T12:24:36Z</time>
      </trkpt>
      <trkpt lat="48.46705" lon="7.40476">
        <ele>314.59</ele>
        <time>2021-06-23T12:24:40Z</time>
      </trkpt>
      <trkpt lat="48.46714" lon="7.40582">
        <ele>312.88</ele>
        <time>2021-06-23T12:24:43Z</time>
      </trkpt>
      <trkpt lat="48.4672" lon="7.40602">
        <ele>309.96</ele>
        <time>2021-06-23T12:24:46Z</time>
      </trkpt>
      <trkpt lat="48.46727" lon="7.40613">
        <ele>307.68</ele>
        <time>2021-06-23T12:24:49Z</time>
      </trkpt>
      <trkpt lat="48.46777" lon="7.40659">
        <ele>300.33</ele>
        <time>2021-06-23T12:24:53Z</time>
      </trkpt>
      <trkpt lat="48.46797" lon="7.40691">
        <ele>298.45</ele>
        <time>2021-06-23T12:24:56Z</time>
      </trkpt>
      <trkpt lat="48.4681" lon="7.40724">
        <ele>297.95</ele>
        <time>2021-06-23T12:24:59Z</time>
      </trkpt>
      <trkpt lat="48.46816" lon="7.40743">
        <ele>298.55</ele>
        <time>2021-06-23T12:25:02Z</time>
      </trkpt>
      <trkpt lat="48.46827" lon="7.40806">
        <ele>296.76</ele>
        <time>2021-06-23T12:25:06Z</time>
      </trkpt>
      <trkpt lat="48.46849" lon="7.40891">
        <ele>286.34</ele>
        <time>2021-06-23T12:25:09Z</time>
      </trkpt>
      <trkpt lat="48.46853" lon="7.4091">
        <ele>284.42</ele>
        <time>2021-06-23T12:25:12Z</time>
      </trkpt>
      <trkpt lat="48.46859" lon="7.40984">
        <ele>281.33</ele>
        <time>2021-06-23T12:25:15Z</time>
      </trkpt>
      <trkpt lat="48.46864" lon="7.41005">
        <ele>280.98</ele>
        <time>2021-06-23T12:25:19Z</time>
      </trkpt>
      <trkpt lat="48.46897" lon="7.41111">
        <ele>278.57</ele>
        <time>2021-06-23T12:25:22Z</time>
      </trkpt>
      <trkpt lat="48.469" lon="7.41114">
        <ele>278.62</ele>
        <time>2021-06-23T12:25:25Z</time>
      </trkpt>
      <trkpt lat="48.46836" lon="7.41369">
        <ele>276.41</ele>
        <time>2021-06-23T12:25:29Z</time>
      </trkpt>
      <trkpt lat="48.46829" lon="7.41387">
        <ele>275.73</ele>
        <time>2021-06-23T12:25:32Z</time>
      </trkpt>
      <trkpt lat="48.46786" lon="7.41453">
        <ele>272.29</ele>
        <time>2021-06-23T12:25:36Z</time>
      </trkpt>
      <trkpt lat="48.46739" lon="7.41542">
        <ele>274.18</ele>
        <time>2021-06-23T12:25:39Z</time>
      </trkpt>
      <trkpt lat="48.4667" lon="7.41698">
        <ele>277.79</ele>
        <time>2021-06-23T12:25:43Z</time>
      </trkpt>
      <trkpt lat="48.46642" lon="7.41779">
        <ele>274.64</ele>
        <time>2021-06-23T12:25:46Z</time>
      </trkpt>
      <trkpt lat="48.46609" lon="7.41836">
        <ele>276.64</ele>
        <time>2021-06-23T12:25:50Z</time>
      </trkpt>
      <trkpt lat="48.46596" lon="7.41868">
        <ele>277.93</ele>
        <time>2021-06-23T12:25:53Z</time>
      </trkpt>
      <trkpt lat="48.46589" lon="7.41893">
        <ele>276.53</ele>
        <time>2021-06-23T12:25:57Z</time>
      </trkpt>
      <trkpt lat="48.46582" lon="7.41962">
        <ele>273.99</ele>
        <time>2021-06-23T12:26:01Z</time>
      </trkpt>
      <trkpt lat="48.46587" lon="7.42042">
        <ele>272.9</ele>
        <time>2021-06-23T12:26:04Z</time>
      </trkpt>
      <trkpt lat="48.46587" lon="7.42077">
        <ele>271.63</ele>
        <time>2021-06-23T12:26:08Z</time>
      </trkpt>
      <trkpt lat="48.46584" lon="7.4211">
        <ele>271.01</ele>
        <time>2021-06-23T12:26:11Z</time>
      </trkpt>
      <trkpt lat="48.46575" lon="7.42139">
        <ele>272.79</ele>
        <time>2021-06-23T12:26:15Z</time>
      </trkpt>
      <trkpt lat="48.4656" lon="7.42162">
        <ele>275.55</ele>
        <time>2021-06-23T12:26:18Z</time>
      </trkpt>
      <trkpt lat="48.4654" lon="7.4218">
        <ele>274.97</ele>
        <time>2021-06-23T12:26:22Z</time>
      </trkpt>
      <trkpt lat="48.46468" lon="7.42235">
        <ele>266.81</ele>
        <time>2021-06-23T12:26:25Z</time>
      </trkpt>
      <trkpt lat="48.46454" lon="7.42249">
        <ele>263.67</ele>
        <time>2021-06-23T12:26:29Z</time>
      </trkpt>
      <trkpt lat="48.46341" lon="7.42394">
        <ele>269.95</ele>
        <time>2021-06-23T12:26:32Z</time>
      </trkpt>
      <trkpt lat="48.46319" lon="7.42429">
        <ele>274.18</ele>
        <time>2021-06-23T12:26:36Z</time>
      </trkpt>
      <trkpt lat="48.4631" lon="7.42459">
        <ele>273.6</ele>
        <time>2021-06-23T12:26:39Z</time>
      </trkpt>
      <trkpt lat="48.46304" lon="7.42494">
        <ele>269.67</ele>
        <time>2021-06-23T12:26:43Z</time>
      </trkpt>
      <trkpt lat="48.46291" lon="7.426">
        <ele>264.75</ele>
        <time>2021-06-23T12:26:47Z</time>
      </trkpt>
      <trkpt lat="48.46275" lon="7.4271">
        <ele>257.95</ele>
        <time>2021-06-23T12:26:50Z</time>
      </trkpt>
      <trkpt lat="48.46266" lon="7.42757">
        <ele>259.08</ele>
        <time>2021-06-23T12:26:54Z</time>
      </trkpt>
      <trkpt lat="48.46237" lon="7.42864">
        <ele>255.47</ele>
        <time>2021-06-23T12:26:57Z</time>
      </trkpt>
      <trkpt lat="48.4623" lon="7.42883">
        <ele>253.23</ele>
        <time>2021-06-23T12:27:01Z</time>
      </trkpt>
      <trkpt lat="48.46221" lon="7.42899">
        <ele>252.72</ele>
        <time>2021-06-23T12:27:04Z</time>
      </trkpt>
      <trkpt lat="48.46174" lon="7.42965">
        <ele>253.72</ele>
        <time>2021-06-23T12:27:08Z</time>
      </trkpt>
      <trkpt lat="48.46174" lon="7.42965">
        <ele>253.72</ele>
        <time>2021-06-23T12:27:08Z</time>
      </trkpt>
      <trkpt lat="48.46166" lon="7.42975">
        <ele>254.72</ele>
        <time>2021-06-23T12:27:10Z</time>
      </trkpt>
      <trkpt lat="48.46153" lon="7.42987">
        <ele>253.9</ele>
        <time>2021-06-23T12:27:12Z</time>
      </trkpt>
      <trkpt lat="48.46142" lon="7.42995">
        <ele>254.01</ele>
        <time>2021-06-23T12:27:15Z</time>
      </trkpt>
      <trkpt lat="48.46114" lon="7.42999">
        <ele>254.92</ele>
        <time>2021-06-23T12:27:17Z</time>
      </trkpt>
      <trkpt lat="48.4609" lon="7.42993">
        <ele>255.43</ele>
        <time>2021-06-23T12:27:19Z</time>
      </trkpt>
      <trkpt lat="48.46073" lon="7.42983">
        <ele>256.42</ele>
        <time>2021-06-23T12:27:22Z</time>
      </trkpt>
      <trkpt lat="48.4607" lon="7.42969">
        <ele>257.89</ele>
        <time>2021-06-23T12:27:29Z</time>
      </trkpt>
      <trkpt lat="48.46037" lon="7.42944">
        <ele>261.07</ele>
        <time>2021-06-23T12:27:35Z</time>
      </trkpt>
      <trkpt lat="48.46004" lon="7.42907">
        <ele>263.83</ele>
        <time>2021-06-23T12:27:42Z</time>
      </trkpt>
      <trkpt lat="48.45966" lon="7.42865">
        <ele>264.91</ele>
        <time>2021-06-23T12:27:49Z</time>
      </trkpt>
      <trkpt lat="48.45921" lon="7.42825">
        <ele>266.65</ele>
        <time>2021-06-23T12:27:56Z</time>
      </trkpt>
      <trkpt lat="48.45894" lon="7.42807">
        <ele>269.52</ele>
        <time>2021-06-23T12:28:03Z</time>
      </trkpt>
      <trkpt lat="48.45887" lon="7.42799">
        <ele>270.23</ele>
        <time>2021-06-23T12:28:09Z</time>
      </trkpt>
      <trkpt lat="48.45882" lon="7.42789">
        <ele>270.74</ele>
        <time>2021-06-23T12:28:16Z</time>
      </trkpt>
      <trkpt lat="48.45871" lon="7.42764">
        <ele>272.32</ele>
        <time>2021-06-23T12:28:23Z</time>
      </trkpt>
      <trkpt lat="48.4583" lon="7.42559">
        <ele>283.64</ele>
        <time>2021-06-23T12:28:30Z</time>
      </trkpt>
      <trkpt lat="48.45821" lon="7.42539">
        <ele>284.04</ele>
        <time>2021-06-23T12:28:37Z</time>
      </trkpt>
      <trkpt lat="48.45777" lon="7.42478">
        <ele>287.37</ele>
        <time>2021-06-23T12:28:44Z</time>
      </trkpt>
      <trkpt lat="48.45769" lon="7.42474">
        <ele>287.78</ele>
        <time>2021-06-23T12:28:50Z</time>
      </trkpt>
      <trkpt lat="48.4571" lon="7.42475">
        <ele>287.77</ele>
        <time>2021-06-23T12:28:57Z</time>
      </trkpt>
      <trkpt lat="48.45703" lon="7.42472">
        <ele>288.03</ele>
        <time>2021-06-23T12:29:04Z</time>
      </trkpt>
      <trkpt lat="48.45696" lon="7.4246">
        <ele>289.29</ele>
        <time>2021-06-23T12:29:11Z</time>
      </trkpt>
      <trkpt lat="48.45674" lon="7.42415">
        <ele>293.71</ele>
        <time>2021-06-23T12:29:18Z</time>
      </trkpt>
      <trkpt lat="48.45671" lon="7.42413">
        <ele>293.7</ele>
        <time>2021-06-23T12:29:25Z</time>
      </trkpt>
      <trkpt lat="48.45626" lon="7.42434">
        <ele>293.08</ele>
        <time>2021-06-23T12:29:31Z</time>
      </trkpt>
      <trkpt lat="48.45593" lon="7.42441">
        <ele>292.39</ele>
        <time>2021-06-23T12:29:38Z</time>
      </trkpt>
      <trkpt lat="48.45588" lon="7.42445">
        <ele>292.15</ele>
        <time>2021-06-23T12:29:45Z</time>
      </trkpt>
      <trkpt lat="48.45584" lon="7.42452">
        <ele>291.77</ele>
        <time>2021-06-23T12:29:52Z</time>
      </trkpt>
      <trkpt lat="48.45584" lon="7.42452">
        <ele>291.77</ele>
        <time>2021-06-23T12:29:52Z</time>
      </trkpt>
      <trkpt lat="48.4558" lon="7.42466">
        <ele>290.25</ele>
        <time>2021-06-23T12:29:55Z</time>
      </trkpt>
      <trkpt lat="48.45579" lon="7.42486">
        <ele>288.29</ele>
        <time>2021-06-23T12:29:58Z</time>
      </trkpt>
      <trkpt lat="48.45581" lon="7.4251">
        <ele>285.83</ele>
        <time>2021-06-23T12:30:01Z</time>
      </trkpt>
      <trkpt lat="48.45562" lon="7.42523">
        <ele>283.79</ele>
        <time>2021-06-23T12:30:07Z</time>
      </trkpt>
      <trkpt lat="48.4555" lon="7.42525">
        <ele>283.05</ele>
        <time>2021-06-23T12:30:12Z</time>
      </trkpt>
      <trkpt lat="48.45538" lon="7.42526">
        <ele>282.48</ele>
        <time>2021-06-23T12:30:18Z</time>
      </trkpt>
      <trkpt lat="48.45481" lon="7.42519">
        <ele>280.62</ele>
        <time>2021-06-23T12:30:24Z</time>
      </trkpt>
      <trkpt lat="48.45451" lon="7.42525">
        <ele>281.87</ele>
        <time>2021-06-23T12:30:29Z</time>
      </trkpt>
      <trkpt lat="48.45434" lon="7.42531">
        <ele>282.86</ele>
        <time>2021-06-23T12:30:35Z</time>
      </trkpt>
      <trkpt lat="48.45389" lon="7.4256">
        <ele>286.83</ele>
        <time>2021-06-23T12:30:41Z</time>
      </trkpt>
      <trkpt lat="48.4538" lon="7.4257">
        <ele>286.79</ele>
        <time>2021-06-23T12:30:46Z</time>
      </trkpt>
      <trkpt lat="48.45365" lon="7.42593">
        <ele>286.54</ele>
        <time>2021-06-23T12:30:52Z</time>
      </trkpt>
      <trkpt lat="48.45359" lon="7.42596">
        <ele>286.67</ele>
        <time>2021-06-23T12:30:58Z</time>
      </trkpt>
      <trkpt lat="48.45353" lon="7.42596">
        <ele>287.02</ele>
        <time>2021-06-23T12:31:03Z</time>
      </trkpt>
      <trkpt lat="48.45295" lon="7.42586">
        <ele>290.39</ele>
        <time>2021-06-23T12:31:09Z</time>
      </trkpt>
      <trkpt lat="48.45255" lon="7.42583">
        <ele>291.34</ele>
        <time>2021-06-23T12:31:15Z</time>
      </trkpt>
      <trkpt lat="48.45255" lon="7.42583">
        <ele>291.34</ele>
        <time>2021-06-23T12:31:15Z</time>
      </trkpt>
      <trkpt lat="48.452" lon="7.42585">
        <ele>296.12</ele>
        <time>2021-06-23T12:31:23Z</time>
      </trkpt>
      <trkpt lat="48.45172" lon="7.42578">
        <ele>297.3</ele>
        <time>2021-06-23T12:31:31Z</time>
      </trkpt>
      <trkpt lat="48.44924" lon="7.42483">
        <ele>314.63</ele>
        <time>2021-06-23T12:31:39Z</time>
      </trkpt>
      <trkpt lat="48.44911" lon="7.4248">
        <ele>314.95</ele>
        <time>2021-06-23T12:31:47Z</time>
      </trkpt>
      <trkpt lat="48.44898" lon="7.4248">
        <ele>315.4</ele>
        <time>2021-06-23T12:31:55Z</time>
      </trkpt>
      <trkpt lat="48.44886" lon="7.42485">
        <ele>315.92</ele>
        <time>2021-06-23T12:32:03Z</time>
      </trkpt>
      <trkpt lat="48.44854" lon="7.42488">
        <ele>319.64</ele>
        <time>2021-06-23T12:32:11Z</time>
      </trkpt>
      <trkpt lat="48.44818" lon="7.42486">
        <ele>321.78</ele>
        <time>2021-06-23T12:32:19Z</time>
      </trkpt>
      <trkpt lat="48.44793" lon="7.4248">
        <ele>322.33</ele>
        <time>2021-06-23T12:32:28Z</time>
      </trkpt>
      <trkpt lat="48.44722" lon="7.42454">
        <ele>329.01</ele>
        <time>2021-06-23T12:32:36Z</time>
      </trkpt>
      <trkpt lat="48.44661" lon="7.42405">
        <ele>332.28</ele>
        <time>2021-06-23T12:32:44Z</time>
      </trkpt>
      <trkpt lat="48.44661" lon="7.42405">
        <ele>332.28</ele>
        <time>2021-06-23T12:32:44Z</time>
      </trkpt>
      <trkpt lat="48.44614" lon="7.42367">
        <ele>337.55</ele>
        <time>2021-06-23T12:32:52Z</time>
      </trkpt>
      <trkpt lat="48.44598" lon="7.4236">
        <ele>338.96</ele>
        <time>2021-06-23T12:33:00Z</time>
      </trkpt>
      <trkpt lat="48.44585" lon="7.42367">
        <ele>339.88</ele>
        <time>2021-06-23T12:33:03Z</time>
      </trkpt>
      <trkpt lat="48.44562" lon="7.42309">
        <ele>344.12</ele>
        <time>2021-06-23T12:33:11Z</time>
      </trkpt>
      <trkpt lat="48.44535" lon="7.42326">
        <ele>344.27</ele>
        <time>2021-06-23T12:33:16Z</time>
      </trkpt>
      <trkpt lat="48.44505" lon="7.42341">
        <ele>345.14</ele>
        <time>2021-06-23T12:33:20Z</time>
      </trkpt>
      <trkpt lat="48.44496" lon="7.42351">
        <ele>345.02</ele>
        <time>2021-06-23T12:33:25Z</time>
      </trkpt>
      <trkpt lat="48.44492" lon="7.42359">
        <ele>344.77</ele>
        <time>2021-06-23T12:33:29Z</time>
      </trkpt>
      <trkpt lat="48.44497" lon="7.42366">
        <ele>343.86</ele>
        <time>2021-06-23T12:33:31Z</time>
      </trkpt>
      <trkpt lat="48.4448" lon="7.42391">
        <ele>342.5</ele>
        <time>2021-06-23T12:33:34Z</time>
      </trkpt>
      <trkpt lat="48.44478" lon="7.42397">
        <ele>341.74</ele>
        <time>2021-06-23T12:33:38Z</time>
      </trkpt>
      <trkpt lat="48.44427" lon="7.42406">
        <ele>339.97</ele>
        <time>2021-06-23T12:33:40Z</time>
      </trkpt>
      <trkpt lat="48.44406" lon="7.42404">
        <ele>338.63</ele>
        <time>2021-06-23T12:33:42Z</time>
      </trkpt>
      <trkpt lat="48.44391" lon="7.42399">
        <ele>337.56</ele>
        <time>2021-06-23T12:33:45Z</time>
      </trkpt>
      <trkpt lat="48.44348" lon="7.42373">
        <ele>337.81</ele>
        <time>2021-06-23T12:33:47Z</time>
      </trkpt>
      <trkpt lat="48.44323" lon="7.42358">
        <ele>338.13</ele>
        <time>2021-06-23T12:33:49Z</time>
      </trkpt>
      <trkpt lat="48.44313" lon="7.42346">
        <ele>339.24</ele>
        <time>2021-06-23T12:33:52Z</time>
      </trkpt>
      <trkpt lat="48.44306" lon="7.42333">
        <ele>341.15</ele>
        <time>2021-06-23T12:33:54Z</time>
      </trkpt>
      <trkpt lat="48.44294" lon="7.42301">
        <ele>347.3</ele>
        <time>2021-06-23T12:33:57Z</time>
      </trkpt>
      <trkpt lat="48.44286" lon="7.42284">
        <ele>350.11</ele>
        <time>2021-06-23T12:33:59Z</time>
      </trkpt>
      <trkpt lat="48.44268" lon="7.42261">
        <ele>354.61</ele>
        <time>2021-06-23T12:34:01Z</time>
      </trkpt>
      <trkpt lat="48.44218" lon="7.42216">
        <ele>361.34</ele>
        <time>2021-06-23T12:34:04Z</time>
      </trkpt>
      <trkpt lat="48.44205" lon="7.4221">
        <ele>362.43</ele>
        <time>2021-06-23T12:34:06Z</time>
      </trkpt>
      <trkpt lat="48.44194" lon="7.42214">
        <ele>362.05</ele>
        <time>2021-06-23T12:34:08Z</time>
      </trkpt>
      <trkpt lat="48.44186" lon="7.42225">
        <ele>362.69</ele>
        <time>2021-06-23T12:34:11Z</time>
      </trkpt>
      <trkpt lat="48.44182" lon="7.42239">
        <ele>362.86</ele>
        <time>2021-06-23T12:34:13Z</time>
      </trkpt>
      <trkpt lat="48.44183" lon="7.42317">
        <ele>359.44</ele>
        <time>2021-06-23T12:34:16Z</time>
      </trkpt>
      <trkpt lat="48.44173" lon="7.42347">
        <ele>360.91</ele>
        <time>2021-06-23T12:34:18Z</time>
      </trkpt>
      <trkpt lat="48.44113" lon="7.42413">
        <ele>369.77</ele>
        <time>2021-06-23T12:34:20Z</time>
      </trkpt>
      <trkpt lat="48.44027" lon="7.42502">
        <ele>378.99</ele>
        <time>2021-06-23T12:34:23Z</time>
      </trkpt>
      <trkpt lat="48.4394" lon="7.42547">
        <ele>390.76</ele>
        <time>2021-06-23T12:34:25Z</time>
      </trkpt>
      <trkpt lat="48.43921" lon="7.42549">
        <ele>393.11</ele>
        <time>2021-06-23T12:34:28Z</time>
      </trkpt>
      <trkpt lat="48.43894" lon="7.42538">
        <ele>399.18</ele>
        <time>2021-06-23T12:34:30Z</time>
      </trkpt>
      <trkpt lat="48.43856" lon="7.42508">
        <ele>409.46</ele>
        <time>2021-06-23T12:34:32Z</time>
      </trkpt>
      <trkpt lat="48.43813" lon="7.42478">
        <ele>410.52</ele>
        <time>2021-06-23T12:34:35Z</time>
      </trkpt>
      <trkpt lat="48.43703" lon="7.42417">
        <ele>421.92</ele>
        <time>2021-06-23T12:34:37Z</time>
      </trkpt>
      <trkpt lat="48.43689" lon="7.42417">
        <ele>422.96</ele>
        <time>2021-06-23T12:34:39Z</time>
      </trkpt>
      <trkpt lat="48.43675" lon="7.42431">
        <ele>422.71</ele>
        <time>2021-06-23T12:34:42Z</time>
      </trkpt>
      <trkpt lat="48.43665" lon="7.42437">
        <ele>423.06</ele>
        <time>2021-06-23T12:34:44Z</time>
      </trkpt>
      <trkpt lat="48.43657" lon="7.42435">
        <ele>426.29</ele>
        <time>2021-06-23T12:34:47Z</time>
      </trkpt>
      <trkpt lat="48.43652" lon="7.42424">
        <ele>430.17</ele>
        <time>2021-06-23T12:34:49Z</time>
      </trkpt>
      <trkpt lat="48.43651" lon="7.42413">
        <ele>432.64</ele>
        <time>2021-06-23T12:34:51Z</time>
      </trkpt>
      <trkpt lat="48.43654" lon="7.42405">
        <ele>434.47</ele>
        <time>2021-06-23T12:34:54Z</time>
      </trkpt>
      <trkpt lat="48.43674" lon="7.42389">
        <ele>435.5</ele>
        <time>2021-06-23T12:34:56Z</time>
      </trkpt>
      <trkpt lat="48.43686" lon="7.42387">
        <ele>433.39</ele>
        <time>2021-06-23T12:34:58Z</time>
      </trkpt>
      <trkpt lat="48.43739" lon="7.42408">
        <ele>427.48</ele>
        <time>2021-06-23T12:35:01Z</time>
      </trkpt>
      <trkpt lat="48.43818" lon="7.42418">
        <ele>434.47</ele>
        <time>2021-06-23T12:35:03Z</time>
      </trkpt>
      <trkpt lat="48.43875" lon="7.42422">
        <ele>436.86</ele>
        <time>2021-06-23T12:35:06Z</time>
      </trkpt>
      <trkpt lat="48.439" lon="7.42415">
        <ele>437.18</ele>
        <time>2021-06-23T12:35:08Z</time>
      </trkpt>
      <trkpt lat="48.43921" lon="7.42393">
        <ele>440.99</ele>
        <time>2021-06-23T12:35:10Z</time>
      </trkpt>
      <trkpt lat="48.43974" lon="7.42312">
        <ele>439.44</ele>
        <time>2021-06-23T12:35:13Z</time>
      </trkpt>
      <trkpt lat="48.43984" lon="7.42284">
        <ele>440.82</ele>
        <time>2021-06-23T12:35:15Z</time>
      </trkpt>
      <trkpt lat="48.43992" lon="7.42224">
        <ele>445.93</ele>
        <time>2021-06-23T12:35:17Z</time>
      </trkpt>
      <trkpt lat="48.43996" lon="7.42163">
        <ele>448.89</ele>
        <time>2021-06-23T12:35:20Z</time>
      </trkpt>
      <trkpt lat="48.43995" lon="7.42119">
        <ele>452.06</ele>
        <time>2021-06-23T12:35:22Z</time>
      </trkpt>
      <trkpt lat="48.4399" lon="7.4206">
        <ele>455.05</ele>
        <time>2021-06-23T12:35:25Z</time>
      </trkpt>
      <trkpt lat="48.4399" lon="7.42006">
        <ele>457.15</ele>
        <time>2021-06-23T12:35:27Z</time>
      </trkpt>
      <trkpt lat="48.43983" lon="7.41913">
        <ele>460.24</ele>
        <time>2021-06-23T12:35:29Z</time>
      </trkpt>
      <trkpt lat="48.43978" lon="7.41887">
        <ele>460.4</ele>
        <time>2021-06-23T12:35:32Z</time>
      </trkpt>
      <trkpt lat="48.43968" lon="7.41861">
        <ele>462.86</ele>
        <time>2021-06-23T12:35:34Z</time>
      </trkpt>
      <trkpt lat="48.43948" lon="7.41823">
        <ele>467.5</ele>
        <time>2021-06-23T12:35:36Z</time>
      </trkpt>
      <trkpt lat="48.43944" lon="7.41807">
        <ele>468.25</ele>
        <time>2021-06-23T12:35:39Z</time>
      </trkpt>
      <trkpt lat="48.43941" lon="7.41761">
        <ele>463.37</ele>
        <time>2021-06-23T12:35:41Z</time>
      </trkpt>
      <trkpt lat="48.43936" lon="7.41743">
        <ele>465.22</ele>
        <time>2021-06-23T12:35:44Z</time>
      </trkpt>
      <trkpt lat="48.43927" lon="7.41723">
        <ele>467.35</ele>
        <time>2021-06-23T12:35:46Z</time>
      </trkpt>
      <trkpt lat="48.43868" lon="7.41647">
        <ele>478.43</ele>
        <time>2021-06-23T12:35:48Z</time>
      </trkpt>
      <trkpt lat="48.4382" lon="7.41589">
        <ele>482.18</ele>
        <time>2021-06-23T12:35:51Z</time>
      </trkpt>
      <trkpt lat="48.43797" lon="7.41552">
        <ele>484.04</ele>
        <time>2021-06-23T12:35:53Z</time>
      </trkpt>
      <trkpt lat="48.43788" lon="7.41549">
        <ele>486.18</ele>
        <time>2021-06-23T12:35:55Z</time>
      </trkpt>
      <trkpt lat="48.43779" lon="7.41556">
        <ele>489.62</ele>
        <time>2021-06-23T12:35:58Z</time>
      </trkpt>
      <trkpt lat="48.43777" lon="7.41565">
        <ele>490.61</ele>
        <time>2021-06-23T12:36:00Z</time>
      </trkpt>
      <trkpt lat="48.43779" lon="7.41575">
        <ele>490.46</ele>
        <time>2021-06-23T12:36:03Z</time>
      </trkpt>
      <trkpt lat="48.43782" lon="7.4159">
        <ele>490.44</ele>
        <time>2021-06-23T12:36:05Z</time>
      </trkpt>
      <trkpt lat="48.43794" lon="7.41624">
        <ele>492.33</ele>
        <time>2021-06-23T12:36:07Z</time>
      </trkpt>
      <trkpt lat="48.43805" lon="7.41671">
        <ele>495.82</ele>
        <time>2021-06-23T12:36:10Z</time>
      </trkpt>
      <trkpt lat="48.43815" lon="7.41698">
        <ele>497.49</ele>
        <time>2021-06-23T12:36:12Z</time>
      </trkpt>
      <trkpt lat="48.43831" lon="7.41728">
        <ele>496.8</ele>
        <time>2021-06-23T12:36:14Z</time>
      </trkpt>
      <trkpt lat="48.43838" lon="7.41747">
        <ele>498.44</ele>
        <time>2021-06-23T12:36:17Z</time>
      </trkpt>
      <trkpt lat="48.43841" lon="7.41771">
        <ele>500.08</ele>
        <time>2021-06-23T12:36:19Z</time>
      </trkpt>
      <trkpt lat="48.43836" lon="7.41877">
        <ele>505.5</ele>
        <time>2021-06-23T12:36:22Z</time>
      </trkpt>
      <trkpt lat="48.43834" lon="7.41899">
        <ele>505.91</ele>
        <time>2021-06-23T12:36:24Z</time>
      </trkpt>
      <trkpt lat="48.43826" lon="7.41917">
        <ele>507.97</ele>
        <time>2021-06-23T12:36:26Z</time>
      </trkpt>
      <trkpt lat="48.43816" lon="7.41933">
        <ele>509.82</ele>
        <time>2021-06-23T12:36:29Z</time>
      </trkpt>
      <trkpt lat="48.43738" lon="7.42004">
        <ele>520.07</ele>
        <time>2021-06-23T12:36:31Z</time>
      </trkpt>
      <trkpt lat="48.43677" lon="7.42044">
        <ele>526.16</ele>
        <time>2021-06-23T12:36:33Z</time>
      </trkpt>
      <trkpt lat="48.43667" lon="7.42047">
        <ele>528.77</ele>
        <time>2021-06-23T12:36:36Z</time>
      </trkpt>
      <trkpt lat="48.43659" lon="7.42044">
        <ele>530.58</ele>
        <time>2021-06-23T12:36:38Z</time>
      </trkpt>
      <trkpt lat="48.43653" lon="7.42038">
        <ele>532.18</ele>
        <time>2021-06-23T12:36:41Z</time>
      </trkpt>
      <trkpt lat="48.43651" lon="7.42027">
        <ele>533.65</ele>
        <time>2021-06-23T12:36:43Z</time>
      </trkpt>
      <trkpt lat="48.43654" lon="7.42011">
        <ele>533.68</ele>
        <time>2021-06-23T12:36:45Z</time>
      </trkpt>
      <trkpt lat="48.43666" lon="7.41984">
        <ele>531.37</ele>
        <time>2021-06-23T12:36:48Z</time>
      </trkpt>
      <trkpt lat="48.4367" lon="7.41968">
        <ele>531.82</ele>
        <time>2021-06-23T12:36:50Z</time>
      </trkpt>
      <trkpt lat="48.43667" lon="7.41911">
        <ele>538.93</ele>
        <time>2021-06-23T12:36:52Z</time>
      </trkpt>
      <trkpt lat="48.43671" lon="7.41815">
        <ele>546.63</ele>
        <time>2021-06-23T12:36:55Z</time>
      </trkpt>
      <trkpt lat="48.43671" lon="7.41797">
        <ele>547.38</ele>
        <time>2021-06-23T12:36:57Z</time>
      </trkpt>
      <trkpt lat="48.43668" lon="7.4178">
        <ele>548.67</ele>
        <time>2021-06-23T12:37:00Z</time>
      </trkpt>
      <trkpt lat="48.43642" lon="7.41742">
        <ele>553.58</ele>
        <time>2021-06-23T12:37:02Z</time>
      </trkpt>
      <trkpt lat="48.43624" lon="7.41689">
        <ele>553.4</ele>
        <time>2021-06-23T12:37:04Z</time>
      </trkpt>
      <trkpt lat="48.43618" lon="7.41681">
        <ele>553.19</ele>
        <time>2021-06-23T12:37:07Z</time>
      </trkpt>
      <trkpt lat="48.43612" lon="7.41679">
        <ele>553.78</ele>
        <time>2021-06-23T12:37:09Z</time>
      </trkpt>
      <trkpt lat="48.43606" lon="7.41682">
        <ele>555.19</ele>
        <time>2021-06-23T12:37:11Z</time>
      </trkpt>
      <trkpt lat="48.43603" lon="7.41689">
        <ele>556.83</ele>
        <time>2021-06-23T12:37:14Z</time>
      </trkpt>
      <trkpt lat="48.43594" lon="7.41754">
        <ele>559.98</ele>
        <time>2021-06-23T12:37:16Z</time>
      </trkpt>
      <trkpt lat="48.43588" lon="7.41777">
        <ele>561.5</ele>
        <time>2021-06-23T12:37:19Z</time>
      </trkpt>
      <trkpt lat="48.43569" lon="7.41819">
        <ele>566.12</ele>
        <time>2021-06-23T12:37:21Z</time>
      </trkpt>
      <trkpt lat="48.43563" lon="7.41837">
        <ele>566.77</ele>
        <time>2021-06-23T12:37:23Z</time>
      </trkpt>
      <trkpt lat="48.43545" lon="7.41935">
        <ele>561.67</ele>
        <time>2021-06-23T12:37:26Z</time>
      </trkpt>
      <trkpt lat="48.43535" lon="7.41954">
        <ele>561.16</ele>
        <time>2021-06-23T12:37:28Z</time>
      </trkpt>
      <trkpt lat="48.43522" lon="7.41962">
        <ele>563.1</ele>
        <time>2021-06-23T12:37:30Z</time>
      </trkpt>
      <trkpt lat="48.43499" lon="7.41966">
        <ele>568.01</ele>
        <time>2021-06-23T12:37:33Z</time>
      </trkpt>
      <trkpt lat="48.43472" lon="7.41962">
        <ele>573.74</ele>
        <time>2021-06-23T12:37:35Z</time>
      </trkpt>
      <trkpt lat="48.4346" lon="7.41954">
        <ele>575.77</ele>
        <time>2021-06-23T12:37:38Z</time>
      </trkpt>
      <trkpt lat="48.43453" lon="7.41946">
        <ele>576.94</ele>
        <time>2021-06-23T12:37:40Z</time>
      </trkpt>
      <trkpt lat="48.43448" lon="7.41935">
        <ele>578.24</ele>
        <time>2021-06-23T12:37:42Z</time>
      </trkpt>
      <trkpt lat="48.43444" lon="7.41919">
        <ele>579.88</ele>
        <time>2021-06-23T12:37:45Z</time>
      </trkpt>
      <trkpt lat="48.43445" lon="7.419">
        <ele>580.51</ele>
        <time>2021-06-23T12:37:47Z</time>
      </trkpt>
      <trkpt lat="48.43464" lon="7.41831">
        <ele>577.06</ele>
        <time>2021-06-23T12:37:49Z</time>
      </trkpt>
      <trkpt lat="48.43467" lon="7.41804">
        <ele>575.14</ele>
        <time>2021-06-23T12:37:52Z</time>
      </trkpt>
      <trkpt lat="48.43464" lon="7.41789">
        <ele>575.47</ele>
        <time>2021-06-23T12:37:54Z</time>
      </trkpt>
      <trkpt lat="48.4346" lon="7.41783">
        <ele>576.65</ele>
        <time>2021-06-23T12:37:57Z</time>
      </trkpt>
      <trkpt lat="48.43451" lon="7.41783">
        <ele>579</ele>
        <time>2021-06-23T12:37:59Z</time>
      </trkpt>
      <trkpt lat="48.43442" lon="7.41787">
        <ele>581.6</ele>
        <time>2021-06-23T12:38:02Z</time>
      </trkpt>
      <trkpt lat="48.43438" lon="7.41794">
        <ele>582.65</ele>
        <time>2021-06-23T12:38:05Z</time>
      </trkpt>
      <trkpt lat="48.43436" lon="7.41802">
        <ele>582.94</ele>
        <time>2021-06-23T12:38:07Z</time>
      </trkpt>
      <trkpt lat="48.43437" lon="7.41841">
        <ele>582.53</ele>
        <time>2021-06-23T12:38:10Z</time>
      </trkpt>
      <trkpt lat="48.43432" lon="7.41855">
        <ele>583.75</ele>
        <time>2021-06-23T12:38:13Z</time>
      </trkpt>
      <trkpt lat="48.43396" lon="7.419">
        <ele>589.51</ele>
        <time>2021-06-23T12:38:15Z</time>
      </trkpt>
      <trkpt lat="48.43323" lon="7.41968">
        <ele>601.49</ele>
        <time>2021-06-23T12:38:18Z</time>
      </trkpt>
      <trkpt lat="48.43242" lon="7.42027">
        <ele>611.09</ele>
        <time>2021-06-23T12:38:21Z</time>
      </trkpt>
      <trkpt lat="48.4319" lon="7.42059">
        <ele>617.04</ele>
        <time>2021-06-23T12:38:24Z</time>
      </trkpt>
      <trkpt lat="48.43167" lon="7.42067">
        <ele>618.55</ele>
        <time>2021-06-23T12:38:26Z</time>
      </trkpt>
      <trkpt lat="48.43143" lon="7.42067">
        <ele>618.81</ele>
        <time>2021-06-23T12:38:29Z</time>
      </trkpt>
      <trkpt lat="48.43104" lon="7.4206">
        <ele>618.79</ele>
        <time>2021-06-23T12:38:32Z</time>
      </trkpt>
      <trkpt lat="48.4305" lon="7.42058">
        <ele>620.63</ele>
        <time>2021-06-23T12:38:34Z</time>
      </trkpt>
      <trkpt lat="48.42963" lon="7.42065">
        <ele>623.71</ele>
        <time>2021-06-23T12:38:37Z</time>
      </trkpt>
      <trkpt lat="48.4292" lon="7.42057">
        <ele>629.29</ele>
        <time>2021-06-23T12:38:40Z</time>
      </trkpt>
      <trkpt lat="48.42899" lon="7.42056">
        <ele>630.43</ele>
        <time>2021-06-23T12:38:42Z</time>
      </trkpt>
      <trkpt lat="48.42891" lon="7.42058">
        <ele>630.25</ele>
        <time>2021-06-23T12:38:45Z</time>
      </trkpt>
      <trkpt lat="48.42867" lon="7.42071">
        <ele>627.65</ele>
        <time>2021-06-23T12:38:48Z</time>
      </trkpt>
      <trkpt lat="48.4286" lon="7.42072">
        <ele>627.39</ele>
        <time>2021-06-23T12:38:50Z</time>
      </trkpt>
      <trkpt lat="48.42852" lon="7.42069">
        <ele>626.64</ele>
        <time>2021-06-23T12:38:53Z</time>
      </trkpt>
      <trkpt lat="48.42845" lon="7.42063">
        <ele>626.28</ele>
        <time>2021-06-23T12:38:56Z</time>
      </trkpt>
      <trkpt lat="48.4275" lon="7.41938">
        <ele>640.31</ele>
        <time>2021-06-23T12:38:58Z</time>
      </trkpt>
      <trkpt lat="48.42733" lon="7.4191">
        <ele>640.87</ele>
        <time>2021-06-23T12:39:01Z</time>
      </trkpt>
      <trkpt lat="48.42661" lon="7.41742">
        <ele>639.59</ele>
        <time>2021-06-23T12:39:04Z</time>
      </trkpt>
      <trkpt lat="48.42646" lon="7.4172">
        <ele>639.19</ele>
        <time>2021-06-23T12:39:07Z</time>
      </trkpt>
      <trkpt lat="48.42629" lon="7.41703">
        <ele>637.92</ele>
        <time>2021-06-23T12:39:09Z</time>
      </trkpt>
      <trkpt lat="48.42594" lon="7.41681">
        <ele>636.55</ele>
        <time>2021-06-23T12:39:12Z</time>
      </trkpt>
      <trkpt lat="48.42574" lon="7.41672">
        <ele>637.51</ele>
        <time>2021-06-23T12:39:15Z</time>
      </trkpt>
      <trkpt lat="48.42558" lon="7.41669">
        <ele>638.44</ele>
        <time>2021-06-23T12:39:17Z</time>
      </trkpt>
      <trkpt lat="48.42517" lon="7.41669">
        <ele>643.28</ele>
        <time>2021-06-23T12:39:20Z</time>
      </trkpt>
      <trkpt lat="48.42501" lon="7.41673">
        <ele>643.49</ele>
        <time>2021-06-23T12:39:23Z</time>
      </trkpt>
      <trkpt lat="48.42453" lon="7.41697">
        <ele>637.38</ele>
        <time>2021-06-23T12:39:25Z</time>
      </trkpt>
      <trkpt lat="48.42426" lon="7.41708">
        <ele>641.6</ele>
        <time>2021-06-23T12:39:28Z</time>
      </trkpt>
      <trkpt lat="48.42333" lon="7.41716">
        <ele>651.05</ele>
        <time>2021-06-23T12:39:31Z</time>
      </trkpt>
      <trkpt lat="48.42313" lon="7.41722">
        <ele>651.98</ele>
        <time>2021-06-23T12:39:33Z</time>
      </trkpt>
      <trkpt lat="48.4227" lon="7.41743">
        <ele>649.01</ele>
        <time>2021-06-23T12:39:36Z</time>
      </trkpt>
      <trkpt lat="48.42254" lon="7.41748">
        <ele>647.61</ele>
        <time>2021-06-23T12:39:39Z</time>
      </trkpt>
      <trkpt lat="48.42237" lon="7.41747">
        <ele>648.98</ele>
        <time>2021-06-23T12:39:41Z</time>
      </trkpt>
      <trkpt lat="48.42218" lon="7.41737">
        <ele>651.67</ele>
        <time>2021-06-23T12:39:44Z</time>
      </trkpt>
      <trkpt lat="48.42199" lon="7.41723">
        <ele>652.27</ele>
        <time>2021-06-23T12:39:47Z</time>
      </trkpt>
      <trkpt lat="48.42182" lon="7.41702">
        <ele>653.44</ele>
        <time>2021-06-23T12:39:49Z</time>
      </trkpt>
      <trkpt lat="48.42168" lon="7.41681">
        <ele>653.74</ele>
        <time>2021-06-23T12:39:52Z</time>
      </trkpt>
      <trkpt lat="48.42152" lon="7.41649">
        <ele>654.48</ele>
        <time>2021-06-23T12:39:55Z</time>
      </trkpt>
      <trkpt lat="48.42142" lon="7.41625">
        <ele>654.11</ele>
        <time>2021-06-23T12:39:58Z</time>
      </trkpt>
      <trkpt lat="48.42137" lon="7.41605">
        <ele>653.86</ele>
        <time>2021-06-23T12:40:00Z</time>
      </trkpt>
      <trkpt lat="48.42133" lon="7.41584">
        <ele>653.85</ele>
        <time>2021-06-23T12:40:03Z</time>
      </trkpt>
      <trkpt lat="48.42133" lon="7.41559">
        <ele>654.74</ele>
        <time>2021-06-23T12:40:06Z</time>
      </trkpt>
      <trkpt lat="48.42157" lon="7.41401">
        <ele>661.08</ele>
        <time>2021-06-23T12:40:08Z</time>
      </trkpt>
      <trkpt lat="48.42163" lon="7.41306">
        <ele>661.03</ele>
        <time>2021-06-23T12:40:11Z</time>
      </trkpt>
      <trkpt lat="48.42162" lon="7.41289">
        <ele>660.05</ele>
        <time>2021-06-23T12:40:14Z</time>
      </trkpt>
      <trkpt lat="48.42167" lon="7.41285">
        <ele>661.22</ele>
        <time>2021-06-23T12:40:15Z</time>
      </trkpt>
      <trkpt lat="48.42171" lon="7.41278">
        <ele>663.35</ele>
        <time>2021-06-23T12:40:17Z</time>
      </trkpt>
      <trkpt lat="48.42172" lon="7.41265">
        <ele>665.7</ele>
        <time>2021-06-23T12:40:18Z</time>
      </trkpt>
      <trkpt lat="48.42155" lon="7.4115">
        <ele>666.33</ele>
        <time>2021-06-23T12:40:20Z</time>
      </trkpt>
      <trkpt lat="48.42155" lon="7.41114">
        <ele>668.43</ele>
        <time>2021-06-23T12:40:21Z</time>
      </trkpt>
      <trkpt lat="48.42159" lon="7.41082">
        <ele>670.92</ele>
        <time>2021-06-23T12:40:23Z</time>
      </trkpt>
      <trkpt lat="48.42181" lon="7.41002">
        <ele>675.23</ele>
        <time>2021-06-23T12:40:24Z</time>
      </trkpt>
      <trkpt lat="48.42217" lon="7.40919">
        <ele>686.64</ele>
        <time>2021-06-23T12:40:26Z</time>
      </trkpt>
      <trkpt lat="48.42225" lon="7.40894">
        <ele>691.3</ele>
        <time>2021-06-23T12:40:27Z</time>
      </trkpt>
      <trkpt lat="48.42229" lon="7.40872">
        <ele>692.1</ele>
        <time>2021-06-23T12:40:28Z</time>
      </trkpt>
      <trkpt lat="48.42232" lon="7.40846">
        <ele>689.87</ele>
        <time>2021-06-23T12:40:30Z</time>
      </trkpt>
      <trkpt lat="48.42229" lon="7.40781">
        <ele>690.88</ele>
        <time>2021-06-23T12:40:31Z</time>
      </trkpt>
      <trkpt lat="48.4222" lon="7.40708">
        <ele>697.48</ele>
        <time>2021-06-23T12:40:33Z</time>
      </trkpt>
      <trkpt lat="48.42213" lon="7.40666">
        <ele>701.24</ele>
        <time>2021-06-23T12:40:34Z</time>
      </trkpt>
      <trkpt lat="48.42201" lon="7.40617">
        <ele>700.29</ele>
        <time>2021-06-23T12:40:36Z</time>
      </trkpt>
      <trkpt lat="48.42181" lon="7.40547">
        <ele>695.51</ele>
        <time>2021-06-23T12:40:37Z</time>
      </trkpt>
      <trkpt lat="48.42177" lon="7.40519">
        <ele>693.41</ele>
        <time>2021-06-23T12:40:39Z</time>
      </trkpt>
      <trkpt lat="48.42176" lon="7.40478">
        <ele>693.21</ele>
        <time>2021-06-23T12:40:40Z</time>
      </trkpt>
      <trkpt lat="48.4218" lon="7.4045">
        <ele>696.39</ele>
        <time>2021-06-23T12:40:42Z</time>
      </trkpt>
      <trkpt lat="48.42187" lon="7.40423">
        <ele>698.53</ele>
        <time>2021-06-23T12:40:43Z</time>
      </trkpt>
      <trkpt lat="48.42204" lon="7.40382">
        <ele>703.56</ele>
        <time>2021-06-23T12:40:45Z</time>
      </trkpt>
      <trkpt lat="48.42229" lon="7.40342">
        <ele>712.55</ele>
        <time>2021-06-23T12:40:46Z</time>
      </trkpt>
      <trkpt lat="48.42239" lon="7.40318">
        <ele>714.23</ele>
        <time>2021-06-23T12:40:48Z</time>
      </trkpt>
      <trkpt lat="48.42244" lon="7.40295">
        <ele>715.03</ele>
        <time>2021-06-23T12:40:49Z</time>
      </trkpt>
      <trkpt lat="48.42259" lon="7.40219">
        <ele>717.41</ele>
        <time>2021-06-23T12:40:51Z</time>
      </trkpt>
      <trkpt lat="48.42273" lon="7.40119">
        <ele>721.47</ele>
        <time>2021-06-23T12:40:52Z</time>
      </trkpt>
      <trkpt lat="48.42279" lon="7.40011">
        <ele>721.39</ele>
        <time>2021-06-23T12:40:54Z</time>
      </trkpt>
      <trkpt lat="48.42284" lon="7.39994">
        <ele>722.64</ele>
        <time>2021-06-23T12:40:55Z</time>
      </trkpt>
      <trkpt lat="48.4229" lon="7.39983">
        <ele>723.3</ele>
        <time>2021-06-23T12:40:57Z</time>
      </trkpt>
      <trkpt lat="48.42308" lon="7.40016">
        <ele>725.01</ele>
        <time>2021-06-23T12:40:58Z</time>
      </trkpt>
      <trkpt lat="48.42334" lon="7.4007">
        <ele>729.61</ele>
        <time>2021-06-23T12:41:00Z</time>
      </trkpt>
      <trkpt lat="48.42347" lon="7.40092">
        <ele>733.64</ele>
        <time>2021-06-23T12:41:02Z</time>
      </trkpt>
      <trkpt lat="48.42358" lon="7.40101">
        <ele>736.11</ele>
        <time>2021-06-23T12:41:04Z</time>
      </trkpt>
      <trkpt lat="48.42372" lon="7.40104">
        <ele>736.71</ele>
        <time>2021-06-23T12:41:06Z</time>
      </trkpt>
      <trkpt lat="48.4239" lon="7.40097">
        <ele>735.78</ele>
        <time>2021-06-23T12:41:07Z</time>
      </trkpt>
      <trkpt lat="48.4241" lon="7.40076">
        <ele>737.28</ele>
        <time>2021-06-23T12:41:09Z</time>
      </trkpt>
      <trkpt lat="48.42432" lon="7.40045">
        <ele>739.1</ele>
        <time>2021-06-23T12:41:11Z</time>
      </trkpt>
      <trkpt lat="48.42501" lon="7.39963">
        <ele>740.72</ele>
        <time>2021-06-23T12:41:13Z</time>
      </trkpt>
      <trkpt lat="48.42513" lon="7.39954">
        <ele>740.24</ele>
        <time>2021-06-23T12:41:14Z</time>
      </trkpt>
      <trkpt lat="48.42529" lon="7.39945">
        <ele>740.18</ele>
        <time>2021-06-23T12:41:16Z</time>
      </trkpt>
      <trkpt lat="48.42548" lon="7.39942">
        <ele>740.34</ele>
        <time>2021-06-23T12:41:18Z</time>
      </trkpt>
      <trkpt lat="48.42567" lon="7.39948">
        <ele>742</ele>
        <time>2021-06-23T12:41:20Z</time>
      </trkpt>
      <trkpt lat="48.42586" lon="7.39962">
        <ele>744.97</ele>
        <time>2021-06-23T12:41:22Z</time>
      </trkpt>
      <trkpt lat="48.42604" lon="7.3998">
        <ele>747.16</ele>
        <time>2021-06-23T12:41:23Z</time>
      </trkpt>
      <trkpt lat="48.42616" lon="7.39995">
        <ele>749.32</ele>
        <time>2021-06-23T12:41:25Z</time>
      </trkpt>
      <trkpt lat="48.42649" lon="7.40044">
        <ele>751.8</ele>
        <time>2021-06-23T12:41:27Z</time>
      </trkpt>
      <trkpt lat="48.42683" lon="7.40085">
        <ele>753.34</ele>
        <time>2021-06-23T12:41:29Z</time>
      </trkpt>
      <trkpt lat="48.42704" lon="7.40099">
        <ele>752.38</ele>
        <time>2021-06-23T12:41:30Z</time>
      </trkpt>
      <trkpt lat="48.42726" lon="7.4011">
        <ele>752.36</ele>
        <time>2021-06-23T12:41:32Z</time>
      </trkpt>
      <trkpt lat="48.42741" lon="7.40112">
        <ele>754.23</ele>
        <time>2021-06-23T12:41:34Z</time>
      </trkpt>
      <trkpt lat="48.4276" lon="7.40109">
        <ele>756.7</ele>
        <time>2021-06-23T12:41:36Z</time>
      </trkpt>
      <trkpt lat="48.42769" lon="7.40104">
        <ele>757.57</ele>
        <time>2021-06-23T12:41:38Z</time>
      </trkpt>
      <trkpt lat="48.4278" lon="7.40095">
        <ele>758</ele>
        <time>2021-06-23T12:41:39Z</time>
      </trkpt>
      <trkpt lat="48.42791" lon="7.40075">
        <ele>757.86</ele>
        <time>2021-06-23T12:41:41Z</time>
      </trkpt>
      <trkpt lat="48.4282" lon="7.40009">
        <ele>755.05</ele>
        <time>2021-06-23T12:41:43Z</time>
      </trkpt>
      <trkpt lat="48.42862" lon="7.39946">
        <ele>755.28</ele>
        <time>2021-06-23T12:41:45Z</time>
      </trkpt>
      <trkpt lat="48.42873" lon="7.39933">
        <ele>755.93</ele>
        <time>2021-06-23T12:41:46Z</time>
      </trkpt>
      <trkpt lat="48.42884" lon="7.39923">
        <ele>756.75</ele>
        <time>2021-06-23T12:41:48Z</time>
      </trkpt>
      <trkpt lat="48.42914" lon="7.39908">
        <ele>759.11</ele>
        <time>2021-06-23T12:41:50Z</time>
      </trkpt>
      <trkpt lat="48.42937" lon="7.399">
        <ele>758.89</ele>
        <time>2021-06-23T12:41:52Z</time>
      </trkpt>
      <trkpt lat="48.42958" lon="7.399">
        <ele>758.22</ele>
        <time>2021-06-23T12:41:54Z</time>
      </trkpt>
      <trkpt lat="48.42977" lon="7.39914">
        <ele>758.96</ele>
        <time>2021-06-23T12:41:55Z</time>
      </trkpt>
      <trkpt lat="48.43008" lon="7.39954">
        <ele>762.34</ele>
        <time>2021-06-23T12:41:57Z</time>
      </trkpt>
      <trkpt lat="48.43031" lon="7.3999">
        <ele>760.5</ele>
        <time>2021-06-23T12:41:59Z</time>
      </trkpt>
      <trkpt lat="48.4305" lon="7.40012">
        <ele>758.03</ele>
        <time>2021-06-23T12:42:01Z</time>
      </trkpt>
      <trkpt lat="48.43075" lon="7.40031">
        <ele>754.88</ele>
        <time>2021-06-23T12:42:03Z</time>
      </trkpt>
      <trkpt lat="48.431" lon="7.40048">
        <ele>753.58</ele>
        <time>2021-06-23T12:42:04Z</time>
      </trkpt>
      <trkpt lat="48.43114" lon="7.40054">
        <ele>753.51</ele>
        <time>2021-06-23T12:42:06Z</time>
      </trkpt>
      <trkpt lat="48.43127" lon="7.40055">
        <ele>752.82</ele>
        <time>2021-06-23T12:42:08Z</time>
      </trkpt>
      <trkpt lat="48.43166" lon="7.40043">
        <ele>748.28</ele>
        <time>2021-06-23T12:42:10Z</time>
      </trkpt>
      <trkpt lat="48.43177" lon="7.40043">
        <ele>747.43</ele>
        <time>2021-06-23T12:42:11Z</time>
      </trkpt>
      <trkpt lat="48.43274" lon="7.40073">
        <ele>742.65</ele>
        <time>2021-06-23T12:42:13Z</time>
      </trkpt>
      <trkpt lat="48.4328" lon="7.40073">
        <ele>742.01</ele>
        <time>2021-06-23T12:42:15Z</time>
      </trkpt>
      <trkpt lat="48.43286" lon="7.4008">
        <ele>742.6</ele>
        <time>2021-06-23T12:42:17Z</time>
      </trkpt>
      <trkpt lat="48.43293" lon="7.40076">
        <ele>741.18</ele>
        <time>2021-06-23T12:42:19Z</time>
      </trkpt>
      <trkpt lat="48.43299" lon="7.40081">
        <ele>741.26</ele>
        <time>2021-06-23T12:42:20Z</time>
      </trkpt>
      <trkpt lat="48.43331" lon="7.40095">
        <ele>741.81</ele>
        <time>2021-06-23T12:42:22Z</time>
      </trkpt>
      <trkpt lat="48.43387" lon="7.40137">
        <ele>750.4</ele>
        <time>2021-06-23T12:42:24Z</time>
      </trkpt>
      <trkpt lat="48.43416" lon="7.40164">
        <ele>751.52</ele>
        <time>2021-06-23T12:42:26Z</time>
      </trkpt>
      <trkpt lat="48.43457" lon="7.40212">
        <ele>756.05</ele>
        <time>2021-06-23T12:42:27Z</time>
      </trkpt>
      <trkpt lat="48.43469" lon="7.40222">
        <ele>756.32</ele>
        <time>2021-06-23T12:42:29Z</time>
      </trkpt>
      <trkpt lat="48.43475" lon="7.40224">
        <ele>756.01</ele>
        <time>2021-06-23T12:42:31Z</time>
      </trkpt>
      <trkpt lat="48.43488" lon="7.40224">
        <ele>755.57</ele>
        <time>2021-06-23T12:42:33Z</time>
      </trkpt>
      <trkpt lat="48.43514" lon="7.40211">
        <ele>753.22</ele>
        <time>2021-06-23T12:42:34Z</time>
      </trkpt>
      <trkpt lat="48.43537" lon="7.40208">
        <ele>751.72</ele>
        <time>2021-06-23T12:42:36Z</time>
      </trkpt>
      <trkpt lat="48.4356" lon="7.40219">
        <ele>753.12</ele>
        <time>2021-06-23T12:42:38Z</time>
      </trkpt>
      <trkpt lat="48.43572" lon="7.4023">
        <ele>752.69</ele>
        <time>2021-06-23T12:42:40Z</time>
      </trkpt>
      <trkpt lat="48.43572" lon="7.4023">
        <ele>752.69</ele>
        <time>2021-06-23T12:42:40Z</time>
      </trkpt>
      <trkpt lat="48.4356" lon="7.40219">
        <ele>753.12</ele>
        <time>2021-06-23T12:42:41Z</time>
      </trkpt>
      <trkpt lat="48.43537" lon="7.40208">
        <ele>751.72</ele>
        <time>2021-06-23T12:42:43Z</time>
      </trkpt>
      <trkpt lat="48.4353" lon="7.40199">
        <ele>750</ele>
        <time>2021-06-23T12:42:45Z</time>
      </trkpt>
      <trkpt lat="48.43521" lon="7.40196">
        <ele>749.96</ele>
        <time>2021-06-23T12:42:46Z</time>
      </trkpt>
      <trkpt lat="48.43512" lon="7.40196">
        <ele>750.96</ele>
        <time>2021-06-23T12:42:48Z</time>
      </trkpt>
      <trkpt lat="48.43489" lon="7.40205">
        <ele>753.29</ele>
        <time>2021-06-23T12:42:50Z</time>
      </trkpt>
      <trkpt lat="48.43482" lon="7.40206">
        <ele>753.49</ele>
        <time>2021-06-23T12:42:52Z</time>
      </trkpt>
      <trkpt lat="48.43475" lon="7.40204">
        <ele>753.29</ele>
        <time>2021-06-23T12:42:53Z</time>
      </trkpt>
      <trkpt lat="48.43462" lon="7.40194">
        <ele>752.68</ele>
        <time>2021-06-23T12:42:55Z</time>
      </trkpt>
      <trkpt lat="48.4342" lon="7.40142">
        <ele>747.08</ele>
        <time>2021-06-23T12:42:57Z</time>
      </trkpt>
      <trkpt lat="48.43395" lon="7.40116">
        <ele>744.82</ele>
        <time>2021-06-23T12:42:58Z</time>
      </trkpt>
      <trkpt lat="48.43372" lon="7.40101">
        <ele>742.21</ele>
        <time>2021-06-23T12:43:00Z</time>
      </trkpt>
      <trkpt lat="48.43312" lon="7.40075">
        <ele>739.47</ele>
        <time>2021-06-23T12:43:02Z</time>
      </trkpt>
      <trkpt lat="48.43294" lon="7.40071">
        <ele>740.31</ele>
        <time>2021-06-23T12:43:03Z</time>
      </trkpt>
      <trkpt lat="48.43294" lon="7.40067">
        <ele>739.56</ele>
        <time>2021-06-23T12:43:05Z</time>
      </trkpt>
      <trkpt lat="48.4329" lon="7.40059">
        <ele>738.66</ele>
        <time>2021-06-23T12:43:07Z</time>
      </trkpt>
      <trkpt lat="48.43284" lon="7.40058">
        <ele>739.01</ele>
        <time>2021-06-23T12:43:08Z</time>
      </trkpt>
      <trkpt lat="48.43281" lon="7.40063">
        <ele>740.06</ele>
        <time>2021-06-23T12:43:10Z</time>
      </trkpt>
      <trkpt lat="48.4328" lon="7.40073">
        <ele>742.01</ele>
        <time>2021-06-23T12:43:12Z</time>
      </trkpt>
      <trkpt lat="48.43274" lon="7.40073">
        <ele>742.65</ele>
        <time>2021-06-23T12:43:13Z</time>
      </trkpt>
      <trkpt lat="48.43177" lon="7.40043">
        <ele>747.43</ele>
        <time>2021-06-23T12:43:15Z</time>
      </trkpt>
      <trkpt lat="48.43166" lon="7.40043">
        <ele>748.28</ele>
        <time>2021-06-23T12:43:16Z</time>
      </trkpt>
      <trkpt lat="48.43127" lon="7.40055">
        <ele>752.82</ele>
        <time>2021-06-23T12:43:18Z</time>
      </trkpt>
      <trkpt lat="48.43114" lon="7.40054">
        <ele>753.51</ele>
        <time>2021-06-23T12:43:20Z</time>
      </trkpt>
      <trkpt lat="48.431" lon="7.40048">
        <ele>753.58</ele>
        <time>2021-06-23T12:43:21Z</time>
      </trkpt>
      <trkpt lat="48.43075" lon="7.40031">
        <ele>754.88</ele>
        <time>2021-06-23T12:43:23Z</time>
      </trkpt>
      <trkpt lat="48.4305" lon="7.40012">
        <ele>758.03</ele>
        <time>2021-06-23T12:43:25Z</time>
      </trkpt>
      <trkpt lat="48.43031" lon="7.3999">
        <ele>760.5</ele>
        <time>2021-06-23T12:43:26Z</time>
      </trkpt>
      <trkpt lat="48.43008" lon="7.39954">
        <ele>762.34</ele>
        <time>2021-06-23T12:43:28Z</time>
      </trkpt>
      <trkpt lat="48.42977" lon="7.39914">
        <ele>758.96</ele>
        <time>2021-06-23T12:43:29Z</time>
      </trkpt>
      <trkpt lat="48.42958" lon="7.399">
        <ele>758.22</ele>
        <time>2021-06-23T12:43:31Z</time>
      </trkpt>
      <trkpt lat="48.42937" lon="7.399">
        <ele>758.89</ele>
        <time>2021-06-23T12:43:33Z</time>
      </trkpt>
      <trkpt lat="48.42914" lon="7.39908">
        <ele>759.11</ele>
        <time>2021-06-23T12:43:34Z</time>
      </trkpt>
      <trkpt lat="48.42884" lon="7.39923">
        <ele>756.75</ele>
        <time>2021-06-23T12:43:36Z</time>
      </trkpt>
      <trkpt lat="48.42873" lon="7.39933">
        <ele>755.93</ele>
        <time>2021-06-23T12:43:38Z</time>
      </trkpt>
      <trkpt lat="48.42862" lon="7.39946">
        <ele>755.28</ele>
        <time>2021-06-23T12:43:39Z</time>
      </trkpt>
      <trkpt lat="48.4282" lon="7.40009">
        <ele>755.05</ele>
        <time>2021-06-23T12:43:41Z</time>
      </trkpt>
      <trkpt lat="48.42791" lon="7.40075">
        <ele>757.86</ele>
        <time>2021-06-23T12:43:42Z</time>
      </trkpt>
      <trkpt lat="48.4278" lon="7.40095">
        <ele>758</ele>
        <time>2021-06-23T12:43:44Z</time>
      </trkpt>
      <trkpt lat="48.42769" lon="7.40104">
        <ele>757.57</ele>
        <time>2021-06-23T12:43:46Z</time>
      </trkpt>
      <trkpt lat="48.4276" lon="7.40109">
        <ele>756.7</ele>
        <time>2021-06-23T12:43:47Z</time>
      </trkpt>
      <trkpt lat="48.42741" lon="7.40112">
        <ele>754.23</ele>
        <time>2021-06-23T12:43:49Z</time>
      </trkpt>
      <trkpt lat="48.42726" lon="7.4011">
        <ele>752.36</ele>
        <time>2021-06-23T12:43:51Z</time>
      </trkpt>
      <trkpt lat="48.42704" lon="7.40099">
        <ele>752.38</ele>
        <time>2021-06-23T12:43:52Z</time>
      </trkpt>
      <trkpt lat="48.42683" lon="7.40085">
        <ele>753.34</ele>
        <time>2021-06-23T12:43:54Z</time>
      </trkpt>
      <trkpt lat="48.42649" lon="7.40044">
        <ele>751.8</ele>
        <time>2021-06-23T12:43:55Z</time>
      </trkpt>
      <trkpt lat="48.42616" lon="7.39995">
        <ele>749.32</ele>
        <time>2021-06-23T12:43:57Z</time>
      </trkpt>
      <trkpt lat="48.42604" lon="7.3998">
        <ele>747.16</ele>
        <time>2021-06-23T12:43:59Z</time>
      </trkpt>
      <trkpt lat="48.42586" lon="7.39962">
        <ele>744.97</ele>
        <time>2021-06-23T12:44:00Z</time>
      </trkpt>
      <trkpt lat="48.42567" lon="7.39948">
        <ele>742</ele>
        <time>2021-06-23T12:44:02Z</time>
      </trkpt>
      <trkpt lat="48.42548" lon="7.39942">
        <ele>740.34</ele>
        <time>2021-06-23T12:44:04Z</time>
      </trkpt>
      <trkpt lat="48.42529" lon="7.39945">
        <ele>740.18</ele>
        <time>2021-06-23T12:44:05Z</time>
      </trkpt>
      <trkpt lat="48.42513" lon="7.39954">
        <ele>740.24</ele>
        <time>2021-06-23T12:44:07Z</time>
      </trkpt>
      <trkpt lat="48.42501" lon="7.39963">
        <ele>740.72</ele>
        <time>2021-06-23T12:44:08Z</time>
      </trkpt>
      <trkpt lat="48.42432" lon="7.40045">
        <ele>739.1</ele>
        <time>2021-06-23T12:44:10Z</time>
      </trkpt>
      <trkpt lat="48.4241" lon="7.40076">
        <ele>737.28</ele>
        <time>2021-06-23T12:44:12Z</time>
      </trkpt>
      <trkpt lat="48.4239" lon="7.40097">
        <ele>735.78</ele>
        <time>2021-06-23T12:44:13Z</time>
      </trkpt>
      <trkpt lat="48.42372" lon="7.40104">
        <ele>736.71</ele>
        <time>2021-06-23T12:44:15Z</time>
      </trkpt>
      <trkpt lat="48.42358" lon="7.40101">
        <ele>736.11</ele>
        <time>2021-06-23T12:44:17Z</time>
      </trkpt>
      <trkpt lat="48.42347" lon="7.40092">
        <ele>733.64</ele>
        <time>2021-06-23T12:44:18Z</time>
      </trkpt>
      <trkpt lat="48.42334" lon="7.4007">
        <ele>729.61</ele>
        <time>2021-06-23T12:44:20Z</time>
      </trkpt>
      <trkpt lat="48.42308" lon="7.40016">
        <ele>725.01</ele>
        <time>2021-06-23T12:44:21Z</time>
      </trkpt>
      <trkpt lat="48.4229" lon="7.39983">
        <ele>723.3</ele>
        <time>2021-06-23T12:44:23Z</time>
      </trkpt>
      <trkpt lat="48.42284" lon="7.39994">
        <ele>722.64</ele>
        <time>2021-06-23T12:44:25Z</time>
      </trkpt>
      <trkpt lat="48.42279" lon="7.40011">
        <ele>721.39</ele>
        <time>2021-06-23T12:44:26Z</time>
      </trkpt>
      <trkpt lat="48.42273" lon="7.40119">
        <ele>721.47</ele>
        <time>2021-06-23T12:44:27Z</time>
      </trkpt>
      <trkpt lat="48.42259" lon="7.40219">
        <ele>717.41</ele>
        <time>2021-06-23T12:44:29Z</time>
      </trkpt>
      <trkpt lat="48.42244" lon="7.40295">
        <ele>715.03</ele>
        <time>2021-06-23T12:44:30Z</time>
      </trkpt>
      <trkpt lat="48.42239" lon="7.40318">
        <ele>714.23</ele>
        <time>2021-06-23T12:44:32Z</time>
      </trkpt>
      <trkpt lat="48.42229" lon="7.40342">
        <ele>712.55</ele>
        <time>2021-06-23T12:44:33Z</time>
      </trkpt>
      <trkpt lat="48.42204" lon="7.40382">
        <ele>703.56</ele>
        <time>2021-06-23T12:44:35Z</time>
      </trkpt>
      <trkpt lat="48.42187" lon="7.40423">
        <ele>698.53</ele>
        <time>2021-06-23T12:44:36Z</time>
      </trkpt>
      <trkpt lat="48.4218" lon="7.4045">
        <ele>696.39</ele>
        <time>2021-06-23T12:44:37Z</time>
      </trkpt>
      <trkpt lat="48.42176" lon="7.40478">
        <ele>693.21</ele>
        <time>2021-06-23T12:44:39Z</time>
      </trkpt>
      <trkpt lat="48.42177" lon="7.40519">
        <ele>693.41</ele>
        <time>2021-06-23T12:44:40Z</time>
      </trkpt>
      <trkpt lat="48.42181" lon="7.40547">
        <ele>695.51</ele>
        <time>2021-06-23T12:44:42Z</time>
      </trkpt>
      <trkpt lat="48.42201" lon="7.40617">
        <ele>700.29</ele>
        <time>2021-06-23T12:44:43Z</time>
      </trkpt>
      <trkpt lat="48.42213" lon="7.40666">
        <ele>701.24</ele>
        <time>2021-06-23T12:44:45Z</time>
      </trkpt>
      <trkpt lat="48.4222" lon="7.40708">
        <ele>697.48</ele>
        <time>2021-06-23T12:44:46Z</time>
      </trkpt>
      <trkpt lat="48.42229" lon="7.40781">
        <ele>690.88</ele>
        <time>2021-06-23T12:44:48Z</time>
      </trkpt>
      <trkpt lat="48.42232" lon="7.40846">
        <ele>689.87</ele>
        <time>2021-06-23T12:44:49Z</time>
      </trkpt>
      <trkpt lat="48.42229" lon="7.40872">
        <ele>692.1</ele>
        <time>2021-06-23T12:44:50Z</time>
      </trkpt>
      <trkpt lat="48.42225" lon="7.40894">
        <ele>691.3</ele>
        <time>2021-06-23T12:44:52Z</time>
      </trkpt>
      <trkpt lat="48.42217" lon="7.40919">
        <ele>686.64</ele>
        <time>2021-06-23T12:44:53Z</time>
      </trkpt>
      <trkpt lat="48.42181" lon="7.41002">
        <ele>675.23</ele>
        <time>2021-06-23T12:44:55Z</time>
      </trkpt>
      <trkpt lat="48.42159" lon="7.41082">
        <ele>670.92</ele>
        <time>2021-06-23T12:44:56Z</time>
      </trkpt>
      <trkpt lat="48.42155" lon="7.41114">
        <ele>668.43</ele>
        <time>2021-06-23T12:44:58Z</time>
      </trkpt>
      <trkpt lat="48.42155" lon="7.4115">
        <ele>666.33</ele>
        <time>2021-06-23T12:44:59Z</time>
      </trkpt>
      <trkpt lat="48.42172" lon="7.41265">
        <ele>665.7</ele>
        <time>2021-06-23T12:45:00Z</time>
      </trkpt>
      <trkpt lat="48.42171" lon="7.41278">
        <ele>663.35</ele>
        <time>2021-06-23T12:45:02Z</time>
      </trkpt>
      <trkpt lat="48.42167" lon="7.41285">
        <ele>661.22</ele>
        <time>2021-06-23T12:45:03Z</time>
      </trkpt>
      <trkpt lat="48.42156" lon="7.41289">
        <ele>658.63</ele>
        <time>2021-06-23T12:45:05Z</time>
      </trkpt>
      <trkpt lat="48.4215" lon="7.41285">
        <ele>656.98</ele>
        <time>2021-06-23T12:45:06Z</time>
      </trkpt>
      <trkpt lat="48.42147" lon="7.41277">
        <ele>655.99</ele>
        <time>2021-06-23T12:45:08Z</time>
      </trkpt>
      <trkpt lat="48.42145" lon="7.41265">
        <ele>655.7</ele>
        <time>2021-06-23T12:45:09Z</time>
      </trkpt>
      <trkpt lat="48.42145" lon="7.41228">
        <ele>657.22</ele>
        <time>2021-06-23T12:45:10Z</time>
      </trkpt>
      <trkpt lat="48.42141" lon="7.41194">
        <ele>656.92</ele>
        <time>2021-06-23T12:45:12Z</time>
      </trkpt>
      <trkpt lat="48.42126" lon="7.41134">
        <ele>651.23</ele>
        <time>2021-06-23T12:45:13Z</time>
      </trkpt>
      <trkpt lat="48.42124" lon="7.41088">
        <ele>647</ele>
        <time>2021-06-23T12:45:15Z</time>
      </trkpt>
      <trkpt lat="48.42125" lon="7.41045">
        <ele>645.78</ele>
        <time>2021-06-23T12:45:16Z</time>
      </trkpt>
      <trkpt lat="48.42132" lon="7.40992">
        <ele>645.24</ele>
        <time>2021-06-23T12:45:18Z</time>
      </trkpt>
      <trkpt lat="48.42153" lon="7.40885">
        <ele>645.29</ele>
        <time>2021-06-23T12:45:19Z</time>
      </trkpt>
      <trkpt lat="48.42161" lon="7.40848">
        <ele>643.81</ele>
        <time>2021-06-23T12:45:21Z</time>
      </trkpt>
      <trkpt lat="48.42162" lon="7.40828">
        <ele>644.16</ele>
        <time>2021-06-23T12:45:22Z</time>
      </trkpt>
      <trkpt lat="48.42157" lon="7.40801">
        <ele>645.18</ele>
        <time>2021-06-23T12:45:23Z</time>
      </trkpt>
      <trkpt lat="48.42144" lon="7.40762">
        <ele>644.43</ele>
        <time>2021-06-23T12:45:25Z</time>
      </trkpt>
      <trkpt lat="48.4213" lon="7.40722">
        <ele>642.79</ele>
        <time>2021-06-23T12:45:26Z</time>
      </trkpt>
      <trkpt lat="48.42118" lon="7.40694">
        <ele>638.74</ele>
        <time>2021-06-23T12:45:28Z</time>
      </trkpt>
      <trkpt lat="48.42102" lon="7.40669">
        <ele>633.71</ele>
        <time>2021-06-23T12:45:29Z</time>
      </trkpt>
      <trkpt lat="48.42095" lon="7.40653">
        <ele>632.78</ele>
        <time>2021-06-23T12:45:31Z</time>
      </trkpt>
      <trkpt lat="48.42065" lon="7.40551">
        <ele>623.66</ele>
        <time>2021-06-23T12:45:32Z</time>
      </trkpt>
      <trkpt lat="48.42061" lon="7.40527">
        <ele>619.85</ele>
        <time>2021-06-23T12:45:33Z</time>
      </trkpt>
      <trkpt lat="48.42057" lon="7.40465">
        <ele>616.07</ele>
        <time>2021-06-23T12:45:35Z</time>
      </trkpt>
      <trkpt lat="48.42061" lon="7.40394">
        <ele>615.71</ele>
        <time>2021-06-23T12:45:36Z</time>
      </trkpt>
      <trkpt lat="48.42067" lon="7.40322">
        <ele>612.19</ele>
        <time>2021-06-23T12:45:38Z</time>
      </trkpt>
      <trkpt lat="48.42067" lon="7.40322">
        <ele>612.19</ele>
        <time>2021-06-23T12:45:38Z</time>
      </trkpt>
      <trkpt lat="48.42081" lon="7.40265">
        <ele>609.56</ele>
        <time>2021-06-23T12:45:39Z</time>
      </trkpt>
      <trkpt lat="48.42084" lon="7.40245">
        <ele>610.53</ele>
        <time>2021-06-23T12:45:41Z</time>
      </trkpt>
      <trkpt lat="48.42084" lon="7.40219">
        <ele>611.47</ele>
        <time>2021-06-23T12:45:42Z</time>
      </trkpt>
      <trkpt lat="48.4208" lon="7.40168">
        <ele>609.95</ele>
        <time>2021-06-23T12:45:44Z</time>
      </trkpt>
      <trkpt lat="48.42075" lon="7.4014">
        <ele>606.31</ele>
        <time>2021-06-23T12:45:45Z</time>
      </trkpt>
      <trkpt lat="48.42067" lon="7.40103">
        <ele>601.44</ele>
        <time>2021-06-23T12:45:46Z</time>
      </trkpt>
      <trkpt lat="48.42053" lon="7.40054">
        <ele>597.46</ele>
        <time>2021-06-23T12:45:48Z</time>
      </trkpt>
      <trkpt lat="48.42043" lon="7.40027">
        <ele>598.47</ele>
        <time>2021-06-23T12:45:49Z</time>
      </trkpt>
      <trkpt lat="48.41971" lon="7.39886">
        <ele>584.15</ele>
        <time>2021-06-23T12:45:51Z</time>
      </trkpt>
      <trkpt lat="48.41963" lon="7.39854">
        <ele>585.47</ele>
        <time>2021-06-23T12:45:52Z</time>
      </trkpt>
      <trkpt lat="48.41953" lon="7.3973">
        <ele>579.76</ele>
        <time>2021-06-23T12:45:54Z</time>
      </trkpt>
      <trkpt lat="48.41945" lon="7.39685">
        <ele>578.58</ele>
        <time>2021-06-23T12:45:55Z</time>
      </trkpt>
      <trkpt lat="48.41935" lon="7.39639">
        <ele>579.01</ele>
        <time>2021-06-23T12:45:57Z</time>
      </trkpt>
      <trkpt lat="48.41929" lon="7.39624">
        <ele>578.34</ele>
        <time>2021-06-23T12:45:58Z</time>
      </trkpt>
      <trkpt lat="48.41921" lon="7.3961">
        <ele>576.82</ele>
        <time>2021-06-23T12:45:59Z</time>
      </trkpt>
      <trkpt lat="48.41897" lon="7.39587">
        <ele>574.24</ele>
        <time>2021-06-23T12:46:01Z</time>
      </trkpt>
      <trkpt lat="48.41791" lon="7.39493">
        <ele>562.65</ele>
        <time>2021-06-23T12:46:02Z</time>
      </trkpt>
      <trkpt lat="48.41775" lon="7.39485">
        <ele>560.86</ele>
        <time>2021-06-23T12:46:04Z</time>
      </trkpt>
      <trkpt lat="48.41753" lon="7.39478">
        <ele>558.85</ele>
        <time>2021-06-23T12:46:05Z</time>
      </trkpt>
      <trkpt lat="48.41743" lon="7.39469">
        <ele>558.52</ele>
        <time>2021-06-23T12:46:07Z</time>
      </trkpt>
      <trkpt lat="48.41737" lon="7.3946">
        <ele>558.74</ele>
        <time>2021-06-23T12:46:08Z</time>
      </trkpt>
      <trkpt lat="48.41715" lon="7.39416">
        <ele>555.25</ele>
        <time>2021-06-23T12:46:10Z</time>
      </trkpt>
      <trkpt lat="48.41691" lon="7.39373">
        <ele>554.82</ele>
        <time>2021-06-23T12:46:11Z</time>
      </trkpt>
      <trkpt lat="48.41623" lon="7.39209">
        <ele>536.99</ele>
        <time>2021-06-23T12:46:12Z</time>
      </trkpt>
      <trkpt lat="48.41618" lon="7.39192">
        <ele>535.22</ele>
        <time>2021-06-23T12:46:14Z</time>
      </trkpt>
      <trkpt lat="48.41602" lon="7.39114">
        <ele>531.73</ele>
        <time>2021-06-23T12:46:15Z</time>
      </trkpt>
      <trkpt lat="48.41585" lon="7.39051">
        <ele>533.16</ele>
        <time>2021-06-23T12:46:17Z</time>
      </trkpt>
      <trkpt lat="48.41569" lon="7.39001">
        <ele>531.25</ele>
        <time>2021-06-23T12:46:18Z</time>
      </trkpt>
      <trkpt lat="48.41537" lon="7.38938">
        <ele>524.08</ele>
        <time>2021-06-23T12:46:20Z</time>
      </trkpt>
      <trkpt lat="48.41518" lon="7.38875">
        <ele>518.93</ele>
        <time>2021-06-23T12:46:21Z</time>
      </trkpt>
      <trkpt lat="48.41493" lon="7.38822">
        <ele>511.63</ele>
        <time>2021-06-23T12:46:23Z</time>
      </trkpt>
      <trkpt lat="48.41491" lon="7.38808">
        <ele>509.74</ele>
        <time>2021-06-23T12:46:24Z</time>
      </trkpt>
      <trkpt lat="48.41493" lon="7.38794">
        <ele>509.77</ele>
        <time>2021-06-23T12:46:25Z</time>
      </trkpt>
      <trkpt lat="48.41498" lon="7.38784">
        <ele>510.83</ele>
        <time>2021-06-23T12:46:27Z</time>
      </trkpt>
      <trkpt lat="48.41526" lon="7.38754">
        <ele>515.5</ele>
        <time>2021-06-23T12:46:28Z</time>
      </trkpt>
      <trkpt lat="48.41534" lon="7.38739">
        <ele>516.44</ele>
        <time>2021-06-23T12:46:30Z</time>
      </trkpt>
      <trkpt lat="48.4154" lon="7.3872">
        <ele>516.33</ele>
        <time>2021-06-23T12:46:31Z</time>
      </trkpt>
      <trkpt lat="48.41543" lon="7.38699">
        <ele>515.18</ele>
        <time>2021-06-23T12:46:33Z</time>
      </trkpt>
      <trkpt lat="48.41543" lon="7.38666">
        <ele>512.86</ele>
        <time>2021-06-23T12:46:34Z</time>
      </trkpt>
      <trkpt lat="48.41539" lon="7.38651">
        <ele>511.18</ele>
        <time>2021-06-23T12:46:36Z</time>
      </trkpt>
      <trkpt lat="48.4152" lon="7.38604">
        <ele>501.47</ele>
        <time>2021-06-23T12:46:37Z</time>
      </trkpt>
      <trkpt lat="48.41516" lon="7.38578">
        <ele>497.28</ele>
        <time>2021-06-23T12:46:38Z</time>
      </trkpt>
      <trkpt lat="48.41517" lon="7.38544">
        <ele>494.91</ele>
        <time>2021-06-23T12:46:40Z</time>
      </trkpt>
      <trkpt lat="48.41524" lon="7.385">
        <ele>493.77</ele>
        <time>2021-06-23T12:46:41Z</time>
      </trkpt>
      <trkpt lat="48.41535" lon="7.38453">
        <ele>494.91</ele>
        <time>2021-06-23T12:46:43Z</time>
      </trkpt>
      <trkpt lat="48.41552" lon="7.384">
        <ele>498.6</ele>
        <time>2021-06-23T12:46:44Z</time>
      </trkpt>
      <trkpt lat="48.41553" lon="7.38382">
        <ele>498.08</ele>
        <time>2021-06-23T12:46:46Z</time>
      </trkpt>
      <trkpt lat="48.41546" lon="7.38365">
        <ele>495.74</ele>
        <time>2021-06-23T12:46:47Z</time>
      </trkpt>
      <trkpt lat="48.41536" lon="7.38356">
        <ele>493.36</ele>
        <time>2021-06-23T12:46:49Z</time>
      </trkpt>
      <trkpt lat="48.41529" lon="7.38356">
        <ele>491.74</ele>
        <time>2021-06-23T12:46:50Z</time>
      </trkpt>
      <trkpt lat="48.4152" lon="7.3836">
        <ele>489.64</ele>
        <time>2021-06-23T12:46:51Z</time>
      </trkpt>
      <trkpt lat="48.4152" lon="7.38346">
        <ele>491.93</ele>
        <time>2021-06-23T12:46:54Z</time>
      </trkpt>
      <trkpt lat="48.4152" lon="7.38346">
        <ele>491.93</ele>
        <time>2021-06-23T12:46:54Z</time>
      </trkpt>
      <trkpt lat="48.4152" lon="7.3836">
        <ele>489.64</ele>
        <time>2021-06-23T12:46:56Z</time>
      </trkpt>
      <trkpt lat="48.41514" lon="7.38377">
        <ele>488.22</ele>
        <time>2021-06-23T12:46:59Z</time>
      </trkpt>
      <trkpt lat="48.41514" lon="7.38429">
        <ele>488.23</ele>
        <time>2021-06-23T12:47:03Z</time>
      </trkpt>
      <trkpt lat="48.4151" lon="7.38465">
        <ele>488.39</ele>
        <time>2021-06-23T12:47:06Z</time>
      </trkpt>
      <trkpt lat="48.41498" lon="7.38509">
        <ele>486.76</ele>
        <time>2021-06-23T12:47:09Z</time>
      </trkpt>
      <trkpt lat="48.41479" lon="7.38556">
        <ele>482.99</ele>
        <time>2021-06-23T12:47:12Z</time>
      </trkpt>
      <trkpt lat="48.41453" lon="7.38616">
        <ele>478.89</ele>
        <time>2021-06-23T12:47:16Z</time>
      </trkpt>
      <trkpt lat="48.41429" lon="7.38691">
        <ele>477.59</ele>
        <time>2021-06-23T12:47:19Z</time>
      </trkpt>
      <trkpt lat="48.41419" lon="7.38712">
        <ele>475.2</ele>
        <time>2021-06-23T12:47:22Z</time>
      </trkpt>
      <trkpt lat="48.4141" lon="7.38726">
        <ele>474.19</ele>
        <time>2021-06-23T12:47:25Z</time>
      </trkpt>
      <trkpt lat="48.41386" lon="7.38755">
        <ele>472.17</ele>
        <time>2021-06-23T12:47:28Z</time>
      </trkpt>
      <trkpt lat="48.41373" lon="7.38785">
        <ele>472.11</ele>
        <time>2021-06-23T12:47:32Z</time>
      </trkpt>
      <trkpt lat="48.41361" lon="7.38821">
        <ele>470.46</ele>
        <time>2021-06-23T12:47:35Z</time>
      </trkpt>
      <trkpt lat="48.41355" lon="7.38845">
        <ele>468.8</ele>
        <time>2021-06-23T12:47:38Z</time>
      </trkpt>
      <trkpt lat="48.41353" lon="7.38864">
        <ele>467.58</ele>
        <time>2021-06-23T12:47:41Z</time>
      </trkpt>
      <trkpt lat="48.41361" lon="7.38971">
        <ele>464.06</ele>
        <time>2021-06-23T12:47:45Z</time>
      </trkpt>
      <trkpt lat="48.41362" lon="7.39003">
        <ele>462.94</ele>
        <time>2021-06-23T12:47:48Z</time>
      </trkpt>
      <trkpt lat="48.4136" lon="7.39034">
        <ele>460.47</ele>
        <time>2021-06-23T12:47:51Z</time>
      </trkpt>
      <trkpt lat="48.41357" lon="7.3907">
        <ele>457.85</ele>
        <time>2021-06-23T12:47:54Z</time>
      </trkpt>
      <trkpt lat="48.4135" lon="7.39099">
        <ele>455.51</ele>
        <time>2021-06-23T12:47:57Z</time>
      </trkpt>
      <trkpt lat="48.41328" lon="7.39165">
        <ele>449.67</ele>
        <time>2021-06-23T12:48:01Z</time>
      </trkpt>
      <trkpt lat="48.41323" lon="7.39192">
        <ele>448.18</ele>
        <time>2021-06-23T12:48:04Z</time>
      </trkpt>
      <trkpt lat="48.41321" lon="7.39224">
        <ele>447.01</ele>
        <time>2021-06-23T12:48:07Z</time>
      </trkpt>
      <trkpt lat="48.41313" lon="7.39261">
        <ele>445.61</ele>
        <time>2021-06-23T12:48:10Z</time>
      </trkpt>
      <trkpt lat="48.41303" lon="7.39286">
        <ele>442.49</ele>
        <time>2021-06-23T12:48:14Z</time>
      </trkpt>
      <trkpt lat="48.41287" lon="7.39312">
        <ele>436.48</ele>
        <time>2021-06-23T12:48:17Z</time>
      </trkpt>
      <trkpt lat="48.41271" lon="7.39345">
        <ele>431.67</ele>
        <time>2021-06-23T12:48:20Z</time>
      </trkpt>
      <trkpt lat="48.41269" lon="7.39361">
        <ele>430.39</ele>
        <time>2021-06-23T12:48:23Z</time>
      </trkpt>
      <trkpt lat="48.41268" lon="7.39441">
        <ele>427.39</ele>
        <time>2021-06-23T12:48:26Z</time>
      </trkpt>
      <trkpt lat="48.41266" lon="7.39461">
        <ele>426.26</ele>
        <time>2021-06-23T12:48:30Z</time>
      </trkpt>
      <trkpt lat="48.4126" lon="7.39481">
        <ele>424.12</ele>
        <time>2021-06-23T12:48:33Z</time>
      </trkpt>
      <trkpt lat="48.41243" lon="7.39518">
        <ele>417.19</ele>
        <time>2021-06-23T12:48:36Z</time>
      </trkpt>
      <trkpt lat="48.4121" lon="7.39574">
        <ele>411.86</ele>
        <time>2021-06-23T12:48:39Z</time>
      </trkpt>
      <trkpt lat="48.41204" lon="7.39587">
        <ele>410.42</ele>
        <time>2021-06-23T12:48:43Z</time>
      </trkpt>
      <trkpt lat="48.412" lon="7.396">
        <ele>409.66</ele>
        <time>2021-06-23T12:48:46Z</time>
      </trkpt>
      <trkpt lat="48.41187" lon="7.39693">
        <ele>406.02</ele>
        <time>2021-06-23T12:48:49Z</time>
      </trkpt>
      <trkpt lat="48.41174" lon="7.39811">
        <ele>402.66</ele>
        <time>2021-06-23T12:48:52Z</time>
      </trkpt>
      <trkpt lat="48.41176" lon="7.3989">
        <ele>396.33</ele>
        <time>2021-06-23T12:48:55Z</time>
      </trkpt>
      <trkpt lat="48.41172" lon="7.39913">
        <ele>393.33</ele>
        <time>2021-06-23T12:48:59Z</time>
      </trkpt>
      <trkpt lat="48.41155" lon="7.39969">
        <ele>390.56</ele>
        <time>2021-06-23T12:49:02Z</time>
      </trkpt>
      <trkpt lat="48.41146" lon="7.39988">
        <ele>390.04</ele>
        <time>2021-06-23T12:49:05Z</time>
      </trkpt>
      <trkpt lat="48.41135" lon="7.40002">
        <ele>388.12</ele>
        <time>2021-06-23T12:49:08Z</time>
      </trkpt>
      <trkpt lat="48.41036" lon="7.40102">
        <ele>374.49</ele>
        <time>2021-06-23T12:49:12Z</time>
      </trkpt>
      <trkpt lat="48.41025" lon="7.40119">
        <ele>374.27</ele>
        <time>2021-06-23T12:49:15Z</time>
      </trkpt>
      <trkpt lat="48.41014" lon="7.40145">
        <ele>374.91</ele>
        <time>2021-06-23T12:49:18Z</time>
      </trkpt>
      <trkpt lat="48.41007" lon="7.40174">
        <ele>373.88</ele>
        <time>2021-06-23T12:49:21Z</time>
      </trkpt>
      <trkpt lat="48.41003" lon="7.40206">
        <ele>369.46</ele>
        <time>2021-06-23T12:49:25Z</time>
      </trkpt>
      <trkpt lat="48.41003" lon="7.40233">
        <ele>366.34</ele>
        <time>2021-06-23T12:49:28Z</time>
      </trkpt>
      <trkpt lat="48.41007" lon="7.40259">
        <ele>365.92</ele>
        <time>2021-06-23T12:49:31Z</time>
      </trkpt>
      <trkpt lat="48.41024" lon="7.40328">
        <ele>364.5</ele>
        <time>2021-06-23T12:49:34Z</time>
      </trkpt>
      <trkpt lat="48.41027" lon="7.40345">
        <ele>361.52</ele>
        <time>2021-06-23T12:49:37Z</time>
      </trkpt>
      <trkpt lat="48.41027" lon="7.40374">
        <ele>356.02</ele>
        <time>2021-06-23T12:49:41Z</time>
      </trkpt>
      <trkpt lat="48.41021" lon="7.40398">
        <ele>352.22</ele>
        <time>2021-06-23T12:49:44Z</time>
      </trkpt>
      <trkpt lat="48.41017" lon="7.40407">
        <ele>350.87</ele>
        <time>2021-06-23T12:49:47Z</time>
      </trkpt>
      <trkpt lat="48.41002" lon="7.4043">
        <ele>346.76</ele>
        <time>2021-06-23T12:49:50Z</time>
      </trkpt>
      <trkpt lat="48.40932" lon="7.40522">
        <ele>341.17</ele>
        <time>2021-06-23T12:49:54Z</time>
      </trkpt>
      <trkpt lat="48.40887" lon="7.40589">
        <ele>341.89</ele>
        <time>2021-06-23T12:49:57Z</time>
      </trkpt>
      <trkpt lat="48.40865" lon="7.40625">
        <ele>338.16</ele>
        <time>2021-06-23T12:50:00Z</time>
      </trkpt>
      <trkpt lat="48.4085" lon="7.40659">
        <ele>333.66</ele>
        <time>2021-06-23T12:50:03Z</time>
      </trkpt>
      <trkpt lat="48.40838" lon="7.40701">
        <ele>331.87</ele>
        <time>2021-06-23T12:50:06Z</time>
      </trkpt>
      <trkpt lat="48.40831" lon="7.40737">
        <ele>331.8</ele>
        <time>2021-06-23T12:50:10Z</time>
      </trkpt>
      <trkpt lat="48.40829" lon="7.40766">
        <ele>330.6</ele>
        <time>2021-06-23T12:50:13Z</time>
      </trkpt>
      <trkpt lat="48.40822" lon="7.4114">
        <ele>316.62</ele>
        <time>2021-06-23T12:50:16Z</time>
      </trkpt>
      <trkpt lat="48.40816" lon="7.41197">
        <ele>311.44</ele>
        <time>2021-06-23T12:50:19Z</time>
      </trkpt>
      <trkpt lat="48.40807" lon="7.41228">
        <ele>305.76</ele>
        <time>2021-06-23T12:50:23Z</time>
      </trkpt>
      <trkpt lat="48.40752" lon="7.41387">
        <ele>302.69</ele>
        <time>2021-06-23T12:50:26Z</time>
      </trkpt>
      <trkpt lat="48.40739" lon="7.41449">
        <ele>299.24</ele>
        <time>2021-06-23T12:50:29Z</time>
      </trkpt>
      <trkpt lat="48.40704" lon="7.41562">
        <ele>293.79</ele>
        <time>2021-06-23T12:50:32Z</time>
      </trkpt>
      <trkpt lat="48.40693" lon="7.41604">
        <ele>288.27</ele>
        <time>2021-06-23T12:50:35Z</time>
      </trkpt>
      <trkpt lat="48.40686" lon="7.41637">
        <ele>285.67</ele>
        <time>2021-06-23T12:50:39Z</time>
      </trkpt>
      <trkpt lat="48.40683" lon="7.41661">
        <ele>284.7</ele>
        <time>2021-06-23T12:50:42Z</time>
      </trkpt>
      <trkpt lat="48.40678" lon="7.41737">
        <ele>280.98</ele>
        <time>2021-06-23T12:50:45Z</time>
      </trkpt>
      <trkpt lat="48.40674" lon="7.41768">
        <ele>279.73</ele>
        <time>2021-06-23T12:50:48Z</time>
      </trkpt>
      <trkpt lat="48.40663" lon="7.41817">
        <ele>277.52</ele>
        <time>2021-06-23T12:50:52Z</time>
      </trkpt>
      <trkpt lat="48.40584" lon="7.42104">
        <ele>266.28</ele>
        <time>2021-06-23T12:50:55Z</time>
      </trkpt>
      <trkpt lat="48.4057" lon="7.42168">
        <ele>264.02</ele>
        <time>2021-06-23T12:50:58Z</time>
      </trkpt>
      <trkpt lat="48.40551" lon="7.42288">
        <ele>263.81</ele>
        <time>2021-06-23T12:51:01Z</time>
      </trkpt>
      <trkpt lat="48.40548" lon="7.42317">
        <ele>264.46</ele>
        <time>2021-06-23T12:51:04Z</time>
      </trkpt>
      <trkpt lat="48.40549" lon="7.42474">
        <ele>260.88</ele>
        <time>2021-06-23T12:51:08Z</time>
      </trkpt>
      <trkpt lat="48.40546" lon="7.42528">
        <ele>258.27</ele>
        <time>2021-06-23T12:51:11Z</time>
      </trkpt>
      <trkpt lat="48.40536" lon="7.42565">
        <ele>256.27</ele>
        <time>2021-06-23T12:51:14Z</time>
      </trkpt>
      <trkpt lat="48.4051" lon="7.42637">
        <ele>252.12</ele>
        <time>2021-06-23T12:51:17Z</time>
      </trkpt>
      <trkpt lat="48.40497" lon="7.4267">
        <ele>250.66</ele>
        <time>2021-06-23T12:51:21Z</time>
      </trkpt>
      <trkpt lat="48.40488" lon="7.42702">
        <ele>249.67</ele>
        <time>2021-06-23T12:51:24Z</time>
      </trkpt>
      <trkpt lat="48.40485" lon="7.42721">
        <ele>249.36</ele>
        <time>2021-06-23T12:51:27Z</time>
      </trkpt>
      <trkpt lat="48.40483" lon="7.4275">
        <ele>248.77</ele>
        <time>2021-06-23T12:51:30Z</time>
      </trkpt>
      <trkpt lat="48.40486" lon="7.42783">
        <ele>247.79</ele>
        <time>2021-06-23T12:51:34Z</time>
      </trkpt>
      <trkpt lat="48.40506" lon="7.42875">
        <ele>247.91</ele>
        <time>2021-06-23T12:51:37Z</time>
      </trkpt>
      <trkpt lat="48.40514" lon="7.42949">
        <ele>242.23</ele>
        <time>2021-06-23T12:51:40Z</time>
      </trkpt>
      <trkpt lat="48.40525" lon="7.43019">
        <ele>242.31</ele>
        <time>2021-06-23T12:51:43Z</time>
      </trkpt>
      <trkpt lat="48.40539" lon="7.43081">
        <ele>244.01</ele>
        <time>2021-06-23T12:51:46Z</time>
      </trkpt>
      <trkpt lat="48.40552" lon="7.43133">
        <ele>243.94</ele>
        <time>2021-06-23T12:51:50Z</time>
      </trkpt>
      <trkpt lat="48.4056" lon="7.43185">
        <ele>242.87</ele>
        <time>2021-06-23T12:51:53Z</time>
      </trkpt>
      <trkpt lat="48.40581" lon="7.43408">
        <ele>237.9</ele>
        <time>2021-06-23T12:51:56Z</time>
      </trkpt>
      <trkpt lat="48.40581" lon="7.4345">
        <ele>236.57</ele>
        <time>2021-06-23T12:51:59Z</time>
      </trkpt>
      <trkpt lat="48.40575" lon="7.43506">
        <ele>235.64</ele>
        <time>2021-06-23T12:52:03Z</time>
      </trkpt>
      <trkpt lat="48.4058" lon="7.43596">
        <ele>231.25</ele>
        <time>2021-06-23T12:52:06Z</time>
      </trkpt>
      <trkpt lat="48.4058" lon="7.43616">
        <ele>229.5</ele>
        <time>2021-06-23T12:52:09Z</time>
      </trkpt>
      <trkpt lat="48.40576" lon="7.43647">
        <ele>228.32</ele>
        <time>2021-06-23T12:52:12Z</time>
      </trkpt>
      <trkpt lat="48.40576" lon="7.43662">
        <ele>228.43</ele>
        <time>2021-06-23T12:52:15Z</time>
      </trkpt>
      <trkpt lat="48.40592" lon="7.43744">
        <ele>229.14</ele>
        <time>2021-06-23T12:52:19Z</time>
      </trkpt>
      <trkpt lat="48.40609" lon="7.43804">
        <ele>225.76</ele>
        <time>2021-06-23T12:52:22Z</time>
      </trkpt>
      <trkpt lat="48.40616" lon="7.43846">
        <ele>224.2</ele>
        <time>2021-06-23T12:52:25Z</time>
      </trkpt>
      <trkpt lat="48.40626" lon="7.43923">
        <ele>222.47</ele>
        <time>2021-06-23T12:52:28Z</time>
      </trkpt>
      <trkpt lat="48.40643" lon="7.43972">
        <ele>220.05</ele>
        <time>2021-06-23T12:52:32Z</time>
      </trkpt>
      <trkpt lat="48.40643" lon="7.43982">
        <ele>219.37</ele>
        <time>2021-06-23T12:52:35Z</time>
      </trkpt>
      <trkpt lat="48.4065" lon="7.43989">
        <ele>219.02</ele>
        <time>2021-06-23T12:52:41Z</time>
      </trkpt>
      <trkpt lat="48.40654" lon="7.43999">
        <ele>218.6</ele>
        <time>2021-06-23T12:52:47Z</time>
      </trkpt>
      <trkpt lat="48.40665" lon="7.44063">
        <ele>218</ele>
        <time>2021-06-23T12:52:54Z</time>
      </trkpt>
      <trkpt lat="48.40689" lon="7.44143">
        <ele>216.78</ele>
        <time>2021-06-23T12:53:00Z</time>
      </trkpt>
      <trkpt lat="48.40695" lon="7.44179">
        <ele>217.09</ele>
        <time>2021-06-23T12:53:06Z</time>
      </trkpt>
      <trkpt lat="48.40695" lon="7.44209">
        <ele>217.05</ele>
        <time>2021-06-23T12:53:12Z</time>
      </trkpt>
      <trkpt lat="48.40695" lon="7.44209">
        <ele>217.05</ele>
        <time>2021-06-23T12:53:12Z</time>
      </trkpt>
      <trkpt lat="48.40694" lon="7.44225">
        <ele>216.92</ele>
        <time>2021-06-23T12:53:22Z</time>
      </trkpt>
      <trkpt lat="48.40655" lon="7.44417">
        <ele>213.4</ele>
        <time>2021-06-23T12:53:32Z</time>
      </trkpt>
      <trkpt lat="48.40653" lon="7.44446">
        <ele>213.43</ele>
        <time>2021-06-23T12:53:42Z</time>
      </trkpt>
      <trkpt lat="48.40654" lon="7.44463">
        <ele>212.79</ele>
        <time>2021-06-23T12:53:52Z</time>
      </trkpt>
      <trkpt lat="48.40667" lon="7.44526">
        <ele>210.59</ele>
        <time>2021-06-23T12:54:03Z</time>
      </trkpt>
      <trkpt lat="48.40667" lon="7.44526">
        <ele>210.59</ele>
        <time>2021-06-23T12:54:03Z</time>
      </trkpt>
      <trkpt lat="48.40675" lon="7.44576">
        <ele>210</ele>
        <time>2021-06-23T12:54:11Z</time>
      </trkpt>
      <trkpt lat="48.40684" lon="7.44612">
        <ele>210.34</ele>
        <time>2021-06-23T12:54:20Z</time>
      </trkpt>
      <trkpt lat="48.40688" lon="7.44634">
        <ele>209.43</ele>
        <time>2021-06-23T12:54:29Z</time>
      </trkpt>
      <trkpt lat="48.4069" lon="7.44693">
        <ele>207.41</ele>
        <time>2021-06-23T12:54:38Z</time>
      </trkpt>
      <trkpt lat="48.40697" lon="7.44767">
        <ele>208.43</ele>
        <time>2021-06-23T12:54:47Z</time>
      </trkpt>
      <trkpt lat="48.40711" lon="7.44823">
        <ele>209.41</ele>
        <time>2021-06-23T12:54:56Z</time>
      </trkpt>
      <trkpt lat="48.40737" lon="7.44889">
        <ele>208.48</ele>
        <time>2021-06-23T12:55:05Z</time>
      </trkpt>
      <trkpt lat="48.40785" lon="7.44872">
        <ele>208.35</ele>
        <time>2021-06-23T12:55:13Z</time>
      </trkpt>
      <trkpt lat="48.4084" lon="7.44878">
        <ele>211.55</ele>
        <time>2021-06-23T12:55:22Z</time>
      </trkpt>
      <trkpt lat="48.40844" lon="7.44881">
        <ele>211.87</ele>
        <time>2021-06-23T12:55:30Z</time>
      </trkpt>
      <trkpt lat="48.40849" lon="7.44911">
        <ele>211.68</ele>
        <time>2021-06-23T12:55:37Z</time>
      </trkpt>
      <trkpt lat="48.40866" lon="7.44966">
        <ele>212.16</ele>
        <time>2021-06-23T12:55:44Z</time>
      </trkpt>
      <trkpt lat="48.40916" lon="7.44989">
        <ele>213.6</ele>
        <time>2021-06-23T12:55:52Z</time>
      </trkpt>
      <trkpt lat="48.40921" lon="7.44993">
        <ele>213.79</ele>
        <time>2021-06-23T12:56:00Z</time>
      </trkpt>
      <trkpt lat="48.40934" lon="7.45018">
        <ele>214.41</ele>
        <time>2021-06-23T12:56:07Z</time>
      </trkpt>
      <trkpt lat="48.40984" lon="7.45074">
        <ele>216.79</ele>
        <time>2021-06-23T12:56:15Z</time>
      </trkpt>
      <trkpt lat="48.41003" lon="7.45099">
        <ele>215.81</ele>
        <time>2021-06-23T12:56:23Z</time>
      </trkpt>
      <trkpt lat="48.41003" lon="7.45099">
        <ele>215.81</ele>
        <time>2021-06-23T12:56:23Z</time>
      </trkpt>
      <trkpt lat="48.41009" lon="7.45106">
        <ele>214.82</ele>
        <time>2021-06-23T12:56:26Z</time>
      </trkpt>
      <trkpt lat="48.41052" lon="7.45192">
        <ele>214.6</ele>
        <time>2021-06-23T12:56:30Z</time>
      </trkpt>
      <trkpt lat="48.4106" lon="7.45204">
        <ele>214.94</ele>
        <time>2021-06-23T12:56:33Z</time>
      </trkpt>
      <trkpt lat="48.4107" lon="7.45212">
        <ele>215.08</ele>
        <time>2021-06-23T12:56:37Z</time>
      </trkpt>
      <trkpt lat="48.41068" lon="7.45219">
        <ele>214.62</ele>
        <time>2021-06-23T12:56:38Z</time>
      </trkpt>
      <trkpt lat="48.41068" lon="7.45226">
        <ele>214.27</ele>
        <time>2021-06-23T12:56:40Z</time>
      </trkpt>
      <trkpt lat="48.41083" lon="7.45258">
        <ele>212.7</ele>
        <time>2021-06-23T12:56:42Z</time>
      </trkpt>
      <trkpt lat="48.41094" lon="7.45288">
        <ele>212.1</ele>
        <time>2021-06-23T12:56:44Z</time>
      </trkpt>
      <trkpt lat="48.41094" lon="7.45301">
        <ele>211.27</ele>
        <time>2021-06-23T12:56:45Z</time>
      </trkpt>
      <trkpt lat="48.41083" lon="7.45328">
        <ele>208.55</ele>
        <time>2021-06-23T12:56:54Z</time>
      </trkpt>
      <trkpt lat="48.41074" lon="7.45359">
        <ele>206.74</ele>
        <time>2021-06-23T12:57:02Z</time>
      </trkpt>
      <trkpt lat="48.41064" lon="7.45461">
        <ele>197.95</ele>
        <time>2021-06-23T12:57:10Z</time>
      </trkpt>
      <trkpt lat="48.41057" lon="7.45543">
        <ele>196.3</ele>
        <time>2021-06-23T12:57:18Z</time>
      </trkpt>
      <trkpt lat="48.41052" lon="7.4555">
        <ele>196.2</ele>
        <time>2021-06-23T12:57:26Z</time>
      </trkpt>
      <trkpt lat="48.41044" lon="7.45551">
        <ele>196.17</ele>
        <time>2021-06-23T12:57:34Z</time>
      </trkpt>
      <trkpt lat="48.41036" lon="7.45545">
        <ele>196.38</ele>
        <time>2021-06-23T12:57:43Z</time>
      </trkpt>
      <trkpt lat="48.40956" lon="7.45473">
        <ele>197.43</ele>
        <time>2021-06-23T12:57:52Z</time>
      </trkpt>
      <trkpt lat="48.40894" lon="7.45414">
        <ele>195.18</ele>
        <time>2021-06-23T12:58:01Z</time>
      </trkpt>
      <trkpt lat="48.40845" lon="7.45354">
        <ele>195.25</ele>
        <time>2021-06-23T12:58:10Z</time>
      </trkpt>
      <trkpt lat="48.40841" lon="7.45354">
        <ele>195.26</ele>
        <time>2021-06-23T12:58:19Z</time>
      </trkpt>
      <trkpt lat="48.40838" lon="7.45356">
        <ele>195.17</ele>
        <time>2021-06-23T12:58:27Z</time>
      </trkpt>
      <trkpt lat="48.4081" lon="7.45388">
        <ele>196.83</ele>
        <time>2021-06-23T12:58:36Z</time>
      </trkpt>
      <trkpt lat="48.40761" lon="7.45426">
        <ele>200.35</ele>
        <time>2021-06-23T12:58:45Z</time>
      </trkpt>
      <trkpt lat="48.40758" lon="7.45415">
        <ele>200.88</ele>
        <time>2021-06-23T12:58:51Z</time>
      </trkpt>
      <trkpt lat="48.40727" lon="7.45342">
        <ele>205.25</ele>
        <time>2021-06-23T12:58:57Z</time>
      </trkpt>
      <trkpt lat="48.40717" lon="7.45326">
        <ele>204.79</ele>
        <time>2021-06-23T12:59:03Z</time>
      </trkpt>
      <trkpt lat="48.40712" lon="7.45326">
        <ele>204.62</ele>
        <time>2021-06-23T12:59:09Z</time>
      </trkpt>
      <trkpt lat="48.40705" lon="7.45331">
        <ele>204.37</ele>
        <time>2021-06-23T12:59:15Z</time>
      </trkpt>
      <trkpt lat="48.40677" lon="7.45367">
        <ele>202.54</ele>
        <time>2021-06-23T12:59:21Z</time>
      </trkpt>
      <trkpt lat="48.40676" lon="7.45379">
        <ele>202.01</ele>
        <time>2021-06-23T12:59:28Z</time>
      </trkpt>
      <trkpt lat="48.40675" lon="7.45449">
        <ele>200.65</ele>
        <time>2021-06-23T12:59:36Z</time>
      </trkpt>
      <trkpt lat="48.40672" lon="7.4547">
        <ele>200.94</ele>
        <time>2021-06-23T12:59:43Z</time>
      </trkpt>
      <trkpt lat="48.4066" lon="7.45487">
        <ele>201.23</ele>
        <time>2021-06-23T12:59:50Z</time>
      </trkpt>
      <trkpt lat="48.40536" lon="7.45582">
        <ele>202</ele>
        <time>2021-06-23T12:59:57Z</time>
      </trkpt>
      <trkpt lat="48.40531" lon="7.45575">
        <ele>202</ele>
        <time>2021-06-23T13:00:01Z</time>
      </trkpt>
      <trkpt lat="48.40524" lon="7.45573">
        <ele>202.05</ele>
        <time>2021-06-23T13:00:04Z</time>
      </trkpt>
      <trkpt lat="48.40518" lon="7.45579">
        <ele>202.06</ele>
        <time>2021-06-23T13:00:07Z</time>
      </trkpt>
      <trkpt lat="48.40516" lon="7.45591">
        <ele>202.11</ele>
        <time>2021-06-23T13:00:10Z</time>
      </trkpt>
      <trkpt lat="48.40491" lon="7.45595">
        <ele>202.93</ele>
        <time>2021-06-23T13:00:13Z</time>
      </trkpt>
      <trkpt lat="48.40463" lon="7.45598">
        <ele>204.35</ele>
        <time>2021-06-23T13:00:16Z</time>
      </trkpt>
      <trkpt lat="48.40393" lon="7.4559">
        <ele>205.25</ele>
        <time>2021-06-23T13:00:20Z</time>
      </trkpt>
      <trkpt lat="48.40362" lon="7.45585">
        <ele>204.04</ele>
        <time>2021-06-23T13:00:23Z</time>
      </trkpt>
      <trkpt lat="48.4031" lon="7.45581">
        <ele>203.18</ele>
        <time>2021-06-23T13:00:26Z</time>
      </trkpt>
      <trkpt lat="48.40247" lon="7.45586">
        <ele>206.81</ele>
        <time>2021-06-23T13:00:29Z</time>
      </trkpt>
      <trkpt lat="48.40223" lon="7.45584">
        <ele>206.9</ele>
        <time>2021-06-23T13:00:32Z</time>
      </trkpt>
      <trkpt lat="48.40177" lon="7.45575">
        <ele>202.45</ele>
        <time>2021-06-23T13:00:36Z</time>
      </trkpt>
      <trkpt lat="48.40142" lon="7.45566">
        <ele>201.7</ele>
        <time>2021-06-23T13:00:39Z</time>
      </trkpt>
      <trkpt lat="48.40094" lon="7.45562">
        <ele>204.11</ele>
        <time>2021-06-23T13:00:42Z</time>
      </trkpt>
      <trkpt lat="48.40079" lon="7.45554">
        <ele>204.85</ele>
        <time>2021-06-23T13:00:45Z</time>
      </trkpt>
      <trkpt lat="48.40065" lon="7.45534">
        <ele>204.84</ele>
        <time>2021-06-23T13:00:48Z</time>
      </trkpt>
      <trkpt lat="48.40044" lon="7.45488">
        <ele>204.2</ele>
        <time>2021-06-23T13:00:52Z</time>
      </trkpt>
      <trkpt lat="48.40026" lon="7.45453">
        <ele>204.38</ele>
        <time>2021-06-23T13:00:55Z</time>
      </trkpt>
      <trkpt lat="48.40016" lon="7.45439">
        <ele>204.8</ele>
        <time>2021-06-23T13:00:58Z</time>
      </trkpt>
      <trkpt lat="48.39978" lon="7.45395">
        <ele>205</ele>
        <time>2021-06-23T13:01:01Z</time>
      </trkpt>
      <trkpt lat="48.39853" lon="7.45268">
        <ele>205.24</ele>
        <time>2021-06-23T13:01:04Z</time>
      </trkpt>
      <trkpt lat="48.39752" lon="7.4516">
        <ele>204.14</ele>
        <time>2021-06-23T13:01:07Z</time>
      </trkpt>
      <trkpt lat="48.39698" lon="7.45094">
        <ele>203.95</ele>
        <time>2021-06-23T13:01:11Z</time>
      </trkpt>
      <trkpt lat="48.3969" lon="7.45088">
        <ele>204</ele>
        <time>2021-06-23T13:01:14Z</time>
      </trkpt>
      <trkpt lat="48.3968" lon="7.45088">
        <ele>204</ele>
        <time>2021-06-23T13:01:17Z</time>
      </trkpt>
      <trkpt lat="48.39663" lon="7.45113">
        <ele>204</ele>
        <time>2021-06-23T13:01:20Z</time>
      </trkpt>
      <trkpt lat="48.39656" lon="7.4512">
        <ele>204</ele>
        <time>2021-06-23T13:01:23Z</time>
      </trkpt>
      <trkpt lat="48.39643" lon="7.45129">
        <ele>204</ele>
        <time>2021-06-23T13:01:27Z</time>
      </trkpt>
      <trkpt lat="48.39586" lon="7.45157">
        <ele>202.41</ele>
        <time>2021-06-23T13:01:30Z</time>
      </trkpt>
      <trkpt lat="48.39555" lon="7.4517">
        <ele>201.76</ele>
        <time>2021-06-23T13:01:33Z</time>
      </trkpt>
      <trkpt lat="48.39537" lon="7.45174">
        <ele>200.97</ele>
        <time>2021-06-23T13:01:36Z</time>
      </trkpt>
      <trkpt lat="48.39521" lon="7.45176">
        <ele>200.67</ele>
        <time>2021-06-23T13:01:39Z</time>
      </trkpt>
      <trkpt lat="48.39508" lon="7.45172">
        <ele>200.8</ele>
        <time>2021-06-23T13:01:43Z</time>
      </trkpt>
      <trkpt lat="48.39499" lon="7.45166">
        <ele>201.03</ele>
        <time>2021-06-23T13:01:46Z</time>
      </trkpt>
      <trkpt lat="48.39461" lon="7.45112">
        <ele>200.02</ele>
        <time>2021-06-23T13:01:49Z</time>
      </trkpt>
      <trkpt lat="48.39443" lon="7.45095">
        <ele>200.03</ele>
        <time>2021-06-23T13:01:52Z</time>
      </trkpt>
      <trkpt lat="48.39379" lon="7.45048">
        <ele>199.91</ele>
        <time>2021-06-23T13:01:55Z</time>
      </trkpt>
      <trkpt lat="48.39286" lon="7.44991">
        <ele>200.65</ele>
        <time>2021-06-23T13:01:58Z</time>
      </trkpt>
      <trkpt lat="48.39254" lon="7.44961">
        <ele>200.5</ele>
        <time>2021-06-23T13:02:02Z</time>
      </trkpt>
      <trkpt lat="48.3924" lon="7.4494">
        <ele>200.22</ele>
        <time>2021-06-23T13:02:05Z</time>
      </trkpt>
      <trkpt lat="48.39233" lon="7.44919">
        <ele>199.98</ele>
        <time>2021-06-23T13:02:08Z</time>
      </trkpt>
      <trkpt lat="48.39224" lon="7.44868">
        <ele>200.03</ele>
        <time>2021-06-23T13:02:11Z</time>
      </trkpt>
      <trkpt lat="48.39215" lon="7.44845">
        <ele>200.59</ele>
        <time>2021-06-23T13:02:14Z</time>
      </trkpt>
      <trkpt lat="48.39167" lon="7.44779">
        <ele>200</ele>
        <time>2021-06-23T13:02:18Z</time>
      </trkpt>
      <trkpt lat="48.39149" lon="7.44748">
        <ele>199.38</ele>
        <time>2021-06-23T13:02:21Z</time>
      </trkpt>
      <trkpt lat="48.39135" lon="7.44716">
        <ele>199</ele>
        <time>2021-06-23T13:02:24Z</time>
      </trkpt>
      <trkpt lat="48.39118" lon="7.44673">
        <ele>199.57</ele>
        <time>2021-06-23T13:02:27Z</time>
      </trkpt>
      <trkpt lat="48.39103" lon="7.4464">
        <ele>200.01</ele>
        <time>2021-06-23T13:02:30Z</time>
      </trkpt>
      <trkpt lat="48.39107" lon="7.44632">
        <ele>200</ele>
        <time>2021-06-23T13:02:35Z</time>
      </trkpt>
      <trkpt lat="48.39109" lon="7.44623">
        <ele>200</ele>
        <time>2021-06-23T13:02:40Z</time>
      </trkpt>
      <trkpt lat="48.39108" lon="7.44615">
        <ele>200</ele>
        <time>2021-06-23T13:02:44Z</time>
      </trkpt>
      <trkpt lat="48.39106" lon="7.44608">
        <ele>199.91</ele>
        <time>2021-06-23T13:02:49Z</time>
      </trkpt>
      <trkpt lat="48.39102" lon="7.44603">
        <ele>199.8</ele>
        <time>2021-06-23T13:02:53Z</time>
      </trkpt>
      <trkpt lat="48.39097" lon="7.446">
        <ele>199.8</ele>
        <time>2021-06-23T13:02:58Z</time>
      </trkpt>
      <trkpt lat="48.39115" lon="7.44518">
        <ele>199.35</ele>
        <time>2021-06-23T13:03:02Z</time>
      </trkpt>
      <trkpt lat="48.39169" lon="7.44321">
        <ele>203.79</ele>
        <time>2021-06-23T13:03:07Z</time>
      </trkpt>
      <trkpt lat="48.39176" lon="7.44283">
        <ele>203.69</ele>
        <time>2021-06-23T13:03:12Z</time>
      </trkpt>
      <trkpt lat="48.39176" lon="7.44243">
        <ele>204.49</ele>
        <time>2021-06-23T13:03:16Z</time>
      </trkpt>
      <trkpt lat="48.39158" lon="7.44116">
        <ele>205.36</ele>
        <time>2021-06-23T13:03:21Z</time>
      </trkpt>
      <trkpt lat="48.39157" lon="7.44077">
        <ele>205.02</ele>
        <time>2021-06-23T13:03:25Z</time>
      </trkpt>
      <trkpt lat="48.39161" lon="7.43988">
        <ele>208.3</ele>
        <time>2021-06-23T13:03:30Z</time>
      </trkpt>
      <trkpt lat="48.39161" lon="7.43951">
        <ele>209</ele>
        <time>2021-06-23T13:03:34Z</time>
      </trkpt>
      <trkpt lat="48.39148" lon="7.43819">
        <ele>209.14</ele>
        <time>2021-06-23T13:03:39Z</time>
      </trkpt>
      <trkpt lat="48.39141" lon="7.4379">
        <ele>209.75</ele>
        <time>2021-06-23T13:03:44Z</time>
      </trkpt>
      <trkpt lat="48.39117" lon="7.43714">
        <ele>211.21</ele>
        <time>2021-06-23T13:03:48Z</time>
      </trkpt>
      <trkpt lat="48.39106" lon="7.43675">
        <ele>210.88</ele>
        <time>2021-06-23T13:03:53Z</time>
      </trkpt>
      <trkpt lat="48.39073" lon="7.4343">
        <ele>219.63</ele>
        <time>2021-06-23T13:03:57Z</time>
      </trkpt>
      <trkpt lat="48.39049" lon="7.43266">
        <ele>227.78</ele>
        <time>2021-06-23T13:04:02Z</time>
      </trkpt>
      <trkpt lat="48.39028" lon="7.43159">
        <ele>231.26</ele>
        <time>2021-06-23T13:04:06Z</time>
      </trkpt>
      <trkpt lat="48.39024" lon="7.43129">
        <ele>232.01</ele>
        <time>2021-06-23T13:04:11Z</time>
      </trkpt>
      <trkpt lat="48.39019" lon="7.43041">
        <ele>237.91</ele>
        <time>2021-06-23T13:04:16Z</time>
      </trkpt>
      <trkpt lat="48.39007" lon="7.4286">
        <ele>242.19</ele>
        <time>2021-06-23T13:04:20Z</time>
      </trkpt>
      <trkpt lat="48.39004" lon="7.42831">
        <ele>241.74</ele>
        <time>2021-06-23T13:04:25Z</time>
      </trkpt>
      <trkpt lat="48.38992" lon="7.42774">
        <ele>243.65</ele>
        <time>2021-06-23T13:04:29Z</time>
      </trkpt>
      <trkpt lat="48.38984" lon="7.42749">
        <ele>246.26</ele>
        <time>2021-06-23T13:04:34Z</time>
      </trkpt>
      <trkpt lat="48.38949" lon="7.42661">
        <ele>243.81</ele>
        <time>2021-06-23T13:04:38Z</time>
      </trkpt>
      <trkpt lat="48.38899" lon="7.42449">
        <ele>244.07</ele>
        <time>2021-06-23T13:04:43Z</time>
      </trkpt>
      <trkpt lat="48.38879" lon="7.42373">
        <ele>240.32</ele>
        <time>2021-06-23T13:04:48Z</time>
      </trkpt>
      <trkpt lat="48.38847" lon="7.42267">
        <ele>233.65</ele>
        <time>2021-06-23T13:04:52Z</time>
      </trkpt>
      <trkpt lat="48.38829" lon="7.42217">
        <ele>233.74</ele>
        <time>2021-06-23T13:04:57Z</time>
      </trkpt>
      <trkpt lat="48.38776" lon="7.42075">
        <ele>232.16</ele>
        <time>2021-06-23T13:05:01Z</time>
      </trkpt>
      <trkpt lat="48.38758" lon="7.42041">
        <ele>230.15</ele>
        <time>2021-06-23T13:05:06Z</time>
      </trkpt>
      <trkpt lat="48.38746" lon="7.42023">
        <ele>227.87</ele>
        <time>2021-06-23T13:05:10Z</time>
      </trkpt>
      <trkpt lat="48.38683" lon="7.4195">
        <ele>225.6</ele>
        <time>2021-06-23T13:05:15Z</time>
      </trkpt>
      <trkpt lat="48.38653" lon="7.41921">
        <ele>224.08</ele>
        <time>2021-06-23T13:05:20Z</time>
      </trkpt>
      <trkpt lat="48.38625" lon="7.4189">
        <ele>226.43</ele>
        <time>2021-06-23T13:05:24Z</time>
      </trkpt>
      <trkpt lat="48.3862" lon="7.41882">
        <ele>227.16</ele>
        <time>2021-06-23T13:05:29Z</time>
      </trkpt>
      <trkpt lat="48.3861" lon="7.41852">
        <ele>229.37</ele>
        <time>2021-06-23T13:05:33Z</time>
      </trkpt>
      <trkpt lat="48.38609" lon="7.418">
        <ele>229.93</ele>
        <time>2021-06-23T13:05:38Z</time>
      </trkpt>
      <trkpt lat="48.38597" lon="7.41777">
        <ele>230.02</ele>
        <time>2021-06-23T13:05:42Z</time>
      </trkpt>
      <trkpt lat="48.38586" lon="7.41759">
        <ele>230.6</ele>
        <time>2021-06-23T13:05:46Z</time>
      </trkpt>
      <trkpt lat="48.38567" lon="7.4174">
        <ele>230.02</ele>
        <time>2021-06-23T13:05:50Z</time>
      </trkpt>
      <trkpt lat="48.38551" lon="7.41732">
        <ele>229.64</ele>
        <time>2021-06-23T13:05:53Z</time>
      </trkpt>
      <trkpt lat="48.38528" lon="7.41726">
        <ele>229.85</ele>
        <time>2021-06-23T13:05:57Z</time>
      </trkpt>
      <trkpt lat="48.38513" lon="7.41719">
        <ele>230.71</ele>
        <time>2021-06-23T13:06:01Z</time>
      </trkpt>
      <trkpt lat="48.3851" lon="7.41716">
        <ele>231.37</ele>
        <time>2021-06-23T13:06:05Z</time>
      </trkpt>
      <trkpt lat="48.3851" lon="7.41716">
        <ele>231.37</ele>
        <time>2021-06-23T13:06:05Z</time>
      </trkpt>
      <trkpt lat="48.38502" lon="7.41707">
        <ele>232.02</ele>
        <time>2021-06-23T13:06:09Z</time>
      </trkpt>
      <trkpt lat="48.38486" lon="7.41698">
        <ele>234.28</ele>
        <time>2021-06-23T13:06:14Z</time>
      </trkpt>
      <trkpt lat="48.3848" lon="7.417">
        <ele>234.75</ele>
        <time>2021-06-23T13:06:18Z</time>
      </trkpt>
      <trkpt lat="48.38472" lon="7.41707">
        <ele>235.14</ele>
        <time>2021-06-23T13:06:22Z</time>
      </trkpt>
      <trkpt lat="48.38464" lon="7.41721">
        <ele>235.6</ele>
        <time>2021-06-23T13:06:27Z</time>
      </trkpt>
      <trkpt lat="48.38435" lon="7.41772">
        <ele>239.15</ele>
        <time>2021-06-23T13:06:31Z</time>
      </trkpt>
      <trkpt lat="48.38392" lon="7.41827">
        <ele>239.47</ele>
        <time>2021-06-23T13:06:36Z</time>
      </trkpt>
      <trkpt lat="48.38385" lon="7.41842">
        <ele>239.82</ele>
        <time>2021-06-23T13:06:40Z</time>
      </trkpt>
      <trkpt lat="48.38357" lon="7.41912">
        <ele>237.8</ele>
        <time>2021-06-23T13:06:44Z</time>
      </trkpt>
      <trkpt lat="48.38293" lon="7.42173">
        <ele>228.65</ele>
        <time>2021-06-23T13:06:49Z</time>
      </trkpt>
      <trkpt lat="48.38283" lon="7.42216">
        <ele>228.53</ele>
        <time>2021-06-23T13:06:53Z</time>
      </trkpt>
      <trkpt lat="48.38279" lon="7.42242">
        <ele>229.52</ele>
        <time>2021-06-23T13:06:57Z</time>
      </trkpt>
      <trkpt lat="48.38278" lon="7.42284">
        <ele>229.77</ele>
        <time>2021-06-23T13:07:02Z</time>
      </trkpt>
      <trkpt lat="48.38273" lon="7.42311">
        <ele>229.65</ele>
        <time>2021-06-23T13:07:06Z</time>
      </trkpt>
      <trkpt lat="48.38266" lon="7.42327">
        <ele>230.27</ele>
        <time>2021-06-23T13:07:10Z</time>
      </trkpt>
      <trkpt lat="48.38244" lon="7.42355">
        <ele>234.85</ele>
        <time>2021-06-23T13:07:15Z</time>
      </trkpt>
      <trkpt lat="48.38232" lon="7.42374">
        <ele>237.48</ele>
        <time>2021-06-23T13:07:19Z</time>
      </trkpt>
      <trkpt lat="48.38225" lon="7.42395">
        <ele>238.51</ele>
        <time>2021-06-23T13:07:23Z</time>
      </trkpt>
      <trkpt lat="48.3822" lon="7.42414">
        <ele>239.5</ele>
        <time>2021-06-23T13:07:28Z</time>
      </trkpt>
      <trkpt lat="48.3819" lon="7.42603">
        <ele>246.17</ele>
        <time>2021-06-23T13:07:32Z</time>
      </trkpt>
      <trkpt lat="48.38179" lon="7.42655">
        <ele>247.54</ele>
        <time>2021-06-23T13:07:36Z</time>
      </trkpt>
      <trkpt lat="48.38176" lon="7.42678">
        <ele>247.11</ele>
        <time>2021-06-23T13:07:41Z</time>
      </trkpt>
      <trkpt lat="48.38176" lon="7.42733">
        <ele>244.22</ele>
        <time>2021-06-23T13:07:45Z</time>
      </trkpt>
      <trkpt lat="48.38171" lon="7.42935">
        <ele>250.96</ele>
        <time>2021-06-23T13:07:49Z</time>
      </trkpt>
      <trkpt lat="48.3817" lon="7.42948">
        <ele>250.78</ele>
        <time>2021-06-23T13:07:54Z</time>
      </trkpt>
      <trkpt lat="48.38165" lon="7.42958">
        <ele>251.06</ele>
        <time>2021-06-23T13:07:58Z</time>
      </trkpt>
      <trkpt lat="48.38157" lon="7.42962">
        <ele>251.34</ele>
        <time>2021-06-23T13:08:02Z</time>
      </trkpt>
      <trkpt lat="48.38144" lon="7.42965">
        <ele>251.81</ele>
        <time>2021-06-23T13:08:07Z</time>
      </trkpt>
      <trkpt lat="48.38053" lon="7.42974">
        <ele>253.84</ele>
        <time>2021-06-23T13:08:11Z</time>
      </trkpt>
      <trkpt lat="48.38026" lon="7.42971">
        <ele>252.99</ele>
        <time>2021-06-23T13:08:15Z</time>
      </trkpt>
      <trkpt lat="48.37966" lon="7.42954">
        <ele>253.23</ele>
        <time>2021-06-23T13:08:20Z</time>
      </trkpt>
      <trkpt lat="48.37918" lon="7.42939">
        <ele>256.07</ele>
        <time>2021-06-23T13:08:24Z</time>
      </trkpt>
      <trkpt lat="48.37877" lon="7.42921">
        <ele>255.41</ele>
        <time>2021-06-23T13:08:29Z</time>
      </trkpt>
      <trkpt lat="48.37786" lon="7.42859">
        <ele>254.58</ele>
        <time>2021-06-23T13:08:33Z</time>
      </trkpt>
      <trkpt lat="48.37776" lon="7.42854">
        <ele>255.1</ele>
        <time>2021-06-23T13:08:37Z</time>
      </trkpt>
      <trkpt lat="48.37762" lon="7.42854">
        <ele>255.53</ele>
        <time>2021-06-23T13:08:42Z</time>
      </trkpt>
      <trkpt lat="48.37711" lon="7.42895">
        <ele>253.71</ele>
        <time>2021-06-23T13:08:46Z</time>
      </trkpt>
      <trkpt lat="48.37691" lon="7.42909">
        <ele>252.73</ele>
        <time>2021-06-23T13:08:50Z</time>
      </trkpt>
      <trkpt lat="48.37663" lon="7.42918">
        <ele>250.84</ele>
        <time>2021-06-23T13:08:55Z</time>
      </trkpt>
      <trkpt lat="48.37605" lon="7.42932">
        <ele>249.57</ele>
        <time>2021-06-23T13:08:59Z</time>
      </trkpt>
      <trkpt lat="48.37552" lon="7.42962">
        <ele>252.49</ele>
        <time>2021-06-23T13:09:03Z</time>
      </trkpt>
      <trkpt lat="48.37512" lon="7.42975">
        <ele>257.7</ele>
        <time>2021-06-23T13:09:08Z</time>
      </trkpt>
      <trkpt lat="48.37457" lon="7.42984">
        <ele>261.04</ele>
        <time>2021-06-23T13:09:12Z</time>
      </trkpt>
      <trkpt lat="48.3736" lon="7.43013">
        <ele>266.05</ele>
        <time>2021-06-23T13:09:16Z</time>
      </trkpt>
      <trkpt lat="48.37139" lon="7.43038">
        <ele>266.25</ele>
        <time>2021-06-23T13:09:21Z</time>
      </trkpt>
      <trkpt lat="48.36871" lon="7.42595">
        <ele>275.74</ele>
        <time>2021-06-23T13:09:34Z</time>
      </trkpt>
      <trkpt lat="48.36856" lon="7.4256">
        <ele>275.42</ele>
        <time>2021-06-23T13:09:47Z</time>
      </trkpt>
      <trkpt lat="48.36805" lon="7.42417">
        <ele>266.92</ele>
        <time>2021-06-23T13:10:01Z</time>
      </trkpt>
      <trkpt lat="48.36794" lon="7.42422">
        <ele>265.86</ele>
        <time>2021-06-23T13:10:05Z</time>
      </trkpt>
      <trkpt lat="48.36762" lon="7.42428">
        <ele>262.9</ele>
        <time>2021-06-23T13:10:09Z</time>
      </trkpt>
      <trkpt lat="48.36688" lon="7.42478">
        <ele>259.24</ele>
        <time>2021-06-23T13:10:14Z</time>
      </trkpt>
      <trkpt lat="48.36688" lon="7.42478">
        <ele>259.24</ele>
        <time>2021-06-23T13:10:14Z</time>
      </trkpt>
      <trkpt lat="48.36529" lon="7.42587">
        <ele>254.8</ele>
        <time>2021-06-23T13:10:21Z</time>
      </trkpt>
      <trkpt lat="48.3648" lon="7.4261">
        <ele>253.76</ele>
        <time>2021-06-23T13:10:29Z</time>
      </trkpt>
      <trkpt lat="48.36465" lon="7.42622">
        <ele>253.44</ele>
        <time>2021-06-23T13:10:37Z</time>
      </trkpt>
      <trkpt lat="48.36424" lon="7.42658">
        <ele>253.82</ele>
        <time>2021-06-23T13:10:45Z</time>
      </trkpt>
      <trkpt lat="48.36406" lon="7.42686">
        <ele>254.24</ele>
        <time>2021-06-23T13:10:53Z</time>
      </trkpt>
      <trkpt lat="48.36399" lon="7.42705">
        <ele>254.43</ele>
        <time>2021-06-23T13:11:01Z</time>
      </trkpt>
      <trkpt lat="48.36392" lon="7.42738">
        <ele>253.93</ele>
        <time>2021-06-23T13:11:08Z</time>
      </trkpt>
      <trkpt lat="48.36392" lon="7.42779">
        <ele>254.47</ele>
        <time>2021-06-23T13:11:16Z</time>
      </trkpt>
      <trkpt lat="48.36398" lon="7.42907">
        <ele>253.24</ele>
        <time>2021-06-23T13:11:24Z</time>
      </trkpt>
      <trkpt lat="48.364" lon="7.43061">
        <ele>252.26</ele>
        <time>2021-06-23T13:11:32Z</time>
      </trkpt>
      <trkpt lat="48.36399" lon="7.43086">
        <ele>251.71</ele>
        <time>2021-06-23T13:11:40Z</time>
      </trkpt>
      <trkpt lat="48.36396" lon="7.43115">
        <ele>251.15</ele>
        <time>2021-06-23T13:11:48Z</time>
      </trkpt>
      <trkpt lat="48.3639" lon="7.43111">
        <ele>250.23</ele>
        <time>2021-06-23T13:11:52Z</time>
      </trkpt>
      <trkpt lat="48.36372" lon="7.43057">
        <ele>249.59</ele>
        <time>2021-06-23T13:11:56Z</time>
      </trkpt>
      <trkpt lat="48.36362" lon="7.4304">
        <ele>248.2</ele>
        <time>2021-06-23T13:12:00Z</time>
      </trkpt>
      <trkpt lat="48.36354" lon="7.43034">
        <ele>246.18</ele>
        <time>2021-06-23T13:12:03Z</time>
      </trkpt>
      <trkpt lat="48.36312" lon="7.43018">
        <ele>236.45</ele>
        <time>2021-06-23T13:12:07Z</time>
      </trkpt>
      <trkpt lat="48.36285" lon="7.4301">
        <ele>232.23</ele>
        <time>2021-06-23T13:12:11Z</time>
      </trkpt>
      <trkpt lat="48.36278" lon="7.43011">
        <ele>231.38</ele>
        <time>2021-06-23T13:12:15Z</time>
      </trkpt>
      <trkpt lat="48.36275" lon="7.43018">
        <ele>231.28</ele>
        <time>2021-06-23T13:12:16Z</time>
      </trkpt>
      <trkpt lat="48.36268" lon="7.43016">
        <ele>230.33</ele>
        <time>2021-06-23T13:12:19Z</time>
      </trkpt>
      <trkpt lat="48.3626" lon="7.43017">
        <ele>229.46</ele>
        <time>2021-06-23T13:12:21Z</time>
      </trkpt>
      <trkpt lat="48.36217" lon="7.43032">
        <ele>225.96</ele>
        <time>2021-06-23T13:12:23Z</time>
      </trkpt>
      <trkpt lat="48.36182" lon="7.43039">
        <ele>223.91</ele>
        <time>2021-06-23T13:12:26Z</time>
      </trkpt>
      <trkpt lat="48.3616" lon="7.43039">
        <ele>222.12</ele>
        <time>2021-06-23T13:12:28Z</time>
      </trkpt>
      <trkpt lat="48.36149" lon="7.43036">
        <ele>221.42</ele>
        <time>2021-06-23T13:12:30Z</time>
      </trkpt>
      <trkpt lat="48.36137" lon="7.43027">
        <ele>220.82</ele>
        <time>2021-06-23T13:12:32Z</time>
      </trkpt>
      <trkpt lat="48.36127" lon="7.43015">
        <ele>220.14</ele>
        <time>2021-06-23T13:12:35Z</time>
      </trkpt>
      <trkpt lat="48.36119" lon="7.42999">
        <ele>219.56</ele>
        <time>2021-06-23T13:12:37Z</time>
      </trkpt>
      <trkpt lat="48.36112" lon="7.42982">
        <ele>219.68</ele>
        <time>2021-06-23T13:12:39Z</time>
      </trkpt>
      <trkpt lat="48.36104" lon="7.42953">
        <ele>219.93</ele>
        <time>2021-06-23T13:12:42Z</time>
      </trkpt>
      <trkpt lat="48.36097" lon="7.42937">
        <ele>220.14</ele>
        <time>2021-06-23T13:12:44Z</time>
      </trkpt>
      <trkpt lat="48.3609" lon="7.42926">
        <ele>220.51</ele>
        <time>2021-06-23T13:12:46Z</time>
      </trkpt>
      <trkpt lat="48.3608" lon="7.42917">
        <ele>220.86</ele>
        <time>2021-06-23T13:12:48Z</time>
      </trkpt>
      <trkpt lat="48.36022" lon="7.429">
        <ele>217.77</ele>
        <time>2021-06-23T13:12:51Z</time>
      </trkpt>
      <trkpt lat="48.36002" lon="7.42884">
        <ele>217.08</ele>
        <time>2021-06-23T13:12:53Z</time>
      </trkpt>
      <trkpt lat="48.35991" lon="7.42869">
        <ele>216.69</ele>
        <time>2021-06-23T13:12:55Z</time>
      </trkpt>
      <trkpt lat="48.35977" lon="7.42837">
        <ele>217.75</ele>
        <time>2021-06-23T13:12:57Z</time>
      </trkpt>
      <trkpt lat="48.35958" lon="7.42738">
        <ele>219.5</ele>
        <time>2021-06-23T13:13:00Z</time>
      </trkpt>
      <trkpt lat="48.35936" lon="7.42673">
        <ele>218.68</ele>
        <time>2021-06-23T13:13:02Z</time>
      </trkpt>
      <trkpt lat="48.35925" lon="7.4265">
        <ele>218.87</ele>
        <time>2021-06-23T13:13:04Z</time>
      </trkpt>
      <trkpt lat="48.35911" lon="7.42631">
        <ele>219.34</ele>
        <time>2021-06-23T13:13:07Z</time>
      </trkpt>
      <trkpt lat="48.35898" lon="7.42619">
        <ele>219.76</ele>
        <time>2021-06-23T13:13:09Z</time>
      </trkpt>
      <trkpt lat="48.35885" lon="7.42611">
        <ele>220.02</ele>
        <time>2021-06-23T13:13:11Z</time>
      </trkpt>
      <trkpt lat="48.35802" lon="7.42569">
        <ele>220.44</ele>
        <time>2021-06-23T13:13:13Z</time>
      </trkpt>
      <trkpt lat="48.35687" lon="7.42544">
        <ele>217.95</ele>
        <time>2021-06-23T13:13:16Z</time>
      </trkpt>
      <trkpt lat="48.3561" lon="7.42519">
        <ele>219.35</ele>
        <time>2021-06-23T13:13:18Z</time>
      </trkpt>
      <trkpt lat="48.35568" lon="7.42504">
        <ele>219.46</ele>
        <time>2021-06-23T13:13:20Z</time>
      </trkpt>
      <trkpt lat="48.35556" lon="7.42495">
        <ele>219.01</ele>
        <time>2021-06-23T13:13:23Z</time>
      </trkpt>
      <trkpt lat="48.35547" lon="7.42485">
        <ele>218.86</ele>
        <time>2021-06-23T13:13:25Z</time>
      </trkpt>
      <trkpt lat="48.35544" lon="7.42469">
        <ele>219</ele>
        <time>2021-06-23T13:13:29Z</time>
      </trkpt>
      <trkpt lat="48.35546" lon="7.42451">
        <ele>219</ele>
        <time>2021-06-23T13:13:33Z</time>
      </trkpt>
      <trkpt lat="48.35552" lon="7.42418">
        <ele>219.94</ele>
        <time>2021-06-23T13:13:37Z</time>
      </trkpt>
      <trkpt lat="48.35588" lon="7.42315">
        <ele>223.19</ele>
        <time>2021-06-23T13:13:41Z</time>
      </trkpt>
      <trkpt lat="48.35597" lon="7.42272">
        <ele>224.62</ele>
        <time>2021-06-23T13:13:45Z</time>
      </trkpt>
      <trkpt lat="48.35597" lon="7.42258">
        <ele>224.85</ele>
        <time>2021-06-23T13:13:49Z</time>
      </trkpt>
      <trkpt lat="48.35595" lon="7.42235">
        <ele>225.23</ele>
        <time>2021-06-23T13:13:53Z</time>
      </trkpt>
      <trkpt lat="48.35587" lon="7.42171">
        <ele>225.23</ele>
        <time>2021-06-23T13:13:57Z</time>
      </trkpt>
      <trkpt lat="48.35586" lon="7.42147">
        <ele>224.49</ele>
        <time>2021-06-23T13:14:01Z</time>
      </trkpt>
      <trkpt lat="48.35588" lon="7.42089">
        <ele>227.63</ele>
        <time>2021-06-23T13:14:05Z</time>
      </trkpt>
      <trkpt lat="48.35584" lon="7.42074">
        <ele>228.71</ele>
        <time>2021-06-23T13:14:09Z</time>
      </trkpt>
      <trkpt lat="48.35571" lon="7.42053">
        <ele>230.66</ele>
        <time>2021-06-23T13:14:13Z</time>
      </trkpt>
      <trkpt lat="48.35532" lon="7.42014">
        <ele>232.32</ele>
        <time>2021-06-23T13:14:17Z</time>
      </trkpt>
      <trkpt lat="48.35484" lon="7.41985">
        <ele>229.91</ele>
        <time>2021-06-23T13:14:21Z</time>
      </trkpt>
      <trkpt lat="48.35385" lon="7.41971">
        <ele>227.08</ele>
        <time>2021-06-23T13:14:25Z</time>
      </trkpt>
      <trkpt lat="48.35294" lon="7.41974">
        <ele>221.71</ele>
        <time>2021-06-23T13:14:29Z</time>
      </trkpt>
      <trkpt lat="48.35239" lon="7.4197">
        <ele>219.08</ele>
        <time>2021-06-23T13:14:33Z</time>
      </trkpt>
      <trkpt lat="48.35175" lon="7.41945">
        <ele>219</ele>
        <time>2021-06-23T13:14:37Z</time>
      </trkpt>
      <trkpt lat="48.35138" lon="7.41939">
        <ele>219.11</ele>
        <time>2021-06-23T13:14:41Z</time>
      </trkpt>
      <trkpt lat="48.35138" lon="7.41939">
        <ele>219.11</ele>
        <time>2021-06-23T13:14:41Z</time>
      </trkpt>
      <trkpt lat="48.35103" lon="7.41936">
        <ele>219.13</ele>
        <time>2021-06-23T13:14:44Z</time>
      </trkpt>
      <trkpt lat="48.35063" lon="7.41941">
        <ele>218.16</ele>
        <time>2021-06-23T13:14:48Z</time>
      </trkpt>
      <trkpt lat="48.35047" lon="7.41947">
        <ele>217.52</ele>
        <time>2021-06-23T13:14:51Z</time>
      </trkpt>
      <trkpt lat="48.35" lon="7.41976">
        <ele>215.6</ele>
        <time>2021-06-23T13:14:55Z</time>
      </trkpt>
      <trkpt lat="48.34979" lon="7.41993">
        <ele>214.33</ele>
        <time>2021-06-23T13:14:58Z</time>
      </trkpt>
      <trkpt lat="48.34961" lon="7.42004">
        <ele>214.55</ele>
        <time>2021-06-23T13:15:01Z</time>
      </trkpt>
      <trkpt lat="48.34931" lon="7.42015">
        <ele>217.23</ele>
        <time>2021-06-23T13:15:05Z</time>
      </trkpt>
      <trkpt lat="48.34825" lon="7.42039">
        <ele>222.6</ele>
        <time>2021-06-23T13:15:08Z</time>
      </trkpt>
      <trkpt lat="48.34799" lon="7.42047">
        <ele>222.05</ele>
        <time>2021-06-23T13:15:11Z</time>
      </trkpt>
      <trkpt lat="48.34773" lon="7.42058">
        <ele>220.84</ele>
        <time>2021-06-23T13:15:15Z</time>
      </trkpt>
      <trkpt lat="48.34732" lon="7.42082">
        <ele>219.68</ele>
        <time>2021-06-23T13:15:18Z</time>
      </trkpt>
      <trkpt lat="48.34669" lon="7.42126">
        <ele>216.58</ele>
        <time>2021-06-23T13:15:22Z</time>
      </trkpt>
      <trkpt lat="48.34649" lon="7.42136">
        <ele>215.47</ele>
        <time>2021-06-23T13:15:25Z</time>
      </trkpt>
      <trkpt lat="48.34626" lon="7.42143">
        <ele>215.4</ele>
        <time>2021-06-23T13:15:28Z</time>
      </trkpt>
      <trkpt lat="48.34601" lon="7.42145">
        <ele>216.17</ele>
        <time>2021-06-23T13:15:32Z</time>
      </trkpt>
      <trkpt lat="48.34525" lon="7.42145">
        <ele>220.02</ele>
        <time>2021-06-23T13:15:35Z</time>
      </trkpt>
      <trkpt lat="48.34499" lon="7.4215">
        <ele>221.65</ele>
        <time>2021-06-23T13:15:38Z</time>
      </trkpt>
      <trkpt lat="48.34473" lon="7.42163">
        <ele>222.1</ele>
        <time>2021-06-23T13:15:42Z</time>
      </trkpt>
      <trkpt lat="48.34392" lon="7.42221">
        <ele>223.82</ele>
        <time>2021-06-23T13:15:45Z</time>
      </trkpt>
      <trkpt lat="48.34299" lon="7.42269">
        <ele>221.53</ele>
        <time>2021-06-23T13:15:49Z</time>
      </trkpt>
      <trkpt lat="48.34268" lon="7.42161">
        <ele>225</ele>
        <time>2021-06-23T13:15:52Z</time>
      </trkpt>
      <trkpt lat="48.34259" lon="7.4214">
        <ele>225</ele>
        <time>2021-06-23T13:15:56Z</time>
      </trkpt>
      <trkpt lat="48.3424" lon="7.42106">
        <ele>226.18</ele>
        <time>2021-06-23T13:16:00Z</time>
      </trkpt>
      <trkpt lat="48.34217" lon="7.4207">
        <ele>227.69</ele>
        <time>2021-06-23T13:16:03Z</time>
      </trkpt>
      <trkpt lat="48.34204" lon="7.42044">
        <ele>229.53</ele>
        <time>2021-06-23T13:16:07Z</time>
      </trkpt>
      <trkpt lat="48.34183" lon="7.41963">
        <ele>233.4</ele>
        <time>2021-06-23T13:16:11Z</time>
      </trkpt>
      <trkpt lat="48.34163" lon="7.41851">
        <ele>235.2</ele>
        <time>2021-06-23T13:16:15Z</time>
      </trkpt>
      <trkpt lat="48.34161" lon="7.41842">
        <ele>235.36</ele>
        <time>2021-06-23T13:16:18Z</time>
      </trkpt>
      <trkpt lat="48.34157" lon="7.41835">
        <ele>235.68</ele>
        <time>2021-06-23T13:16:22Z</time>
      </trkpt>
      <trkpt lat="48.34126" lon="7.41844">
        <ele>236.79</ele>
        <time>2021-06-23T13:16:25Z</time>
      </trkpt>
      <trkpt lat="48.34113" lon="7.41854">
        <ele>236.95</ele>
        <time>2021-06-23T13:16:29Z</time>
      </trkpt>
      <trkpt lat="48.34106" lon="7.41872">
        <ele>237.25</ele>
        <time>2021-06-23T13:16:32Z</time>
      </trkpt>
      <trkpt lat="48.34099" lon="7.41903">
        <ele>237.67</ele>
        <time>2021-06-23T13:16:35Z</time>
      </trkpt>
      <trkpt lat="48.34068" lon="7.41954">
        <ele>237.52</ele>
        <time>2021-06-23T13:16:39Z</time>
      </trkpt>
      <trkpt lat="48.3406" lon="7.41963">
        <ele>237.26</ele>
        <time>2021-06-23T13:16:42Z</time>
      </trkpt>
      <trkpt lat="48.34051" lon="7.41966">
        <ele>237.24</ele>
        <time>2021-06-23T13:16:45Z</time>
      </trkpt>
      <trkpt lat="48.34024" lon="7.41969">
        <ele>236.99</ele>
        <time>2021-06-23T13:16:49Z</time>
      </trkpt>
      <trkpt lat="48.33969" lon="7.41973">
        <ele>235.78</ele>
        <time>2021-06-23T13:16:52Z</time>
      </trkpt>
      <trkpt lat="48.33939" lon="7.41969">
        <ele>235.09</ele>
        <time>2021-06-23T13:16:55Z</time>
      </trkpt>
      <trkpt lat="48.33886" lon="7.41943">
        <ele>236.1</ele>
        <time>2021-06-23T13:16:59Z</time>
      </trkpt>
      <trkpt lat="48.33872" lon="7.41939">
        <ele>236.22</ele>
        <time>2021-06-23T13:17:02Z</time>
      </trkpt>
      <trkpt lat="48.33856" lon="7.41942">
        <ele>235.39</ele>
        <time>2021-06-23T13:17:05Z</time>
      </trkpt>
      <trkpt lat="48.33842" lon="7.41949">
        <ele>234.41</ele>
        <time>2021-06-23T13:17:09Z</time>
      </trkpt>
      <trkpt lat="48.33794" lon="7.41981">
        <ele>233.66</ele>
        <time>2021-06-23T13:17:12Z</time>
      </trkpt>
      <trkpt lat="48.33777" lon="7.41996">
        <ele>234.39</ele>
        <time>2021-06-23T13:17:16Z</time>
      </trkpt>
      <trkpt lat="48.33767" lon="7.42013">
        <ele>235.59</ele>
        <time>2021-06-23T13:17:19Z</time>
      </trkpt>
      <trkpt lat="48.33759" lon="7.42042">
        <ele>237.34</ele>
        <time>2021-06-23T13:17:22Z</time>
      </trkpt>
      <trkpt lat="48.33755" lon="7.42092">
        <ele>238.35</ele>
        <time>2021-06-23T13:17:26Z</time>
      </trkpt>
      <trkpt lat="48.33756" lon="7.4218">
        <ele>237.41</ele>
        <time>2021-06-23T13:17:29Z</time>
      </trkpt>
      <trkpt lat="48.33754" lon="7.42237">
        <ele>234.2</ele>
        <time>2021-06-23T13:17:32Z</time>
      </trkpt>
      <trkpt lat="48.3375" lon="7.42279">
        <ele>232.91</ele>
        <time>2021-06-23T13:17:36Z</time>
      </trkpt>
      <trkpt lat="48.33697" lon="7.42576">
        <ele>224.44</ele>
        <time>2021-06-23T13:17:39Z</time>
      </trkpt>
      <trkpt lat="48.33685" lon="7.42627">
        <ele>223.63</ele>
        <time>2021-06-23T13:17:42Z</time>
      </trkpt>
      <trkpt lat="48.3368" lon="7.42639">
        <ele>223.65</ele>
        <time>2021-06-23T13:17:46Z</time>
      </trkpt>
      <trkpt lat="48.33668" lon="7.42658">
        <ele>224.38</ele>
        <time>2021-06-23T13:17:49Z</time>
      </trkpt>
      <trkpt lat="48.33654" lon="7.42676">
        <ele>225.11</ele>
        <time>2021-06-23T13:17:52Z</time>
      </trkpt>
      <trkpt lat="48.33632" lon="7.42692">
        <ele>225.67</ele>
        <time>2021-06-23T13:17:56Z</time>
      </trkpt>
      <trkpt lat="48.33621" lon="7.42698">
        <ele>226.08</ele>
        <time>2021-06-23T13:17:59Z</time>
      </trkpt>
      <trkpt lat="48.33609" lon="7.42701">
        <ele>226.78</ele>
        <time>2021-06-23T13:18:02Z</time>
      </trkpt>
      <trkpt lat="48.33587" lon="7.42702">
        <ele>229.03</ele>
        <time>2021-06-23T13:18:06Z</time>
      </trkpt>
      <trkpt lat="48.33521" lon="7.4269">
        <ele>230.82</ele>
        <time>2021-06-23T13:18:09Z</time>
      </trkpt>
      <trkpt lat="48.33414" lon="7.42674">
        <ele>227.35</ele>
        <time>2021-06-23T13:18:12Z</time>
      </trkpt>
      <trkpt lat="48.33295" lon="7.42673">
        <ele>226.98</ele>
        <time>2021-06-23T13:18:16Z</time>
      </trkpt>
      <trkpt lat="48.33263" lon="7.42666">
        <ele>226.96</ele>
        <time>2021-06-23T13:18:19Z</time>
      </trkpt>
      <trkpt lat="48.33236" lon="7.42656">
        <ele>227.23</ele>
        <time>2021-06-23T13:18:22Z</time>
      </trkpt>
      <trkpt lat="48.3315" lon="7.42612">
        <ele>227.98</ele>
        <time>2021-06-23T13:18:26Z</time>
      </trkpt>
      <trkpt lat="48.33081" lon="7.42571">
        <ele>229.39</ele>
        <time>2021-06-23T13:18:29Z</time>
      </trkpt>
      <trkpt lat="48.32966" lon="7.42468">
        <ele>227.11</ele>
        <time>2021-06-23T13:18:32Z</time>
      </trkpt>
      <trkpt lat="48.32915" lon="7.42434">
        <ele>226.38</ele>
        <time>2021-06-23T13:18:36Z</time>
      </trkpt>
      <trkpt lat="48.32828" lon="7.42395">
        <ele>227.21</ele>
        <time>2021-06-23T13:18:39Z</time>
      </trkpt>
      <trkpt lat="48.32757" lon="7.42353">
        <ele>224.22</ele>
        <time>2021-06-23T13:18:42Z</time>
      </trkpt>
      <trkpt lat="48.3274" lon="7.42344">
        <ele>224.82</ele>
        <time>2021-06-23T13:18:46Z</time>
      </trkpt>
      <trkpt lat="48.32708" lon="7.42342">
        <ele>224.38</ele>
        <time>2021-06-23T13:18:49Z</time>
      </trkpt>
      <trkpt lat="48.32699" lon="7.42344">
        <ele>223.53</ele>
        <time>2021-06-23T13:18:53Z</time>
      </trkpt>
      <trkpt lat="48.32626" lon="7.42391">
        <ele>218.85</ele>
        <time>2021-06-23T13:18:56Z</time>
      </trkpt>
      <trkpt lat="48.32615" lon="7.42398">
        <ele>218.38</ele>
        <time>2021-06-23T13:18:59Z</time>
      </trkpt>
      <trkpt lat="48.32605" lon="7.42407">
        <ele>217.88</ele>
        <time>2021-06-23T13:19:03Z</time>
      </trkpt>
      <trkpt lat="48.32574" lon="7.42446">
        <ele>217.63</ele>
        <time>2021-06-23T13:19:06Z</time>
      </trkpt>
      <trkpt lat="48.32568" lon="7.42457">
        <ele>217.83</ele>
        <time>2021-06-23T13:19:09Z</time>
      </trkpt>
      <trkpt lat="48.32528" lon="7.42573">
        <ele>212.39</ele>
        <time>2021-06-23T13:19:13Z</time>
      </trkpt>
      <trkpt lat="48.32516" lon="7.42598">
        <ele>212</ele>
        <time>2021-06-23T13:19:16Z</time>
      </trkpt>
      <trkpt lat="48.32475" lon="7.4265">
        <ele>211.61</ele>
        <time>2021-06-23T13:19:19Z</time>
      </trkpt>
      <trkpt lat="48.32457" lon="7.42669">
        <ele>209.84</ele>
        <time>2021-06-23T13:19:23Z</time>
      </trkpt>
      <trkpt lat="48.3244" lon="7.42681">
        <ele>208.91</ele>
        <time>2021-06-23T13:19:26Z</time>
      </trkpt>
      <trkpt lat="48.32422" lon="7.42685">
        <ele>208.46</ele>
        <time>2021-06-23T13:19:29Z</time>
      </trkpt>
      <trkpt lat="48.32388" lon="7.42685">
        <ele>208.38</ele>
        <time>2021-06-23T13:19:33Z</time>
      </trkpt>
      <trkpt lat="48.32379" lon="7.42693">
        <ele>208.73</ele>
        <time>2021-06-23T13:19:36Z</time>
      </trkpt>
      <trkpt lat="48.32371" lon="7.42715">
        <ele>209.29</ele>
        <time>2021-06-23T13:19:39Z</time>
      </trkpt>
      <trkpt lat="48.32365" lon="7.42743">
        <ele>209.1</ele>
        <time>2021-06-23T13:19:43Z</time>
      </trkpt>
      <trkpt lat="48.32357" lon="7.428">
        <ele>206.35</ele>
        <time>2021-06-23T13:19:46Z</time>
      </trkpt>
      <trkpt lat="48.32357" lon="7.42811">
        <ele>206.12</ele>
        <time>2021-06-23T13:19:49Z</time>
      </trkpt>
      <trkpt lat="48.32355" lon="7.42849">
        <ele>205.45</ele>
        <time>2021-06-23T13:19:53Z</time>
      </trkpt>
      <trkpt lat="48.32291" lon="7.42849">
        <ele>205.42</ele>
        <time>2021-06-23T13:19:58Z</time>
      </trkpt>
      <trkpt lat="48.32072" lon="7.42841">
        <ele>199.68</ele>
        <time>2021-06-23T13:20:03Z</time>
      </trkpt>
      <trkpt lat="48.32" lon="7.42833">
        <ele>196.07</ele>
        <time>2021-06-23T13:20:08Z</time>
      </trkpt>
      <trkpt lat="48.31948" lon="7.42823">
        <ele>195.57</ele>
        <time>2021-06-23T13:20:13Z</time>
      </trkpt>
      <trkpt lat="48.31897" lon="7.42804">
        <ele>194.82</ele>
        <time>2021-06-23T13:20:17Z</time>
      </trkpt>
      <trkpt lat="48.31845" lon="7.42775">
        <ele>196.45</ele>
        <time>2021-06-23T13:20:22Z</time>
      </trkpt>
      <trkpt lat="48.31828" lon="7.42754">
        <ele>195.59</ele>
        <time>2021-06-23T13:20:27Z</time>
      </trkpt>
      <trkpt lat="48.31815" lon="7.42717">
        <ele>193.98</ele>
        <time>2021-06-23T13:20:32Z</time>
      </trkpt>
      <trkpt lat="48.3177" lon="7.42574">
        <ele>197.03</ele>
        <time>2021-06-23T13:20:37Z</time>
      </trkpt>
      <trkpt lat="48.31758" lon="7.42542">
        <ele>197.28</ele>
        <time>2021-06-23T13:20:42Z</time>
      </trkpt>
      <trkpt lat="48.31746" lon="7.42518">
        <ele>197.14</ele>
        <time>2021-06-23T13:20:47Z</time>
      </trkpt>
      <trkpt lat="48.31734" lon="7.42505">
        <ele>197.13</ele>
        <time>2021-06-23T13:20:52Z</time>
      </trkpt>
      <trkpt lat="48.31722" lon="7.425">
        <ele>197</ele>
        <time>2021-06-23T13:20:57Z</time>
      </trkpt>
      <trkpt lat="48.31595" lon="7.42472">
        <ele>194.59</ele>
        <time>2021-06-23T13:21:02Z</time>
      </trkpt>
      <trkpt lat="48.31567" lon="7.42461">
        <ele>194.45</ele>
        <time>2021-06-23T13:21:07Z</time>
      </trkpt>
      <trkpt lat="48.31445" lon="7.42386">
        <ele>194.32</ele>
        <time>2021-06-23T13:21:12Z</time>
      </trkpt>
      <trkpt lat="48.314" lon="7.42365">
        <ele>194.88</ele>
        <time>2021-06-23T13:21:17Z</time>
      </trkpt>
      <trkpt lat="48.31339" lon="7.42329">
        <ele>198.16</ele>
        <time>2021-06-23T13:21:22Z</time>
      </trkpt>
      <trkpt lat="48.3132" lon="7.42323">
        <ele>197.89</ele>
        <time>2021-06-23T13:21:27Z</time>
      </trkpt>
      <trkpt lat="48.31281" lon="7.42324">
        <ele>195.54</ele>
        <time>2021-06-23T13:21:32Z</time>
      </trkpt>
      <trkpt lat="48.31229" lon="7.4233">
        <ele>195.14</ele>
        <time>2021-06-23T13:21:37Z</time>
      </trkpt>
      <trkpt lat="48.31204" lon="7.42325">
        <ele>194.65</ele>
        <time>2021-06-23T13:21:41Z</time>
      </trkpt>
      <trkpt lat="48.31183" lon="7.42316">
        <ele>194.48</ele>
        <time>2021-06-23T13:21:46Z</time>
      </trkpt>
      <trkpt lat="48.31142" lon="7.42293">
        <ele>195.49</ele>
        <time>2021-06-23T13:21:51Z</time>
      </trkpt>
      <trkpt lat="48.31051" lon="7.42254">
        <ele>194.53</ele>
        <time>2021-06-23T13:21:56Z</time>
      </trkpt>
      <trkpt lat="48.30974" lon="7.42216">
        <ele>196.18</ele>
        <time>2021-06-23T13:22:01Z</time>
      </trkpt>
      <trkpt lat="48.30957" lon="7.4221">
        <ele>196.11</ele>
        <time>2021-06-23T13:22:06Z</time>
      </trkpt>
      <trkpt lat="48.30869" lon="7.422">
        <ele>194.1</ele>
        <time>2021-06-23T13:22:11Z</time>
      </trkpt>
      <trkpt lat="48.30856" lon="7.42201">
        <ele>193.54</ele>
        <time>2021-06-23T13:22:16Z</time>
      </trkpt>
      <trkpt lat="48.30846" lon="7.42206">
        <ele>192.81</ele>
        <time>2021-06-23T13:22:21Z</time>
      </trkpt>
      <trkpt lat="48.30752" lon="7.42257">
        <ele>188.82</ele>
        <time>2021-06-23T13:22:26Z</time>
      </trkpt>
      <trkpt lat="48.30725" lon="7.42268">
        <ele>188.94</ele>
        <time>2021-06-23T13:22:31Z</time>
      </trkpt>
      <trkpt lat="48.30696" lon="7.42273">
        <ele>189.77</ele>
        <time>2021-06-23T13:22:36Z</time>
      </trkpt>
      <trkpt lat="48.30664" lon="7.42274">
        <ele>189.64</ele>
        <time>2021-06-23T13:22:41Z</time>
      </trkpt>
      <trkpt lat="48.30618" lon="7.42271">
        <ele>186.48</ele>
        <time>2021-06-23T13:22:46Z</time>
      </trkpt>
      <trkpt lat="48.30444" lon="7.42258">
        <ele>185.71</ele>
        <time>2021-06-23T13:22:51Z</time>
      </trkpt>
      <trkpt lat="48.30352" lon="7.42259">
        <ele>184.71</ele>
        <time>2021-06-23T13:22:56Z</time>
      </trkpt>
      <trkpt lat="48.30089" lon="7.4228">
        <ele>184.79</ele>
        <time>2021-06-23T13:23:01Z</time>
      </trkpt>
      <trkpt lat="48.30054" lon="7.42279">
        <ele>184.92</ele>
        <time>2021-06-23T13:23:06Z</time>
      </trkpt>
      <trkpt lat="48.30005" lon="7.4227">
        <ele>184.88</ele>
        <time>2021-06-23T13:23:10Z</time>
      </trkpt>
      <trkpt lat="48.29956" lon="7.42265">
        <ele>185.8</ele>
        <time>2021-06-23T13:23:15Z</time>
      </trkpt>
      <trkpt lat="48.298" lon="7.4227">
        <ele>181.05</ele>
        <time>2021-06-23T13:23:20Z</time>
      </trkpt>
      <trkpt lat="48.29766" lon="7.42273">
        <ele>181.17</ele>
        <time>2021-06-23T13:23:25Z</time>
      </trkpt>
      <trkpt lat="48.29607" lon="7.4231">
        <ele>179.34</ele>
        <time>2021-06-23T13:23:30Z</time>
      </trkpt>
      <trkpt lat="48.29476" lon="7.42347">
        <ele>180</ele>
        <time>2021-06-23T13:23:35Z</time>
      </trkpt>
      <trkpt lat="48.29426" lon="7.42369">
        <ele>180.39</ele>
        <time>2021-06-23T13:23:40Z</time>
      </trkpt>
      <trkpt lat="48.2941" lon="7.42375">
        <ele>180.61</ele>
        <time>2021-06-23T13:23:45Z</time>
      </trkpt>
      <trkpt lat="48.29375" lon="7.42384">
        <ele>181</ele>
        <time>2021-06-23T13:23:50Z</time>
      </trkpt>
      <trkpt lat="48.2935" lon="7.42401">
        <ele>180.75</ele>
        <time>2021-06-23T13:23:55Z</time>
      </trkpt>
      <trkpt lat="48.29291" lon="7.42425">
        <ele>180.46</ele>
        <time>2021-06-23T13:24:00Z</time>
      </trkpt>
      <trkpt lat="48.29257" lon="7.42435">
        <ele>179.51</ele>
        <time>2021-06-23T13:24:05Z</time>
      </trkpt>
      <trkpt lat="48.29237" lon="7.42431">
        <ele>179.72</ele>
        <time>2021-06-23T13:24:10Z</time>
      </trkpt>
      <trkpt lat="48.29224" lon="7.42422">
        <ele>179.88</ele>
        <time>2021-06-23T13:24:15Z</time>
      </trkpt>
      <trkpt lat="48.29224" lon="7.42422">
        <ele>179.88</ele>
        <time>2021-06-23T13:24:15Z</time>
      </trkpt>
      <trkpt lat="48.29142" lon="7.42328">
        <ele>182</ele>
        <time>2021-06-23T13:24:21Z</time>
      </trkpt>
      <trkpt lat="48.29131" lon="7.42305">
        <ele>181.7</ele>
        <time>2021-06-23T13:24:27Z</time>
      </trkpt>
      <trkpt lat="48.29128" lon="7.42291">
        <ele>181.27</ele>
        <time>2021-06-23T13:24:31Z</time>
      </trkpt>
      <trkpt lat="48.29122" lon="7.42285">
        <ele>181.1</ele>
        <time>2021-06-23T13:24:34Z</time>
      </trkpt>
      <trkpt lat="48.29112" lon="7.42285">
        <ele>181.01</ele>
        <time>2021-06-23T13:24:37Z</time>
      </trkpt>
      <trkpt lat="48.29094" lon="7.42273">
        <ele>181.69</ele>
        <time>2021-06-23T13:24:41Z</time>
      </trkpt>
      <trkpt lat="48.29084" lon="7.42261">
        <ele>181.99</ele>
        <time>2021-06-23T13:24:44Z</time>
      </trkpt>
      <trkpt lat="48.29068" lon="7.42246">
        <ele>182.15</ele>
        <time>2021-06-23T13:24:47Z</time>
      </trkpt>
      <trkpt lat="48.29048" lon="7.42233">
        <ele>182.73</ele>
        <time>2021-06-23T13:24:51Z</time>
      </trkpt>
      <trkpt lat="48.2898" lon="7.42202">
        <ele>182.29</ele>
        <time>2021-06-23T13:24:54Z</time>
      </trkpt>
      <trkpt lat="48.28927" lon="7.42181">
        <ele>183.61</ele>
        <time>2021-06-23T13:24:57Z</time>
      </trkpt>
      <trkpt lat="48.28906" lon="7.4217">
        <ele>183.96</ele>
        <time>2021-06-23T13:25:01Z</time>
      </trkpt>
      <trkpt lat="48.28816" lon="7.42112">
        <ele>185.62</ele>
        <time>2021-06-23T13:25:04Z</time>
      </trkpt>
      <trkpt lat="48.28771" lon="7.421">
        <ele>185.09</ele>
        <time>2021-06-23T13:25:07Z</time>
      </trkpt>
      <trkpt lat="48.28739" lon="7.42098">
        <ele>185.68</ele>
        <time>2021-06-23T13:25:11Z</time>
      </trkpt>
      <trkpt lat="48.28736" lon="7.4201">
        <ele>187.83</ele>
        <time>2021-06-23T13:25:17Z</time>
      </trkpt>
      <trkpt lat="48.28727" lon="7.41889">
        <ele>188.82</ele>
        <time>2021-06-23T13:25:24Z</time>
      </trkpt>
      <trkpt lat="48.28722" lon="7.41832">
        <ele>187.92</ele>
        <time>2021-06-23T13:25:30Z</time>
      </trkpt>
      <trkpt lat="48.2871" lon="7.41751">
        <ele>187</ele>
        <time>2021-06-23T13:25:37Z</time>
      </trkpt>
      <trkpt lat="48.2871" lon="7.41739">
        <ele>187.18</ele>
        <time>2021-06-23T13:25:43Z</time>
      </trkpt>
      <trkpt lat="48.2873" lon="7.41665">
        <ele>187.01</ele>
        <time>2021-06-23T13:25:50Z</time>
      </trkpt>
      <trkpt lat="48.28742" lon="7.41607">
        <ele>188.05</ele>
        <time>2021-06-23T13:25:56Z</time>
      </trkpt>
      <trkpt lat="48.28795" lon="7.41247">
        <ele>188</ele>
        <time>2021-06-23T13:26:03Z</time>
      </trkpt>
      <trkpt lat="48.28851" lon="7.40904">
        <ele>189.65</ele>
        <time>2021-06-23T13:26:10Z</time>
      </trkpt>
      <trkpt lat="48.28858" lon="7.40855">
        <ele>190.24</ele>
        <time>2021-06-23T13:26:16Z</time>
      </trkpt>
      <trkpt lat="48.28858" lon="7.40832">
        <ele>191</ele>
        <time>2021-06-23T13:26:23Z</time>
      </trkpt>
      <trkpt lat="48.28851" lon="7.40603">
        <ele>189</ele>
        <time>2021-06-23T13:26:29Z</time>
      </trkpt>
      <trkpt lat="48.28849" lon="7.40576">
        <ele>190.05</ele>
        <time>2021-06-23T13:26:36Z</time>
      </trkpt>
      <trkpt lat="48.28843" lon="7.40543">
        <ele>190.35</ele>
        <time>2021-06-23T13:26:42Z</time>
      </trkpt>
      <trkpt lat="48.28793" lon="7.4031">
        <ele>189.84</ele>
        <time>2021-06-23T13:26:49Z</time>
      </trkpt>
      <trkpt lat="48.28788" lon="7.40299">
        <ele>190</ele>
        <time>2021-06-23T13:26:55Z</time>
      </trkpt>
      <trkpt lat="48.28778" lon="7.40284">
        <ele>190</ele>
        <time>2021-06-23T13:27:02Z</time>
      </trkpt>
      <trkpt lat="48.28757" lon="7.40274">
        <ele>190.42</ele>
        <time>2021-06-23T13:27:09Z</time>
      </trkpt>
      <trkpt lat="48.28757" lon="7.40274">
        <ele>190.42</ele>
        <time>2021-06-23T13:27:09Z</time>
      </trkpt>
      <trkpt lat="48.28739" lon="7.40269">
        <ele>190.06</ele>
        <time>2021-06-23T13:27:16Z</time>
      </trkpt>
      <trkpt lat="48.28709" lon="7.40266">
        <ele>189.56</ele>
        <time>2021-06-23T13:27:23Z</time>
      </trkpt>
      <trkpt lat="48.28641" lon="7.4028">
        <ele>191.97</ele>
        <time>2021-06-23T13:27:30Z</time>
      </trkpt>
      <trkpt lat="48.28548" lon="7.40281">
        <ele>188.84</ele>
        <time>2021-06-23T13:27:37Z</time>
      </trkpt>
      <trkpt lat="48.28246" lon="7.40245">
        <ele>192.11</ele>
        <time>2021-06-23T13:27:44Z</time>
      </trkpt>
      <trkpt lat="48.27963" lon="7.40208">
        <ele>190.49</ele>
        <time>2021-06-23T13:27:51Z</time>
      </trkpt>
      <trkpt lat="48.27898" lon="7.40205">
        <ele>192.26</ele>
        <time>2021-06-23T13:27:58Z</time>
      </trkpt>
      <trkpt lat="48.27847" lon="7.40192">
        <ele>192.92</ele>
        <time>2021-06-23T13:28:05Z</time>
      </trkpt>
      <trkpt lat="48.27787" lon="7.40173">
        <ele>192</ele>
        <time>2021-06-23T13:28:13Z</time>
      </trkpt>
      <trkpt lat="48.27756" lon="7.4016">
        <ele>192</ele>
        <time>2021-06-23T13:28:20Z</time>
      </trkpt>
      <trkpt lat="48.27661" lon="7.40103">
        <ele>190.24</ele>
        <time>2021-06-23T13:28:27Z</time>
      </trkpt>
      <trkpt lat="48.27658" lon="7.40096">
        <ele>190.37</ele>
        <time>2021-06-23T13:28:34Z</time>
      </trkpt>
      <trkpt lat="48.27649" lon="7.40087">
        <ele>190.31</ele>
        <time>2021-06-23T13:28:41Z</time>
      </trkpt>
      <trkpt lat="48.27644" lon="7.40078">
        <ele>190.53</ele>
        <time>2021-06-23T13:28:48Z</time>
      </trkpt>
      <trkpt lat="48.2764" lon="7.40067">
        <ele>191.17</ele>
        <time>2021-06-23T13:28:53Z</time>
      </trkpt>
      <trkpt lat="48.27632" lon="7.40062">
        <ele>191.41</ele>
        <time>2021-06-23T13:28:59Z</time>
      </trkpt>
      <trkpt lat="48.27626" lon="7.40063">
        <ele>191.24</ele>
        <time>2021-06-23T13:29:04Z</time>
      </trkpt>
      <trkpt lat="48.27622" lon="7.40067">
        <ele>191.08</ele>
        <time>2021-06-23T13:29:09Z</time>
      </trkpt>
      <trkpt lat="48.27596" lon="7.40054">
        <ele>191</ele>
        <time>2021-06-23T13:29:15Z</time>
      </trkpt>
      <trkpt lat="48.27579" lon="7.40039">
        <ele>191</ele>
        <time>2021-06-23T13:29:20Z</time>
      </trkpt>
      <trkpt lat="48.27524" lon="7.39983">
        <ele>189.86</ele>
        <time>2021-06-23T13:29:25Z</time>
      </trkpt>
      <trkpt lat="48.2751" lon="7.39974">
        <ele>189.37</ele>
        <time>2021-06-23T13:29:31Z</time>
      </trkpt>
      <trkpt lat="48.27495" lon="7.39966">
        <ele>188.85</ele>
        <time>2021-06-23T13:29:36Z</time>
      </trkpt>
      <trkpt lat="48.27381" lon="7.39931">
        <ele>193</ele>
        <time>2021-06-23T13:29:42Z</time>
      </trkpt>
      <trkpt lat="48.27322" lon="7.39906">
        <ele>192.22</ele>
        <time>2021-06-23T13:29:47Z</time>
      </trkpt>
      <trkpt lat="48.273" lon="7.39904">
        <ele>191.52</ele>
        <time>2021-06-23T13:29:52Z</time>
      </trkpt>
      <trkpt lat="48.27167" lon="7.39921">
        <ele>190</ele>
        <time>2021-06-23T13:29:58Z</time>
      </trkpt>
      <trkpt lat="48.27032" lon="7.3996">
        <ele>191.46</ele>
        <time>2021-06-23T13:30:03Z</time>
      </trkpt>
      <trkpt lat="48.26988" lon="7.39982">
        <ele>191.57</ele>
        <time>2021-06-23T13:30:08Z</time>
      </trkpt>
      <trkpt lat="48.26978" lon="7.39985">
        <ele>191.21</ele>
        <time>2021-06-23T13:30:14Z</time>
      </trkpt>
      <trkpt lat="48.26888" lon="7.39994">
        <ele>187.98</ele>
        <time>2021-06-23T13:30:19Z</time>
      </trkpt>
      <trkpt lat="48.26875" lon="7.39992">
        <ele>187.65</ele>
        <time>2021-06-23T13:30:24Z</time>
      </trkpt>
      <trkpt lat="48.26845" lon="7.39983">
        <ele>188.17</ele>
        <time>2021-06-23T13:30:30Z</time>
      </trkpt>
      <trkpt lat="48.26831" lon="7.39974">
        <ele>189.12</ele>
        <time>2021-06-23T13:30:35Z</time>
      </trkpt>
      <trkpt lat="48.26782" lon="7.39921">
        <ele>190.99</ele>
        <time>2021-06-23T13:30:40Z</time>
      </trkpt>
      <trkpt lat="48.26758" lon="7.39902">
        <ele>193.13</ele>
        <time>2021-06-23T13:30:46Z</time>
      </trkpt>
      <trkpt lat="48.26737" lon="7.39888">
        <ele>195.05</ele>
        <time>2021-06-23T13:30:51Z</time>
      </trkpt>
      <trkpt lat="48.26722" lon="7.39882">
        <ele>195.76</ele>
        <time>2021-06-23T13:30:56Z</time>
      </trkpt>
      <trkpt lat="48.26708" lon="7.39881">
        <ele>196.09</ele>
        <time>2021-06-23T13:31:02Z</time>
      </trkpt>
      <trkpt lat="48.26637" lon="7.39899">
        <ele>199.15</ele>
        <time>2021-06-23T13:31:07Z</time>
      </trkpt>
      <trkpt lat="48.26604" lon="7.39909">
        <ele>200.88</ele>
        <time>2021-06-23T13:31:12Z</time>
      </trkpt>
      <trkpt lat="48.26452" lon="7.39973">
        <ele>200.71</ele>
        <time>2021-06-23T13:31:18Z</time>
      </trkpt>
      <trkpt lat="48.26417" lon="7.39969">
        <ele>201.1</ele>
        <time>2021-06-23T13:31:23Z</time>
      </trkpt>
      <trkpt lat="48.26374" lon="7.39957">
        <ele>203.59</ele>
        <time>2021-06-23T13:31:29Z</time>
      </trkpt>
      <trkpt lat="48.26346" lon="7.39946">
        <ele>205.48</ele>
        <time>2021-06-23T13:31:34Z</time>
      </trkpt>
      <trkpt lat="48.26259" lon="7.39909">
        <ele>207.76</ele>
        <time>2021-06-23T13:31:39Z</time>
      </trkpt>
      <trkpt lat="48.26158" lon="7.39887">
        <ele>207.92</ele>
        <time>2021-06-23T13:31:45Z</time>
      </trkpt>
      <trkpt lat="48.26096" lon="7.39868">
        <ele>206.56</ele>
        <time>2021-06-23T13:31:50Z</time>
      </trkpt>
      <trkpt lat="48.25955" lon="7.39808">
        <ele>204.3</ele>
        <time>2021-06-23T13:31:55Z</time>
      </trkpt>
      <trkpt lat="48.25866" lon="7.39775">
        <ele>204.02</ele>
        <time>2021-06-23T13:32:01Z</time>
      </trkpt>
      <trkpt lat="48.25833" lon="7.39751">
        <ele>204.01</ele>
        <time>2021-06-23T13:32:06Z</time>
      </trkpt>
      <trkpt lat="48.25758" lon="7.39681">
        <ele>208.63</ele>
        <time>2021-06-23T13:32:11Z</time>
      </trkpt>
      <trkpt lat="48.25732" lon="7.39666">
        <ele>207.76</ele>
        <time>2021-06-23T13:32:17Z</time>
      </trkpt>
      <trkpt lat="48.2565" lon="7.39627">
        <ele>205.07</ele>
        <time>2021-06-23T13:32:22Z</time>
      </trkpt>
      <trkpt lat="48.25578" lon="7.39577">
        <ele>206.41</ele>
        <time>2021-06-23T13:32:27Z</time>
      </trkpt>
      <trkpt lat="48.25526" lon="7.39538">
        <ele>208.92</ele>
        <time>2021-06-23T13:32:33Z</time>
      </trkpt>
      <trkpt lat="48.25513" lon="7.39523">
        <ele>208.73</ele>
        <time>2021-06-23T13:32:38Z</time>
      </trkpt>
      <trkpt lat="48.25516" lon="7.39518">
        <ele>209.97</ele>
        <time>2021-06-23T13:32:39Z</time>
      </trkpt>
      <trkpt lat="48.25516" lon="7.39518">
        <ele>209.97</ele>
        <time>2021-06-23T13:32:39Z</time>
      </trkpt>
      <trkpt lat="48.25531" lon="7.39491">
        <ele>211.2</ele>
        <time>2021-06-23T13:32:41Z</time>
      </trkpt>
      <trkpt lat="48.25599" lon="7.39348">
        <ele>217.03</ele>
        <time>2021-06-23T13:32:43Z</time>
      </trkpt>
      <trkpt lat="48.25619" lon="7.39295">
        <ele>219</ele>
        <time>2021-06-23T13:32:45Z</time>
      </trkpt>
      <trkpt lat="48.2564" lon="7.39222">
        <ele>219.08</ele>
        <time>2021-06-23T13:32:48Z</time>
      </trkpt>
      <trkpt lat="48.25639" lon="7.39187">
        <ele>221.55</ele>
        <time>2021-06-23T13:32:50Z</time>
      </trkpt>
      <trkpt lat="48.25628" lon="7.39055">
        <ele>227.41</ele>
        <time>2021-06-23T13:32:52Z</time>
      </trkpt>
      <trkpt lat="48.25627" lon="7.39004">
        <ele>230.97</ele>
        <time>2021-06-23T13:32:55Z</time>
      </trkpt>
      <trkpt lat="48.2562" lon="7.38981">
        <ele>233.05</ele>
        <time>2021-06-23T13:32:57Z</time>
      </trkpt>
      <trkpt lat="48.25615" lon="7.38972">
        <ele>233.93</ele>
        <time>2021-06-23T13:32:59Z</time>
      </trkpt>
      <trkpt lat="48.25608" lon="7.38965">
        <ele>234.8</ele>
        <time>2021-06-23T13:33:01Z</time>
      </trkpt>
      <trkpt lat="48.25574" lon="7.38948">
        <ele>235.72</ele>
        <time>2021-06-23T13:33:04Z</time>
      </trkpt>
      <trkpt lat="48.25551" lon="7.38931">
        <ele>237.58</ele>
        <time>2021-06-23T13:33:06Z</time>
      </trkpt>
      <trkpt lat="48.25521" lon="7.38894">
        <ele>238.24</ele>
        <time>2021-06-23T13:33:08Z</time>
      </trkpt>
      <trkpt lat="48.25499" lon="7.38858">
        <ele>239.62</ele>
        <time>2021-06-23T13:33:10Z</time>
      </trkpt>
      <trkpt lat="48.25483" lon="7.38817">
        <ele>247.25</ele>
        <time>2021-06-23T13:33:13Z</time>
      </trkpt>
      <trkpt lat="48.25476" lon="7.38778">
        <ele>254.07</ele>
        <time>2021-06-23T13:33:15Z</time>
      </trkpt>
      <trkpt lat="48.25476" lon="7.38725">
        <ele>262.42</ele>
        <time>2021-06-23T13:33:17Z</time>
      </trkpt>
      <trkpt lat="48.25488" lon="7.38639">
        <ele>270.99</ele>
        <time>2021-06-23T13:33:19Z</time>
      </trkpt>
      <trkpt lat="48.2551" lon="7.38543">
        <ele>274.53</ele>
        <time>2021-06-23T13:33:22Z</time>
      </trkpt>
      <trkpt lat="48.25528" lon="7.38491">
        <ele>277.79</ele>
        <time>2021-06-23T13:33:24Z</time>
      </trkpt>
      <trkpt lat="48.25531" lon="7.38471">
        <ele>277.77</ele>
        <time>2021-06-23T13:33:26Z</time>
      </trkpt>
      <trkpt lat="48.25527" lon="7.38457">
        <ele>276.5</ele>
        <time>2021-06-23T13:33:28Z</time>
      </trkpt>
      <trkpt lat="48.25518" lon="7.38451">
        <ele>276.94</ele>
        <time>2021-06-23T13:33:31Z</time>
      </trkpt>
      <trkpt lat="48.25509" lon="7.38451">
        <ele>277.67</ele>
        <time>2021-06-23T13:33:33Z</time>
      </trkpt>
      <trkpt lat="48.255" lon="7.38457">
        <ele>277.74</ele>
        <time>2021-06-23T13:33:35Z</time>
      </trkpt>
      <trkpt lat="48.25467" lon="7.3851">
        <ele>279.88</ele>
        <time>2021-06-23T13:33:38Z</time>
      </trkpt>
      <trkpt lat="48.25455" lon="7.38535">
        <ele>280.22</ele>
        <time>2021-06-23T13:33:40Z</time>
      </trkpt>
      <trkpt lat="48.25443" lon="7.38578">
        <ele>278.2</ele>
        <time>2021-06-23T13:33:42Z</time>
      </trkpt>
      <trkpt lat="48.25435" lon="7.3859">
        <ele>281.11</ele>
        <time>2021-06-23T13:33:44Z</time>
      </trkpt>
      <trkpt lat="48.25426" lon="7.38594">
        <ele>285.27</ele>
        <time>2021-06-23T13:33:47Z</time>
      </trkpt>
      <trkpt lat="48.25417" lon="7.38589">
        <ele>290.08</ele>
        <time>2021-06-23T13:33:49Z</time>
      </trkpt>
      <trkpt lat="48.25414" lon="7.38581">
        <ele>292.69</ele>
        <time>2021-06-23T13:33:51Z</time>
      </trkpt>
      <trkpt lat="48.25416" lon="7.38564">
        <ele>293.38</ele>
        <time>2021-06-23T13:33:53Z</time>
      </trkpt>
      <trkpt lat="48.25462" lon="7.38448">
        <ele>292.48</ele>
        <time>2021-06-23T13:33:56Z</time>
      </trkpt>
      <trkpt lat="48.25477" lon="7.384">
        <ele>292.85</ele>
        <time>2021-06-23T13:33:58Z</time>
      </trkpt>
      <trkpt lat="48.2548" lon="7.38374">
        <ele>296.1</ele>
        <time>2021-06-23T13:34:00Z</time>
      </trkpt>
      <trkpt lat="48.25481" lon="7.3833">
        <ele>304.52</ele>
        <time>2021-06-23T13:34:02Z</time>
      </trkpt>
      <trkpt lat="48.25484" lon="7.38305">
        <ele>305.43</ele>
        <time>2021-06-23T13:34:05Z</time>
      </trkpt>
      <trkpt lat="48.25502" lon="7.38239">
        <ele>307.08</ele>
        <time>2021-06-23T13:34:07Z</time>
      </trkpt>
      <trkpt lat="48.25522" lon="7.3818">
        <ele>304.93</ele>
        <time>2021-06-23T13:34:09Z</time>
      </trkpt>
      <trkpt lat="48.2553" lon="7.38142">
        <ele>305.39</ele>
        <time>2021-06-23T13:34:12Z</time>
      </trkpt>
      <trkpt lat="48.25541" lon="7.38018">
        <ele>316.77</ele>
        <time>2021-06-23T13:34:14Z</time>
      </trkpt>
      <trkpt lat="48.25557" lon="7.3793">
        <ele>315.37</ele>
        <time>2021-06-23T13:34:16Z</time>
      </trkpt>
      <trkpt lat="48.25573" lon="7.37874">
        <ele>320.42</ele>
        <time>2021-06-23T13:34:18Z</time>
      </trkpt>
      <trkpt lat="48.25588" lon="7.37848">
        <ele>320.5</ele>
        <time>2021-06-23T13:34:21Z</time>
      </trkpt>
      <trkpt lat="48.25607" lon="7.37828">
        <ele>321.39</ele>
        <time>2021-06-23T13:34:23Z</time>
      </trkpt>
      <trkpt lat="48.25621" lon="7.37808">
        <ele>324.69</ele>
        <time>2021-06-23T13:34:25Z</time>
      </trkpt>
      <trkpt lat="48.25634" lon="7.37778">
        <ele>330.95</ele>
        <time>2021-06-23T13:34:27Z</time>
      </trkpt>
      <trkpt lat="48.25655" lon="7.37708">
        <ele>339.43</ele>
        <time>2021-06-23T13:34:30Z</time>
      </trkpt>
      <trkpt lat="48.25663" lon="7.37665">
        <ele>342.29</ele>
        <time>2021-06-23T13:34:32Z</time>
      </trkpt>
      <trkpt lat="48.25673" lon="7.37638">
        <ele>341.5</ele>
        <time>2021-06-23T13:34:34Z</time>
      </trkpt>
      <trkpt lat="48.25679" lon="7.37629">
        <ele>340.39</ele>
        <time>2021-06-23T13:34:36Z</time>
      </trkpt>
      <trkpt lat="48.25685" lon="7.37627">
        <ele>339.11</ele>
        <time>2021-06-23T13:34:39Z</time>
      </trkpt>
      <trkpt lat="48.25691" lon="7.37626">
        <ele>337.34</ele>
        <time>2021-06-23T13:34:41Z</time>
      </trkpt>
      <trkpt lat="48.25698" lon="7.3763">
        <ele>336.36</ele>
        <time>2021-06-23T13:34:43Z</time>
      </trkpt>
      <trkpt lat="48.25703" lon="7.37638">
        <ele>336.32</ele>
        <time>2021-06-23T13:34:45Z</time>
      </trkpt>
      <trkpt lat="48.25708" lon="7.37657">
        <ele>335.81</ele>
        <time>2021-06-23T13:34:48Z</time>
      </trkpt>
      <trkpt lat="48.25711" lon="7.37687">
        <ele>333.7</ele>
        <time>2021-06-23T13:34:50Z</time>
      </trkpt>
      <trkpt lat="48.25713" lon="7.37716">
        <ele>331.98</ele>
        <time>2021-06-23T13:34:52Z</time>
      </trkpt>
      <trkpt lat="48.25713" lon="7.37843">
        <ele>337.44</ele>
        <time>2021-06-23T13:34:55Z</time>
      </trkpt>
      <trkpt lat="48.25708" lon="7.37878">
        <ele>337.16</ele>
        <time>2021-06-23T13:34:57Z</time>
      </trkpt>
      <trkpt lat="48.2569" lon="7.37931">
        <ele>334.81</ele>
        <time>2021-06-23T13:34:59Z</time>
      </trkpt>
      <trkpt lat="48.25689" lon="7.3795">
        <ele>335.91</ele>
        <time>2021-06-23T13:35:01Z</time>
      </trkpt>
      <trkpt lat="48.25693" lon="7.37958">
        <ele>336.99</ele>
        <time>2021-06-23T13:35:04Z</time>
      </trkpt>
      <trkpt lat="48.25699" lon="7.37964">
        <ele>338.38</ele>
        <time>2021-06-23T13:35:06Z</time>
      </trkpt>
      <trkpt lat="48.25707" lon="7.37964">
        <ele>339.4</ele>
        <time>2021-06-23T13:35:08Z</time>
      </trkpt>
      <trkpt lat="48.25713" lon="7.3796">
        <ele>340.5</ele>
        <time>2021-06-23T13:35:10Z</time>
      </trkpt>
      <trkpt lat="48.2572" lon="7.37951">
        <ele>342.11</ele>
        <time>2021-06-23T13:35:13Z</time>
      </trkpt>
      <trkpt lat="48.25726" lon="7.37933">
        <ele>343.4</ele>
        <time>2021-06-23T13:35:15Z</time>
      </trkpt>
      <trkpt lat="48.25747" lon="7.37853">
        <ele>346.22</ele>
        <time>2021-06-23T13:35:17Z</time>
      </trkpt>
      <trkpt lat="48.25769" lon="7.37745">
        <ele>351.2</ele>
        <time>2021-06-23T13:35:19Z</time>
      </trkpt>
      <trkpt lat="48.25779" lon="7.37715">
        <ele>352.53</ele>
        <time>2021-06-23T13:35:22Z</time>
      </trkpt>
      <trkpt lat="48.25795" lon="7.37683">
        <ele>353.91</ele>
        <time>2021-06-23T13:35:24Z</time>
      </trkpt>
      <trkpt lat="48.25821" lon="7.37652">
        <ele>358.57</ele>
        <time>2021-06-23T13:35:26Z</time>
      </trkpt>
      <trkpt lat="48.25827" lon="7.3764">
        <ele>359.9</ele>
        <time>2021-06-23T13:35:28Z</time>
      </trkpt>
      <trkpt lat="48.2583" lon="7.37628">
        <ele>361.28</ele>
        <time>2021-06-23T13:35:31Z</time>
      </trkpt>
      <trkpt lat="48.25831" lon="7.37616">
        <ele>361.79</ele>
        <time>2021-06-23T13:35:33Z</time>
      </trkpt>
      <trkpt lat="48.25815" lon="7.3753">
        <ele>364.45</ele>
        <time>2021-06-23T13:35:35Z</time>
      </trkpt>
      <trkpt lat="48.25791" lon="7.3733">
        <ele>370.79</ele>
        <time>2021-06-23T13:35:38Z</time>
      </trkpt>
      <trkpt lat="48.25764" lon="7.3705">
        <ele>389.49</ele>
        <time>2021-06-23T13:35:40Z</time>
      </trkpt>
      <trkpt lat="48.25754" lon="7.37011">
        <ele>389.14</ele>
        <time>2021-06-23T13:35:42Z</time>
      </trkpt>
      <trkpt lat="48.2574" lon="7.36979">
        <ele>390.63</ele>
        <time>2021-06-23T13:35:44Z</time>
      </trkpt>
      <trkpt lat="48.25629" lon="7.36839">
        <ele>396.57</ele>
        <time>2021-06-23T13:35:47Z</time>
      </trkpt>
      <trkpt lat="48.25489" lon="7.36645">
        <ele>408.99</ele>
        <time>2021-06-23T13:35:49Z</time>
      </trkpt>
      <trkpt lat="48.25478" lon="7.36624">
        <ele>409.44</ele>
        <time>2021-06-23T13:35:51Z</time>
      </trkpt>
      <trkpt lat="48.2526" lon="7.36105">
        <ele>438.3</ele>
        <time>2021-06-23T13:35:53Z</time>
      </trkpt>
      <trkpt lat="48.25248" lon="7.36081">
        <ele>439.33</ele>
        <time>2021-06-23T13:35:56Z</time>
      </trkpt>
      <trkpt lat="48.25175" lon="7.35963">
        <ele>446.43</ele>
        <time>2021-06-23T13:35:58Z</time>
      </trkpt>
      <trkpt lat="48.2511" lon="7.35853">
        <ele>444.95</ele>
        <time>2021-06-23T13:36:00Z</time>
      </trkpt>
      <trkpt lat="48.25094" lon="7.35816">
        <ele>445.17</ele>
        <time>2021-06-23T13:36:02Z</time>
      </trkpt>
      <trkpt lat="48.25072" lon="7.35737">
        <ele>450.04</ele>
        <time>2021-06-23T13:36:05Z</time>
      </trkpt>
      <trkpt lat="48.25062" lon="7.35715">
        <ele>449.35</ele>
        <time>2021-06-23T13:36:07Z</time>
      </trkpt>
      <trkpt lat="48.25052" lon="7.35699">
        <ele>449.08</ele>
        <time>2021-06-23T13:36:09Z</time>
      </trkpt>
      <trkpt lat="48.2504" lon="7.35686">
        <ele>449.04</ele>
        <time>2021-06-23T13:36:11Z</time>
      </trkpt>
      <trkpt lat="48.24976" lon="7.35637">
        <ele>457.76</ele>
        <time>2021-06-23T13:36:14Z</time>
      </trkpt>
      <trkpt lat="48.24956" lon="7.3563">
        <ele>460.75</ele>
        <time>2021-06-23T13:36:16Z</time>
      </trkpt>
      <trkpt lat="48.24932" lon="7.35639">
        <ele>463.68</ele>
        <time>2021-06-23T13:36:18Z</time>
      </trkpt>
      <trkpt lat="48.24918" lon="7.35662">
        <ele>465.89</ele>
        <time>2021-06-23T13:36:21Z</time>
      </trkpt>
      <trkpt lat="48.24878" lon="7.35812">
        <ele>470.61</ele>
        <time>2021-06-23T13:36:23Z</time>
      </trkpt>
      <trkpt lat="48.24874" lon="7.35819">
        <ele>470.95</ele>
        <time>2021-06-23T13:36:25Z</time>
      </trkpt>
      <trkpt lat="48.24866" lon="7.35827">
        <ele>472.51</ele>
        <time>2021-06-23T13:36:27Z</time>
      </trkpt>
      <trkpt lat="48.24856" lon="7.35827">
        <ele>475.18</ele>
        <time>2021-06-23T13:36:30Z</time>
      </trkpt>
      <trkpt lat="48.24851" lon="7.35823">
        <ele>477.47</ele>
        <time>2021-06-23T13:36:32Z</time>
      </trkpt>
      <trkpt lat="48.24845" lon="7.35809">
        <ele>480.71</ele>
        <time>2021-06-23T13:36:34Z</time>
      </trkpt>
      <trkpt lat="48.24845" lon="7.35803">
        <ele>481.71</ele>
        <time>2021-06-23T13:36:36Z</time>
      </trkpt>
      <trkpt lat="48.24846" lon="7.35793">
        <ele>482.48</ele>
        <time>2021-06-23T13:36:39Z</time>
      </trkpt>
      <trkpt lat="48.24851" lon="7.35781">
        <ele>482.25</ele>
        <time>2021-06-23T13:36:41Z</time>
      </trkpt>
      <trkpt lat="48.24871" lon="7.35713">
        <ele>480.41</ele>
        <time>2021-06-23T13:36:43Z</time>
      </trkpt>
      <trkpt lat="48.24874" lon="7.35693">
        <ele>480.72</ele>
        <time>2021-06-23T13:36:45Z</time>
      </trkpt>
      <trkpt lat="48.24878" lon="7.3565">
        <ele>480.17</ele>
        <time>2021-06-23T13:36:48Z</time>
      </trkpt>
      <trkpt lat="48.24878" lon="7.35599">
        <ele>481.63</ele>
        <time>2021-06-23T13:36:50Z</time>
      </trkpt>
      <trkpt lat="48.24861" lon="7.35436">
        <ele>485.63</ele>
        <time>2021-06-23T13:36:52Z</time>
      </trkpt>
      <trkpt lat="48.24859" lon="7.35399">
        <ele>489.57</ele>
        <time>2021-06-23T13:36:55Z</time>
      </trkpt>
      <trkpt lat="48.24863" lon="7.35341">
        <ele>495.41</ele>
        <time>2021-06-23T13:36:57Z</time>
      </trkpt>
      <trkpt lat="48.24862" lon="7.35281">
        <ele>495.64</ele>
        <time>2021-06-23T13:36:59Z</time>
      </trkpt>
      <trkpt lat="48.24857" lon="7.35167">
        <ele>509.63</ele>
        <time>2021-06-23T13:37:01Z</time>
      </trkpt>
      <trkpt lat="48.24858" lon="7.35147">
        <ele>510.34</ele>
        <time>2021-06-23T13:37:04Z</time>
      </trkpt>
      <trkpt lat="48.2486" lon="7.35141">
        <ele>510.2</ele>
        <time>2021-06-23T13:37:06Z</time>
      </trkpt>
      <trkpt lat="48.24866" lon="7.35133">
        <ele>511.07</ele>
        <time>2021-06-23T13:37:08Z</time>
      </trkpt>
      <trkpt lat="48.24879" lon="7.35125">
        <ele>511.53</ele>
        <time>2021-06-23T13:37:10Z</time>
      </trkpt>
      <trkpt lat="48.24954" lon="7.35106">
        <ele>519.26</ele>
        <time>2021-06-23T13:37:13Z</time>
      </trkpt>
      <trkpt lat="48.24969" lon="7.35098">
        <ele>521.63</ele>
        <time>2021-06-23T13:37:15Z</time>
      </trkpt>
      <trkpt lat="48.25015" lon="7.35058">
        <ele>527.51</ele>
        <time>2021-06-23T13:37:17Z</time>
      </trkpt>
      <trkpt lat="48.25039" lon="7.35047">
        <ele>528.02</ele>
        <time>2021-06-23T13:37:19Z</time>
      </trkpt>
      <trkpt lat="48.25071" lon="7.35038">
        <ele>525.81</ele>
        <time>2021-06-23T13:37:22Z</time>
      </trkpt>
      <trkpt lat="48.25077" lon="7.35034">
        <ele>525.58</ele>
        <time>2021-06-23T13:37:24Z</time>
      </trkpt>
      <trkpt lat="48.25083" lon="7.35028">
        <ele>525.97</ele>
        <time>2021-06-23T13:37:26Z</time>
      </trkpt>
      <trkpt lat="48.25088" lon="7.35017">
        <ele>527.09</ele>
        <time>2021-06-23T13:37:28Z</time>
      </trkpt>
      <trkpt lat="48.25088" lon="7.35004">
        <ele>529.62</ele>
        <time>2021-06-23T13:37:31Z</time>
      </trkpt>
      <trkpt lat="48.25085" lon="7.34995">
        <ele>532.1</ele>
        <time>2021-06-23T13:37:33Z</time>
      </trkpt>
      <trkpt lat="48.25077" lon="7.3499">
        <ele>536.24</ele>
        <time>2021-06-23T13:37:35Z</time>
      </trkpt>
      <trkpt lat="48.25068" lon="7.3499">
        <ele>539.33</ele>
        <time>2021-06-23T13:37:38Z</time>
      </trkpt>
      <trkpt lat="48.25063" lon="7.34993">
        <ele>540.06</ele>
        <time>2021-06-23T13:37:40Z</time>
      </trkpt>
      <trkpt lat="48.25055" lon="7.35005">
        <ele>539.06</ele>
        <time>2021-06-23T13:37:42Z</time>
      </trkpt>
      <trkpt lat="48.25043" lon="7.35017">
        <ele>535.61</ele>
        <time>2021-06-23T13:37:44Z</time>
      </trkpt>
      <trkpt lat="48.25035" lon="7.35022">
        <ele>534.53</ele>
        <time>2021-06-23T13:37:47Z</time>
      </trkpt>
      <trkpt lat="48.24981" lon="7.35042">
        <ele>535.24</ele>
        <time>2021-06-23T13:37:49Z</time>
      </trkpt>
      <trkpt lat="48.24966" lon="7.35044">
        <ele>536.78</ele>
        <time>2021-06-23T13:37:51Z</time>
      </trkpt>
      <trkpt lat="48.24942" lon="7.35039">
        <ele>539.9</ele>
        <time>2021-06-23T13:37:53Z</time>
      </trkpt>
      <trkpt lat="48.24899" lon="7.35049">
        <ele>534.3</ele>
        <time>2021-06-23T13:37:56Z</time>
      </trkpt>
      <trkpt lat="48.24891" lon="7.35046">
        <ele>535.36</ele>
        <time>2021-06-23T13:37:58Z</time>
      </trkpt>
      <trkpt lat="48.24879" lon="7.35037">
        <ele>539.87</ele>
        <time>2021-06-23T13:38:00Z</time>
      </trkpt>
      <trkpt lat="48.24858" lon="7.35014">
        <ele>547.85</ele>
        <time>2021-06-23T13:38:02Z</time>
      </trkpt>
      <trkpt lat="48.24834" lon="7.35006">
        <ele>545.44</ele>
        <time>2021-06-23T13:38:05Z</time>
      </trkpt>
      <trkpt lat="48.2482" lon="7.34996">
        <ele>544.49</ele>
        <time>2021-06-23T13:38:07Z</time>
      </trkpt>
      <trkpt lat="48.24805" lon="7.34972">
        <ele>546.87</ele>
        <time>2021-06-23T13:38:09Z</time>
      </trkpt>
      <trkpt lat="48.24737" lon="7.34821">
        <ele>561.71</ele>
        <time>2021-06-23T13:38:11Z</time>
      </trkpt>
      <trkpt lat="48.24704" lon="7.34757">
        <ele>560.95</ele>
        <time>2021-06-23T13:38:14Z</time>
      </trkpt>
      <trkpt lat="48.24685" lon="7.34724">
        <ele>560</ele>
        <time>2021-06-23T13:38:16Z</time>
      </trkpt>
      <trkpt lat="48.24677" lon="7.34702">
        <ele>560.32</ele>
        <time>2021-06-23T13:38:18Z</time>
      </trkpt>
      <trkpt lat="48.24672" lon="7.3466">
        <ele>563.01</ele>
        <time>2021-06-23T13:38:21Z</time>
      </trkpt>
      <trkpt lat="48.24669" lon="7.34569">
        <ele>571.09</ele>
        <time>2021-06-23T13:38:23Z</time>
      </trkpt>
      <trkpt lat="48.24664" lon="7.34478">
        <ele>577.55</ele>
        <time>2021-06-23T13:38:25Z</time>
      </trkpt>
      <trkpt lat="48.24662" lon="7.34402">
        <ele>583.16</ele>
        <time>2021-06-23T13:38:27Z</time>
      </trkpt>
      <trkpt lat="48.24663" lon="7.34324">
        <ele>591.01</ele>
        <time>2021-06-23T13:38:30Z</time>
      </trkpt>
      <trkpt lat="48.24656" lon="7.34216">
        <ele>592.94</ele>
        <time>2021-06-23T13:38:32Z</time>
      </trkpt>
      <trkpt lat="48.24667" lon="7.34055">
        <ele>599.22</ele>
        <time>2021-06-23T13:38:34Z</time>
      </trkpt>
      <trkpt lat="48.24669" lon="7.33972">
        <ele>600.27</ele>
        <time>2021-06-23T13:38:36Z</time>
      </trkpt>
      <trkpt lat="48.24677" lon="7.33873">
        <ele>608.71</ele>
        <time>2021-06-23T13:38:39Z</time>
      </trkpt>
      <trkpt lat="48.2468" lon="7.33762">
        <ele>617.32</ele>
        <time>2021-06-23T13:38:41Z</time>
      </trkpt>
      <trkpt lat="48.24678" lon="7.33648">
        <ele>621.02</ele>
        <time>2021-06-23T13:38:43Z</time>
      </trkpt>
      <trkpt lat="48.24682" lon="7.33578">
        <ele>621.03</ele>
        <time>2021-06-23T13:38:45Z</time>
      </trkpt>
      <trkpt lat="48.24682" lon="7.33506">
        <ele>621.72</ele>
        <time>2021-06-23T13:38:48Z</time>
      </trkpt>
      <trkpt lat="48.24686" lon="7.33452">
        <ele>627.87</ele>
        <time>2021-06-23T13:38:50Z</time>
      </trkpt>
      <trkpt lat="48.24696" lon="7.3339">
        <ele>631.73</ele>
        <time>2021-06-23T13:38:52Z</time>
      </trkpt>
      <trkpt lat="48.24702" lon="7.3337">
        <ele>632.17</ele>
        <time>2021-06-23T13:38:55Z</time>
      </trkpt>
      <trkpt lat="48.24712" lon="7.33352">
        <ele>633.7</ele>
        <time>2021-06-23T13:38:57Z</time>
      </trkpt>
      <trkpt lat="48.24721" lon="7.33343">
        <ele>635.07</ele>
        <time>2021-06-23T13:38:59Z</time>
      </trkpt>
      <trkpt lat="48.24727" lon="7.3334">
        <ele>635.65</ele>
        <time>2021-06-23T13:39:01Z</time>
      </trkpt>
      <trkpt lat="48.24735" lon="7.3334">
        <ele>636.68</ele>
        <time>2021-06-23T13:39:04Z</time>
      </trkpt>
      <trkpt lat="48.2476" lon="7.33355">
        <ele>642.32</ele>
        <time>2021-06-23T13:39:06Z</time>
      </trkpt>
      <trkpt lat="48.24842" lon="7.33443">
        <ele>652.28</ele>
        <time>2021-06-23T13:39:08Z</time>
      </trkpt>
      <trkpt lat="48.24852" lon="7.33459">
        <ele>652.92</ele>
        <time>2021-06-23T13:39:10Z</time>
      </trkpt>
      <trkpt lat="48.24853" lon="7.33476">
        <ele>654.43</ele>
        <time>2021-06-23T13:39:13Z</time>
      </trkpt>
      <trkpt lat="48.2485" lon="7.33486">
        <ele>655.45</ele>
        <time>2021-06-23T13:39:15Z</time>
      </trkpt>
      <trkpt lat="48.24846" lon="7.33489">
        <ele>655.83</ele>
        <time>2021-06-23T13:39:17Z</time>
      </trkpt>
      <trkpt lat="48.24842" lon="7.33492">
        <ele>656.1</ele>
        <time>2021-06-23T13:39:19Z</time>
      </trkpt>
      <trkpt lat="48.24803" lon="7.33487">
        <ele>656.45</ele>
        <time>2021-06-23T13:39:22Z</time>
      </trkpt>
      <trkpt lat="48.24788" lon="7.33488">
        <ele>656.01</ele>
        <time>2021-06-23T13:39:24Z</time>
      </trkpt>
      <trkpt lat="48.24779" lon="7.33493">
        <ele>655.81</ele>
        <time>2021-06-23T13:39:26Z</time>
      </trkpt>
      <trkpt lat="48.24771" lon="7.33499">
        <ele>654.61</ele>
        <time>2021-06-23T13:39:28Z</time>
      </trkpt>
      <trkpt lat="48.24766" lon="7.33508">
        <ele>653.91</ele>
        <time>2021-06-23T13:39:31Z</time>
      </trkpt>
      <trkpt lat="48.24763" lon="7.33524">
        <ele>654</ele>
        <time>2021-06-23T13:39:33Z</time>
      </trkpt>
      <trkpt lat="48.24761" lon="7.3356">
        <ele>655.95</ele>
        <time>2021-06-23T13:39:35Z</time>
      </trkpt>
      <trkpt lat="48.24765" lon="7.33648">
        <ele>661.22</ele>
        <time>2021-06-23T13:39:38Z</time>
      </trkpt>
      <trkpt lat="48.24773" lon="7.33718">
        <ele>668.91</ele>
        <time>2021-06-23T13:39:40Z</time>
      </trkpt>
      <trkpt lat="48.2479" lon="7.33841">
        <ele>675.03</ele>
        <time>2021-06-23T13:39:42Z</time>
      </trkpt>
      <trkpt lat="48.2483" lon="7.34095">
        <ele>688.19</ele>
        <time>2021-06-23T13:39:44Z</time>
      </trkpt>
      <trkpt lat="48.24863" lon="7.34343">
        <ele>696.3</ele>
        <time>2021-06-23T13:39:47Z</time>
      </trkpt>
      <trkpt lat="48.24874" lon="7.34403">
        <ele>699.82</ele>
        <time>2021-06-23T13:39:49Z</time>
      </trkpt>
      <trkpt lat="48.24907" lon="7.34545">
        <ele>699.9</ele>
        <time>2021-06-23T13:39:51Z</time>
      </trkpt>
      <trkpt lat="48.24925" lon="7.34601">
        <ele>698.68</ele>
        <time>2021-06-23T13:39:53Z</time>
      </trkpt>
      <trkpt lat="48.24941" lon="7.34628">
        <ele>699.42</ele>
        <time>2021-06-23T13:39:56Z</time>
      </trkpt>
      <trkpt lat="48.24946" lon="7.3463">
        <ele>700.42</ele>
        <time>2021-06-23T13:39:58Z</time>
      </trkpt>
      <trkpt lat="48.24955" lon="7.34626">
        <ele>701.82</ele>
        <time>2021-06-23T13:40:00Z</time>
      </trkpt>
      <trkpt lat="48.24968" lon="7.34614">
        <ele>704.41</ele>
        <time>2021-06-23T13:40:02Z</time>
      </trkpt>
      <trkpt lat="48.24975" lon="7.34601">
        <ele>706.25</ele>
        <time>2021-06-23T13:40:05Z</time>
      </trkpt>
      <trkpt lat="48.24982" lon="7.34584">
        <ele>708.42</ele>
        <time>2021-06-23T13:40:07Z</time>
      </trkpt>
      <trkpt lat="48.24997" lon="7.34525">
        <ele>709.66</ele>
        <time>2021-06-23T13:40:09Z</time>
      </trkpt>
      <trkpt lat="48.25003" lon="7.34477">
        <ele>714.08</ele>
        <time>2021-06-23T13:40:11Z</time>
      </trkpt>
      <trkpt lat="48.25008" lon="7.34367">
        <ele>708.4</ele>
        <time>2021-06-23T13:40:14Z</time>
      </trkpt>
      <trkpt lat="48.25008" lon="7.34282">
        <ele>709.97</ele>
        <time>2021-06-23T13:40:16Z</time>
      </trkpt>
      <trkpt lat="48.25008" lon="7.34282">
        <ele>709.97</ele>
        <time>2021-06-23T13:40:16Z</time>
      </trkpt>
      <trkpt lat="48.25009" lon="7.34216">
        <ele>712.45</ele>
        <time>2021-06-23T13:40:20Z</time>
      </trkpt>
      <trkpt lat="48.25025" lon="7.33904">
        <ele>689.91</ele>
        <time>2021-06-23T13:40:24Z</time>
      </trkpt>
      <trkpt lat="48.25022" lon="7.3382">
        <ele>677.83</ele>
        <time>2021-06-23T13:40:29Z</time>
      </trkpt>
      <trkpt lat="48.25016" lon="7.33759">
        <ele>670.32</ele>
        <time>2021-06-23T13:40:33Z</time>
      </trkpt>
      <trkpt lat="48.24998" lon="7.33701">
        <ele>672.93</ele>
        <time>2021-06-23T13:40:37Z</time>
      </trkpt>
      <trkpt lat="48.24948" lon="7.33618">
        <ele>663.41</ele>
        <time>2021-06-23T13:40:41Z</time>
      </trkpt>
      <trkpt lat="48.24888" lon="7.33531">
        <ele>661.79</ele>
        <time>2021-06-23T13:40:45Z</time>
      </trkpt>
      <trkpt lat="48.24852" lon="7.33459">
        <ele>652.92</ele>
        <time>2021-06-23T13:40:50Z</time>
      </trkpt>
      <trkpt lat="48.24842" lon="7.33443">
        <ele>652.28</ele>
        <time>2021-06-23T13:40:54Z</time>
      </trkpt>
      <trkpt lat="48.2476" lon="7.33355">
        <ele>642.32</ele>
        <time>2021-06-23T13:40:58Z</time>
      </trkpt>
      <trkpt lat="48.24735" lon="7.3334">
        <ele>636.68</ele>
        <time>2021-06-23T13:41:02Z</time>
      </trkpt>
      <trkpt lat="48.24727" lon="7.3334">
        <ele>635.65</ele>
        <time>2021-06-23T13:41:06Z</time>
      </trkpt>
      <trkpt lat="48.24721" lon="7.33343">
        <ele>635.07</ele>
        <time>2021-06-23T13:41:11Z</time>
      </trkpt>
      <trkpt lat="48.24712" lon="7.33352">
        <ele>633.7</ele>
        <time>2021-06-23T13:41:15Z</time>
      </trkpt>
      <trkpt lat="48.24702" lon="7.3337">
        <ele>632.17</ele>
        <time>2021-06-23T13:41:19Z</time>
      </trkpt>
      <trkpt lat="48.24696" lon="7.3339">
        <ele>631.73</ele>
        <time>2021-06-23T13:41:23Z</time>
      </trkpt>
      <trkpt lat="48.24686" lon="7.33452">
        <ele>627.87</ele>
        <time>2021-06-23T13:41:27Z</time>
      </trkpt>
      <trkpt lat="48.24682" lon="7.33506">
        <ele>621.72</ele>
        <time>2021-06-23T13:41:32Z</time>
      </trkpt>
      <trkpt lat="48.24682" lon="7.33578">
        <ele>621.03</ele>
        <time>2021-06-23T13:41:36Z</time>
      </trkpt>
      <trkpt lat="48.24678" lon="7.33648">
        <ele>621.02</ele>
        <time>2021-06-23T13:41:40Z</time>
      </trkpt>
      <trkpt lat="48.2468" lon="7.33762">
        <ele>617.32</ele>
        <time>2021-06-23T13:41:44Z</time>
      </trkpt>
      <trkpt lat="48.24677" lon="7.33873">
        <ele>608.71</ele>
        <time>2021-06-23T13:41:48Z</time>
      </trkpt>
      <trkpt lat="48.24669" lon="7.33972">
        <ele>600.27</ele>
        <time>2021-06-23T13:41:53Z</time>
      </trkpt>
      <trkpt lat="48.24667" lon="7.34055">
        <ele>599.22</ele>
        <time>2021-06-23T13:41:57Z</time>
      </trkpt>
      <trkpt lat="48.24656" lon="7.34216">
        <ele>592.94</ele>
        <time>2021-06-23T13:42:01Z</time>
      </trkpt>
      <trkpt lat="48.24663" lon="7.34324">
        <ele>591.01</ele>
        <time>2021-06-23T13:42:05Z</time>
      </trkpt>
      <trkpt lat="48.24662" lon="7.34402">
        <ele>583.16</ele>
        <time>2021-06-23T13:42:09Z</time>
      </trkpt>
      <trkpt lat="48.24664" lon="7.34478">
        <ele>577.55</ele>
        <time>2021-06-23T13:42:13Z</time>
      </trkpt>
      <trkpt lat="48.24669" lon="7.34569">
        <ele>571.09</ele>
        <time>2021-06-23T13:42:18Z</time>
      </trkpt>
      <trkpt lat="48.24672" lon="7.3466">
        <ele>563.01</ele>
        <time>2021-06-23T13:42:22Z</time>
      </trkpt>
      <trkpt lat="48.24677" lon="7.34702">
        <ele>560.32</ele>
        <time>2021-06-23T13:42:26Z</time>
      </trkpt>
      <trkpt lat="48.24655" lon="7.34699">
        <ele>553.44</ele>
        <time>2021-06-23T13:42:27Z</time>
      </trkpt>
      <trkpt lat="48.24646" lon="7.34691">
        <ele>551.05</ele>
        <time>2021-06-23T13:42:29Z</time>
      </trkpt>
      <trkpt lat="48.24643" lon="7.3468">
        <ele>550.77</ele>
        <time>2021-06-23T13:42:30Z</time>
      </trkpt>
      <trkpt lat="48.24642" lon="7.34667">
        <ele>552.05</ele>
        <time>2021-06-23T13:42:32Z</time>
      </trkpt>
      <trkpt lat="48.24649" lon="7.34628">
        <ele>557.03</ele>
        <time>2021-06-23T13:42:33Z</time>
      </trkpt>
      <trkpt lat="48.24649" lon="7.34612">
        <ele>558.4</ele>
        <time>2021-06-23T13:42:35Z</time>
      </trkpt>
      <trkpt lat="48.24632" lon="7.34507">
        <ele>564.8</ele>
        <time>2021-06-23T13:42:36Z</time>
      </trkpt>
      <trkpt lat="48.24627" lon="7.34489">
        <ele>564.28</ele>
        <time>2021-06-23T13:42:37Z</time>
      </trkpt>
      <trkpt lat="48.24586" lon="7.34381">
        <ele>559.9</ele>
        <time>2021-06-23T13:42:39Z</time>
      </trkpt>
      <trkpt lat="48.24575" lon="7.34342">
        <ele>560.76</ele>
        <time>2021-06-23T13:42:40Z</time>
      </trkpt>
      <trkpt lat="48.24554" lon="7.3413">
        <ele>554.43</ele>
        <time>2021-06-23T13:42:42Z</time>
      </trkpt>
      <trkpt lat="48.24524" lon="7.34003">
        <ele>543.43</ele>
        <time>2021-06-23T13:42:43Z</time>
      </trkpt>
      <trkpt lat="48.24521" lon="7.33973">
        <ele>542.42</ele>
        <time>2021-06-23T13:42:45Z</time>
      </trkpt>
      <trkpt lat="48.24527" lon="7.33895">
        <ele>542.13</ele>
        <time>2021-06-23T13:42:46Z</time>
      </trkpt>
      <trkpt lat="48.24526" lon="7.33878">
        <ele>543.59</ele>
        <time>2021-06-23T13:42:47Z</time>
      </trkpt>
      <trkpt lat="48.24523" lon="7.33861">
        <ele>544.45</ele>
        <time>2021-06-23T13:42:49Z</time>
      </trkpt>
      <trkpt lat="48.24514" lon="7.3384">
        <ele>542.65</ele>
        <time>2021-06-23T13:42:50Z</time>
      </trkpt>
      <trkpt lat="48.24499" lon="7.33819">
        <ele>537.23</ele>
        <time>2021-06-23T13:42:52Z</time>
      </trkpt>
      <trkpt lat="48.24493" lon="7.33806">
        <ele>536.04</ele>
        <time>2021-06-23T13:42:53Z</time>
      </trkpt>
      <trkpt lat="48.2449" lon="7.3379">
        <ele>535.84</ele>
        <time>2021-06-23T13:42:54Z</time>
      </trkpt>
      <trkpt lat="48.24489" lon="7.33735">
        <ele>536.21</ele>
        <time>2021-06-23T13:42:56Z</time>
      </trkpt>
      <trkpt lat="48.24485" lon="7.33713">
        <ele>534.33</ele>
        <time>2021-06-23T13:42:57Z</time>
      </trkpt>
      <trkpt lat="48.24479" lon="7.33703">
        <ele>531.36</ele>
        <time>2021-06-23T13:42:59Z</time>
      </trkpt>
      <trkpt lat="48.24473" lon="7.337">
        <ele>528.3</ele>
        <time>2021-06-23T13:43:00Z</time>
      </trkpt>
      <trkpt lat="48.24464" lon="7.33705">
        <ele>525.78</ele>
        <time>2021-06-23T13:43:02Z</time>
      </trkpt>
      <trkpt lat="48.24457" lon="7.33719">
        <ele>523.9</ele>
        <time>2021-06-23T13:43:03Z</time>
      </trkpt>
      <trkpt lat="48.24455" lon="7.33734">
        <ele>523.78</ele>
        <time>2021-06-23T13:43:05Z</time>
      </trkpt>
      <trkpt lat="48.24458" lon="7.33751">
        <ele>525.23</ele>
        <time>2021-06-23T13:43:06Z</time>
      </trkpt>
      <trkpt lat="48.24466" lon="7.33769">
        <ele>527.18</ele>
        <time>2021-06-23T13:43:07Z</time>
      </trkpt>
      <trkpt lat="48.24482" lon="7.33835">
        <ele>525.14</ele>
        <time>2021-06-23T13:43:09Z</time>
      </trkpt>
      <trkpt lat="48.24486" lon="7.33863">
        <ele>522.58</ele>
        <time>2021-06-23T13:43:10Z</time>
      </trkpt>
      <trkpt lat="48.24484" lon="7.33886">
        <ele>521.24</ele>
        <time>2021-06-23T13:43:12Z</time>
      </trkpt>
      <trkpt lat="48.24465" lon="7.33971">
        <ele>517</ele>
        <time>2021-06-23T13:43:13Z</time>
      </trkpt>
      <trkpt lat="48.24427" lon="7.34116">
        <ele>506.52</ele>
        <time>2021-06-23T13:43:15Z</time>
      </trkpt>
      <trkpt lat="48.24395" lon="7.34245">
        <ele>499.7</ele>
        <time>2021-06-23T13:43:16Z</time>
      </trkpt>
      <trkpt lat="48.24396" lon="7.34264">
        <ele>498.45</ele>
        <time>2021-06-23T13:43:18Z</time>
      </trkpt>
      <trkpt lat="48.24405" lon="7.34302">
        <ele>497.4</ele>
        <time>2021-06-23T13:43:19Z</time>
      </trkpt>
      <trkpt lat="48.24422" lon="7.34356">
        <ele>497.97</ele>
        <time>2021-06-23T13:43:20Z</time>
      </trkpt>
      <trkpt lat="48.24423" lon="7.34404">
        <ele>492.93</ele>
        <time>2021-06-23T13:43:22Z</time>
      </trkpt>
      <trkpt lat="48.24404" lon="7.34508">
        <ele>480.71</ele>
        <time>2021-06-23T13:43:23Z</time>
      </trkpt>
      <trkpt lat="48.24404" lon="7.34546">
        <ele>476.94</ele>
        <time>2021-06-23T13:43:25Z</time>
      </trkpt>
      <trkpt lat="48.24409" lon="7.34566">
        <ele>476.42</ele>
        <time>2021-06-23T13:43:26Z</time>
      </trkpt>
      <trkpt lat="48.24418" lon="7.34592">
        <ele>477.54</ele>
        <time>2021-06-23T13:43:28Z</time>
      </trkpt>
      <trkpt lat="48.24431" lon="7.3462">
        <ele>480.67</ele>
        <time>2021-06-23T13:43:29Z</time>
      </trkpt>
      <trkpt lat="48.24436" lon="7.34636">
        <ele>480.58</ele>
        <time>2021-06-23T13:43:30Z</time>
      </trkpt>
      <trkpt lat="48.24436" lon="7.34654">
        <ele>477.66</ele>
        <time>2021-06-23T13:43:32Z</time>
      </trkpt>
      <trkpt lat="48.24433" lon="7.34673">
        <ele>473.23</ele>
        <time>2021-06-23T13:43:33Z</time>
      </trkpt>
      <trkpt lat="48.24404" lon="7.34737">
        <ele>461.73</ele>
        <time>2021-06-23T13:43:35Z</time>
      </trkpt>
      <trkpt lat="48.244" lon="7.34751">
        <ele>461.67</ele>
        <time>2021-06-23T13:43:36Z</time>
      </trkpt>
      <trkpt lat="48.24389" lon="7.34837">
        <ele>463.23</ele>
        <time>2021-06-23T13:43:38Z</time>
      </trkpt>
      <trkpt lat="48.24383" lon="7.34869">
        <ele>461.78</ele>
        <time>2021-06-23T13:43:39Z</time>
      </trkpt>
      <trkpt lat="48.24354" lon="7.34988">
        <ele>454.26</ele>
        <time>2021-06-23T13:43:41Z</time>
      </trkpt>
      <trkpt lat="48.24352" lon="7.3501">
        <ele>450.81</ele>
        <time>2021-06-23T13:43:42Z</time>
      </trkpt>
      <trkpt lat="48.24354" lon="7.35031">
        <ele>448.1</ele>
        <time>2021-06-23T13:43:43Z</time>
      </trkpt>
      <trkpt lat="48.24363" lon="7.35051">
        <ele>448.08</ele>
        <time>2021-06-23T13:43:45Z</time>
      </trkpt>
      <trkpt lat="48.24378" lon="7.3507">
        <ele>450.58</ele>
        <time>2021-06-23T13:43:46Z</time>
      </trkpt>
      <trkpt lat="48.24403" lon="7.35089">
        <ele>454.3</ele>
        <time>2021-06-23T13:43:48Z</time>
      </trkpt>
      <trkpt lat="48.24409" lon="7.35101">
        <ele>452.93</ele>
        <time>2021-06-23T13:43:49Z</time>
      </trkpt>
      <trkpt lat="48.24411" lon="7.35112">
        <ele>450.62</ele>
        <time>2021-06-23T13:43:51Z</time>
      </trkpt>
      <trkpt lat="48.2441" lon="7.35124">
        <ele>447.87</ele>
        <time>2021-06-23T13:43:52Z</time>
      </trkpt>
      <trkpt lat="48.24405" lon="7.35133">
        <ele>444.68</ele>
        <time>2021-06-23T13:43:54Z</time>
      </trkpt>
      <trkpt lat="48.24389" lon="7.35141">
        <ele>439.77</ele>
        <time>2021-06-23T13:43:55Z</time>
      </trkpt>
      <trkpt lat="48.24381" lon="7.35142">
        <ele>438.67</ele>
        <time>2021-06-23T13:43:56Z</time>
      </trkpt>
      <trkpt lat="48.24366" lon="7.35137">
        <ele>437.92</ele>
        <time>2021-06-23T13:43:58Z</time>
      </trkpt>
      <trkpt lat="48.24356" lon="7.3513">
        <ele>437.67</ele>
        <time>2021-06-23T13:43:59Z</time>
      </trkpt>
      <trkpt lat="48.24343" lon="7.35117">
        <ele>437.16</ele>
        <time>2021-06-23T13:44:01Z</time>
      </trkpt>
      <trkpt lat="48.24314" lon="7.35061">
        <ele>436.67</ele>
        <time>2021-06-23T13:44:02Z</time>
      </trkpt>
      <trkpt lat="48.24282" lon="7.34986">
        <ele>430.39</ele>
        <time>2021-06-23T13:44:04Z</time>
      </trkpt>
      <trkpt lat="48.24274" lon="7.34961">
        <ele>428.1</ele>
        <time>2021-06-23T13:44:05Z</time>
      </trkpt>
      <trkpt lat="48.24271" lon="7.34938">
        <ele>426.95</ele>
        <time>2021-06-23T13:44:07Z</time>
      </trkpt>
      <trkpt lat="48.2427" lon="7.34922">
        <ele>426.18</ele>
        <time>2021-06-23T13:44:08Z</time>
      </trkpt>
      <trkpt lat="48.24273" lon="7.34903">
        <ele>426.08</ele>
        <time>2021-06-23T13:44:09Z</time>
      </trkpt>
      <trkpt lat="48.24289" lon="7.34854">
        <ele>426.78</ele>
        <time>2021-06-23T13:44:11Z</time>
      </trkpt>
      <trkpt lat="48.2429" lon="7.34842">
        <ele>425.85</ele>
        <time>2021-06-23T13:44:12Z</time>
      </trkpt>
      <trkpt lat="48.24288" lon="7.34831">
        <ele>424.33</ele>
        <time>2021-06-23T13:44:14Z</time>
      </trkpt>
      <trkpt lat="48.24284" lon="7.34822">
        <ele>422.85</ele>
        <time>2021-06-23T13:44:15Z</time>
      </trkpt>
      <trkpt lat="48.24277" lon="7.34817">
        <ele>420.73</ele>
        <time>2021-06-23T13:44:17Z</time>
      </trkpt>
      <trkpt lat="48.2427" lon="7.34815">
        <ele>418.73</ele>
        <time>2021-06-23T13:44:18Z</time>
      </trkpt>
      <trkpt lat="48.24261" lon="7.34818">
        <ele>415.77</ele>
        <time>2021-06-23T13:44:20Z</time>
      </trkpt>
      <trkpt lat="48.24254" lon="7.34826">
        <ele>413.59</ele>
        <time>2021-06-23T13:44:21Z</time>
      </trkpt>
      <trkpt lat="48.2425" lon="7.3484">
        <ele>412.11</ele>
        <time>2021-06-23T13:44:22Z</time>
      </trkpt>
      <trkpt lat="48.24246" lon="7.34879">
        <ele>412.43</ele>
        <time>2021-06-23T13:44:24Z</time>
      </trkpt>
      <trkpt lat="48.24222" lon="7.34981">
        <ele>411.04</ele>
        <time>2021-06-23T13:44:25Z</time>
      </trkpt>
      <trkpt lat="48.24218" lon="7.35014">
        <ele>409.27</ele>
        <time>2021-06-23T13:44:27Z</time>
      </trkpt>
      <trkpt lat="48.24218" lon="7.35044">
        <ele>407.58</ele>
        <time>2021-06-23T13:44:28Z</time>
      </trkpt>
      <trkpt lat="48.24227" lon="7.35148">
        <ele>407.78</ele>
        <time>2021-06-23T13:44:30Z</time>
      </trkpt>
      <trkpt lat="48.24227" lon="7.35173">
        <ele>406.57</ele>
        <time>2021-06-23T13:44:31Z</time>
      </trkpt>
      <trkpt lat="48.24224" lon="7.35198">
        <ele>404.43</ele>
        <time>2021-06-23T13:44:32Z</time>
      </trkpt>
      <trkpt lat="48.24207" lon="7.35283">
        <ele>395.95</ele>
        <time>2021-06-23T13:44:34Z</time>
      </trkpt>
      <trkpt lat="48.24204" lon="7.35309">
        <ele>394.59</ele>
        <time>2021-06-23T13:44:35Z</time>
      </trkpt>
      <trkpt lat="48.24204" lon="7.3533">
        <ele>393.85</ele>
        <time>2021-06-23T13:44:37Z</time>
      </trkpt>
      <trkpt lat="48.24207" lon="7.35348">
        <ele>393.53</ele>
        <time>2021-06-23T13:44:38Z</time>
      </trkpt>
      <trkpt lat="48.2423" lon="7.35402">
        <ele>391.6</ele>
        <time>2021-06-23T13:44:40Z</time>
      </trkpt>
      <trkpt lat="48.24236" lon="7.35421">
        <ele>389.86</ele>
        <time>2021-06-23T13:44:41Z</time>
      </trkpt>
      <trkpt lat="48.24237" lon="7.35436">
        <ele>387.78</ele>
        <time>2021-06-23T13:44:43Z</time>
      </trkpt>
      <trkpt lat="48.24234" lon="7.35445">
        <ele>386.22</ele>
        <time>2021-06-23T13:44:44Z</time>
      </trkpt>
      <trkpt lat="48.24225" lon="7.35452">
        <ele>384.48</ele>
        <time>2021-06-23T13:44:45Z</time>
      </trkpt>
      <trkpt lat="48.24219" lon="7.35454">
        <ele>384.17</ele>
        <time>2021-06-23T13:44:47Z</time>
      </trkpt>
      <trkpt lat="48.24212" lon="7.35451">
        <ele>384.83</ele>
        <time>2021-06-23T13:44:48Z</time>
      </trkpt>
      <trkpt lat="48.24178" lon="7.3541">
        <ele>386.17</ele>
        <time>2021-06-23T13:44:50Z</time>
      </trkpt>
      <trkpt lat="48.24162" lon="7.35398">
        <ele>385.48</ele>
        <time>2021-06-23T13:44:51Z</time>
      </trkpt>
      <trkpt lat="48.24135" lon="7.35386">
        <ele>382.61</ele>
        <time>2021-06-23T13:44:53Z</time>
      </trkpt>
      <trkpt lat="48.24093" lon="7.35382">
        <ele>378.05</ele>
        <time>2021-06-23T13:44:54Z</time>
      </trkpt>
      <trkpt lat="48.24078" lon="7.35384">
        <ele>376.62</ele>
        <time>2021-06-23T13:44:56Z</time>
      </trkpt>
      <trkpt lat="48.24061" lon="7.35396">
        <ele>375.2</ele>
        <time>2021-06-23T13:44:57Z</time>
      </trkpt>
      <trkpt lat="48.24053" lon="7.35408">
        <ele>373.94</ele>
        <time>2021-06-23T13:44:58Z</time>
      </trkpt>
      <trkpt lat="48.24047" lon="7.35419">
        <ele>372.47</ele>
        <time>2021-06-23T13:45:00Z</time>
      </trkpt>
      <trkpt lat="48.24041" lon="7.35443">
        <ele>369.76</ele>
        <time>2021-06-23T13:45:01Z</time>
      </trkpt>
      <trkpt lat="48.24024" lon="7.35537">
        <ele>362.24</ele>
        <time>2021-06-23T13:45:03Z</time>
      </trkpt>
      <trkpt lat="48.24025" lon="7.35552">
        <ele>362.46</ele>
        <time>2021-06-23T13:45:04Z</time>
      </trkpt>
      <trkpt lat="48.24027" lon="7.3556">
        <ele>362.59</ele>
        <time>2021-06-23T13:45:06Z</time>
      </trkpt>
      <trkpt lat="48.24034" lon="7.35569">
        <ele>362.44</ele>
        <time>2021-06-23T13:45:07Z</time>
      </trkpt>
      <trkpt lat="48.24044" lon="7.35574">
        <ele>362.66</ele>
        <time>2021-06-23T13:45:09Z</time>
      </trkpt>
      <trkpt lat="48.24057" lon="7.3557">
        <ele>364.05</ele>
        <time>2021-06-23T13:45:10Z</time>
      </trkpt>
      <trkpt lat="48.24082" lon="7.35556">
        <ele>367.91</ele>
        <time>2021-06-23T13:45:11Z</time>
      </trkpt>
      <trkpt lat="48.24093" lon="7.35554">
        <ele>368.65</ele>
        <time>2021-06-23T13:45:13Z</time>
      </trkpt>
      <trkpt lat="48.24106" lon="7.3556">
        <ele>368.12</ele>
        <time>2021-06-23T13:45:14Z</time>
      </trkpt>
      <trkpt lat="48.24113" lon="7.35572">
        <ele>366.7</ele>
        <time>2021-06-23T13:45:16Z</time>
      </trkpt>
      <trkpt lat="48.24119" lon="7.35589">
        <ele>364.53</ele>
        <time>2021-06-23T13:45:17Z</time>
      </trkpt>
      <trkpt lat="48.2413" lon="7.35627">
        <ele>356.66</ele>
        <time>2021-06-23T13:45:19Z</time>
      </trkpt>
      <trkpt lat="48.24139" lon="7.35635">
        <ele>354.24</ele>
        <time>2021-06-23T13:45:20Z</time>
      </trkpt>
      <trkpt lat="48.2415" lon="7.35636">
        <ele>353.84</ele>
        <time>2021-06-23T13:45:22Z</time>
      </trkpt>
      <trkpt lat="48.2418" lon="7.35616">
        <ele>359.19</ele>
        <time>2021-06-23T13:45:23Z</time>
      </trkpt>
      <trkpt lat="48.24191" lon="7.35618">
        <ele>358.38</ele>
        <time>2021-06-23T13:45:24Z</time>
      </trkpt>
      <trkpt lat="48.24199" lon="7.35629">
        <ele>355.77</ele>
        <time>2021-06-23T13:45:26Z</time>
      </trkpt>
      <trkpt lat="48.24202" lon="7.35644">
        <ele>353.55</ele>
        <time>2021-06-23T13:45:27Z</time>
      </trkpt>
      <trkpt lat="48.242" lon="7.35657">
        <ele>352.62</ele>
        <time>2021-06-23T13:45:29Z</time>
      </trkpt>
      <trkpt lat="48.24196" lon="7.35669">
        <ele>351.4</ele>
        <time>2021-06-23T13:45:30Z</time>
      </trkpt>
      <trkpt lat="48.24186" lon="7.35679">
        <ele>350.17</ele>
        <time>2021-06-23T13:45:32Z</time>
      </trkpt>
      <trkpt lat="48.2417" lon="7.35683">
        <ele>347.33</ele>
        <time>2021-06-23T13:45:33Z</time>
      </trkpt>
      <trkpt lat="48.24154" lon="7.35683">
        <ele>344.73</ele>
        <time>2021-06-23T13:45:34Z</time>
      </trkpt>
      <trkpt lat="48.24135" lon="7.35688">
        <ele>341.64</ele>
        <time>2021-06-23T13:45:36Z</time>
      </trkpt>
      <trkpt lat="48.24124" lon="7.35701">
        <ele>339.85</ele>
        <time>2021-06-23T13:45:37Z</time>
      </trkpt>
      <trkpt lat="48.24094" lon="7.35759">
        <ele>336.73</ele>
        <time>2021-06-23T13:45:39Z</time>
      </trkpt>
      <trkpt lat="48.24011" lon="7.35906">
        <ele>324.63</ele>
        <time>2021-06-23T13:45:40Z</time>
      </trkpt>
      <trkpt lat="48.2398" lon="7.35954">
        <ele>322.88</ele>
        <time>2021-06-23T13:45:42Z</time>
      </trkpt>
      <trkpt lat="48.23881" lon="7.36065">
        <ele>306.67</ele>
        <time>2021-06-23T13:45:43Z</time>
      </trkpt>
      <trkpt lat="48.23787" lon="7.36139">
        <ele>294.35</ele>
        <time>2021-06-23T13:45:45Z</time>
      </trkpt>
      <trkpt lat="48.23778" lon="7.36151">
        <ele>293.11</ele>
        <time>2021-06-23T13:45:46Z</time>
      </trkpt>
      <trkpt lat="48.2376" lon="7.36194">
        <ele>289.12</ele>
        <time>2021-06-23T13:45:47Z</time>
      </trkpt>
      <trkpt lat="48.23751" lon="7.36205">
        <ele>287.73</ele>
        <time>2021-06-23T13:45:49Z</time>
      </trkpt>
      <trkpt lat="48.23741" lon="7.36212">
        <ele>286.44</ele>
        <time>2021-06-23T13:45:50Z</time>
      </trkpt>
      <trkpt lat="48.23731" lon="7.36215">
        <ele>285.25</ele>
        <time>2021-06-23T13:45:52Z</time>
      </trkpt>
      <trkpt lat="48.23719" lon="7.36212">
        <ele>284.14</ele>
        <time>2021-06-23T13:45:53Z</time>
      </trkpt>
      <trkpt lat="48.23667" lon="7.36193">
        <ele>283.05</ele>
        <time>2021-06-23T13:45:55Z</time>
      </trkpt>
      <trkpt lat="48.23648" lon="7.36184">
        <ele>282.07</ele>
        <time>2021-06-23T13:45:56Z</time>
      </trkpt>
      <trkpt lat="48.23625" lon="7.36155">
        <ele>281.1</ele>
        <time>2021-06-23T13:45:58Z</time>
      </trkpt>
      <trkpt lat="48.23617" lon="7.3615">
        <ele>280.65</ele>
        <time>2021-06-23T13:45:59Z</time>
      </trkpt>
      <trkpt lat="48.23609" lon="7.3615">
        <ele>280.09</ele>
        <time>2021-06-23T13:46:00Z</time>
      </trkpt>
      <trkpt lat="48.23599" lon="7.36154">
        <ele>279.54</ele>
        <time>2021-06-23T13:46:02Z</time>
      </trkpt>
      <trkpt lat="48.23451" lon="7.36243">
        <ele>272.82</ele>
        <time>2021-06-23T13:46:03Z</time>
      </trkpt>
      <trkpt lat="48.23383" lon="7.36278">
        <ele>272.78</ele>
        <time>2021-06-23T13:46:05Z</time>
      </trkpt>
      <trkpt lat="48.23373" lon="7.36288">
        <ele>272.2</ele>
        <time>2021-06-23T13:46:06Z</time>
      </trkpt>
      <trkpt lat="48.23364" lon="7.36304">
        <ele>271.3</ele>
        <time>2021-06-23T13:46:08Z</time>
      </trkpt>
      <trkpt lat="48.23346" lon="7.36371">
        <ele>269.1</ele>
        <time>2021-06-23T13:46:09Z</time>
      </trkpt>
      <trkpt lat="48.23304" lon="7.36459">
        <ele>262.5</ele>
        <time>2021-06-23T13:46:11Z</time>
      </trkpt>
      <trkpt lat="48.23286" lon="7.36499">
        <ele>260.08</ele>
        <time>2021-06-23T13:46:12Z</time>
      </trkpt>
      <trkpt lat="48.23254" lon="7.36578">
        <ele>252.6</ele>
        <time>2021-06-23T13:46:13Z</time>
      </trkpt>
      <trkpt lat="48.23229" lon="7.36645">
        <ele>250.44</ele>
        <time>2021-06-23T13:46:15Z</time>
      </trkpt>
      <trkpt lat="48.2322" lon="7.36677">
        <ele>248.94</ele>
        <time>2021-06-23T13:46:16Z</time>
      </trkpt>
      <trkpt lat="48.23214" lon="7.36691">
        <ele>248.47</ele>
        <time>2021-06-23T13:46:18Z</time>
      </trkpt>
      <trkpt lat="48.23205" lon="7.36681">
        <ele>248.29</ele>
        <time>2021-06-23T13:46:19Z</time>
      </trkpt>
      <trkpt lat="48.23205" lon="7.36681">
        <ele>248.29</ele>
        <time>2021-06-23T13:46:19Z</time>
      </trkpt>
      <trkpt lat="48.23152" lon="7.3662">
        <ele>248.11</ele>
        <time>2021-06-23T13:46:22Z</time>
      </trkpt>
      <trkpt lat="48.23051" lon="7.3655">
        <ele>245.86</ele>
        <time>2021-06-23T13:46:24Z</time>
      </trkpt>
      <trkpt lat="48.22971" lon="7.36521">
        <ele>244.13</ele>
        <time>2021-06-23T13:46:27Z</time>
      </trkpt>
      <trkpt lat="48.22926" lon="7.36516">
        <ele>242.21</ele>
        <time>2021-06-23T13:46:30Z</time>
      </trkpt>
      <trkpt lat="48.22873" lon="7.36503">
        <ele>242.64</ele>
        <time>2021-06-23T13:46:32Z</time>
      </trkpt>
      <trkpt lat="48.22847" lon="7.36494">
        <ele>241.76</ele>
        <time>2021-06-23T13:46:35Z</time>
      </trkpt>
      <trkpt lat="48.22802" lon="7.36459">
        <ele>238.99</ele>
        <time>2021-06-23T13:46:38Z</time>
      </trkpt>
      <trkpt lat="48.22783" lon="7.36442">
        <ele>237.71</ele>
        <time>2021-06-23T13:46:40Z</time>
      </trkpt>
      <trkpt lat="48.2274" lon="7.36389">
        <ele>233.55</ele>
        <time>2021-06-23T13:46:43Z</time>
      </trkpt>
      <trkpt lat="48.22679" lon="7.36306">
        <ele>229.87</ele>
        <time>2021-06-23T13:46:46Z</time>
      </trkpt>
      <trkpt lat="48.22654" lon="7.36279">
        <ele>229.16</ele>
        <time>2021-06-23T13:46:48Z</time>
      </trkpt>
      <trkpt lat="48.22637" lon="7.36264">
        <ele>226.66</ele>
        <time>2021-06-23T13:46:51Z</time>
      </trkpt>
      <trkpt lat="48.22613" lon="7.36252">
        <ele>223.21</ele>
        <time>2021-06-23T13:46:54Z</time>
      </trkpt>
      <trkpt lat="48.22592" lon="7.36245">
        <ele>221.72</ele>
        <time>2021-06-23T13:46:56Z</time>
      </trkpt>
      <trkpt lat="48.22556" lon="7.36244">
        <ele>222</ele>
        <time>2021-06-23T13:46:59Z</time>
      </trkpt>
      <trkpt lat="48.22554" lon="7.36237">
        <ele>222.11</ele>
        <time>2021-06-23T13:47:02Z</time>
      </trkpt>
      <trkpt lat="48.22551" lon="7.36232">
        <ele>222.4</ele>
        <time>2021-06-23T13:47:05Z</time>
      </trkpt>
      <trkpt lat="48.22546" lon="7.36229">
        <ele>222.85</ele>
        <time>2021-06-23T13:47:09Z</time>
      </trkpt>
      <trkpt lat="48.22541" lon="7.36229">
        <ele>223.29</ele>
        <time>2021-06-23T13:47:12Z</time>
      </trkpt>
      <trkpt lat="48.22537" lon="7.36231">
        <ele>223.57</ele>
        <time>2021-06-23T13:47:15Z</time>
      </trkpt>
      <trkpt lat="48.22534" lon="7.36236">
        <ele>223.57</ele>
        <time>2021-06-23T13:47:19Z</time>
      </trkpt>
      <trkpt lat="48.22532" lon="7.36243">
        <ele>223.29</ele>
        <time>2021-06-23T13:47:22Z</time>
      </trkpt>
      <trkpt lat="48.22532" lon="7.3625">
        <ele>222.85</ele>
        <time>2021-06-23T13:47:25Z</time>
      </trkpt>
      <trkpt lat="48.22405" lon="7.363">
        <ele>224.64</ele>
        <time>2021-06-23T13:47:28Z</time>
      </trkpt>
      <trkpt lat="48.2237" lon="7.3631">
        <ele>226.38</ele>
        <time>2021-06-23T13:47:32Z</time>
      </trkpt>
      <trkpt lat="48.2225" lon="7.36322">
        <ele>234.42</ele>
        <time>2021-06-23T13:47:35Z</time>
      </trkpt>
      <trkpt lat="48.22182" lon="7.36341">
        <ele>237.58</ele>
        <time>2021-06-23T13:47:38Z</time>
      </trkpt>
      <trkpt lat="48.22137" lon="7.36358">
        <ele>240.31</ele>
        <time>2021-06-23T13:47:41Z</time>
      </trkpt>
      <trkpt lat="48.22111" lon="7.36364">
        <ele>240.64</ele>
        <time>2021-06-23T13:47:45Z</time>
      </trkpt>
      <trkpt lat="48.22078" lon="7.36367">
        <ele>239.02</ele>
        <time>2021-06-23T13:47:48Z</time>
      </trkpt>
      <trkpt lat="48.22042" lon="7.36362">
        <ele>238.42</ele>
        <time>2021-06-23T13:47:51Z</time>
      </trkpt>
      <trkpt lat="48.22008" lon="7.36351">
        <ele>238.68</ele>
        <time>2021-06-23T13:47:54Z</time>
      </trkpt>
      <trkpt lat="48.21974" lon="7.36335">
        <ele>238.94</ele>
        <time>2021-06-23T13:47:58Z</time>
      </trkpt>
      <trkpt lat="48.21927" lon="7.36303">
        <ele>243.57</ele>
        <time>2021-06-23T13:48:01Z</time>
      </trkpt>
      <trkpt lat="48.21866" lon="7.36257">
        <ele>241.47</ele>
        <time>2021-06-23T13:48:04Z</time>
      </trkpt>
      <trkpt lat="48.21849" lon="7.36247">
        <ele>240.27</ele>
        <time>2021-06-23T13:48:08Z</time>
      </trkpt>
      <trkpt lat="48.21832" lon="7.36243">
        <ele>239.18</ele>
        <time>2021-06-23T13:48:11Z</time>
      </trkpt>
      <trkpt lat="48.21762" lon="7.36259">
        <ele>236.85</ele>
        <time>2021-06-23T13:48:14Z</time>
      </trkpt>
      <trkpt lat="48.21745" lon="7.36261">
        <ele>235.81</ele>
        <time>2021-06-23T13:48:17Z</time>
      </trkpt>
      <trkpt lat="48.21649" lon="7.36235">
        <ele>237.43</ele>
        <time>2021-06-23T13:48:21Z</time>
      </trkpt>
      <trkpt lat="48.21639" lon="7.36234">
        <ele>237.16</ele>
        <time>2021-06-23T13:48:24Z</time>
      </trkpt>
      <trkpt lat="48.21557" lon="7.36283">
        <ele>237.1</ele>
        <time>2021-06-23T13:48:27Z</time>
      </trkpt>
      <trkpt lat="48.21528" lon="7.36298">
        <ele>238.58</ele>
        <time>2021-06-23T13:48:30Z</time>
      </trkpt>
      <trkpt lat="48.21486" lon="7.3631">
        <ele>238.16</ele>
        <time>2021-06-23T13:48:34Z</time>
      </trkpt>
      <trkpt lat="48.2137" lon="7.36331">
        <ele>238.94</ele>
        <time>2021-06-23T13:48:37Z</time>
      </trkpt>
      <trkpt lat="48.21321" lon="7.36327">
        <ele>240.09</ele>
        <time>2021-06-23T13:48:40Z</time>
      </trkpt>
      <trkpt lat="48.2129" lon="7.36318">
        <ele>238.25</ele>
        <time>2021-06-23T13:48:43Z</time>
      </trkpt>
      <trkpt lat="48.2129" lon="7.36318">
        <ele>238.25</ele>
        <time>2021-06-23T13:48:43Z</time>
      </trkpt>
      <trkpt lat="48.21102" lon="7.36229">
        <ele>234.19</ele>
        <time>2021-06-23T13:48:46Z</time>
      </trkpt>
      <trkpt lat="48.21014" lon="7.36166">
        <ele>234.01</ele>
        <time>2021-06-23T13:48:48Z</time>
      </trkpt>
      <trkpt lat="48.20987" lon="7.3615">
        <ele>233.81</ele>
        <time>2021-06-23T13:48:50Z</time>
      </trkpt>
      <trkpt lat="48.20961" lon="7.3614">
        <ele>233.1</ele>
        <time>2021-06-23T13:48:52Z</time>
      </trkpt>
      <trkpt lat="48.20896" lon="7.36121">
        <ele>225.35</ele>
        <time>2021-06-23T13:48:55Z</time>
      </trkpt>
      <trkpt lat="48.20829" lon="7.36092">
        <ele>221.09</ele>
        <time>2021-06-23T13:48:57Z</time>
      </trkpt>
      <trkpt lat="48.2078" lon="7.36066">
        <ele>217.74</ele>
        <time>2021-06-23T13:48:59Z</time>
      </trkpt>
      <trkpt lat="48.20756" lon="7.36051">
        <ele>215.84</ele>
        <time>2021-06-23T13:49:01Z</time>
      </trkpt>
      <trkpt lat="48.20745" lon="7.36038">
        <ele>215.21</ele>
        <time>2021-06-23T13:49:03Z</time>
      </trkpt>
      <trkpt lat="48.2073" lon="7.36005">
        <ele>216.19</ele>
        <time>2021-06-23T13:49:06Z</time>
      </trkpt>
      <trkpt lat="48.20727" lon="7.35992">
        <ele>216.33</ele>
        <time>2021-06-23T13:49:08Z</time>
      </trkpt>
      <trkpt lat="48.20724" lon="7.35974">
        <ele>216.16</ele>
        <time>2021-06-23T13:49:10Z</time>
      </trkpt>
      <trkpt lat="48.20729" lon="7.35876">
        <ele>217.15</ele>
        <time>2021-06-23T13:49:12Z</time>
      </trkpt>
      <trkpt lat="48.20727" lon="7.3585">
        <ele>217.82</ele>
        <time>2021-06-23T13:49:15Z</time>
      </trkpt>
      <trkpt lat="48.2072" lon="7.35826">
        <ele>217.6</ele>
        <time>2021-06-23T13:49:17Z</time>
      </trkpt>
      <trkpt lat="48.20713" lon="7.35809">
        <ele>216.44</ele>
        <time>2021-06-23T13:49:19Z</time>
      </trkpt>
      <trkpt lat="48.20702" lon="7.35793">
        <ele>215.41</ele>
        <time>2021-06-23T13:49:21Z</time>
      </trkpt>
      <trkpt lat="48.20684" lon="7.35775">
        <ele>214.66</ele>
        <time>2021-06-23T13:49:23Z</time>
      </trkpt>
      <trkpt lat="48.20671" lon="7.35771">
        <ele>214.35</ele>
        <time>2021-06-23T13:49:26Z</time>
      </trkpt>
      <trkpt lat="48.20645" lon="7.35771">
        <ele>214.06</ele>
        <time>2021-06-23T13:49:28Z</time>
      </trkpt>
      <trkpt lat="48.20609" lon="7.35781">
        <ele>214.05</ele>
        <time>2021-06-23T13:49:30Z</time>
      </trkpt>
      <trkpt lat="48.20595" lon="7.35781">
        <ele>214.5</ele>
        <time>2021-06-23T13:49:32Z</time>
      </trkpt>
      <trkpt lat="48.20594" lon="7.35774">
        <ele>214.52</ele>
        <time>2021-06-23T13:49:36Z</time>
      </trkpt>
      <trkpt lat="48.2059" lon="7.35768">
        <ele>214.49</ele>
        <time>2021-06-23T13:49:40Z</time>
      </trkpt>
      <trkpt lat="48.20585" lon="7.35767">
        <ele>214.57</ele>
        <time>2021-06-23T13:49:44Z</time>
      </trkpt>
      <trkpt lat="48.20581" lon="7.3577">
        <ele>214.65</ele>
        <time>2021-06-23T13:49:47Z</time>
      </trkpt>
      <trkpt lat="48.20572" lon="7.3576">
        <ele>214.21</ele>
        <time>2021-06-23T13:49:51Z</time>
      </trkpt>
      <trkpt lat="48.20563" lon="7.35755">
        <ele>214.05</ele>
        <time>2021-06-23T13:49:55Z</time>
      </trkpt>
      <trkpt lat="48.20524" lon="7.35704">
        <ele>214</ele>
        <time>2021-06-23T13:49:59Z</time>
      </trkpt>
      <trkpt lat="48.20514" lon="7.35685">
        <ele>214.33</ele>
        <time>2021-06-23T13:50:02Z</time>
      </trkpt>
      <trkpt lat="48.20507" lon="7.35661">
        <ele>215.41</ele>
        <time>2021-06-23T13:50:06Z</time>
      </trkpt>
      <trkpt lat="48.20504" lon="7.35607">
        <ele>219.84</ele>
        <time>2021-06-23T13:50:10Z</time>
      </trkpt>
      <trkpt lat="48.20506" lon="7.35578">
        <ele>220.36</ele>
        <time>2021-06-23T13:50:14Z</time>
      </trkpt>
      <trkpt lat="48.20519" lon="7.35464">
        <ele>218.1</ele>
        <time>2021-06-23T13:50:18Z</time>
      </trkpt>
      <trkpt lat="48.20518" lon="7.35445">
        <ele>218.35</ele>
        <time>2021-06-23T13:50:21Z</time>
      </trkpt>
      <trkpt lat="48.20508" lon="7.35415">
        <ele>218.7</ele>
        <time>2021-06-23T13:50:25Z</time>
      </trkpt>
      <trkpt lat="48.205" lon="7.35398">
        <ele>218.99</ele>
        <time>2021-06-23T13:50:29Z</time>
      </trkpt>
      <trkpt lat="48.20491" lon="7.3537">
        <ele>219.77</ele>
        <time>2021-06-23T13:50:33Z</time>
      </trkpt>
      <trkpt lat="48.20486" lon="7.35343">
        <ele>220.64</ele>
        <time>2021-06-23T13:50:36Z</time>
      </trkpt>
      <trkpt lat="48.20483" lon="7.35305">
        <ele>220.38</ele>
        <time>2021-06-23T13:50:40Z</time>
      </trkpt>
      <trkpt lat="48.20481" lon="7.3517">
        <ele>224.3</ele>
        <time>2021-06-23T13:50:44Z</time>
      </trkpt>
      <trkpt lat="48.20479" lon="7.35134">
        <ele>224.48</ele>
        <time>2021-06-23T13:50:48Z</time>
      </trkpt>
      <trkpt lat="48.2047" lon="7.35087">
        <ele>223.99</ele>
        <time>2021-06-23T13:50:51Z</time>
      </trkpt>
      <trkpt lat="48.2046" lon="7.35063">
        <ele>224.74</ele>
        <time>2021-06-23T13:50:55Z</time>
      </trkpt>
      <trkpt lat="48.20422" lon="7.34999">
        <ele>228.04</ele>
        <time>2021-06-23T13:50:59Z</time>
      </trkpt>
      <trkpt lat="48.2041" lon="7.34964">
        <ele>228.45</ele>
        <time>2021-06-23T13:51:03Z</time>
      </trkpt>
      <trkpt lat="48.20393" lon="7.34906">
        <ele>227.1</ele>
        <time>2021-06-23T13:51:07Z</time>
      </trkpt>
      <trkpt lat="48.20381" lon="7.34875">
        <ele>227.45</ele>
        <time>2021-06-23T13:51:10Z</time>
      </trkpt>
      <trkpt lat="48.20368" lon="7.34851">
        <ele>228.87</ele>
        <time>2021-06-23T13:51:14Z</time>
      </trkpt>
      <trkpt lat="48.20351" lon="7.34827">
        <ele>230.62</ele>
        <time>2021-06-23T13:51:18Z</time>
      </trkpt>
      <trkpt lat="48.20295" lon="7.34772">
        <ele>236.22</ele>
        <time>2021-06-23T13:51:22Z</time>
      </trkpt>
      <trkpt lat="48.20281" lon="7.34756">
        <ele>236.79</ele>
        <time>2021-06-23T13:51:25Z</time>
      </trkpt>
      <trkpt lat="48.2027" lon="7.34738">
        <ele>238.07</ele>
        <time>2021-06-23T13:51:29Z</time>
      </trkpt>
      <trkpt lat="48.20232" lon="7.34668">
        <ele>241.34</ele>
        <time>2021-06-23T13:51:33Z</time>
      </trkpt>
      <trkpt lat="48.20206" lon="7.34604">
        <ele>241.07</ele>
        <time>2021-06-23T13:51:37Z</time>
      </trkpt>
      <trkpt lat="48.20184" lon="7.34533">
        <ele>240.14</ele>
        <time>2021-06-23T13:51:40Z</time>
      </trkpt>
      <trkpt lat="48.20158" lon="7.34462">
        <ele>240.73</ele>
        <time>2021-06-23T13:51:44Z</time>
      </trkpt>
      <trkpt lat="48.2015" lon="7.3443">
        <ele>240.38</ele>
        <time>2021-06-23T13:51:48Z</time>
      </trkpt>
      <trkpt lat="48.20148" lon="7.34397">
        <ele>239.54</ele>
        <time>2021-06-23T13:51:52Z</time>
      </trkpt>
      <trkpt lat="48.20145" lon="7.34297">
        <ele>237.15</ele>
        <time>2021-06-23T13:51:56Z</time>
      </trkpt>
      <trkpt lat="48.20142" lon="7.34247">
        <ele>239.21</ele>
        <time>2021-06-23T13:51:59Z</time>
      </trkpt>
      <trkpt lat="48.20137" lon="7.34184">
        <ele>238.82</ele>
        <time>2021-06-23T13:52:03Z</time>
      </trkpt>
      <trkpt lat="48.20128" lon="7.3411">
        <ele>239.2</ele>
        <time>2021-06-23T13:52:07Z</time>
      </trkpt>
      <trkpt lat="48.20119" lon="7.34078">
        <ele>238.57</ele>
        <time>2021-06-23T13:52:11Z</time>
      </trkpt>
      <trkpt lat="48.20109" lon="7.34054">
        <ele>237.93</ele>
        <time>2021-06-23T13:52:14Z</time>
      </trkpt>
      <trkpt lat="48.20087" lon="7.34019">
        <ele>237.45</ele>
        <time>2021-06-23T13:52:18Z</time>
      </trkpt>
      <trkpt lat="48.20054" lon="7.33975">
        <ele>236.89</ele>
        <time>2021-06-23T13:52:22Z</time>
      </trkpt>
      <trkpt lat="48.20022" lon="7.33932">
        <ele>237.66</ele>
        <time>2021-06-23T13:52:26Z</time>
      </trkpt>
      <trkpt lat="48.20013" lon="7.33916">
        <ele>238.53</ele>
        <time>2021-06-23T13:52:29Z</time>
      </trkpt>
      <trkpt lat="48.19981" lon="7.33841">
        <ele>234.69</ele>
        <time>2021-06-23T13:52:33Z</time>
      </trkpt>
      <trkpt lat="48.19968" lon="7.33819">
        <ele>233.78</ele>
        <time>2021-06-23T13:52:37Z</time>
      </trkpt>
      <trkpt lat="48.19955" lon="7.33803">
        <ele>233.43</ele>
        <time>2021-06-23T13:52:41Z</time>
      </trkpt>
      <trkpt lat="48.19889" lon="7.33751">
        <ele>228.04</ele>
        <time>2021-06-23T13:52:45Z</time>
      </trkpt>
      <trkpt lat="48.19871" lon="7.33726">
        <ele>228.58</ele>
        <time>2021-06-23T13:52:48Z</time>
      </trkpt>
      <trkpt lat="48.19853" lon="7.33694">
        <ele>229.16</ele>
        <time>2021-06-23T13:52:52Z</time>
      </trkpt>
      <trkpt lat="48.19815" lon="7.33608">
        <ele>227.2</ele>
        <time>2021-06-23T13:52:56Z</time>
      </trkpt>
      <trkpt lat="48.19808" lon="7.33587">
        <ele>227.9</ele>
        <time>2021-06-23T13:53:00Z</time>
      </trkpt>
      <trkpt lat="48.19786" lon="7.33488">
        <ele>227.58</ele>
        <time>2021-06-23T13:53:03Z</time>
      </trkpt>
      <trkpt lat="48.19772" lon="7.33453">
        <ele>226.3</ele>
        <time>2021-06-23T13:53:07Z</time>
      </trkpt>
      <trkpt lat="48.19733" lon="7.33397">
        <ele>227.17</ele>
        <time>2021-06-23T13:53:11Z</time>
      </trkpt>
      <trkpt lat="48.19637" lon="7.33279">
        <ele>232.88</ele>
        <time>2021-06-23T13:53:15Z</time>
      </trkpt>
      <trkpt lat="48.1962" lon="7.33253">
        <ele>233.46</ele>
        <time>2021-06-23T13:53:18Z</time>
      </trkpt>
      <trkpt lat="48.19585" lon="7.33185">
        <ele>236.04</ele>
        <time>2021-06-23T13:53:22Z</time>
      </trkpt>
      <trkpt lat="48.19522" lon="7.33081">
        <ele>236.46</ele>
        <time>2021-06-23T13:53:26Z</time>
      </trkpt>
      <trkpt lat="48.195" lon="7.33037">
        <ele>235.68</ele>
        <time>2021-06-23T13:53:30Z</time>
      </trkpt>
      <trkpt lat="48.19475" lon="7.32959">
        <ele>235.72</ele>
        <time>2021-06-23T13:53:33Z</time>
      </trkpt>
      <trkpt lat="48.19466" lon="7.32909">
        <ele>236.57</ele>
        <time>2021-06-23T13:53:37Z</time>
      </trkpt>
      <trkpt lat="48.19454" lon="7.32785">
        <ele>239.09</ele>
        <time>2021-06-23T13:53:41Z</time>
      </trkpt>
      <trkpt lat="48.19448" lon="7.32604">
        <ele>240.45</ele>
        <time>2021-06-23T13:53:45Z</time>
      </trkpt>
      <trkpt lat="48.19445" lon="7.3258">
        <ele>240.01</ele>
        <time>2021-06-23T13:53:49Z</time>
      </trkpt>
      <trkpt lat="48.19439" lon="7.32551">
        <ele>240.27</ele>
        <time>2021-06-23T13:53:52Z</time>
      </trkpt>
      <trkpt lat="48.1943" lon="7.32514">
        <ele>241.19</ele>
        <time>2021-06-23T13:53:56Z</time>
      </trkpt>
      <trkpt lat="48.19427" lon="7.32508">
        <ele>241.18</ele>
        <time>2021-06-23T13:54:00Z</time>
      </trkpt>
      <trkpt lat="48.19418" lon="7.325">
        <ele>241.05</ele>
        <time>2021-06-23T13:54:04Z</time>
      </trkpt>
      <trkpt lat="48.19408" lon="7.32496">
        <ele>240.91</ele>
        <time>2021-06-23T13:54:07Z</time>
      </trkpt>
      <trkpt lat="48.19408" lon="7.32496">
        <ele>240.91</ele>
        <time>2021-06-23T13:54:07Z</time>
      </trkpt>
      <trkpt lat="48.19358" lon="7.32477">
        <ele>240.67</ele>
        <time>2021-06-23T13:54:14Z</time>
      </trkpt>
      <trkpt lat="48.19297" lon="7.32454">
        <ele>241.91</ele>
        <time>2021-06-23T13:54:20Z</time>
      </trkpt>
      <trkpt lat="48.19283" lon="7.32461">
        <ele>241.14</ele>
        <time>2021-06-23T13:54:27Z</time>
      </trkpt>
      <trkpt lat="48.19257" lon="7.32464">
        <ele>240.26</ele>
        <time>2021-06-23T13:54:33Z</time>
      </trkpt>
      <trkpt lat="48.19251" lon="7.32467">
        <ele>240.03</ele>
        <time>2021-06-23T13:54:40Z</time>
      </trkpt>
      <trkpt lat="48.19224" lon="7.32462">
        <ele>238.49</ele>
        <time>2021-06-23T13:54:43Z</time>
      </trkpt>
      <trkpt lat="48.19176" lon="7.32468">
        <ele>238.07</ele>
        <time>2021-06-23T13:54:47Z</time>
      </trkpt>
      <trkpt lat="48.19166" lon="7.32465">
        <ele>238.88</ele>
        <time>2021-06-23T13:54:51Z</time>
      </trkpt>
      <trkpt lat="48.19162" lon="7.3246">
        <ele>239.69</ele>
        <time>2021-06-23T13:54:56Z</time>
      </trkpt>
      <trkpt lat="48.19159" lon="7.32459">
        <ele>240.07</ele>
        <time>2021-06-23T13:55:01Z</time>
      </trkpt>
      <trkpt lat="48.19155" lon="7.32461">
        <ele>240.15</ele>
        <time>2021-06-23T13:55:06Z</time>
      </trkpt>
      <trkpt lat="48.19153" lon="7.32467">
        <ele>239.89</ele>
        <time>2021-06-23T13:55:10Z</time>
      </trkpt>
      <trkpt lat="48.19128" lon="7.3249">
        <ele>241.19</ele>
        <time>2021-06-23T13:55:15Z</time>
      </trkpt>
      <trkpt lat="48.19112" lon="7.32497">
        <ele>242.99</ele>
        <time>2021-06-23T13:55:20Z</time>
      </trkpt>
      <trkpt lat="48.19096" lon="7.32505">
        <ele>243.44</ele>
        <time>2021-06-23T13:55:25Z</time>
      </trkpt>
      <trkpt lat="48.19067" lon="7.32511">
        <ele>244.36</ele>
        <time>2021-06-23T13:55:30Z</time>
      </trkpt>
      <trkpt lat="48.19045" lon="7.3251">
        <ele>245.01</ele>
        <time>2021-06-23T13:55:35Z</time>
      </trkpt>
      <trkpt lat="48.1896" lon="7.32498">
        <ele>248.1</ele>
        <time>2021-06-23T13:55:39Z</time>
      </trkpt>
      <trkpt lat="48.1894" lon="7.32491">
        <ele>249.44</ele>
        <time>2021-06-23T13:55:44Z</time>
      </trkpt>
      <trkpt lat="48.18921" lon="7.3249">
        <ele>248.57</ele>
        <time>2021-06-23T13:55:49Z</time>
      </trkpt>
      <trkpt lat="48.18901" lon="7.32492">
        <ele>247.59</ele>
        <time>2021-06-23T13:55:54Z</time>
      </trkpt>
      <trkpt lat="48.18876" lon="7.32501">
        <ele>245.59</ele>
        <time>2021-06-23T13:55:59Z</time>
      </trkpt>
      <trkpt lat="48.18797" lon="7.32521">
        <ele>243.54</ele>
        <time>2021-06-23T13:56:04Z</time>
      </trkpt>
      <trkpt lat="48.18766" lon="7.32522">
        <ele>244.56</ele>
        <time>2021-06-23T13:56:08Z</time>
      </trkpt>
      <trkpt lat="48.1865" lon="7.32512">
        <ele>241.63</ele>
        <time>2021-06-23T13:56:13Z</time>
      </trkpt>
      <trkpt lat="48.18536" lon="7.32496">
        <ele>242.04</ele>
        <time>2021-06-23T13:56:18Z</time>
      </trkpt>
      <trkpt lat="48.18515" lon="7.32492">
        <ele>241.68</ele>
        <time>2021-06-23T13:56:23Z</time>
      </trkpt>
      <trkpt lat="48.18491" lon="7.32484">
        <ele>241.43</ele>
        <time>2021-06-23T13:56:28Z</time>
      </trkpt>
      <trkpt lat="48.18326" lon="7.3241">
        <ele>237.99</ele>
        <time>2021-06-23T13:56:33Z</time>
      </trkpt>
      <trkpt lat="48.18286" lon="7.32388">
        <ele>237.34</ele>
        <time>2021-06-23T13:56:37Z</time>
      </trkpt>
      <trkpt lat="48.1826" lon="7.3237">
        <ele>236.37</ele>
        <time>2021-06-23T13:56:42Z</time>
      </trkpt>
      <trkpt lat="48.1825" lon="7.3236">
        <ele>236.01</ele>
        <time>2021-06-23T13:56:47Z</time>
      </trkpt>
      <trkpt lat="48.18236" lon="7.32352">
        <ele>234.64</ele>
        <time>2021-06-23T13:56:52Z</time>
      </trkpt>
      <trkpt lat="48.18212" lon="7.32343">
        <ele>233.3</ele>
        <time>2021-06-23T13:56:57Z</time>
      </trkpt>
      <trkpt lat="48.18189" lon="7.3234">
        <ele>232.73</ele>
        <time>2021-06-23T13:57:02Z</time>
      </trkpt>
      <trkpt lat="48.1815" lon="7.32348">
        <ele>231.67</ele>
        <time>2021-06-23T13:57:06Z</time>
      </trkpt>
      <trkpt lat="48.18095" lon="7.32379">
        <ele>228.23</ele>
        <time>2021-06-23T13:57:11Z</time>
      </trkpt>
      <trkpt lat="48.18063" lon="7.32393">
        <ele>226.89</ele>
        <time>2021-06-23T13:57:16Z</time>
      </trkpt>
      <trkpt lat="48.18031" lon="7.32404">
        <ele>227.75</ele>
        <time>2021-06-23T13:57:21Z</time>
      </trkpt>
      <trkpt lat="48.17874" lon="7.32422">
        <ele>234.76</ele>
        <time>2021-06-23T13:57:26Z</time>
      </trkpt>
      <trkpt lat="48.17829" lon="7.32421">
        <ele>236.98</ele>
        <time>2021-06-23T13:57:31Z</time>
      </trkpt>
      <trkpt lat="48.17783" lon="7.32412">
        <ele>239.8</ele>
        <time>2021-06-23T13:57:35Z</time>
      </trkpt>
      <trkpt lat="48.17752" lon="7.32401">
        <ele>242.39</ele>
        <time>2021-06-23T13:57:40Z</time>
      </trkpt>
      <trkpt lat="48.1761" lon="7.3234">
        <ele>256.83</ele>
        <time>2021-06-23T13:57:45Z</time>
      </trkpt>
      <trkpt lat="48.17502" lon="7.32301">
        <ele>265.55</ele>
        <time>2021-06-23T13:57:50Z</time>
      </trkpt>
      <trkpt lat="48.17471" lon="7.32284">
        <ele>266.11</ele>
        <time>2021-06-23T13:57:55Z</time>
      </trkpt>
      <trkpt lat="48.17408" lon="7.32228">
        <ele>271.3</ele>
        <time>2021-06-23T13:58:00Z</time>
      </trkpt>
      <trkpt lat="48.17384" lon="7.32215">
        <ele>271.3</ele>
        <time>2021-06-23T13:58:05Z</time>
      </trkpt>
      <trkpt lat="48.17314" lon="7.32189">
        <ele>269.31</ele>
        <time>2021-06-23T13:58:09Z</time>
      </trkpt>
      <trkpt lat="48.1722" lon="7.32151">
        <ele>266.1</ele>
        <time>2021-06-23T13:58:14Z</time>
      </trkpt>
      <trkpt lat="48.17205" lon="7.32142">
        <ele>266.81</ele>
        <time>2021-06-23T13:58:19Z</time>
      </trkpt>
      <trkpt lat="48.17182" lon="7.32118">
        <ele>267.42</ele>
        <time>2021-06-23T13:58:24Z</time>
      </trkpt>
      <trkpt lat="48.17171" lon="7.32101">
        <ele>267.22</ele>
        <time>2021-06-23T13:58:29Z</time>
      </trkpt>
      <trkpt lat="48.17138" lon="7.32034">
        <ele>267.54</ele>
        <time>2021-06-23T13:58:34Z</time>
      </trkpt>
      <trkpt lat="48.17091" lon="7.31937">
        <ele>267.36</ele>
        <time>2021-06-23T13:58:38Z</time>
      </trkpt>
      <trkpt lat="48.17082" lon="7.31917">
        <ele>266.89</ele>
        <time>2021-06-23T13:58:43Z</time>
      </trkpt>
      <trkpt lat="48.17052" lon="7.31839">
        <ele>265</ele>
        <time>2021-06-23T13:58:48Z</time>
      </trkpt>
      <trkpt lat="48.17024" lon="7.3177">
        <ele>265.23</ele>
        <time>2021-06-23T13:58:53Z</time>
      </trkpt>
      <trkpt lat="48.17006" lon="7.31739">
        <ele>265.62</ele>
        <time>2021-06-23T13:58:58Z</time>
      </trkpt>
      <trkpt lat="48.16985" lon="7.31695">
        <ele>266.99</ele>
        <time>2021-06-23T13:59:03Z</time>
      </trkpt>
      <trkpt lat="48.16956" lon="7.31628">
        <ele>267.46</ele>
        <time>2021-06-23T13:59:07Z</time>
      </trkpt>
      <trkpt lat="48.16934" lon="7.31579">
        <ele>267.88</ele>
        <time>2021-06-23T13:59:12Z</time>
      </trkpt>
      <trkpt lat="48.16913" lon="7.31545">
        <ele>268.57</ele>
        <time>2021-06-23T13:59:17Z</time>
      </trkpt>
      <trkpt lat="48.16889" lon="7.31517">
        <ele>268.83</ele>
        <time>2021-06-23T13:59:22Z</time>
      </trkpt>
      <trkpt lat="48.16809" lon="7.31434">
        <ele>262.92</ele>
        <time>2021-06-23T13:59:27Z</time>
      </trkpt>
      <trkpt lat="48.16782" lon="7.31413">
        <ele>260.32</ele>
        <time>2021-06-23T13:59:32Z</time>
      </trkpt>
      <trkpt lat="48.16761" lon="7.31402">
        <ele>259.72</ele>
        <time>2021-06-23T13:59:36Z</time>
      </trkpt>
      <trkpt lat="48.16741" lon="7.31395">
        <ele>259.72</ele>
        <time>2021-06-23T13:59:41Z</time>
      </trkpt>
      <trkpt lat="48.1658" lon="7.31368">
        <ele>251.97</ele>
        <time>2021-06-23T13:59:46Z</time>
      </trkpt>
      <trkpt lat="48.16541" lon="7.31364">
        <ele>251.5</ele>
        <time>2021-06-23T13:59:51Z</time>
      </trkpt>
      <trkpt lat="48.16541" lon="7.31364">
        <ele>251.5</ele>
        <time>2021-06-23T13:59:51Z</time>
      </trkpt>
      <trkpt lat="48.16529" lon="7.31363">
        <ele>251.04</ele>
        <time>2021-06-23T13:59:54Z</time>
      </trkpt>
      <trkpt lat="48.16492" lon="7.31366">
        <ele>250</ele>
        <time>2021-06-23T13:59:57Z</time>
      </trkpt>
      <trkpt lat="48.16459" lon="7.31375">
        <ele>250.47</ele>
        <time>2021-06-23T14:00:00Z</time>
      </trkpt>
      <trkpt lat="48.16436" lon="7.31387">
        <ele>251</ele>
        <time>2021-06-23T14:00:03Z</time>
      </trkpt>
      <trkpt lat="48.16405" lon="7.31408">
        <ele>251</ele>
        <time>2021-06-23T14:00:06Z</time>
      </trkpt>
      <trkpt lat="48.16379" lon="7.31432">
        <ele>250.45</ele>
        <time>2021-06-23T14:00:09Z</time>
      </trkpt>
      <trkpt lat="48.16363" lon="7.3145">
        <ele>249.79</ele>
        <time>2021-06-23T14:00:12Z</time>
      </trkpt>
      <trkpt lat="48.16186" lon="7.31712">
        <ele>246.27</ele>
        <time>2021-06-23T14:00:15Z</time>
      </trkpt>
      <trkpt lat="48.16155" lon="7.3175">
        <ele>245.17</ele>
        <time>2021-06-23T14:00:18Z</time>
      </trkpt>
      <trkpt lat="48.1614" lon="7.31765">
        <ele>243.5</ele>
        <time>2021-06-23T14:00:21Z</time>
      </trkpt>
      <trkpt lat="48.16113" lon="7.31783">
        <ele>240.9</ele>
        <time>2021-06-23T14:00:24Z</time>
      </trkpt>
      <trkpt lat="48.16088" lon="7.31794">
        <ele>239.21</ele>
        <time>2021-06-23T14:00:27Z</time>
      </trkpt>
      <trkpt lat="48.16043" lon="7.31802">
        <ele>239.45</ele>
        <time>2021-06-23T14:00:30Z</time>
      </trkpt>
      <trkpt lat="48.16026" lon="7.31803">
        <ele>239.92</ele>
        <time>2021-06-23T14:00:33Z</time>
      </trkpt>
      <trkpt lat="48.15985" lon="7.31818">
        <ele>237.42</ele>
        <time>2021-06-23T14:00:36Z</time>
      </trkpt>
      <trkpt lat="48.15968" lon="7.3182">
        <ele>235.65</ele>
        <time>2021-06-23T14:00:39Z</time>
      </trkpt>
      <trkpt lat="48.15961" lon="7.31814">
        <ele>235.07</ele>
        <time>2021-06-23T14:00:44Z</time>
      </trkpt>
      <trkpt lat="48.15949" lon="7.31812">
        <ele>234.09</ele>
        <time>2021-06-23T14:00:50Z</time>
      </trkpt>
      <trkpt lat="48.15937" lon="7.31819">
        <ele>233.77</ele>
        <time>2021-06-23T14:00:56Z</time>
      </trkpt>
      <trkpt lat="48.15929" lon="7.31833">
        <ele>233.56</ele>
        <time>2021-06-23T14:01:01Z</time>
      </trkpt>
      <trkpt lat="48.15926" lon="7.31851">
        <ele>233.24</ele>
        <time>2021-06-23T14:01:07Z</time>
      </trkpt>
      <trkpt lat="48.15922" lon="7.31867">
        <ele>232.83</ele>
        <time>2021-06-23T14:01:13Z</time>
      </trkpt>
      <trkpt lat="48.15916" lon="7.31878">
        <ele>232.4</ele>
        <time>2021-06-23T14:01:19Z</time>
      </trkpt>
      <trkpt lat="48.15892" lon="7.31918">
        <ele>232.05</ele>
        <time>2021-06-23T14:01:24Z</time>
      </trkpt>
      <trkpt lat="48.15872" lon="7.31938">
        <ele>232.16</ele>
        <time>2021-06-23T14:01:30Z</time>
      </trkpt>
      <trkpt lat="48.15844" lon="7.31961">
        <ele>232.89</ele>
        <time>2021-06-23T14:01:36Z</time>
      </trkpt>
      <trkpt lat="48.15815" lon="7.31975">
        <ele>233.57</ele>
        <time>2021-06-23T14:01:41Z</time>
      </trkpt>
      <trkpt lat="48.15802" lon="7.31979">
        <ele>233.31</ele>
        <time>2021-06-23T14:01:47Z</time>
      </trkpt>
      <trkpt lat="48.15767" lon="7.31984">
        <ele>232.26</ele>
        <time>2021-06-23T14:01:53Z</time>
      </trkpt>
      <trkpt lat="48.15616" lon="7.31987">
        <ele>230.1</ele>
        <time>2021-06-23T14:01:58Z</time>
      </trkpt>
      <trkpt lat="48.15539" lon="7.31993">
        <ele>229.77</ele>
        <time>2021-06-23T14:02:04Z</time>
      </trkpt>
      <trkpt lat="48.15492" lon="7.32002">
        <ele>226.02</ele>
        <time>2021-06-23T14:02:10Z</time>
      </trkpt>
      <trkpt lat="48.15441" lon="7.32018">
        <ele>224.5</ele>
        <time>2021-06-23T14:02:16Z</time>
      </trkpt>
      <trkpt lat="48.15319" lon="7.3208">
        <ele>220.28</ele>
        <time>2021-06-23T14:02:21Z</time>
      </trkpt>
      <trkpt lat="48.15264" lon="7.32099">
        <ele>220.96</ele>
        <time>2021-06-23T14:02:27Z</time>
      </trkpt>
      <trkpt lat="48.15247" lon="7.32104">
        <ele>222.14</ele>
        <time>2021-06-23T14:02:33Z</time>
      </trkpt>
      <trkpt lat="48.15235" lon="7.32105">
        <ele>222.65</ele>
        <time>2021-06-23T14:02:38Z</time>
      </trkpt>
      <trkpt lat="48.15184" lon="7.32102">
        <ele>224.21</ele>
        <time>2021-06-23T14:02:44Z</time>
      </trkpt>
      <trkpt lat="48.1513" lon="7.32091">
        <ele>223</ele>
        <time>2021-06-23T14:02:50Z</time>
      </trkpt>
      <trkpt lat="48.15068" lon="7.32075">
        <ele>222.68</ele>
        <time>2021-06-23T14:02:55Z</time>
      </trkpt>
      <trkpt lat="48.15034" lon="7.32075">
        <ele>223.77</ele>
        <time>2021-06-23T14:03:01Z</time>
      </trkpt>
      <trkpt lat="48.1501" lon="7.3208">
        <ele>224.64</ele>
        <time>2021-06-23T14:03:07Z</time>
      </trkpt>
      <trkpt lat="48.14937" lon="7.3212">
        <ele>221.83</ele>
        <time>2021-06-23T14:03:13Z</time>
      </trkpt>
      <trkpt lat="48.14873" lon="7.32165">
        <ele>220.53</ele>
        <time>2021-06-23T14:03:18Z</time>
      </trkpt>
      <trkpt lat="48.14695" lon="7.32303">
        <ele>213.12</ele>
        <time>2021-06-23T14:03:24Z</time>
      </trkpt>
      <trkpt lat="48.14679" lon="7.32314">
        <ele>212.71</ele>
        <time>2021-06-23T14:03:30Z</time>
      </trkpt>
      <trkpt lat="48.14603" lon="7.32359">
        <ele>209.09</ele>
        <time>2021-06-23T14:03:35Z</time>
      </trkpt>
      <trkpt lat="48.1448" lon="7.32427">
        <ele>206.54</ele>
        <time>2021-06-23T14:03:41Z</time>
      </trkpt>
      <trkpt lat="48.14405" lon="7.32458">
        <ele>206.22</ele>
        <time>2021-06-23T14:03:47Z</time>
      </trkpt>
      <trkpt lat="48.1438" lon="7.32465">
        <ele>206.27</ele>
        <time>2021-06-23T14:03:52Z</time>
      </trkpt>
      <trkpt lat="48.13995" lon="7.32525">
        <ele>204.14</ele>
        <time>2021-06-23T14:03:58Z</time>
      </trkpt>
      <trkpt lat="48.13979" lon="7.3253">
        <ele>203.37</ele>
        <time>2021-06-23T14:04:04Z</time>
      </trkpt>
      <trkpt lat="48.13979" lon="7.3253">
        <ele>203.37</ele>
        <time>2021-06-23T14:04:04Z</time>
      </trkpt>
      <trkpt lat="48.13969" lon="7.32533">
        <ele>202.61</ele>
        <time>2021-06-23T14:04:06Z</time>
      </trkpt>
      <trkpt lat="48.13916" lon="7.32508">
        <ele>203.36</ele>
        <time>2021-06-23T14:04:09Z</time>
      </trkpt>
      <trkpt lat="48.13898" lon="7.32494">
        <ele>203.02</ele>
        <time>2021-06-23T14:04:11Z</time>
      </trkpt>
      <trkpt lat="48.13847" lon="7.32446">
        <ele>201.98</ele>
        <time>2021-06-23T14:04:14Z</time>
      </trkpt>
      <trkpt lat="48.13826" lon="7.32422">
        <ele>201.21</ele>
        <time>2021-06-23T14:04:16Z</time>
      </trkpt>
      <trkpt lat="48.13807" lon="7.32395">
        <ele>202.77</ele>
        <time>2021-06-23T14:04:19Z</time>
      </trkpt>
      <trkpt lat="48.13769" lon="7.32319">
        <ele>206</ele>
        <time>2021-06-23T14:04:21Z</time>
      </trkpt>
      <trkpt lat="48.13761" lon="7.32306">
        <ele>206</ele>
        <time>2021-06-23T14:04:24Z</time>
      </trkpt>
      <trkpt lat="48.13736" lon="7.32277">
        <ele>206.54</ele>
        <time>2021-06-23T14:04:26Z</time>
      </trkpt>
      <trkpt lat="48.13677" lon="7.32224">
        <ele>206.29</ele>
        <time>2021-06-23T14:04:29Z</time>
      </trkpt>
      <trkpt lat="48.13658" lon="7.32202">
        <ele>206.19</ele>
        <time>2021-06-23T14:04:31Z</time>
      </trkpt>
      <trkpt lat="48.13581" lon="7.32093">
        <ele>203.56</ele>
        <time>2021-06-23T14:04:34Z</time>
      </trkpt>
      <trkpt lat="48.13495" lon="7.3199">
        <ele>199.55</ele>
        <time>2021-06-23T14:04:36Z</time>
      </trkpt>
      <trkpt lat="48.13432" lon="7.31911">
        <ele>199.76</ele>
        <time>2021-06-23T14:04:39Z</time>
      </trkpt>
      <trkpt lat="48.13412" lon="7.31889">
        <ele>199.8</ele>
        <time>2021-06-23T14:04:41Z</time>
      </trkpt>
      <trkpt lat="48.13386" lon="7.31873">
        <ele>199</ele>
        <time>2021-06-23T14:04:44Z</time>
      </trkpt>
      <trkpt lat="48.13341" lon="7.31852">
        <ele>198.63</ele>
        <time>2021-06-23T14:04:46Z</time>
      </trkpt>
      <trkpt lat="48.13306" lon="7.31828">
        <ele>198.22</ele>
        <time>2021-06-23T14:04:49Z</time>
      </trkpt>
      <trkpt lat="48.13299" lon="7.31816">
        <ele>198.71</ele>
        <time>2021-06-23T14:04:51Z</time>
      </trkpt>
      <trkpt lat="48.13291" lon="7.31799">
        <ele>199.24</ele>
        <time>2021-06-23T14:04:55Z</time>
      </trkpt>
      <trkpt lat="48.13286" lon="7.31794">
        <ele>199.43</ele>
        <time>2021-06-23T14:05:00Z</time>
      </trkpt>
      <trkpt lat="48.13278" lon="7.3179">
        <ele>199.56</ele>
        <time>2021-06-23T14:05:04Z</time>
      </trkpt>
      <trkpt lat="48.13255" lon="7.31795">
        <ele>199.06</ele>
        <time>2021-06-23T14:05:08Z</time>
      </trkpt>
      <trkpt lat="48.13246" lon="7.31792">
        <ele>199</ele>
        <time>2021-06-23T14:05:13Z</time>
      </trkpt>
      <trkpt lat="48.13233" lon="7.31785">
        <ele>199</ele>
        <time>2021-06-23T14:05:17Z</time>
      </trkpt>
      <trkpt lat="48.13195" lon="7.31751">
        <ele>199</ele>
        <time>2021-06-23T14:05:21Z</time>
      </trkpt>
      <trkpt lat="48.13169" lon="7.31722">
        <ele>199</ele>
        <time>2021-06-23T14:05:25Z</time>
      </trkpt>
      <trkpt lat="48.13095" lon="7.31624">
        <ele>203</ele>
        <time>2021-06-23T14:05:30Z</time>
      </trkpt>
      <trkpt lat="48.13043" lon="7.31563">
        <ele>203.07</ele>
        <time>2021-06-23T14:05:34Z</time>
      </trkpt>
      <trkpt lat="48.12935" lon="7.31451">
        <ele>201.79</ele>
        <time>2021-06-23T14:05:38Z</time>
      </trkpt>
      <trkpt lat="48.12901" lon="7.31427">
        <ele>200.44</ele>
        <time>2021-06-23T14:05:43Z</time>
      </trkpt>
      <trkpt lat="48.12872" lon="7.31411">
        <ele>200</ele>
        <time>2021-06-23T14:05:47Z</time>
      </trkpt>
      <trkpt lat="48.12766" lon="7.31377">
        <ele>201</ele>
        <time>2021-06-23T14:05:51Z</time>
      </trkpt>
      <trkpt lat="48.12719" lon="7.31359">
        <ele>200.08</ele>
        <time>2021-06-23T14:05:56Z</time>
      </trkpt>
      <trkpt lat="48.12666" lon="7.31329">
        <ele>200</ele>
        <time>2021-06-23T14:06:00Z</time>
      </trkpt>
      <trkpt lat="48.12487" lon="7.3121">
        <ele>202</ele>
        <time>2021-06-23T14:06:04Z</time>
      </trkpt>
      <trkpt lat="48.12414" lon="7.31162">
        <ele>200.08</ele>
        <time>2021-06-23T14:06:08Z</time>
      </trkpt>
      <trkpt lat="48.12249" lon="7.31063">
        <ele>200.96</ele>
        <time>2021-06-23T14:06:13Z</time>
      </trkpt>
      <trkpt lat="48.12121" lon="7.3098">
        <ele>201</ele>
        <time>2021-06-23T14:06:17Z</time>
      </trkpt>
      <trkpt lat="48.1208" lon="7.30944">
        <ele>200.13</ele>
        <time>2021-06-23T14:06:21Z</time>
      </trkpt>
      <trkpt lat="48.12056" lon="7.30918">
        <ele>200.99</ele>
        <time>2021-06-23T14:06:26Z</time>
      </trkpt>
      <trkpt lat="48.12033" lon="7.30888">
        <ele>201</ele>
        <time>2021-06-23T14:06:30Z</time>
      </trkpt>
      <trkpt lat="48.11975" lon="7.30798">
        <ele>201.26</ele>
        <time>2021-06-23T14:06:34Z</time>
      </trkpt>
      <trkpt lat="48.11947" lon="7.30758">
        <ele>201.75</ele>
        <time>2021-06-23T14:06:39Z</time>
      </trkpt>
      <trkpt lat="48.11896" lon="7.30701">
        <ele>201.75</ele>
        <time>2021-06-23T14:06:43Z</time>
      </trkpt>
      <trkpt lat="48.11844" lon="7.30653">
        <ele>201</ele>
        <time>2021-06-23T14:06:47Z</time>
      </trkpt>
      <trkpt lat="48.11793" lon="7.3062">
        <ele>199.31</ele>
        <time>2021-06-23T14:06:51Z</time>
      </trkpt>
      <trkpt lat="48.11738" lon="7.30593">
        <ele>200.61</ele>
        <time>2021-06-23T14:06:56Z</time>
      </trkpt>
      <trkpt lat="48.11705" lon="7.30583">
        <ele>201.61</ele>
        <time>2021-06-23T14:07:00Z</time>
      </trkpt>
      <trkpt lat="48.11515" lon="7.3054">
        <ele>205</ele>
        <time>2021-06-23T14:07:04Z</time>
      </trkpt>
      <trkpt lat="48.11487" lon="7.30536">
        <ele>204.53</ele>
        <time>2021-06-23T14:07:09Z</time>
      </trkpt>
      <trkpt lat="48.11463" lon="7.30536">
        <ele>204.24</ele>
        <time>2021-06-23T14:07:13Z</time>
      </trkpt>
      <trkpt lat="48.11247" lon="7.3056">
        <ele>203.96</ele>
        <time>2021-06-23T14:07:17Z</time>
      </trkpt>
      <trkpt lat="48.10997" lon="7.30561">
        <ele>205.98</ele>
        <time>2021-06-23T14:07:22Z</time>
      </trkpt>
      <trkpt lat="48.10868" lon="7.30541">
        <ele>206.01</ele>
        <time>2021-06-23T14:07:26Z</time>
      </trkpt>
      <trkpt lat="48.10818" lon="7.30524">
        <ele>206.54</ele>
        <time>2021-06-23T14:07:30Z</time>
      </trkpt>
      <trkpt lat="48.10714" lon="7.3048">
        <ele>206.71</ele>
        <time>2021-06-23T14:07:35Z</time>
      </trkpt>
      <trkpt lat="48.1066" lon="7.30464">
        <ele>205.57</ele>
        <time>2021-06-23T14:07:39Z</time>
      </trkpt>
      <trkpt lat="48.10548" lon="7.30443">
        <ele>209.02</ele>
        <time>2021-06-23T14:07:43Z</time>
      </trkpt>
      <trkpt lat="48.10442" lon="7.30395">
        <ele>207.89</ele>
        <time>2021-06-23T14:07:47Z</time>
      </trkpt>
      <trkpt lat="48.10419" lon="7.30379">
        <ele>209.29</ele>
        <time>2021-06-23T14:07:52Z</time>
      </trkpt>
      <trkpt lat="48.10409" lon="7.30356">
        <ele>210.7</ele>
        <time>2021-06-23T14:07:56Z</time>
      </trkpt>
      <trkpt lat="48.10401" lon="7.30325">
        <ele>212.41</ele>
        <time>2021-06-23T14:08:00Z</time>
      </trkpt>
      <trkpt lat="48.10403" lon="7.30315">
        <ele>212.66</ele>
        <time>2021-06-23T14:08:04Z</time>
      </trkpt>
      <trkpt lat="48.10403" lon="7.30303">
        <ele>213.02</ele>
        <time>2021-06-23T14:08:07Z</time>
      </trkpt>
      <trkpt lat="48.10398" lon="7.30288">
        <ele>213.32</ele>
        <time>2021-06-23T14:08:10Z</time>
      </trkpt>
      <trkpt lat="48.10394" lon="7.3028">
        <ele>213.64</ele>
        <time>2021-06-23T14:08:13Z</time>
      </trkpt>
      <trkpt lat="48.10387" lon="7.30274">
        <ele>213.99</ele>
        <time>2021-06-23T14:08:17Z</time>
      </trkpt>
      <trkpt lat="48.10374" lon="7.3027">
        <ele>213.84</ele>
        <time>2021-06-23T14:08:20Z</time>
      </trkpt>
      <trkpt lat="48.10366" lon="7.30273">
        <ele>213.86</ele>
        <time>2021-06-23T14:08:23Z</time>
      </trkpt>
      <trkpt lat="48.10358" lon="7.3028">
        <ele>213.78</ele>
        <time>2021-06-23T14:08:26Z</time>
      </trkpt>
      <trkpt lat="48.10324" lon="7.3028">
        <ele>211.67</ele>
        <time>2021-06-23T14:08:29Z</time>
      </trkpt>
      <trkpt lat="48.10307" lon="7.30283">
        <ele>211.05</ele>
        <time>2021-06-23T14:08:33Z</time>
      </trkpt>
      <trkpt lat="48.10281" lon="7.30298">
        <ele>211.9</ele>
        <time>2021-06-23T14:08:36Z</time>
      </trkpt>
      <trkpt lat="48.10268" lon="7.30301">
        <ele>212.34</ele>
        <time>2021-06-23T14:08:39Z</time>
      </trkpt>
      <trkpt lat="48.10256" lon="7.30301">
        <ele>212.77</ele>
        <time>2021-06-23T14:08:42Z</time>
      </trkpt>
      <trkpt lat="48.10187" lon="7.30276">
        <ele>214</ele>
        <time>2021-06-23T14:08:46Z</time>
      </trkpt>
      <trkpt lat="48.10129" lon="7.30266">
        <ele>214.95</ele>
        <time>2021-06-23T14:08:49Z</time>
      </trkpt>
      <trkpt lat="48.10062" lon="7.30259">
        <ele>218.44</ele>
        <time>2021-06-23T14:08:52Z</time>
      </trkpt>
      <trkpt lat="48.09953" lon="7.30245">
        <ele>219.05</ele>
        <time>2021-06-23T14:08:55Z</time>
      </trkpt>
      <trkpt lat="48.09908" lon="7.30243">
        <ele>217.7</ele>
        <time>2021-06-23T14:08:59Z</time>
      </trkpt>
      <trkpt lat="48.09888" lon="7.30245">
        <ele>217</ele>
        <time>2021-06-23T14:09:02Z</time>
      </trkpt>
      <trkpt lat="48.09842" lon="7.30251">
        <ele>217.67</ele>
        <time>2021-06-23T14:09:12Z</time>
      </trkpt>
      <trkpt lat="48.09771" lon="7.3025">
        <ele>218</ele>
        <time>2021-06-23T14:09:22Z</time>
      </trkpt>
      <trkpt lat="48.09742" lon="7.30254">
        <ele>218.29</ele>
        <time>2021-06-23T14:09:32Z</time>
      </trkpt>
      <trkpt lat="48.09729" lon="7.30258">
        <ele>218.77</ele>
        <time>2021-06-23T14:09:42Z</time>
      </trkpt>
      <trkpt lat="48.09711" lon="7.3027">
        <ele>219.42</ele>
        <time>2021-06-23T14:09:52Z</time>
      </trkpt>
      <trkpt lat="48.09699" lon="7.30284">
        <ele>219.84</ele>
        <time>2021-06-23T14:10:02Z</time>
      </trkpt>
      <trkpt lat="48.09616" lon="7.30385">
        <ele>218.02</ele>
        <time>2021-06-23T14:10:12Z</time>
      </trkpt>
      <trkpt lat="48.09611" lon="7.30366">
        <ele>218.19</ele>
        <time>2021-06-23T14:10:13Z</time>
      </trkpt>
      <trkpt lat="48.09611" lon="7.30366">
        <ele>218.19</ele>
        <time>2021-06-23T14:10:13Z</time>
      </trkpt>
      <trkpt lat="48.09592" lon="7.30231">
        <ele>218.93</ele>
        <time>2021-06-23T14:10:16Z</time>
      </trkpt>
      <trkpt lat="48.09592" lon="7.30207">
        <ele>219.92</ele>
        <time>2021-06-23T14:10:19Z</time>
      </trkpt>
      <trkpt lat="48.09596" lon="7.3018">
        <ele>220.12</ele>
        <time>2021-06-23T14:10:22Z</time>
      </trkpt>
      <trkpt lat="48.09601" lon="7.30158">
        <ele>219.9</ele>
        <time>2021-06-23T14:10:24Z</time>
      </trkpt>
      <trkpt lat="48.0961" lon="7.30137">
        <ele>220.04</ele>
        <time>2021-06-23T14:10:27Z</time>
      </trkpt>
      <trkpt lat="48.09619" lon="7.30121">
        <ele>219.62</ele>
        <time>2021-06-23T14:10:30Z</time>
      </trkpt>
      <trkpt lat="48.09639" lon="7.30094">
        <ele>219.6</ele>
        <time>2021-06-23T14:10:33Z</time>
      </trkpt>
      <trkpt lat="48.09661" lon="7.30081">
        <ele>220.07</ele>
        <time>2021-06-23T14:10:36Z</time>
      </trkpt>
      <trkpt lat="48.0972" lon="7.30062">
        <ele>221.73</ele>
        <time>2021-06-23T14:10:39Z</time>
      </trkpt>
      <trkpt lat="48.09743" lon="7.3005">
        <ele>222.79</ele>
        <time>2021-06-23T14:10:42Z</time>
      </trkpt>
      <trkpt lat="48.09748" lon="7.30041">
        <ele>222.96</ele>
        <time>2021-06-23T14:10:44Z</time>
      </trkpt>
      <trkpt lat="48.09796" lon="7.29924">
        <ele>224.73</ele>
        <time>2021-06-23T14:10:47Z</time>
      </trkpt>
      <trkpt lat="48.09798" lon="7.29916">
        <ele>225.01</ele>
        <time>2021-06-23T14:10:50Z</time>
      </trkpt>
      <trkpt lat="48.09799" lon="7.29905">
        <ele>225.1</ele>
        <time>2021-06-23T14:10:53Z</time>
      </trkpt>
      <trkpt lat="48.09804" lon="7.2978">
        <ele>225.29</ele>
        <time>2021-06-23T14:10:56Z</time>
      </trkpt>
      <trkpt lat="48.09821" lon="7.29602">
        <ele>229.85</ele>
        <time>2021-06-23T14:10:59Z</time>
      </trkpt>
      <trkpt lat="48.09827" lon="7.29548">
        <ele>231.49</ele>
        <time>2021-06-23T14:11:01Z</time>
      </trkpt>
      <trkpt lat="48.09835" lon="7.29507">
        <ele>232.8</ele>
        <time>2021-06-23T14:11:04Z</time>
      </trkpt>
      <trkpt lat="48.09845" lon="7.29471">
        <ele>234.45</ele>
        <time>2021-06-23T14:11:07Z</time>
      </trkpt>
      <trkpt lat="48.09858" lon="7.29427">
        <ele>236.54</ele>
        <time>2021-06-23T14:11:10Z</time>
      </trkpt>
      <trkpt lat="48.09993" lon="7.29054">
        <ele>251.07</ele>
        <time>2021-06-23T14:11:13Z</time>
      </trkpt>
      <trkpt lat="48.10033" lon="7.28941">
        <ele>254.47</ele>
        <time>2021-06-23T14:11:16Z</time>
      </trkpt>
      <trkpt lat="48.10041" lon="7.28905">
        <ele>253.52</ele>
        <time>2021-06-23T14:11:18Z</time>
      </trkpt>
      <trkpt lat="48.10061" lon="7.2878">
        <ele>254.6</ele>
        <time>2021-06-23T14:11:21Z</time>
      </trkpt>
      <trkpt lat="48.10063" lon="7.28741">
        <ele>255.91</ele>
        <time>2021-06-23T14:11:24Z</time>
      </trkpt>
      <trkpt lat="48.10061" lon="7.28553">
        <ele>260.67</ele>
        <time>2021-06-23T14:11:27Z</time>
      </trkpt>
      <trkpt lat="48.10057" lon="7.28514">
        <ele>261.75</ele>
        <time>2021-06-23T14:11:30Z</time>
      </trkpt>
      <trkpt lat="48.10051" lon="7.28483">
        <ele>262.89</ele>
        <time>2021-06-23T14:11:33Z</time>
      </trkpt>
      <trkpt lat="48.10043" lon="7.28459">
        <ele>263.54</ele>
        <time>2021-06-23T14:11:36Z</time>
      </trkpt>
      <trkpt lat="48.10031" lon="7.28436">
        <ele>263.3</ele>
        <time>2021-06-23T14:11:38Z</time>
      </trkpt>
      <trkpt lat="48.10001" lon="7.28378">
        <ele>265.39</ele>
        <time>2021-06-23T14:11:41Z</time>
      </trkpt>
      <trkpt lat="48.09975" lon="7.28343">
        <ele>267.64</ele>
        <time>2021-06-23T14:11:44Z</time>
      </trkpt>
      <trkpt lat="48.09942" lon="7.28302">
        <ele>270.19</ele>
        <time>2021-06-23T14:11:47Z</time>
      </trkpt>
      <trkpt lat="48.09931" lon="7.28284">
        <ele>271.38</ele>
        <time>2021-06-23T14:11:50Z</time>
      </trkpt>
      <trkpt lat="48.09919" lon="7.28248">
        <ele>272.99</ele>
        <time>2021-06-23T14:11:53Z</time>
      </trkpt>
      <trkpt lat="48.09914" lon="7.28198">
        <ele>275.86</ele>
        <time>2021-06-23T14:11:55Z</time>
      </trkpt>
      <trkpt lat="48.09917" lon="7.28037">
        <ele>281.65</ele>
        <time>2021-06-23T14:11:58Z</time>
      </trkpt>
      <trkpt lat="48.0992" lon="7.27995">
        <ele>283.26</ele>
        <time>2021-06-23T14:12:01Z</time>
      </trkpt>
      <trkpt lat="48.09931" lon="7.27892">
        <ele>287.4</ele>
        <time>2021-06-23T14:12:04Z</time>
      </trkpt>
      <trkpt lat="48.09963" lon="7.27794">
        <ele>292.14</ele>
        <time>2021-06-23T14:12:07Z</time>
      </trkpt>
      <trkpt lat="48.09969" lon="7.27767">
        <ele>294.55</ele>
        <time>2021-06-23T14:12:10Z</time>
      </trkpt>
      <trkpt lat="48.09978" lon="7.27669">
        <ele>295.7</ele>
        <time>2021-06-23T14:12:13Z</time>
      </trkpt>
      <trkpt lat="48.09979" lon="7.27634">
        <ele>297.86</ele>
        <time>2021-06-23T14:12:15Z</time>
      </trkpt>
      <trkpt lat="48.09971" lon="7.2759">
        <ele>302.44</ele>
        <time>2021-06-23T14:12:18Z</time>
      </trkpt>
      <trkpt lat="48.0997" lon="7.27556">
        <ele>307.02</ele>
        <time>2021-06-23T14:12:21Z</time>
      </trkpt>
      <trkpt lat="48.09973" lon="7.27439">
        <ele>311.3</ele>
        <time>2021-06-23T14:12:24Z</time>
      </trkpt>
      <trkpt lat="48.09976" lon="7.2741">
        <ele>312.61</ele>
        <time>2021-06-23T14:12:27Z</time>
      </trkpt>
      <trkpt lat="48.09977" lon="7.27359">
        <ele>312.34</ele>
        <time>2021-06-23T14:12:30Z</time>
      </trkpt>
      <trkpt lat="48.09973" lon="7.27325">
        <ele>312.59</ele>
        <time>2021-06-23T14:12:32Z</time>
      </trkpt>
      <trkpt lat="48.09971" lon="7.27244">
        <ele>312.04</ele>
        <time>2021-06-23T14:12:35Z</time>
      </trkpt>
      <trkpt lat="48.09974" lon="7.27219">
        <ele>312.11</ele>
        <time>2021-06-23T14:12:38Z</time>
      </trkpt>
      <trkpt lat="48.09998" lon="7.27131">
        <ele>317.99</ele>
        <time>2021-06-23T14:12:41Z</time>
      </trkpt>
      <trkpt lat="48.10032" lon="7.27026">
        <ele>323.72</ele>
        <time>2021-06-23T14:12:44Z</time>
      </trkpt>
      <trkpt lat="48.10048" lon="7.26993">
        <ele>325.27</ele>
        <time>2021-06-23T14:12:47Z</time>
      </trkpt>
      <trkpt lat="48.10072" lon="7.26958">
        <ele>325.68</ele>
        <time>2021-06-23T14:12:50Z</time>
      </trkpt>
      <trkpt lat="48.10109" lon="7.26879">
        <ele>329.34</ele>
        <time>2021-06-23T14:12:52Z</time>
      </trkpt>
      <trkpt lat="48.10114" lon="7.26866">
        <ele>330.16</ele>
        <time>2021-06-23T14:12:55Z</time>
      </trkpt>
      <trkpt lat="48.1012" lon="7.26839">
        <ele>332.08</ele>
        <time>2021-06-23T14:12:58Z</time>
      </trkpt>
      <trkpt lat="48.10127" lon="7.26791">
        <ele>336.47</ele>
        <time>2021-06-23T14:13:01Z</time>
      </trkpt>
      <trkpt lat="48.10128" lon="7.26736">
        <ele>344.14</ele>
        <time>2021-06-23T14:13:04Z</time>
      </trkpt>
      <trkpt lat="48.10123" lon="7.26593">
        <ele>355.47</ele>
        <time>2021-06-23T14:13:07Z</time>
      </trkpt>
      <trkpt lat="48.10118" lon="7.26517">
        <ele>360.24</ele>
        <time>2021-06-23T14:13:09Z</time>
      </trkpt>
      <trkpt lat="48.10094" lon="7.2633">
        <ele>366.23</ele>
        <time>2021-06-23T14:13:12Z</time>
      </trkpt>
      <trkpt lat="48.10075" lon="7.26137">
        <ele>373.34</ele>
        <time>2021-06-23T14:13:15Z</time>
      </trkpt>
      <trkpt lat="48.10069" lon="7.26096">
        <ele>370.86</ele>
        <time>2021-06-23T14:13:18Z</time>
      </trkpt>
      <trkpt lat="48.10065" lon="7.26081">
        <ele>370.39</ele>
        <time>2021-06-23T14:13:21Z</time>
      </trkpt>
      <trkpt lat="48.10059" lon="7.26067">
        <ele>371.44</ele>
        <time>2021-06-23T14:13:24Z</time>
      </trkpt>
      <trkpt lat="48.10028" lon="7.26007">
        <ele>379.17</ele>
        <time>2021-06-23T14:13:26Z</time>
      </trkpt>
      <trkpt lat="48.10026" lon="7.26001">
        <ele>379.59</ele>
        <time>2021-06-23T14:13:29Z</time>
      </trkpt>
      <trkpt lat="48.10025" lon="7.25988">
        <ele>381.17</ele>
        <time>2021-06-23T14:13:32Z</time>
      </trkpt>
      <trkpt lat="48.10027" lon="7.25966">
        <ele>383.43</ele>
        <time>2021-06-23T14:13:35Z</time>
      </trkpt>
      <trkpt lat="48.10046" lon="7.25908">
        <ele>392.96</ele>
        <time>2021-06-23T14:13:38Z</time>
      </trkpt>
      <trkpt lat="48.10055" lon="7.25864">
        <ele>396.77</ele>
        <time>2021-06-23T14:13:41Z</time>
      </trkpt>
      <trkpt lat="48.10057" lon="7.25844">
        <ele>398.17</ele>
        <time>2021-06-23T14:13:44Z</time>
      </trkpt>
      <trkpt lat="48.10064" lon="7.25813">
        <ele>399.58</ele>
        <time>2021-06-23T14:13:46Z</time>
      </trkpt>
      <trkpt lat="48.10067" lon="7.25804">
        <ele>399.46</ele>
        <time>2021-06-23T14:13:49Z</time>
      </trkpt>
      <trkpt lat="48.10079" lon="7.25783">
        <ele>398</ele>
        <time>2021-06-23T14:13:52Z</time>
      </trkpt>
      <trkpt lat="48.10101" lon="7.25755">
        <ele>399.37</ele>
        <time>2021-06-23T14:13:55Z</time>
      </trkpt>
      <trkpt lat="48.10115" lon="7.25732">
        <ele>400.44</ele>
        <time>2021-06-23T14:13:58Z</time>
      </trkpt>
      <trkpt lat="48.1012" lon="7.25721">
        <ele>400.93</ele>
        <time>2021-06-23T14:14:01Z</time>
      </trkpt>
      <trkpt lat="48.10125" lon="7.25701">
        <ele>401.83</ele>
        <time>2021-06-23T14:14:03Z</time>
      </trkpt>
      <trkpt lat="48.10128" lon="7.25681">
        <ele>402.76</ele>
        <time>2021-06-23T14:14:06Z</time>
      </trkpt>
      <trkpt lat="48.10143" lon="7.25515">
        <ele>412.99</ele>
        <time>2021-06-23T14:14:09Z</time>
      </trkpt>
      <trkpt lat="48.10135" lon="7.25445">
        <ele>416.92</ele>
        <time>2021-06-23T14:14:12Z</time>
      </trkpt>
      <trkpt lat="48.10135" lon="7.25402">
        <ele>427.1</ele>
        <time>2021-06-23T14:14:15Z</time>
      </trkpt>
      <trkpt lat="48.10133" lon="7.2539">
        <ele>429.28</ele>
        <time>2021-06-23T14:14:18Z</time>
      </trkpt>
      <trkpt lat="48.10127" lon="7.25382">
        <ele>430.05</ele>
        <time>2021-06-23T14:14:21Z</time>
      </trkpt>
      <trkpt lat="48.1012" lon="7.25381">
        <ele>429.55</ele>
        <time>2021-06-23T14:14:23Z</time>
      </trkpt>
      <trkpt lat="48.10113" lon="7.25384">
        <ele>428.57</ele>
        <time>2021-06-23T14:14:26Z</time>
      </trkpt>
      <trkpt lat="48.1011" lon="7.25393">
        <ele>428.17</ele>
        <time>2021-06-23T14:14:29Z</time>
      </trkpt>
      <trkpt lat="48.10109" lon="7.25409">
        <ele>427</ele>
        <time>2021-06-23T14:14:32Z</time>
      </trkpt>
      <trkpt lat="48.10117" lon="7.25439">
        <ele>422.16</ele>
        <time>2021-06-23T14:14:35Z</time>
      </trkpt>
      <trkpt lat="48.10123" lon="7.25482">
        <ele>417.72</ele>
        <time>2021-06-23T14:14:38Z</time>
      </trkpt>
      <trkpt lat="48.10121" lon="7.25509">
        <ele>418.73</ele>
        <time>2021-06-23T14:14:40Z</time>
      </trkpt>
      <trkpt lat="48.10114" lon="7.2553">
        <ele>420.19</ele>
        <time>2021-06-23T14:14:43Z</time>
      </trkpt>
      <trkpt lat="48.10101" lon="7.25554">
        <ele>424.56</ele>
        <time>2021-06-23T14:14:46Z</time>
      </trkpt>
      <trkpt lat="48.1006" lon="7.25612">
        <ele>437.38</ele>
        <time>2021-06-23T14:14:49Z</time>
      </trkpt>
      <trkpt lat="48.10021" lon="7.25691">
        <ele>435.88</ele>
        <time>2021-06-23T14:14:52Z</time>
      </trkpt>
      <trkpt lat="48.09993" lon="7.25755">
        <ele>433.25</ele>
        <time>2021-06-23T14:14:55Z</time>
      </trkpt>
      <trkpt lat="48.09979" lon="7.25782">
        <ele>432.82</ele>
        <time>2021-06-23T14:14:57Z</time>
      </trkpt>
      <trkpt lat="48.09973" lon="7.25788">
        <ele>432.72</ele>
        <time>2021-06-23T14:15:00Z</time>
      </trkpt>
      <trkpt lat="48.09962" lon="7.25789">
        <ele>433.64</ele>
        <time>2021-06-23T14:15:03Z</time>
      </trkpt>
      <trkpt lat="48.09956" lon="7.25787">
        <ele>434.86</ele>
        <time>2021-06-23T14:15:06Z</time>
      </trkpt>
      <trkpt lat="48.09923" lon="7.25761">
        <ele>442.75</ele>
        <time>2021-06-23T14:15:09Z</time>
      </trkpt>
      <trkpt lat="48.09891" lon="7.25739">
        <ele>454.36</ele>
        <time>2021-06-23T14:15:12Z</time>
      </trkpt>
      <trkpt lat="48.09878" lon="7.25734">
        <ele>457.17</ele>
        <time>2021-06-23T14:15:15Z</time>
      </trkpt>
      <trkpt lat="48.09863" lon="7.25734">
        <ele>457.73</ele>
        <time>2021-06-23T14:15:17Z</time>
      </trkpt>
      <trkpt lat="48.09835" lon="7.25741">
        <ele>458.46</ele>
        <time>2021-06-23T14:15:20Z</time>
      </trkpt>
      <trkpt lat="48.0982" lon="7.25753">
        <ele>458.33</ele>
        <time>2021-06-23T14:15:23Z</time>
      </trkpt>
      <trkpt lat="48.09804" lon="7.25782">
        <ele>459.39</ele>
        <time>2021-06-23T14:15:26Z</time>
      </trkpt>
      <trkpt lat="48.09791" lon="7.25816">
        <ele>463.24</ele>
        <time>2021-06-23T14:15:29Z</time>
      </trkpt>
      <trkpt lat="48.09786" lon="7.25843">
        <ele>465.08</ele>
        <time>2021-06-23T14:15:32Z</time>
      </trkpt>
      <trkpt lat="48.09779" lon="7.26072">
        <ele>466.9</ele>
        <time>2021-06-23T14:15:34Z</time>
      </trkpt>
      <trkpt lat="48.09776" lon="7.26105">
        <ele>465.24</ele>
        <time>2021-06-23T14:15:37Z</time>
      </trkpt>
      <trkpt lat="48.09758" lon="7.26163">
        <ele>463.1</ele>
        <time>2021-06-23T14:15:40Z</time>
      </trkpt>
      <trkpt lat="48.09754" lon="7.26171">
        <ele>463.42</ele>
        <time>2021-06-23T14:15:43Z</time>
      </trkpt>
      <trkpt lat="48.09746" lon="7.26178">
        <ele>464.48</ele>
        <time>2021-06-23T14:15:46Z</time>
      </trkpt>
      <trkpt lat="48.0974" lon="7.26178">
        <ele>465.55</ele>
        <time>2021-06-23T14:15:49Z</time>
      </trkpt>
      <trkpt lat="48.09735" lon="7.26175">
        <ele>466.7</ele>
        <time>2021-06-23T14:15:52Z</time>
      </trkpt>
      <trkpt lat="48.09731" lon="7.2617">
        <ele>467.97</ele>
        <time>2021-06-23T14:15:54Z</time>
      </trkpt>
      <trkpt lat="48.0973" lon="7.26164">
        <ele>468.97</ele>
        <time>2021-06-23T14:15:57Z</time>
      </trkpt>
      <trkpt lat="48.0973" lon="7.26149">
        <ele>470.58</ele>
        <time>2021-06-23T14:16:00Z</time>
      </trkpt>
      <trkpt lat="48.09737" lon="7.26126">
        <ele>471.99</ele>
        <time>2021-06-23T14:16:03Z</time>
      </trkpt>
      <trkpt lat="48.09741" lon="7.26105">
        <ele>473.54</ele>
        <time>2021-06-23T14:16:06Z</time>
      </trkpt>
      <trkpt lat="48.09743" lon="7.26087">
        <ele>474.17</ele>
        <time>2021-06-23T14:16:09Z</time>
      </trkpt>
      <trkpt lat="48.09727" lon="7.25857">
        <ele>489.33</ele>
        <time>2021-06-23T14:16:11Z</time>
      </trkpt>
      <trkpt lat="48.09724" lon="7.25834">
        <ele>492.09</ele>
        <time>2021-06-23T14:16:14Z</time>
      </trkpt>
      <trkpt lat="48.09711" lon="7.25762">
        <ele>492.5</ele>
        <time>2021-06-23T14:16:17Z</time>
      </trkpt>
      <trkpt lat="48.09696" lon="7.25701">
        <ele>494.77</ele>
        <time>2021-06-23T14:16:20Z</time>
      </trkpt>
      <trkpt lat="48.09693" lon="7.25682">
        <ele>495.88</ele>
        <time>2021-06-23T14:16:23Z</time>
      </trkpt>
      <trkpt lat="48.09694" lon="7.25664">
        <ele>497.33</ele>
        <time>2021-06-23T14:16:26Z</time>
      </trkpt>
      <trkpt lat="48.09696" lon="7.25655">
        <ele>498.63</ele>
        <time>2021-06-23T14:16:28Z</time>
      </trkpt>
      <trkpt lat="48.09702" lon="7.25641">
        <ele>500.43</ele>
        <time>2021-06-23T14:16:31Z</time>
      </trkpt>
      <trkpt lat="48.09709" lon="7.25632">
        <ele>502.17</ele>
        <time>2021-06-23T14:16:34Z</time>
      </trkpt>
      <trkpt lat="48.09758" lon="7.25587">
        <ele>509.17</ele>
        <time>2021-06-23T14:16:37Z</time>
      </trkpt>
      <trkpt lat="48.09778" lon="7.25575">
        <ele>513.43</ele>
        <time>2021-06-23T14:16:40Z</time>
      </trkpt>
      <trkpt lat="48.09802" lon="7.25567">
        <ele>514.99</ele>
        <time>2021-06-23T14:16:43Z</time>
      </trkpt>
      <trkpt lat="48.09864" lon="7.25557">
        <ele>514.66</ele>
        <time>2021-06-23T14:16:46Z</time>
      </trkpt>
      <trkpt lat="48.09881" lon="7.25552">
        <ele>511.14</ele>
        <time>2021-06-23T14:16:48Z</time>
      </trkpt>
      <trkpt lat="48.09894" lon="7.25541">
        <ele>510.24</ele>
        <time>2021-06-23T14:16:51Z</time>
      </trkpt>
      <trkpt lat="48.09908" lon="7.25515">
        <ele>511.43</ele>
        <time>2021-06-23T14:16:54Z</time>
      </trkpt>
      <trkpt lat="48.09918" lon="7.25481">
        <ele>514.29</ele>
        <time>2021-06-23T14:16:57Z</time>
      </trkpt>
      <trkpt lat="48.0992" lon="7.25454">
        <ele>516.95</ele>
        <time>2021-06-23T14:17:00Z</time>
      </trkpt>
      <trkpt lat="48.09919" lon="7.25414">
        <ele>519.89</ele>
        <time>2021-06-23T14:17:03Z</time>
      </trkpt>
      <trkpt lat="48.09915" lon="7.25385">
        <ele>523.92</ele>
        <time>2021-06-23T14:17:05Z</time>
      </trkpt>
      <trkpt lat="48.09878" lon="7.25256">
        <ele>538.81</ele>
        <time>2021-06-23T14:17:08Z</time>
      </trkpt>
      <trkpt lat="48.09868" lon="7.25207">
        <ele>538.95</ele>
        <time>2021-06-23T14:17:11Z</time>
      </trkpt>
      <trkpt lat="48.09862" lon="7.25156">
        <ele>541.64</ele>
        <time>2021-06-23T14:17:14Z</time>
      </trkpt>
      <trkpt lat="48.09855" lon="7.2507">
        <ele>540.35</ele>
        <time>2021-06-23T14:17:17Z</time>
      </trkpt>
      <trkpt lat="48.09852" lon="7.24985">
        <ele>541.37</ele>
        <time>2021-06-23T14:17:20Z</time>
      </trkpt>
      <trkpt lat="48.09843" lon="7.24939">
        <ele>547.22</ele>
        <time>2021-06-23T14:17:23Z</time>
      </trkpt>
      <trkpt lat="48.09813" lon="7.24814">
        <ele>553.39</ele>
        <time>2021-06-23T14:17:25Z</time>
      </trkpt>
      <trkpt lat="48.09803" lon="7.24731">
        <ele>557.93</ele>
        <time>2021-06-23T14:17:28Z</time>
      </trkpt>
      <trkpt lat="48.0979" lon="7.24564">
        <ele>567.04</ele>
        <time>2021-06-23T14:17:31Z</time>
      </trkpt>
      <trkpt lat="48.09792" lon="7.24546">
        <ele>568.16</ele>
        <time>2021-06-23T14:17:34Z</time>
      </trkpt>
      <trkpt lat="48.09796" lon="7.24527">
        <ele>570.24</ele>
        <time>2021-06-23T14:17:37Z</time>
      </trkpt>
      <trkpt lat="48.09805" lon="7.24508">
        <ele>570.88</ele>
        <time>2021-06-23T14:17:40Z</time>
      </trkpt>
      <trkpt lat="48.09849" lon="7.24445">
        <ele>569.97</ele>
        <time>2021-06-23T14:17:42Z</time>
      </trkpt>
      <trkpt lat="48.09864" lon="7.24404">
        <ele>573.84</ele>
        <time>2021-06-23T14:17:45Z</time>
      </trkpt>
      <trkpt lat="48.09879" lon="7.24352">
        <ele>577.16</ele>
        <time>2021-06-23T14:17:48Z</time>
      </trkpt>
      <trkpt lat="48.09888" lon="7.24275">
        <ele>576.14</ele>
        <time>2021-06-23T14:17:51Z</time>
      </trkpt>
      <trkpt lat="48.09887" lon="7.24226">
        <ele>574.59</ele>
        <time>2021-06-23T14:17:54Z</time>
      </trkpt>
      <trkpt lat="48.09884" lon="7.24206">
        <ele>575.28</ele>
        <time>2021-06-23T14:17:57Z</time>
      </trkpt>
      <trkpt lat="48.09868" lon="7.24146">
        <ele>581.14</ele>
        <time>2021-06-23T14:18:00Z</time>
      </trkpt>
      <trkpt lat="48.09867" lon="7.24134">
        <ele>581.47</ele>
        <time>2021-06-23T14:18:02Z</time>
      </trkpt>
      <trkpt lat="48.09869" lon="7.24103">
        <ele>581.81</ele>
        <time>2021-06-23T14:18:05Z</time>
      </trkpt>
      <trkpt lat="48.09875" lon="7.2407">
        <ele>582.24</ele>
        <time>2021-06-23T14:18:08Z</time>
      </trkpt>
      <trkpt lat="48.09885" lon="7.24025">
        <ele>584.7</ele>
        <time>2021-06-23T14:18:11Z</time>
      </trkpt>
      <trkpt lat="48.09886" lon="7.24009">
        <ele>586</ele>
        <time>2021-06-23T14:18:14Z</time>
      </trkpt>
      <trkpt lat="48.09883" lon="7.23989">
        <ele>587.75</ele>
        <time>2021-06-23T14:18:17Z</time>
      </trkpt>
      <trkpt lat="48.09867" lon="7.23958">
        <ele>589.98</ele>
        <time>2021-06-23T14:18:19Z</time>
      </trkpt>
      <trkpt lat="48.09859" lon="7.23934">
        <ele>590.88</ele>
        <time>2021-06-23T14:18:22Z</time>
      </trkpt>
      <trkpt lat="48.09858" lon="7.23918">
        <ele>591.73</ele>
        <time>2021-06-23T14:18:25Z</time>
      </trkpt>
      <trkpt lat="48.09859" lon="7.23894">
        <ele>593.26</ele>
        <time>2021-06-23T14:18:28Z</time>
      </trkpt>
      <trkpt lat="48.09866" lon="7.23847">
        <ele>596.41</ele>
        <time>2021-06-23T14:18:31Z</time>
      </trkpt>
      <trkpt lat="48.09873" lon="7.23829">
        <ele>598.3</ele>
        <time>2021-06-23T14:18:34Z</time>
      </trkpt>
      <trkpt lat="48.0989" lon="7.23798">
        <ele>601.92</ele>
        <time>2021-06-23T14:18:36Z</time>
      </trkpt>
      <trkpt lat="48.09924" lon="7.23752">
        <ele>606.05</ele>
        <time>2021-06-23T14:18:39Z</time>
      </trkpt>
      <trkpt lat="48.09943" lon="7.2373">
        <ele>610.24</ele>
        <time>2021-06-23T14:18:42Z</time>
      </trkpt>
      <trkpt lat="48.09949" lon="7.23721">
        <ele>611.85</ele>
        <time>2021-06-23T14:18:45Z</time>
      </trkpt>
      <trkpt lat="48.09954" lon="7.23702">
        <ele>613.99</ele>
        <time>2021-06-23T14:18:48Z</time>
      </trkpt>
      <trkpt lat="48.09955" lon="7.23671">
        <ele>619.53</ele>
        <time>2021-06-23T14:18:51Z</time>
      </trkpt>
      <trkpt lat="48.09952" lon="7.23657">
        <ele>621.45</ele>
        <time>2021-06-23T14:18:54Z</time>
      </trkpt>
      <trkpt lat="48.09946" lon="7.23641">
        <ele>622.41</ele>
        <time>2021-06-23T14:18:56Z</time>
      </trkpt>
      <trkpt lat="48.09935" lon="7.23615">
        <ele>623.88</ele>
        <time>2021-06-23T14:18:59Z</time>
      </trkpt>
      <trkpt lat="48.09924" lon="7.23596">
        <ele>624.48</ele>
        <time>2021-06-23T14:19:02Z</time>
      </trkpt>
      <trkpt lat="48.09866" lon="7.23531">
        <ele>622.18</ele>
        <time>2021-06-23T14:19:05Z</time>
      </trkpt>
      <trkpt lat="48.09826" lon="7.23494">
        <ele>621.53</ele>
        <time>2021-06-23T14:19:08Z</time>
      </trkpt>
      <trkpt lat="48.09812" lon="7.23475">
        <ele>621.74</ele>
        <time>2021-06-23T14:19:11Z</time>
      </trkpt>
      <trkpt lat="48.0981" lon="7.23463">
        <ele>622.63</ele>
        <time>2021-06-23T14:19:13Z</time>
      </trkpt>
      <trkpt lat="48.0981" lon="7.23457">
        <ele>623.31</ele>
        <time>2021-06-23T14:19:16Z</time>
      </trkpt>
      <trkpt lat="48.09815" lon="7.23445">
        <ele>625.21</ele>
        <time>2021-06-23T14:19:19Z</time>
      </trkpt>
      <trkpt lat="48.0982" lon="7.23438">
        <ele>626.02</ele>
        <time>2021-06-23T14:19:22Z</time>
      </trkpt>
      <trkpt lat="48.09828" lon="7.23452">
        <ele>626.42</ele>
        <time>2021-06-23T14:19:25Z</time>
      </trkpt>
      <trkpt lat="48.09839" lon="7.23463">
        <ele>626.56</ele>
        <time>2021-06-23T14:19:27Z</time>
      </trkpt>
      <trkpt lat="48.09845" lon="7.23466">
        <ele>626.85</ele>
        <time>2021-06-23T14:19:30Z</time>
      </trkpt>
      <trkpt lat="48.09856" lon="7.23468">
        <ele>627.74</ele>
        <time>2021-06-23T14:19:32Z</time>
      </trkpt>
      <trkpt lat="48.09869" lon="7.23462">
        <ele>630.14</ele>
        <time>2021-06-23T14:19:35Z</time>
      </trkpt>
      <trkpt lat="48.09877" lon="7.23455">
        <ele>632.12</ele>
        <time>2021-06-23T14:19:37Z</time>
      </trkpt>
      <trkpt lat="48.09881" lon="7.23446">
        <ele>633.58</ele>
        <time>2021-06-23T14:19:40Z</time>
      </trkpt>
      <trkpt lat="48.09885" lon="7.23425">
        <ele>634.37</ele>
        <time>2021-06-23T14:19:42Z</time>
      </trkpt>
      <trkpt lat="48.09892" lon="7.23352">
        <ele>631.43</ele>
        <time>2021-06-23T14:19:45Z</time>
      </trkpt>
      <trkpt lat="48.09896" lon="7.2334">
        <ele>632.2</ele>
        <time>2021-06-23T14:19:47Z</time>
      </trkpt>
      <trkpt lat="48.09905" lon="7.23333">
        <ele>634.04</ele>
        <time>2021-06-23T14:19:50Z</time>
      </trkpt>
      <trkpt lat="48.09916" lon="7.23339">
        <ele>637.13</ele>
        <time>2021-06-23T14:19:52Z</time>
      </trkpt>
      <trkpt lat="48.0992" lon="7.23348">
        <ele>639.09</ele>
        <time>2021-06-23T14:19:55Z</time>
      </trkpt>
      <trkpt lat="48.0992" lon="7.23354">
        <ele>639.71</ele>
        <time>2021-06-23T14:19:57Z</time>
      </trkpt>
      <trkpt lat="48.09917" lon="7.23399">
        <ele>641.13</ele>
        <time>2021-06-23T14:20:00Z</time>
      </trkpt>
      <trkpt lat="48.0992" lon="7.23421">
        <ele>641.97</ele>
        <time>2021-06-23T14:20:02Z</time>
      </trkpt>
      <trkpt lat="48.09927" lon="7.23446">
        <ele>645.25</ele>
        <time>2021-06-23T14:20:05Z</time>
      </trkpt>
      <trkpt lat="48.09931" lon="7.23451">
        <ele>646.8</ele>
        <time>2021-06-23T14:20:07Z</time>
      </trkpt>
      <trkpt lat="48.09936" lon="7.23453">
        <ele>648.55</ele>
        <time>2021-06-23T14:20:10Z</time>
      </trkpt>
      <trkpt lat="48.09942" lon="7.23449">
        <ele>650.09</ele>
        <time>2021-06-23T14:20:12Z</time>
      </trkpt>
      <trkpt lat="48.09943" lon="7.23438">
        <ele>650.21</ele>
        <time>2021-06-23T14:20:15Z</time>
      </trkpt>
      <trkpt lat="48.09932" lon="7.23403">
        <ele>645</ele>
        <time>2021-06-23T14:20:17Z</time>
      </trkpt>
      <trkpt lat="48.09931" lon="7.23391">
        <ele>644.54</ele>
        <time>2021-06-23T14:20:20Z</time>
      </trkpt>
      <trkpt lat="48.09932" lon="7.23375">
        <ele>644.36</ele>
        <time>2021-06-23T14:20:22Z</time>
      </trkpt>
      <trkpt lat="48.09937" lon="7.23358">
        <ele>645.46</ele>
        <time>2021-06-23T14:20:25Z</time>
      </trkpt>
      <trkpt lat="48.09974" lon="7.2328">
        <ele>654.6</ele>
        <time>2021-06-23T14:20:27Z</time>
      </trkpt>
      <trkpt lat="48.09983" lon="7.23243">
        <ele>653.95</ele>
        <time>2021-06-23T14:20:30Z</time>
      </trkpt>
      <trkpt lat="48.09984" lon="7.23175">
        <ele>655.07</ele>
        <time>2021-06-23T14:20:32Z</time>
      </trkpt>
      <trkpt lat="48.0998" lon="7.23141">
        <ele>657.16</ele>
        <time>2021-06-23T14:20:35Z</time>
      </trkpt>
      <trkpt lat="48.09977" lon="7.23122">
        <ele>657.78</ele>
        <time>2021-06-23T14:20:37Z</time>
      </trkpt>
      <trkpt lat="48.09964" lon="7.23073">
        <ele>660.66</ele>
        <time>2021-06-23T14:20:40Z</time>
      </trkpt>
      <trkpt lat="48.09953" lon="7.23043">
        <ele>661.73</ele>
        <time>2021-06-23T14:20:42Z</time>
      </trkpt>
      <trkpt lat="48.0994" lon="7.23028">
        <ele>661.72</ele>
        <time>2021-06-23T14:20:45Z</time>
      </trkpt>
      <trkpt lat="48.09927" lon="7.23019">
        <ele>661.36</ele>
        <time>2021-06-23T14:20:47Z</time>
      </trkpt>
      <trkpt lat="48.09856" lon="7.22984">
        <ele>660.57</ele>
        <time>2021-06-23T14:20:50Z</time>
      </trkpt>
      <trkpt lat="48.09811" lon="7.22949">
        <ele>671.69</ele>
        <time>2021-06-23T14:20:52Z</time>
      </trkpt>
      <trkpt lat="48.09753" lon="7.22892">
        <ele>677.43</ele>
        <time>2021-06-23T14:20:55Z</time>
      </trkpt>
      <trkpt lat="48.09743" lon="7.2288">
        <ele>675.68</ele>
        <time>2021-06-23T14:20:57Z</time>
      </trkpt>
      <trkpt lat="48.09737" lon="7.22863">
        <ele>674.7</ele>
        <time>2021-06-23T14:21:00Z</time>
      </trkpt>
      <trkpt lat="48.09734" lon="7.22842">
        <ele>675.67</ele>
        <time>2021-06-23T14:21:02Z</time>
      </trkpt>
      <trkpt lat="48.09737" lon="7.22816">
        <ele>677.65</ele>
        <time>2021-06-23T14:21:05Z</time>
      </trkpt>
      <trkpt lat="48.09761" lon="7.22757">
        <ele>679.65</ele>
        <time>2021-06-23T14:21:07Z</time>
      </trkpt>
      <trkpt lat="48.09786" lon="7.22688">
        <ele>676.5</ele>
        <time>2021-06-23T14:21:10Z</time>
      </trkpt>
      <trkpt lat="48.09796" lon="7.22653">
        <ele>677.12</ele>
        <time>2021-06-23T14:21:12Z</time>
      </trkpt>
      <trkpt lat="48.09801" lon="7.22621">
        <ele>677.61</ele>
        <time>2021-06-23T14:21:15Z</time>
      </trkpt>
      <trkpt lat="48.09805" lon="7.2257">
        <ele>678.93</ele>
        <time>2021-06-23T14:21:17Z</time>
      </trkpt>
      <trkpt lat="48.09808" lon="7.22495">
        <ele>678.54</ele>
        <time>2021-06-23T14:21:20Z</time>
      </trkpt>
      <trkpt lat="48.09811" lon="7.22455">
        <ele>678.61</ele>
        <time>2021-06-23T14:21:22Z</time>
      </trkpt>
      <trkpt lat="48.09816" lon="7.22426">
        <ele>679.9</ele>
        <time>2021-06-23T14:21:25Z</time>
      </trkpt>
      <trkpt lat="48.09836" lon="7.22343">
        <ele>681.32</ele>
        <time>2021-06-23T14:21:28Z</time>
      </trkpt>
      <trkpt lat="48.09845" lon="7.22296">
        <ele>683.57</ele>
        <time>2021-06-23T14:21:30Z</time>
      </trkpt>
      <trkpt lat="48.09843" lon="7.22265">
        <ele>683.28</ele>
        <time>2021-06-23T14:21:33Z</time>
      </trkpt>
      <trkpt lat="48.09831" lon="7.22209">
        <ele>681.58</ele>
        <time>2021-06-23T14:21:35Z</time>
      </trkpt>
      <trkpt lat="48.09822" lon="7.22148">
        <ele>683.18</ele>
        <time>2021-06-23T14:21:38Z</time>
      </trkpt>
      <trkpt lat="48.0982" lon="7.2212">
        <ele>685.53</ele>
        <time>2021-06-23T14:21:40Z</time>
      </trkpt>
      <trkpt lat="48.09818" lon="7.22052">
        <ele>687.45</ele>
        <time>2021-06-23T14:21:43Z</time>
      </trkpt>
      <trkpt lat="48.09812" lon="7.2198">
        <ele>688.51</ele>
        <time>2021-06-23T14:21:45Z</time>
      </trkpt>
      <trkpt lat="48.09807" lon="7.2195">
        <ele>688.17</ele>
        <time>2021-06-23T14:21:48Z</time>
      </trkpt>
      <trkpt lat="48.09797" lon="7.2192">
        <ele>687.43</ele>
        <time>2021-06-23T14:21:50Z</time>
      </trkpt>
      <trkpt lat="48.09782" lon="7.21882">
        <ele>687.45</ele>
        <time>2021-06-23T14:21:53Z</time>
      </trkpt>
      <trkpt lat="48.09771" lon="7.21846">
        <ele>687.73</ele>
        <time>2021-06-23T14:21:55Z</time>
      </trkpt>
      <trkpt lat="48.09764" lon="7.21814">
        <ele>688.83</ele>
        <time>2021-06-23T14:21:58Z</time>
      </trkpt>
      <trkpt lat="48.09762" lon="7.21793">
        <ele>689.45</ele>
        <time>2021-06-23T14:22:00Z</time>
      </trkpt>
      <trkpt lat="48.09761" lon="7.21756">
        <ele>691.63</ele>
        <time>2021-06-23T14:22:03Z</time>
      </trkpt>
      <trkpt lat="48.09766" lon="7.21715">
        <ele>694.64</ele>
        <time>2021-06-23T14:22:05Z</time>
      </trkpt>
      <trkpt lat="48.09775" lon="7.2168">
        <ele>695.39</ele>
        <time>2021-06-23T14:22:08Z</time>
      </trkpt>
      <trkpt lat="48.098" lon="7.21599">
        <ele>701.47</ele>
        <time>2021-06-23T14:22:10Z</time>
      </trkpt>
      <trkpt lat="48.09806" lon="7.21584">
        <ele>704.81</ele>
        <time>2021-06-23T14:22:13Z</time>
      </trkpt>
      <trkpt lat="48.09812" lon="7.21574">
        <ele>707.56</ele>
        <time>2021-06-23T14:22:15Z</time>
      </trkpt>
      <trkpt lat="48.09822" lon="7.21566">
        <ele>708.74</ele>
        <time>2021-06-23T14:22:18Z</time>
      </trkpt>
      <trkpt lat="48.09832" lon="7.21565">
        <ele>707.86</ele>
        <time>2021-06-23T14:22:20Z</time>
      </trkpt>
      <trkpt lat="48.09845" lon="7.21571">
        <ele>705.85</ele>
        <time>2021-06-23T14:22:23Z</time>
      </trkpt>
      <trkpt lat="48.09899" lon="7.2162">
        <ele>707.12</ele>
        <time>2021-06-23T14:22:25Z</time>
      </trkpt>
      <trkpt lat="48.09915" lon="7.21631">
        <ele>708.81</ele>
        <time>2021-06-23T14:22:28Z</time>
      </trkpt>
      <trkpt lat="48.09927" lon="7.21635">
        <ele>709.47</ele>
        <time>2021-06-23T14:22:30Z</time>
      </trkpt>
      <trkpt lat="48.09937" lon="7.21635">
        <ele>709.92</ele>
        <time>2021-06-23T14:22:33Z</time>
      </trkpt>
      <trkpt lat="48.09949" lon="7.21632">
        <ele>710.69</ele>
        <time>2021-06-23T14:22:35Z</time>
      </trkpt>
      <trkpt lat="48.0998" lon="7.21614">
        <ele>712.55</ele>
        <time>2021-06-23T14:22:38Z</time>
      </trkpt>
      <trkpt lat="48.1001" lon="7.21585">
        <ele>712.22</ele>
        <time>2021-06-23T14:22:40Z</time>
      </trkpt>
      <trkpt lat="48.10021" lon="7.2157">
        <ele>711.5</ele>
        <time>2021-06-23T14:22:43Z</time>
      </trkpt>
      <trkpt lat="48.10025" lon="7.21561">
        <ele>711.23</ele>
        <time>2021-06-23T14:22:45Z</time>
      </trkpt>
      <trkpt lat="48.10028" lon="7.2154">
        <ele>710.99</ele>
        <time>2021-06-23T14:22:48Z</time>
      </trkpt>
      <trkpt lat="48.10025" lon="7.21517">
        <ele>711.57</ele>
        <time>2021-06-23T14:22:50Z</time>
      </trkpt>
      <trkpt lat="48.10019" lon="7.21503">
        <ele>712.24</ele>
        <time>2021-06-23T14:22:53Z</time>
      </trkpt>
      <trkpt lat="48.09986" lon="7.21433">
        <ele>715.35</ele>
        <time>2021-06-23T14:22:55Z</time>
      </trkpt>
      <trkpt lat="48.09976" lon="7.21396">
        <ele>717.62</ele>
        <time>2021-06-23T14:22:58Z</time>
      </trkpt>
      <trkpt lat="48.09948" lon="7.21199">
        <ele>728.07</ele>
        <time>2021-06-23T14:23:00Z</time>
      </trkpt>
      <trkpt lat="48.09921" lon="7.21079">
        <ele>736.91</ele>
        <time>2021-06-23T14:23:03Z</time>
      </trkpt>
      <trkpt lat="48.09912" lon="7.21047">
        <ele>739.36</ele>
        <time>2021-06-23T14:23:05Z</time>
      </trkpt>
      <trkpt lat="48.09881" lon="7.20983">
        <ele>740.54</ele>
        <time>2021-06-23T14:23:08Z</time>
      </trkpt>
      <trkpt lat="48.0987" lon="7.20957">
        <ele>739.83</ele>
        <time>2021-06-23T14:23:10Z</time>
      </trkpt>
      <trkpt lat="48.09863" lon="7.20931">
        <ele>739.29</ele>
        <time>2021-06-23T14:23:13Z</time>
      </trkpt>
      <trkpt lat="48.09845" lon="7.20774">
        <ele>739.32</ele>
        <time>2021-06-23T14:23:15Z</time>
      </trkpt>
      <trkpt lat="48.09841" lon="7.20666">
        <ele>741.53</ele>
        <time>2021-06-23T14:23:18Z</time>
      </trkpt>
      <trkpt lat="48.09835" lon="7.20578">
        <ele>744.88</ele>
        <time>2021-06-23T14:23:20Z</time>
      </trkpt>
      <trkpt lat="48.0983" lon="7.20532">
        <ele>746.32</ele>
        <time>2021-06-23T14:23:23Z</time>
      </trkpt>
      <trkpt lat="48.09827" lon="7.20519">
        <ele>746.85</ele>
        <time>2021-06-23T14:23:25Z</time>
      </trkpt>
      <trkpt lat="48.0982" lon="7.20507">
        <ele>747.53</ele>
        <time>2021-06-23T14:23:28Z</time>
      </trkpt>
      <trkpt lat="48.09806" lon="7.20489">
        <ele>748.58</ele>
        <time>2021-06-23T14:23:30Z</time>
      </trkpt>
      <trkpt lat="48.09796" lon="7.20483">
        <ele>748.53</ele>
        <time>2021-06-23T14:23:33Z</time>
      </trkpt>
      <trkpt lat="48.0967" lon="7.20443">
        <ele>750.78</ele>
        <time>2021-06-23T14:23:35Z</time>
      </trkpt>
      <trkpt lat="48.09582" lon="7.20425">
        <ele>751.64</ele>
        <time>2021-06-23T14:23:38Z</time>
      </trkpt>
      <trkpt lat="48.09542" lon="7.20401">
        <ele>753.41</ele>
        <time>2021-06-23T14:23:40Z</time>
      </trkpt>
      <trkpt lat="48.09532" lon="7.20403">
        <ele>754.59</ele>
        <time>2021-06-23T14:23:42Z</time>
      </trkpt>
      <trkpt lat="48.09519" lon="7.20397">
        <ele>756.05</ele>
        <time>2021-06-23T14:23:43Z</time>
      </trkpt>
      <trkpt lat="48.09472" lon="7.20366">
        <ele>763.92</ele>
        <time>2021-06-23T14:23:45Z</time>
      </trkpt>
      <trkpt lat="48.09461" lon="7.20363">
        <ele>765.89</ele>
        <time>2021-06-23T14:23:47Z</time>
      </trkpt>
      <trkpt lat="48.09457" lon="7.20367">
        <ele>766.52</ele>
        <time>2021-06-23T14:23:49Z</time>
      </trkpt>
      <trkpt lat="48.09452" lon="7.2038">
        <ele>767.01</ele>
        <time>2021-06-23T14:23:52Z</time>
      </trkpt>
      <trkpt lat="48.0944" lon="7.2043">
        <ele>765.78</ele>
        <time>2021-06-23T14:23:54Z</time>
      </trkpt>
      <trkpt lat="48.09436" lon="7.20436">
        <ele>765.88</ele>
        <time>2021-06-23T14:23:57Z</time>
      </trkpt>
      <trkpt lat="48.09429" lon="7.2044">
        <ele>766.71</ele>
        <time>2021-06-23T14:23:59Z</time>
      </trkpt>
      <trkpt lat="48.09419" lon="7.20437">
        <ele>768.42</ele>
        <time>2021-06-23T14:24:02Z</time>
      </trkpt>
      <trkpt lat="48.09324" lon="7.20388">
        <ele>779.09</ele>
        <time>2021-06-23T14:24:04Z</time>
      </trkpt>
      <trkpt lat="48.09272" lon="7.20344">
        <ele>782.28</ele>
        <time>2021-06-23T14:24:07Z</time>
      </trkpt>
      <trkpt lat="48.09234" lon="7.20309">
        <ele>784.76</ele>
        <time>2021-06-23T14:24:10Z</time>
      </trkpt>
      <trkpt lat="48.09224" lon="7.20297">
        <ele>785.61</ele>
        <time>2021-06-23T14:24:12Z</time>
      </trkpt>
      <trkpt lat="48.09211" lon="7.20277">
        <ele>785.87</ele>
        <time>2021-06-23T14:24:15Z</time>
      </trkpt>
      <trkpt lat="48.09182" lon="7.2021">
        <ele>788.02</ele>
        <time>2021-06-23T14:24:17Z</time>
      </trkpt>
      <trkpt lat="48.09174" lon="7.20189">
        <ele>788.55</ele>
        <time>2021-06-23T14:24:20Z</time>
      </trkpt>
      <trkpt lat="48.09163" lon="7.20144">
        <ele>788.48</ele>
        <time>2021-06-23T14:24:22Z</time>
      </trkpt>
      <trkpt lat="48.09157" lon="7.20105">
        <ele>787</ele>
        <time>2021-06-23T14:24:25Z</time>
      </trkpt>
      <trkpt lat="48.09156" lon="7.2008">
        <ele>786.91</ele>
        <time>2021-06-23T14:24:28Z</time>
      </trkpt>
      <trkpt lat="48.09156" lon="7.19955">
        <ele>786.47</ele>
        <time>2021-06-23T14:24:30Z</time>
      </trkpt>
      <trkpt lat="48.09152" lon="7.19927">
        <ele>786.39</ele>
        <time>2021-06-23T14:24:33Z</time>
      </trkpt>
      <trkpt lat="48.09132" lon="7.19853">
        <ele>786.47</ele>
        <time>2021-06-23T14:24:35Z</time>
      </trkpt>
      <trkpt lat="48.09111" lon="7.1979">
        <ele>787.48</ele>
        <time>2021-06-23T14:24:38Z</time>
      </trkpt>
      <trkpt lat="48.09103" lon="7.19748">
        <ele>787.6</ele>
        <time>2021-06-23T14:24:40Z</time>
      </trkpt>
      <trkpt lat="48.09098" lon="7.19712">
        <ele>788.79</ele>
        <time>2021-06-23T14:24:43Z</time>
      </trkpt>
      <trkpt lat="48.09089" lon="7.19667">
        <ele>792.33</ele>
        <time>2021-06-23T14:24:45Z</time>
      </trkpt>
      <trkpt lat="48.09079" lon="7.19639">
        <ele>794.33</ele>
        <time>2021-06-23T14:24:48Z</time>
      </trkpt>
      <trkpt lat="48.0907" lon="7.19622">
        <ele>796.18</ele>
        <time>2021-06-23T14:24:51Z</time>
      </trkpt>
      <trkpt lat="48.09062" lon="7.19598">
        <ele>797.66</ele>
        <time>2021-06-23T14:24:53Z</time>
      </trkpt>
      <trkpt lat="48.09038" lon="7.19493">
        <ele>798.27</ele>
        <time>2021-06-23T14:24:56Z</time>
      </trkpt>
      <trkpt lat="48.0903" lon="7.19466">
        <ele>801.19</ele>
        <time>2021-06-23T14:24:58Z</time>
      </trkpt>
      <trkpt lat="48.09017" lon="7.19447">
        <ele>805.01</ele>
        <time>2021-06-23T14:25:01Z</time>
      </trkpt>
      <trkpt lat="48.08986" lon="7.19416">
        <ele>813.68</ele>
        <time>2021-06-23T14:25:03Z</time>
      </trkpt>
      <trkpt lat="48.08962" lon="7.19399">
        <ele>818.68</ele>
        <time>2021-06-23T14:25:06Z</time>
      </trkpt>
      <trkpt lat="48.08893" lon="7.1937">
        <ele>820.97</ele>
        <time>2021-06-23T14:25:09Z</time>
      </trkpt>
      <trkpt lat="48.08884" lon="7.19368">
        <ele>822.76</ele>
        <time>2021-06-23T14:25:11Z</time>
      </trkpt>
      <trkpt lat="48.0887" lon="7.19368">
        <ele>824.93</ele>
        <time>2021-06-23T14:25:14Z</time>
      </trkpt>
      <trkpt lat="48.08857" lon="7.19376">
        <ele>824.28</ele>
        <time>2021-06-23T14:25:16Z</time>
      </trkpt>
      <trkpt lat="48.08792" lon="7.19468">
        <ele>828.59</ele>
        <time>2021-06-23T14:25:19Z</time>
      </trkpt>
      <trkpt lat="48.08754" lon="7.19514">
        <ele>830.61</ele>
        <time>2021-06-23T14:25:21Z</time>
      </trkpt>
      <trkpt lat="48.08738" lon="7.19529">
        <ele>832.82</ele>
        <time>2021-06-23T14:25:24Z</time>
      </trkpt>
      <trkpt lat="48.08717" lon="7.19544">
        <ele>835.63</ele>
        <time>2021-06-23T14:25:27Z</time>
      </trkpt>
      <trkpt lat="48.0863" lon="7.19595">
        <ele>838.1</ele>
        <time>2021-06-23T14:25:29Z</time>
      </trkpt>
      <trkpt lat="48.08571" lon="7.19614">
        <ele>840.16</ele>
        <time>2021-06-23T14:25:32Z</time>
      </trkpt>
      <trkpt lat="48.0851" lon="7.19618">
        <ele>846.77</ele>
        <time>2021-06-23T14:25:34Z</time>
      </trkpt>
      <trkpt lat="48.08428" lon="7.19607">
        <ele>846.24</ele>
        <time>2021-06-23T14:25:37Z</time>
      </trkpt>
      <trkpt lat="48.08407" lon="7.196">
        <ele>847.58</ele>
        <time>2021-06-23T14:25:39Z</time>
      </trkpt>
      <trkpt lat="48.08377" lon="7.19588">
        <ele>849.82</ele>
        <time>2021-06-23T14:25:42Z</time>
      </trkpt>
      <trkpt lat="48.08347" lon="7.19569">
        <ele>852.62</ele>
        <time>2021-06-23T14:25:44Z</time>
      </trkpt>
      <trkpt lat="48.08329" lon="7.19552">
        <ele>854.29</ele>
        <time>2021-06-23T14:25:47Z</time>
      </trkpt>
      <trkpt lat="48.08313" lon="7.1953">
        <ele>861.03</ele>
        <time>2021-06-23T14:25:50Z</time>
      </trkpt>
      <trkpt lat="48.08305" lon="7.19516">
        <ele>863.94</ele>
        <time>2021-06-23T14:25:52Z</time>
      </trkpt>
      <trkpt lat="48.08299" lon="7.195">
        <ele>866.77</ele>
        <time>2021-06-23T14:25:55Z</time>
      </trkpt>
      <trkpt lat="48.08286" lon="7.19443">
        <ele>868.09</ele>
        <time>2021-06-23T14:25:57Z</time>
      </trkpt>
      <trkpt lat="48.08282" lon="7.19419">
        <ele>867.41</ele>
        <time>2021-06-23T14:26:00Z</time>
      </trkpt>
      <trkpt lat="48.08271" lon="7.19319">
        <ele>868.73</ele>
        <time>2021-06-23T14:26:02Z</time>
      </trkpt>
      <trkpt lat="48.08269" lon="7.19295">
        <ele>869.38</ele>
        <time>2021-06-23T14:26:05Z</time>
      </trkpt>
      <trkpt lat="48.08271" lon="7.1924">
        <ele>871.42</ele>
        <time>2021-06-23T14:26:08Z</time>
      </trkpt>
      <trkpt lat="48.08272" lon="7.19212">
        <ele>872.04</ele>
        <time>2021-06-23T14:26:10Z</time>
      </trkpt>
      <trkpt lat="48.08279" lon="7.1917">
        <ele>875.46</ele>
        <time>2021-06-23T14:26:13Z</time>
      </trkpt>
      <trkpt lat="48.08287" lon="7.19143">
        <ele>877.6</ele>
        <time>2021-06-23T14:26:15Z</time>
      </trkpt>
      <trkpt lat="48.08311" lon="7.19093">
        <ele>881.89</ele>
        <time>2021-06-23T14:26:18Z</time>
      </trkpt>
      <trkpt lat="48.08332" lon="7.1906">
        <ele>882.46</ele>
        <time>2021-06-23T14:26:20Z</time>
      </trkpt>
      <trkpt lat="48.08402" lon="7.18982">
        <ele>888.18</ele>
        <time>2021-06-23T14:26:23Z</time>
      </trkpt>
      <trkpt lat="48.08414" lon="7.18964">
        <ele>889.46</ele>
        <time>2021-06-23T14:26:25Z</time>
      </trkpt>
      <trkpt lat="48.08424" lon="7.18942">
        <ele>889.35</ele>
        <time>2021-06-23T14:26:28Z</time>
      </trkpt>
      <trkpt lat="48.08428" lon="7.18924">
        <ele>888.74</ele>
        <time>2021-06-23T14:26:31Z</time>
      </trkpt>
      <trkpt lat="48.08438" lon="7.18867">
        <ele>887.85</ele>
        <time>2021-06-23T14:26:33Z</time>
      </trkpt>
      <trkpt lat="48.0845" lon="7.18809">
        <ele>889.37</ele>
        <time>2021-06-23T14:26:36Z</time>
      </trkpt>
      <trkpt lat="48.0846" lon="7.18735">
        <ele>889.68</ele>
        <time>2021-06-23T14:26:38Z</time>
      </trkpt>
      <trkpt lat="48.08468" lon="7.1863">
        <ele>896.74</ele>
        <time>2021-06-23T14:26:41Z</time>
      </trkpt>
      <trkpt lat="48.08477" lon="7.18599">
        <ele>899.56</ele>
        <time>2021-06-23T14:26:43Z</time>
      </trkpt>
      <trkpt lat="48.08491" lon="7.18564">
        <ele>899.35</ele>
        <time>2021-06-23T14:26:46Z</time>
      </trkpt>
      <trkpt lat="48.08493" lon="7.18553">
        <ele>898.92</ele>
        <time>2021-06-23T14:26:49Z</time>
      </trkpt>
      <trkpt lat="48.08496" lon="7.18514">
        <ele>897.74</ele>
        <time>2021-06-23T14:26:51Z</time>
      </trkpt>
      <trkpt lat="48.08495" lon="7.18467">
        <ele>896.41</ele>
        <time>2021-06-23T14:26:54Z</time>
      </trkpt>
      <trkpt lat="48.08489" lon="7.18418">
        <ele>893.8</ele>
        <time>2021-06-23T14:26:56Z</time>
      </trkpt>
      <trkpt lat="48.08481" lon="7.18364">
        <ele>892.01</ele>
        <time>2021-06-23T14:26:59Z</time>
      </trkpt>
      <trkpt lat="48.08468" lon="7.18306">
        <ele>889.02</ele>
        <time>2021-06-23T14:27:01Z</time>
      </trkpt>
      <trkpt lat="48.08447" lon="7.1822">
        <ele>891.08</ele>
        <time>2021-06-23T14:27:04Z</time>
      </trkpt>
      <trkpt lat="48.08432" lon="7.1815">
        <ele>891.3</ele>
        <time>2021-06-23T14:27:06Z</time>
      </trkpt>
      <trkpt lat="48.08414" lon="7.18029">
        <ele>892.59</ele>
        <time>2021-06-23T14:27:09Z</time>
      </trkpt>
      <trkpt lat="48.08409" lon="7.17979">
        <ele>893.1</ele>
        <time>2021-06-23T14:27:12Z</time>
      </trkpt>
      <trkpt lat="48.08398" lon="7.17915">
        <ele>893.92</ele>
        <time>2021-06-23T14:27:14Z</time>
      </trkpt>
      <trkpt lat="48.08386" lon="7.17857">
        <ele>892</ele>
        <time>2021-06-23T14:27:17Z</time>
      </trkpt>
      <trkpt lat="48.0838" lon="7.17834">
        <ele>889.21</ele>
        <time>2021-06-23T14:27:19Z</time>
      </trkpt>
      <trkpt lat="48.0837" lon="7.17813">
        <ele>888.95</ele>
        <time>2021-06-23T14:27:22Z</time>
      </trkpt>
      <trkpt lat="48.0836" lon="7.17794">
        <ele>889.39</ele>
        <time>2021-06-23T14:27:24Z</time>
      </trkpt>
      <trkpt lat="48.08342" lon="7.17771">
        <ele>891.27</ele>
        <time>2021-06-23T14:27:27Z</time>
      </trkpt>
      <trkpt lat="48.08296" lon="7.17717">
        <ele>897.95</ele>
        <time>2021-06-23T14:27:30Z</time>
      </trkpt>
      <trkpt lat="48.0826" lon="7.17662">
        <ele>898.54</ele>
        <time>2021-06-23T14:27:32Z</time>
      </trkpt>
      <trkpt lat="48.08247" lon="7.17638">
        <ele>898.96</ele>
        <time>2021-06-23T14:27:35Z</time>
      </trkpt>
      <trkpt lat="48.0824" lon="7.17612">
        <ele>901.16</ele>
        <time>2021-06-23T14:27:37Z</time>
      </trkpt>
      <trkpt lat="48.08232" lon="7.17504">
        <ele>903.46</ele>
        <time>2021-06-23T14:27:40Z</time>
      </trkpt>
      <trkpt lat="48.08208" lon="7.17374">
        <ele>911.46</ele>
        <time>2021-06-23T14:27:42Z</time>
      </trkpt>
      <trkpt lat="48.08195" lon="7.17293">
        <ele>912.33</ele>
        <time>2021-06-23T14:27:45Z</time>
      </trkpt>
      <trkpt lat="48.08186" lon="7.17267">
        <ele>913.49</ele>
        <time>2021-06-23T14:27:47Z</time>
      </trkpt>
      <trkpt lat="48.08179" lon="7.17254">
        <ele>914.64</ele>
        <time>2021-06-23T14:27:50Z</time>
      </trkpt>
      <trkpt lat="48.08169" lon="7.17243">
        <ele>916.74</ele>
        <time>2021-06-23T14:27:53Z</time>
      </trkpt>
      <trkpt lat="48.08159" lon="7.17235">
        <ele>919.13</ele>
        <time>2021-06-23T14:27:55Z</time>
      </trkpt>
      <trkpt lat="48.08143" lon="7.17214">
        <ele>921.81</ele>
        <time>2021-06-23T14:27:58Z</time>
      </trkpt>
      <trkpt lat="48.08133" lon="7.17195">
        <ele>921.3</ele>
        <time>2021-06-23T14:28:00Z</time>
      </trkpt>
      <trkpt lat="48.08128" lon="7.17178">
        <ele>920.94</ele>
        <time>2021-06-23T14:28:03Z</time>
      </trkpt>
      <trkpt lat="48.0812" lon="7.17161">
        <ele>920.96</ele>
        <time>2021-06-23T14:28:05Z</time>
      </trkpt>
      <trkpt lat="48.08083" lon="7.1711">
        <ele>925.08</ele>
        <time>2021-06-23T14:28:08Z</time>
      </trkpt>
      <trkpt lat="48.08073" lon="7.1709">
        <ele>926.21</ele>
        <time>2021-06-23T14:28:11Z</time>
      </trkpt>
      <trkpt lat="48.08054" lon="7.17034">
        <ele>929.97</ele>
        <time>2021-06-23T14:28:13Z</time>
      </trkpt>
      <trkpt lat="48.07965" lon="7.16795">
        <ele>938.04</ele>
        <time>2021-06-23T14:28:16Z</time>
      </trkpt>
      <trkpt lat="48.07957" lon="7.16757">
        <ele>941.37</ele>
        <time>2021-06-23T14:28:18Z</time>
      </trkpt>
      <trkpt lat="48.07953" lon="7.16718">
        <ele>942.86</ele>
        <time>2021-06-23T14:28:21Z</time>
      </trkpt>
      <trkpt lat="48.07952" lon="7.16663">
        <ele>941.24</ele>
        <time>2021-06-23T14:28:23Z</time>
      </trkpt>
      <trkpt lat="48.07954" lon="7.16591">
        <ele>947.52</ele>
        <time>2021-06-23T14:28:26Z</time>
      </trkpt>
      <trkpt lat="48.07956" lon="7.1657">
        <ele>949.1</ele>
        <time>2021-06-23T14:28:28Z</time>
      </trkpt>
      <trkpt lat="48.07973" lon="7.16468">
        <ele>956.18</ele>
        <time>2021-06-23T14:28:31Z</time>
      </trkpt>
      <trkpt lat="48.07982" lon="7.16432">
        <ele>957.47</ele>
        <time>2021-06-23T14:28:34Z</time>
      </trkpt>
      <trkpt lat="48.0799" lon="7.16417">
        <ele>958.1</ele>
        <time>2021-06-23T14:28:36Z</time>
      </trkpt>
      <trkpt lat="48.07994" lon="7.16413">
        <ele>958.18</ele>
        <time>2021-06-23T14:28:39Z</time>
      </trkpt>
      <trkpt lat="48.08005" lon="7.16408">
        <ele>957.83</ele>
        <time>2021-06-23T14:28:41Z</time>
      </trkpt>
      <trkpt lat="48.08045" lon="7.16412">
        <ele>955.06</ele>
        <time>2021-06-23T14:28:44Z</time>
      </trkpt>
      <trkpt lat="48.08107" lon="7.16403">
        <ele>956.96</ele>
        <time>2021-06-23T14:28:46Z</time>
      </trkpt>
      <trkpt lat="48.08132" lon="7.16396">
        <ele>956.84</ele>
        <time>2021-06-23T14:28:49Z</time>
      </trkpt>
      <trkpt lat="48.08145" lon="7.16391">
        <ele>956.27</ele>
        <time>2021-06-23T14:28:52Z</time>
      </trkpt>
      <trkpt lat="48.08155" lon="7.16383">
        <ele>955.86</ele>
        <time>2021-06-23T14:28:54Z</time>
      </trkpt>
      <trkpt lat="48.08179" lon="7.16358">
        <ele>956.38</ele>
        <time>2021-06-23T14:28:57Z</time>
      </trkpt>
      <trkpt lat="48.08207" lon="7.16314">
        <ele>959.05</ele>
        <time>2021-06-23T14:28:59Z</time>
      </trkpt>
      <trkpt lat="48.08216" lon="7.16292">
        <ele>959.84</ele>
        <time>2021-06-23T14:29:02Z</time>
      </trkpt>
      <trkpt lat="48.08219" lon="7.16276">
        <ele>960.27</ele>
        <time>2021-06-23T14:29:04Z</time>
      </trkpt>
      <trkpt lat="48.0822" lon="7.16261">
        <ele>960.72</ele>
        <time>2021-06-23T14:29:07Z</time>
      </trkpt>
      <trkpt lat="48.08219" lon="7.16238">
        <ele>961.54</ele>
        <time>2021-06-23T14:29:09Z</time>
      </trkpt>
      <trkpt lat="48.08214" lon="7.16212">
        <ele>962.57</ele>
        <time>2021-06-23T14:29:12Z</time>
      </trkpt>
      <trkpt lat="48.08207" lon="7.16193">
        <ele>962.96</ele>
        <time>2021-06-23T14:29:15Z</time>
      </trkpt>
      <trkpt lat="48.08182" lon="7.16137">
        <ele>959.82</ele>
        <time>2021-06-23T14:29:17Z</time>
      </trkpt>
      <trkpt lat="48.08147" lon="7.16035">
        <ele>961.09</ele>
        <time>2021-06-23T14:29:20Z</time>
      </trkpt>
      <trkpt lat="48.08137" lon="7.15998">
        <ele>962.45</ele>
        <time>2021-06-23T14:29:22Z</time>
      </trkpt>
      <trkpt lat="48.08123" lon="7.15937">
        <ele>960.83</ele>
        <time>2021-06-23T14:29:25Z</time>
      </trkpt>
      <trkpt lat="48.08118" lon="7.15923">
        <ele>959.89</ele>
        <time>2021-06-23T14:29:27Z</time>
      </trkpt>
      <trkpt lat="48.08053" lon="7.15802">
        <ele>959.31</ele>
        <time>2021-06-23T14:29:30Z</time>
      </trkpt>
      <trkpt lat="48.08037" lon="7.15768">
        <ele>960.48</ele>
        <time>2021-06-23T14:29:33Z</time>
      </trkpt>
      <trkpt lat="48.08006" lon="7.15693">
        <ele>962.58</ele>
        <time>2021-06-23T14:29:35Z</time>
      </trkpt>
      <trkpt lat="48.07964" lon="7.15614">
        <ele>963.23</ele>
        <time>2021-06-23T14:29:38Z</time>
      </trkpt>
      <trkpt lat="48.07959" lon="7.15598">
        <ele>964.65</ele>
        <time>2021-06-23T14:29:40Z</time>
      </trkpt>
      <trkpt lat="48.07958" lon="7.15567">
        <ele>966.73</ele>
        <time>2021-06-23T14:29:43Z</time>
      </trkpt>
      <trkpt lat="48.07968" lon="7.15531">
        <ele>968.92</ele>
        <time>2021-06-23T14:29:45Z</time>
      </trkpt>
      <trkpt lat="48.07981" lon="7.15504">
        <ele>972.2</ele>
        <time>2021-06-23T14:29:48Z</time>
      </trkpt>
      <trkpt lat="48.07988" lon="7.15491">
        <ele>973.94</ele>
        <time>2021-06-23T14:29:50Z</time>
      </trkpt>
      <trkpt lat="48.08004" lon="7.15477">
        <ele>975.95</ele>
        <time>2021-06-23T14:29:53Z</time>
      </trkpt>
      <trkpt lat="48.08019" lon="7.15472">
        <ele>975.67</ele>
        <time>2021-06-23T14:29:56Z</time>
      </trkpt>
      <trkpt lat="48.0807" lon="7.15464">
        <ele>968.96</ele>
        <time>2021-06-23T14:29:58Z</time>
      </trkpt>
      <trkpt lat="48.08119" lon="7.15451">
        <ele>969.96</ele>
        <time>2021-06-23T14:30:01Z</time>
      </trkpt>
      <trkpt lat="48.08169" lon="7.15441">
        <ele>965.62</ele>
        <time>2021-06-23T14:30:03Z</time>
      </trkpt>
      <trkpt lat="48.08196" lon="7.15433">
        <ele>965.6</ele>
        <time>2021-06-23T14:30:06Z</time>
      </trkpt>
      <trkpt lat="48.08244" lon="7.15413">
        <ele>962.82</ele>
        <time>2021-06-23T14:30:08Z</time>
      </trkpt>
      <trkpt lat="48.08278" lon="7.15389">
        <ele>958.97</ele>
        <time>2021-06-23T14:30:11Z</time>
      </trkpt>
      <trkpt lat="48.08291" lon="7.15372">
        <ele>958.19</ele>
        <time>2021-06-23T14:30:14Z</time>
      </trkpt>
      <trkpt lat="48.08295" lon="7.15361">
        <ele>958.11</ele>
        <time>2021-06-23T14:30:16Z</time>
      </trkpt>
      <trkpt lat="48.08297" lon="7.1535">
        <ele>958.16</ele>
        <time>2021-06-23T14:30:19Z</time>
      </trkpt>
      <trkpt lat="48.08297" lon="7.15339">
        <ele>958.5</ele>
        <time>2021-06-23T14:30:21Z</time>
      </trkpt>
      <trkpt lat="48.08291" lon="7.15319">
        <ele>959.08</ele>
        <time>2021-06-23T14:30:24Z</time>
      </trkpt>
      <trkpt lat="48.08239" lon="7.15223">
        <ele>968.51</ele>
        <time>2021-06-23T14:30:26Z</time>
      </trkpt>
      <trkpt lat="48.08231" lon="7.15198">
        <ele>970.59</ele>
        <time>2021-06-23T14:30:29Z</time>
      </trkpt>
      <trkpt lat="48.08229" lon="7.15184">
        <ele>971.17</ele>
        <time>2021-06-23T14:30:31Z</time>
      </trkpt>
      <trkpt lat="48.0823" lon="7.15149">
        <ele>971.5</ele>
        <time>2021-06-23T14:30:34Z</time>
      </trkpt>
      <trkpt lat="48.08236" lon="7.1511">
        <ele>972.51</ele>
        <time>2021-06-23T14:30:37Z</time>
      </trkpt>
      <trkpt lat="48.08241" lon="7.15094">
        <ele>973.12</ele>
        <time>2021-06-23T14:30:39Z</time>
      </trkpt>
      <trkpt lat="48.08252" lon="7.15079">
        <ele>973.87</ele>
        <time>2021-06-23T14:30:42Z</time>
      </trkpt>
      <trkpt lat="48.08263" lon="7.15072">
        <ele>972.59</ele>
        <time>2021-06-23T14:30:44Z</time>
      </trkpt>
      <trkpt lat="48.08359" lon="7.15034">
        <ele>956.99</ele>
        <time>2021-06-23T14:30:47Z</time>
      </trkpt>
      <trkpt lat="48.08394" lon="7.15016">
        <ele>950.8</ele>
        <time>2021-06-23T14:30:49Z</time>
      </trkpt>
      <trkpt lat="48.08405" lon="7.15008">
        <ele>949.19</ele>
        <time>2021-06-23T14:30:52Z</time>
      </trkpt>
      <trkpt lat="48.08414" lon="7.14995">
        <ele>948.79</ele>
        <time>2021-06-23T14:30:55Z</time>
      </trkpt>
      <trkpt lat="48.08418" lon="7.14979">
        <ele>949.37</ele>
        <time>2021-06-23T14:30:57Z</time>
      </trkpt>
      <trkpt lat="48.08417" lon="7.14959">
        <ele>950.45</ele>
        <time>2021-06-23T14:31:00Z</time>
      </trkpt>
      <trkpt lat="48.08413" lon="7.14946">
        <ele>951.38</ele>
        <time>2021-06-23T14:31:02Z</time>
      </trkpt>
      <trkpt lat="48.08399" lon="7.14924">
        <ele>952.37</ele>
        <time>2021-06-23T14:31:05Z</time>
      </trkpt>
      <trkpt lat="48.0832" lon="7.14834">
        <ele>963.04</ele>
        <time>2021-06-23T14:31:07Z</time>
      </trkpt>
      <trkpt lat="48.08298" lon="7.14815">
        <ele>964.62</ele>
        <time>2021-06-23T14:31:10Z</time>
      </trkpt>
      <trkpt lat="48.08225" lon="7.14762">
        <ele>967.3</ele>
        <time>2021-06-23T14:31:13Z</time>
      </trkpt>
      <trkpt lat="48.08199" lon="7.14747">
        <ele>968.1</ele>
        <time>2021-06-23T14:31:15Z</time>
      </trkpt>
      <trkpt lat="48.0815" lon="7.14726">
        <ele>971.81</ele>
        <time>2021-06-23T14:31:18Z</time>
      </trkpt>
      <trkpt lat="48.08128" lon="7.14712">
        <ele>973.25</ele>
        <time>2021-06-23T14:31:20Z</time>
      </trkpt>
      <trkpt lat="48.08101" lon="7.14689">
        <ele>975.34</ele>
        <time>2021-06-23T14:31:23Z</time>
      </trkpt>
      <trkpt lat="48.07996" lon="7.14564">
        <ele>979.44</ele>
        <time>2021-06-23T14:31:25Z</time>
      </trkpt>
      <trkpt lat="48.07981" lon="7.14538">
        <ele>980.25</ele>
        <time>2021-06-23T14:31:28Z</time>
      </trkpt>
      <trkpt lat="48.07954" lon="7.14476">
        <ele>981.17</ele>
        <time>2021-06-23T14:31:30Z</time>
      </trkpt>
      <trkpt lat="48.07923" lon="7.14397">
        <ele>977.43</ele>
        <time>2021-06-23T14:31:33Z</time>
      </trkpt>
      <trkpt lat="48.0792" lon="7.14382">
        <ele>977.36</ele>
        <time>2021-06-23T14:31:36Z</time>
      </trkpt>
      <trkpt lat="48.0792" lon="7.14372">
        <ele>977.73</ele>
        <time>2021-06-23T14:31:38Z</time>
      </trkpt>
      <trkpt lat="48.07923" lon="7.14353">
        <ele>979.05</ele>
        <time>2021-06-23T14:31:41Z</time>
      </trkpt>
      <trkpt lat="48.07928" lon="7.14339">
        <ele>980.84</ele>
        <time>2021-06-23T14:31:43Z</time>
      </trkpt>
      <trkpt lat="48.0794" lon="7.14316">
        <ele>984.92</ele>
        <time>2021-06-23T14:31:46Z</time>
      </trkpt>
      <trkpt lat="48.07953" lon="7.14303">
        <ele>986.84</ele>
        <time>2021-06-23T14:31:48Z</time>
      </trkpt>
      <trkpt lat="48.08016" lon="7.14276">
        <ele>987.1</ele>
        <time>2021-06-23T14:31:51Z</time>
      </trkpt>
      <trkpt lat="48.08028" lon="7.14268">
        <ele>987.31</ele>
        <time>2021-06-23T14:31:54Z</time>
      </trkpt>
      <trkpt lat="48.08046" lon="7.14248">
        <ele>988.31</ele>
        <time>2021-06-23T14:31:56Z</time>
      </trkpt>
      <trkpt lat="48.08052" lon="7.14235">
        <ele>989.13</ele>
        <time>2021-06-23T14:31:59Z</time>
      </trkpt>
      <trkpt lat="48.08057" lon="7.1422">
        <ele>990.21</ele>
        <time>2021-06-23T14:32:01Z</time>
      </trkpt>
      <trkpt lat="48.08073" lon="7.14136">
        <ele>994.17</ele>
        <time>2021-06-23T14:32:04Z</time>
      </trkpt>
      <trkpt lat="48.08081" lon="7.14107">
        <ele>993.67</ele>
        <time>2021-06-23T14:32:06Z</time>
      </trkpt>
      <trkpt lat="48.08089" lon="7.14084">
        <ele>995.2</ele>
        <time>2021-06-23T14:32:09Z</time>
      </trkpt>
      <trkpt lat="48.08101" lon="7.14064">
        <ele>996.4</ele>
        <time>2021-06-23T14:32:11Z</time>
      </trkpt>
      <trkpt lat="48.08117" lon="7.14043">
        <ele>997.67</ele>
        <time>2021-06-23T14:32:14Z</time>
      </trkpt>
      <trkpt lat="48.08138" lon="7.14022">
        <ele>998.1</ele>
        <time>2021-06-23T14:32:17Z</time>
      </trkpt>
      <trkpt lat="48.08157" lon="7.14008">
        <ele>997.88</ele>
        <time>2021-06-23T14:32:19Z</time>
      </trkpt>
      <trkpt lat="48.08171" lon="7.14001">
        <ele>997.53</ele>
        <time>2021-06-23T14:32:22Z</time>
      </trkpt>
      <trkpt lat="48.08222" lon="7.13988">
        <ele>998.21</ele>
        <time>2021-06-23T14:32:24Z</time>
      </trkpt>
      <trkpt lat="48.08234" lon="7.13987">
        <ele>997.77</ele>
        <time>2021-06-23T14:32:27Z</time>
      </trkpt>
      <trkpt lat="48.08261" lon="7.1399">
        <ele>995.44</ele>
        <time>2021-06-23T14:32:29Z</time>
      </trkpt>
      <trkpt lat="48.08306" lon="7.14002">
        <ele>991.53</ele>
        <time>2021-06-23T14:32:32Z</time>
      </trkpt>
      <trkpt lat="48.08323" lon="7.14002">
        <ele>987.55</ele>
        <time>2021-06-23T14:32:35Z</time>
      </trkpt>
      <trkpt lat="48.08335" lon="7.13992">
        <ele>985.04</ele>
        <time>2021-06-23T14:32:37Z</time>
      </trkpt>
      <trkpt lat="48.08341" lon="7.13979">
        <ele>984.14</ele>
        <time>2021-06-23T14:32:40Z</time>
      </trkpt>
      <trkpt lat="48.08343" lon="7.13966">
        <ele>983.79</ele>
        <time>2021-06-23T14:32:42Z</time>
      </trkpt>
      <trkpt lat="48.08341" lon="7.13949">
        <ele>984.1</ele>
        <time>2021-06-23T14:32:45Z</time>
      </trkpt>
      <trkpt lat="48.08336" lon="7.13936">
        <ele>984.21</ele>
        <time>2021-06-23T14:32:47Z</time>
      </trkpt>
      <trkpt lat="48.08322" lon="7.13912">
        <ele>984.39</ele>
        <time>2021-06-23T14:32:50Z</time>
      </trkpt>
      <trkpt lat="48.08226" lon="7.13761">
        <ele>984.78</ele>
        <time>2021-06-23T14:32:52Z</time>
      </trkpt>
      <trkpt lat="48.08214" lon="7.13738">
        <ele>985.79</ele>
        <time>2021-06-23T14:32:55Z</time>
      </trkpt>
      <trkpt lat="48.08202" lon="7.13714">
        <ele>985.67</ele>
        <time>2021-06-23T14:32:58Z</time>
      </trkpt>
      <trkpt lat="48.08179" lon="7.13647">
        <ele>977.46</ele>
        <time>2021-06-23T14:33:00Z</time>
      </trkpt>
      <trkpt lat="48.08091" lon="7.13467">
        <ele>970.06</ele>
        <time>2021-06-23T14:33:03Z</time>
      </trkpt>
      <trkpt lat="48.08074" lon="7.1344">
        <ele>969.89</ele>
        <time>2021-06-23T14:33:05Z</time>
      </trkpt>
      <trkpt lat="48.08035" lon="7.1339">
        <ele>968.12</ele>
        <time>2021-06-23T14:33:08Z</time>
      </trkpt>
      <trkpt lat="48.07948" lon="7.1323">
        <ele>955.74</ele>
        <time>2021-06-23T14:33:10Z</time>
      </trkpt>
      <trkpt lat="48.07942" lon="7.13215">
        <ele>954.56</ele>
        <time>2021-06-23T14:33:13Z</time>
      </trkpt>
      <trkpt lat="48.0794" lon="7.13205">
        <ele>954.03</ele>
        <time>2021-06-23T14:33:16Z</time>
      </trkpt>
      <trkpt lat="48.07939" lon="7.13185">
        <ele>952.79</ele>
        <time>2021-06-23T14:33:18Z</time>
      </trkpt>
      <trkpt lat="48.07941" lon="7.13158">
        <ele>950.75</ele>
        <time>2021-06-23T14:33:21Z</time>
      </trkpt>
      <trkpt lat="48.07964" lon="7.13092">
        <ele>945.6</ele>
        <time>2021-06-23T14:33:23Z</time>
      </trkpt>
      <trkpt lat="48.0797" lon="7.1307">
        <ele>944.85</ele>
        <time>2021-06-23T14:33:26Z</time>
      </trkpt>
      <trkpt lat="48.07977" lon="7.13023">
        <ele>943.11</ele>
        <time>2021-06-23T14:33:28Z</time>
      </trkpt>
      <trkpt lat="48.07982" lon="7.12968">
        <ele>942.78</ele>
        <time>2021-06-23T14:33:31Z</time>
      </trkpt>
      <trkpt lat="48.07986" lon="7.12954">
        <ele>942.82</ele>
        <time>2021-06-23T14:33:33Z</time>
      </trkpt>
      <trkpt lat="48.07992" lon="7.12939">
        <ele>943.05</ele>
        <time>2021-06-23T14:33:36Z</time>
      </trkpt>
      <trkpt lat="48.08024" lon="7.12891">
        <ele>941.76</ele>
        <time>2021-06-23T14:33:39Z</time>
      </trkpt>
      <trkpt lat="48.0804" lon="7.12864">
        <ele>939.47</ele>
        <time>2021-06-23T14:33:41Z</time>
      </trkpt>
      <trkpt lat="48.08048" lon="7.12841">
        <ele>938.82</ele>
        <time>2021-06-23T14:33:44Z</time>
      </trkpt>
      <trkpt lat="48.08053" lon="7.12811">
        <ele>939.18</ele>
        <time>2021-06-23T14:33:46Z</time>
      </trkpt>
      <trkpt lat="48.0806" lon="7.12739">
        <ele>936.41</ele>
        <time>2021-06-23T14:33:49Z</time>
      </trkpt>
      <trkpt lat="48.08059" lon="7.127">
        <ele>935.45</ele>
        <time>2021-06-23T14:33:51Z</time>
      </trkpt>
      <trkpt lat="48.08052" lon="7.1265">
        <ele>936.13</ele>
        <time>2021-06-23T14:33:54Z</time>
      </trkpt>
      <trkpt lat="48.08052" lon="7.12627">
        <ele>936.39</ele>
        <time>2021-06-23T14:33:57Z</time>
      </trkpt>
      <trkpt lat="48.08057" lon="7.12609">
        <ele>935.83</ele>
        <time>2021-06-23T14:33:59Z</time>
      </trkpt>
      <trkpt lat="48.08062" lon="7.126">
        <ele>935.03</ele>
        <time>2021-06-23T14:34:02Z</time>
      </trkpt>
      <trkpt lat="48.08068" lon="7.12594">
        <ele>934.36</ele>
        <time>2021-06-23T14:34:04Z</time>
      </trkpt>
      <trkpt lat="48.0808" lon="7.1259">
        <ele>933.29</ele>
        <time>2021-06-23T14:34:07Z</time>
      </trkpt>
      <trkpt lat="48.08097" lon="7.12591">
        <ele>932.74</ele>
        <time>2021-06-23T14:34:09Z</time>
      </trkpt>
      <trkpt lat="48.08191" lon="7.12603">
        <ele>926.98</ele>
        <time>2021-06-23T14:34:12Z</time>
      </trkpt>
      <trkpt lat="48.082" lon="7.12602">
        <ele>926.9</ele>
        <time>2021-06-23T14:34:14Z</time>
      </trkpt>
      <trkpt lat="48.08213" lon="7.12594">
        <ele>927.54</ele>
        <time>2021-06-23T14:34:17Z</time>
      </trkpt>
      <trkpt lat="48.08246" lon="7.12567">
        <ele>933.64</ele>
        <time>2021-06-23T14:34:20Z</time>
      </trkpt>
      <trkpt lat="48.08267" lon="7.12562">
        <ele>937.37</ele>
        <time>2021-06-23T14:34:22Z</time>
      </trkpt>
      <trkpt lat="48.08281" lon="7.12565">
        <ele>938.71</ele>
        <time>2021-06-23T14:34:25Z</time>
      </trkpt>
      <trkpt lat="48.08295" lon="7.12573">
        <ele>937.8</ele>
        <time>2021-06-23T14:34:27Z</time>
      </trkpt>
      <trkpt lat="48.08333" lon="7.12602">
        <ele>934</ele>
        <time>2021-06-23T14:34:30Z</time>
      </trkpt>
      <trkpt lat="48.08351" lon="7.12608">
        <ele>933.92</ele>
        <time>2021-06-23T14:34:32Z</time>
      </trkpt>
      <trkpt lat="48.08361" lon="7.12609">
        <ele>934.24</ele>
        <time>2021-06-23T14:34:35Z</time>
      </trkpt>
      <trkpt lat="48.08425" lon="7.12594">
        <ele>933.27</ele>
        <time>2021-06-23T14:34:38Z</time>
      </trkpt>
      <trkpt lat="48.08532" lon="7.12545">
        <ele>930.7</ele>
        <time>2021-06-23T14:34:40Z</time>
      </trkpt>
      <trkpt lat="48.08557" lon="7.12525">
        <ele>929.12</ele>
        <time>2021-06-23T14:34:43Z</time>
      </trkpt>
      <trkpt lat="48.08576" lon="7.12499">
        <ele>928.08</ele>
        <time>2021-06-23T14:34:45Z</time>
      </trkpt>
      <trkpt lat="48.08586" lon="7.1248">
        <ele>927.17</ele>
        <time>2021-06-23T14:34:48Z</time>
      </trkpt>
      <trkpt lat="48.08595" lon="7.12457">
        <ele>925.41</ele>
        <time>2021-06-23T14:34:50Z</time>
      </trkpt>
      <trkpt lat="48.0861" lon="7.12409">
        <ele>923.6</ele>
        <time>2021-06-23T14:34:53Z</time>
      </trkpt>
      <trkpt lat="48.08616" lon="7.12337">
        <ele>921.98</ele>
        <time>2021-06-23T14:34:55Z</time>
      </trkpt>
      <trkpt lat="48.08626" lon="7.12292">
        <ele>918.09</ele>
        <time>2021-06-23T14:34:58Z</time>
      </trkpt>
      <trkpt lat="48.08629" lon="7.12266">
        <ele>916.4</ele>
        <time>2021-06-23T14:35:01Z</time>
      </trkpt>
      <trkpt lat="48.08633" lon="7.122">
        <ele>915.37</ele>
        <time>2021-06-23T14:35:03Z</time>
      </trkpt>
      <trkpt lat="48.08629" lon="7.12111">
        <ele>911.39</ele>
        <time>2021-06-23T14:35:06Z</time>
      </trkpt>
      <trkpt lat="48.08635" lon="7.12045">
        <ele>909.45</ele>
        <time>2021-06-23T14:35:08Z</time>
      </trkpt>
      <trkpt lat="48.08622" lon="7.1192">
        <ele>904.99</ele>
        <time>2021-06-23T14:35:11Z</time>
      </trkpt>
      <trkpt lat="48.08623" lon="7.11902">
        <ele>904.21</ele>
        <time>2021-06-23T14:35:13Z</time>
      </trkpt>
      <trkpt lat="48.08627" lon="7.11878">
        <ele>903.44</ele>
        <time>2021-06-23T14:35:16Z</time>
      </trkpt>
      <trkpt lat="48.08634" lon="7.11856">
        <ele>902.82</ele>
        <time>2021-06-23T14:35:19Z</time>
      </trkpt>
      <trkpt lat="48.08698" lon="7.11726">
        <ele>895.12</ele>
        <time>2021-06-23T14:35:21Z</time>
      </trkpt>
      <trkpt lat="48.08713" lon="7.117">
        <ele>892.97</ele>
        <time>2021-06-23T14:35:24Z</time>
      </trkpt>
      <trkpt lat="48.08749" lon="7.11655">
        <ele>888.26</ele>
        <time>2021-06-23T14:35:26Z</time>
      </trkpt>
      <trkpt lat="48.08772" lon="7.11634">
        <ele>886.13</ele>
        <time>2021-06-23T14:35:29Z</time>
      </trkpt>
      <trkpt lat="48.08792" lon="7.11619">
        <ele>887.37</ele>
        <time>2021-06-23T14:35:32Z</time>
      </trkpt>
      <trkpt lat="48.08774" lon="7.11528">
        <ele>885.24</ele>
        <time>2021-06-23T14:35:34Z</time>
      </trkpt>
      <trkpt lat="48.08771" lon="7.11489">
        <ele>882.08</ele>
        <time>2021-06-23T14:35:36Z</time>
      </trkpt>
      <trkpt lat="48.08772" lon="7.11456">
        <ele>878.43</ele>
        <time>2021-06-23T14:35:38Z</time>
      </trkpt>
      <trkpt lat="48.08786" lon="7.11352">
        <ele>875.24</ele>
        <time>2021-06-23T14:35:40Z</time>
      </trkpt>
      <trkpt lat="48.08786" lon="7.11352">
        <ele>875.24</ele>
        <time>2021-06-23T14:35:40Z</time>
      </trkpt>
      <trkpt lat="48.08788" lon="7.11322">
        <ele>872.26</ele>
        <time>2021-06-23T14:35:42Z</time>
      </trkpt>
      <trkpt lat="48.08784" lon="7.11306">
        <ele>871.58</ele>
        <time>2021-06-23T14:35:43Z</time>
      </trkpt>
      <trkpt lat="48.08779" lon="7.113">
        <ele>870.73</ele>
        <time>2021-06-23T14:35:45Z</time>
      </trkpt>
      <trkpt lat="48.08774" lon="7.11298">
        <ele>869.55</ele>
        <time>2021-06-23T14:35:46Z</time>
      </trkpt>
      <trkpt lat="48.08763" lon="7.11302">
        <ele>867.03</ele>
        <time>2021-06-23T14:35:48Z</time>
      </trkpt>
      <trkpt lat="48.08756" lon="7.11315">
        <ele>865.55</ele>
        <time>2021-06-23T14:35:50Z</time>
      </trkpt>
      <trkpt lat="48.08744" lon="7.11364">
        <ele>865.17</ele>
        <time>2021-06-23T14:35:51Z</time>
      </trkpt>
      <trkpt lat="48.08733" lon="7.11383">
        <ele>864.29</ele>
        <time>2021-06-23T14:35:53Z</time>
      </trkpt>
      <trkpt lat="48.08715" lon="7.11397">
        <ele>863.11</ele>
        <time>2021-06-23T14:35:54Z</time>
      </trkpt>
      <trkpt lat="48.08692" lon="7.114">
        <ele>862.26</ele>
        <time>2021-06-23T14:35:56Z</time>
      </trkpt>
      <trkpt lat="48.08677" lon="7.11398">
        <ele>861.93</ele>
        <time>2021-06-23T14:35:57Z</time>
      </trkpt>
      <trkpt lat="48.0864" lon="7.11378">
        <ele>857.32</ele>
        <time>2021-06-23T14:35:59Z</time>
      </trkpt>
      <trkpt lat="48.0862" lon="7.11371">
        <ele>855.61</ele>
        <time>2021-06-23T14:36:01Z</time>
      </trkpt>
      <trkpt lat="48.08534" lon="7.11354">
        <ele>849.51</ele>
        <time>2021-06-23T14:36:02Z</time>
      </trkpt>
      <trkpt lat="48.08453" lon="7.11348">
        <ele>842.74</ele>
        <time>2021-06-23T14:36:04Z</time>
      </trkpt>
      <trkpt lat="48.08388" lon="7.11339">
        <ele>836.2</ele>
        <time>2021-06-23T14:36:05Z</time>
      </trkpt>
      <trkpt lat="48.08347" lon="7.11339">
        <ele>834.83</ele>
        <time>2021-06-23T14:36:07Z</time>
      </trkpt>
      <trkpt lat="48.08291" lon="7.11325">
        <ele>831.63</ele>
        <time>2021-06-23T14:36:08Z</time>
      </trkpt>
      <trkpt lat="48.0827" lon="7.11323">
        <ele>830.86</ele>
        <time>2021-06-23T14:36:10Z</time>
      </trkpt>
      <trkpt lat="48.0821" lon="7.11328">
        <ele>827.39</ele>
        <time>2021-06-23T14:36:12Z</time>
      </trkpt>
      <trkpt lat="48.08171" lon="7.11324">
        <ele>823.22</ele>
        <time>2021-06-23T14:36:13Z</time>
      </trkpt>
      <trkpt lat="48.08118" lon="7.11323">
        <ele>818.96</ele>
        <time>2021-06-23T14:36:15Z</time>
      </trkpt>
      <trkpt lat="48.08091" lon="7.11316">
        <ele>815.69</ele>
        <time>2021-06-23T14:36:16Z</time>
      </trkpt>
      <trkpt lat="48.08061" lon="7.11299">
        <ele>809.63</ele>
        <time>2021-06-23T14:36:18Z</time>
      </trkpt>
      <trkpt lat="48.08053" lon="7.11287">
        <ele>807.87</ele>
        <time>2021-06-23T14:36:19Z</time>
      </trkpt>
      <trkpt lat="48.0805" lon="7.11271">
        <ele>806.82</ele>
        <time>2021-06-23T14:36:21Z</time>
      </trkpt>
      <trkpt lat="48.08054" lon="7.11257">
        <ele>807.05</ele>
        <time>2021-06-23T14:36:23Z</time>
      </trkpt>
      <trkpt lat="48.08063" lon="7.1125">
        <ele>807.24</ele>
        <time>2021-06-23T14:36:24Z</time>
      </trkpt>
      <trkpt lat="48.08071" lon="7.11249">
        <ele>807.48</ele>
        <time>2021-06-23T14:36:26Z</time>
      </trkpt>
      <trkpt lat="48.08092" lon="7.11261">
        <ele>809.14</ele>
        <time>2021-06-23T14:36:27Z</time>
      </trkpt>
      <trkpt lat="48.08103" lon="7.11264">
        <ele>809.48</ele>
        <time>2021-06-23T14:36:29Z</time>
      </trkpt>
      <trkpt lat="48.08114" lon="7.11263">
        <ele>809.54</ele>
        <time>2021-06-23T14:36:30Z</time>
      </trkpt>
      <trkpt lat="48.08128" lon="7.11258">
        <ele>809.68</ele>
        <time>2021-06-23T14:36:32Z</time>
      </trkpt>
      <trkpt lat="48.08159" lon="7.11242">
        <ele>807.55</ele>
        <time>2021-06-23T14:36:34Z</time>
      </trkpt>
      <trkpt lat="48.08176" lon="7.11236">
        <ele>806.76</ele>
        <time>2021-06-23T14:36:35Z</time>
      </trkpt>
      <trkpt lat="48.08237" lon="7.11225">
        <ele>804.46</ele>
        <time>2021-06-23T14:36:37Z</time>
      </trkpt>
      <trkpt lat="48.08266" lon="7.11221">
        <ele>800.92</ele>
        <time>2021-06-23T14:36:38Z</time>
      </trkpt>
      <trkpt lat="48.08301" lon="7.11222">
        <ele>797.35</ele>
        <time>2021-06-23T14:36:40Z</time>
      </trkpt>
      <trkpt lat="48.08348" lon="7.11229">
        <ele>798.72</ele>
        <time>2021-06-23T14:36:41Z</time>
      </trkpt>
      <trkpt lat="48.08364" lon="7.11227">
        <ele>797.36</ele>
        <time>2021-06-23T14:36:43Z</time>
      </trkpt>
      <trkpt lat="48.08393" lon="7.11218">
        <ele>794.09</ele>
        <time>2021-06-23T14:36:45Z</time>
      </trkpt>
      <trkpt lat="48.08454" lon="7.11193">
        <ele>795.28</ele>
        <time>2021-06-23T14:36:46Z</time>
      </trkpt>
      <trkpt lat="48.08463" lon="7.11186">
        <ele>796.82</ele>
        <time>2021-06-23T14:36:48Z</time>
      </trkpt>
      <trkpt lat="48.08469" lon="7.11175">
        <ele>797.15</ele>
        <time>2021-06-23T14:36:49Z</time>
      </trkpt>
      <trkpt lat="48.0847" lon="7.11165">
        <ele>796.45</ele>
        <time>2021-06-23T14:36:51Z</time>
      </trkpt>
      <trkpt lat="48.08467" lon="7.11156">
        <ele>795.35</ele>
        <time>2021-06-23T14:36:53Z</time>
      </trkpt>
      <trkpt lat="48.08462" lon="7.1115">
        <ele>793.88</ele>
        <time>2021-06-23T14:36:54Z</time>
      </trkpt>
      <trkpt lat="48.08455" lon="7.11149">
        <ele>792.05</ele>
        <time>2021-06-23T14:36:56Z</time>
      </trkpt>
      <trkpt lat="48.08433" lon="7.11171">
        <ele>788.51</ele>
        <time>2021-06-23T14:36:57Z</time>
      </trkpt>
      <trkpt lat="48.0842" lon="7.11177">
        <ele>787.47</ele>
        <time>2021-06-23T14:36:59Z</time>
      </trkpt>
      <trkpt lat="48.0838" lon="7.11184">
        <ele>784.53</ele>
        <time>2021-06-23T14:37:00Z</time>
      </trkpt>
      <trkpt lat="48.0836" lon="7.11184">
        <ele>784.15</ele>
        <time>2021-06-23T14:37:02Z</time>
      </trkpt>
      <trkpt lat="48.08343" lon="7.1118">
        <ele>783.73</ele>
        <time>2021-06-23T14:37:04Z</time>
      </trkpt>
      <trkpt lat="48.08326" lon="7.11168">
        <ele>781.04</ele>
        <time>2021-06-23T14:37:05Z</time>
      </trkpt>
      <trkpt lat="48.08239" lon="7.11093">
        <ele>769.74</ele>
        <time>2021-06-23T14:37:07Z</time>
      </trkpt>
      <trkpt lat="48.08147" lon="7.10991">
        <ele>763.88</ele>
        <time>2021-06-23T14:37:08Z</time>
      </trkpt>
      <trkpt lat="48.08082" lon="7.10909">
        <ele>754.75</ele>
        <time>2021-06-23T14:37:10Z</time>
      </trkpt>
      <trkpt lat="48.08052" lon="7.10879">
        <ele>752.74</ele>
        <time>2021-06-23T14:37:11Z</time>
      </trkpt>
      <trkpt lat="48.08011" lon="7.10849">
        <ele>748.16</ele>
        <time>2021-06-23T14:37:13Z</time>
      </trkpt>
      <trkpt lat="48.07953" lon="7.10812">
        <ele>745.26</ele>
        <time>2021-06-23T14:37:15Z</time>
      </trkpt>
      <trkpt lat="48.079" lon="7.10753">
        <ele>740.54</ele>
        <time>2021-06-23T14:37:16Z</time>
      </trkpt>
      <trkpt lat="48.07871" lon="7.10727">
        <ele>738.8</ele>
        <time>2021-06-23T14:37:18Z</time>
      </trkpt>
      <trkpt lat="48.07758" lon="7.10669">
        <ele>727.75</ele>
        <time>2021-06-23T14:37:19Z</time>
      </trkpt>
      <trkpt lat="48.07747" lon="7.10658">
        <ele>726.25</ele>
        <time>2021-06-23T14:37:21Z</time>
      </trkpt>
      <trkpt lat="48.07742" lon="7.10645">
        <ele>725.34</ele>
        <time>2021-06-23T14:37:22Z</time>
      </trkpt>
      <trkpt lat="48.07744" lon="7.10631">
        <ele>724.54</ele>
        <time>2021-06-23T14:37:24Z</time>
      </trkpt>
      <trkpt lat="48.07747" lon="7.10625">
        <ele>724.25</ele>
        <time>2021-06-23T14:37:26Z</time>
      </trkpt>
      <trkpt lat="48.07757" lon="7.10618">
        <ele>724.5</ele>
        <time>2021-06-23T14:37:27Z</time>
      </trkpt>
      <trkpt lat="48.0777" lon="7.10613">
        <ele>725.39</ele>
        <time>2021-06-23T14:37:29Z</time>
      </trkpt>
      <trkpt lat="48.07818" lon="7.10609">
        <ele>723.12</ele>
        <time>2021-06-23T14:37:30Z</time>
      </trkpt>
      <trkpt lat="48.07838" lon="7.10611">
        <ele>721.36</ele>
        <time>2021-06-23T14:37:32Z</time>
      </trkpt>
      <trkpt lat="48.07918" lon="7.10631">
        <ele>717.43</ele>
        <time>2021-06-23T14:37:33Z</time>
      </trkpt>
      <trkpt lat="48.07947" lon="7.10629">
        <ele>718.19</ele>
        <time>2021-06-23T14:37:35Z</time>
      </trkpt>
      <trkpt lat="48.07999" lon="7.10603">
        <ele>713.48</ele>
        <time>2021-06-23T14:37:37Z</time>
      </trkpt>
      <trkpt lat="48.0801" lon="7.10603">
        <ele>713.46</ele>
        <time>2021-06-23T14:37:38Z</time>
      </trkpt>
      <trkpt lat="48.08032" lon="7.10613">
        <ele>714.8</ele>
        <time>2021-06-23T14:37:40Z</time>
      </trkpt>
      <trkpt lat="48.08038" lon="7.10612">
        <ele>714.02</ele>
        <time>2021-06-23T14:37:41Z</time>
      </trkpt>
      <trkpt lat="48.08044" lon="7.10606">
        <ele>712.2</ele>
        <time>2021-06-23T14:37:43Z</time>
      </trkpt>
      <trkpt lat="48.08047" lon="7.10596">
        <ele>710.04</ele>
        <time>2021-06-23T14:37:44Z</time>
      </trkpt>
      <trkpt lat="48.08046" lon="7.10586">
        <ele>708.25</ele>
        <time>2021-06-23T14:37:46Z</time>
      </trkpt>
      <trkpt lat="48.0804" lon="7.10575">
        <ele>706.15</ele>
        <time>2021-06-23T14:37:48Z</time>
      </trkpt>
      <trkpt lat="48.08036" lon="7.10573">
        <ele>705.86</ele>
        <time>2021-06-23T14:37:49Z</time>
      </trkpt>
      <trkpt lat="48.08018" lon="7.10572">
        <ele>706.35</ele>
        <time>2021-06-23T14:37:51Z</time>
      </trkpt>
      <trkpt lat="48.08" lon="7.10572">
        <ele>707.15</ele>
        <time>2021-06-23T14:37:52Z</time>
      </trkpt>
      <trkpt lat="48.07958" lon="7.10565">
        <ele>704.77</ele>
        <time>2021-06-23T14:37:54Z</time>
      </trkpt>
      <trkpt lat="48.07934" lon="7.10559">
        <ele>701.95</ele>
        <time>2021-06-23T14:37:56Z</time>
      </trkpt>
      <trkpt lat="48.0792" lon="7.10553">
        <ele>699.66</ele>
        <time>2021-06-23T14:37:57Z</time>
      </trkpt>
      <trkpt lat="48.07845" lon="7.10507">
        <ele>694.69</ele>
        <time>2021-06-23T14:37:59Z</time>
      </trkpt>
      <trkpt lat="48.07727" lon="7.10447">
        <ele>688.82</ele>
        <time>2021-06-23T14:38:00Z</time>
      </trkpt>
      <trkpt lat="48.07659" lon="7.10381">
        <ele>682.33</ele>
        <time>2021-06-23T14:38:02Z</time>
      </trkpt>
      <trkpt lat="48.07641" lon="7.10373">
        <ele>680.63</ele>
        <time>2021-06-23T14:38:03Z</time>
      </trkpt>
      <trkpt lat="48.07526" lon="7.10348">
        <ele>670.91</ele>
        <time>2021-06-23T14:38:05Z</time>
      </trkpt>
      <trkpt lat="48.07434" lon="7.10335">
        <ele>669.6</ele>
        <time>2021-06-23T14:38:07Z</time>
      </trkpt>
      <trkpt lat="48.07404" lon="7.10334">
        <ele>667.64</ele>
        <time>2021-06-23T14:38:08Z</time>
      </trkpt>
      <trkpt lat="48.07387" lon="7.10341">
        <ele>668.09</ele>
        <time>2021-06-23T14:38:10Z</time>
      </trkpt>
      <trkpt lat="48.07359" lon="7.10366">
        <ele>667.81</ele>
        <time>2021-06-23T14:38:11Z</time>
      </trkpt>
      <trkpt lat="48.07354" lon="7.10366">
        <ele>666.09</ele>
        <time>2021-06-23T14:38:13Z</time>
      </trkpt>
      <trkpt lat="48.0735" lon="7.10362">
        <ele>664.89</ele>
        <time>2021-06-23T14:38:14Z</time>
      </trkpt>
      <trkpt lat="48.07346" lon="7.1035">
        <ele>662.26</ele>
        <time>2021-06-23T14:38:16Z</time>
      </trkpt>
      <trkpt lat="48.07346" lon="7.10338">
        <ele>660.77</ele>
        <time>2021-06-23T14:38:18Z</time>
      </trkpt>
      <trkpt lat="48.07351" lon="7.10326">
        <ele>660.15</ele>
        <time>2021-06-23T14:38:19Z</time>
      </trkpt>
      <trkpt lat="48.07362" lon="7.10319">
        <ele>660.38</ele>
        <time>2021-06-23T14:38:21Z</time>
      </trkpt>
      <trkpt lat="48.07388" lon="7.10307">
        <ele>659.34</ele>
        <time>2021-06-23T14:38:22Z</time>
      </trkpt>
      <trkpt lat="48.07444" lon="7.10289">
        <ele>656.66</ele>
        <time>2021-06-23T14:38:24Z</time>
      </trkpt>
      <trkpt lat="48.07518" lon="7.10281">
        <ele>653.78</ele>
        <time>2021-06-23T14:38:25Z</time>
      </trkpt>
      <trkpt lat="48.07603" lon="7.10267">
        <ele>648.64</ele>
        <time>2021-06-23T14:38:27Z</time>
      </trkpt>
      <trkpt lat="48.07682" lon="7.10261">
        <ele>644.83</ele>
        <time>2021-06-23T14:38:29Z</time>
      </trkpt>
      <trkpt lat="48.07843" lon="7.10255">
        <ele>637.59</ele>
        <time>2021-06-23T14:38:30Z</time>
      </trkpt>
      <trkpt lat="48.07852" lon="7.10253">
        <ele>636.82</ele>
        <time>2021-06-23T14:38:32Z</time>
      </trkpt>
      <trkpt lat="48.07859" lon="7.10246">
        <ele>636.17</ele>
        <time>2021-06-23T14:38:33Z</time>
      </trkpt>
      <trkpt lat="48.07862" lon="7.10236">
        <ele>636.7</ele>
        <time>2021-06-23T14:38:35Z</time>
      </trkpt>
      <trkpt lat="48.07862" lon="7.10223">
        <ele>637.17</ele>
        <time>2021-06-23T14:38:36Z</time>
      </trkpt>
      <trkpt lat="48.07833" lon="7.10017">
        <ele>628.9</ele>
        <time>2021-06-23T14:38:38Z</time>
      </trkpt>
      <trkpt lat="48.07829" lon="7.09931">
        <ele>629.01</ele>
        <time>2021-06-23T14:38:40Z</time>
      </trkpt>
      <trkpt lat="48.07832" lon="7.09893">
        <ele>627.83</ele>
        <time>2021-06-23T14:38:41Z</time>
      </trkpt>
      <trkpt lat="48.07831" lon="7.09879">
        <ele>626.64</ele>
        <time>2021-06-23T14:38:43Z</time>
      </trkpt>
      <trkpt lat="48.07826" lon="7.09862">
        <ele>624.8</ele>
        <time>2021-06-23T14:38:44Z</time>
      </trkpt>
      <trkpt lat="48.07819" lon="7.09849">
        <ele>624.14</ele>
        <time>2021-06-23T14:38:46Z</time>
      </trkpt>
      <trkpt lat="48.0781" lon="7.09838">
        <ele>623.35</ele>
        <time>2021-06-23T14:38:47Z</time>
      </trkpt>
      <trkpt lat="48.078" lon="7.09833">
        <ele>623.04</ele>
        <time>2021-06-23T14:38:49Z</time>
      </trkpt>
      <trkpt lat="48.07791" lon="7.09833">
        <ele>623.01</ele>
        <time>2021-06-23T14:38:51Z</time>
      </trkpt>
      <trkpt lat="48.07783" lon="7.09836">
        <ele>622.79</ele>
        <time>2021-06-23T14:38:52Z</time>
      </trkpt>
      <trkpt lat="48.07775" lon="7.09842">
        <ele>622.63</ele>
        <time>2021-06-23T14:38:54Z</time>
      </trkpt>
      <trkpt lat="48.07767" lon="7.09853">
        <ele>622.49</ele>
        <time>2021-06-23T14:38:55Z</time>
      </trkpt>
      <trkpt lat="48.07725" lon="7.0993">
        <ele>618.52</ele>
        <time>2021-06-23T14:38:57Z</time>
      </trkpt>
      <trkpt lat="48.07713" lon="7.09946">
        <ele>618.27</ele>
        <time>2021-06-23T14:38:59Z</time>
      </trkpt>
      <trkpt lat="48.07647" lon="7.10004">
        <ele>616.58</ele>
        <time>2021-06-23T14:39:00Z</time>
      </trkpt>
      <trkpt lat="48.07622" lon="7.10023">
        <ele>615.46</ele>
        <time>2021-06-23T14:39:02Z</time>
      </trkpt>
      <trkpt lat="48.07593" lon="7.10036">
        <ele>613</ele>
        <time>2021-06-23T14:39:03Z</time>
      </trkpt>
      <trkpt lat="48.07514" lon="7.10044">
        <ele>603.68</ele>
        <time>2021-06-23T14:39:05Z</time>
      </trkpt>
      <trkpt lat="48.07444" lon="7.10071">
        <ele>597.59</ele>
        <time>2021-06-23T14:39:06Z</time>
      </trkpt>
      <trkpt lat="48.07435" lon="7.10073">
        <ele>596.47</ele>
        <time>2021-06-23T14:39:08Z</time>
      </trkpt>
      <trkpt lat="48.07338" lon="7.10067">
        <ele>587.86</ele>
        <time>2021-06-23T14:39:10Z</time>
      </trkpt>
      <trkpt lat="48.07292" lon="7.10058">
        <ele>582.72</ele>
        <time>2021-06-23T14:39:11Z</time>
      </trkpt>
      <trkpt lat="48.07292" lon="7.10045">
        <ele>582.89</ele>
        <time>2021-06-23T14:39:13Z</time>
      </trkpt>
      <trkpt lat="48.07284" lon="7.10026">
        <ele>583.58</ele>
        <time>2021-06-23T14:39:15Z</time>
      </trkpt>
      <trkpt lat="48.0725" lon="7.09999">
        <ele>586.61</ele>
        <time>2021-06-23T14:39:17Z</time>
      </trkpt>
      <trkpt lat="48.07237" lon="7.09985">
        <ele>589.72</ele>
        <time>2021-06-23T14:39:19Z</time>
      </trkpt>
      <trkpt lat="48.07202" lon="7.09931">
        <ele>597.67</ele>
        <time>2021-06-23T14:39:21Z</time>
      </trkpt>
      <trkpt lat="48.07189" lon="7.09917">
        <ele>597.99</ele>
        <time>2021-06-23T14:39:22Z</time>
      </trkpt>
      <trkpt lat="48.07174" lon="7.09906">
        <ele>597.95</ele>
        <time>2021-06-23T14:39:24Z</time>
      </trkpt>
      <trkpt lat="48.07142" lon="7.09891">
        <ele>597.52</ele>
        <time>2021-06-23T14:39:26Z</time>
      </trkpt>
      <trkpt lat="48.07117" lon="7.09886">
        <ele>595.38</ele>
        <time>2021-06-23T14:39:28Z</time>
      </trkpt>
      <trkpt lat="48.07087" lon="7.09887">
        <ele>593.42</ele>
        <time>2021-06-23T14:39:30Z</time>
      </trkpt>
      <trkpt lat="48.06894" lon="7.09909">
        <ele>604.15</ele>
        <time>2021-06-23T14:39:32Z</time>
      </trkpt>
      <trkpt lat="48.06873" lon="7.09909">
        <ele>604.21</ele>
        <time>2021-06-23T14:39:34Z</time>
      </trkpt>
      <trkpt lat="48.06854" lon="7.09905">
        <ele>604.78</ele>
        <time>2021-06-23T14:39:36Z</time>
      </trkpt>
      <trkpt lat="48.06777" lon="7.09865">
        <ele>614.09</ele>
        <time>2021-06-23T14:39:37Z</time>
      </trkpt>
      <trkpt lat="48.06761" lon="7.09862">
        <ele>614.74</ele>
        <time>2021-06-23T14:39:39Z</time>
      </trkpt>
      <trkpt lat="48.06745" lon="7.09864">
        <ele>614.22</ele>
        <time>2021-06-23T14:39:41Z</time>
      </trkpt>
      <trkpt lat="48.06698" lon="7.09878">
        <ele>613.84</ele>
        <time>2021-06-23T14:39:43Z</time>
      </trkpt>
      <trkpt lat="48.06676" lon="7.09882">
        <ele>614.81</ele>
        <time>2021-06-23T14:39:45Z</time>
      </trkpt>
      <trkpt lat="48.06664" lon="7.09881">
        <ele>615.67</ele>
        <time>2021-06-23T14:39:47Z</time>
      </trkpt>
      <trkpt lat="48.06649" lon="7.09871">
        <ele>616.29</ele>
        <time>2021-06-23T14:39:49Z</time>
      </trkpt>
      <trkpt lat="48.06642" lon="7.09862">
        <ele>617.14</ele>
        <time>2021-06-23T14:39:50Z</time>
      </trkpt>
      <trkpt lat="48.06637" lon="7.09848">
        <ele>617.92</ele>
        <time>2021-06-23T14:39:52Z</time>
      </trkpt>
      <trkpt lat="48.06635" lon="7.09833">
        <ele>618.83</ele>
        <time>2021-06-23T14:39:54Z</time>
      </trkpt>
      <trkpt lat="48.06635" lon="7.0982">
        <ele>618.54</ele>
        <time>2021-06-23T14:39:56Z</time>
      </trkpt>
      <trkpt lat="48.06638" lon="7.09809">
        <ele>618.79</ele>
        <time>2021-06-23T14:39:58Z</time>
      </trkpt>
      <trkpt lat="48.06645" lon="7.0979">
        <ele>620.24</ele>
        <time>2021-06-23T14:40:00Z</time>
      </trkpt>
      <trkpt lat="48.06659" lon="7.09765">
        <ele>621.96</ele>
        <time>2021-06-23T14:40:02Z</time>
      </trkpt>
      <trkpt lat="48.06667" lon="7.09742">
        <ele>622.83</ele>
        <time>2021-06-23T14:40:04Z</time>
      </trkpt>
      <trkpt lat="48.06675" lon="7.09711">
        <ele>623.67</ele>
        <time>2021-06-23T14:40:05Z</time>
      </trkpt>
      <trkpt lat="48.06679" lon="7.09676">
        <ele>625.66</ele>
        <time>2021-06-23T14:40:07Z</time>
      </trkpt>
      <trkpt lat="48.06679" lon="7.09644">
        <ele>626.17</ele>
        <time>2021-06-23T14:40:09Z</time>
      </trkpt>
      <trkpt lat="48.06658" lon="7.09445">
        <ele>633.87</ele>
        <time>2021-06-23T14:40:11Z</time>
      </trkpt>
      <trkpt lat="48.06656" lon="7.09432">
        <ele>636.73</ele>
        <time>2021-06-23T14:40:13Z</time>
      </trkpt>
      <trkpt lat="48.0665" lon="7.09419">
        <ele>638.35</ele>
        <time>2021-06-23T14:40:15Z</time>
      </trkpt>
      <trkpt lat="48.06641" lon="7.09408">
        <ele>639.17</ele>
        <time>2021-06-23T14:40:17Z</time>
      </trkpt>
      <trkpt lat="48.06629" lon="7.09401">
        <ele>640.47</ele>
        <time>2021-06-23T14:40:19Z</time>
      </trkpt>
      <trkpt lat="48.06617" lon="7.09402">
        <ele>639.64</ele>
        <time>2021-06-23T14:40:20Z</time>
      </trkpt>
      <trkpt lat="48.06586" lon="7.09419">
        <ele>636.12</ele>
        <time>2021-06-23T14:40:22Z</time>
      </trkpt>
      <trkpt lat="48.06574" lon="7.09422">
        <ele>636.67</ele>
        <time>2021-06-23T14:40:24Z</time>
      </trkpt>
      <trkpt lat="48.06563" lon="7.09418">
        <ele>638.79</ele>
        <time>2021-06-23T14:40:26Z</time>
      </trkpt>
      <trkpt lat="48.06533" lon="7.09399">
        <ele>647.01</ele>
        <time>2021-06-23T14:40:28Z</time>
      </trkpt>
      <trkpt lat="48.06523" lon="7.09394">
        <ele>648.22</ele>
        <time>2021-06-23T14:40:30Z</time>
      </trkpt>
      <trkpt lat="48.06501" lon="7.09393">
        <ele>647.53</ele>
        <time>2021-06-23T14:40:32Z</time>
      </trkpt>
      <trkpt lat="48.0641" lon="7.09434">
        <ele>657</ele>
        <time>2021-06-23T14:40:33Z</time>
      </trkpt>
      <trkpt lat="48.06375" lon="7.09448">
        <ele>657.39</ele>
        <time>2021-06-23T14:40:35Z</time>
      </trkpt>
      <trkpt lat="48.06358" lon="7.09451">
        <ele>655.64</ele>
        <time>2021-06-23T14:40:37Z</time>
      </trkpt>
      <trkpt lat="48.06344" lon="7.0945">
        <ele>654.42</ele>
        <time>2021-06-23T14:40:39Z</time>
      </trkpt>
      <trkpt lat="48.06323" lon="7.09445">
        <ele>653.48</ele>
        <time>2021-06-23T14:40:41Z</time>
      </trkpt>
      <trkpt lat="48.06311" lon="7.09439">
        <ele>653.03</ele>
        <time>2021-06-23T14:40:43Z</time>
      </trkpt>
      <trkpt lat="48.06296" lon="7.09427">
        <ele>653.54</ele>
        <time>2021-06-23T14:40:45Z</time>
      </trkpt>
      <trkpt lat="48.0628" lon="7.09409">
        <ele>654.35</ele>
        <time>2021-06-23T14:40:47Z</time>
      </trkpt>
      <trkpt lat="48.06271" lon="7.09392">
        <ele>655.84</ele>
        <time>2021-06-23T14:40:48Z</time>
      </trkpt>
      <trkpt lat="48.06247" lon="7.09339">
        <ele>663.11</ele>
        <time>2021-06-23T14:40:50Z</time>
      </trkpt>
      <trkpt lat="48.06236" lon="7.09324">
        <ele>664.22</ele>
        <time>2021-06-23T14:40:52Z</time>
      </trkpt>
      <trkpt lat="48.06224" lon="7.09314">
        <ele>664.21</ele>
        <time>2021-06-23T14:40:54Z</time>
      </trkpt>
      <trkpt lat="48.06208" lon="7.09309">
        <ele>664.09</ele>
        <time>2021-06-23T14:40:56Z</time>
      </trkpt>
      <trkpt lat="48.06193" lon="7.09311">
        <ele>662.84</ele>
        <time>2021-06-23T14:40:58Z</time>
      </trkpt>
      <trkpt lat="48.06182" lon="7.09315">
        <ele>662.29</ele>
        <time>2021-06-23T14:41:00Z</time>
      </trkpt>
      <trkpt lat="48.06148" lon="7.09339">
        <ele>660.38</ele>
        <time>2021-06-23T14:41:02Z</time>
      </trkpt>
      <trkpt lat="48.06129" lon="7.09346">
        <ele>660.73</ele>
        <time>2021-06-23T14:41:03Z</time>
      </trkpt>
      <trkpt lat="48.06111" lon="7.09346">
        <ele>662.33</ele>
        <time>2021-06-23T14:41:05Z</time>
      </trkpt>
      <trkpt lat="48.06088" lon="7.09339">
        <ele>664.81</ele>
        <time>2021-06-23T14:41:07Z</time>
      </trkpt>
      <trkpt lat="48.06064" lon="7.09322">
        <ele>667.93</ele>
        <time>2021-06-23T14:41:09Z</time>
      </trkpt>
      <trkpt lat="48.06037" lon="7.09297">
        <ele>670.84</ele>
        <time>2021-06-23T14:41:11Z</time>
      </trkpt>
      <trkpt lat="48.06002" lon="7.09254">
        <ele>672.79</ele>
        <time>2021-06-23T14:41:13Z</time>
      </trkpt>
      <trkpt lat="48.0599" lon="7.0923">
        <ele>674.86</ele>
        <time>2021-06-23T14:41:15Z</time>
      </trkpt>
      <trkpt lat="48.0599" lon="7.0923">
        <ele>674.86</ele>
        <time>2021-06-23T14:41:15Z</time>
      </trkpt>
      <trkpt lat="48.05978" lon="7.09206">
        <ele>676.93</ele>
        <time>2021-06-23T14:41:16Z</time>
      </trkpt>
      <trkpt lat="48.05969" lon="7.09179">
        <ele>679.41</ele>
        <time>2021-06-23T14:41:18Z</time>
      </trkpt>
      <trkpt lat="48.05959" lon="7.09144">
        <ele>681.3</ele>
        <time>2021-06-23T14:41:20Z</time>
      </trkpt>
      <trkpt lat="48.05956" lon="7.09123">
        <ele>680.94</ele>
        <time>2021-06-23T14:41:22Z</time>
      </trkpt>
      <trkpt lat="48.05955" lon="7.09099">
        <ele>680.28</ele>
        <time>2021-06-23T14:41:23Z</time>
      </trkpt>
      <trkpt lat="48.05957" lon="7.09069">
        <ele>680.64</ele>
        <time>2021-06-23T14:41:25Z</time>
      </trkpt>
      <trkpt lat="48.05962" lon="7.09052">
        <ele>682.14</ele>
        <time>2021-06-23T14:41:27Z</time>
      </trkpt>
      <trkpt lat="48.05969" lon="7.09035">
        <ele>684.2</ele>
        <time>2021-06-23T14:41:28Z</time>
      </trkpt>
      <trkpt lat="48.0602" lon="7.08941">
        <ele>693.1</ele>
        <time>2021-06-23T14:41:30Z</time>
      </trkpt>
      <trkpt lat="48.06044" lon="7.0888">
        <ele>696.22</ele>
        <time>2021-06-23T14:41:32Z</time>
      </trkpt>
      <trkpt lat="48.06058" lon="7.08829">
        <ele>700.27</ele>
        <time>2021-06-23T14:41:34Z</time>
      </trkpt>
      <trkpt lat="48.06063" lon="7.08778">
        <ele>700.7</ele>
        <time>2021-06-23T14:41:35Z</time>
      </trkpt>
      <trkpt lat="48.06062" lon="7.08699">
        <ele>701.19</ele>
        <time>2021-06-23T14:41:37Z</time>
      </trkpt>
      <trkpt lat="48.06063" lon="7.08671">
        <ele>702.22</ele>
        <time>2021-06-23T14:41:39Z</time>
      </trkpt>
      <trkpt lat="48.06082" lon="7.08502">
        <ele>706.77</ele>
        <time>2021-06-23T14:41:41Z</time>
      </trkpt>
      <trkpt lat="48.06091" lon="7.08456">
        <ele>706.92</ele>
        <time>2021-06-23T14:41:42Z</time>
      </trkpt>
      <trkpt lat="48.06121" lon="7.0836">
        <ele>709.56</ele>
        <time>2021-06-23T14:41:44Z</time>
      </trkpt>
      <trkpt lat="48.06129" lon="7.08329">
        <ele>711.06</ele>
        <time>2021-06-23T14:41:46Z</time>
      </trkpt>
      <trkpt lat="48.06143" lon="7.08235">
        <ele>711.95</ele>
        <time>2021-06-23T14:41:47Z</time>
      </trkpt>
      <trkpt lat="48.06147" lon="7.08216">
        <ele>711.97</ele>
        <time>2021-06-23T14:41:49Z</time>
      </trkpt>
      <trkpt lat="48.06156" lon="7.082">
        <ele>712.09</ele>
        <time>2021-06-23T14:41:51Z</time>
      </trkpt>
      <trkpt lat="48.0617" lon="7.08184">
        <ele>713.94</ele>
        <time>2021-06-23T14:41:53Z</time>
      </trkpt>
      <trkpt lat="48.06185" lon="7.08171">
        <ele>716.48</ele>
        <time>2021-06-23T14:41:54Z</time>
      </trkpt>
      <trkpt lat="48.06218" lon="7.08151">
        <ele>720.68</ele>
        <time>2021-06-23T14:41:56Z</time>
      </trkpt>
      <trkpt lat="48.06233" lon="7.08145">
        <ele>721.79</ele>
        <time>2021-06-23T14:41:58Z</time>
      </trkpt>
      <trkpt lat="48.06246" lon="7.08143">
        <ele>723.22</ele>
        <time>2021-06-23T14:41:59Z</time>
      </trkpt>
      <trkpt lat="48.06295" lon="7.0815">
        <ele>731.12</ele>
        <time>2021-06-23T14:42:01Z</time>
      </trkpt>
      <trkpt lat="48.06313" lon="7.08146">
        <ele>733.16</ele>
        <time>2021-06-23T14:42:03Z</time>
      </trkpt>
      <trkpt lat="48.06323" lon="7.0814">
        <ele>733.91</ele>
        <time>2021-06-23T14:42:05Z</time>
      </trkpt>
      <trkpt lat="48.06336" lon="7.08127">
        <ele>735.11</ele>
        <time>2021-06-23T14:42:06Z</time>
      </trkpt>
      <trkpt lat="48.06345" lon="7.08114">
        <ele>736.34</ele>
        <time>2021-06-23T14:42:08Z</time>
      </trkpt>
      <trkpt lat="48.06352" lon="7.08094">
        <ele>737.47</ele>
        <time>2021-06-23T14:42:10Z</time>
      </trkpt>
      <trkpt lat="48.06357" lon="7.08073">
        <ele>737.39</ele>
        <time>2021-06-23T14:42:12Z</time>
      </trkpt>
      <trkpt lat="48.06357" lon="7.08058">
        <ele>736.28</ele>
        <time>2021-06-23T14:42:13Z</time>
      </trkpt>
      <trkpt lat="48.06353" lon="7.08011">
        <ele>732.49</ele>
        <time>2021-06-23T14:42:15Z</time>
      </trkpt>
      <trkpt lat="48.06355" lon="7.07989">
        <ele>732.59</ele>
        <time>2021-06-23T14:42:17Z</time>
      </trkpt>
      <trkpt lat="48.06363" lon="7.07949">
        <ele>735.65</ele>
        <time>2021-06-23T14:42:18Z</time>
      </trkpt>
      <trkpt lat="48.06382" lon="7.07873">
        <ele>739.03</ele>
        <time>2021-06-23T14:42:20Z</time>
      </trkpt>
      <trkpt lat="48.06401" lon="7.07805">
        <ele>741.66</ele>
        <time>2021-06-23T14:42:22Z</time>
      </trkpt>
      <trkpt lat="48.06416" lon="7.07776">
        <ele>742.19</ele>
        <time>2021-06-23T14:42:24Z</time>
      </trkpt>
      <trkpt lat="48.06428" lon="7.07763">
        <ele>741.31</ele>
        <time>2021-06-23T14:42:25Z</time>
      </trkpt>
      <trkpt lat="48.06445" lon="7.0775">
        <ele>741.05</ele>
        <time>2021-06-23T14:42:27Z</time>
      </trkpt>
      <trkpt lat="48.06467" lon="7.0774">
        <ele>740.03</ele>
        <time>2021-06-23T14:42:29Z</time>
      </trkpt>
      <trkpt lat="48.06581" lon="7.07708">
        <ele>754.44</ele>
        <time>2021-06-23T14:42:31Z</time>
      </trkpt>
      <trkpt lat="48.06645" lon="7.07675">
        <ele>758.39</ele>
        <time>2021-06-23T14:42:32Z</time>
      </trkpt>
      <trkpt lat="48.0666" lon="7.07664">
        <ele>758.57</ele>
        <time>2021-06-23T14:42:34Z</time>
      </trkpt>
      <trkpt lat="48.06675" lon="7.07649">
        <ele>759.21</ele>
        <time>2021-06-23T14:42:36Z</time>
      </trkpt>
      <trkpt lat="48.06741" lon="7.07559">
        <ele>765.93</ele>
        <time>2021-06-23T14:42:37Z</time>
      </trkpt>
      <trkpt lat="48.0676" lon="7.07544">
        <ele>766.95</ele>
        <time>2021-06-23T14:42:39Z</time>
      </trkpt>
      <trkpt lat="48.06769" lon="7.0754">
        <ele>767.37</ele>
        <time>2021-06-23T14:42:41Z</time>
      </trkpt>
      <trkpt lat="48.06808" lon="7.07533">
        <ele>770.24</ele>
        <time>2021-06-23T14:42:43Z</time>
      </trkpt>
      <trkpt lat="48.0686" lon="7.07537">
        <ele>775.92</ele>
        <time>2021-06-23T14:42:44Z</time>
      </trkpt>
      <trkpt lat="48.06877" lon="7.07535">
        <ele>776.36</ele>
        <time>2021-06-23T14:42:46Z</time>
      </trkpt>
      <trkpt lat="48.06883" lon="7.0753">
        <ele>775.95</ele>
        <time>2021-06-23T14:42:48Z</time>
      </trkpt>
      <trkpt lat="48.06889" lon="7.07522">
        <ele>774.97</ele>
        <time>2021-06-23T14:42:49Z</time>
      </trkpt>
      <trkpt lat="48.06894" lon="7.07509">
        <ele>773.98</ele>
        <time>2021-06-23T14:42:51Z</time>
      </trkpt>
      <trkpt lat="48.06896" lon="7.07488">
        <ele>775.59</ele>
        <time>2021-06-23T14:42:53Z</time>
      </trkpt>
      <trkpt lat="48.06891" lon="7.07468">
        <ele>778.36</ele>
        <time>2021-06-23T14:42:55Z</time>
      </trkpt>
      <trkpt lat="48.06877" lon="7.0744">
        <ele>781.73</ele>
        <time>2021-06-23T14:42:56Z</time>
      </trkpt>
      <trkpt lat="48.06835" lon="7.07346">
        <ele>783.65</ele>
        <time>2021-06-23T14:42:58Z</time>
      </trkpt>
      <trkpt lat="48.06819" lon="7.07317">
        <ele>786.64</ele>
        <time>2021-06-23T14:43:00Z</time>
      </trkpt>
      <trkpt lat="48.06764" lon="7.07255">
        <ele>785.2</ele>
        <time>2021-06-23T14:43:02Z</time>
      </trkpt>
      <trkpt lat="48.06756" lon="7.07232">
        <ele>784.96</ele>
        <time>2021-06-23T14:43:03Z</time>
      </trkpt>
      <trkpt lat="48.06746" lon="7.07192">
        <ele>785.49</ele>
        <time>2021-06-23T14:43:05Z</time>
      </trkpt>
      <trkpt lat="48.06734" lon="7.07085">
        <ele>795.62</ele>
        <time>2021-06-23T14:43:07Z</time>
      </trkpt>
      <trkpt lat="48.06736" lon="7.07044">
        <ele>799.07</ele>
        <time>2021-06-23T14:43:08Z</time>
      </trkpt>
      <trkpt lat="48.06735" lon="7.07031">
        <ele>800.07</ele>
        <time>2021-06-23T14:43:10Z</time>
      </trkpt>
      <trkpt lat="48.06727" lon="7.07007">
        <ele>801.84</ele>
        <time>2021-06-23T14:43:12Z</time>
      </trkpt>
      <trkpt lat="48.0672" lon="7.06997">
        <ele>802.56</ele>
        <time>2021-06-23T14:43:14Z</time>
      </trkpt>
      <trkpt lat="48.06705" lon="7.06991">
        <ele>803.14</ele>
        <time>2021-06-23T14:43:15Z</time>
      </trkpt>
      <trkpt lat="48.06688" lon="7.06999">
        <ele>802.46</ele>
        <time>2021-06-23T14:43:17Z</time>
      </trkpt>
      <trkpt lat="48.06677" lon="7.0701">
        <ele>802.13</ele>
        <time>2021-06-23T14:43:19Z</time>
      </trkpt>
      <trkpt lat="48.06643" lon="7.07055">
        <ele>797.92</ele>
        <time>2021-06-23T14:43:20Z</time>
      </trkpt>
      <trkpt lat="48.06628" lon="7.07065">
        <ele>797.98</ele>
        <time>2021-06-23T14:43:22Z</time>
      </trkpt>
      <trkpt lat="48.06611" lon="7.07066">
        <ele>799.05</ele>
        <time>2021-06-23T14:43:24Z</time>
      </trkpt>
      <trkpt lat="48.066" lon="7.07062">
        <ele>799.09</ele>
        <time>2021-06-23T14:43:26Z</time>
      </trkpt>
      <trkpt lat="48.06531" lon="7.06993">
        <ele>802.7</ele>
        <time>2021-06-23T14:43:27Z</time>
      </trkpt>
      <trkpt lat="48.0649" lon="7.0694">
        <ele>804.82</ele>
        <time>2021-06-23T14:43:29Z</time>
      </trkpt>
      <trkpt lat="48.06472" lon="7.06913">
        <ele>807.55</ele>
        <time>2021-06-23T14:43:31Z</time>
      </trkpt>
      <trkpt lat="48.06461" lon="7.06884">
        <ele>811.08</ele>
        <time>2021-06-23T14:43:33Z</time>
      </trkpt>
      <trkpt lat="48.06459" lon="7.06868">
        <ele>812.79</ele>
        <time>2021-06-23T14:43:34Z</time>
      </trkpt>
      <trkpt lat="48.06454" lon="7.06788">
        <ele>816.6</ele>
        <time>2021-06-23T14:43:36Z</time>
      </trkpt>
      <trkpt lat="48.06451" lon="7.06761">
        <ele>818.66</ele>
        <time>2021-06-23T14:43:38Z</time>
      </trkpt>
      <trkpt lat="48.06441" lon="7.06718">
        <ele>821.67</ele>
        <time>2021-06-23T14:43:39Z</time>
      </trkpt>
      <trkpt lat="48.06376" lon="7.06518">
        <ele>827.73</ele>
        <time>2021-06-23T14:43:41Z</time>
      </trkpt>
      <trkpt lat="48.0636" lon="7.06474">
        <ele>829.58</ele>
        <time>2021-06-23T14:43:43Z</time>
      </trkpt>
      <trkpt lat="48.06339" lon="7.0634">
        <ele>832.12</ele>
        <time>2021-06-23T14:43:45Z</time>
      </trkpt>
      <trkpt lat="48.06337" lon="7.06292">
        <ele>831.52</ele>
        <time>2021-06-23T14:43:46Z</time>
      </trkpt>
      <trkpt lat="48.06339" lon="7.06269">
        <ele>832.91</ele>
        <time>2021-06-23T14:43:48Z</time>
      </trkpt>
      <trkpt lat="48.06342" lon="7.06251">
        <ele>834.75</ele>
        <time>2021-06-23T14:43:50Z</time>
      </trkpt>
      <trkpt lat="48.06361" lon="7.06168">
        <ele>836.97</ele>
        <time>2021-06-23T14:43:52Z</time>
      </trkpt>
      <trkpt lat="48.06381" lon="7.06101">
        <ele>841.92</ele>
        <time>2021-06-23T14:43:53Z</time>
      </trkpt>
      <trkpt lat="48.06401" lon="7.06061">
        <ele>841.89</ele>
        <time>2021-06-23T14:43:55Z</time>
      </trkpt>
      <trkpt lat="48.06423" lon="7.06027">
        <ele>842.86</ele>
        <time>2021-06-23T14:43:57Z</time>
      </trkpt>
      <trkpt lat="48.06445" lon="7.06003">
        <ele>844.58</ele>
        <time>2021-06-23T14:43:58Z</time>
      </trkpt>
      <trkpt lat="48.06462" lon="7.0599">
        <ele>846.47</ele>
        <time>2021-06-23T14:44:00Z</time>
      </trkpt>
      <trkpt lat="48.06481" lon="7.05986">
        <ele>848.35</ele>
        <time>2021-06-23T14:44:02Z</time>
      </trkpt>
      <trkpt lat="48.06512" lon="7.05994">
        <ele>850.41</ele>
        <time>2021-06-23T14:44:04Z</time>
      </trkpt>
      <trkpt lat="48.06595" lon="7.06023">
        <ele>854.89</ele>
        <time>2021-06-23T14:44:05Z</time>
      </trkpt>
      <trkpt lat="48.06614" lon="7.06028">
        <ele>855.19</ele>
        <time>2021-06-23T14:44:07Z</time>
      </trkpt>
      <trkpt lat="48.06649" lon="7.06032">
        <ele>857.8</ele>
        <time>2021-06-23T14:44:09Z</time>
      </trkpt>
      <trkpt lat="48.06671" lon="7.06029">
        <ele>859.76</ele>
        <time>2021-06-23T14:44:10Z</time>
      </trkpt>
      <trkpt lat="48.06694" lon="7.06021">
        <ele>861.25</ele>
        <time>2021-06-23T14:44:12Z</time>
      </trkpt>
      <trkpt lat="48.0675" lon="7.05991">
        <ele>866.37</ele>
        <time>2021-06-23T14:44:14Z</time>
      </trkpt>
      <trkpt lat="48.06771" lon="7.05977">
        <ele>868.69</ele>
        <time>2021-06-23T14:44:16Z</time>
      </trkpt>
      <trkpt lat="48.06778" lon="7.0597">
        <ele>869.07</ele>
        <time>2021-06-23T14:44:17Z</time>
      </trkpt>
      <trkpt lat="48.06784" lon="7.05952">
        <ele>870.68</ele>
        <time>2021-06-23T14:44:19Z</time>
      </trkpt>
      <trkpt lat="48.06784" lon="7.0594">
        <ele>871.22</ele>
        <time>2021-06-23T14:44:21Z</time>
      </trkpt>
      <trkpt lat="48.06781" lon="7.05928">
        <ele>871.7</ele>
        <time>2021-06-23T14:44:23Z</time>
      </trkpt>
      <trkpt lat="48.06768" lon="7.05913">
        <ele>871.06</ele>
        <time>2021-06-23T14:44:24Z</time>
      </trkpt>
      <trkpt lat="48.06745" lon="7.05894">
        <ele>869.68</ele>
        <time>2021-06-23T14:44:26Z</time>
      </trkpt>
      <trkpt lat="48.06716" lon="7.0586">
        <ele>871.04</ele>
        <time>2021-06-23T14:44:28Z</time>
      </trkpt>
      <trkpt lat="48.06694" lon="7.0582">
        <ele>875.42</ele>
        <time>2021-06-23T14:44:29Z</time>
      </trkpt>
      <trkpt lat="48.06686" lon="7.05784">
        <ele>876.86</ele>
        <time>2021-06-23T14:44:31Z</time>
      </trkpt>
      <trkpt lat="48.06684" lon="7.05749">
        <ele>877.29</ele>
        <time>2021-06-23T14:44:33Z</time>
      </trkpt>
      <trkpt lat="48.0669" lon="7.05714">
        <ele>876.52</ele>
        <time>2021-06-23T14:44:35Z</time>
      </trkpt>
      <trkpt lat="48.06734" lon="7.05567">
        <ele>880.85</ele>
        <time>2021-06-23T14:44:36Z</time>
      </trkpt>
      <trkpt lat="48.06743" lon="7.05548">
        <ele>881.1</ele>
        <time>2021-06-23T14:44:38Z</time>
      </trkpt>
      <trkpt lat="48.06775" lon="7.0549">
        <ele>884.68</ele>
        <time>2021-06-23T14:44:40Z</time>
      </trkpt>
      <trkpt lat="48.06792" lon="7.0547">
        <ele>889.96</ele>
        <time>2021-06-23T14:44:42Z</time>
      </trkpt>
      <trkpt lat="48.06804" lon="7.05449">
        <ele>893.45</ele>
        <time>2021-06-23T14:44:43Z</time>
      </trkpt>
      <trkpt lat="48.06838" lon="7.05365">
        <ele>895.04</ele>
        <time>2021-06-23T14:44:45Z</time>
      </trkpt>
      <trkpt lat="48.06845" lon="7.05327">
        <ele>895.53</ele>
        <time>2021-06-23T14:44:47Z</time>
      </trkpt>
      <trkpt lat="48.06859" lon="7.05163">
        <ele>905.01</ele>
        <time>2021-06-23T14:44:48Z</time>
      </trkpt>
      <trkpt lat="48.06868" lon="7.05102">
        <ele>904.98</ele>
        <time>2021-06-23T14:44:50Z</time>
      </trkpt>
      <trkpt lat="48.06911" lon="7.04887">
        <ele>913.06</ele>
        <time>2021-06-23T14:44:52Z</time>
      </trkpt>
      <trkpt lat="48.06913" lon="7.04848">
        <ele>914.73</ele>
        <time>2021-06-23T14:44:54Z</time>
      </trkpt>
      <trkpt lat="48.06911" lon="7.04818">
        <ele>914.9</ele>
        <time>2021-06-23T14:44:55Z</time>
      </trkpt>
      <trkpt lat="48.06906" lon="7.04789">
        <ele>915</ele>
        <time>2021-06-23T14:44:57Z</time>
      </trkpt>
      <trkpt lat="48.06879" lon="7.04729">
        <ele>911.2</ele>
        <time>2021-06-23T14:44:59Z</time>
      </trkpt>
      <trkpt lat="48.06856" lon="7.04709">
        <ele>910.59</ele>
        <time>2021-06-23T14:45:00Z</time>
      </trkpt>
      <trkpt lat="48.06832" lon="7.04704">
        <ele>913.51</ele>
        <time>2021-06-23T14:45:02Z</time>
      </trkpt>
      <trkpt lat="48.06816" lon="7.04709">
        <ele>918.18</ele>
        <time>2021-06-23T14:45:04Z</time>
      </trkpt>
      <trkpt lat="48.06804" lon="7.04719">
        <ele>922.22</ele>
        <time>2021-06-23T14:45:06Z</time>
      </trkpt>
      <trkpt lat="48.06748" lon="7.04794">
        <ele>927.43</ele>
        <time>2021-06-23T14:45:07Z</time>
      </trkpt>
      <trkpt lat="48.06724" lon="7.04813">
        <ele>926.4</ele>
        <time>2021-06-23T14:45:09Z</time>
      </trkpt>
      <trkpt lat="48.06701" lon="7.0482">
        <ele>926.71</ele>
        <time>2021-06-23T14:45:11Z</time>
      </trkpt>
      <trkpt lat="48.06667" lon="7.04809">
        <ele>926.73</ele>
        <time>2021-06-23T14:45:13Z</time>
      </trkpt>
      <trkpt lat="48.06598" lon="7.04767">
        <ele>935.3</ele>
        <time>2021-06-23T14:45:14Z</time>
      </trkpt>
      <trkpt lat="48.06577" lon="7.04763">
        <ele>937.54</ele>
        <time>2021-06-23T14:45:16Z</time>
      </trkpt>
      <trkpt lat="48.06555" lon="7.04768">
        <ele>940.17</ele>
        <time>2021-06-23T14:45:18Z</time>
      </trkpt>
      <trkpt lat="48.06521" lon="7.04801">
        <ele>943.48</ele>
        <time>2021-06-23T14:45:19Z</time>
      </trkpt>
      <trkpt lat="48.06494" lon="7.04834">
        <ele>943.3</ele>
        <time>2021-06-23T14:45:21Z</time>
      </trkpt>
      <trkpt lat="48.06469" lon="7.04852">
        <ele>943.07</ele>
        <time>2021-06-23T14:45:23Z</time>
      </trkpt>
      <trkpt lat="48.06446" lon="7.04857">
        <ele>943.27</ele>
        <time>2021-06-23T14:45:25Z</time>
      </trkpt>
      <trkpt lat="48.06423" lon="7.0485">
        <ele>945.06</ele>
        <time>2021-06-23T14:45:26Z</time>
      </trkpt>
      <trkpt lat="48.06399" lon="7.04828">
        <ele>946.89</ele>
        <time>2021-06-23T14:45:28Z</time>
      </trkpt>
      <trkpt lat="48.06364" lon="7.0475">
        <ele>951.3</ele>
        <time>2021-06-23T14:45:30Z</time>
      </trkpt>
      <trkpt lat="48.06343" lon="7.0473">
        <ele>956.07</ele>
        <time>2021-06-23T14:45:32Z</time>
      </trkpt>
      <trkpt lat="48.06315" lon="7.04723">
        <ele>959.3</ele>
        <time>2021-06-23T14:45:33Z</time>
      </trkpt>
      <trkpt lat="48.06207" lon="7.0472">
        <ele>960.69</ele>
        <time>2021-06-23T14:45:35Z</time>
      </trkpt>
      <trkpt lat="48.06158" lon="7.04725">
        <ele>960.36</ele>
        <time>2021-06-23T14:45:37Z</time>
      </trkpt>
      <trkpt lat="48.06149" lon="7.0472">
        <ele>961.57</ele>
        <time>2021-06-23T14:45:38Z</time>
      </trkpt>
      <trkpt lat="48.06141" lon="7.04707">
        <ele>964.32</ele>
        <time>2021-06-23T14:45:40Z</time>
      </trkpt>
      <trkpt lat="48.06137" lon="7.04687">
        <ele>968.74</ele>
        <time>2021-06-23T14:45:42Z</time>
      </trkpt>
      <trkpt lat="48.0614" lon="7.04672">
        <ele>972.7</ele>
        <time>2021-06-23T14:45:44Z</time>
      </trkpt>
      <trkpt lat="48.06143" lon="7.04665">
        <ele>974.25</ele>
        <time>2021-06-23T14:45:45Z</time>
      </trkpt>
      <trkpt lat="48.06147" lon="7.04662">
        <ele>974.95</ele>
        <time>2021-06-23T14:45:47Z</time>
      </trkpt>
      <trkpt lat="48.06155" lon="7.04659">
        <ele>975.45</ele>
        <time>2021-06-23T14:45:49Z</time>
      </trkpt>
      <trkpt lat="48.06162" lon="7.0466">
        <ele>975.31</ele>
        <time>2021-06-23T14:45:50Z</time>
      </trkpt>
      <trkpt lat="48.06182" lon="7.04668">
        <ele>973.64</ele>
        <time>2021-06-23T14:45:52Z</time>
      </trkpt>
      <trkpt lat="48.06203" lon="7.04683">
        <ele>969.97</ele>
        <time>2021-06-23T14:45:54Z</time>
      </trkpt>
      <trkpt lat="48.06217" lon="7.04689">
        <ele>968.49</ele>
        <time>2021-06-23T14:45:56Z</time>
      </trkpt>
      <trkpt lat="48.0624" lon="7.04689">
        <ele>968.19</ele>
        <time>2021-06-23T14:45:57Z</time>
      </trkpt>
      <trkpt lat="48.06263" lon="7.04686">
        <ele>969.11</ele>
        <time>2021-06-23T14:45:59Z</time>
      </trkpt>
      <trkpt lat="48.06297" lon="7.04675">
        <ele>973.18</ele>
        <time>2021-06-23T14:46:01Z</time>
      </trkpt>
      <trkpt lat="48.06335" lon="7.04667">
        <ele>974.97</ele>
        <time>2021-06-23T14:46:03Z</time>
      </trkpt>
      <trkpt lat="48.0638" lon="7.04666">
        <ele>976.42</ele>
        <time>2021-06-23T14:46:04Z</time>
      </trkpt>
      <trkpt lat="48.06441" lon="7.0468">
        <ele>976.92</ele>
        <time>2021-06-23T14:46:06Z</time>
      </trkpt>
      <trkpt lat="48.06467" lon="7.04678">
        <ele>977.79</ele>
        <time>2021-06-23T14:46:08Z</time>
      </trkpt>
      <trkpt lat="48.06483" lon="7.04669">
        <ele>978.68</ele>
        <time>2021-06-23T14:46:09Z</time>
      </trkpt>
      <trkpt lat="48.06501" lon="7.04653">
        <ele>980.18</ele>
        <time>2021-06-23T14:46:11Z</time>
      </trkpt>
      <trkpt lat="48.06569" lon="7.04577">
        <ele>984.3</ele>
        <time>2021-06-23T14:46:13Z</time>
      </trkpt>
      <trkpt lat="48.06641" lon="7.04465">
        <ele>983.92</ele>
        <time>2021-06-23T14:46:15Z</time>
      </trkpt>
      <trkpt lat="48.06662" lon="7.04425">
        <ele>987.19</ele>
        <time>2021-06-23T14:46:16Z</time>
      </trkpt>
      <trkpt lat="48.06681" lon="7.04372">
        <ele>989.33</ele>
        <time>2021-06-23T14:46:18Z</time>
      </trkpt>
      <trkpt lat="48.06697" lon="7.04306">
        <ele>994.05</ele>
        <time>2021-06-23T14:46:20Z</time>
      </trkpt>
      <trkpt lat="48.06703" lon="7.04285">
        <ele>994.75</ele>
        <time>2021-06-23T14:46:22Z</time>
      </trkpt>
      <trkpt lat="48.06717" lon="7.04253">
        <ele>994.76</ele>
        <time>2021-06-23T14:46:23Z</time>
      </trkpt>
      <trkpt lat="48.06727" lon="7.04235">
        <ele>996.85</ele>
        <time>2021-06-23T14:46:25Z</time>
      </trkpt>
      <trkpt lat="48.06749" lon="7.04204">
        <ele>999.43</ele>
        <time>2021-06-23T14:46:27Z</time>
      </trkpt>
      <trkpt lat="48.0676" lon="7.04186">
        <ele>999.79</ele>
        <time>2021-06-23T14:46:28Z</time>
      </trkpt>
      <trkpt lat="48.06768" lon="7.04169">
        <ele>1000.7</ele>
        <time>2021-06-23T14:46:30Z</time>
      </trkpt>
      <trkpt lat="48.06829" lon="7.03999">
        <ele>1012.6</ele>
        <time>2021-06-23T14:46:32Z</time>
      </trkpt>
      <trkpt lat="48.06863" lon="7.03893">
        <ele>1015.47</ele>
        <time>2021-06-23T14:46:34Z</time>
      </trkpt>
      <trkpt lat="48.06868" lon="7.03868">
        <ele>1014.46</ele>
        <time>2021-06-23T14:46:35Z</time>
      </trkpt>
      <trkpt lat="48.06864" lon="7.03834">
        <ele>1012.51</ele>
        <time>2021-06-23T14:46:37Z</time>
      </trkpt>
      <trkpt lat="48.06864" lon="7.03834">
        <ele>1012.51</ele>
        <time>2021-06-23T14:46:37Z</time>
      </trkpt>
      <trkpt lat="48.0685" lon="7.03809">
        <ele>1011.51</ele>
        <time>2021-06-23T14:46:39Z</time>
      </trkpt>
      <trkpt lat="48.06822" lon="7.03796">
        <ele>1012.49</ele>
        <time>2021-06-23T14:46:41Z</time>
      </trkpt>
      <trkpt lat="48.06797" lon="7.03815">
        <ele>1016.03</ele>
        <time>2021-06-23T14:46:43Z</time>
      </trkpt>
      <trkpt lat="48.06781" lon="7.03857">
        <ele>1018.65</ele>
        <time>2021-06-23T14:46:44Z</time>
      </trkpt>
      <trkpt lat="48.06771" lon="7.03896">
        <ele>1019.55</ele>
        <time>2021-06-23T14:46:46Z</time>
      </trkpt>
      <trkpt lat="48.06764" lon="7.03968">
        <ele>1016.27</ele>
        <time>2021-06-23T14:46:48Z</time>
      </trkpt>
      <trkpt lat="48.06756" lon="7.04006">
        <ele>1014.34</ele>
        <time>2021-06-23T14:46:50Z</time>
      </trkpt>
      <trkpt lat="48.06676" lon="7.04201">
        <ele>1020.15</ele>
        <time>2021-06-23T14:46:52Z</time>
      </trkpt>
      <trkpt lat="48.06665" lon="7.0422">
        <ele>1021.66</ele>
        <time>2021-06-23T14:46:54Z</time>
      </trkpt>
      <trkpt lat="48.06657" lon="7.04226">
        <ele>1022.23</ele>
        <time>2021-06-23T14:46:56Z</time>
      </trkpt>
      <trkpt lat="48.06631" lon="7.04239">
        <ele>1026.7</ele>
        <time>2021-06-23T14:46:57Z</time>
      </trkpt>
      <trkpt lat="48.06622" lon="7.04247">
        <ele>1028.09</ele>
        <time>2021-06-23T14:46:59Z</time>
      </trkpt>
      <trkpt lat="48.06613" lon="7.04257">
        <ele>1029.06</ele>
        <time>2021-06-23T14:47:01Z</time>
      </trkpt>
      <trkpt lat="48.06606" lon="7.04268">
        <ele>1030.09</ele>
        <time>2021-06-23T14:47:03Z</time>
      </trkpt>
      <trkpt lat="48.06579" lon="7.04329">
        <ele>1031.5</ele>
        <time>2021-06-23T14:47:05Z</time>
      </trkpt>
      <trkpt lat="48.06568" lon="7.04349">
        <ele>1031.56</ele>
        <time>2021-06-23T14:47:07Z</time>
      </trkpt>
      <trkpt lat="48.06548" lon="7.04371">
        <ele>1033.28</ele>
        <time>2021-06-23T14:47:08Z</time>
      </trkpt>
      <trkpt lat="48.06535" lon="7.04379">
        <ele>1034.33</ele>
        <time>2021-06-23T14:47:10Z</time>
      </trkpt>
      <trkpt lat="48.06516" lon="7.04382">
        <ele>1035.79</ele>
        <time>2021-06-23T14:47:12Z</time>
      </trkpt>
      <trkpt lat="48.06497" lon="7.04381">
        <ele>1037.49</ele>
        <time>2021-06-23T14:47:14Z</time>
      </trkpt>
      <trkpt lat="48.06466" lon="7.04366">
        <ele>1043.65</ele>
        <time>2021-06-23T14:47:16Z</time>
      </trkpt>
      <trkpt lat="48.06449" lon="7.04359">
        <ele>1045.98</ele>
        <time>2021-06-23T14:47:18Z</time>
      </trkpt>
      <trkpt lat="48.0643" lon="7.04357">
        <ele>1047.46</ele>
        <time>2021-06-23T14:47:20Z</time>
      </trkpt>
      <trkpt lat="48.06341" lon="7.04363">
        <ele>1050.4</ele>
        <time>2021-06-23T14:47:21Z</time>
      </trkpt>
      <trkpt lat="48.06305" lon="7.04363">
        <ele>1050.73</ele>
        <time>2021-06-23T14:47:23Z</time>
      </trkpt>
      <trkpt lat="48.06286" lon="7.0436">
        <ele>1051.86</ele>
        <time>2021-06-23T14:47:25Z</time>
      </trkpt>
      <trkpt lat="48.06262" lon="7.04355">
        <ele>1054.21</ele>
        <time>2021-06-23T14:47:27Z</time>
      </trkpt>
      <trkpt lat="48.06193" lon="7.04329">
        <ele>1058.76</ele>
        <time>2021-06-23T14:47:29Z</time>
      </trkpt>
      <trkpt lat="48.06163" lon="7.04323">
        <ele>1059.95</ele>
        <time>2021-06-23T14:47:31Z</time>
      </trkpt>
      <trkpt lat="48.06118" lon="7.0432">
        <ele>1058.91</ele>
        <time>2021-06-23T14:47:33Z</time>
      </trkpt>
      <trkpt lat="48.06101" lon="7.04315">
        <ele>1057.23</ele>
        <time>2021-06-23T14:47:34Z</time>
      </trkpt>
      <trkpt lat="48.06088" lon="7.04304">
        <ele>1057.67</ele>
        <time>2021-06-23T14:47:36Z</time>
      </trkpt>
      <trkpt lat="48.06082" lon="7.04296">
        <ele>1058.21</ele>
        <time>2021-06-23T14:47:38Z</time>
      </trkpt>
      <trkpt lat="48.06077" lon="7.04285">
        <ele>1059.19</ele>
        <time>2021-06-23T14:47:40Z</time>
      </trkpt>
      <trkpt lat="48.06045" lon="7.04172">
        <ele>1056</ele>
        <time>2021-06-23T14:47:42Z</time>
      </trkpt>
      <trkpt lat="48.06045" lon="7.04161">
        <ele>1054.92</ele>
        <time>2021-06-23T14:47:44Z</time>
      </trkpt>
      <trkpt lat="48.06047" lon="7.04148">
        <ele>1054.28</ele>
        <time>2021-06-23T14:47:45Z</time>
      </trkpt>
      <trkpt lat="48.06052" lon="7.04138">
        <ele>1055.05</ele>
        <time>2021-06-23T14:47:47Z</time>
      </trkpt>
      <trkpt lat="48.06086" lon="7.04115">
        <ele>1065.88</ele>
        <time>2021-06-23T14:47:49Z</time>
      </trkpt>
      <trkpt lat="48.06097" lon="7.04105">
        <ele>1067.17</ele>
        <time>2021-06-23T14:47:51Z</time>
      </trkpt>
      <trkpt lat="48.06108" lon="7.04087">
        <ele>1067.72</ele>
        <time>2021-06-23T14:47:53Z</time>
      </trkpt>
      <trkpt lat="48.0615" lon="7.04002">
        <ele>1073.15</ele>
        <time>2021-06-23T14:47:55Z</time>
      </trkpt>
      <trkpt lat="48.06167" lon="7.03973">
        <ele>1074.36</ele>
        <time>2021-06-23T14:47:57Z</time>
      </trkpt>
      <trkpt lat="48.06231" lon="7.03898">
        <ele>1083.09</ele>
        <time>2021-06-23T14:47:58Z</time>
      </trkpt>
      <trkpt lat="48.06283" lon="7.0382">
        <ele>1087.96</ele>
        <time>2021-06-23T14:48:00Z</time>
      </trkpt>
      <trkpt lat="48.06304" lon="7.03735">
        <ele>1082.4</ele>
        <time>2021-06-23T14:48:02Z</time>
      </trkpt>
      <trkpt lat="48.06307" lon="7.03713">
        <ele>1081.34</ele>
        <time>2021-06-23T14:48:04Z</time>
      </trkpt>
      <trkpt lat="48.06308" lon="7.03686">
        <ele>1078.65</ele>
        <time>2021-06-23T14:48:06Z</time>
      </trkpt>
      <trkpt lat="48.06314" lon="7.03665">
        <ele>1079.53</ele>
        <time>2021-06-23T14:48:08Z</time>
      </trkpt>
      <trkpt lat="48.06363" lon="7.03582">
        <ele>1094.68</ele>
        <time>2021-06-23T14:48:10Z</time>
      </trkpt>
      <trkpt lat="48.0637" lon="7.03566">
        <ele>1096.01</ele>
        <time>2021-06-23T14:48:11Z</time>
      </trkpt>
      <trkpt lat="48.06378" lon="7.03538">
        <ele>1098.32</ele>
        <time>2021-06-23T14:48:13Z</time>
      </trkpt>
      <trkpt lat="48.06379" lon="7.03512">
        <ele>1099.41</ele>
        <time>2021-06-23T14:48:15Z</time>
      </trkpt>
      <trkpt lat="48.06377" lon="7.03462">
        <ele>1102.54</ele>
        <time>2021-06-23T14:48:17Z</time>
      </trkpt>
      <trkpt lat="48.06373" lon="7.03447">
        <ele>1101.54</ele>
        <time>2021-06-23T14:48:19Z</time>
      </trkpt>
      <trkpt lat="48.06359" lon="7.03417">
        <ele>1096.27</ele>
        <time>2021-06-23T14:48:21Z</time>
      </trkpt>
      <trkpt lat="48.06354" lon="7.03404">
        <ele>1093.2</ele>
        <time>2021-06-23T14:48:22Z</time>
      </trkpt>
      <trkpt lat="48.06353" lon="7.03386">
        <ele>1093.42</ele>
        <time>2021-06-23T14:48:24Z</time>
      </trkpt>
      <trkpt lat="48.06364" lon="7.03264">
        <ele>1100.3</ele>
        <time>2021-06-23T14:48:26Z</time>
      </trkpt>
      <trkpt lat="48.06373" lon="7.03217">
        <ele>1105.44</ele>
        <time>2021-06-23T14:48:28Z</time>
      </trkpt>
      <trkpt lat="48.06389" lon="7.03162">
        <ele>1120.28</ele>
        <time>2021-06-23T14:48:30Z</time>
      </trkpt>
      <trkpt lat="48.06391" lon="7.03148">
        <ele>1124.86</ele>
        <time>2021-06-23T14:48:32Z</time>
      </trkpt>
      <trkpt lat="48.06389" lon="7.03124">
        <ele>1124.59</ele>
        <time>2021-06-23T14:48:34Z</time>
      </trkpt>
      <trkpt lat="48.06372" lon="7.03034">
        <ele>1102.67</ele>
        <time>2021-06-23T14:48:35Z</time>
      </trkpt>
      <trkpt lat="48.06373" lon="7.03017">
        <ele>1099.51</ele>
        <time>2021-06-23T14:48:37Z</time>
      </trkpt>
      <trkpt lat="48.0638" lon="7.02999">
        <ele>1099.18</ele>
        <time>2021-06-23T14:48:39Z</time>
      </trkpt>
      <trkpt lat="48.06392" lon="7.02973">
        <ele>1103.88</ele>
        <time>2021-06-23T14:48:41Z</time>
      </trkpt>
      <trkpt lat="48.06399" lon="7.02954">
        <ele>1110.98</ele>
        <time>2021-06-23T14:48:43Z</time>
      </trkpt>
      <trkpt lat="48.0642" lon="7.02843">
        <ele>1132.3</ele>
        <time>2021-06-23T14:48:45Z</time>
      </trkpt>
      <trkpt lat="48.06423" lon="7.02826">
        <ele>1133.41</ele>
        <time>2021-06-23T14:48:46Z</time>
      </trkpt>
      <trkpt lat="48.06423" lon="7.02807">
        <ele>1132.03</ele>
        <time>2021-06-23T14:48:48Z</time>
      </trkpt>
      <trkpt lat="48.06411" lon="7.02646">
        <ele>1138.16</ele>
        <time>2021-06-23T14:48:50Z</time>
      </trkpt>
      <trkpt lat="48.06409" lon="7.02632">
        <ele>1139.09</ele>
        <time>2021-06-23T14:48:52Z</time>
      </trkpt>
      <trkpt lat="48.06399" lon="7.02597">
        <ele>1137.56</ele>
        <time>2021-06-23T14:48:54Z</time>
      </trkpt>
      <trkpt lat="48.06392" lon="7.0254">
        <ele>1139.66</ele>
        <time>2021-06-23T14:48:56Z</time>
      </trkpt>
      <trkpt lat="48.0637" lon="7.02466">
        <ele>1139.92</ele>
        <time>2021-06-23T14:48:58Z</time>
      </trkpt>
      <trkpt lat="48.06367" lon="7.02448">
        <ele>1142.46</ele>
        <time>2021-06-23T14:48:59Z</time>
      </trkpt>
      <trkpt lat="48.06367" lon="7.02431">
        <ele>1144.51</ele>
        <time>2021-06-23T14:49:01Z</time>
      </trkpt>
      <trkpt lat="48.06371" lon="7.02413">
        <ele>1146.22</ele>
        <time>2021-06-23T14:49:03Z</time>
      </trkpt>
      <trkpt lat="48.06377" lon="7.02397">
        <ele>1146.56</ele>
        <time>2021-06-23T14:49:05Z</time>
      </trkpt>
      <trkpt lat="48.06408" lon="7.02343">
        <ele>1145.41</ele>
        <time>2021-06-23T14:49:07Z</time>
      </trkpt>
      <trkpt lat="48.06413" lon="7.02329">
        <ele>1144.97</ele>
        <time>2021-06-23T14:49:09Z</time>
      </trkpt>
      <trkpt lat="48.06419" lon="7.02296">
        <ele>1142.53</ele>
        <time>2021-06-23T14:49:11Z</time>
      </trkpt>
      <trkpt lat="48.06417" lon="7.02281">
        <ele>1141.31</ele>
        <time>2021-06-23T14:49:12Z</time>
      </trkpt>
      <trkpt lat="48.06415" lon="7.02269">
        <ele>1140.39</ele>
        <time>2021-06-23T14:49:14Z</time>
      </trkpt>
      <trkpt lat="48.0641" lon="7.02258">
        <ele>1139.74</ele>
        <time>2021-06-23T14:49:16Z</time>
      </trkpt>
      <trkpt lat="48.06371" lon="7.02215">
        <ele>1137.82</ele>
        <time>2021-06-23T14:49:18Z</time>
      </trkpt>
      <trkpt lat="48.06361" lon="7.02202">
        <ele>1138</ele>
        <time>2021-06-23T14:49:20Z</time>
      </trkpt>
      <trkpt lat="48.06318" lon="7.02134">
        <ele>1135.73</ele>
        <time>2021-06-23T14:49:22Z</time>
      </trkpt>
      <trkpt lat="48.06298" lon="7.02108">
        <ele>1135.4</ele>
        <time>2021-06-23T14:49:23Z</time>
      </trkpt>
      <trkpt lat="48.06289" lon="7.02098">
        <ele>1135.76</ele>
        <time>2021-06-23T14:49:25Z</time>
      </trkpt>
      <trkpt lat="48.06282" lon="7.02094">
        <ele>1136.1</ele>
        <time>2021-06-23T14:49:27Z</time>
      </trkpt>
      <trkpt lat="48.06252" lon="7.0209">
        <ele>1138.07</ele>
        <time>2021-06-23T14:49:29Z</time>
      </trkpt>
      <trkpt lat="48.06243" lon="7.0208">
        <ele>1139.33</ele>
        <time>2021-06-23T14:49:31Z</time>
      </trkpt>
      <trkpt lat="48.0624" lon="7.02071">
        <ele>1140.05</ele>
        <time>2021-06-23T14:49:33Z</time>
      </trkpt>
      <trkpt lat="48.06239" lon="7.02055">
        <ele>1140.49</ele>
        <time>2021-06-23T14:49:35Z</time>
      </trkpt>
      <trkpt lat="48.0624" lon="7.02048">
        <ele>1140.6</ele>
        <time>2021-06-23T14:49:36Z</time>
      </trkpt>
      <trkpt lat="48.06251" lon="7.02028">
        <ele>1138.88</ele>
        <time>2021-06-23T14:49:38Z</time>
      </trkpt>
      <trkpt lat="48.06265" lon="7.02009">
        <ele>1137.58</ele>
        <time>2021-06-23T14:49:40Z</time>
      </trkpt>
      <trkpt lat="48.06272" lon="7.01993">
        <ele>1137.51</ele>
        <time>2021-06-23T14:49:42Z</time>
      </trkpt>
      <trkpt lat="48.06278" lon="7.01975">
        <ele>1137.88</ele>
        <time>2021-06-23T14:49:44Z</time>
      </trkpt>
      <trkpt lat="48.06283" lon="7.01926">
        <ele>1138.39</ele>
        <time>2021-06-23T14:49:46Z</time>
      </trkpt>
      <trkpt lat="48.06286" lon="7.01852">
        <ele>1138.62</ele>
        <time>2021-06-23T14:49:48Z</time>
      </trkpt>
      <trkpt lat="48.06284" lon="7.01814">
        <ele>1137.14</ele>
        <time>2021-06-23T14:49:49Z</time>
      </trkpt>
      <trkpt lat="48.06281" lon="7.01781">
        <ele>1136.62</ele>
        <time>2021-06-23T14:49:51Z</time>
      </trkpt>
      <trkpt lat="48.06274" lon="7.01745">
        <ele>1138.7</ele>
        <time>2021-06-23T14:49:53Z</time>
      </trkpt>
      <trkpt lat="48.06243" lon="7.01613">
        <ele>1134.06</ele>
        <time>2021-06-23T14:49:55Z</time>
      </trkpt>
      <trkpt lat="48.06231" lon="7.01571">
        <ele>1133.83</ele>
        <time>2021-06-23T14:49:57Z</time>
      </trkpt>
      <trkpt lat="48.06194" lon="7.01482">
        <ele>1135.36</ele>
        <time>2021-06-23T14:49:59Z</time>
      </trkpt>
      <trkpt lat="48.06171" lon="7.01441">
        <ele>1133.98</ele>
        <time>2021-06-23T14:50:00Z</time>
      </trkpt>
      <trkpt lat="48.06153" lon="7.01417">
        <ele>1131.7</ele>
        <time>2021-06-23T14:50:02Z</time>
      </trkpt>
      <trkpt lat="48.06078" lon="7.01348">
        <ele>1133.16</ele>
        <time>2021-06-23T14:50:04Z</time>
      </trkpt>
      <trkpt lat="48.06011" lon="7.01274">
        <ele>1131.76</ele>
        <time>2021-06-23T14:50:06Z</time>
      </trkpt>
      <trkpt lat="48.05986" lon="7.01249">
        <ele>1129.84</ele>
        <time>2021-06-23T14:50:08Z</time>
      </trkpt>
      <trkpt lat="48.05933" lon="7.01204">
        <ele>1129</ele>
        <time>2021-06-23T14:50:10Z</time>
      </trkpt>
      <trkpt lat="48.05914" lon="7.01191">
        <ele>1128.44</ele>
        <time>2021-06-23T14:50:12Z</time>
      </trkpt>
      <trkpt lat="48.05819" lon="7.01141">
        <ele>1123.12</ele>
        <time>2021-06-23T14:50:13Z</time>
      </trkpt>
      <trkpt lat="48.05802" lon="7.01133">
        <ele>1123.15</ele>
        <time>2021-06-23T14:50:15Z</time>
      </trkpt>
      <trkpt lat="48.05787" lon="7.01129">
        <ele>1123.76</ele>
        <time>2021-06-23T14:50:17Z</time>
      </trkpt>
      <trkpt lat="48.05759" lon="7.01128">
        <ele>1126.31</ele>
        <time>2021-06-23T14:50:19Z</time>
      </trkpt>
      <trkpt lat="48.05747" lon="7.01125">
        <ele>1127.33</ele>
        <time>2021-06-23T14:50:21Z</time>
      </trkpt>
      <trkpt lat="48.05729" lon="7.01109">
        <ele>1131.04</ele>
        <time>2021-06-23T14:50:23Z</time>
      </trkpt>
      <trkpt lat="48.05718" lon="7.01089">
        <ele>1132.01</ele>
        <time>2021-06-23T14:50:24Z</time>
      </trkpt>
      <trkpt lat="48.05714" lon="7.01073">
        <ele>1131.68</ele>
        <time>2021-06-23T14:50:26Z</time>
      </trkpt>
      <trkpt lat="48.05712" lon="7.01054">
        <ele>1129.76</ele>
        <time>2021-06-23T14:50:28Z</time>
      </trkpt>
      <trkpt lat="48.05711" lon="7.01001">
        <ele>1123.5</ele>
        <time>2021-06-23T14:50:30Z</time>
      </trkpt>
      <trkpt lat="48.05702" lon="7.00941">
        <ele>1123.53</ele>
        <time>2021-06-23T14:50:32Z</time>
      </trkpt>
      <trkpt lat="48.05683" lon="7.00844">
        <ele>1118.73</ele>
        <time>2021-06-23T14:50:34Z</time>
      </trkpt>
      <trkpt lat="48.05675" lon="7.00816">
        <ele>1118.46</ele>
        <time>2021-06-23T14:50:36Z</time>
      </trkpt>
      <trkpt lat="48.05663" lon="7.00787">
        <ele>1118.08</ele>
        <time>2021-06-23T14:50:37Z</time>
      </trkpt>
      <trkpt lat="48.05656" lon="7.00774">
        <ele>1118.19</ele>
        <time>2021-06-23T14:50:39Z</time>
      </trkpt>
      <trkpt lat="48.05536" lon="7.00613">
        <ele>1122.61</ele>
        <time>2021-06-23T14:50:41Z</time>
      </trkpt>
      <trkpt lat="48.05491" lon="7.00548">
        <ele>1116.01</ele>
        <time>2021-06-23T14:50:43Z</time>
      </trkpt>
      <trkpt lat="48.05426" lon="7.00439">
        <ele>1109.46</ele>
        <time>2021-06-23T14:50:45Z</time>
      </trkpt>
      <trkpt lat="48.054" lon="7.0046">
        <ele>1107.78</ele>
        <time>2021-06-23T14:50:47Z</time>
      </trkpt>
      <trkpt lat="48.05359" lon="7.005">
        <ele>1106.92</ele>
        <time>2021-06-23T14:50:50Z</time>
      </trkpt>
      <trkpt lat="48.05347" lon="7.0051">
        <ele>1107.29</ele>
        <time>2021-06-23T14:50:53Z</time>
      </trkpt>
      <trkpt lat="48.05336" lon="7.00515">
        <ele>1107.23</ele>
        <time>2021-06-23T14:50:55Z</time>
      </trkpt>
      <trkpt lat="48.05325" lon="7.0051">
        <ele>1107.23</ele>
        <time>2021-06-23T14:50:58Z</time>
      </trkpt>
      <trkpt lat="48.05289" lon="7.00452">
        <ele>1101.38</ele>
        <time>2021-06-23T14:51:00Z</time>
      </trkpt>
      <trkpt lat="48.05248" lon="7.00408">
        <ele>1098.33</ele>
        <time>2021-06-23T14:51:03Z</time>
      </trkpt>
      <trkpt lat="48.05215" lon="7.00379">
        <ele>1093.05</ele>
        <time>2021-06-23T14:51:06Z</time>
      </trkpt>
      <trkpt lat="48.05114" lon="7.00312">
        <ele>1081.92</ele>
        <time>2021-06-23T14:51:08Z</time>
      </trkpt>
      <trkpt lat="48.05099" lon="7.00296">
        <ele>1080.98</ele>
        <time>2021-06-23T14:51:11Z</time>
      </trkpt>
      <trkpt lat="48.05085" lon="7.00272">
        <ele>1078.49</ele>
        <time>2021-06-23T14:51:13Z</time>
      </trkpt>
      <trkpt lat="48.05037" lon="7.0012">
        <ele>1064</ele>
        <time>2021-06-23T14:51:16Z</time>
      </trkpt>
      <trkpt lat="48.05024" lon="7.00093">
        <ele>1063.21</ele>
        <time>2021-06-23T14:51:19Z</time>
      </trkpt>
      <trkpt lat="48.05" lon="7.00068">
        <ele>1060.89</ele>
        <time>2021-06-23T14:51:21Z</time>
      </trkpt>
      <trkpt lat="48.04987" lon="7.00062">
        <ele>1058.81</ele>
        <time>2021-06-23T14:51:24Z</time>
      </trkpt>
      <trkpt lat="48.04974" lon="7.00063">
        <ele>1057.27</ele>
        <time>2021-06-23T14:51:26Z</time>
      </trkpt>
      <trkpt lat="48.04958" lon="7.00073">
        <ele>1055.22</ele>
        <time>2021-06-23T14:51:29Z</time>
      </trkpt>
      <trkpt lat="48.04923" lon="7.00104">
        <ele>1054.85</ele>
        <time>2021-06-23T14:51:31Z</time>
      </trkpt>
      <trkpt lat="48.04886" lon="7.00152">
        <ele>1056.12</ele>
        <time>2021-06-23T14:51:34Z</time>
      </trkpt>
      <trkpt lat="48.04854" lon="7.00185">
        <ele>1052.83</ele>
        <time>2021-06-23T14:51:37Z</time>
      </trkpt>
      <trkpt lat="48.04816" lon="7.00207">
        <ele>1049.34</ele>
        <time>2021-06-23T14:51:39Z</time>
      </trkpt>
      <trkpt lat="48.04786" lon="7.00251">
        <ele>1047.03</ele>
        <time>2021-06-23T14:51:42Z</time>
      </trkpt>
      <trkpt lat="48.0476" lon="7.00279">
        <ele>1047.31</ele>
        <time>2021-06-23T14:51:44Z</time>
      </trkpt>
      <trkpt lat="48.04728" lon="7.00285">
        <ele>1041.11</ele>
        <time>2021-06-23T14:51:47Z</time>
      </trkpt>
      <trkpt lat="48.04689" lon="7.00275">
        <ele>1036.12</ele>
        <time>2021-06-23T14:51:50Z</time>
      </trkpt>
      <trkpt lat="48.04641" lon="7.00245">
        <ele>1034.61</ele>
        <time>2021-06-23T14:51:52Z</time>
      </trkpt>
      <trkpt lat="48.04597" lon="7.00195">
        <ele>1030.77</ele>
        <time>2021-06-23T14:51:55Z</time>
      </trkpt>
      <trkpt lat="48.04566" lon="7.00119">
        <ele>1023.74</ele>
        <time>2021-06-23T14:51:57Z</time>
      </trkpt>
      <trkpt lat="48.04552" lon="7.00066">
        <ele>1017.26</ele>
        <time>2021-06-23T14:52:00Z</time>
      </trkpt>
      <trkpt lat="48.04538" lon="7">
        <ele>1017.09</ele>
        <time>2021-06-23T14:52:03Z</time>
      </trkpt>
      <trkpt lat="48.04536" lon="6.99948">
        <ele>1014.24</ele>
        <time>2021-06-23T14:52:05Z</time>
      </trkpt>
      <trkpt lat="48.04536" lon="6.99948">
        <ele>1014.24</ele>
        <time>2021-06-23T14:52:05Z</time>
      </trkpt>
      <trkpt lat="48.04535" lon="6.99916">
        <ele>1011.39</ele>
        <time>2021-06-23T14:52:08Z</time>
      </trkpt>
      <trkpt lat="48.04551" lon="6.99847">
        <ele>1009.19</ele>
        <time>2021-06-23T14:52:10Z</time>
      </trkpt>
      <trkpt lat="48.04597" lon="6.99754">
        <ele>997.57</ele>
        <time>2021-06-23T14:52:12Z</time>
      </trkpt>
      <trkpt lat="48.04616" lon="6.99703">
        <ele>996.72</ele>
        <time>2021-06-23T14:52:15Z</time>
      </trkpt>
      <trkpt lat="48.0466" lon="6.99645">
        <ele>989.73</ele>
        <time>2021-06-23T14:52:17Z</time>
      </trkpt>
      <trkpt lat="48.04762" lon="6.99463">
        <ele>973.91</ele>
        <time>2021-06-23T14:52:19Z</time>
      </trkpt>
      <trkpt lat="48.04775" lon="6.99451">
        <ele>972.78</ele>
        <time>2021-06-23T14:52:22Z</time>
      </trkpt>
      <trkpt lat="48.04814" lon="6.99427">
        <ele>966.85</ele>
        <time>2021-06-23T14:52:24Z</time>
      </trkpt>
      <trkpt lat="48.04827" lon="6.9941">
        <ele>964.8</ele>
        <time>2021-06-23T14:52:27Z</time>
      </trkpt>
      <trkpt lat="48.04832" lon="6.99373">
        <ele>962.68</ele>
        <time>2021-06-23T14:52:29Z</time>
      </trkpt>
      <trkpt lat="48.04826" lon="6.99289">
        <ele>957.37</ele>
        <time>2021-06-23T14:52:31Z</time>
      </trkpt>
      <trkpt lat="48.04826" lon="6.99274">
        <ele>956.2</ele>
        <time>2021-06-23T14:52:34Z</time>
      </trkpt>
      <trkpt lat="48.04849" lon="6.99215">
        <ele>950.88</ele>
        <time>2021-06-23T14:52:36Z</time>
      </trkpt>
      <trkpt lat="48.04856" lon="6.99177">
        <ele>950.66</ele>
        <time>2021-06-23T14:52:39Z</time>
      </trkpt>
      <trkpt lat="48.04858" lon="6.99132">
        <ele>950</ele>
        <time>2021-06-23T14:52:41Z</time>
      </trkpt>
      <trkpt lat="48.04853" lon="6.99081">
        <ele>948.66</ele>
        <time>2021-06-23T14:52:43Z</time>
      </trkpt>
      <trkpt lat="48.04853" lon="6.99068">
        <ele>948.11</ele>
        <time>2021-06-23T14:52:46Z</time>
      </trkpt>
      <trkpt lat="48.04856" lon="6.99055">
        <ele>947.16</ele>
        <time>2021-06-23T14:52:48Z</time>
      </trkpt>
      <trkpt lat="48.04888" lon="6.98997">
        <ele>942.11</ele>
        <time>2021-06-23T14:52:50Z</time>
      </trkpt>
      <trkpt lat="48.04892" lon="6.98984">
        <ele>940.38</ele>
        <time>2021-06-23T14:52:53Z</time>
      </trkpt>
      <trkpt lat="48.04893" lon="6.9897">
        <ele>939.3</ele>
        <time>2021-06-23T14:52:55Z</time>
      </trkpt>
      <trkpt lat="48.0489" lon="6.98919">
        <ele>937.58</ele>
        <time>2021-06-23T14:52:58Z</time>
      </trkpt>
      <trkpt lat="48.04885" lon="6.98902">
        <ele>939.36</ele>
        <time>2021-06-23T14:53:00Z</time>
      </trkpt>
      <trkpt lat="48.04885" lon="6.98883">
        <ele>940.02</ele>
        <time>2021-06-23T14:53:02Z</time>
      </trkpt>
      <trkpt lat="48.04888" lon="6.98864">
        <ele>940.16</ele>
        <time>2021-06-23T14:53:05Z</time>
      </trkpt>
      <trkpt lat="48.04903" lon="6.98833">
        <ele>939.98</ele>
        <time>2021-06-23T14:53:07Z</time>
      </trkpt>
      <trkpt lat="48.0498" lon="6.98743">
        <ele>921.17</ele>
        <time>2021-06-23T14:53:10Z</time>
      </trkpt>
      <trkpt lat="48.04991" lon="6.98716">
        <ele>921.07</ele>
        <time>2021-06-23T14:53:12Z</time>
      </trkpt>
      <trkpt lat="48.04995" lon="6.98719">
        <ele>917.57</ele>
        <time>2021-06-23T14:53:14Z</time>
      </trkpt>
      <trkpt lat="48.05002" lon="6.98719">
        <ele>913.92</ele>
        <time>2021-06-23T14:53:17Z</time>
      </trkpt>
      <trkpt lat="48.05006" lon="6.98716">
        <ele>912.84</ele>
        <time>2021-06-23T14:53:20Z</time>
      </trkpt>
      <trkpt lat="48.05011" lon="6.9871">
        <ele>912.28</ele>
        <time>2021-06-23T14:53:22Z</time>
      </trkpt>
      <trkpt lat="48.05014" lon="6.98699">
        <ele>912.52</ele>
        <time>2021-06-23T14:53:25Z</time>
      </trkpt>
      <trkpt lat="48.05014" lon="6.98688">
        <ele>913.43</ele>
        <time>2021-06-23T14:53:27Z</time>
      </trkpt>
      <trkpt lat="48.05012" lon="6.98665">
        <ele>916.62</ele>
        <time>2021-06-23T14:53:30Z</time>
      </trkpt>
      <trkpt lat="48.05012" lon="6.98646">
        <ele>918.17</ele>
        <time>2021-06-23T14:53:32Z</time>
      </trkpt>
      <trkpt lat="48.05017" lon="6.98617">
        <ele>917.06</ele>
        <time>2021-06-23T14:53:35Z</time>
      </trkpt>
      <trkpt lat="48.05022" lon="6.98562">
        <ele>914.55</ele>
        <time>2021-06-23T14:53:37Z</time>
      </trkpt>
      <trkpt lat="48.05026" lon="6.9854">
        <ele>911.91</ele>
        <time>2021-06-23T14:53:40Z</time>
      </trkpt>
      <trkpt lat="48.05037" lon="6.98514">
        <ele>906.83</ele>
        <time>2021-06-23T14:53:42Z</time>
      </trkpt>
      <trkpt lat="48.05041" lon="6.98497">
        <ele>905.96</ele>
        <time>2021-06-23T14:53:45Z</time>
      </trkpt>
      <trkpt lat="48.05042" lon="6.98484">
        <ele>906.93</ele>
        <time>2021-06-23T14:53:47Z</time>
      </trkpt>
      <trkpt lat="48.0504" lon="6.98444">
        <ele>913.54</ele>
        <time>2021-06-23T14:53:50Z</time>
      </trkpt>
      <trkpt lat="48.05042" lon="6.98427">
        <ele>912.66</ele>
        <time>2021-06-23T14:53:53Z</time>
      </trkpt>
      <trkpt lat="48.05047" lon="6.98405">
        <ele>910.06</ele>
        <time>2021-06-23T14:53:55Z</time>
      </trkpt>
      <trkpt lat="48.05054" lon="6.98383">
        <ele>905.08</ele>
        <time>2021-06-23T14:53:58Z</time>
      </trkpt>
      <trkpt lat="48.05074" lon="6.98343">
        <ele>893.27</ele>
        <time>2021-06-23T14:54:00Z</time>
      </trkpt>
      <trkpt lat="48.05083" lon="6.98314">
        <ele>888.11</ele>
        <time>2021-06-23T14:54:03Z</time>
      </trkpt>
      <trkpt lat="48.05086" lon="6.98287">
        <ele>888.59</ele>
        <time>2021-06-23T14:54:05Z</time>
      </trkpt>
      <trkpt lat="48.05086" lon="6.9821">
        <ele>891.83</ele>
        <time>2021-06-23T14:54:08Z</time>
      </trkpt>
      <trkpt lat="48.05091" lon="6.98169">
        <ele>890.76</ele>
        <time>2021-06-23T14:54:10Z</time>
      </trkpt>
      <trkpt lat="48.05129" lon="6.98018">
        <ele>874.18</ele>
        <time>2021-06-23T14:54:13Z</time>
      </trkpt>
      <trkpt lat="48.0517" lon="6.97908">
        <ele>869.71</ele>
        <time>2021-06-23T14:54:15Z</time>
      </trkpt>
      <trkpt lat="48.05175" lon="6.97898">
        <ele>872.59</ele>
        <time>2021-06-23T14:54:18Z</time>
      </trkpt>
      <trkpt lat="48.05181" lon="6.97893">
        <ele>873.72</ele>
        <time>2021-06-23T14:54:20Z</time>
      </trkpt>
      <trkpt lat="48.05194" lon="6.97892">
        <ele>872.16</ele>
        <time>2021-06-23T14:54:23Z</time>
      </trkpt>
      <trkpt lat="48.05198" lon="6.97897">
        <ele>870.59</ele>
        <time>2021-06-23T14:54:26Z</time>
      </trkpt>
      <trkpt lat="48.052" lon="6.97902">
        <ele>869.22</ele>
        <time>2021-06-23T14:54:28Z</time>
      </trkpt>
      <trkpt lat="48.05202" lon="6.97913">
        <ele>866.18</ele>
        <time>2021-06-23T14:54:31Z</time>
      </trkpt>
      <trkpt lat="48.05202" lon="6.97924">
        <ele>863.93</ele>
        <time>2021-06-23T14:54:33Z</time>
      </trkpt>
      <trkpt lat="48.05186" lon="6.97974">
        <ele>860.31</ele>
        <time>2021-06-23T14:54:36Z</time>
      </trkpt>
      <trkpt lat="48.0518" lon="6.98011">
        <ele>857.24</ele>
        <time>2021-06-23T14:54:38Z</time>
      </trkpt>
      <trkpt lat="48.05181" lon="6.98032">
        <ele>855.5</ele>
        <time>2021-06-23T14:54:41Z</time>
      </trkpt>
      <trkpt lat="48.05193" lon="6.98112">
        <ele>855.25</ele>
        <time>2021-06-23T14:54:43Z</time>
      </trkpt>
      <trkpt lat="48.05192" lon="6.98141">
        <ele>855.26</ele>
        <time>2021-06-23T14:54:46Z</time>
      </trkpt>
      <trkpt lat="48.05182" lon="6.98229">
        <ele>853.65</ele>
        <time>2021-06-23T14:54:48Z</time>
      </trkpt>
      <trkpt lat="48.05179" lon="6.98335">
        <ele>852.08</ele>
        <time>2021-06-23T14:54:51Z</time>
      </trkpt>
      <trkpt lat="48.05176" lon="6.98362">
        <ele>850.34</ele>
        <time>2021-06-23T14:54:53Z</time>
      </trkpt>
      <trkpt lat="48.05172" lon="6.9838">
        <ele>850.77</ele>
        <time>2021-06-23T14:54:56Z</time>
      </trkpt>
      <trkpt lat="48.05163" lon="6.9841">
        <ele>851.06</ele>
        <time>2021-06-23T14:54:59Z</time>
      </trkpt>
      <trkpt lat="48.0516" lon="6.98428">
        <ele>851.42</ele>
        <time>2021-06-23T14:55:01Z</time>
      </trkpt>
      <trkpt lat="48.05159" lon="6.98508">
        <ele>850.84</ele>
        <time>2021-06-23T14:55:04Z</time>
      </trkpt>
      <trkpt lat="48.05165" lon="6.98587">
        <ele>839.06</ele>
        <time>2021-06-23T14:55:06Z</time>
      </trkpt>
      <trkpt lat="48.05173" lon="6.98642">
        <ele>837.28</ele>
        <time>2021-06-23T14:55:09Z</time>
      </trkpt>
      <trkpt lat="48.05186" lon="6.98697">
        <ele>831.27</ele>
        <time>2021-06-23T14:55:11Z</time>
      </trkpt>
      <trkpt lat="48.05189" lon="6.98717">
        <ele>830.29</ele>
        <time>2021-06-23T14:55:14Z</time>
      </trkpt>
      <trkpt lat="48.05189" lon="6.98768">
        <ele>830.34</ele>
        <time>2021-06-23T14:55:16Z</time>
      </trkpt>
      <trkpt lat="48.05191" lon="6.98793">
        <ele>828.85</ele>
        <time>2021-06-23T14:55:19Z</time>
      </trkpt>
      <trkpt lat="48.05197" lon="6.98815">
        <ele>826.46</ele>
        <time>2021-06-23T14:55:21Z</time>
      </trkpt>
      <trkpt lat="48.05205" lon="6.98835">
        <ele>824.39</ele>
        <time>2021-06-23T14:55:24Z</time>
      </trkpt>
      <trkpt lat="48.05246" lon="6.98884">
        <ele>822.05</ele>
        <time>2021-06-23T14:55:26Z</time>
      </trkpt>
      <trkpt lat="48.05256" lon="6.98893">
        <ele>821.9</ele>
        <time>2021-06-23T14:55:29Z</time>
      </trkpt>
      <trkpt lat="48.05269" lon="6.98899">
        <ele>821.6</ele>
        <time>2021-06-23T14:55:32Z</time>
      </trkpt>
      <trkpt lat="48.0535" lon="6.98899">
        <ele>815.42</ele>
        <time>2021-06-23T14:55:34Z</time>
      </trkpt>
      <trkpt lat="48.05378" lon="6.98894">
        <ele>813.17</ele>
        <time>2021-06-23T14:55:37Z</time>
      </trkpt>
      <trkpt lat="48.05392" lon="6.98887">
        <ele>811.84</ele>
        <time>2021-06-23T14:55:39Z</time>
      </trkpt>
      <trkpt lat="48.05408" lon="6.98877">
        <ele>810.99</ele>
        <time>2021-06-23T14:55:42Z</time>
      </trkpt>
      <trkpt lat="48.05425" lon="6.98861">
        <ele>810.15</ele>
        <time>2021-06-23T14:55:44Z</time>
      </trkpt>
      <trkpt lat="48.05474" lon="6.98796">
        <ele>800.24</ele>
        <time>2021-06-23T14:55:47Z</time>
      </trkpt>
      <trkpt lat="48.05493" lon="6.98776">
        <ele>795.49</ele>
        <time>2021-06-23T14:55:49Z</time>
      </trkpt>
      <trkpt lat="48.05505" lon="6.98766">
        <ele>794.76</ele>
        <time>2021-06-23T14:55:52Z</time>
      </trkpt>
      <trkpt lat="48.05518" lon="6.98761">
        <ele>795.07</ele>
        <time>2021-06-23T14:55:54Z</time>
      </trkpt>
      <trkpt lat="48.05538" lon="6.98758">
        <ele>795.9</ele>
        <time>2021-06-23T14:55:57Z</time>
      </trkpt>
      <trkpt lat="48.05582" lon="6.98757">
        <ele>797.57</ele>
        <time>2021-06-23T14:55:59Z</time>
      </trkpt>
      <trkpt lat="48.05606" lon="6.98747">
        <ele>797.73</ele>
        <time>2021-06-23T14:56:02Z</time>
      </trkpt>
      <trkpt lat="48.05649" lon="6.98704">
        <ele>791.68</ele>
        <time>2021-06-23T14:56:05Z</time>
      </trkpt>
      <trkpt lat="48.05695" lon="6.98663">
        <ele>784.46</ele>
        <time>2021-06-23T14:56:07Z</time>
      </trkpt>
      <trkpt lat="48.05731" lon="6.98624">
        <ele>783.68</ele>
        <time>2021-06-23T14:56:10Z</time>
      </trkpt>
      <trkpt lat="48.05775" lon="6.9858">
        <ele>782.42</ele>
        <time>2021-06-23T14:56:12Z</time>
      </trkpt>
      <trkpt lat="48.05825" lon="6.98536">
        <ele>786.16</ele>
        <time>2021-06-23T14:56:15Z</time>
      </trkpt>
      <trkpt lat="48.05846" lon="6.98514">
        <ele>787.01</ele>
        <time>2021-06-23T14:56:17Z</time>
      </trkpt>
      <trkpt lat="48.05864" lon="6.98493">
        <ele>789.93</ele>
        <time>2021-06-23T14:56:20Z</time>
      </trkpt>
      <trkpt lat="48.05898" lon="6.98446">
        <ele>795.08</ele>
        <time>2021-06-23T14:56:22Z</time>
      </trkpt>
      <trkpt lat="48.05905" lon="6.98428">
        <ele>794.7</ele>
        <time>2021-06-23T14:56:25Z</time>
      </trkpt>
      <trkpt lat="48.05909" lon="6.98411">
        <ele>794.01</ele>
        <time>2021-06-23T14:56:27Z</time>
      </trkpt>
      <trkpt lat="48.05913" lon="6.9839">
        <ele>793.22</ele>
        <time>2021-06-23T14:56:30Z</time>
      </trkpt>
      <trkpt lat="48.05915" lon="6.98366">
        <ele>793.53</ele>
        <time>2021-06-23T14:56:32Z</time>
      </trkpt>
      <trkpt lat="48.05914" lon="6.98352">
        <ele>793.74</ele>
        <time>2021-06-23T14:56:35Z</time>
      </trkpt>
      <trkpt lat="48.05912" lon="6.9834">
        <ele>793.86</ele>
        <time>2021-06-23T14:56:38Z</time>
      </trkpt>
      <trkpt lat="48.05907" lon="6.98327">
        <ele>793.34</ele>
        <time>2021-06-23T14:56:40Z</time>
      </trkpt>
      <trkpt lat="48.0588" lon="6.9829">
        <ele>791</ele>
        <time>2021-06-23T14:56:43Z</time>
      </trkpt>
      <trkpt lat="48.05878" lon="6.98282">
        <ele>790.68</ele>
        <time>2021-06-23T14:56:45Z</time>
      </trkpt>
      <trkpt lat="48.05877" lon="6.98272">
        <ele>790.26</ele>
        <time>2021-06-23T14:56:48Z</time>
      </trkpt>
      <trkpt lat="48.05882" lon="6.98255">
        <ele>789.33</ele>
        <time>2021-06-23T14:56:50Z</time>
      </trkpt>
      <trkpt lat="48.05892" lon="6.98242">
        <ele>788.96</ele>
        <time>2021-06-23T14:56:53Z</time>
      </trkpt>
      <trkpt lat="48.05928" lon="6.98219">
        <ele>794.65</ele>
        <time>2021-06-23T14:56:55Z</time>
      </trkpt>
      <trkpt lat="48.05944" lon="6.98202">
        <ele>794.37</ele>
        <time>2021-06-23T14:56:58Z</time>
      </trkpt>
      <trkpt lat="48.05968" lon="6.98161">
        <ele>789.64</ele>
        <time>2021-06-23T14:57:00Z</time>
      </trkpt>
      <trkpt lat="48.0598" lon="6.98132">
        <ele>786.02</ele>
        <time>2021-06-23T14:57:03Z</time>
      </trkpt>
      <trkpt lat="48.05991" lon="6.9811">
        <ele>783.19</ele>
        <time>2021-06-23T14:57:05Z</time>
      </trkpt>
      <trkpt lat="48.06034" lon="6.98073">
        <ele>784.13</ele>
        <time>2021-06-23T14:57:08Z</time>
      </trkpt>
      <trkpt lat="48.06043" lon="6.98061">
        <ele>784.41</ele>
        <time>2021-06-23T14:57:11Z</time>
      </trkpt>
      <trkpt lat="48.06052" lon="6.98045">
        <ele>783.54</ele>
        <time>2021-06-23T14:57:13Z</time>
      </trkpt>
      <trkpt lat="48.0606" lon="6.9801">
        <ele>779.84</ele>
        <time>2021-06-23T14:57:16Z</time>
      </trkpt>
      <trkpt lat="48.06078" lon="6.97913">
        <ele>771.74</ele>
        <time>2021-06-23T14:57:18Z</time>
      </trkpt>
      <trkpt lat="48.061" lon="6.97844">
        <ele>771.07</ele>
        <time>2021-06-23T14:57:21Z</time>
      </trkpt>
      <trkpt lat="48.06106" lon="6.97813">
        <ele>770.85</ele>
        <time>2021-06-23T14:57:23Z</time>
      </trkpt>
      <trkpt lat="48.0611" lon="6.97782">
        <ele>769.07</ele>
        <time>2021-06-23T14:57:26Z</time>
      </trkpt>
      <trkpt lat="48.06113" lon="6.97732">
        <ele>768.81</ele>
        <time>2021-06-23T14:57:28Z</time>
      </trkpt>
      <trkpt lat="48.06113" lon="6.97682">
        <ele>770.9</ele>
        <time>2021-06-23T14:57:31Z</time>
      </trkpt>
      <trkpt lat="48.06116" lon="6.97647">
        <ele>772.04</ele>
        <time>2021-06-23T14:57:33Z</time>
      </trkpt>
      <trkpt lat="48.06122" lon="6.97614">
        <ele>772.58</ele>
        <time>2021-06-23T14:57:36Z</time>
      </trkpt>
      <trkpt lat="48.06145" lon="6.9754">
        <ele>772.36</ele>
        <time>2021-06-23T14:57:38Z</time>
      </trkpt>
      <trkpt lat="48.06151" lon="6.97517">
        <ele>773.89</ele>
        <time>2021-06-23T14:57:41Z</time>
      </trkpt>
      <trkpt lat="48.06154" lon="6.97493">
        <ele>775.03</ele>
        <time>2021-06-23T14:57:44Z</time>
      </trkpt>
      <trkpt lat="48.06155" lon="6.97428">
        <ele>774.84</ele>
        <time>2021-06-23T14:57:46Z</time>
      </trkpt>
      <trkpt lat="48.06152" lon="6.97363">
        <ele>775.43</ele>
        <time>2021-06-23T14:57:49Z</time>
      </trkpt>
      <trkpt lat="48.06159" lon="6.97283">
        <ele>768.1</ele>
        <time>2021-06-23T14:57:51Z</time>
      </trkpt>
      <trkpt lat="48.06166" lon="6.97185">
        <ele>764.75</ele>
        <time>2021-06-23T14:57:54Z</time>
      </trkpt>
      <trkpt lat="48.06171" lon="6.97144">
        <ele>764.89</ele>
        <time>2021-06-23T14:57:56Z</time>
      </trkpt>
      <trkpt lat="48.06178" lon="6.97116">
        <ele>763.91</ele>
        <time>2021-06-23T14:57:59Z</time>
      </trkpt>
      <trkpt lat="48.062" lon="6.97049">
        <ele>762.13</ele>
        <time>2021-06-23T14:58:01Z</time>
      </trkpt>
      <trkpt lat="48.06243" lon="6.96937">
        <ele>757.12</ele>
        <time>2021-06-23T14:58:04Z</time>
      </trkpt>
      <trkpt lat="48.06272" lon="6.96855">
        <ele>756.97</ele>
        <time>2021-06-23T14:58:06Z</time>
      </trkpt>
      <trkpt lat="48.0628" lon="6.96825">
        <ele>756.78</ele>
        <time>2021-06-23T14:58:09Z</time>
      </trkpt>
      <trkpt lat="48.06284" lon="6.96799">
        <ele>756.12</ele>
        <time>2021-06-23T14:58:11Z</time>
      </trkpt>
      <trkpt lat="48.06295" lon="6.96707">
        <ele>757.6</ele>
        <time>2021-06-23T14:58:14Z</time>
      </trkpt>
      <trkpt lat="48.06295" lon="6.96681">
        <ele>756.09</ele>
        <time>2021-06-23T14:58:17Z</time>
      </trkpt>
      <trkpt lat="48.06292" lon="6.96639">
        <ele>753.55</ele>
        <time>2021-06-23T14:58:19Z</time>
      </trkpt>
      <trkpt lat="48.06292" lon="6.96578">
        <ele>753.3</ele>
        <time>2021-06-23T14:58:22Z</time>
      </trkpt>
      <trkpt lat="48.06295" lon="6.96548">
        <ele>752.42</ele>
        <time>2021-06-23T14:58:24Z</time>
      </trkpt>
      <trkpt lat="48.06306" lon="6.9649">
        <ele>752.67</ele>
        <time>2021-06-23T14:58:27Z</time>
      </trkpt>
      <trkpt lat="48.06315" lon="6.96456">
        <ele>752.21</ele>
        <time>2021-06-23T14:58:29Z</time>
      </trkpt>
      <trkpt lat="48.0634" lon="6.96388">
        <ele>749.63</ele>
        <time>2021-06-23T14:58:32Z</time>
      </trkpt>
      <trkpt lat="48.06367" lon="6.96339">
        <ele>747.04</ele>
        <time>2021-06-23T14:58:34Z</time>
      </trkpt>
      <trkpt lat="48.06417" lon="6.96252">
        <ele>745.23</ele>
        <time>2021-06-23T14:58:37Z</time>
      </trkpt>
      <trkpt lat="48.06461" lon="6.96183">
        <ele>744.48</ele>
        <time>2021-06-23T14:58:39Z</time>
      </trkpt>
      <trkpt lat="48.06526" lon="6.96102">
        <ele>747.38</ele>
        <time>2021-06-23T14:58:42Z</time>
      </trkpt>
      <trkpt lat="48.06551" lon="6.96063">
        <ele>749.28</ele>
        <time>2021-06-23T14:58:44Z</time>
      </trkpt>
      <trkpt lat="48.06577" lon="6.9603">
        <ele>752.65</ele>
        <time>2021-06-23T14:58:47Z</time>
      </trkpt>
      <trkpt lat="48.06602" lon="6.96001">
        <ele>751.13</ele>
        <time>2021-06-23T14:58:50Z</time>
      </trkpt>
      <trkpt lat="48.06656" lon="6.95956">
        <ele>749.92</ele>
        <time>2021-06-23T14:58:52Z</time>
      </trkpt>
      <trkpt lat="48.06668" lon="6.95942">
        <ele>748.97</ele>
        <time>2021-06-23T14:58:55Z</time>
      </trkpt>
      <trkpt lat="48.06743" lon="6.95817">
        <ele>750.13</ele>
        <time>2021-06-23T14:58:57Z</time>
      </trkpt>
      <trkpt lat="48.06786" lon="6.95756">
        <ele>749.17</ele>
        <time>2021-06-23T14:59:00Z</time>
      </trkpt>
      <trkpt lat="48.06839" lon="6.95696">
        <ele>748.33</ele>
        <time>2021-06-23T14:59:02Z</time>
      </trkpt>
      <trkpt lat="48.06858" lon="6.95665">
        <ele>747.5</ele>
        <time>2021-06-23T14:59:05Z</time>
      </trkpt>
      <trkpt lat="48.06876" lon="6.95642">
        <ele>750.86</ele>
        <time>2021-06-23T14:59:07Z</time>
      </trkpt>
      <trkpt lat="48.06928" lon="6.956">
        <ele>752.45</ele>
        <time>2021-06-23T14:59:10Z</time>
      </trkpt>
      <trkpt lat="48.06989" lon="6.95537">
        <ele>754.38</ele>
        <time>2021-06-23T14:59:12Z</time>
      </trkpt>
      <trkpt lat="48.0707" lon="6.95435">
        <ele>756.71</ele>
        <time>2021-06-23T14:59:15Z</time>
      </trkpt>
      <trkpt lat="48.07237" lon="6.95275">
        <ele>755.99</ele>
        <time>2021-06-23T14:59:17Z</time>
      </trkpt>
      <trkpt lat="48.07274" lon="6.95228">
        <ele>752.99</ele>
        <time>2021-06-23T14:59:20Z</time>
      </trkpt>
      <trkpt lat="48.07289" lon="6.95217">
        <ele>753.76</ele>
        <time>2021-06-23T14:59:22Z</time>
      </trkpt>
      <trkpt lat="48.07408" lon="6.95138">
        <ele>748.93</ele>
        <time>2021-06-23T14:59:25Z</time>
      </trkpt>
      <trkpt lat="48.0744" lon="6.95124">
        <ele>754.49</ele>
        <time>2021-06-23T14:59:28Z</time>
      </trkpt>
      <trkpt lat="48.07483" lon="6.9509">
        <ele>751.54</ele>
        <time>2021-06-23T14:59:30Z</time>
      </trkpt>
      <trkpt lat="48.07514" lon="6.9508">
        <ele>750</ele>
        <time>2021-06-23T14:59:33Z</time>
      </trkpt>
      <trkpt lat="48.07554" lon="6.95085">
        <ele>750.75</ele>
        <time>2021-06-23T14:59:35Z</time>
      </trkpt>
      <trkpt lat="48.07587" lon="6.95078">
        <ele>749.13</ele>
        <time>2021-06-23T14:59:38Z</time>
      </trkpt>
      <trkpt lat="48.07635" lon="6.95055">
        <ele>749.78</ele>
        <time>2021-06-23T14:59:40Z</time>
      </trkpt>
      <trkpt lat="48.07678" lon="6.95042">
        <ele>757.22</ele>
        <time>2021-06-23T14:59:43Z</time>
      </trkpt>
      <trkpt lat="48.07723" lon="6.95022">
        <ele>756</ele>
        <time>2021-06-23T14:59:45Z</time>
      </trkpt>
      <trkpt lat="48.07771" lon="6.95005">
        <ele>757.71</ele>
        <time>2021-06-23T14:59:48Z</time>
      </trkpt>
      <trkpt lat="48.07811" lon="6.94984">
        <ele>754.74</ele>
        <time>2021-06-23T14:59:50Z</time>
      </trkpt>
      <trkpt lat="48.07833" lon="6.9497">
        <ele>753.61</ele>
        <time>2021-06-23T14:59:53Z</time>
      </trkpt>
      <trkpt lat="48.07862" lon="6.94943">
        <ele>750.78</ele>
        <time>2021-06-23T14:59:55Z</time>
      </trkpt>
      <trkpt lat="48.07927" lon="6.94896">
        <ele>752.06</ele>
        <time>2021-06-23T14:59:58Z</time>
      </trkpt>
      <trkpt lat="48.08012" lon="6.9481">
        <ele>750.21</ele>
        <time>2021-06-23T15:00:01Z</time>
      </trkpt>
      <trkpt lat="48.08029" lon="6.94795">
        <ele>749.87</ele>
        <time>2021-06-23T15:00:03Z</time>
      </trkpt>
      <trkpt lat="48.08048" lon="6.94785">
        <ele>749.86</ele>
        <time>2021-06-23T15:00:06Z</time>
      </trkpt>
      <trkpt lat="48.08222" lon="6.94716">
        <ele>744.79</ele>
        <time>2021-06-23T15:00:08Z</time>
      </trkpt>
      <trkpt lat="48.08234" lon="6.94716">
        <ele>744.77</ele>
        <time>2021-06-23T15:00:11Z</time>
      </trkpt>
      <trkpt lat="48.08246" lon="6.94726">
        <ele>745.39</ele>
        <time>2021-06-23T15:00:13Z</time>
      </trkpt>
      <trkpt lat="48.08255" lon="6.94747">
        <ele>747.8</ele>
        <time>2021-06-23T15:00:16Z</time>
      </trkpt>
      <trkpt lat="48.08257" lon="6.94755">
        <ele>748.99</ele>
        <time>2021-06-23T15:00:18Z</time>
      </trkpt>
      <trkpt lat="48.08268" lon="6.94746">
        <ele>748.13</ele>
        <time>2021-06-23T15:00:20Z</time>
      </trkpt>
      <trkpt lat="48.08292" lon="6.94719">
        <ele>745.82</ele>
        <time>2021-06-23T15:00:22Z</time>
      </trkpt>
      <trkpt lat="48.08306" lon="6.94697">
        <ele>745.2</ele>
        <time>2021-06-23T15:00:24Z</time>
      </trkpt>
      <trkpt lat="48.08317" lon="6.94662">
        <ele>745.37</ele>
        <time>2021-06-23T15:00:25Z</time>
      </trkpt>
      <trkpt lat="48.08321" lon="6.94642">
        <ele>746.08</ele>
        <time>2021-06-23T15:00:27Z</time>
      </trkpt>
      <trkpt lat="48.08323" lon="6.94645">
        <ele>747</ele>
        <time>2021-06-23T15:00:28Z</time>
      </trkpt>
      <trkpt lat="48.08323" lon="6.94645">
        <ele>747</ele>
        <time>2021-06-23T15:00:28Z</time>
      </trkpt>
      <trkpt lat="48.08321" lon="6.94642">
        <ele>746.08</ele>
        <time>2021-06-23T15:00:28Z</time>
      </trkpt>
      <trkpt lat="48.08323" lon="6.94598">
        <ele>746.53</ele>
        <time>2021-06-23T15:00:41Z</time>
      </trkpt>
      <trkpt lat="48.0831" lon="6.94487">
        <ele>748.52</ele>
        <time>2021-06-23T15:00:53Z</time>
      </trkpt>
      <trkpt lat="48.08312" lon="6.94414">
        <ele>747.72</ele>
        <time>2021-06-23T15:01:06Z</time>
      </trkpt>
      <trkpt lat="48.0835" lon="6.9373">
        <ele>733.76</ele>
        <time>2021-06-23T15:01:18Z</time>
      </trkpt>
      <trkpt lat="48.08381" lon="6.93299">
        <ele>726.28</ele>
        <time>2021-06-23T15:01:30Z</time>
      </trkpt>
      <trkpt lat="48.08392" lon="6.93125">
        <ele>730.16</ele>
        <time>2021-06-23T15:01:43Z</time>
      </trkpt>
      <trkpt lat="48.08399" lon="6.92975">
        <ele>726.57</ele>
        <time>2021-06-23T15:01:55Z</time>
      </trkpt>
      <trkpt lat="48.08399" lon="6.92929">
        <ele>725.7</ele>
        <time>2021-06-23T15:02:08Z</time>
      </trkpt>
      <trkpt lat="48.08396" lon="6.9288">
        <ele>724.47</ele>
        <time>2021-06-23T15:02:20Z</time>
      </trkpt>
      <trkpt lat="48.0839" lon="6.92817">
        <ele>723.16</ele>
        <time>2021-06-23T15:02:33Z</time>
      </trkpt>
      <trkpt lat="48.08385" lon="6.92705">
        <ele>723.7</ele>
        <time>2021-06-23T15:02:45Z</time>
      </trkpt>
      <trkpt lat="48.08377" lon="6.92651">
        <ele>721.84</ele>
        <time>2021-06-23T15:02:58Z</time>
      </trkpt>
      <trkpt lat="48.08433" lon="6.92655">
        <ele>728.55</ele>
        <time>2021-06-23T15:03:01Z</time>
      </trkpt>
      <trkpt lat="48.08468" lon="6.92661">
        <ele>730.8</ele>
        <time>2021-06-23T15:03:05Z</time>
      </trkpt>
      <trkpt lat="48.08474" lon="6.92658">
        <ele>731.13</ele>
        <time>2021-06-23T15:03:09Z</time>
      </trkpt>
      <trkpt lat="48.08478" lon="6.92652">
        <ele>731.41</ele>
        <time>2021-06-23T15:03:12Z</time>
      </trkpt>
      <trkpt lat="48.0848" lon="6.92644">
        <ele>731.57</ele>
        <time>2021-06-23T15:03:16Z</time>
      </trkpt>
      <trkpt lat="48.08479" lon="6.92636">
        <ele>731.81</ele>
        <time>2021-06-23T15:03:20Z</time>
      </trkpt>
      <trkpt lat="48.08476" lon="6.9263">
        <ele>732.3</ele>
        <time>2021-06-23T15:03:23Z</time>
      </trkpt>
      <trkpt lat="48.08459" lon="6.9261">
        <ele>732.73</ele>
        <time>2021-06-23T15:03:27Z</time>
      </trkpt>
      <trkpt lat="48.08457" lon="6.92599">
        <ele>733.86</ele>
        <time>2021-06-23T15:03:31Z</time>
      </trkpt>
      <trkpt lat="48.08458" lon="6.9259">
        <ele>735.16</ele>
        <time>2021-06-23T15:03:34Z</time>
      </trkpt>
      <trkpt lat="48.08462" lon="6.92582">
        <ele>736.5</ele>
        <time>2021-06-23T15:03:38Z</time>
      </trkpt>
      <trkpt lat="48.08473" lon="6.92568">
        <ele>738.06</ele>
        <time>2021-06-23T15:03:42Z</time>
      </trkpt>
      <trkpt lat="48.08482" lon="6.92561">
        <ele>739.02</ele>
        <time>2021-06-23T15:03:45Z</time>
      </trkpt>
      <trkpt lat="48.08555" lon="6.92534">
        <ele>743.43</ele>
        <time>2021-06-23T15:03:49Z</time>
      </trkpt>
      <trkpt lat="48.08589" lon="6.92528">
        <ele>747.19</ele>
        <time>2021-06-23T15:03:53Z</time>
      </trkpt>
      <trkpt lat="48.08609" lon="6.92541">
        <ele>752.4</ele>
        <time>2021-06-23T15:03:56Z</time>
      </trkpt>
      <trkpt lat="48.08618" lon="6.92552">
        <ele>753.75</ele>
        <time>2021-06-23T15:03:59Z</time>
      </trkpt>
    </trkseg>
  </trk>
</gpx>